<?xml version='1.0' encoding='UTF-8'?><gpx version="1.1" creator="JPX - https://github.com/jenetics/jpx" xmlns="http://www.topografix.com/GPX/1/1"><trk><trkseg><trkpt lat="43.1215399" lon="12.2011768"><ele>246.00000000000003</ele><time>2026-04-12T06:14:11.63Z</time></trkpt><trkpt lat="43.1214548" lon="12.2011688"><ele>246.0</ele><time>2026-04-12T06:14:13.437Z</time></trkpt><trkpt lat="43.1215218" lon="12.201175"><ele>246.00000000000003</ele><time>2026-04-12T06:14:24.474Z</time></trkpt><trkpt lat="43.1214456" lon="12.2011642"><ele>246.00000000000003</ele><time>2026-04-12T06:19:19.652Z</time></trkpt><trkpt lat="43.1213827" lon="12.2011411"><ele>246.0</ele><time>2026-04-12T06:19:24.651Z</time></trkpt><trkpt lat="43.1213128" lon="12.2011063"><ele>246.00000000000003</ele><time>2026-04-12T06:19:29.65Z</time></trkpt><trkpt lat="43.1212481" lon="12.2011293"><ele>246.00000000000003</ele><time>2026-04-12T06:19:37.658Z</time></trkpt><trkpt lat="43.1212277" lon="12.2012171"><ele>246.0</ele><time>2026-04-12T06:20:25.656Z</time></trkpt><trkpt lat="43.1211876" lon="12.2013111"><ele>246.00000000000003</ele><time>2026-04-12T06:20:27.653Z</time></trkpt><trkpt lat="43.1211912" lon="12.2014202"><ele>246.00000000000003</ele><time>2026-04-12T06:20:29.655Z</time></trkpt><trkpt lat="43.1211576" lon="12.201506"><ele>246.0</ele><time>2026-04-12T06:20:32.649Z</time></trkpt><trkpt lat="43.121324" lon="12.201553"><ele>246.0</ele><time>2026-04-12T06:20:42.641Z</time></trkpt><trkpt lat="43.1214272" lon="12.2015846"><ele>245.75</ele><time>2026-04-12T06:20:43.638Z</time></trkpt><trkpt lat="43.1215346" lon="12.2016066"><ele>245.5</ele><time>2026-04-12T06:20:44.636Z</time></trkpt><trkpt lat="43.1216481" lon="12.201631"><ele>245.25</ele><time>2026-04-12T06:20:45.634Z</time></trkpt><trkpt lat="43.1217661" lon="12.2016616"><ele>245.0</ele><time>2026-04-12T06:20:46.637Z</time></trkpt><trkpt lat="43.1218854" lon="12.2016926"><ele>245.0</ele><time>2026-04-12T06:20:47.638Z</time></trkpt><trkpt lat="43.1220006" lon="12.2017246"><ele>245.0</ele><time>2026-04-12T06:20:48.636Z</time></trkpt><trkpt lat="43.1221164" lon="12.2017557"><ele>245.0</ele><time>2026-04-12T06:20:49.634Z</time></trkpt><trkpt lat="43.1222322" lon="12.2017896"><ele>245.0</ele><time>2026-04-12T06:20:50.633Z</time></trkpt><trkpt lat="43.1223542" lon="12.2018265"><ele>245.0</ele><time>2026-04-12T06:20:51.638Z</time></trkpt><trkpt lat="43.1224836" lon="12.2018625"><ele>245.0</ele><time>2026-04-12T06:20:52.636Z</time></trkpt><trkpt lat="43.1226129" lon="12.2018982"><ele>245.0</ele><time>2026-04-12T06:20:53.655Z</time></trkpt><trkpt lat="43.1227418" lon="12.2019319"><ele>245.0</ele><time>2026-04-12T06:20:54.641Z</time></trkpt><trkpt lat="43.1228693" lon="12.2019679"><ele>245.0</ele><time>2026-04-12T06:20:55.638Z</time></trkpt><trkpt lat="43.122997" lon="12.2020098"><ele>245.0</ele><time>2026-04-12T06:20:56.641Z</time></trkpt><trkpt lat="43.1231315" lon="12.2020506"><ele>245.0</ele><time>2026-04-12T06:20:57.638Z</time></trkpt><trkpt lat="43.1232777" lon="12.2020984"><ele>245.0</ele><time>2026-04-12T06:20:58.637Z</time></trkpt><trkpt lat="43.1234226" lon="12.2021461"><ele>244.25</ele><time>2026-04-12T06:20:59.637Z</time></trkpt><trkpt lat="43.1235558" lon="12.2021824"><ele>243.5</ele><time>2026-04-12T06:21:00.635Z</time></trkpt><trkpt lat="43.1236736" lon="12.202218"><ele>242.75</ele><time>2026-04-12T06:21:01.636Z</time></trkpt><trkpt lat="43.1237944" lon="12.202242"><ele>242.0</ele><time>2026-04-12T06:21:02.632Z</time></trkpt><trkpt lat="43.1239208" lon="12.2022657"><ele>242.0</ele><time>2026-04-12T06:21:03.633Z</time></trkpt><trkpt lat="43.1240378" lon="12.2022965"><ele>242.0</ele><time>2026-04-12T06:21:04.631Z</time></trkpt><trkpt lat="43.1241406" lon="12.2023195"><ele>242.0</ele><time>2026-04-12T06:21:05.627Z</time></trkpt><trkpt lat="43.1242364" lon="12.2023353"><ele>242.0</ele><time>2026-04-12T06:21:06.635Z</time></trkpt><trkpt lat="43.1243248" lon="12.2023415"><ele>242.0</ele><time>2026-04-12T06:21:07.633Z</time></trkpt><trkpt lat="43.1243963" lon="12.2023448"><ele>241.6</ele><time>2026-04-12T06:21:08.635Z</time></trkpt><trkpt lat="43.1244633" lon="12.2023253"><ele>241.2</ele><time>2026-04-12T06:21:11.644Z</time></trkpt><trkpt lat="43.124658" lon="12.2023287"><ele>240.8</ele><time>2026-04-12T06:21:22.642Z</time></trkpt><trkpt lat="43.1247437" lon="12.2023373"><ele>240.4</ele><time>2026-04-12T06:21:23.64Z</time></trkpt><trkpt lat="43.1248322" lon="12.2023402"><ele>240.0</ele><time>2026-04-12T06:21:24.67Z</time></trkpt><trkpt lat="43.1249246" lon="12.2023505"><ele>239.75</ele><time>2026-04-12T06:21:25.637Z</time></trkpt><trkpt lat="43.12503" lon="12.2023639"><ele>239.5</ele><time>2026-04-12T06:21:26.635Z</time></trkpt><trkpt lat="43.1251479" lon="12.2023853"><ele>239.25</ele><time>2026-04-12T06:21:27.635Z</time></trkpt><trkpt lat="43.1252739" lon="12.2024087"><ele>239.0</ele><time>2026-04-12T06:21:28.636Z</time></trkpt><trkpt lat="43.125409" lon="12.2024381"><ele>239.0</ele><time>2026-04-12T06:21:29.636Z</time></trkpt><trkpt lat="43.1255498" lon="12.2024687"><ele>239.0</ele><time>2026-04-12T06:21:30.642Z</time></trkpt><trkpt lat="43.1256845" lon="12.2024972"><ele>239.0</ele><time>2026-04-12T06:21:31.641Z</time></trkpt><trkpt lat="43.1258108" lon="12.2025224"><ele>239.0</ele><time>2026-04-12T06:21:32.642Z</time></trkpt><trkpt lat="43.1259326" lon="12.2025479"><ele>238.75</ele><time>2026-04-12T06:21:33.637Z</time></trkpt><trkpt lat="43.1260564" lon="12.20257"><ele>238.5</ele><time>2026-04-12T06:21:34.643Z</time></trkpt><trkpt lat="43.1261845" lon="12.2025854"><ele>238.25</ele><time>2026-04-12T06:21:35.639Z</time></trkpt><trkpt lat="43.126321" lon="12.2025923"><ele>238.0</ele><time>2026-04-12T06:21:36.634Z</time></trkpt><trkpt lat="43.1264681" lon="12.2025964"><ele>238.33333333333331</ele><time>2026-04-12T06:21:37.636Z</time></trkpt><trkpt lat="43.1266358" lon="12.2025977"><ele>238.66666666666669</ele><time>2026-04-12T06:21:38.637Z</time></trkpt><trkpt lat="43.1267929" lon="12.2026187"><ele>239.0</ele><time>2026-04-12T06:21:39.639Z</time></trkpt><trkpt lat="43.1269292" lon="12.2026733"><ele>239.0</ele><time>2026-04-12T06:21:40.632Z</time></trkpt><trkpt lat="43.127051" lon="12.2027431"><ele>239.0</ele><time>2026-04-12T06:21:41.636Z</time></trkpt><trkpt lat="43.1271697" lon="12.2028224"><ele>239.0</ele><time>2026-04-12T06:21:42.639Z</time></trkpt><trkpt lat="43.1272923" lon="12.2029003"><ele>239.0</ele><time>2026-04-12T06:21:43.635Z</time></trkpt><trkpt lat="43.127421" lon="12.2029764"><ele>239.33333333333334</ele><time>2026-04-12T06:21:44.634Z</time></trkpt><trkpt lat="43.127561" lon="12.2030541"><ele>239.66666666666669</ele><time>2026-04-12T06:21:45.637Z</time></trkpt><trkpt lat="43.1277076" lon="12.203132"><ele>240.0</ele><time>2026-04-12T06:21:46.635Z</time></trkpt><trkpt lat="43.1278646" lon="12.2031997"><ele>240.0</ele><time>2026-04-12T06:21:47.644Z</time></trkpt><trkpt lat="43.1280091" lon="12.2032557"><ele>240.0</ele><time>2026-04-12T06:21:48.636Z</time></trkpt><trkpt lat="43.1281588" lon="12.2033013"><ele>240.0</ele><time>2026-04-12T06:21:49.638Z</time></trkpt><trkpt lat="43.1283079" lon="12.2033563"><ele>239.66666666666669</ele><time>2026-04-12T06:21:50.637Z</time></trkpt><trkpt lat="43.1284516" lon="12.2034063"><ele>239.33333333333334</ele><time>2026-04-12T06:21:51.642Z</time></trkpt><trkpt lat="43.1285982" lon="12.2034626"><ele>239.0</ele><time>2026-04-12T06:21:52.635Z</time></trkpt><trkpt lat="43.1287463" lon="12.2035183"><ele>239.0</ele><time>2026-04-12T06:21:53.636Z</time></trkpt><trkpt lat="43.1288925" lon="12.2035679"><ele>239.0</ele><time>2026-04-12T06:21:54.65Z</time></trkpt><trkpt lat="43.1290281" lon="12.2036018"><ele>239.0</ele><time>2026-04-12T06:21:55.636Z</time></trkpt><trkpt lat="43.1291604" lon="12.2036438"><ele>239.0</ele><time>2026-04-12T06:21:56.636Z</time></trkpt><trkpt lat="43.1293013" lon="12.2036944"><ele>239.5</ele><time>2026-04-12T06:21:57.641Z</time></trkpt><trkpt lat="43.129445" lon="12.2037509"><ele>240.0</ele><time>2026-04-12T06:21:58.64Z</time></trkpt><trkpt lat="43.1295903" lon="12.2038128"><ele>240.5</ele><time>2026-04-12T06:21:59.64Z</time></trkpt><trkpt lat="43.1297318" lon="12.2038708"><ele>241.0</ele><time>2026-04-12T06:22:00.641Z</time></trkpt><trkpt lat="43.1298733" lon="12.203924"><ele>241.0</ele><time>2026-04-12T06:22:01.646Z</time></trkpt><trkpt lat="43.1300139" lon="12.203976"><ele>241.0</ele><time>2026-04-12T06:22:02.641Z</time></trkpt><trkpt lat="43.1301473" lon="12.2040306"><ele>241.0</ele><time>2026-04-12T06:22:03.645Z</time></trkpt><trkpt lat="43.130285" lon="12.2040906"><ele>241.0</ele><time>2026-04-12T06:22:04.644Z</time></trkpt><trkpt lat="43.130429" lon="12.2041421"><ele>241.0</ele><time>2026-04-12T06:22:05.648Z</time></trkpt><trkpt lat="43.1305681" lon="12.2041889"><ele>241.0</ele><time>2026-04-12T06:22:06.645Z</time></trkpt><trkpt lat="43.130707" lon="12.2042335"><ele>241.0</ele><time>2026-04-12T06:22:07.642Z</time></trkpt><trkpt lat="43.130842" lon="12.2042783"><ele>241.0</ele><time>2026-04-12T06:22:08.645Z</time></trkpt><trkpt lat="43.1309809" lon="12.2043228"><ele>241.0</ele><time>2026-04-12T06:22:09.641Z</time></trkpt><trkpt lat="43.1311199" lon="12.2043698"><ele>241.0</ele><time>2026-04-12T06:22:10.646Z</time></trkpt><trkpt lat="43.1312505" lon="12.2044138"><ele>241.0</ele><time>2026-04-12T06:22:11.644Z</time></trkpt><trkpt lat="43.1313811" lon="12.2044651"><ele>241.0</ele><time>2026-04-12T06:22:12.65Z</time></trkpt><trkpt lat="43.1315014" lon="12.2045384"><ele>241.0</ele><time>2026-04-12T06:22:13.65Z</time></trkpt><trkpt lat="43.1316138" lon="12.2046251"><ele>241.0</ele><time>2026-04-12T06:22:14.645Z</time></trkpt><trkpt lat="43.1317262" lon="12.2047217"><ele>241.0</ele><time>2026-04-12T06:22:15.643Z</time></trkpt><trkpt lat="43.1318398" lon="12.2048179"><ele>241.0</ele><time>2026-04-12T06:22:16.643Z</time></trkpt><trkpt lat="43.1319584" lon="12.2049167"><ele>241.0</ele><time>2026-04-12T06:22:17.645Z</time></trkpt><trkpt lat="43.1320723" lon="12.2050249"><ele>241.0</ele><time>2026-04-12T06:22:18.642Z</time></trkpt><trkpt lat="43.1321706" lon="12.2051404"><ele>241.0</ele><time>2026-04-12T06:22:19.645Z</time></trkpt><trkpt lat="43.1322537" lon="12.2052564"><ele>241.0</ele><time>2026-04-12T06:22:20.641Z</time></trkpt><trkpt lat="43.1323333" lon="12.205354"><ele>240.60000000000002</ele><time>2026-04-12T06:22:21.644Z</time></trkpt><trkpt lat="43.1324113" lon="12.2054467"><ele>240.20000000000002</ele><time>2026-04-12T06:22:22.643Z</time></trkpt><trkpt lat="43.132485" lon="12.2055318"><ele>239.79999999999998</ele><time>2026-04-12T06:22:23.639Z</time></trkpt><trkpt lat="43.1325482" lon="12.2056171"><ele>239.39999999999998</ele><time>2026-04-12T06:22:24.642Z</time></trkpt><trkpt lat="43.1326033" lon="12.2057141"><ele>239.0</ele><time>2026-04-12T06:22:25.661Z</time></trkpt><trkpt lat="43.1326428" lon="12.2058219"><ele>238.66666666666669</ele><time>2026-04-12T06:22:26.644Z</time></trkpt><trkpt lat="43.1326757" lon="12.2059395"><ele>238.33333333333334</ele><time>2026-04-12T06:22:27.645Z</time></trkpt><trkpt lat="43.1327058" lon="12.2060485"><ele>238.0</ele><time>2026-04-12T06:22:28.651Z</time></trkpt><trkpt lat="43.132749" lon="12.2061471"><ele>237.66666666666669</ele><time>2026-04-12T06:22:29.639Z</time></trkpt><trkpt lat="43.132808" lon="12.2062294"><ele>237.33333333333334</ele><time>2026-04-12T06:22:30.649Z</time></trkpt><trkpt lat="43.132882" lon="12.206291"><ele>237.0</ele><time>2026-04-12T06:22:31.647Z</time></trkpt><trkpt lat="43.1329518" lon="12.2063692"><ele>237.0</ele><time>2026-04-12T06:22:32.642Z</time></trkpt><trkpt lat="43.1330097" lon="12.2064817"><ele>237.0</ele><time>2026-04-12T06:22:33.642Z</time></trkpt><trkpt lat="43.1330555" lon="12.2066249"><ele>237.0</ele><time>2026-04-12T06:22:34.644Z</time></trkpt><trkpt lat="43.1331015" lon="12.2067809"><ele>237.0</ele><time>2026-04-12T06:22:35.644Z</time></trkpt><trkpt lat="43.1331532" lon="12.2069494"><ele>236.75</ele><time>2026-04-12T06:22:36.642Z</time></trkpt><trkpt lat="43.1332142" lon="12.2071212"><ele>236.5</ele><time>2026-04-12T06:22:37.642Z</time></trkpt><trkpt lat="43.1332858" lon="12.2072874"><ele>236.25</ele><time>2026-04-12T06:22:38.636Z</time></trkpt><trkpt lat="43.1333762" lon="12.2074457"><ele>236.0</ele><time>2026-04-12T06:22:39.642Z</time></trkpt><trkpt lat="43.1334635" lon="12.2075914"><ele>235.66666666666669</ele><time>2026-04-12T06:22:40.642Z</time></trkpt><trkpt lat="43.1336199" lon="12.2078842"><ele>235.33333333333331</ele><time>2026-04-12T06:22:42.642Z</time></trkpt><trkpt lat="43.1337129" lon="12.2080494"><ele>235.0</ele><time>2026-04-12T06:22:43.639Z</time></trkpt><trkpt lat="43.1338186" lon="12.2082281"><ele>235.0</ele><time>2026-04-12T06:22:44.643Z</time></trkpt><trkpt lat="43.1339279" lon="12.208425"><ele>235.0</ele><time>2026-04-12T06:22:45.639Z</time></trkpt><trkpt lat="43.134043" lon="12.2086124"><ele>235.0</ele><time>2026-04-12T06:22:46.641Z</time></trkpt><trkpt lat="43.1341467" lon="12.2087723"><ele>235.25</ele><time>2026-04-12T06:22:47.639Z</time></trkpt><trkpt lat="43.1342507" lon="12.2089087"><ele>235.5</ele><time>2026-04-12T06:22:48.637Z</time></trkpt><trkpt lat="43.1343538" lon="12.2090246"><ele>235.75</ele><time>2026-04-12T06:22:49.636Z</time></trkpt><trkpt lat="43.1344621" lon="12.2091277"><ele>236.0</ele><time>2026-04-12T06:22:50.632Z</time></trkpt><trkpt lat="43.1345829" lon="12.209213"><ele>236.0</ele><time>2026-04-12T06:22:51.637Z</time></trkpt><trkpt lat="43.1347117" lon="12.2092839"><ele>236.0</ele><time>2026-04-12T06:22:52.638Z</time></trkpt><trkpt lat="43.1348515" lon="12.2093549"><ele>236.0</ele><time>2026-04-12T06:22:53.641Z</time></trkpt><trkpt lat="43.134992" lon="12.209427"><ele>236.0</ele><time>2026-04-12T06:22:54.634Z</time></trkpt><trkpt lat="43.1351322" lon="12.2095118"><ele>237.33333333333334</ele><time>2026-04-12T06:22:55.635Z</time></trkpt><trkpt lat="43.1352781" lon="12.209605"><ele>238.66666666666669</ele><time>2026-04-12T06:22:56.649Z</time></trkpt><trkpt lat="43.1354221" lon="12.2096989"><ele>240.0</ele><time>2026-04-12T06:22:57.629Z</time></trkpt><trkpt lat="43.1355676" lon="12.2097996"><ele>240.0</ele><time>2026-04-12T06:22:58.634Z</time></trkpt><trkpt lat="43.1357197" lon="12.2098967"><ele>240.0</ele><time>2026-04-12T06:22:59.635Z</time></trkpt><trkpt lat="43.1358748" lon="12.2099887"><ele>240.0</ele><time>2026-04-12T06:23:00.639Z</time></trkpt><trkpt lat="43.136029" lon="12.2100766"><ele>239.33333333333331</ele><time>2026-04-12T06:23:01.635Z</time></trkpt><trkpt lat="43.1361714" lon="12.2101553"><ele>238.66666666666666</ele><time>2026-04-12T06:23:02.633Z</time></trkpt><trkpt lat="43.1363052" lon="12.2102432"><ele>238.0</ele><time>2026-04-12T06:23:03.638Z</time></trkpt><trkpt lat="43.1364416" lon="12.2103328"><ele>239.33333333333331</ele><time>2026-04-12T06:23:04.638Z</time></trkpt><trkpt lat="43.1365808" lon="12.210418"><ele>240.66666666666669</ele><time>2026-04-12T06:23:05.637Z</time></trkpt><trkpt lat="43.136723" lon="12.210498"><ele>242.0</ele><time>2026-04-12T06:23:06.639Z</time></trkpt><trkpt lat="43.1368705" lon="12.2105742"><ele>242.0</ele><time>2026-04-12T06:23:07.636Z</time></trkpt><trkpt lat="43.1370244" lon="12.2106529"><ele>242.0</ele><time>2026-04-12T06:23:08.631Z</time></trkpt><trkpt lat="43.1371826" lon="12.2107252"><ele>242.0</ele><time>2026-04-12T06:23:09.629Z</time></trkpt><trkpt lat="43.137343" lon="12.2107898"><ele>240.75</ele><time>2026-04-12T06:23:10.635Z</time></trkpt><trkpt lat="43.1374964" lon="12.2108364"><ele>239.5</ele><time>2026-04-12T06:23:11.63Z</time></trkpt><trkpt lat="43.1376413" lon="12.2108731"><ele>238.25</ele><time>2026-04-12T06:23:12.635Z</time></trkpt><trkpt lat="43.1377739" lon="12.21091"><ele>237.0</ele><time>2026-04-12T06:23:13.637Z</time></trkpt><trkpt lat="43.1379028" lon="12.2109457"><ele>237.0</ele><time>2026-04-12T06:23:14.645Z</time></trkpt><trkpt lat="43.1380342" lon="12.2109791"><ele>237.0</ele><time>2026-04-12T06:23:15.641Z</time></trkpt><trkpt lat="43.1381775" lon="12.2110162"><ele>237.0</ele><time>2026-04-12T06:23:16.641Z</time></trkpt><trkpt lat="43.1383271" lon="12.2110576"><ele>237.0</ele><time>2026-04-12T06:23:17.651Z</time></trkpt><trkpt lat="43.1384694" lon="12.2110968"><ele>237.5</ele><time>2026-04-12T06:23:18.637Z</time></trkpt><trkpt lat="43.1386051" lon="12.211133"><ele>238.0</ele><time>2026-04-12T06:23:19.64Z</time></trkpt><trkpt lat="43.138748" lon="12.2111647"><ele>238.5</ele><time>2026-04-12T06:23:20.639Z</time></trkpt><trkpt lat="43.1389005" lon="12.2111849"><ele>239.0</ele><time>2026-04-12T06:23:21.64Z</time></trkpt><trkpt lat="43.1390612" lon="12.2111958"><ele>239.0</ele><time>2026-04-12T06:23:22.634Z</time></trkpt><trkpt lat="43.1392213" lon="12.2111882"><ele>239.0</ele><time>2026-04-12T06:23:23.637Z</time></trkpt><trkpt lat="43.1393708" lon="12.2111666"><ele>239.0</ele><time>2026-04-12T06:23:24.635Z</time></trkpt><trkpt lat="43.1395116" lon="12.2111371"><ele>239.0</ele><time>2026-04-12T06:23:25.641Z</time></trkpt><trkpt lat="43.1396464" lon="12.2110998"><ele>239.0</ele><time>2026-04-12T06:23:26.642Z</time></trkpt><trkpt lat="43.1397821" lon="12.2110572"><ele>239.0</ele><time>2026-04-12T06:23:27.656Z</time></trkpt><trkpt lat="43.1399196" lon="12.2110198"><ele>239.0</ele><time>2026-04-12T06:23:28.643Z</time></trkpt><trkpt lat="43.1400703" lon="12.2109821"><ele>238.33333333333334</ele><time>2026-04-12T06:23:29.643Z</time></trkpt><trkpt lat="43.1402326" lon="12.210953"><ele>237.66666666666669</ele><time>2026-04-12T06:23:30.642Z</time></trkpt><trkpt lat="43.1403925" lon="12.210936"><ele>237.0</ele><time>2026-04-12T06:23:31.641Z</time></trkpt><trkpt lat="43.1405519" lon="12.2109289"><ele>237.0</ele><time>2026-04-12T06:23:32.639Z</time></trkpt><trkpt lat="43.1407092" lon="12.2109452"><ele>237.0</ele><time>2026-04-12T06:23:33.641Z</time></trkpt><trkpt lat="43.140863" lon="12.2109862"><ele>237.0</ele><time>2026-04-12T06:23:34.641Z</time></trkpt><trkpt lat="43.1410176" lon="12.2110329"><ele>238.0</ele><time>2026-04-12T06:23:35.641Z</time></trkpt><trkpt lat="43.1413329" lon="12.2111443"><ele>239.0</ele><time>2026-04-12T06:23:37.642Z</time></trkpt><trkpt lat="43.1414928" lon="12.2112044"><ele>240.33333333333334</ele><time>2026-04-12T06:23:38.642Z</time></trkpt><trkpt lat="43.141655" lon="12.2112638"><ele>241.66666666666669</ele><time>2026-04-12T06:23:39.641Z</time></trkpt><trkpt lat="43.1418245" lon="12.2113174"><ele>243.0</ele><time>2026-04-12T06:23:40.642Z</time></trkpt><trkpt lat="43.1419971" lon="12.2113775"><ele>243.0</ele><time>2026-04-12T06:23:41.641Z</time></trkpt><trkpt lat="43.1421571" lon="12.2114294"><ele>243.0</ele><time>2026-04-12T06:23:42.641Z</time></trkpt><trkpt lat="43.1423037" lon="12.2114712"><ele>243.0</ele><time>2026-04-12T06:23:43.635Z</time></trkpt><trkpt lat="43.1424365" lon="12.2115138"><ele>243.0</ele><time>2026-04-12T06:23:44.637Z</time></trkpt><trkpt lat="43.1425723" lon="12.2115602"><ele>243.0</ele><time>2026-04-12T06:23:45.635Z</time></trkpt><trkpt lat="43.1427164" lon="12.2116112"><ele>243.0</ele><time>2026-04-12T06:23:46.634Z</time></trkpt><trkpt lat="43.1428575" lon="12.21167"><ele>243.0</ele><time>2026-04-12T06:23:47.639Z</time></trkpt><trkpt lat="43.1429967" lon="12.2117552"><ele>243.0</ele><time>2026-04-12T06:23:48.632Z</time></trkpt><trkpt lat="43.1431358" lon="12.211869"><ele>243.0</ele><time>2026-04-12T06:23:49.632Z</time></trkpt><trkpt lat="43.1432684" lon="12.2119986"><ele>243.0</ele><time>2026-04-12T06:23:50.632Z</time></trkpt><trkpt lat="43.1433909" lon="12.2121347"><ele>243.0</ele><time>2026-04-12T06:23:51.635Z</time></trkpt><trkpt lat="43.1435053" lon="12.2122834"><ele>243.0</ele><time>2026-04-12T06:23:52.637Z</time></trkpt><trkpt lat="43.143609" lon="12.2124334"><ele>243.0</ele><time>2026-04-12T06:23:53.633Z</time></trkpt><trkpt lat="43.1437042" lon="12.2125655"><ele>243.0</ele><time>2026-04-12T06:23:54.635Z</time></trkpt><trkpt lat="43.1437945" lon="12.2126755"><ele>242.8</ele><time>2026-04-12T06:23:55.636Z</time></trkpt><trkpt lat="43.1438855" lon="12.2127853"><ele>242.60000000000002</ele><time>2026-04-12T06:23:56.634Z</time></trkpt><trkpt lat="43.1439759" lon="12.2128885"><ele>242.39999999999998</ele><time>2026-04-12T06:23:57.633Z</time></trkpt><trkpt lat="43.1440556" lon="12.2129911"><ele>242.2</ele><time>2026-04-12T06:23:58.649Z</time></trkpt><trkpt lat="43.144121" lon="12.2130968"><ele>242.0</ele><time>2026-04-12T06:23:59.63Z</time></trkpt><trkpt lat="43.1441764" lon="12.2132134"><ele>241.39999999999998</ele><time>2026-04-12T06:24:00.629Z</time></trkpt><trkpt lat="43.1442181" lon="12.2133303"><ele>240.79999999999998</ele><time>2026-04-12T06:24:01.631Z</time></trkpt><trkpt lat="43.1442404" lon="12.2134454"><ele>240.2</ele><time>2026-04-12T06:24:02.634Z</time></trkpt><trkpt lat="43.1442297" lon="12.2135618"><ele>239.6</ele><time>2026-04-12T06:24:03.641Z</time></trkpt><trkpt lat="43.1442002" lon="12.2136877"><ele>239.0</ele><time>2026-04-12T06:24:04.635Z</time></trkpt><trkpt lat="43.144183" lon="12.2138184"><ele>239.0</ele><time>2026-04-12T06:24:05.631Z</time></trkpt><trkpt lat="43.1441897" lon="12.2139375"><ele>239.0</ele><time>2026-04-12T06:24:06.636Z</time></trkpt><trkpt lat="43.1442296" lon="12.2140403"><ele>239.0</ele><time>2026-04-12T06:24:07.637Z</time></trkpt><trkpt lat="43.1442993" lon="12.2141382"><ele>239.0</ele><time>2026-04-12T06:24:08.634Z</time></trkpt><trkpt lat="43.1444484" lon="12.2143569"><ele>238.75</ele><time>2026-04-12T06:24:10.638Z</time></trkpt><trkpt lat="43.144491" lon="12.2144919"><ele>238.5</ele><time>2026-04-12T06:24:11.636Z</time></trkpt><trkpt lat="43.1445134" lon="12.2146383"><ele>238.25</ele><time>2026-04-12T06:24:12.632Z</time></trkpt><trkpt lat="43.1445098" lon="12.2147919"><ele>238.0</ele><time>2026-04-12T06:24:13.64Z</time></trkpt><trkpt lat="43.1444746" lon="12.2149513"><ele>238.0</ele><time>2026-04-12T06:24:14.634Z</time></trkpt><trkpt lat="43.144423" lon="12.2151204"><ele>238.0</ele><time>2026-04-12T06:24:15.636Z</time></trkpt><trkpt lat="43.1443625" lon="12.215298"><ele>238.0</ele><time>2026-04-12T06:24:16.637Z</time></trkpt><trkpt lat="43.1442992" lon="12.215487"><ele>238.0</ele><time>2026-04-12T06:24:17.641Z</time></trkpt><trkpt lat="43.1442341" lon="12.2157094"><ele>238.0</ele><time>2026-04-12T06:24:18.643Z</time></trkpt><trkpt lat="43.144176" lon="12.2159339"><ele>238.0</ele><time>2026-04-12T06:24:19.638Z</time></trkpt><trkpt lat="43.1441273" lon="12.2161232"><ele>238.0</ele><time>2026-04-12T06:24:20.64Z</time></trkpt><trkpt lat="43.1440817" lon="12.2163056"><ele>237.66666666666666</ele><time>2026-04-12T06:24:21.641Z</time></trkpt><trkpt lat="43.1440361" lon="12.2164949"><ele>237.33333333333331</ele><time>2026-04-12T06:24:22.642Z</time></trkpt><trkpt lat="43.1439887" lon="12.216698"><ele>237.0</ele><time>2026-04-12T06:24:23.639Z</time></trkpt><trkpt lat="43.1439376" lon="12.2169066"><ele>237.0</ele><time>2026-04-12T06:24:24.644Z</time></trkpt><trkpt lat="43.1438839" lon="12.2171081"><ele>237.0</ele><time>2026-04-12T06:24:25.644Z</time></trkpt><trkpt lat="43.1438252" lon="12.2173119"><ele>237.0</ele><time>2026-04-12T06:24:26.646Z</time></trkpt><trkpt lat="43.1437709" lon="12.2175274"><ele>237.66666666666669</ele><time>2026-04-12T06:24:27.647Z</time></trkpt><trkpt lat="43.1437155" lon="12.2177465"><ele>238.33333333333334</ele><time>2026-04-12T06:24:28.643Z</time></trkpt><trkpt lat="43.1436655" lon="12.2179524"><ele>239.0</ele><time>2026-04-12T06:24:29.656Z</time></trkpt><trkpt lat="43.1436114" lon="12.2181473"><ele>239.33333333333334</ele><time>2026-04-12T06:24:30.645Z</time></trkpt><trkpt lat="43.1435566" lon="12.2183486"><ele>239.66666666666669</ele><time>2026-04-12T06:24:31.644Z</time></trkpt><trkpt lat="43.143505" lon="12.2185593"><ele>240.0</ele><time>2026-04-12T06:24:32.645Z</time></trkpt><trkpt lat="43.1434541" lon="12.2187718"><ele>240.5</ele><time>2026-04-12T06:24:33.646Z</time></trkpt><trkpt lat="43.1433483" lon="12.2192349"><ele>241.0</ele><time>2026-04-12T06:24:35.65Z</time></trkpt><trkpt lat="43.1432879" lon="12.2194874"><ele>241.0</ele><time>2026-04-12T06:24:36.65Z</time></trkpt><trkpt lat="43.1432341" lon="12.2197237"><ele>241.0</ele><time>2026-04-12T06:24:37.645Z</time></trkpt><trkpt lat="43.1431859" lon="12.2199378"><ele>241.0</ele><time>2026-04-12T06:24:38.64Z</time></trkpt><trkpt lat="43.1431327" lon="12.2201497"><ele>241.0</ele><time>2026-04-12T06:24:39.638Z</time></trkpt><trkpt lat="43.1430732" lon="12.2203562"><ele>241.0</ele><time>2026-04-12T06:24:40.635Z</time></trkpt><trkpt lat="43.143022" lon="12.2205576"><ele>241.0</ele><time>2026-04-12T06:24:41.642Z</time></trkpt><trkpt lat="43.1429733" lon="12.2207506"><ele>241.0</ele><time>2026-04-12T06:24:42.647Z</time></trkpt><trkpt lat="43.1429255" lon="12.2209445"><ele>241.0</ele><time>2026-04-12T06:24:43.648Z</time></trkpt><trkpt lat="43.1428734" lon="12.221144"><ele>241.0</ele><time>2026-04-12T06:24:44.652Z</time></trkpt><trkpt lat="43.1428221" lon="12.2213522"><ele>240.33333333333331</ele><time>2026-04-12T06:24:45.65Z</time></trkpt><trkpt lat="43.1427728" lon="12.2215658"><ele>239.66666666666669</ele><time>2026-04-12T06:24:46.651Z</time></trkpt><trkpt lat="43.1427177" lon="12.2217839"><ele>239.0</ele><time>2026-04-12T06:24:47.653Z</time></trkpt><trkpt lat="43.1426641" lon="12.2220057"><ele>239.0</ele><time>2026-04-12T06:24:48.648Z</time></trkpt><trkpt lat="43.1426063" lon="12.2222434"><ele>239.0</ele><time>2026-04-12T06:24:49.651Z</time></trkpt><trkpt lat="43.1425477" lon="12.2224815"><ele>239.0</ele><time>2026-04-12T06:24:50.65Z</time></trkpt><trkpt lat="43.1424902" lon="12.2226995"><ele>239.66666666666669</ele><time>2026-04-12T06:24:51.649Z</time></trkpt><trkpt lat="43.1424369" lon="12.2229041"><ele>240.33333333333331</ele><time>2026-04-12T06:24:52.658Z</time></trkpt><trkpt lat="43.1423819" lon="12.2231131"><ele>241.0</ele><time>2026-04-12T06:24:53.657Z</time></trkpt><trkpt lat="43.1423281" lon="12.223332"><ele>239.75</ele><time>2026-04-12T06:24:54.654Z</time></trkpt><trkpt lat="43.1422709" lon="12.2235395"><ele>238.5</ele><time>2026-04-12T06:24:55.653Z</time></trkpt><trkpt lat="43.1422197" lon="12.223727"><ele>237.25</ele><time>2026-04-12T06:24:56.649Z</time></trkpt><trkpt lat="43.1421774" lon="12.2239025"><ele>236.0</ele><time>2026-04-12T06:24:57.65Z</time></trkpt><trkpt lat="43.1421019" lon="12.2242175"><ele>235.8</ele><time>2026-04-12T06:24:59.646Z</time></trkpt><trkpt lat="43.1420726" lon="12.2243568"><ele>235.60000000000002</ele><time>2026-04-12T06:25:00.666Z</time></trkpt><trkpt lat="43.1420489" lon="12.2244807"><ele>235.4</ele><time>2026-04-12T06:25:01.655Z</time></trkpt><trkpt lat="43.1420377" lon="12.224584"><ele>235.2</ele><time>2026-04-12T06:25:02.654Z</time></trkpt><trkpt lat="43.1420852" lon="12.224729"><ele>235.0</ele><time>2026-04-12T06:25:04.642Z</time></trkpt><trkpt lat="43.1421438" lon="12.2247754"><ele>235.33333333333331</ele><time>2026-04-12T06:25:05.645Z</time></trkpt><trkpt lat="43.1422147" lon="12.2248136"><ele>235.66666666666666</ele><time>2026-04-12T06:25:06.639Z</time></trkpt><trkpt lat="43.1422944" lon="12.2248473"><ele>236.0</ele><time>2026-04-12T06:25:07.642Z</time></trkpt><trkpt lat="43.142374" lon="12.2248773"><ele>236.33333333333331</ele><time>2026-04-12T06:25:08.646Z</time></trkpt><trkpt lat="43.1424435" lon="12.2249125"><ele>236.66666666666666</ele><time>2026-04-12T06:25:09.637Z</time></trkpt><trkpt lat="43.1425297" lon="12.2250382"><ele>237.0</ele><time>2026-04-12T06:25:11.645Z</time></trkpt><trkpt lat="43.1425563" lon="12.2252005"><ele>237.0</ele><time>2026-04-12T06:25:13.645Z</time></trkpt><trkpt lat="43.142594" lon="12.2252746"><ele>237.0</ele><time>2026-04-12T06:25:15.658Z</time></trkpt><trkpt lat="43.1426042" lon="12.2251774"><ele>237.0</ele><time>2026-04-12T06:41:43.631Z</time></trkpt><trkpt lat="43.1426396" lon="12.2250983"><ele>237.0</ele><time>2026-04-12T06:41:44.673Z</time></trkpt><trkpt lat="43.1426785" lon="12.225014"><ele>237.0</ele><time>2026-04-12T06:41:45.656Z</time></trkpt><trkpt lat="43.1427227" lon="12.2249425"><ele>237.0</ele><time>2026-04-12T06:41:46.653Z</time></trkpt><trkpt lat="43.1428167" lon="12.2248712"><ele>237.0</ele><time>2026-04-12T06:41:48.67Z</time></trkpt><trkpt lat="43.1429395" lon="12.2247767"><ele>237.0</ele><time>2026-04-12T06:41:50.659Z</time></trkpt><trkpt lat="43.143006" lon="12.2246855"><ele>237.0</ele><time>2026-04-12T06:41:51.657Z</time></trkpt><trkpt lat="43.1430783" lon="12.2245694"><ele>237.0</ele><time>2026-04-12T06:41:52.654Z</time></trkpt><trkpt lat="43.1431535" lon="12.2244379"><ele>238.0</ele><time>2026-04-12T06:41:53.655Z</time></trkpt><trkpt lat="43.1432279" lon="12.2243168"><ele>239.0</ele><time>2026-04-12T06:41:54.65Z</time></trkpt><trkpt lat="43.1433037" lon="12.2241913"><ele>240.0</ele><time>2026-04-12T06:41:55.649Z</time></trkpt><trkpt lat="43.143391" lon="12.2240556"><ele>241.0</ele><time>2026-04-12T06:41:56.648Z</time></trkpt><trkpt lat="43.1434932" lon="12.2239148"><ele>241.0</ele><time>2026-04-12T06:41:57.651Z</time></trkpt><trkpt lat="43.1435988" lon="12.2237932"><ele>241.0</ele><time>2026-04-12T06:41:58.652Z</time></trkpt><trkpt lat="43.1437071" lon="12.2236804"><ele>241.0</ele><time>2026-04-12T06:41:59.665Z</time></trkpt><trkpt lat="43.143818" lon="12.2235635"><ele>241.0</ele><time>2026-04-12T06:42:00.656Z</time></trkpt><trkpt lat="43.1439387" lon="12.2234288"><ele>241.33333333333331</ele><time>2026-04-12T06:42:01.653Z</time></trkpt><trkpt lat="43.1440697" lon="12.2232853"><ele>241.66666666666669</ele><time>2026-04-12T06:42:02.656Z</time></trkpt><trkpt lat="43.1441841" lon="12.2231428"><ele>242.0</ele><time>2026-04-12T06:42:03.655Z</time></trkpt><trkpt lat="43.1442952" lon="12.2230061"><ele>242.0</ele><time>2026-04-12T06:42:04.656Z</time></trkpt><trkpt lat="43.1444173" lon="12.2228817"><ele>242.0</ele><time>2026-04-12T06:42:05.657Z</time></trkpt><trkpt lat="43.1445568" lon="12.2227573"><ele>242.0</ele><time>2026-04-12T06:42:06.658Z</time></trkpt><trkpt lat="43.1447162" lon="12.2226299"><ele>242.0</ele><time>2026-04-12T06:42:07.657Z</time></trkpt><trkpt lat="43.1448682" lon="12.2225164"><ele>242.0</ele><time>2026-04-12T06:42:08.655Z</time></trkpt><trkpt lat="43.145027" lon="12.222411"><ele>242.0</ele><time>2026-04-12T06:42:09.654Z</time></trkpt><trkpt lat="43.14519" lon="12.2223086"><ele>242.0</ele><time>2026-04-12T06:42:10.656Z</time></trkpt><trkpt lat="43.1453619" lon="12.2222034"><ele>242.0</ele><time>2026-04-12T06:42:11.654Z</time></trkpt><trkpt lat="43.1455388" lon="12.2220934"><ele>242.0</ele><time>2026-04-12T06:42:12.656Z</time></trkpt><trkpt lat="43.1457316" lon="12.2219689"><ele>242.0</ele><time>2026-04-12T06:42:13.654Z</time></trkpt><trkpt lat="43.1459394" lon="12.2218387"><ele>242.0</ele><time>2026-04-12T06:42:14.655Z</time></trkpt><trkpt lat="43.1461363" lon="12.2217092"><ele>242.0</ele><time>2026-04-12T06:42:15.657Z</time></trkpt><trkpt lat="43.146311" lon="12.2215981"><ele>242.0</ele><time>2026-04-12T06:42:16.657Z</time></trkpt><trkpt lat="43.14646" lon="12.2214952"><ele>242.0</ele><time>2026-04-12T06:42:17.658Z</time></trkpt><trkpt lat="43.1466049" lon="12.2213858"><ele>242.0</ele><time>2026-04-12T06:42:18.656Z</time></trkpt><trkpt lat="43.1467546" lon="12.2212768"><ele>242.66666666666669</ele><time>2026-04-12T06:42:19.655Z</time></trkpt><trkpt lat="43.146908" lon="12.2211709"><ele>243.33333333333331</ele><time>2026-04-12T06:42:20.653Z</time></trkpt><trkpt lat="43.1470663" lon="12.2210633"><ele>244.0</ele><time>2026-04-12T06:42:21.654Z</time></trkpt><trkpt lat="43.1472186" lon="12.2209649"><ele>244.0</ele><time>2026-04-12T06:42:22.656Z</time></trkpt><trkpt lat="43.1473681" lon="12.2208674"><ele>244.0</ele><time>2026-04-12T06:42:23.659Z</time></trkpt><trkpt lat="43.1475202" lon="12.2207658"><ele>244.0</ele><time>2026-04-12T06:42:24.655Z</time></trkpt><trkpt lat="43.1476615" lon="12.2206708"><ele>243.75</ele><time>2026-04-12T06:42:25.657Z</time></trkpt><trkpt lat="43.1477876" lon="12.2205939"><ele>243.5</ele><time>2026-04-12T06:42:26.656Z</time></trkpt><trkpt lat="43.1479011" lon="12.2205276"><ele>243.25</ele><time>2026-04-12T06:42:27.653Z</time></trkpt><trkpt lat="43.1480073" lon="12.2204674"><ele>243.0</ele><time>2026-04-12T06:42:28.653Z</time></trkpt><trkpt lat="43.1480981" lon="12.220418"><ele>243.0</ele><time>2026-04-12T06:42:29.656Z</time></trkpt><trkpt lat="43.1481723" lon="12.2203899"><ele>243.0</ele><time>2026-04-12T06:42:30.668Z</time></trkpt><trkpt lat="43.1482382" lon="12.2203985"><ele>243.0</ele><time>2026-04-12T06:42:31.658Z</time></trkpt><trkpt lat="43.1483211" lon="12.2205316"><ele>243.0</ele><time>2026-04-12T06:42:33.654Z</time></trkpt><trkpt lat="43.1483662" lon="12.2206329"><ele>243.0</ele><time>2026-04-12T06:42:34.653Z</time></trkpt><trkpt lat="43.148413" lon="12.2207767"><ele>243.60000000000002</ele><time>2026-04-12T06:42:35.653Z</time></trkpt><trkpt lat="43.1484602" lon="12.2209198"><ele>244.20000000000002</ele><time>2026-04-12T06:42:36.639Z</time></trkpt><trkpt lat="43.1485055" lon="12.2210388"><ele>244.8</ele><time>2026-04-12T06:42:37.647Z</time></trkpt><trkpt lat="43.1485621" lon="12.2211162"><ele>245.4</ele><time>2026-04-12T06:42:38.638Z</time></trkpt><trkpt lat="43.1486463" lon="12.221163"><ele>246.0</ele><time>2026-04-12T06:42:39.643Z</time></trkpt><trkpt lat="43.1487558" lon="12.2211762"><ele>246.0</ele><time>2026-04-12T06:42:40.641Z</time></trkpt><trkpt lat="43.1488898" lon="12.2211826"><ele>246.0</ele><time>2026-04-12T06:42:41.632Z</time></trkpt><trkpt lat="43.1490317" lon="12.2212004"><ele>246.0</ele><time>2026-04-12T06:42:42.641Z</time></trkpt><trkpt lat="43.1491766" lon="12.2212385"><ele>246.0</ele><time>2026-04-12T06:42:43.642Z</time></trkpt><trkpt lat="43.1493269" lon="12.2212883"><ele>246.0</ele><time>2026-04-12T06:42:44.64Z</time></trkpt><trkpt lat="43.1495011" lon="12.2213469"><ele>246.0</ele><time>2026-04-12T06:42:45.642Z</time></trkpt><trkpt lat="43.1496984" lon="12.2213976"><ele>246.0</ele><time>2026-04-12T06:42:46.64Z</time></trkpt><trkpt lat="43.1498928" lon="12.2214315"><ele>245.66666666666669</ele><time>2026-04-12T06:42:47.645Z</time></trkpt><trkpt lat="43.1500663" lon="12.221466"><ele>245.33333333333334</ele><time>2026-04-12T06:42:48.641Z</time></trkpt><trkpt lat="43.1502437" lon="12.2215085"><ele>245.0</ele><time>2026-04-12T06:42:49.642Z</time></trkpt><trkpt lat="43.1504289" lon="12.2215543"><ele>245.66666666666669</ele><time>2026-04-12T06:42:50.643Z</time></trkpt><trkpt lat="43.1506102" lon="12.2215999"><ele>246.33333333333331</ele><time>2026-04-12T06:42:51.64Z</time></trkpt><trkpt lat="43.1507704" lon="12.2216436"><ele>247.0</ele><time>2026-04-12T06:42:52.641Z</time></trkpt><trkpt lat="43.1509285" lon="12.2216881"><ele>247.0</ele><time>2026-04-12T06:42:53.644Z</time></trkpt><trkpt lat="43.1510857" lon="12.2217343"><ele>247.0</ele><time>2026-04-12T06:42:54.641Z</time></trkpt><trkpt lat="43.1512456" lon="12.2217854"><ele>247.0</ele><time>2026-04-12T06:42:55.638Z</time></trkpt><trkpt lat="43.151409" lon="12.2218403"><ele>247.33333333333331</ele><time>2026-04-12T06:42:56.638Z</time></trkpt><trkpt lat="43.1515751" lon="12.2218938"><ele>247.66666666666669</ele><time>2026-04-12T06:42:57.645Z</time></trkpt><trkpt lat="43.1517397" lon="12.2219486"><ele>248.0</ele><time>2026-04-12T06:42:58.646Z</time></trkpt><trkpt lat="43.1519017" lon="12.2220012"><ele>248.0</ele><time>2026-04-12T06:42:59.649Z</time></trkpt><trkpt lat="43.1520705" lon="12.2220542"><ele>248.0</ele><time>2026-04-12T06:43:00.648Z</time></trkpt><trkpt lat="43.1522452" lon="12.2221032"><ele>248.0</ele><time>2026-04-12T06:43:01.659Z</time></trkpt><trkpt lat="43.1526309" lon="12.2222192"><ele>248.0</ele><time>2026-04-12T06:43:03.646Z</time></trkpt><trkpt lat="43.1528126" lon="12.2222618"><ele>248.0</ele><time>2026-04-12T06:43:04.643Z</time></trkpt><trkpt lat="43.1529765" lon="12.2222963"><ele>248.0</ele><time>2026-04-12T06:43:05.642Z</time></trkpt><trkpt lat="43.1531209" lon="12.2223382"><ele>249.0</ele><time>2026-04-12T06:43:06.643Z</time></trkpt><trkpt lat="43.1532599" lon="12.2223822"><ele>250.0</ele><time>2026-04-12T06:43:07.643Z</time></trkpt><trkpt lat="43.1534" lon="12.2224406"><ele>251.0</ele><time>2026-04-12T06:43:08.643Z</time></trkpt><trkpt lat="43.1535375" lon="12.2225141"><ele>252.0</ele><time>2026-04-12T06:43:09.644Z</time></trkpt><trkpt lat="43.1536598" lon="12.2226003"><ele>252.0</ele><time>2026-04-12T06:43:10.645Z</time></trkpt><trkpt lat="43.153766" lon="12.2226988"><ele>252.0</ele><time>2026-04-12T06:43:11.644Z</time></trkpt><trkpt lat="43.1538609" lon="12.2228146"><ele>252.0</ele><time>2026-04-12T06:43:12.65Z</time></trkpt><trkpt lat="43.1539553" lon="12.2229319"><ele>252.0</ele><time>2026-04-12T06:43:13.647Z</time></trkpt><trkpt lat="43.1540528" lon="12.2230431"><ele>251.5</ele><time>2026-04-12T06:43:14.65Z</time></trkpt><trkpt lat="43.1541514" lon="12.2231321"><ele>251.0</ele><time>2026-04-12T06:43:15.642Z</time></trkpt><trkpt lat="43.1542556" lon="12.2231948"><ele>250.5</ele><time>2026-04-12T06:43:16.648Z</time></trkpt><trkpt lat="43.1543702" lon="12.2232266"><ele>250.0</ele><time>2026-04-12T06:43:17.65Z</time></trkpt><trkpt lat="43.1545028" lon="12.2232314"><ele>251.66666666666666</ele><time>2026-04-12T06:43:18.64Z</time></trkpt><trkpt lat="43.1546512" lon="12.2232276"><ele>253.33333333333331</ele><time>2026-04-12T06:43:19.644Z</time></trkpt><trkpt lat="43.1548177" lon="12.2232191"><ele>255.0</ele><time>2026-04-12T06:43:20.645Z</time></trkpt><trkpt lat="43.1549795" lon="12.2232357"><ele>255.66666666666669</ele><time>2026-04-12T06:43:21.645Z</time></trkpt><trkpt lat="43.1551338" lon="12.2232569"><ele>256.33333333333337</ele><time>2026-04-12T06:43:22.647Z</time></trkpt><trkpt lat="43.1552796" lon="12.2232845"><ele>257.0</ele><time>2026-04-12T06:43:23.651Z</time></trkpt><trkpt lat="43.1555447" lon="12.2233249"><ele>257.0</ele><time>2026-04-12T06:43:25.649Z</time></trkpt><trkpt lat="43.155668" lon="12.2233575"><ele>257.0</ele><time>2026-04-12T06:43:26.645Z</time></trkpt><trkpt lat="43.1557966" lon="12.223403"><ele>257.0</ele><time>2026-04-12T06:43:27.648Z</time></trkpt><trkpt lat="43.1559249" lon="12.2234631"><ele>257.0</ele><time>2026-04-12T06:43:28.65Z</time></trkpt><trkpt lat="43.1560517" lon="12.2235282"><ele>256.75</ele><time>2026-04-12T06:43:29.65Z</time></trkpt><trkpt lat="43.1561708" lon="12.2235795"><ele>256.5</ele><time>2026-04-12T06:43:30.651Z</time></trkpt><trkpt lat="43.156291" lon="12.2236201"><ele>256.25</ele><time>2026-04-12T06:43:31.649Z</time></trkpt><trkpt lat="43.1564145" lon="12.2236431"><ele>256.0</ele><time>2026-04-12T06:43:32.664Z</time></trkpt><trkpt lat="43.1565382" lon="12.2236535"><ele>255.4</ele><time>2026-04-12T06:43:33.648Z</time></trkpt><trkpt lat="43.1566579" lon="12.2236581"><ele>254.8</ele><time>2026-04-12T06:43:34.648Z</time></trkpt><trkpt lat="43.1567721" lon="12.2236632"><ele>254.20000000000002</ele><time>2026-04-12T06:43:35.647Z</time></trkpt><trkpt lat="43.1568746" lon="12.2236706"><ele>253.60000000000002</ele><time>2026-04-12T06:43:36.644Z</time></trkpt><trkpt lat="43.1569702" lon="12.2236762"><ele>253.0</ele><time>2026-04-12T06:43:37.647Z</time></trkpt><trkpt lat="43.1570628" lon="12.2236836"><ele>253.0</ele><time>2026-04-12T06:43:38.647Z</time></trkpt><trkpt lat="43.1571574" lon="12.223686"><ele>253.0</ele><time>2026-04-12T06:43:39.646Z</time></trkpt><trkpt lat="43.1572535" lon="12.223693"><ele>253.0</ele><time>2026-04-12T06:43:40.646Z</time></trkpt><trkpt lat="43.157346" lon="12.2237014"><ele>253.0</ele><time>2026-04-12T06:43:41.646Z</time></trkpt><trkpt lat="43.1574315" lon="12.2237114"><ele>253.0</ele><time>2026-04-12T06:43:42.648Z</time></trkpt><trkpt lat="43.157512" lon="12.2237242"><ele>253.2</ele><time>2026-04-12T06:43:43.645Z</time></trkpt><trkpt lat="43.1575962" lon="12.2237392"><ele>253.4</ele><time>2026-04-12T06:43:44.648Z</time></trkpt><trkpt lat="43.1576856" lon="12.2237625"><ele>253.59999999999997</ele><time>2026-04-12T06:43:45.646Z</time></trkpt><trkpt lat="43.1577809" lon="12.2237944"><ele>253.79999999999998</ele><time>2026-04-12T06:43:46.648Z</time></trkpt><trkpt lat="43.157869" lon="12.2238414"><ele>254.0</ele><time>2026-04-12T06:43:47.647Z</time></trkpt><trkpt lat="43.1579533" lon="12.2238942"><ele>254.0</ele><time>2026-04-12T06:43:48.645Z</time></trkpt><trkpt lat="43.1580377" lon="12.2239596"><ele>253.99999999999997</ele><time>2026-04-12T06:43:49.646Z</time></trkpt><trkpt lat="43.1581222" lon="12.2240376"><ele>253.99999999999997</ele><time>2026-04-12T06:43:50.645Z</time></trkpt><trkpt lat="43.1582104" lon="12.2241238"><ele>254.0</ele><time>2026-04-12T06:43:51.649Z</time></trkpt><trkpt lat="43.1582963" lon="12.224224"><ele>254.0</ele><time>2026-04-12T06:43:52.651Z</time></trkpt><trkpt lat="43.1583885" lon="12.2243276"><ele>254.2</ele><time>2026-04-12T06:43:53.647Z</time></trkpt><trkpt lat="43.1584839" lon="12.2244287"><ele>254.39999999999998</ele><time>2026-04-12T06:43:54.648Z</time></trkpt><trkpt lat="43.1585784" lon="12.2245204"><ele>254.6</ele><time>2026-04-12T06:43:55.644Z</time></trkpt><trkpt lat="43.1586672" lon="12.2245915"><ele>254.8</ele><time>2026-04-12T06:43:56.654Z</time></trkpt><trkpt lat="43.1587362" lon="12.2246422"><ele>255.0</ele><time>2026-04-12T06:43:57.645Z</time></trkpt><trkpt lat="43.1588017" lon="12.2246752"><ele>255.0</ele><time>2026-04-12T06:43:58.648Z</time></trkpt><trkpt lat="43.1588686" lon="12.2246975"><ele>255.0</ele><time>2026-04-12T06:43:59.648Z</time></trkpt><trkpt lat="43.1589325" lon="12.224716"><ele>255.0</ele><time>2026-04-12T06:44:00.649Z</time></trkpt><trkpt lat="43.1589981" lon="12.2247417"><ele>255.0</ele><time>2026-04-12T06:44:01.652Z</time></trkpt><trkpt lat="43.1590612" lon="12.2247617"><ele>255.0</ele><time>2026-04-12T06:44:02.651Z</time></trkpt><trkpt lat="43.1591585" lon="12.2247922"><ele>255.0</ele><time>2026-04-12T06:44:04.652Z</time></trkpt><trkpt lat="43.1592478" lon="12.2248545"><ele>255.66666666666669</ele><time>2026-04-12T06:44:06.65Z</time></trkpt><trkpt lat="43.1594822" lon="12.2248994"><ele>256.33333333333337</ele><time>2026-04-12T06:44:10.831Z</time></trkpt><trkpt lat="43.1595755" lon="12.2247766"><ele>257.0</ele><time>2026-04-12T06:44:13.892Z</time></trkpt><trkpt lat="43.1596469" lon="12.2246787"><ele>256.6</ele><time>2026-04-12T06:44:14.889Z</time></trkpt><trkpt lat="43.159709" lon="12.224582"><ele>256.2</ele><time>2026-04-12T06:44:15.889Z</time></trkpt><trkpt lat="43.1597694" lon="12.2244861"><ele>255.8</ele><time>2026-04-12T06:44:16.894Z</time></trkpt><trkpt lat="43.15983" lon="12.2243901"><ele>255.4</ele><time>2026-04-12T06:44:17.894Z</time></trkpt><trkpt lat="43.1598881" lon="12.2242935"><ele>255.0</ele><time>2026-04-12T06:44:18.899Z</time></trkpt><trkpt lat="43.159947" lon="12.2241978"><ele>255.0</ele><time>2026-04-12T06:44:19.899Z</time></trkpt><trkpt lat="43.1600089" lon="12.2240981"><ele>255.0</ele><time>2026-04-12T06:44:20.9Z</time></trkpt><trkpt lat="43.1600761" lon="12.2239911"><ele>255.0</ele><time>2026-04-12T06:44:21.896Z</time></trkpt><trkpt lat="43.160205" lon="12.223772"><ele>255.0</ele><time>2026-04-12T06:44:23.897Z</time></trkpt><trkpt lat="43.160269" lon="12.223662"><ele>255.0</ele><time>2026-04-12T06:44:24.897Z</time></trkpt><trkpt lat="43.1603304" lon="12.2235565"><ele>255.0</ele><time>2026-04-12T06:44:25.896Z</time></trkpt><trkpt lat="43.1603867" lon="12.2234588"><ele>255.0</ele><time>2026-04-12T06:44:26.892Z</time></trkpt><trkpt lat="43.1604358" lon="12.2233775"><ele>255.0</ele><time>2026-04-12T06:44:27.898Z</time></trkpt><trkpt lat="43.1604879" lon="12.2232931"><ele>255.0</ele><time>2026-04-12T06:44:28.894Z</time></trkpt><trkpt lat="43.1605496" lon="12.2232022"><ele>255.0</ele><time>2026-04-12T06:44:29.894Z</time></trkpt><trkpt lat="43.1606211" lon="12.2231082"><ele>255.0</ele><time>2026-04-12T06:44:30.898Z</time></trkpt><trkpt lat="43.1607065" lon="12.2230154"><ele>255.0</ele><time>2026-04-12T06:44:31.889Z</time></trkpt><trkpt lat="43.1607993" lon="12.2229186"><ele>255.0</ele><time>2026-04-12T06:44:32.889Z</time></trkpt><trkpt lat="43.1609002" lon="12.2228265"><ele>255.0</ele><time>2026-04-12T06:44:33.894Z</time></trkpt><trkpt lat="43.1609903" lon="12.2227588"><ele>255.0</ele><time>2026-04-12T06:44:34.798Z</time></trkpt><trkpt lat="43.1611737" lon="12.2227025"><ele>255.0</ele><time>2026-04-12T06:44:36.643Z</time></trkpt><trkpt lat="43.1612797" lon="12.2227112"><ele>255.0</ele><time>2026-04-12T06:44:37.65Z</time></trkpt><trkpt lat="43.1613732" lon="12.2227199"><ele>255.0</ele><time>2026-04-12T06:44:38.652Z</time></trkpt><trkpt lat="43.1614416" lon="12.2227062"><ele>255.0</ele><time>2026-04-12T06:44:39.649Z</time></trkpt><trkpt lat="43.1614899" lon="12.2225798"><ele>255.0</ele><time>2026-04-12T06:44:41.643Z</time></trkpt><trkpt lat="43.1615007" lon="12.2224923"><ele>255.0</ele><time>2026-04-12T06:44:42.668Z</time></trkpt><trkpt lat="43.1615692" lon="12.2223711"><ele>255.0</ele><time>2026-04-12T06:44:44.644Z</time></trkpt><trkpt lat="43.1616414" lon="12.2223616"><ele>255.0</ele><time>2026-04-12T06:44:45.641Z</time></trkpt><trkpt lat="43.1617381" lon="12.2223919"><ele>255.5</ele><time>2026-04-12T06:44:46.632Z</time></trkpt><trkpt lat="43.1618498" lon="12.222443"><ele>256.0</ele><time>2026-04-12T06:44:47.635Z</time></trkpt><trkpt lat="43.1619623" lon="12.2224818"><ele>256.5</ele><time>2026-04-12T06:44:48.637Z</time></trkpt><trkpt lat="43.1620724" lon="12.2225107"><ele>257.0</ele><time>2026-04-12T06:44:49.634Z</time></trkpt><trkpt lat="43.1621874" lon="12.2225212"><ele>257.0</ele><time>2026-04-12T06:44:50.633Z</time></trkpt><trkpt lat="43.1623128" lon="12.2224979"><ele>257.0</ele><time>2026-04-12T06:44:51.637Z</time></trkpt><trkpt lat="43.1624408" lon="12.222456"><ele>257.0</ele><time>2026-04-12T06:44:52.639Z</time></trkpt><trkpt lat="43.1625603" lon="12.22241"><ele>257.0</ele><time>2026-04-12T06:44:53.644Z</time></trkpt><trkpt lat="43.1626701" lon="12.2223598"><ele>256.33333333333337</ele><time>2026-04-12T06:44:54.65Z</time></trkpt><trkpt lat="43.1627793" lon="12.2223118"><ele>255.66666666666669</ele><time>2026-04-12T06:44:55.65Z</time></trkpt><trkpt lat="43.1629952" lon="12.2222124"><ele>255.0</ele><time>2026-04-12T06:44:57.647Z</time></trkpt><trkpt lat="43.1631029" lon="12.2221625"><ele>255.0</ele><time>2026-04-12T06:44:58.645Z</time></trkpt><trkpt lat="43.1632048" lon="12.2221112"><ele>255.0</ele><time>2026-04-12T06:44:59.655Z</time></trkpt><trkpt lat="43.1632973" lon="12.2220664"><ele>255.0</ele><time>2026-04-12T06:45:00.654Z</time></trkpt><trkpt lat="43.1633782" lon="12.2220331"><ele>255.0</ele><time>2026-04-12T06:45:01.627Z</time></trkpt><trkpt lat="43.1634541" lon="12.2220052"><ele>255.0</ele><time>2026-04-12T06:45:02.628Z</time></trkpt><trkpt lat="43.1635782" lon="12.221956"><ele>255.0</ele><time>2026-04-12T06:45:04.638Z</time></trkpt><trkpt lat="43.1636405" lon="12.2219406"><ele>255.0</ele><time>2026-04-12T06:45:05.637Z</time></trkpt><trkpt lat="43.1637135" lon="12.2219124"><ele>255.0</ele><time>2026-04-12T06:45:06.633Z</time></trkpt><trkpt lat="43.1637954" lon="12.2218564"><ele>255.0</ele><time>2026-04-12T06:45:07.646Z</time></trkpt><trkpt lat="43.1638847" lon="12.2217724"><ele>255.0</ele><time>2026-04-12T06:45:08.638Z</time></trkpt><trkpt lat="43.1639802" lon="12.2216791"><ele>255.4</ele><time>2026-04-12T06:45:09.645Z</time></trkpt><trkpt lat="43.1640758" lon="12.2215904"><ele>255.8</ele><time>2026-04-12T06:45:10.645Z</time></trkpt><trkpt lat="43.1641744" lon="12.2215097"><ele>256.2</ele><time>2026-04-12T06:45:11.645Z</time></trkpt><trkpt lat="43.1642668" lon="12.2214313"><ele>256.6</ele><time>2026-04-12T06:45:12.65Z</time></trkpt><trkpt lat="43.1643527" lon="12.2213537"><ele>257.0</ele><time>2026-04-12T06:45:13.662Z</time></trkpt><trkpt lat="43.1644385" lon="12.2212796"><ele>257.0</ele><time>2026-04-12T06:45:14.635Z</time></trkpt><trkpt lat="43.1645264" lon="12.2212087"><ele>257.0</ele><time>2026-04-12T06:45:15.646Z</time></trkpt><trkpt lat="43.1646133" lon="12.2211387"><ele>257.0</ele><time>2026-04-12T06:45:16.637Z</time></trkpt><trkpt lat="43.1647014" lon="12.2210681"><ele>257.0</ele><time>2026-04-12T06:45:17.638Z</time></trkpt><trkpt lat="43.1647906" lon="12.220995"><ele>257.0</ele><time>2026-04-12T06:45:18.633Z</time></trkpt><trkpt lat="43.1648816" lon="12.2209204"><ele>257.2</ele><time>2026-04-12T06:45:19.64Z</time></trkpt><trkpt lat="43.1649739" lon="12.2208464"><ele>257.4</ele><time>2026-04-12T06:45:20.64Z</time></trkpt><trkpt lat="43.1650696" lon="12.2207725"><ele>257.6</ele><time>2026-04-12T06:45:21.639Z</time></trkpt><trkpt lat="43.1651687" lon="12.2207138"><ele>257.8</ele><time>2026-04-12T06:45:22.636Z</time></trkpt><trkpt lat="43.1652746" lon="12.2206574"><ele>258.0</ele><time>2026-04-12T06:45:23.647Z</time></trkpt><trkpt lat="43.1653791" lon="12.2206012"><ele>258.25</ele><time>2026-04-12T06:45:24.636Z</time></trkpt><trkpt lat="43.1654867" lon="12.2205447"><ele>258.5</ele><time>2026-04-12T06:45:25.637Z</time></trkpt><trkpt lat="43.1655943" lon="12.2204922"><ele>258.75</ele><time>2026-04-12T06:45:26.642Z</time></trkpt><trkpt lat="43.1657005" lon="12.2204443"><ele>259.0</ele><time>2026-04-12T06:45:27.639Z</time></trkpt><trkpt lat="43.1658066" lon="12.2203941"><ele>259.0</ele><time>2026-04-12T06:45:28.638Z</time></trkpt><trkpt lat="43.1659121" lon="12.2203376"><ele>259.0</ele><time>2026-04-12T06:45:29.634Z</time></trkpt><trkpt lat="43.1660227" lon="12.220277"><ele>259.0</ele><time>2026-04-12T06:45:30.651Z</time></trkpt><trkpt lat="43.166134" lon="12.2202136"><ele>259.0</ele><time>2026-04-12T06:45:31.637Z</time></trkpt><trkpt lat="43.1662482" lon="12.2201482"><ele>259.0</ele><time>2026-04-12T06:45:32.637Z</time></trkpt><trkpt lat="43.1663599" lon="12.2200835"><ele>259.0</ele><time>2026-04-12T06:45:33.642Z</time></trkpt><trkpt lat="43.1664732" lon="12.2200242"><ele>259.0</ele><time>2026-04-12T06:45:34.643Z</time></trkpt><trkpt lat="43.1665839" lon="12.2199632"><ele>259.0</ele><time>2026-04-12T06:45:35.64Z</time></trkpt><trkpt lat="43.1666995" lon="12.2198998"><ele>259.25</ele><time>2026-04-12T06:45:36.643Z</time></trkpt><trkpt lat="43.1668162" lon="12.2198387"><ele>259.5</ele><time>2026-04-12T06:45:37.64Z</time></trkpt><trkpt lat="43.1669316" lon="12.2197796"><ele>259.75</ele><time>2026-04-12T06:45:38.639Z</time></trkpt><trkpt lat="43.1670442" lon="12.2197201"><ele>260.0</ele><time>2026-04-12T06:45:39.651Z</time></trkpt><trkpt lat="43.1671564" lon="12.2196583"><ele>260.0</ele><time>2026-04-12T06:45:40.651Z</time></trkpt><trkpt lat="43.1672721" lon="12.2196003"><ele>260.0</ele><time>2026-04-12T06:45:41.643Z</time></trkpt><trkpt lat="43.1673888" lon="12.2195411"><ele>260.0</ele><time>2026-04-12T06:45:42.654Z</time></trkpt><trkpt lat="43.167505" lon="12.2194801"><ele>260.0</ele><time>2026-04-12T06:45:43.648Z</time></trkpt><trkpt lat="43.1676215" lon="12.2194176"><ele>260.25</ele><time>2026-04-12T06:45:44.667Z</time></trkpt><trkpt lat="43.1677323" lon="12.2193554"><ele>260.5</ele><time>2026-04-12T06:45:45.645Z</time></trkpt><trkpt lat="43.1678446" lon="12.2192915"><ele>260.75</ele><time>2026-04-12T06:45:46.646Z</time></trkpt><trkpt lat="43.1679575" lon="12.2192331"><ele>261.0</ele><time>2026-04-12T06:45:47.647Z</time></trkpt><trkpt lat="43.1680705" lon="12.2191766"><ele>261.0</ele><time>2026-04-12T06:45:48.645Z</time></trkpt><trkpt lat="43.1681855" lon="12.2191149"><ele>261.0</ele><time>2026-04-12T06:45:49.65Z</time></trkpt><trkpt lat="43.168303" lon="12.2190517"><ele>261.0</ele><time>2026-04-12T06:45:50.646Z</time></trkpt><trkpt lat="43.1684197" lon="12.2189881"><ele>261.0</ele><time>2026-04-12T06:45:51.649Z</time></trkpt><trkpt lat="43.1685357" lon="12.2189251"><ele>261.5</ele><time>2026-04-12T06:45:52.647Z</time></trkpt><trkpt lat="43.1686547" lon="12.2188586"><ele>262.0</ele><time>2026-04-12T06:45:53.647Z</time></trkpt><trkpt lat="43.1687766" lon="12.218792"><ele>262.5</ele><time>2026-04-12T06:45:54.65Z</time></trkpt><trkpt lat="43.168899" lon="12.2187248"><ele>263.0</ele><time>2026-04-12T06:45:55.65Z</time></trkpt><trkpt lat="43.169024" lon="12.2186565"><ele>264.0</ele><time>2026-04-12T06:45:56.646Z</time></trkpt><trkpt lat="43.1691483" lon="12.2185909"><ele>265.0</ele><time>2026-04-12T06:45:57.647Z</time></trkpt><trkpt lat="43.1692697" lon="12.2185248"><ele>266.0</ele><time>2026-04-12T06:45:58.652Z</time></trkpt><trkpt lat="43.169387" lon="12.2184581"><ele>267.0</ele><time>2026-04-12T06:45:59.648Z</time></trkpt><trkpt lat="43.1695024" lon="12.2183912"><ele>267.0</ele><time>2026-04-12T06:46:00.648Z</time></trkpt><trkpt lat="43.169611" lon="12.2183299"><ele>267.0</ele><time>2026-04-12T06:46:01.637Z</time></trkpt><trkpt lat="43.1697111" lon="12.2182789"><ele>267.0</ele><time>2026-04-12T06:46:02.647Z</time></trkpt><trkpt lat="43.1697933" lon="12.2182313"><ele>267.0</ele><time>2026-04-12T06:46:03.644Z</time></trkpt><trkpt lat="43.1698614" lon="12.2181883"><ele>267.0</ele><time>2026-04-12T06:46:04.64Z</time></trkpt><trkpt lat="43.1699743" lon="12.2181417"><ele>267.4</ele><time>2026-04-12T06:46:06.64Z</time></trkpt><trkpt lat="43.1701086" lon="12.2181434"><ele>267.79999999999995</ele><time>2026-04-12T06:46:08.64Z</time></trkpt><trkpt lat="43.1701942" lon="12.2181246"><ele>268.2</ele><time>2026-04-12T06:46:09.647Z</time></trkpt><trkpt lat="43.1702933" lon="12.2180916"><ele>268.59999999999997</ele><time>2026-04-12T06:46:10.638Z</time></trkpt><trkpt lat="43.1704031" lon="12.2180508"><ele>269.0</ele><time>2026-04-12T06:46:11.646Z</time></trkpt><trkpt lat="43.1705154" lon="12.218004"><ele>269.0</ele><time>2026-04-12T06:46:12.647Z</time></trkpt><trkpt lat="43.1706248" lon="12.2179553"><ele>269.0</ele><time>2026-04-12T06:46:13.64Z</time></trkpt><trkpt lat="43.1707332" lon="12.21791"><ele>269.0</ele><time>2026-04-12T06:46:14.644Z</time></trkpt><trkpt lat="43.1708354" lon="12.2178618"><ele>269.0</ele><time>2026-04-12T06:46:15.662Z</time></trkpt><trkpt lat="43.1709319" lon="12.2178189"><ele>269.0</ele><time>2026-04-12T06:46:16.643Z</time></trkpt><trkpt lat="43.1710257" lon="12.2177884"><ele>270.2</ele><time>2026-04-12T06:46:17.639Z</time></trkpt><trkpt lat="43.1711156" lon="12.2177648"><ele>271.4</ele><time>2026-04-12T06:46:18.644Z</time></trkpt><trkpt lat="43.1712036" lon="12.2177351"><ele>272.6</ele><time>2026-04-12T06:46:19.637Z</time></trkpt><trkpt lat="43.1712929" lon="12.2177004"><ele>273.8</ele><time>2026-04-12T06:46:20.651Z</time></trkpt><trkpt lat="43.1713875" lon="12.2176602"><ele>275.0</ele><time>2026-04-12T06:46:21.643Z</time></trkpt><trkpt lat="43.1714923" lon="12.2176194"><ele>276.2</ele><time>2026-04-12T06:46:22.642Z</time></trkpt><trkpt lat="43.1716018" lon="12.2175731"><ele>277.4</ele><time>2026-04-12T06:46:23.648Z</time></trkpt><trkpt lat="43.1717165" lon="12.2175274"><ele>278.6</ele><time>2026-04-12T06:46:24.642Z</time></trkpt><trkpt lat="43.1718256" lon="12.2175038"><ele>279.8</ele><time>2026-04-12T06:46:25.643Z</time></trkpt><trkpt lat="43.1719246" lon="12.2175145"><ele>281.0</ele><time>2026-04-12T06:46:26.648Z</time></trkpt><trkpt lat="43.172008" lon="12.2175715"><ele>281.0</ele><time>2026-04-12T06:46:27.647Z</time></trkpt><trkpt lat="43.1720765" lon="12.2176447"><ele>281.0</ele><time>2026-04-12T06:46:28.644Z</time></trkpt><trkpt lat="43.1721468" lon="12.2177089"><ele>281.0</ele><time>2026-04-12T06:46:29.642Z</time></trkpt><trkpt lat="43.1722258" lon="12.2177616"><ele>281.0</ele><time>2026-04-12T06:46:30.644Z</time></trkpt><trkpt lat="43.1723197" lon="12.2178063"><ele>281.0</ele><time>2026-04-12T06:46:31.643Z</time></trkpt><trkpt lat="43.1724217" lon="12.2178466"><ele>282.2</ele><time>2026-04-12T06:46:32.643Z</time></trkpt><trkpt lat="43.1725246" lon="12.2178824"><ele>283.40000000000003</ele><time>2026-04-12T06:46:33.643Z</time></trkpt><trkpt lat="43.1726232" lon="12.2179163"><ele>284.6</ele><time>2026-04-12T06:46:34.641Z</time></trkpt><trkpt lat="43.1727121" lon="12.2179539"><ele>285.8</ele><time>2026-04-12T06:46:35.651Z</time></trkpt><trkpt lat="43.1728002" lon="12.2179919"><ele>287.0</ele><time>2026-04-12T06:46:36.646Z</time></trkpt><trkpt lat="43.1728907" lon="12.2180265"><ele>287.0</ele><time>2026-04-12T06:46:37.64Z</time></trkpt><trkpt lat="43.1729831" lon="12.2180621"><ele>287.0</ele><time>2026-04-12T06:46:38.645Z</time></trkpt><trkpt lat="43.1730761" lon="12.2180973"><ele>287.0</ele><time>2026-04-12T06:46:39.641Z</time></trkpt><trkpt lat="43.1731678" lon="12.2181317"><ele>287.0</ele><time>2026-04-12T06:46:40.641Z</time></trkpt><trkpt lat="43.1732582" lon="12.2181719"><ele>287.0</ele><time>2026-04-12T06:46:41.638Z</time></trkpt><trkpt lat="43.1733424" lon="12.2182099"><ele>288.0</ele><time>2026-04-12T06:46:42.649Z</time></trkpt><trkpt lat="43.173414" lon="12.2182308"><ele>289.0</ele><time>2026-04-12T06:46:43.642Z</time></trkpt><trkpt lat="43.1734902" lon="12.2181534"><ele>290.0</ele><time>2026-04-12T06:46:45.642Z</time></trkpt><trkpt lat="43.1734881" lon="12.2180337"><ele>291.0</ele><time>2026-04-12T06:46:46.659Z</time></trkpt><trkpt lat="43.1734758" lon="12.2178739"><ele>292.0</ele><time>2026-04-12T06:46:47.631Z</time></trkpt><trkpt lat="43.1734664" lon="12.2176946"><ele>292.0</ele><time>2026-04-12T06:46:48.635Z</time></trkpt><trkpt lat="43.1734619" lon="12.2175193"><ele>292.0</ele><time>2026-04-12T06:46:49.64Z</time></trkpt><trkpt lat="43.1734689" lon="12.2173369"><ele>292.0</ele><time>2026-04-12T06:46:50.642Z</time></trkpt><trkpt lat="43.1734841" lon="12.2171285"><ele>292.0</ele><time>2026-04-12T06:46:51.643Z</time></trkpt><trkpt lat="43.1735052" lon="12.2169223"><ele>290.75</ele><time>2026-04-12T06:46:52.639Z</time></trkpt><trkpt lat="43.1735304" lon="12.2167214"><ele>289.5</ele><time>2026-04-12T06:46:53.641Z</time></trkpt><trkpt lat="43.1735606" lon="12.2165326"><ele>288.25</ele><time>2026-04-12T06:46:54.643Z</time></trkpt><trkpt lat="43.1735911" lon="12.2163329"><ele>287.0</ele><time>2026-04-12T06:46:55.645Z</time></trkpt><trkpt lat="43.1736191" lon="12.2161282"><ele>286.5</ele><time>2026-04-12T06:46:56.644Z</time></trkpt><trkpt lat="43.173645" lon="12.2159158"><ele>286.0</ele><time>2026-04-12T06:46:57.643Z</time></trkpt><trkpt lat="43.1736638" lon="12.2157236"><ele>285.5</ele><time>2026-04-12T06:46:58.643Z</time></trkpt><trkpt lat="43.1736861" lon="12.2155547"><ele>285.0</ele><time>2026-04-12T06:46:59.642Z</time></trkpt><trkpt lat="43.1737134" lon="12.2154144"><ele>284.8</ele><time>2026-04-12T06:47:00.645Z</time></trkpt><trkpt lat="43.1737304" lon="12.2153064"><ele>284.6</ele><time>2026-04-12T06:47:01.645Z</time></trkpt><trkpt lat="43.173732" lon="12.2152164"><ele>284.4</ele><time>2026-04-12T06:47:02.65Z</time></trkpt><trkpt lat="43.173739" lon="12.2150566"><ele>284.2</ele><time>2026-04-12T06:47:04.649Z</time></trkpt><trkpt lat="43.1737855" lon="12.2149245"><ele>284.0</ele><time>2026-04-12T06:47:06.645Z</time></trkpt><trkpt lat="43.1738665" lon="12.2148953"><ele>284.0</ele><time>2026-04-12T06:47:08.647Z</time></trkpt><trkpt lat="43.1739805" lon="12.2149588"><ele>284.0</ele><time>2026-04-12T06:47:10.65Z</time></trkpt><trkpt lat="43.1740497" lon="12.2149945"><ele>284.0</ele><time>2026-04-12T06:47:11.636Z</time></trkpt><trkpt lat="43.1741296" lon="12.2150205"><ele>284.0</ele><time>2026-04-12T06:47:12.658Z</time></trkpt><trkpt lat="43.174216" lon="12.2150263"><ele>284.0</ele><time>2026-04-12T06:47:13.635Z</time></trkpt><trkpt lat="43.1743088" lon="12.2150024"><ele>285.0</ele><time>2026-04-12T06:47:14.64Z</time></trkpt><trkpt lat="43.1744044" lon="12.2149576"><ele>286.0</ele><time>2026-04-12T06:47:15.643Z</time></trkpt><trkpt lat="43.1745063" lon="12.2149169"><ele>287.0</ele><time>2026-04-12T06:47:16.639Z</time></trkpt><trkpt lat="43.1746139" lon="12.2148934"><ele>288.0</ele><time>2026-04-12T06:47:17.652Z</time></trkpt><trkpt lat="43.1747207" lon="12.2148859"><ele>289.0</ele><time>2026-04-12T06:47:18.634Z</time></trkpt><trkpt lat="43.1749418" lon="12.2149109"><ele>290.0</ele><time>2026-04-12T06:47:20.638Z</time></trkpt><trkpt lat="43.1750548" lon="12.2149003"><ele>291.0</ele><time>2026-04-12T06:47:21.642Z</time></trkpt><trkpt lat="43.1751649" lon="12.2148537"><ele>292.0</ele><time>2026-04-12T06:47:22.64Z</time></trkpt><trkpt lat="43.1752657" lon="12.214801"><ele>293.0</ele><time>2026-04-12T06:47:23.64Z</time></trkpt><trkpt lat="43.1754583" lon="12.2146743"><ele>293.4</ele><time>2026-04-12T06:47:25.633Z</time></trkpt><trkpt lat="43.1755427" lon="12.2145962"><ele>293.8</ele><time>2026-04-12T06:47:26.63Z</time></trkpt><trkpt lat="43.1756214" lon="12.2145104"><ele>294.2</ele><time>2026-04-12T06:47:27.633Z</time></trkpt><trkpt lat="43.1757013" lon="12.2144319"><ele>294.6</ele><time>2026-04-12T06:47:28.637Z</time></trkpt><trkpt lat="43.1757889" lon="12.2143706"><ele>295.0</ele><time>2026-04-12T06:47:29.636Z</time></trkpt><trkpt lat="43.1758833" lon="12.2143226"><ele>297.75</ele><time>2026-04-12T06:47:30.634Z</time></trkpt><trkpt lat="43.1759836" lon="12.2142772"><ele>300.5</ele><time>2026-04-12T06:47:31.643Z</time></trkpt><trkpt lat="43.1760925" lon="12.2142268"><ele>303.25</ele><time>2026-04-12T06:47:32.64Z</time></trkpt><trkpt lat="43.1762058" lon="12.2141793"><ele>306.0</ele><time>2026-04-12T06:47:33.643Z</time></trkpt><trkpt lat="43.1763123" lon="12.214136"><ele>306.0</ele><time>2026-04-12T06:47:34.645Z</time></trkpt><trkpt lat="43.1764053" lon="12.2140857"><ele>306.0</ele><time>2026-04-12T06:47:35.638Z</time></trkpt><trkpt lat="43.1764824" lon="12.2140211"><ele>306.0</ele><time>2026-04-12T06:47:36.641Z</time></trkpt><trkpt lat="43.1765373" lon="12.2139327"><ele>306.0</ele><time>2026-04-12T06:47:37.644Z</time></trkpt><trkpt lat="43.1765786" lon="12.2138297"><ele>306.0</ele><time>2026-04-12T06:47:38.645Z</time></trkpt><trkpt lat="43.1766216" lon="12.2137138"><ele>307.8</ele><time>2026-04-12T06:47:39.646Z</time></trkpt><trkpt lat="43.176671" lon="12.2135924"><ele>309.6</ele><time>2026-04-12T06:47:40.638Z</time></trkpt><trkpt lat="43.1767227" lon="12.213455"><ele>311.4</ele><time>2026-04-12T06:47:41.647Z</time></trkpt><trkpt lat="43.1767746" lon="12.2133141"><ele>313.2</ele><time>2026-04-12T06:47:42.656Z</time></trkpt><trkpt lat="43.1768258" lon="12.2131912"><ele>315.0</ele><time>2026-04-12T06:47:43.646Z</time></trkpt><trkpt lat="43.1768852" lon="12.2130772"><ele>315.0</ele><time>2026-04-12T06:47:44.647Z</time></trkpt><trkpt lat="43.176959" lon="12.2129777"><ele>315.0</ele><time>2026-04-12T06:47:45.65Z</time></trkpt><trkpt lat="43.1770395" lon="12.2128826"><ele>315.0</ele><time>2026-04-12T06:47:46.644Z</time></trkpt><trkpt lat="43.1771225" lon="12.2127825"><ele>315.0</ele><time>2026-04-12T06:47:47.653Z</time></trkpt><trkpt lat="43.1771966" lon="12.2126729"><ele>315.0</ele><time>2026-04-12T06:47:48.662Z</time></trkpt><trkpt lat="43.1772605" lon="12.212568"><ele>315.0</ele><time>2026-04-12T06:47:49.649Z</time></trkpt><trkpt lat="43.1773224" lon="12.2124813"><ele>315.0</ele><time>2026-04-12T06:47:50.647Z</time></trkpt><trkpt lat="43.1773852" lon="12.2124166"><ele>315.0</ele><time>2026-04-12T06:47:51.646Z</time></trkpt><trkpt lat="43.1774598" lon="12.2123752"><ele>315.0</ele><time>2026-04-12T06:47:52.649Z</time></trkpt><trkpt lat="43.1775513" lon="12.21236"><ele>315.0</ele><time>2026-04-12T06:47:53.649Z</time></trkpt><trkpt lat="43.1776516" lon="12.2123632"><ele>315.0</ele><time>2026-04-12T06:47:54.646Z</time></trkpt><trkpt lat="43.1777501" lon="12.2123819"><ele>316.6</ele><time>2026-04-12T06:47:55.646Z</time></trkpt><trkpt lat="43.177849" lon="12.2124096"><ele>318.2</ele><time>2026-04-12T06:47:56.642Z</time></trkpt><trkpt lat="43.1779492" lon="12.2124452"><ele>319.79999999999995</ele><time>2026-04-12T06:47:57.647Z</time></trkpt><trkpt lat="43.1780576" lon="12.2124892"><ele>321.4</ele><time>2026-04-12T06:47:58.649Z</time></trkpt><trkpt lat="43.1781726" lon="12.2125373"><ele>323.0</ele><time>2026-04-12T06:47:59.645Z</time></trkpt><trkpt lat="43.1783033" lon="12.2125838"><ele>325.0</ele><time>2026-04-12T06:48:00.641Z</time></trkpt><trkpt lat="43.1784426" lon="12.2126318"><ele>327.0</ele><time>2026-04-12T06:48:01.641Z</time></trkpt><trkpt lat="43.178584" lon="12.2126901"><ele>329.0</ele><time>2026-04-12T06:48:02.642Z</time></trkpt><trkpt lat="43.1787153" lon="12.2127505"><ele>331.0</ele><time>2026-04-12T06:48:03.648Z</time></trkpt><trkpt lat="43.1788427" lon="12.2128209"><ele>331.0</ele><time>2026-04-12T06:48:04.642Z</time></trkpt><trkpt lat="43.178969" lon="12.2128912"><ele>331.0</ele><time>2026-04-12T06:48:05.644Z</time></trkpt><trkpt lat="43.1790877" lon="12.21295"><ele>331.0</ele><time>2026-04-12T06:48:06.639Z</time></trkpt><trkpt lat="43.1792028" lon="12.2130156"><ele>331.0</ele><time>2026-04-12T06:48:07.649Z</time></trkpt><trkpt lat="43.1793071" lon="12.2130805"><ele>332.8</ele><time>2026-04-12T06:48:08.64Z</time></trkpt><trkpt lat="43.1794036" lon="12.2131412"><ele>334.6</ele><time>2026-04-12T06:48:09.645Z</time></trkpt><trkpt lat="43.1794973" lon="12.2131835"><ele>336.4</ele><time>2026-04-12T06:48:10.644Z</time></trkpt><trkpt lat="43.1795874" lon="12.2131901"><ele>338.2</ele><time>2026-04-12T06:48:11.647Z</time></trkpt><trkpt lat="43.1796729" lon="12.2131582"><ele>340.0</ele><time>2026-04-12T06:48:12.65Z</time></trkpt><trkpt lat="43.1797592" lon="12.213085"><ele>340.2</ele><time>2026-04-12T06:48:13.639Z</time></trkpt><trkpt lat="43.1798482" lon="12.2129782"><ele>340.4</ele><time>2026-04-12T06:48:14.634Z</time></trkpt><trkpt lat="43.1799351" lon="12.2128611"><ele>340.6</ele><time>2026-04-12T06:48:15.631Z</time></trkpt><trkpt lat="43.1800072" lon="12.2127638"><ele>340.8</ele><time>2026-04-12T06:48:16.635Z</time></trkpt><trkpt lat="43.1800654" lon="12.2127145"><ele>341.0</ele><time>2026-04-12T06:48:17.629Z</time></trkpt><trkpt lat="43.1801997" lon="12.2127239"><ele>343.20000000000005</ele><time>2026-04-12T06:48:19.662Z</time></trkpt><trkpt lat="43.1802816" lon="12.2127428"><ele>345.40000000000003</ele><time>2026-04-12T06:48:20.628Z</time></trkpt><trkpt lat="43.1803794" lon="12.2127567"><ele>347.6</ele><time>2026-04-12T06:48:21.626Z</time></trkpt><trkpt lat="43.1804892" lon="12.2127653"><ele>349.8</ele><time>2026-04-12T06:48:22.627Z</time></trkpt><trkpt lat="43.1806043" lon="12.2127731"><ele>352.0</ele><time>2026-04-12T06:48:23.63Z</time></trkpt><trkpt lat="43.1807216" lon="12.2127781"><ele>354.75</ele><time>2026-04-12T06:48:24.627Z</time></trkpt><trkpt lat="43.1808365" lon="12.2127751"><ele>357.5</ele><time>2026-04-12T06:48:25.632Z</time></trkpt><trkpt lat="43.1809548" lon="12.2127591"><ele>360.25</ele><time>2026-04-12T06:48:26.632Z</time></trkpt><trkpt lat="43.1810737" lon="12.2127534"><ele>363.0</ele><time>2026-04-12T06:48:27.631Z</time></trkpt><trkpt lat="43.1811996" lon="12.2127545"><ele>363.0</ele><time>2026-04-12T06:48:28.629Z</time></trkpt><trkpt lat="43.1813253" lon="12.2127616"><ele>363.0</ele><time>2026-04-12T06:48:29.627Z</time></trkpt><trkpt lat="43.1814515" lon="12.2127675"><ele>363.0</ele><time>2026-04-12T06:48:30.631Z</time></trkpt><trkpt lat="43.1815816" lon="12.212767"><ele>363.0</ele><time>2026-04-12T06:48:31.626Z</time></trkpt><trkpt lat="43.1817211" lon="12.2127599"><ele>366.25</ele><time>2026-04-12T06:48:32.63Z</time></trkpt><trkpt lat="43.1818549" lon="12.2127428"><ele>369.5</ele><time>2026-04-12T06:48:33.628Z</time></trkpt><trkpt lat="43.1819762" lon="12.2127105"><ele>372.75</ele><time>2026-04-12T06:48:34.625Z</time></trkpt><trkpt lat="43.1820837" lon="12.2126701"><ele>376.0</ele><time>2026-04-12T06:48:35.634Z</time></trkpt><trkpt lat="43.1821772" lon="12.2126231"><ele>376.0</ele><time>2026-04-12T06:48:36.635Z</time></trkpt><trkpt lat="43.1822478" lon="12.212566"><ele>376.0</ele><time>2026-04-12T06:48:37.64Z</time></trkpt><trkpt lat="43.1822977" lon="12.2124759"><ele>376.0</ele><time>2026-04-12T06:48:38.639Z</time></trkpt><trkpt lat="43.1823321" lon="12.2123509"><ele>376.0</ele><time>2026-04-12T06:48:39.632Z</time></trkpt><trkpt lat="43.1823647" lon="12.2122168"><ele>376.0</ele><time>2026-04-12T06:48:40.635Z</time></trkpt><trkpt lat="43.1824042" lon="12.2120957"><ele>377.0</ele><time>2026-04-12T06:48:41.636Z</time></trkpt><trkpt lat="43.1824507" lon="12.2119986"><ele>378.0</ele><time>2026-04-12T06:48:42.649Z</time></trkpt><trkpt lat="43.1825046" lon="12.2119503"><ele>379.0</ele><time>2026-04-12T06:48:43.645Z</time></trkpt><trkpt lat="43.1825925" lon="12.2120059"><ele>380.0</ele><time>2026-04-12T06:48:45.64Z</time></trkpt><trkpt lat="43.1826387" lon="12.2121692"><ele>381.0</ele><time>2026-04-12T06:48:47.643Z</time></trkpt><trkpt lat="43.1826491" lon="12.2122679"><ele>382.0</ele><time>2026-04-12T06:48:48.642Z</time></trkpt><trkpt lat="43.1826574" lon="12.2123788"><ele>382.25</ele><time>2026-04-12T06:48:49.655Z</time></trkpt><trkpt lat="43.1826673" lon="12.2125091"><ele>382.5</ele><time>2026-04-12T06:48:50.648Z</time></trkpt><trkpt lat="43.1826869" lon="12.2126795"><ele>382.75</ele><time>2026-04-12T06:48:51.645Z</time></trkpt><trkpt lat="43.1827123" lon="12.2128645"><ele>383.0</ele><time>2026-04-12T06:48:52.642Z</time></trkpt><trkpt lat="43.1827383" lon="12.2130579"><ele>381.5</ele><time>2026-04-12T06:48:53.642Z</time></trkpt><trkpt lat="43.1827685" lon="12.2132361"><ele>380.0</ele><time>2026-04-12T06:48:54.636Z</time></trkpt><trkpt lat="43.1828058" lon="12.2133892"><ele>378.5</ele><time>2026-04-12T06:48:55.637Z</time></trkpt><trkpt lat="43.1828537" lon="12.2135235"><ele>377.0</ele><time>2026-04-12T06:48:56.647Z</time></trkpt><trkpt lat="43.1829254" lon="12.2136416"><ele>377.0</ele><time>2026-04-12T06:48:57.635Z</time></trkpt><trkpt lat="43.183014" lon="12.213754"><ele>377.0</ele><time>2026-04-12T06:48:58.632Z</time></trkpt><trkpt lat="43.1830995" lon="12.2138495"><ele>377.0</ele><time>2026-04-12T06:48:59.644Z</time></trkpt><trkpt lat="43.1831798" lon="12.2139106"><ele>377.0</ele><time>2026-04-12T06:49:00.645Z</time></trkpt><trkpt lat="43.183264" lon="12.213936"><ele>377.0</ele><time>2026-04-12T06:49:01.64Z</time></trkpt><trkpt lat="43.1833465" lon="12.2139355"><ele>380.20000000000005</ele><time>2026-04-12T06:49:02.636Z</time></trkpt><trkpt lat="43.1834283" lon="12.2139152"><ele>383.4</ele><time>2026-04-12T06:49:03.642Z</time></trkpt><trkpt lat="43.1835077" lon="12.2138638"><ele>386.6</ele><time>2026-04-12T06:49:04.639Z</time></trkpt><trkpt lat="43.1835915" lon="12.2137886"><ele>389.79999999999995</ele><time>2026-04-12T06:49:05.637Z</time></trkpt><trkpt lat="43.1836841" lon="12.2137047"><ele>393.0</ele><time>2026-04-12T06:49:06.635Z</time></trkpt><trkpt lat="43.1837839" lon="12.2136245"><ele>393.0</ele><time>2026-04-12T06:49:07.638Z</time></trkpt><trkpt lat="43.1838818" lon="12.2135457"><ele>393.0</ele><time>2026-04-12T06:49:08.64Z</time></trkpt><trkpt lat="43.1839626" lon="12.2134648"><ele>393.0</ele><time>2026-04-12T06:49:09.626Z</time></trkpt><trkpt lat="43.1840298" lon="12.2133775"><ele>393.0</ele><time>2026-04-12T06:49:10.642Z</time></trkpt><trkpt lat="43.1840903" lon="12.2132957"><ele>393.0</ele><time>2026-04-12T06:49:11.634Z</time></trkpt><trkpt lat="43.1841537" lon="12.2132183"><ele>394.59999999999997</ele><time>2026-04-12T06:49:12.643Z</time></trkpt><trkpt lat="43.1842258" lon="12.2131484"><ele>396.2</ele><time>2026-04-12T06:49:13.634Z</time></trkpt><trkpt lat="43.1843084" lon="12.2130868"><ele>397.8</ele><time>2026-04-12T06:49:14.631Z</time></trkpt><trkpt lat="43.1844012" lon="12.2130282"><ele>399.4</ele><time>2026-04-12T06:49:15.632Z</time></trkpt><trkpt lat="43.1844945" lon="12.2129704"><ele>401.0</ele><time>2026-04-12T06:49:16.632Z</time></trkpt><trkpt lat="43.1845774" lon="12.2129178"><ele>401.0</ele><time>2026-04-12T06:49:17.639Z</time></trkpt><trkpt lat="43.1846372" lon="12.2128753"><ele>401.0</ele><time>2026-04-12T06:49:18.636Z</time></trkpt><trkpt lat="43.1846683" lon="12.2127159"><ele>401.0</ele><time>2026-04-12T06:49:20.654Z</time></trkpt><trkpt lat="43.184643" lon="12.2126053"><ele>401.0</ele><time>2026-04-12T06:49:21.634Z</time></trkpt><trkpt lat="43.1846068" lon="12.2124823"><ele>401.0</ele><time>2026-04-12T06:49:22.635Z</time></trkpt><trkpt lat="43.1845762" lon="12.2123538"><ele>400.6</ele><time>2026-04-12T06:49:23.633Z</time></trkpt><trkpt lat="43.1845581" lon="12.2122365"><ele>400.20000000000005</ele><time>2026-04-12T06:49:24.629Z</time></trkpt><trkpt lat="43.1845622" lon="12.2121346"><ele>399.79999999999995</ele><time>2026-04-12T06:49:25.637Z</time></trkpt><trkpt lat="43.1846434" lon="12.2120053"><ele>399.4</ele><time>2026-04-12T06:49:27.638Z</time></trkpt><trkpt lat="43.18472" lon="12.2119619"><ele>399.0</ele><time>2026-04-12T06:49:28.632Z</time></trkpt><trkpt lat="43.1848128" lon="12.2119254"><ele>401.0</ele><time>2026-04-12T06:49:29.636Z</time></trkpt><trkpt lat="43.1849083" lon="12.2118896"><ele>403.0</ele><time>2026-04-12T06:49:30.639Z</time></trkpt><trkpt lat="43.1850079" lon="12.2118479"><ele>405.0</ele><time>2026-04-12T06:49:31.64Z</time></trkpt><trkpt lat="43.1851135" lon="12.2118052"><ele>407.0</ele><time>2026-04-12T06:49:32.631Z</time></trkpt><trkpt lat="43.1852276" lon="12.2117681"><ele>409.0</ele><time>2026-04-12T06:49:33.637Z</time></trkpt><trkpt lat="43.1853457" lon="12.2117447"><ele>409.0</ele><time>2026-04-12T06:49:34.641Z</time></trkpt><trkpt lat="43.1854557" lon="12.2117304"><ele>409.0</ele><time>2026-04-12T06:49:35.637Z</time></trkpt><trkpt lat="43.1855572" lon="12.211711"><ele>409.0</ele><time>2026-04-12T06:49:36.638Z</time></trkpt><trkpt lat="43.1856539" lon="12.2116811"><ele>409.0</ele><time>2026-04-12T06:49:37.645Z</time></trkpt><trkpt lat="43.1857511" lon="12.2116476"><ele>409.0</ele><time>2026-04-12T06:49:38.637Z</time></trkpt><trkpt lat="43.1858438" lon="12.2116084"><ele>410.79999999999995</ele><time>2026-04-12T06:49:39.637Z</time></trkpt><trkpt lat="43.1859217" lon="12.2115701"><ele>412.59999999999997</ele><time>2026-04-12T06:49:40.642Z</time></trkpt><trkpt lat="43.1860492" lon="12.2115617"><ele>414.4</ele><time>2026-04-12T06:49:42.648Z</time></trkpt><trkpt lat="43.1861221" lon="12.2116042"><ele>416.2</ele><time>2026-04-12T06:49:43.639Z</time></trkpt><trkpt lat="43.1862008" lon="12.2116778"><ele>418.0</ele><time>2026-04-12T06:49:44.636Z</time></trkpt><trkpt lat="43.1862812" lon="12.2117755"><ele>418.0</ele><time>2026-04-12T06:49:45.641Z</time></trkpt><trkpt lat="43.1863732" lon="12.2118788"><ele>418.0</ele><time>2026-04-12T06:49:46.638Z</time></trkpt><trkpt lat="43.1864639" lon="12.211968"><ele>418.0</ele><time>2026-04-12T06:49:47.639Z</time></trkpt><trkpt lat="43.1865411" lon="12.2120332"><ele>418.0</ele><time>2026-04-12T06:49:48.636Z</time></trkpt><trkpt lat="43.1866132" lon="12.2120443"><ele>418.0</ele><time>2026-04-12T06:49:49.635Z</time></trkpt><trkpt lat="43.1866726" lon="12.2120059"><ele>420.79999999999995</ele><time>2026-04-12T06:49:50.632Z</time></trkpt><trkpt lat="43.1867095" lon="12.2118603"><ele>423.6</ele><time>2026-04-12T06:49:52.632Z</time></trkpt><trkpt lat="43.1867089" lon="12.2117522"><ele>426.40000000000003</ele><time>2026-04-12T06:49:53.629Z</time></trkpt><trkpt lat="43.1867035" lon="12.2116267"><ele>429.20000000000005</ele><time>2026-04-12T06:49:54.633Z</time></trkpt><trkpt lat="43.1866947" lon="12.2114948"><ele>432.0</ele><time>2026-04-12T06:49:55.63Z</time></trkpt><trkpt lat="43.186693" lon="12.2113747"><ele>432.40000000000003</ele><time>2026-04-12T06:49:56.636Z</time></trkpt><trkpt lat="43.1867075" lon="12.2112704"><ele>432.80000000000007</ele><time>2026-04-12T06:49:57.636Z</time></trkpt><trkpt lat="43.1867453" lon="12.2112013"><ele>433.2</ele><time>2026-04-12T06:49:58.643Z</time></trkpt><trkpt lat="43.1868661" lon="12.2111764"><ele>433.6</ele><time>2026-04-12T06:50:00.637Z</time></trkpt><trkpt lat="43.1869491" lon="12.2111845"><ele>434.0</ele><time>2026-04-12T06:50:01.643Z</time></trkpt><trkpt lat="43.1870547" lon="12.2111739"><ele>434.0</ele><time>2026-04-12T06:50:02.645Z</time></trkpt><trkpt lat="43.1871837" lon="12.2111401"><ele>434.0</ele><time>2026-04-12T06:50:03.638Z</time></trkpt><trkpt lat="43.1873005" lon="12.2111312"><ele>434.0</ele><time>2026-04-12T06:50:04.638Z</time></trkpt><trkpt lat="43.1873941" lon="12.2111638"><ele>434.0</ele><time>2026-04-12T06:50:05.634Z</time></trkpt><trkpt lat="43.1874662" lon="12.2112044"><ele>434.0</ele><time>2026-04-12T06:50:06.635Z</time></trkpt><trkpt lat="43.1875309" lon="12.2112099"><ele>436.6</ele><time>2026-04-12T06:50:07.64Z</time></trkpt><trkpt lat="43.1876058" lon="12.2110903"><ele>439.2</ele><time>2026-04-12T06:50:09.64Z</time></trkpt><trkpt lat="43.187614" lon="12.2109818"><ele>441.80000000000007</ele><time>2026-04-12T06:50:10.631Z</time></trkpt><trkpt lat="43.1876111" lon="12.2108464"><ele>444.40000000000003</ele><time>2026-04-12T06:50:11.634Z</time></trkpt><trkpt lat="43.187588" lon="12.2107031"><ele>447.0</ele><time>2026-04-12T06:50:12.643Z</time></trkpt><trkpt lat="43.1875487" lon="12.2105626"><ele>447.40000000000003</ele><time>2026-04-12T06:50:13.633Z</time></trkpt><trkpt lat="43.1875035" lon="12.210435"><ele>447.80000000000007</ele><time>2026-04-12T06:50:14.635Z</time></trkpt><trkpt lat="43.1874719" lon="12.2103018"><ele>448.2</ele><time>2026-04-12T06:50:15.635Z</time></trkpt><trkpt lat="43.18746" lon="12.2101637"><ele>448.6</ele><time>2026-04-12T06:50:16.631Z</time></trkpt><trkpt lat="43.1874694" lon="12.2100291"><ele>449.0</ele><time>2026-04-12T06:50:17.646Z</time></trkpt><trkpt lat="43.1874968" lon="12.2099232"><ele>448.99999999999994</ele><time>2026-04-12T06:50:18.64Z</time></trkpt><trkpt lat="43.1875345" lon="12.2098407"><ele>449.0</ele><time>2026-04-12T06:50:19.646Z</time></trkpt><trkpt lat="43.1875828" lon="12.2097822"><ele>449.0</ele><time>2026-04-12T06:50:20.642Z</time></trkpt><trkpt lat="43.1877063" lon="12.2098139"><ele>449.0</ele><time>2026-04-12T06:50:22.653Z</time></trkpt><trkpt lat="43.1877732" lon="12.2098848"><ele>448.99999999999994</ele><time>2026-04-12T06:50:23.632Z</time></trkpt><trkpt lat="43.187839" lon="12.2099676"><ele>449.0</ele><time>2026-04-12T06:50:24.635Z</time></trkpt><trkpt lat="43.1879049" lon="12.2100421"><ele>448.99999999999994</ele><time>2026-04-12T06:50:25.636Z</time></trkpt><trkpt lat="43.1879698" lon="12.210121"><ele>449.0</ele><time>2026-04-12T06:50:26.635Z</time></trkpt><trkpt lat="43.1880334" lon="12.2102088"><ele>449.0</ele><time>2026-04-12T06:50:27.636Z</time></trkpt><trkpt lat="43.1880908" lon="12.2102935"><ele>449.0</ele><time>2026-04-12T06:50:28.634Z</time></trkpt><trkpt lat="43.1881532" lon="12.2103608"><ele>448.99999999999994</ele><time>2026-04-12T06:50:29.637Z</time></trkpt><trkpt lat="43.1882247" lon="12.2104078"><ele>449.0</ele><time>2026-04-12T06:50:30.642Z</time></trkpt><trkpt lat="43.1883202" lon="12.2104385"><ele>451.0</ele><time>2026-04-12T06:50:31.635Z</time></trkpt><trkpt lat="43.1884399" lon="12.2104582"><ele>453.0</ele><time>2026-04-12T06:50:32.637Z</time></trkpt><trkpt lat="43.1885735" lon="12.2104683"><ele>455.0</ele><time>2026-04-12T06:50:33.636Z</time></trkpt><trkpt lat="43.1887101" lon="12.2104585"><ele>457.0</ele><time>2026-04-12T06:50:34.633Z</time></trkpt><trkpt lat="43.1888366" lon="12.210432"><ele>457.0</ele><time>2026-04-12T06:50:35.631Z</time></trkpt><trkpt lat="43.1889537" lon="12.210384"><ele>457.00000000000006</ele><time>2026-04-12T06:50:36.626Z</time></trkpt><trkpt lat="43.1890585" lon="12.2103215"><ele>457.00000000000006</ele><time>2026-04-12T06:50:37.636Z</time></trkpt><trkpt lat="43.1891473" lon="12.2102539"><ele>457.0</ele><time>2026-04-12T06:50:38.632Z</time></trkpt><trkpt lat="43.1892202" lon="12.2102007"><ele>457.0</ele><time>2026-04-12T06:50:39.63Z</time></trkpt><trkpt lat="43.1892847" lon="12.210176"><ele>457.8</ele><time>2026-04-12T06:50:40.633Z</time></trkpt><trkpt lat="43.1893516" lon="12.2102012"><ele>458.6</ele><time>2026-04-12T06:50:41.625Z</time></trkpt><trkpt lat="43.1894475" lon="12.2102399"><ele>459.40000000000003</ele><time>2026-04-12T06:50:42.63Z</time></trkpt><trkpt lat="43.1895613" lon="12.2103018"><ele>460.20000000000005</ele><time>2026-04-12T06:50:43.619Z</time></trkpt><trkpt lat="43.1896799" lon="12.2103637"><ele>461.0</ele><time>2026-04-12T06:50:44.62Z</time></trkpt><trkpt lat="43.1897801" lon="12.2104035"><ele>460.99999999999994</ele><time>2026-04-12T06:50:45.626Z</time></trkpt><trkpt lat="43.1898482" lon="12.2104049"><ele>461.0</ele><time>2026-04-12T06:50:46.628Z</time></trkpt><trkpt lat="43.1898755" lon="12.2103185"><ele>461.0</ele><time>2026-04-12T06:50:48.625Z</time></trkpt><trkpt lat="43.1898302" lon="12.2101584"><ele>461.0</ele><time>2026-04-12T06:50:50.63Z</time></trkpt><trkpt lat="43.1897925" lon="12.2100627"><ele>460.99999999999994</ele><time>2026-04-12T06:50:51.624Z</time></trkpt><trkpt lat="43.1897505" lon="12.2099263"><ele>461.0</ele><time>2026-04-12T06:50:52.631Z</time></trkpt><trkpt lat="43.1897119" lon="12.2097515"><ele>460.20000000000005</ele><time>2026-04-12T06:50:53.646Z</time></trkpt><trkpt lat="43.189679" lon="12.2095936"><ele>459.40000000000003</ele><time>2026-04-12T06:50:54.637Z</time></trkpt><trkpt lat="43.1896436" lon="12.2094662"><ele>458.6</ele><time>2026-04-12T06:50:55.637Z</time></trkpt><trkpt lat="43.1895911" lon="12.209377"><ele>457.8</ele><time>2026-04-12T06:50:56.635Z</time></trkpt><trkpt lat="43.189535" lon="12.2093114"><ele>457.0</ele><time>2026-04-12T06:50:57.633Z</time></trkpt><trkpt lat="43.1894828" lon="12.2092299"><ele>457.0</ele><time>2026-04-12T06:50:58.634Z</time></trkpt><trkpt lat="43.1894444" lon="12.2091301"><ele>457.00000000000006</ele><time>2026-04-12T06:50:59.64Z</time></trkpt><trkpt lat="43.1894296" lon="12.2090104"><ele>457.00000000000006</ele><time>2026-04-12T06:51:00.63Z</time></trkpt><trkpt lat="43.18943" lon="12.2088773"><ele>457.0</ele><time>2026-04-12T06:51:01.633Z</time></trkpt><trkpt lat="43.1894283" lon="12.2087401"><ele>457.0</ele><time>2026-04-12T06:51:02.632Z</time></trkpt><trkpt lat="43.1894266" lon="12.2085975"><ele>456.5</ele><time>2026-04-12T06:51:03.627Z</time></trkpt><trkpt lat="43.1894251" lon="12.2084351"><ele>456.0</ele><time>2026-04-12T06:51:04.628Z</time></trkpt><trkpt lat="43.1894246" lon="12.2082595"><ele>455.5</ele><time>2026-04-12T06:51:05.627Z</time></trkpt><trkpt lat="43.1894201" lon="12.2080821"><ele>455.0</ele><time>2026-04-12T06:51:06.625Z</time></trkpt><trkpt lat="43.1894148" lon="12.2079223"><ele>455.0</ele><time>2026-04-12T06:51:07.628Z</time></trkpt><trkpt lat="43.1894111" lon="12.2077796"><ele>455.0</ele><time>2026-04-12T06:51:08.632Z</time></trkpt><trkpt lat="43.1894033" lon="12.2076448"><ele>455.0</ele><time>2026-04-12T06:51:09.63Z</time></trkpt><trkpt lat="43.1893925" lon="12.2075046"><ele>455.0</ele><time>2026-04-12T06:51:10.631Z</time></trkpt><trkpt lat="43.1893826" lon="12.207357"><ele>455.0</ele><time>2026-04-12T06:51:11.631Z</time></trkpt><trkpt lat="43.189371" lon="12.2071994"><ele>455.75</ele><time>2026-04-12T06:51:12.639Z</time></trkpt><trkpt lat="43.1893555" lon="12.2070298"><ele>456.5</ele><time>2026-04-12T06:51:13.63Z</time></trkpt><trkpt lat="43.1893336" lon="12.2068627"><ele>457.25</ele><time>2026-04-12T06:51:14.633Z</time></trkpt><trkpt lat="43.1893152" lon="12.2067059"><ele>458.0</ele><time>2026-04-12T06:51:15.63Z</time></trkpt><trkpt lat="43.1892965" lon="12.2065489"><ele>458.0</ele><time>2026-04-12T06:51:16.635Z</time></trkpt><trkpt lat="43.1892775" lon="12.2063914"><ele>457.99999999999994</ele><time>2026-04-12T06:51:17.632Z</time></trkpt><trkpt lat="43.1892574" lon="12.2062369"><ele>457.99999999999994</ele><time>2026-04-12T06:51:18.625Z</time></trkpt><trkpt lat="43.1892388" lon="12.2061026"><ele>458.0</ele><time>2026-04-12T06:51:19.629Z</time></trkpt><trkpt lat="43.1892255" lon="12.2059912"><ele>458.0</ele><time>2026-04-12T06:51:20.634Z</time></trkpt><trkpt lat="43.1892674" lon="12.2058742"><ele>458.0</ele><time>2026-04-12T06:51:22.63Z</time></trkpt><trkpt lat="43.189384" lon="12.2058088"><ele>457.99999999999994</ele><time>2026-04-12T06:51:24.649Z</time></trkpt><trkpt lat="43.1894521" lon="12.2057722"><ele>457.99999999999994</ele><time>2026-04-12T06:51:25.63Z</time></trkpt><trkpt lat="43.1895307" lon="12.2057356"><ele>458.0</ele><time>2026-04-12T06:51:26.631Z</time></trkpt><trkpt lat="43.1896115" lon="12.2056851"><ele>458.0</ele><time>2026-04-12T06:51:27.629Z</time></trkpt><trkpt lat="43.1896929" lon="12.2056209"><ele>456.4</ele><time>2026-04-12T06:51:28.63Z</time></trkpt><trkpt lat="43.1897704" lon="12.2055545"><ele>454.79999999999995</ele><time>2026-04-12T06:51:29.63Z</time></trkpt><trkpt lat="43.1898494" lon="12.205488"><ele>453.2</ele><time>2026-04-12T06:51:30.63Z</time></trkpt><trkpt lat="43.1899327" lon="12.2054205"><ele>451.6</ele><time>2026-04-12T06:51:31.629Z</time></trkpt><trkpt lat="43.190013" lon="12.2053527"><ele>450.0</ele><time>2026-04-12T06:51:32.63Z</time></trkpt><trkpt lat="43.1900926" lon="12.2052779"><ele>453.4</ele><time>2026-04-12T06:51:33.625Z</time></trkpt><trkpt lat="43.190184" lon="12.2052017"><ele>456.8</ele><time>2026-04-12T06:51:34.631Z</time></trkpt><trkpt lat="43.1902803" lon="12.2051279"><ele>460.20000000000005</ele><time>2026-04-12T06:51:35.631Z</time></trkpt><trkpt lat="43.1903765" lon="12.2050556"><ele>463.6</ele><time>2026-04-12T06:51:36.631Z</time></trkpt><trkpt lat="43.1904685" lon="12.2049798"><ele>467.0</ele><time>2026-04-12T06:51:37.633Z</time></trkpt><trkpt lat="43.1905527" lon="12.204902"><ele>468.0</ele><time>2026-04-12T06:51:38.634Z</time></trkpt><trkpt lat="43.1906348" lon="12.2048222"><ele>469.00000000000006</ele><time>2026-04-12T06:51:39.628Z</time></trkpt><trkpt lat="43.1907211" lon="12.2047423"><ele>470.00000000000006</ele><time>2026-04-12T06:51:40.628Z</time></trkpt><trkpt lat="43.1908134" lon="12.2046711"><ele>471.0</ele><time>2026-04-12T06:51:41.63Z</time></trkpt><trkpt lat="43.1909019" lon="12.2046146"><ele>472.0</ele><time>2026-04-12T06:51:42.636Z</time></trkpt><trkpt lat="43.1909946" lon="12.2045756"><ele>472.0</ele><time>2026-04-12T06:51:43.626Z</time></trkpt><trkpt lat="43.1910924" lon="12.2045668"><ele>472.00000000000006</ele><time>2026-04-12T06:51:44.63Z</time></trkpt><trkpt lat="43.1911866" lon="12.2045734"><ele>472.00000000000006</ele><time>2026-04-12T06:51:45.63Z</time></trkpt><trkpt lat="43.191288" lon="12.2045947"><ele>472.0</ele><time>2026-04-12T06:51:46.627Z</time></trkpt><trkpt lat="43.1914092" lon="12.2046248"><ele>472.0</ele><time>2026-04-12T06:51:47.629Z</time></trkpt><trkpt lat="43.191546" lon="12.2046565"><ele>474.5</ele><time>2026-04-12T06:51:48.628Z</time></trkpt><trkpt lat="43.1916849" lon="12.2046861"><ele>477.0</ele><time>2026-04-12T06:51:49.627Z</time></trkpt><trkpt lat="43.1918151" lon="12.2047148"><ele>479.5</ele><time>2026-04-12T06:51:50.622Z</time></trkpt><trkpt lat="43.1919404" lon="12.2047413"><ele>482.0</ele><time>2026-04-12T06:51:51.628Z</time></trkpt><trkpt lat="43.1920376" lon="12.2047562"><ele>482.0</ele><time>2026-04-12T06:51:52.623Z</time></trkpt><trkpt lat="43.1921073" lon="12.204743"><ele>482.00000000000006</ele><time>2026-04-12T06:51:53.634Z</time></trkpt><trkpt lat="43.1921818" lon="12.2045916"><ele>482.00000000000006</ele><time>2026-04-12T06:51:55.639Z</time></trkpt><trkpt lat="43.1922169" lon="12.2044785"><ele>482.0</ele><time>2026-04-12T06:51:56.622Z</time></trkpt><trkpt lat="43.1922597" lon="12.204357"><ele>482.0</ele><time>2026-04-12T06:51:57.629Z</time></trkpt><trkpt lat="43.1923176" lon="12.2042371"><ele>486.0</ele><time>2026-04-12T06:51:58.628Z</time></trkpt><trkpt lat="43.1923848" lon="12.2041225"><ele>490.0</ele><time>2026-04-12T06:51:59.636Z</time></trkpt><trkpt lat="43.1924534" lon="12.204011"><ele>494.0</ele><time>2026-04-12T06:52:00.636Z</time></trkpt><trkpt lat="43.1925904" lon="12.2037983"><ele>498.0</ele><time>2026-04-12T06:52:02.637Z</time></trkpt><trkpt lat="43.1926634" lon="12.2036991"><ele>498.0</ele><time>2026-04-12T06:52:03.635Z</time></trkpt><trkpt lat="43.1927394" lon="12.2035998"><ele>497.99999999999994</ele><time>2026-04-12T06:52:04.636Z</time></trkpt><trkpt lat="43.1928146" lon="12.2035137"><ele>497.99999999999994</ele><time>2026-04-12T06:52:05.632Z</time></trkpt><trkpt lat="43.1928904" lon="12.2034508"><ele>498.0</ele><time>2026-04-12T06:52:06.631Z</time></trkpt><trkpt lat="43.1929732" lon="12.2034189"><ele>498.0</ele><time>2026-04-12T06:52:07.632Z</time></trkpt><trkpt lat="43.1930557" lon="12.2034141"><ele>498.0</ele><time>2026-04-12T06:52:08.631Z</time></trkpt><trkpt lat="43.1931272" lon="12.2034263"><ele>498.0</ele><time>2026-04-12T06:52:09.632Z</time></trkpt><trkpt lat="43.1931851" lon="12.2034629"><ele>498.0</ele><time>2026-04-12T06:52:10.635Z</time></trkpt><trkpt lat="43.193221" lon="12.2035398"><ele>498.0</ele><time>2026-04-12T06:52:11.637Z</time></trkpt><trkpt lat="43.1932389" lon="12.2036543"><ele>498.0</ele><time>2026-04-12T06:52:12.643Z</time></trkpt><trkpt lat="43.1932489" lon="12.203786"><ele>498.0</ele><time>2026-04-12T06:52:13.637Z</time></trkpt><trkpt lat="43.1932544" lon="12.2039308"><ele>501.5</ele><time>2026-04-12T06:52:14.639Z</time></trkpt><trkpt lat="43.1932612" lon="12.2040856"><ele>505.0</ele><time>2026-04-12T06:52:15.635Z</time></trkpt><trkpt lat="43.193275" lon="12.2042513"><ele>508.5</ele><time>2026-04-12T06:52:16.639Z</time></trkpt><trkpt lat="43.1932969" lon="12.2044268"><ele>512.0</ele><time>2026-04-12T06:52:17.641Z</time></trkpt><trkpt lat="43.1933326" lon="12.2046115"><ele>512.0</ele><time>2026-04-12T06:52:18.641Z</time></trkpt><trkpt lat="43.1933735" lon="12.2048046"><ele>512.0</ele><time>2026-04-12T06:52:19.642Z</time></trkpt><trkpt lat="43.1934214" lon="12.2049898"><ele>512.0</ele><time>2026-04-12T06:52:20.649Z</time></trkpt><trkpt lat="43.1934708" lon="12.2051691"><ele>512.0</ele><time>2026-04-12T06:52:21.644Z</time></trkpt><trkpt lat="43.1935315" lon="12.2053458"><ele>512.6666666666666</ele><time>2026-04-12T06:52:22.644Z</time></trkpt><trkpt lat="43.193612" lon="12.2055218"><ele>513.3333333333334</ele><time>2026-04-12T06:52:23.639Z</time></trkpt><trkpt lat="43.1937249" lon="12.2056783"><ele>514.0</ele><time>2026-04-12T06:52:24.644Z</time></trkpt><trkpt lat="43.1939762" lon="12.2058875"><ele>517.5</ele><time>2026-04-12T06:52:26.658Z</time></trkpt><trkpt lat="43.1940869" lon="12.205979"><ele>521.0</ele><time>2026-04-12T06:52:27.643Z</time></trkpt><trkpt lat="43.1941841" lon="12.206081"><ele>524.5</ele><time>2026-04-12T06:52:28.636Z</time></trkpt><trkpt lat="43.1942573" lon="12.2062052"><ele>528.0</ele><time>2026-04-12T06:52:29.633Z</time></trkpt><trkpt lat="43.1943052" lon="12.2063667"><ele>530.0</ele><time>2026-04-12T06:52:30.629Z</time></trkpt><trkpt lat="43.1943333" lon="12.2065357"><ele>532.0</ele><time>2026-04-12T06:52:31.629Z</time></trkpt><trkpt lat="43.1943438" lon="12.2067241"><ele>534.0</ele><time>2026-04-12T06:52:32.633Z</time></trkpt><trkpt lat="43.194352" lon="12.2069358"><ele>536.0</ele><time>2026-04-12T06:52:33.643Z</time></trkpt><trkpt lat="43.194363" lon="12.207153"><ele>538.3333333333333</ele><time>2026-04-12T06:52:34.629Z</time></trkpt><trkpt lat="43.1943639" lon="12.207383"><ele>540.6666666666666</ele><time>2026-04-12T06:52:35.63Z</time></trkpt><trkpt lat="43.1943374" lon="12.2076153"><ele>543.0</ele><time>2026-04-12T06:52:36.633Z</time></trkpt><trkpt lat="43.1943084" lon="12.207842"><ele>543.0</ele><time>2026-04-12T06:52:37.634Z</time></trkpt><trkpt lat="43.1942922" lon="12.2080415"><ele>543.0</ele><time>2026-04-12T06:52:38.627Z</time></trkpt><trkpt lat="43.1942768" lon="12.2082111"><ele>543.0</ele><time>2026-04-12T06:52:39.633Z</time></trkpt><trkpt lat="43.1942777" lon="12.2083677"><ele>543.0</ele><time>2026-04-12T06:52:40.628Z</time></trkpt><trkpt lat="43.1942977" lon="12.2085155"><ele>543.5</ele><time>2026-04-12T06:52:41.633Z</time></trkpt><trkpt lat="43.1943493" lon="12.2086537"><ele>544.0</ele><time>2026-04-12T06:52:42.637Z</time></trkpt><trkpt lat="43.1944262" lon="12.208804"><ele>544.5</ele><time>2026-04-12T06:52:43.63Z</time></trkpt><trkpt lat="43.1945155" lon="12.2089564"><ele>545.0</ele><time>2026-04-12T06:52:44.631Z</time></trkpt><trkpt lat="43.1945994" lon="12.2091174"><ele>545.0</ele><time>2026-04-12T06:52:45.631Z</time></trkpt><trkpt lat="43.1946759" lon="12.2092743"><ele>545.0</ele><time>2026-04-12T06:52:46.629Z</time></trkpt><trkpt lat="43.1947511" lon="12.2094263"><ele>545.0</ele><time>2026-04-12T06:52:47.635Z</time></trkpt><trkpt lat="43.1948164" lon="12.209562"><ele>545.0</ele><time>2026-04-12T06:52:48.631Z</time></trkpt><trkpt lat="43.1948825" lon="12.209687"><ele>547.2</ele><time>2026-04-12T06:52:49.635Z</time></trkpt><trkpt lat="43.1949452" lon="12.2097986"><ele>549.4</ele><time>2026-04-12T06:52:50.635Z</time></trkpt><trkpt lat="43.1950015" lon="12.2099071"><ele>551.6</ele><time>2026-04-12T06:52:51.643Z</time></trkpt><trkpt lat="43.1950612" lon="12.2100185"><ele>553.8</ele><time>2026-04-12T06:52:52.645Z</time></trkpt><trkpt lat="43.195115" lon="12.2101339"><ele>556.0</ele><time>2026-04-12T06:52:53.643Z</time></trkpt><trkpt lat="43.1951591" lon="12.2102491"><ele>556.5</ele><time>2026-04-12T06:52:54.643Z</time></trkpt><trkpt lat="43.1952016" lon="12.2103604"><ele>557.0</ele><time>2026-04-12T06:52:55.644Z</time></trkpt><trkpt lat="43.1952448" lon="12.2104644"><ele>557.5</ele><time>2026-04-12T06:52:56.644Z</time></trkpt><trkpt lat="43.1952894" lon="12.2105654"><ele>558.0</ele><time>2026-04-12T06:52:57.662Z</time></trkpt><trkpt lat="43.1953353" lon="12.2106619"><ele>558.5</ele><time>2026-04-12T06:52:58.645Z</time></trkpt><trkpt lat="43.1953814" lon="12.2107612"><ele>559.0</ele><time>2026-04-12T06:52:59.649Z</time></trkpt><trkpt lat="43.1954295" lon="12.2108587"><ele>559.2</ele><time>2026-04-12T06:53:00.645Z</time></trkpt><trkpt lat="43.1954806" lon="12.2109595"><ele>559.4</ele><time>2026-04-12T06:53:01.648Z</time></trkpt><trkpt lat="43.1955296" lon="12.2110649"><ele>559.6</ele><time>2026-04-12T06:53:02.648Z</time></trkpt><trkpt lat="43.1955775" lon="12.2111805"><ele>559.8</ele><time>2026-04-12T06:53:03.649Z</time></trkpt><trkpt lat="43.1956232" lon="12.211311"><ele>560.0</ele><time>2026-04-12T06:53:04.649Z</time></trkpt><trkpt lat="43.1956663" lon="12.2114547"><ele>562.25</ele><time>2026-04-12T06:53:05.644Z</time></trkpt><trkpt lat="43.1957145" lon="12.2116096"><ele>564.5</ele><time>2026-04-12T06:53:06.646Z</time></trkpt><trkpt lat="43.1957596" lon="12.211777"><ele>566.75</ele><time>2026-04-12T06:53:07.649Z</time></trkpt><trkpt lat="43.195809" lon="12.2119528"><ele>569.0</ele><time>2026-04-12T06:53:08.646Z</time></trkpt><trkpt lat="43.1958618" lon="12.21214"><ele>569.75</ele><time>2026-04-12T06:53:09.647Z</time></trkpt><trkpt lat="43.19591" lon="12.2123393"><ele>570.5</ele><time>2026-04-12T06:53:10.646Z</time></trkpt><trkpt lat="43.1959663" lon="12.2125304"><ele>571.25</ele><time>2026-04-12T06:53:11.646Z</time></trkpt><trkpt lat="43.1960232" lon="12.2127073"><ele>572.0</ele><time>2026-04-12T06:53:12.651Z</time></trkpt><trkpt lat="43.1960764" lon="12.2128506"><ele>572.0</ele><time>2026-04-12T06:53:13.646Z</time></trkpt><trkpt lat="43.1961283" lon="12.2129961"><ele>572.0</ele><time>2026-04-12T06:53:14.648Z</time></trkpt><trkpt lat="43.1961657" lon="12.2131628"><ele>572.0</ele><time>2026-04-12T06:53:15.645Z</time></trkpt><trkpt lat="43.1962051" lon="12.2133275"><ele>572.0</ele><time>2026-04-12T06:53:16.644Z</time></trkpt><trkpt lat="43.1962451" lon="12.2134942"><ele>573.0</ele><time>2026-04-12T06:53:17.645Z</time></trkpt><trkpt lat="43.1962913" lon="12.2136642"><ele>574.0</ele><time>2026-04-12T06:53:18.648Z</time></trkpt><trkpt lat="43.1963465" lon="12.2138388"><ele>575.0</ele><time>2026-04-12T06:53:19.644Z</time></trkpt><trkpt lat="43.1964129" lon="12.214004"><ele>576.0</ele><time>2026-04-12T06:53:20.651Z</time></trkpt><trkpt lat="43.1964918" lon="12.2141408"><ele>576.0</ele><time>2026-04-12T06:53:21.649Z</time></trkpt><trkpt lat="43.1965654" lon="12.2142608"><ele>576.0</ele><time>2026-04-12T06:53:22.642Z</time></trkpt><trkpt lat="43.1966285" lon="12.2143769"><ele>576.0</ele><time>2026-04-12T06:53:23.642Z</time></trkpt><trkpt lat="43.1966747" lon="12.2145051"><ele>576.0</ele><time>2026-04-12T06:53:24.643Z</time></trkpt><trkpt lat="43.1967166" lon="12.214658"><ele>576.0</ele><time>2026-04-12T06:53:25.646Z</time></trkpt><trkpt lat="43.1967482" lon="12.2148384"><ele>577.25</ele><time>2026-04-12T06:53:26.65Z</time></trkpt><trkpt lat="43.1967753" lon="12.2150256"><ele>578.5</ele><time>2026-04-12T06:53:27.649Z</time></trkpt><trkpt lat="43.1967975" lon="12.2151883"><ele>579.75</ele><time>2026-04-12T06:53:28.663Z</time></trkpt><trkpt lat="43.1968162" lon="12.2153393"><ele>581.0</ele><time>2026-04-12T06:53:29.649Z</time></trkpt><trkpt lat="43.1968386" lon="12.2155003"><ele>582.0</ele><time>2026-04-12T06:53:30.653Z</time></trkpt><trkpt lat="43.1968591" lon="12.2156685"><ele>583.0</ele><time>2026-04-12T06:53:31.65Z</time></trkpt><trkpt lat="43.1968714" lon="12.21585"><ele>584.0</ele><time>2026-04-12T06:53:32.649Z</time></trkpt><trkpt lat="43.1968707" lon="12.2160426"><ele>585.0</ele><time>2026-04-12T06:53:33.652Z</time></trkpt><trkpt lat="43.1968602" lon="12.2162309"><ele>585.0</ele><time>2026-04-12T06:53:34.65Z</time></trkpt><trkpt lat="43.1968577" lon="12.2164041"><ele>585.0</ele><time>2026-04-12T06:53:35.643Z</time></trkpt><trkpt lat="43.1968647" lon="12.2165608"><ele>585.0</ele><time>2026-04-12T06:53:36.652Z</time></trkpt><trkpt lat="43.1968934" lon="12.2167046"><ele>585.0</ele><time>2026-04-12T06:53:37.653Z</time></trkpt><trkpt lat="43.1969449" lon="12.2168334"><ele>584.3333333333334</ele><time>2026-04-12T06:53:38.641Z</time></trkpt><trkpt lat="43.197003" lon="12.2169571"><ele>583.6666666666666</ele><time>2026-04-12T06:53:39.644Z</time></trkpt><trkpt lat="43.1970634" lon="12.2170688"><ele>583.0</ele><time>2026-04-12T06:53:40.647Z</time></trkpt><trkpt lat="43.1971205" lon="12.2171597"><ele>582.3333333333333</ele><time>2026-04-12T06:53:41.642Z</time></trkpt><trkpt lat="43.1971644" lon="12.2172317"><ele>581.6666666666666</ele><time>2026-04-12T06:53:42.649Z</time></trkpt><trkpt lat="43.1972044" lon="12.2173061"><ele>581.0</ele><time>2026-04-12T06:53:43.637Z</time></trkpt><trkpt lat="43.1972437" lon="12.217388"><ele>581.0</ele><time>2026-04-12T06:53:44.64Z</time></trkpt><trkpt lat="43.1972753" lon="12.2174764"><ele>581.0</ele><time>2026-04-12T06:53:45.643Z</time></trkpt><trkpt lat="43.1973032" lon="12.2175663"><ele>581.0</ele><time>2026-04-12T06:53:46.641Z</time></trkpt><trkpt lat="43.1973293" lon="12.2176515"><ele>581.0</ele><time>2026-04-12T06:53:47.642Z</time></trkpt><trkpt lat="43.1973751" lon="12.2177737"><ele>581.0</ele><time>2026-04-12T06:53:49.643Z</time></trkpt><trkpt lat="43.1974407" lon="12.2178253"><ele>581.0</ele><time>2026-04-12T06:53:51.657Z</time></trkpt><trkpt lat="43.1975426" lon="12.217757"><ele>582.4285714285714</ele><time>2026-04-12T06:53:53.639Z</time></trkpt><trkpt lat="43.1976068" lon="12.2177193"><ele>583.8571428571429</ele><time>2026-04-12T06:53:54.652Z</time></trkpt><trkpt lat="43.1976775" lon="12.2177062"><ele>585.2857142857142</ele><time>2026-04-12T06:53:55.631Z</time></trkpt><trkpt lat="43.1977491" lon="12.2177136"><ele>586.7142857142858</ele><time>2026-04-12T06:53:56.641Z</time></trkpt><trkpt lat="43.197825" lon="12.2177329"><ele>588.1428571428571</ele><time>2026-04-12T06:53:57.633Z</time></trkpt><trkpt lat="43.1978985" lon="12.2177549"><ele>589.5714285714286</ele><time>2026-04-12T06:53:58.632Z</time></trkpt><trkpt lat="43.1979705" lon="12.2177719"><ele>591.0</ele><time>2026-04-12T06:53:59.649Z</time></trkpt><trkpt lat="43.1980406" lon="12.2177704"><ele>591.0</ele><time>2026-04-12T06:54:00.632Z</time></trkpt><trkpt lat="43.1981072" lon="12.2177485"><ele>591.0</ele><time>2026-04-12T06:54:01.634Z</time></trkpt><trkpt lat="43.1981636" lon="12.2177094"><ele>591.0</ele><time>2026-04-12T06:54:02.636Z</time></trkpt><trkpt lat="43.1982496" lon="12.217561"><ele>591.0</ele><time>2026-04-12T06:54:04.632Z</time></trkpt><trkpt lat="43.1982927" lon="12.2174452"><ele>591.0</ele><time>2026-04-12T06:54:05.627Z</time></trkpt><trkpt lat="43.1983293" lon="12.2173272"><ele>589.1666666666666</ele><time>2026-04-12T06:54:06.626Z</time></trkpt><trkpt lat="43.1983613" lon="12.2172208"><ele>587.3333333333334</ele><time>2026-04-12T06:54:07.626Z</time></trkpt><trkpt lat="43.1983925" lon="12.2171248"><ele>585.5</ele><time>2026-04-12T06:54:08.635Z</time></trkpt><trkpt lat="43.1984275" lon="12.2170239"><ele>583.6666666666667</ele><time>2026-04-12T06:54:09.636Z</time></trkpt><trkpt lat="43.1984715" lon="12.2169372"><ele>581.8333333333334</ele><time>2026-04-12T06:54:10.636Z</time></trkpt><trkpt lat="43.1985222" lon="12.2168597"><ele>580.0</ele><time>2026-04-12T06:54:11.632Z</time></trkpt><trkpt lat="43.198583" lon="12.2167972"><ele>580.0</ele><time>2026-04-12T06:54:12.646Z</time></trkpt><trkpt lat="43.1986723" lon="12.2167708"><ele>580.0</ele><time>2026-04-12T06:54:13.633Z</time></trkpt><trkpt lat="43.1987887" lon="12.2167686"><ele>580.0</ele><time>2026-04-12T06:54:14.636Z</time></trkpt><trkpt lat="43.1989136" lon="12.2167625"><ele>580.0</ele><time>2026-04-12T06:54:15.633Z</time></trkpt><trkpt lat="43.1990346" lon="12.2167498"><ele>581.0</ele><time>2026-04-12T06:54:16.629Z</time></trkpt><trkpt lat="43.1991513" lon="12.2167173"><ele>582.0</ele><time>2026-04-12T06:54:17.632Z</time></trkpt><trkpt lat="43.1992521" lon="12.2166619"><ele>583.0</ele><time>2026-04-12T06:54:18.631Z</time></trkpt><trkpt lat="43.1993448" lon="12.2165916"><ele>584.0</ele><time>2026-04-12T06:54:19.637Z</time></trkpt><trkpt lat="43.1994256" lon="12.2165184"><ele>585.0</ele><time>2026-04-12T06:54:20.636Z</time></trkpt><trkpt lat="43.1995004" lon="12.2164479"><ele>582.1666666666666</ele><time>2026-04-12T06:54:21.635Z</time></trkpt><trkpt lat="43.1995813" lon="12.2163998"><ele>579.3333333333334</ele><time>2026-04-12T06:54:22.649Z</time></trkpt><trkpt lat="43.1996634" lon="12.21637"><ele>576.5</ele><time>2026-04-12T06:54:23.646Z</time></trkpt><trkpt lat="43.1997517" lon="12.2163542"><ele>573.6666666666667</ele><time>2026-04-12T06:54:24.645Z</time></trkpt><trkpt lat="43.1998399" lon="12.2163576"><ele>570.8333333333334</ele><time>2026-04-12T06:54:25.649Z</time></trkpt><trkpt lat="43.1999303" lon="12.2163717"><ele>568.0</ele><time>2026-04-12T06:54:26.642Z</time></trkpt><trkpt lat="43.2000184" lon="12.216386"><ele>567.8</ele><time>2026-04-12T06:54:27.64Z</time></trkpt><trkpt lat="43.2001091" lon="12.2163779"><ele>567.5999999999999</ele><time>2026-04-12T06:54:28.644Z</time></trkpt><trkpt lat="43.2002068" lon="12.2163514"><ele>567.4000000000001</ele><time>2026-04-12T06:54:29.644Z</time></trkpt><trkpt lat="43.2002997" lon="12.2163125"><ele>567.2</ele><time>2026-04-12T06:54:30.658Z</time></trkpt><trkpt lat="43.200383" lon="12.2162563"><ele>567.0</ele><time>2026-04-12T06:54:31.64Z</time></trkpt><trkpt lat="43.2004587" lon="12.2161884"><ele>567.0</ele><time>2026-04-12T06:54:32.642Z</time></trkpt><trkpt lat="43.2005316" lon="12.2161203"><ele>567.0</ele><time>2026-04-12T06:54:33.636Z</time></trkpt><trkpt lat="43.200608" lon="12.2160418"><ele>567.0</ele><time>2026-04-12T06:54:34.635Z</time></trkpt><trkpt lat="43.2006843" lon="12.2159595"><ele>567.0</ele><time>2026-04-12T06:54:35.636Z</time></trkpt><trkpt lat="43.2007483" lon="12.215874"><ele>567.0</ele><time>2026-04-12T06:54:36.629Z</time></trkpt><trkpt lat="43.2008053" lon="12.2157909"><ele>568.1666666666666</ele><time>2026-04-12T06:54:37.64Z</time></trkpt><trkpt lat="43.2008659" lon="12.2157228"><ele>569.3333333333334</ele><time>2026-04-12T06:54:38.633Z</time></trkpt><trkpt lat="43.2009358" lon="12.215656"><ele>570.5</ele><time>2026-04-12T06:54:39.642Z</time></trkpt><trkpt lat="43.2010176" lon="12.2156005"><ele>571.6666666666667</ele><time>2026-04-12T06:54:40.637Z</time></trkpt><trkpt lat="43.201108" lon="12.2155585"><ele>572.8333333333334</ele><time>2026-04-12T06:54:41.637Z</time></trkpt><trkpt lat="43.2012005" lon="12.2155244"><ele>574.0</ele><time>2026-04-12T06:54:42.639Z</time></trkpt><trkpt lat="43.2012864" lon="12.2154917"><ele>571.6666666666667</ele><time>2026-04-12T06:54:43.64Z</time></trkpt><trkpt lat="43.2013666" lon="12.2154618"><ele>569.3333333333334</ele><time>2026-04-12T06:54:44.637Z</time></trkpt><trkpt lat="43.2014449" lon="12.2154377"><ele>567.0</ele><time>2026-04-12T06:54:45.635Z</time></trkpt><trkpt lat="43.2015215" lon="12.2154134"><ele>564.6666666666666</ele><time>2026-04-12T06:54:46.644Z</time></trkpt><trkpt lat="43.2015936" lon="12.2153873"><ele>562.3333333333333</ele><time>2026-04-12T06:54:47.637Z</time></trkpt><trkpt lat="43.2016651" lon="12.2153622"><ele>560.0</ele><time>2026-04-12T06:54:48.638Z</time></trkpt><trkpt lat="43.2017332" lon="12.2153378"><ele>558.7142857142857</ele><time>2026-04-12T06:54:49.646Z</time></trkpt><trkpt lat="43.201794" lon="12.2153028"><ele>557.4285714285714</ele><time>2026-04-12T06:54:50.645Z</time></trkpt><trkpt lat="43.2018502" lon="12.2152495"><ele>556.1428571428571</ele><time>2026-04-12T06:54:51.647Z</time></trkpt><trkpt lat="43.2019063" lon="12.2151925"><ele>554.8571428571429</ele><time>2026-04-12T06:54:52.646Z</time></trkpt><trkpt lat="43.2019636" lon="12.2151362"><ele>553.5714285714286</ele><time>2026-04-12T06:54:53.641Z</time></trkpt><trkpt lat="43.2020271" lon="12.2150923"><ele>552.2857142857142</ele><time>2026-04-12T06:54:54.645Z</time></trkpt><trkpt lat="43.2020959" lon="12.2150685"><ele>551.0</ele><time>2026-04-12T06:54:55.644Z</time></trkpt><trkpt lat="43.2021695" lon="12.2150543"><ele>551.0</ele><time>2026-04-12T06:54:56.646Z</time></trkpt><trkpt lat="43.2022467" lon="12.2150396"><ele>551.0</ele><time>2026-04-12T06:54:57.645Z</time></trkpt><trkpt lat="43.2023332" lon="12.2150159"><ele>551.0</ele><time>2026-04-12T06:54:58.649Z</time></trkpt><trkpt lat="43.2024226" lon="12.2149863"><ele>551.0</ele><time>2026-04-12T06:54:59.642Z</time></trkpt><trkpt lat="43.2025146" lon="12.2149614"><ele>551.0</ele><time>2026-04-12T06:55:00.646Z</time></trkpt><trkpt lat="43.2026055" lon="12.2149445"><ele>551.0</ele><time>2026-04-12T06:55:01.661Z</time></trkpt><trkpt lat="43.2026978" lon="12.214925"><ele>549.5</ele><time>2026-04-12T06:55:02.642Z</time></trkpt><trkpt lat="43.2027879" lon="12.2149023"><ele>548.0</ele><time>2026-04-12T06:55:03.645Z</time></trkpt><trkpt lat="43.2028707" lon="12.2148759"><ele>546.5</ele><time>2026-04-12T06:55:04.644Z</time></trkpt><trkpt lat="43.202949" lon="12.2148599"><ele>545.0</ele><time>2026-04-12T06:55:05.646Z</time></trkpt><trkpt lat="43.2030242" lon="12.2148607"><ele>543.5</ele><time>2026-04-12T06:55:06.64Z</time></trkpt><trkpt lat="43.2030928" lon="12.2148752"><ele>542.0</ele><time>2026-04-12T06:55:07.642Z</time></trkpt><trkpt lat="43.2032096" lon="12.2148735"><ele>536.6</ele><time>2026-04-12T06:55:09.648Z</time></trkpt><trkpt lat="43.203302" lon="12.2148162"><ele>531.2</ele><time>2026-04-12T06:55:11.647Z</time></trkpt><trkpt lat="43.2033648" lon="12.2146604"><ele>525.8</ele><time>2026-04-12T06:55:13.639Z</time></trkpt><trkpt lat="43.2033891" lon="12.2145602"><ele>520.4</ele><time>2026-04-12T06:55:14.645Z</time></trkpt><trkpt lat="43.2034147" lon="12.2144571"><ele>515.0</ele><time>2026-04-12T06:55:15.641Z</time></trkpt><trkpt lat="43.2034381" lon="12.214349"><ele>515.0</ele><time>2026-04-12T06:55:16.644Z</time></trkpt><trkpt lat="43.2034534" lon="12.2142437"><ele>515.0</ele><time>2026-04-12T06:55:17.644Z</time></trkpt><trkpt lat="43.2034654" lon="12.2141478"><ele>515.0</ele><time>2026-04-12T06:55:18.644Z</time></trkpt><trkpt lat="43.2034814" lon="12.2140592"><ele>515.0</ele><time>2026-04-12T06:55:19.643Z</time></trkpt><trkpt lat="43.2035406" lon="12.2139319"><ele>515.0</ele><time>2026-04-12T06:55:21.646Z</time></trkpt><trkpt lat="43.2036588" lon="12.2138948"><ele>515.0</ele><time>2026-04-12T06:55:23.644Z</time></trkpt><trkpt lat="43.2037279" lon="12.2138939"><ele>511.4</ele><time>2026-04-12T06:55:24.646Z</time></trkpt><trkpt lat="43.2037953" lon="12.2138944"><ele>507.8</ele><time>2026-04-12T06:55:25.645Z</time></trkpt><trkpt lat="43.20389" lon="12.2138726"><ele>504.20000000000005</ele><time>2026-04-12T06:55:27.653Z</time></trkpt><trkpt lat="43.2039193" lon="12.2137655"><ele>500.6</ele><time>2026-04-12T06:55:29.66Z</time></trkpt><trkpt lat="43.2038854" lon="12.2136245"><ele>497.0</ele><time>2026-04-12T06:55:31.648Z</time></trkpt><trkpt lat="43.2038389" lon="12.2134883"><ele>497.0</ele><time>2026-04-12T06:55:33.651Z</time></trkpt><trkpt lat="43.2038482" lon="12.213395"><ele>497.00000000000006</ele><time>2026-04-12T06:55:35.66Z</time></trkpt><trkpt lat="43.2039429" lon="12.2133284"><ele>497.00000000000006</ele><time>2026-04-12T06:55:37.667Z</time></trkpt><trkpt lat="43.2040093" lon="12.2132824"><ele>497.0</ele><time>2026-04-12T06:55:38.646Z</time></trkpt><trkpt lat="43.2041172" lon="12.2132287"><ele>497.0</ele><time>2026-04-12T06:55:40.646Z</time></trkpt><trkpt lat="43.2042192" lon="12.2131593"><ele>493.20000000000005</ele><time>2026-04-12T06:55:42.659Z</time></trkpt><trkpt lat="43.2043262" lon="12.2130767"><ele>489.40000000000003</ele><time>2026-04-12T06:55:44.646Z</time></trkpt><trkpt lat="43.204439" lon="12.2130397"><ele>485.59999999999997</ele><time>2026-04-12T06:55:46.646Z</time></trkpt><trkpt lat="43.2045569" lon="12.2129997"><ele>481.79999999999995</ele><time>2026-04-12T06:55:48.648Z</time></trkpt><trkpt lat="43.2046172" lon="12.2129733"><ele>478.0</ele><time>2026-04-12T06:55:49.646Z</time></trkpt><trkpt lat="43.20473" lon="12.2129345"><ele>478.0</ele><time>2026-04-12T06:55:51.649Z</time></trkpt><trkpt lat="43.2048208" lon="12.2128732"><ele>477.99999999999994</ele><time>2026-04-12T06:55:53.646Z</time></trkpt><trkpt lat="43.2049111" lon="12.2128053"><ele>477.99999999999994</ele><time>2026-04-12T06:55:55.648Z</time></trkpt><trkpt lat="43.2050269" lon="12.2127363"><ele>478.0</ele><time>2026-04-12T06:55:57.645Z</time></trkpt><trkpt lat="43.2050896" lon="12.2127009"><ele>478.0</ele><time>2026-04-12T06:55:58.648Z</time></trkpt><trkpt lat="43.2051889" lon="12.2126112"><ele>477.4</ele><time>2026-04-12T06:56:00.651Z</time></trkpt><trkpt lat="43.2052782" lon="12.2124933"><ele>476.79999999999995</ele><time>2026-04-12T06:56:02.647Z</time></trkpt><trkpt lat="43.2053626" lon="12.2123859"><ele>476.2</ele><time>2026-04-12T06:56:04.645Z</time></trkpt><trkpt lat="43.205449" lon="12.2123212"><ele>475.6</ele><time>2026-04-12T06:56:06.65Z</time></trkpt><trkpt lat="43.2055515" lon="12.2122829"><ele>475.0</ele><time>2026-04-12T06:56:08.646Z</time></trkpt><trkpt lat="43.2056524" lon="12.2122029"><ele>471.6</ele><time>2026-04-12T06:56:10.647Z</time></trkpt><trkpt lat="43.2057369" lon="12.2121172"><ele>468.2</ele><time>2026-04-12T06:56:12.654Z</time></trkpt><trkpt lat="43.2058175" lon="12.2120205"><ele>464.79999999999995</ele><time>2026-04-12T06:56:14.649Z</time></trkpt><trkpt lat="43.2059044" lon="12.2119433"><ele>461.4</ele><time>2026-04-12T06:56:16.646Z</time></trkpt><trkpt lat="43.205989" lon="12.2118846"><ele>458.0</ele><time>2026-04-12T06:56:18.647Z</time></trkpt><trkpt lat="43.2060536" lon="12.2118158"><ele>458.0</ele><time>2026-04-12T06:56:20.657Z</time></trkpt><trkpt lat="43.206092" lon="12.2117149"><ele>457.99999999999994</ele><time>2026-04-12T06:56:22.659Z</time></trkpt><trkpt lat="43.2061708" lon="12.2116278"><ele>457.99999999999994</ele><time>2026-04-12T06:56:24.649Z</time></trkpt><trkpt lat="43.2062659" lon="12.2115747"><ele>458.0</ele><time>2026-04-12T06:56:26.644Z</time></trkpt><trkpt lat="43.2063272" lon="12.2115204"><ele>458.0</ele><time>2026-04-12T06:56:28.652Z</time></trkpt><trkpt lat="43.2064389" lon="12.2114629"><ele>454.2</ele><time>2026-04-12T06:56:30.643Z</time></trkpt><trkpt lat="43.2065409" lon="12.2114214"><ele>450.4</ele><time>2026-04-12T06:56:32.644Z</time></trkpt><trkpt lat="43.2066308" lon="12.2113731"><ele>446.59999999999997</ele><time>2026-04-12T06:56:34.679Z</time></trkpt><trkpt lat="43.2066812" lon="12.2112787"><ele>442.79999999999995</ele><time>2026-04-12T06:56:36.661Z</time></trkpt><trkpt lat="43.2067008" lon="12.2111712"><ele>439.0</ele><time>2026-04-12T06:56:38.656Z</time></trkpt><trkpt lat="43.2067314" lon="12.2110147"><ele>439.0</ele><time>2026-04-12T06:56:40.643Z</time></trkpt><trkpt lat="43.2067607" lon="12.2109374"><ele>439.0</ele><time>2026-04-12T06:56:41.646Z</time></trkpt><trkpt lat="43.2068365" lon="12.2108249"><ele>439.0</ele><time>2026-04-12T06:56:43.649Z</time></trkpt><trkpt lat="43.2069128" lon="12.2107043"><ele>439.0</ele><time>2026-04-12T06:56:45.646Z</time></trkpt><trkpt lat="43.2069806" lon="12.2105756"><ele>439.0</ele><time>2026-04-12T06:56:47.647Z</time></trkpt><trkpt lat="43.2070169" lon="12.2104946"><ele>437.50000000000006</ele><time>2026-04-12T06:56:48.644Z</time></trkpt><trkpt lat="43.207057" lon="12.2104084"><ele>436.0</ele><time>2026-04-12T06:56:49.643Z</time></trkpt><trkpt lat="43.2070982" lon="12.2103139"><ele>434.5</ele><time>2026-04-12T06:56:50.648Z</time></trkpt><trkpt lat="43.207135" lon="12.2102138"><ele>433.0</ele><time>2026-04-12T06:56:51.646Z</time></trkpt><trkpt lat="43.2071667" lon="12.210113"><ele>431.50000000000006</ele><time>2026-04-12T06:56:52.641Z</time></trkpt><trkpt lat="43.207204" lon="12.2100179"><ele>430.0</ele><time>2026-04-12T06:56:53.645Z</time></trkpt><trkpt lat="43.2072388" lon="12.2099272"><ele>430.0</ele><time>2026-04-12T06:56:54.652Z</time></trkpt><trkpt lat="43.2072649" lon="12.2098404"><ele>430.0</ele><time>2026-04-12T06:56:55.648Z</time></trkpt><trkpt lat="43.207272" lon="12.209698"><ele>430.0</ele><time>2026-04-12T06:56:57.647Z</time></trkpt><trkpt lat="43.207189" lon="12.2095813"><ele>430.0</ele><time>2026-04-12T06:56:59.646Z</time></trkpt><trkpt lat="43.207147" lon="12.20944"><ele>430.0</ele><time>2026-04-12T06:57:01.637Z</time></trkpt><trkpt lat="43.2071917" lon="12.2092807"><ele>428.50000000000006</ele><time>2026-04-12T06:57:03.641Z</time></trkpt><trkpt lat="43.2072328" lon="12.2091936"><ele>427.0</ele><time>2026-04-12T06:57:04.646Z</time></trkpt><trkpt lat="43.2072882" lon="12.2091103"><ele>425.5</ele><time>2026-04-12T06:57:05.658Z</time></trkpt><trkpt lat="43.2073559" lon="12.2090385"><ele>424.0</ele><time>2026-04-12T06:57:06.636Z</time></trkpt><trkpt lat="43.207438" lon="12.2089788"><ele>422.50000000000006</ele><time>2026-04-12T06:57:07.649Z</time></trkpt><trkpt lat="43.2075265" lon="12.2089236"><ele>421.0</ele><time>2026-04-12T06:57:08.647Z</time></trkpt><trkpt lat="43.207612" lon="12.208868"><ele>418.50000000000006</ele><time>2026-04-12T06:57:09.65Z</time></trkpt><trkpt lat="43.2076906" lon="12.2088018"><ele>416.0</ele><time>2026-04-12T06:57:10.651Z</time></trkpt><trkpt lat="43.2077589" lon="12.2087329"><ele>413.5</ele><time>2026-04-12T06:57:11.646Z</time></trkpt><trkpt lat="43.207812" lon="12.2086618"><ele>411.0</ele><time>2026-04-12T06:57:12.653Z</time></trkpt><trkpt lat="43.207847" lon="12.2085811"><ele>408.50000000000006</ele><time>2026-04-12T06:57:13.647Z</time></trkpt><trkpt lat="43.2078645" lon="12.2084904"><ele>406.0</ele><time>2026-04-12T06:57:14.647Z</time></trkpt><trkpt lat="43.2078662" lon="12.20839"><ele>406.0</ele><time>2026-04-12T06:57:15.651Z</time></trkpt><trkpt lat="43.2078715" lon="12.2082817"><ele>406.0</ele><time>2026-04-12T06:57:16.65Z</time></trkpt><trkpt lat="43.2078789" lon="12.2081768"><ele>406.0</ele><time>2026-04-12T06:57:17.653Z</time></trkpt><trkpt lat="43.2078974" lon="12.208078"><ele>406.0</ele><time>2026-04-12T06:57:18.645Z</time></trkpt><trkpt lat="43.2079331" lon="12.2079885"><ele>406.0</ele><time>2026-04-12T06:57:19.646Z</time></trkpt><trkpt lat="43.2079816" lon="12.2079176"><ele>406.0</ele><time>2026-04-12T06:57:20.649Z</time></trkpt><trkpt lat="43.2080393" lon="12.2078762"><ele>406.0</ele><time>2026-04-12T06:57:21.647Z</time></trkpt><trkpt lat="43.2081026" lon="12.2078778"><ele>405.1666666666667</ele><time>2026-04-12T06:57:22.649Z</time></trkpt><trkpt lat="43.2081679" lon="12.2079148"><ele>404.33333333333337</ele><time>2026-04-12T06:57:23.651Z</time></trkpt><trkpt lat="43.2082355" lon="12.2079424"><ele>403.5</ele><time>2026-04-12T06:57:24.651Z</time></trkpt><trkpt lat="43.2083029" lon="12.2079393"><ele>402.66666666666663</ele><time>2026-04-12T06:57:25.659Z</time></trkpt><trkpt lat="43.2083808" lon="12.2078941"><ele>401.8333333333333</ele><time>2026-04-12T06:57:26.656Z</time></trkpt><trkpt lat="43.2084664" lon="12.2078166"><ele>401.0</ele><time>2026-04-12T06:57:27.65Z</time></trkpt><trkpt lat="43.2085489" lon="12.20773"><ele>401.0</ele><time>2026-04-12T06:57:28.644Z</time></trkpt><trkpt lat="43.208625" lon="12.2076324"><ele>401.0</ele><time>2026-04-12T06:57:29.644Z</time></trkpt><trkpt lat="43.2086903" lon="12.2075268"><ele>401.0</ele><time>2026-04-12T06:57:30.636Z</time></trkpt><trkpt lat="43.2087598" lon="12.2074234"><ele>401.0</ele><time>2026-04-12T06:57:31.64Z</time></trkpt><trkpt lat="43.2088351" lon="12.2073266"><ele>401.0</ele><time>2026-04-12T06:57:32.641Z</time></trkpt><trkpt lat="43.2089207" lon="12.2072318"><ele>397.75</ele><time>2026-04-12T06:57:33.649Z</time></trkpt><trkpt lat="43.2090131" lon="12.2071378"><ele>394.5</ele><time>2026-04-12T06:57:34.632Z</time></trkpt><trkpt lat="43.2091131" lon="12.2070394"><ele>391.25</ele><time>2026-04-12T06:57:35.64Z</time></trkpt><trkpt lat="43.2092128" lon="12.2069432"><ele>388.0</ele><time>2026-04-12T06:57:36.671Z</time></trkpt><trkpt lat="43.2093086" lon="12.2068532"><ele>388.0</ele><time>2026-04-12T06:57:37.648Z</time></trkpt><trkpt lat="43.2094042" lon="12.2067678"><ele>388.0</ele><time>2026-04-12T06:57:38.645Z</time></trkpt><trkpt lat="43.2094949" lon="12.206691"><ele>388.0</ele><time>2026-04-12T06:57:39.635Z</time></trkpt><trkpt lat="43.209583" lon="12.2066203"><ele>388.0</ele><time>2026-04-12T06:57:40.642Z</time></trkpt><trkpt lat="43.209665" lon="12.2065482"><ele>388.0</ele><time>2026-04-12T06:57:41.639Z</time></trkpt><trkpt lat="43.2097422" lon="12.2064694"><ele>387.1666666666667</ele><time>2026-04-12T06:57:42.644Z</time></trkpt><trkpt lat="43.2098181" lon="12.2063892"><ele>386.33333333333337</ele><time>2026-04-12T06:57:43.64Z</time></trkpt><trkpt lat="43.2098878" lon="12.2063114"><ele>385.5</ele><time>2026-04-12T06:57:44.636Z</time></trkpt><trkpt lat="43.2099513" lon="12.2062327"><ele>384.6666666666667</ele><time>2026-04-12T06:57:45.642Z</time></trkpt><trkpt lat="43.210013" lon="12.2061602"><ele>383.83333333333337</ele><time>2026-04-12T06:57:46.645Z</time></trkpt><trkpt lat="43.2100715" lon="12.2060895"><ele>383.0</ele><time>2026-04-12T06:57:47.643Z</time></trkpt><trkpt lat="43.2101267" lon="12.2060146"><ele>383.0</ele><time>2026-04-12T06:57:48.651Z</time></trkpt><trkpt lat="43.210181" lon="12.2059411"><ele>383.0</ele><time>2026-04-12T06:57:49.649Z</time></trkpt><trkpt lat="43.2102321" lon="12.2058631"><ele>383.0</ele><time>2026-04-12T06:57:50.653Z</time></trkpt><trkpt lat="43.2102831" lon="12.2057837"><ele>383.0</ele><time>2026-04-12T06:57:51.647Z</time></trkpt><trkpt lat="43.2103303" lon="12.2057036"><ele>383.0</ele><time>2026-04-12T06:57:52.651Z</time></trkpt><trkpt lat="43.2103791" lon="12.2056239"><ele>383.0</ele><time>2026-04-12T06:57:53.646Z</time></trkpt><trkpt lat="43.2104337" lon="12.2055408"><ele>381.83333333333337</ele><time>2026-04-12T06:57:54.649Z</time></trkpt><trkpt lat="43.210492" lon="12.2054534"><ele>380.6666666666667</ele><time>2026-04-12T06:57:55.653Z</time></trkpt><trkpt lat="43.2105495" lon="12.2053645"><ele>379.5</ele><time>2026-04-12T06:57:56.65Z</time></trkpt><trkpt lat="43.2106081" lon="12.2052832"><ele>378.3333333333333</ele><time>2026-04-12T06:57:57.652Z</time></trkpt><trkpt lat="43.2106752" lon="12.2052058"><ele>377.16666666666663</ele><time>2026-04-12T06:57:58.647Z</time></trkpt><trkpt lat="43.2107544" lon="12.2051318"><ele>376.0</ele><time>2026-04-12T06:57:59.65Z</time></trkpt><trkpt lat="43.2108446" lon="12.2050544"><ele>376.0</ele><time>2026-04-12T06:58:00.651Z</time></trkpt><trkpt lat="43.2109402" lon="12.2049639"><ele>376.0</ele><time>2026-04-12T06:58:01.651Z</time></trkpt><trkpt lat="43.211034" lon="12.204862"><ele>376.0</ele><time>2026-04-12T06:58:02.653Z</time></trkpt><trkpt lat="43.2111208" lon="12.2047477"><ele>376.0</ele><time>2026-04-12T06:58:03.649Z</time></trkpt><trkpt lat="43.2112063" lon="12.2046368"><ele>375.4</ele><time>2026-04-12T06:58:04.65Z</time></trkpt><trkpt lat="43.2112867" lon="12.2045466"><ele>374.8</ele><time>2026-04-12T06:58:05.654Z</time></trkpt><trkpt lat="43.211359" lon="12.2044581"><ele>374.2</ele><time>2026-04-12T06:58:06.665Z</time></trkpt><trkpt lat="43.2114236" lon="12.2043569"><ele>373.59999999999997</ele><time>2026-04-12T06:58:07.651Z</time></trkpt><trkpt lat="43.2114684" lon="12.2042224"><ele>373.0</ele><time>2026-04-12T06:58:08.652Z</time></trkpt><trkpt lat="43.2114925" lon="12.2040727"><ele>372.79999999999995</ele><time>2026-04-12T06:58:09.649Z</time></trkpt><trkpt lat="43.2115001" lon="12.2039219"><ele>372.6</ele><time>2026-04-12T06:58:10.65Z</time></trkpt><trkpt lat="43.2115053" lon="12.2037856"><ele>372.4</ele><time>2026-04-12T06:58:11.652Z</time></trkpt><trkpt lat="43.2115108" lon="12.2036609"><ele>372.20000000000005</ele><time>2026-04-12T06:58:12.65Z</time></trkpt><trkpt lat="43.2115221" lon="12.2035469"><ele>372.0</ele><time>2026-04-12T06:58:13.649Z</time></trkpt><trkpt lat="43.211541" lon="12.2034398"><ele>372.0</ele><time>2026-04-12T06:58:14.648Z</time></trkpt><trkpt lat="43.2115726" lon="12.2033344"><ele>372.0</ele><time>2026-04-12T06:58:15.645Z</time></trkpt><trkpt lat="43.2116124" lon="12.2032268"><ele>372.0</ele><time>2026-04-12T06:58:16.638Z</time></trkpt><trkpt lat="43.2116609" lon="12.2031226"><ele>372.0</ele><time>2026-04-12T06:58:17.645Z</time></trkpt><trkpt lat="43.2117166" lon="12.2030172"><ele>372.0</ele><time>2026-04-12T06:58:18.651Z</time></trkpt><trkpt lat="43.2117745" lon="12.2029073"><ele>369.6</ele><time>2026-04-12T06:58:19.648Z</time></trkpt><trkpt lat="43.2118382" lon="12.2027907"><ele>367.20000000000005</ele><time>2026-04-12T06:58:20.647Z</time></trkpt><trkpt lat="43.2119035" lon="12.2026715"><ele>364.8</ele><time>2026-04-12T06:58:21.65Z</time></trkpt><trkpt lat="43.2119693" lon="12.2025558"><ele>362.4</ele><time>2026-04-12T06:58:22.653Z</time></trkpt><trkpt lat="43.2120342" lon="12.2024442"><ele>360.0</ele><time>2026-04-12T06:58:23.657Z</time></trkpt><trkpt lat="43.2120985" lon="12.2023396"><ele>359.6</ele><time>2026-04-12T06:58:24.658Z</time></trkpt><trkpt lat="43.21216" lon="12.2022371"><ele>359.2</ele><time>2026-04-12T06:58:25.656Z</time></trkpt><trkpt lat="43.2122235" lon="12.2021346"><ele>358.79999999999995</ele><time>2026-04-12T06:58:26.66Z</time></trkpt><trkpt lat="43.2122876" lon="12.2020295"><ele>358.4</ele><time>2026-04-12T06:58:27.66Z</time></trkpt><trkpt lat="43.2123563" lon="12.2019172"><ele>358.0</ele><time>2026-04-12T06:58:28.659Z</time></trkpt><trkpt lat="43.2124258" lon="12.2018048"><ele>358.0</ele><time>2026-04-12T06:58:29.66Z</time></trkpt><trkpt lat="43.2124959" lon="12.201692"><ele>358.0</ele><time>2026-04-12T06:58:30.657Z</time></trkpt><trkpt lat="43.2125657" lon="12.2015798"><ele>358.0</ele><time>2026-04-12T06:58:31.658Z</time></trkpt><trkpt lat="43.2126334" lon="12.2014699"><ele>358.0</ele><time>2026-04-12T06:58:32.653Z</time></trkpt><trkpt lat="43.2127001" lon="12.2013659"><ele>358.0</ele><time>2026-04-12T06:58:33.658Z</time></trkpt><trkpt lat="43.2127611" lon="12.2012702"><ele>356.5</ele><time>2026-04-12T06:58:34.653Z</time></trkpt><trkpt lat="43.2128112" lon="12.2011848"><ele>355.0</ele><time>2026-04-12T06:58:35.656Z</time></trkpt><trkpt lat="43.2128788" lon="12.2010715"><ele>353.5</ele><time>2026-04-12T06:58:37.671Z</time></trkpt><trkpt lat="43.2128118" lon="12.2010244"><ele>352.0</ele><time>2026-04-12T06:58:40.663Z</time></trkpt><trkpt lat="43.2126992" lon="12.2010368"><ele>350.5</ele><time>2026-04-12T06:58:42.675Z</time></trkpt><trkpt lat="43.2126303" lon="12.2010385"><ele>349.0</ele><time>2026-04-12T06:58:43.642Z</time></trkpt><trkpt lat="43.2125613" lon="12.2010241"><ele>349.0</ele><time>2026-04-12T06:58:44.645Z</time></trkpt><trkpt lat="43.2124972" lon="12.2009882"><ele>349.0</ele><time>2026-04-12T06:58:45.639Z</time></trkpt><trkpt lat="43.2124544" lon="12.2009208"><ele>349.0</ele><time>2026-04-12T06:58:46.649Z</time></trkpt><trkpt lat="43.2124333" lon="12.2008211"><ele>349.0</ele><time>2026-04-12T06:58:47.652Z</time></trkpt><trkpt lat="43.2124334" lon="12.2006859"><ele>349.0</ele><time>2026-04-12T06:58:48.65Z</time></trkpt><trkpt lat="43.2124367" lon="12.2005494"><ele>349.0</ele><time>2026-04-12T06:58:49.651Z</time></trkpt><trkpt lat="43.2124376" lon="12.2004165"><ele>347.25</ele><time>2026-04-12T06:58:50.648Z</time></trkpt><trkpt lat="43.2124347" lon="12.2002796"><ele>345.5</ele><time>2026-04-12T06:58:51.644Z</time></trkpt><trkpt lat="43.2124349" lon="12.2001312"><ele>343.75</ele><time>2026-04-12T06:58:52.642Z</time></trkpt><trkpt lat="43.2124405" lon="12.1999673"><ele>342.0</ele><time>2026-04-12T06:58:53.651Z</time></trkpt><trkpt lat="43.2124544" lon="12.1997888"><ele>340.25</ele><time>2026-04-12T06:58:54.657Z</time></trkpt><trkpt lat="43.2124737" lon="12.1995993"><ele>338.5</ele><time>2026-04-12T06:58:55.652Z</time></trkpt><trkpt lat="43.2124927" lon="12.1993945"><ele>336.75</ele><time>2026-04-12T06:58:56.653Z</time></trkpt><trkpt lat="43.2125122" lon="12.1991774"><ele>335.0</ele><time>2026-04-12T06:58:57.654Z</time></trkpt><trkpt lat="43.2125345" lon="12.1989703"><ele>333.75</ele><time>2026-04-12T06:58:58.655Z</time></trkpt><trkpt lat="43.2125524" lon="12.1987726"><ele>332.5</ele><time>2026-04-12T06:58:59.656Z</time></trkpt><trkpt lat="43.2125778" lon="12.1986019"><ele>331.25</ele><time>2026-04-12T06:59:00.657Z</time></trkpt><trkpt lat="43.2126155" lon="12.1984571"><ele>330.0</ele><time>2026-04-12T06:59:01.636Z</time></trkpt><trkpt lat="43.2126691" lon="12.1983155"><ele>328.75</ele><time>2026-04-12T06:59:02.654Z</time></trkpt><trkpt lat="43.2127347" lon="12.1981673"><ele>327.5</ele><time>2026-04-12T06:59:03.655Z</time></trkpt><trkpt lat="43.2128221" lon="12.1980094"><ele>326.25</ele><time>2026-04-12T06:59:04.655Z</time></trkpt><trkpt lat="43.2129138" lon="12.197838"><ele>325.0</ele><time>2026-04-12T06:59:05.647Z</time></trkpt><trkpt lat="43.2130086" lon="12.1976674"><ele>325.0</ele><time>2026-04-12T06:59:06.658Z</time></trkpt><trkpt lat="43.2130946" lon="12.1975094"><ele>325.0</ele><time>2026-04-12T06:59:07.654Z</time></trkpt><trkpt lat="43.2131698" lon="12.1973539"><ele>325.0</ele><time>2026-04-12T06:59:08.671Z</time></trkpt><trkpt lat="43.2132462" lon="12.1971946"><ele>325.0</ele><time>2026-04-12T06:59:09.649Z</time></trkpt><trkpt lat="43.2133257" lon="12.1970439"><ele>324.6</ele><time>2026-04-12T06:59:10.644Z</time></trkpt><trkpt lat="43.213395" lon="12.1969089"><ele>324.2</ele><time>2026-04-12T06:59:11.645Z</time></trkpt><trkpt lat="43.2134633" lon="12.1967749"><ele>323.79999999999995</ele><time>2026-04-12T06:59:12.654Z</time></trkpt><trkpt lat="43.2135192" lon="12.1966597"><ele>323.4</ele><time>2026-04-12T06:59:13.643Z</time></trkpt><trkpt lat="43.2135725" lon="12.1965598"><ele>323.0</ele><time>2026-04-12T06:59:14.645Z</time></trkpt><trkpt lat="43.2136271" lon="12.1964731"><ele>322.5</ele><time>2026-04-12T06:59:15.646Z</time></trkpt><trkpt lat="43.2136714" lon="12.1963974"><ele>322.0</ele><time>2026-04-12T06:59:16.643Z</time></trkpt><trkpt lat="43.213735" lon="12.1962701"><ele>321.5</ele><time>2026-04-12T06:59:18.648Z</time></trkpt><trkpt lat="43.213779" lon="12.1961833"><ele>321.0</ele><time>2026-04-12T06:59:20.663Z</time></trkpt><trkpt lat="43.2138241" lon="12.1961043"><ele>320.5</ele><time>2026-04-12T06:59:24.662Z</time></trkpt><trkpt lat="43.2138945" lon="12.196035"><ele>320.0</ele><time>2026-04-12T06:59:28.666Z</time></trkpt><trkpt lat="43.2139801" lon="12.1959219"><ele>320.0</ele><time>2026-04-12T06:59:30.643Z</time></trkpt><trkpt lat="43.2140287" lon="12.19579"><ele>320.0</ele><time>2026-04-12T06:59:32.658Z</time></trkpt><trkpt lat="43.2139709" lon="12.195673"><ele>320.0</ele><time>2026-04-12T06:59:34.654Z</time></trkpt><trkpt lat="43.2138965" lon="12.1956233"><ele>320.0</ele><time>2026-04-12T06:59:35.651Z</time></trkpt><trkpt lat="43.2138085" lon="12.1955718"><ele>320.0</ele><time>2026-04-12T06:59:36.65Z</time></trkpt><trkpt lat="43.2137177" lon="12.1955147"><ele>319.4</ele><time>2026-04-12T06:59:37.643Z</time></trkpt><trkpt lat="43.2136196" lon="12.1954537"><ele>318.8</ele><time>2026-04-12T06:59:38.64Z</time></trkpt><trkpt lat="43.2135188" lon="12.1953894"><ele>318.2</ele><time>2026-04-12T06:59:39.668Z</time></trkpt><trkpt lat="43.213437" lon="12.1953247"><ele>317.6</ele><time>2026-04-12T06:59:40.651Z</time></trkpt><trkpt lat="43.2133799" lon="12.1952677"><ele>317.0</ele><time>2026-04-12T06:59:41.655Z</time></trkpt><trkpt lat="43.2133741" lon="12.1951039"><ele>317.0</ele><time>2026-04-12T06:59:43.658Z</time></trkpt><trkpt lat="43.2134249" lon="12.1949939"><ele>317.0</ele><time>2026-04-12T06:59:44.651Z</time></trkpt><trkpt lat="43.2134892" lon="12.1948739"><ele>317.0</ele><time>2026-04-12T06:59:45.648Z</time></trkpt><trkpt lat="43.2135606" lon="12.1947385"><ele>317.0</ele><time>2026-04-12T06:59:46.648Z</time></trkpt><trkpt lat="43.213643" lon="12.1945913"><ele>316.25</ele><time>2026-04-12T06:59:47.649Z</time></trkpt><trkpt lat="43.2137229" lon="12.194443"><ele>315.5</ele><time>2026-04-12T06:59:48.645Z</time></trkpt><trkpt lat="43.2137926" lon="12.1943031"><ele>314.75</ele><time>2026-04-12T06:59:49.651Z</time></trkpt><trkpt lat="43.2138478" lon="12.1941667"><ele>314.0</ele><time>2026-04-12T06:59:50.652Z</time></trkpt><trkpt lat="43.2138892" lon="12.1940245"><ele>314.4</ele><time>2026-04-12T06:59:51.655Z</time></trkpt><trkpt lat="43.213919" lon="12.1938758"><ele>314.79999999999995</ele><time>2026-04-12T06:59:52.654Z</time></trkpt><trkpt lat="43.2139365" lon="12.1937368"><ele>315.20000000000005</ele><time>2026-04-12T06:59:53.653Z</time></trkpt><trkpt lat="43.2139354" lon="12.1936128"><ele>315.6</ele><time>2026-04-12T06:59:54.656Z</time></trkpt><trkpt lat="43.2139115" lon="12.1935038"><ele>316.0</ele><time>2026-04-12T06:59:55.649Z</time></trkpt><trkpt lat="43.2138622" lon="12.1934132"><ele>316.0</ele><time>2026-04-12T06:59:56.642Z</time></trkpt><trkpt lat="43.2137815" lon="12.1933229"><ele>316.0</ele><time>2026-04-12T06:59:57.652Z</time></trkpt><trkpt lat="43.2136841" lon="12.1932382"><ele>316.0</ele><time>2026-04-12T06:59:58.649Z</time></trkpt><trkpt lat="43.2135897" lon="12.1931674"><ele>316.0</ele><time>2026-04-12T06:59:59.658Z</time></trkpt><trkpt lat="43.2135178" lon="12.1931136"><ele>316.0</ele><time>2026-04-12T07:00:00.655Z</time></trkpt><trkpt lat="43.2134843" lon="12.1929959"><ele>315.75</ele><time>2026-04-12T07:00:02.648Z</time></trkpt><trkpt lat="43.2135334" lon="12.1928018"><ele>315.5</ele><time>2026-04-12T07:00:04.649Z</time></trkpt><trkpt lat="43.2135657" lon="12.1926367"><ele>315.25</ele><time>2026-04-12T07:00:05.641Z</time></trkpt><trkpt lat="43.2135948" lon="12.1924527"><ele>315.0</ele><time>2026-04-12T07:00:06.649Z</time></trkpt><trkpt lat="43.2136323" lon="12.1922739"><ele>314.5</ele><time>2026-04-12T07:00:07.655Z</time></trkpt><trkpt lat="43.2136938" lon="12.1921234"><ele>314.0</ele><time>2026-04-12T07:00:08.657Z</time></trkpt><trkpt lat="43.2137872" lon="12.1920146"><ele>313.5</ele><time>2026-04-12T07:00:09.644Z</time></trkpt><trkpt lat="43.2139081" lon="12.1919511"><ele>313.0</ele><time>2026-04-12T07:00:10.664Z</time></trkpt><trkpt lat="43.2140543" lon="12.1919238"><ele>312.66666666666663</ele><time>2026-04-12T07:00:11.648Z</time></trkpt><trkpt lat="43.2142282" lon="12.1919247"><ele>312.3333333333333</ele><time>2026-04-12T07:00:12.65Z</time></trkpt><trkpt lat="43.214428" lon="12.1919462"><ele>312.0</ele><time>2026-04-12T07:00:13.647Z</time></trkpt><trkpt lat="43.2146251" lon="12.1919651"><ele>312.0</ele><time>2026-04-12T07:00:14.646Z</time></trkpt><trkpt lat="43.2147966" lon="12.1919694"><ele>312.0</ele><time>2026-04-12T07:00:15.645Z</time></trkpt><trkpt lat="43.2149472" lon="12.1919587"><ele>312.0</ele><time>2026-04-12T07:00:16.646Z</time></trkpt><trkpt lat="43.2150788" lon="12.1919476"><ele>312.0</ele><time>2026-04-12T07:00:17.643Z</time></trkpt><trkpt lat="43.2152087" lon="12.1919431"><ele>312.0</ele><time>2026-04-12T07:00:18.65Z</time></trkpt><trkpt lat="43.2153483" lon="12.1919429"><ele>312.0</ele><time>2026-04-12T07:00:19.651Z</time></trkpt><trkpt lat="43.2154932" lon="12.1919309"><ele>312.0</ele><time>2026-04-12T07:00:20.656Z</time></trkpt><trkpt lat="43.2156292" lon="12.191919"><ele>312.75</ele><time>2026-04-12T07:00:21.656Z</time></trkpt><trkpt lat="43.2157618" lon="12.1918968"><ele>313.5</ele><time>2026-04-12T07:00:22.657Z</time></trkpt><trkpt lat="43.2159094" lon="12.1918805"><ele>314.25</ele><time>2026-04-12T07:00:23.648Z</time></trkpt><trkpt lat="43.2160739" lon="12.1918682"><ele>315.0</ele><time>2026-04-12T07:00:24.651Z</time></trkpt><trkpt lat="43.2162586" lon="12.1918495"><ele>315.0</ele><time>2026-04-12T07:00:25.65Z</time></trkpt><trkpt lat="43.2164614" lon="12.1918336"><ele>315.0</ele><time>2026-04-12T07:00:26.655Z</time></trkpt><trkpt lat="43.2166617" lon="12.1918184"><ele>315.0</ele><time>2026-04-12T07:00:27.657Z</time></trkpt><trkpt lat="43.2168471" lon="12.1917898"><ele>314.3333333333333</ele><time>2026-04-12T07:00:28.657Z</time></trkpt><trkpt lat="43.2170448" lon="12.1917765"><ele>313.66666666666663</ele><time>2026-04-12T07:00:29.654Z</time></trkpt><trkpt lat="43.2172617" lon="12.1917607"><ele>313.0</ele><time>2026-04-12T07:00:30.65Z</time></trkpt><trkpt lat="43.217493" lon="12.1917394"><ele>312.66666666666663</ele><time>2026-04-12T07:00:31.658Z</time></trkpt><trkpt lat="43.2177073" lon="12.191726"><ele>312.3333333333333</ele><time>2026-04-12T07:00:32.652Z</time></trkpt><trkpt lat="43.2178996" lon="12.1917148"><ele>312.0</ele><time>2026-04-12T07:00:33.651Z</time></trkpt><trkpt lat="43.2180818" lon="12.1916995"><ele>312.0</ele><time>2026-04-12T07:00:34.646Z</time></trkpt><trkpt lat="43.2182541" lon="12.1916781"><ele>312.0</ele><time>2026-04-12T07:00:35.65Z</time></trkpt><trkpt lat="43.2184133" lon="12.1916631"><ele>312.0</ele><time>2026-04-12T07:00:36.648Z</time></trkpt><trkpt lat="43.2186992" lon="12.1916053"><ele>312.0</ele><time>2026-04-12T07:00:38.659Z</time></trkpt><trkpt lat="43.2188429" lon="12.1915594"><ele>312.0</ele><time>2026-04-12T07:00:39.65Z</time></trkpt><trkpt lat="43.2189718" lon="12.1914897"><ele>312.0</ele><time>2026-04-12T07:00:40.655Z</time></trkpt><trkpt lat="43.2190687" lon="12.1914183"><ele>312.0</ele><time>2026-04-12T07:00:41.662Z</time></trkpt><trkpt lat="43.2191404" lon="12.1913386"><ele>313.0</ele><time>2026-04-12T07:00:42.657Z</time></trkpt><trkpt lat="43.2191941" lon="12.1912202"><ele>314.0</ele><time>2026-04-12T07:00:43.651Z</time></trkpt><trkpt lat="43.2192568" lon="12.191086"><ele>315.0</ele><time>2026-04-12T07:00:44.647Z</time></trkpt><trkpt lat="43.219316" lon="12.1909457"><ele>316.0</ele><time>2026-04-12T07:00:45.647Z</time></trkpt><trkpt lat="43.2193928" lon="12.1908094"><ele>315.75</ele><time>2026-04-12T07:00:46.648Z</time></trkpt><trkpt lat="43.219478" lon="12.1906722"><ele>315.5</ele><time>2026-04-12T07:00:47.658Z</time></trkpt><trkpt lat="43.2195641" lon="12.1905278"><ele>315.25</ele><time>2026-04-12T07:00:48.653Z</time></trkpt><trkpt lat="43.2196523" lon="12.1903784"><ele>315.0</ele><time>2026-04-12T07:00:49.657Z</time></trkpt><trkpt lat="43.2197475" lon="12.1902369"><ele>315.5</ele><time>2026-04-12T07:00:50.66Z</time></trkpt><trkpt lat="43.2198396" lon="12.1900984"><ele>316.0</ele><time>2026-04-12T07:00:51.654Z</time></trkpt><trkpt lat="43.2199374" lon="12.1899478"><ele>316.5</ele><time>2026-04-12T07:00:52.649Z</time></trkpt><trkpt lat="43.2200477" lon="12.1897889"><ele>317.0</ele><time>2026-04-12T07:00:53.653Z</time></trkpt><trkpt lat="43.2201686" lon="12.1896175"><ele>317.0</ele><time>2026-04-12T07:00:54.655Z</time></trkpt><trkpt lat="43.2202856" lon="12.1894479"><ele>317.0</ele><time>2026-04-12T07:00:55.66Z</time></trkpt><trkpt lat="43.2203933" lon="12.1892878"><ele>317.0</ele><time>2026-04-12T07:00:56.655Z</time></trkpt><trkpt lat="43.2204849" lon="12.189135"><ele>316.75</ele><time>2026-04-12T07:00:57.656Z</time></trkpt><trkpt lat="43.2205639" lon="12.1889978"><ele>316.5</ele><time>2026-04-12T07:00:58.656Z</time></trkpt><trkpt lat="43.2206285" lon="12.1888662"><ele>316.25</ele><time>2026-04-12T07:00:59.648Z</time></trkpt><trkpt lat="43.2206896" lon="12.1887093"><ele>316.0</ele><time>2026-04-12T07:01:00.65Z</time></trkpt><trkpt lat="43.2207357" lon="12.1885072"><ele>316.0</ele><time>2026-04-12T07:01:01.651Z</time></trkpt><trkpt lat="43.220766" lon="12.1882794"><ele>316.0</ele><time>2026-04-12T07:01:02.647Z</time></trkpt><trkpt lat="43.2207942" lon="12.1880526"><ele>316.0</ele><time>2026-04-12T07:01:03.652Z</time></trkpt><trkpt lat="43.220824" lon="12.1878249"><ele>317.3333333333333</ele><time>2026-04-12T07:01:04.647Z</time></trkpt><trkpt lat="43.2208444" lon="12.1875936"><ele>318.6666666666667</ele><time>2026-04-12T07:01:05.638Z</time></trkpt><trkpt lat="43.2208573" lon="12.187382"><ele>320.0</ele><time>2026-04-12T07:01:06.651Z</time></trkpt><trkpt lat="43.2208685" lon="12.1871999"><ele>321.0</ele><time>2026-04-12T07:01:07.647Z</time></trkpt><trkpt lat="43.2208776" lon="12.1870199"><ele>322.0</ele><time>2026-04-12T07:01:08.647Z</time></trkpt><trkpt lat="43.2208856" lon="12.1868596"><ele>323.0</ele><time>2026-04-12T07:01:09.651Z</time></trkpt><trkpt lat="43.2208914" lon="12.1867348"><ele>324.0</ele><time>2026-04-12T07:01:10.652Z</time></trkpt><trkpt lat="43.2208385" lon="12.1865911"><ele>324.0</ele><time>2026-04-12T07:01:12.672Z</time></trkpt><trkpt lat="43.2207895" lon="12.1865195"><ele>324.0</ele><time>2026-04-12T07:01:13.648Z</time></trkpt><trkpt lat="43.2207224" lon="12.1864406"><ele>324.0</ele><time>2026-04-12T07:01:14.657Z</time></trkpt><trkpt lat="43.22063" lon="12.1863556"><ele>324.0</ele><time>2026-04-12T07:01:15.648Z</time></trkpt><trkpt lat="43.2205169" lon="12.1862577"><ele>324.0</ele><time>2026-04-12T07:01:16.647Z</time></trkpt><trkpt lat="43.2203855" lon="12.1861385"><ele>322.6666666666667</ele><time>2026-04-12T07:01:17.648Z</time></trkpt><trkpt lat="43.2202419" lon="12.1860072"><ele>321.33333333333337</ele><time>2026-04-12T07:01:18.64Z</time></trkpt><trkpt lat="43.2201029" lon="12.185889"><ele>320.0</ele><time>2026-04-12T07:01:19.647Z</time></trkpt><trkpt lat="43.2199792" lon="12.1857855"><ele>322.6666666666667</ele><time>2026-04-12T07:01:20.653Z</time></trkpt><trkpt lat="43.21975" lon="12.1855829"><ele>325.3333333333333</ele><time>2026-04-12T07:01:22.665Z</time></trkpt><trkpt lat="43.2196415" lon="12.185468"><ele>328.0</ele><time>2026-04-12T07:01:23.652Z</time></trkpt><trkpt lat="43.2195333" lon="12.1853569"><ele>328.0</ele><time>2026-04-12T07:01:24.654Z</time></trkpt><trkpt lat="43.2194226" lon="12.1852377"><ele>328.0</ele><time>2026-04-12T07:01:25.66Z</time></trkpt><trkpt lat="43.2193121" lon="12.1851263"><ele>328.0</ele><time>2026-04-12T07:01:26.653Z</time></trkpt><trkpt lat="43.2192096" lon="12.1850227"><ele>328.0</ele><time>2026-04-12T07:01:27.652Z</time></trkpt><trkpt lat="43.2191245" lon="12.1849315"><ele>328.0</ele><time>2026-04-12T07:01:28.656Z</time></trkpt><trkpt lat="43.2190429" lon="12.1848484"><ele>328.0</ele><time>2026-04-12T07:01:29.655Z</time></trkpt><trkpt lat="43.2189622" lon="12.1847619"><ele>328.0</ele><time>2026-04-12T07:01:30.65Z</time></trkpt><trkpt lat="43.2188757" lon="12.1846686"><ele>328.0</ele><time>2026-04-12T07:01:31.664Z</time></trkpt><trkpt lat="43.2187808" lon="12.1845613"><ele>328.0</ele><time>2026-04-12T07:01:32.644Z</time></trkpt><trkpt lat="43.2186745" lon="12.1844255"><ele>327.0</ele><time>2026-04-12T07:01:33.641Z</time></trkpt><trkpt lat="43.218566" lon="12.1842834"><ele>326.0</ele><time>2026-04-12T07:01:34.647Z</time></trkpt><trkpt lat="43.2184667" lon="12.1841322"><ele>325.0</ele><time>2026-04-12T07:01:35.65Z</time></trkpt><trkpt lat="43.2183667" lon="12.1839763"><ele>325.0</ele><time>2026-04-12T07:01:36.644Z</time></trkpt><trkpt lat="43.2182695" lon="12.1838081"><ele>325.0</ele><time>2026-04-12T07:01:37.644Z</time></trkpt><trkpt lat="43.2181651" lon="12.183653"><ele>325.0</ele><time>2026-04-12T07:01:38.646Z</time></trkpt><trkpt lat="43.2180682" lon="12.1834939"><ele>324.66666666666663</ele><time>2026-04-12T07:01:39.652Z</time></trkpt><trkpt lat="43.2179763" lon="12.1833271"><ele>324.3333333333333</ele><time>2026-04-12T07:01:40.649Z</time></trkpt><trkpt lat="43.2178766" lon="12.1831375"><ele>324.0</ele><time>2026-04-12T07:01:41.65Z</time></trkpt><trkpt lat="43.2177534" lon="12.182952"><ele>323.6666666666667</ele><time>2026-04-12T07:01:42.667Z</time></trkpt><trkpt lat="43.2176223" lon="12.1827647"><ele>323.33333333333337</ele><time>2026-04-12T07:01:43.671Z</time></trkpt><trkpt lat="43.217492" lon="12.1825705"><ele>323.0</ele><time>2026-04-12T07:01:44.654Z</time></trkpt><trkpt lat="43.2173689" lon="12.1823809"><ele>321.6666666666667</ele><time>2026-04-12T07:01:45.654Z</time></trkpt><trkpt lat="43.2172578" lon="12.182206"><ele>320.3333333333333</ele><time>2026-04-12T07:01:46.656Z</time></trkpt><trkpt lat="43.2171506" lon="12.1820397"><ele>319.0</ele><time>2026-04-12T07:01:47.652Z</time></trkpt><trkpt lat="43.2170437" lon="12.1818741"><ele>319.0</ele><time>2026-04-12T07:01:48.652Z</time></trkpt><trkpt lat="43.2169331" lon="12.1816988"><ele>319.0</ele><time>2026-04-12T07:01:49.645Z</time></trkpt><trkpt lat="43.2168178" lon="12.1815267"><ele>319.0</ele><time>2026-04-12T07:01:50.65Z</time></trkpt><trkpt lat="43.2167123" lon="12.1813728"><ele>318.75</ele><time>2026-04-12T07:01:51.655Z</time></trkpt><trkpt lat="43.2166119" lon="12.1812324"><ele>318.5</ele><time>2026-04-12T07:01:52.651Z</time></trkpt><trkpt lat="43.2165119" lon="12.1811103"><ele>318.25</ele><time>2026-04-12T07:01:53.655Z</time></trkpt><trkpt lat="43.216408" lon="12.1809982"><ele>318.0</ele><time>2026-04-12T07:01:54.651Z</time></trkpt><trkpt lat="43.2162945" lon="12.1809076"><ele>318.0</ele><time>2026-04-12T07:01:55.655Z</time></trkpt><trkpt lat="43.2161877" lon="12.1808249"><ele>318.0</ele><time>2026-04-12T07:01:56.649Z</time></trkpt><trkpt lat="43.2160854" lon="12.1807274"><ele>318.0</ele><time>2026-04-12T07:01:57.644Z</time></trkpt><trkpt lat="43.2159865" lon="12.1806124"><ele>318.0</ele><time>2026-04-12T07:01:58.646Z</time></trkpt><trkpt lat="43.2159054" lon="12.180486"><ele>318.1666666666667</ele><time>2026-04-12T07:01:59.646Z</time></trkpt><trkpt lat="43.2158398" lon="12.1803682"><ele>318.3333333333333</ele><time>2026-04-12T07:02:00.649Z</time></trkpt><trkpt lat="43.2157978" lon="12.1802679"><ele>318.5</ele><time>2026-04-12T07:02:01.649Z</time></trkpt><trkpt lat="43.2157762" lon="12.1801712"><ele>318.66666666666663</ele><time>2026-04-12T07:02:02.65Z</time></trkpt><trkpt lat="43.2157828" lon="12.1800786"><ele>318.8333333333333</ele><time>2026-04-12T07:02:03.645Z</time></trkpt><trkpt lat="43.2158165" lon="12.1799825"><ele>319.0</ele><time>2026-04-12T07:02:04.655Z</time></trkpt><trkpt lat="43.2158761" lon="12.1798764"><ele>319.5</ele><time>2026-04-12T07:02:05.648Z</time></trkpt><trkpt lat="43.2159697" lon="12.1797597"><ele>320.0</ele><time>2026-04-12T07:02:06.65Z</time></trkpt><trkpt lat="43.2160923" lon="12.1796432"><ele>320.5</ele><time>2026-04-12T07:02:07.646Z</time></trkpt><trkpt lat="43.2162329" lon="12.1795316"><ele>321.0</ele><time>2026-04-12T07:02:08.655Z</time></trkpt><trkpt lat="43.2163776" lon="12.179414"><ele>323.6666666666667</ele><time>2026-04-12T07:02:09.645Z</time></trkpt><trkpt lat="43.2165174" lon="12.1792966"><ele>326.33333333333337</ele><time>2026-04-12T07:02:10.648Z</time></trkpt><trkpt lat="43.2166501" lon="12.1791873"><ele>329.0</ele><time>2026-04-12T07:02:11.651Z</time></trkpt><trkpt lat="43.2167763" lon="12.1790838"><ele>329.25</ele><time>2026-04-12T07:02:12.655Z</time></trkpt><trkpt lat="43.2168974" lon="12.1789851"><ele>329.5</ele><time>2026-04-12T07:02:13.648Z</time></trkpt><trkpt lat="43.2170064" lon="12.1788897"><ele>329.75</ele><time>2026-04-12T07:02:14.667Z</time></trkpt><trkpt lat="43.2170931" lon="12.1788143"><ele>330.0</ele><time>2026-04-12T07:02:15.635Z</time></trkpt><trkpt lat="43.2171726" lon="12.1787449"><ele>330.0</ele><time>2026-04-12T07:02:16.651Z</time></trkpt><trkpt lat="43.2172418" lon="12.1786842"><ele>330.0</ele><time>2026-04-12T07:02:17.636Z</time></trkpt><trkpt lat="43.2173023" lon="12.1786168"><ele>330.0</ele><time>2026-04-12T07:02:18.638Z</time></trkpt><trkpt lat="43.2173907" lon="12.1785187"><ele>330.0</ele><time>2026-04-12T07:02:20.638Z</time></trkpt><trkpt lat="43.217485" lon="12.1784472"><ele>330.0</ele><time>2026-04-12T07:02:22.644Z</time></trkpt><trkpt lat="43.2175793" lon="12.1784225"><ele>331.0</ele><time>2026-04-12T07:02:24.644Z</time></trkpt><trkpt lat="43.2176713" lon="12.1784365"><ele>332.0</ele><time>2026-04-12T07:02:26.651Z</time></trkpt><trkpt lat="43.217776" lon="12.178428"><ele>333.0</ele><time>2026-04-12T07:02:28.658Z</time></trkpt><trkpt lat="43.2178371" lon="12.1784039"><ele>334.0</ele><time>2026-04-12T07:02:29.652Z</time></trkpt><trkpt lat="43.2179081" lon="12.1783694"><ele>335.0</ele><time>2026-04-12T07:02:30.64Z</time></trkpt><trkpt lat="43.2179828" lon="12.1783261"><ele>336.0</ele><time>2026-04-12T07:02:31.654Z</time></trkpt><trkpt lat="43.2180641" lon="12.1782739"><ele>336.4</ele><time>2026-04-12T07:02:32.642Z</time></trkpt><trkpt lat="43.2181556" lon="12.1782094"><ele>336.8</ele><time>2026-04-12T07:02:33.643Z</time></trkpt><trkpt lat="43.2182497" lon="12.1781422"><ele>337.2</ele><time>2026-04-12T07:02:34.64Z</time></trkpt><trkpt lat="43.2183435" lon="12.1780811"><ele>337.59999999999997</ele><time>2026-04-12T07:02:35.645Z</time></trkpt><trkpt lat="43.2184363" lon="12.1780127"><ele>338.0</ele><time>2026-04-12T07:02:36.636Z</time></trkpt><trkpt lat="43.2185196" lon="12.1779302"><ele>338.4</ele><time>2026-04-12T07:02:37.643Z</time></trkpt><trkpt lat="43.2185958" lon="12.1778416"><ele>338.79999999999995</ele><time>2026-04-12T07:02:38.639Z</time></trkpt><trkpt lat="43.2186697" lon="12.1777502"><ele>339.2</ele><time>2026-04-12T07:02:39.646Z</time></trkpt><trkpt lat="43.2187576" lon="12.1776656"><ele>339.6</ele><time>2026-04-12T07:02:40.639Z</time></trkpt><trkpt lat="43.218857" lon="12.1775806"><ele>340.0</ele><time>2026-04-12T07:02:41.635Z</time></trkpt><trkpt lat="43.2189659" lon="12.1774799"><ele>341.75</ele><time>2026-04-12T07:02:42.658Z</time></trkpt><trkpt lat="43.2190747" lon="12.1773692"><ele>343.5</ele><time>2026-04-12T07:02:43.649Z</time></trkpt><trkpt lat="43.2191844" lon="12.1772522"><ele>345.25</ele><time>2026-04-12T07:02:44.646Z</time></trkpt><trkpt lat="43.2192884" lon="12.1771473"><ele>347.0</ele><time>2026-04-12T07:02:45.663Z</time></trkpt><trkpt lat="43.2193901" lon="12.1770628"><ele>348.0</ele><time>2026-04-12T07:02:46.643Z</time></trkpt><trkpt lat="43.2195002" lon="12.1769971"><ele>349.0</ele><time>2026-04-12T07:02:47.652Z</time></trkpt><trkpt lat="43.2196176" lon="12.1769439"><ele>350.0</ele><time>2026-04-12T07:02:48.657Z</time></trkpt><trkpt lat="43.2197382" lon="12.1768936"><ele>351.0</ele><time>2026-04-12T07:02:49.651Z</time></trkpt><trkpt lat="43.2198536" lon="12.176843"><ele>353.5</ele><time>2026-04-12T07:02:50.661Z</time></trkpt><trkpt lat="43.2199656" lon="12.1767943"><ele>356.0</ele><time>2026-04-12T07:02:51.651Z</time></trkpt><trkpt lat="43.2200815" lon="12.1767434"><ele>358.5</ele><time>2026-04-12T07:02:52.652Z</time></trkpt><trkpt lat="43.2202007" lon="12.176693"><ele>361.0</ele><time>2026-04-12T07:02:53.655Z</time></trkpt><trkpt lat="43.2203185" lon="12.1766401"><ele>361.0</ele><time>2026-04-12T07:02:54.65Z</time></trkpt><trkpt lat="43.2204363" lon="12.1765828"><ele>361.0</ele><time>2026-04-12T07:02:55.651Z</time></trkpt><trkpt lat="43.2205477" lon="12.1765274"><ele>361.0</ele><time>2026-04-12T07:02:56.65Z</time></trkpt><trkpt lat="43.2206315" lon="12.1764752"><ele>361.0</ele><time>2026-04-12T07:02:57.655Z</time></trkpt><trkpt lat="43.2207084" lon="12.1763494"><ele>364.20000000000005</ele><time>2026-04-12T07:02:59.652Z</time></trkpt><trkpt lat="43.2207483" lon="12.1762816"><ele>367.40000000000003</ele><time>2026-04-12T07:03:00.64Z</time></trkpt><trkpt lat="43.2207961" lon="12.1762163"><ele>370.6</ele><time>2026-04-12T07:03:01.64Z</time></trkpt><trkpt lat="43.2209296" lon="12.1762059"><ele>373.8</ele><time>2026-04-12T07:03:03.636Z</time></trkpt><trkpt lat="43.2210117" lon="12.1762435"><ele>377.0</ele><time>2026-04-12T07:03:04.636Z</time></trkpt><trkpt lat="43.2211049" lon="12.1762885"><ele>377.0</ele><time>2026-04-12T07:03:05.64Z</time></trkpt><trkpt lat="43.2212061" lon="12.1763381"><ele>377.0</ele><time>2026-04-12T07:03:06.642Z</time></trkpt><trkpt lat="43.2213082" lon="12.1763884"><ele>377.0</ele><time>2026-04-12T07:03:07.65Z</time></trkpt><trkpt lat="43.2214108" lon="12.176437"><ele>377.0</ele><time>2026-04-12T07:03:08.644Z</time></trkpt><trkpt lat="43.2215216" lon="12.1764872"><ele>377.0</ele><time>2026-04-12T07:03:09.645Z</time></trkpt><trkpt lat="43.221631" lon="12.1765239"><ele>379.0</ele><time>2026-04-12T07:03:10.646Z</time></trkpt><trkpt lat="43.2217259" lon="12.1765448"><ele>381.0</ele><time>2026-04-12T07:03:11.646Z</time></trkpt><trkpt lat="43.2218132" lon="12.1765645"><ele>383.0</ele><time>2026-04-12T07:03:12.651Z</time></trkpt><trkpt lat="43.2219103" lon="12.1765752"><ele>385.0</ele><time>2026-04-12T07:03:13.65Z</time></trkpt><trkpt lat="43.2220051" lon="12.1765662"><ele>387.0</ele><time>2026-04-12T07:03:14.653Z</time></trkpt><trkpt lat="43.2220897" lon="12.1765399"><ele>386.8333333333333</ele><time>2026-04-12T07:03:15.654Z</time></trkpt><trkpt lat="43.2221456" lon="12.1764812"><ele>386.66666666666663</ele><time>2026-04-12T07:03:16.666Z</time></trkpt><trkpt lat="43.2221828" lon="12.1763844"><ele>386.5</ele><time>2026-04-12T07:03:17.648Z</time></trkpt><trkpt lat="43.2222253" lon="12.1762632"><ele>386.3333333333333</ele><time>2026-04-12T07:03:18.653Z</time></trkpt><trkpt lat="43.2222744" lon="12.176153"><ele>386.16666666666663</ele><time>2026-04-12T07:03:19.638Z</time></trkpt><trkpt lat="43.2223286" lon="12.1760519"><ele>386.0</ele><time>2026-04-12T07:03:20.65Z</time></trkpt><trkpt lat="43.2223836" lon="12.1759545"><ele>388.6</ele><time>2026-04-12T07:03:21.649Z</time></trkpt><trkpt lat="43.2224387" lon="12.1758538"><ele>391.20000000000005</ele><time>2026-04-12T07:03:22.65Z</time></trkpt><trkpt lat="43.222499" lon="12.1757667"><ele>393.79999999999995</ele><time>2026-04-12T07:03:23.643Z</time></trkpt><trkpt lat="43.2225721" lon="12.1756961"><ele>396.4</ele><time>2026-04-12T07:03:24.647Z</time></trkpt><trkpt lat="43.2226547" lon="12.1756445"><ele>399.0</ele><time>2026-04-12T07:03:25.64Z</time></trkpt><trkpt lat="43.2227464" lon="12.1756111"><ele>400.3333333333333</ele><time>2026-04-12T07:03:26.644Z</time></trkpt><trkpt lat="43.2228309" lon="12.1755781"><ele>401.66666666666663</ele><time>2026-04-12T07:03:27.651Z</time></trkpt><trkpt lat="43.2229079" lon="12.1755222"><ele>403.0</ele><time>2026-04-12T07:03:28.65Z</time></trkpt><trkpt lat="43.2229696" lon="12.1754518"><ele>404.3333333333333</ele><time>2026-04-12T07:03:29.641Z</time></trkpt><trkpt lat="43.2230231" lon="12.1753878"><ele>405.66666666666663</ele><time>2026-04-12T07:03:30.642Z</time></trkpt><trkpt lat="43.2230772" lon="12.1753396"><ele>407.0</ele><time>2026-04-12T07:03:31.64Z</time></trkpt><trkpt lat="43.2231887" lon="12.1752948"><ele>406.99999999999994</ele><time>2026-04-12T07:03:33.638Z</time></trkpt><trkpt lat="43.2232533" lon="12.1752737"><ele>407.0</ele><time>2026-04-12T07:03:34.647Z</time></trkpt><trkpt lat="43.2233478" lon="12.1751794"><ele>407.0</ele><time>2026-04-12T07:03:36.636Z</time></trkpt><trkpt lat="43.2233401" lon="12.1750414"><ele>407.0</ele><time>2026-04-12T07:03:38.637Z</time></trkpt><trkpt lat="43.2232848" lon="12.174979"><ele>406.99999999999994</ele><time>2026-04-12T07:03:39.635Z</time></trkpt><trkpt lat="43.2232105" lon="12.1749344"><ele>407.0</ele><time>2026-04-12T07:03:40.638Z</time></trkpt><trkpt lat="43.22312" lon="12.1749066"><ele>407.0</ele><time>2026-04-12T07:03:41.638Z</time></trkpt><trkpt lat="43.2230152" lon="12.1748846"><ele>407.0</ele><time>2026-04-12T07:03:42.632Z</time></trkpt><trkpt lat="43.2228941" lon="12.1748613"><ele>407.0</ele><time>2026-04-12T07:03:43.634Z</time></trkpt><trkpt lat="43.222765" lon="12.1748336"><ele>407.0</ele><time>2026-04-12T07:03:44.63Z</time></trkpt><trkpt lat="43.2226344" lon="12.1748208"><ele>407.0</ele><time>2026-04-12T07:03:45.642Z</time></trkpt><trkpt lat="43.2225059" lon="12.1748338"><ele>407.0</ele><time>2026-04-12T07:03:46.636Z</time></trkpt><trkpt lat="43.2223806" lon="12.1748569"><ele>407.0</ele><time>2026-04-12T07:03:47.653Z</time></trkpt><trkpt lat="43.2222742" lon="12.174868"><ele>407.0</ele><time>2026-04-12T07:03:48.642Z</time></trkpt><trkpt lat="43.2221748" lon="12.1748579"><ele>406.40000000000003</ele><time>2026-04-12T07:03:49.651Z</time></trkpt><trkpt lat="43.2220866" lon="12.1748257"><ele>405.8</ele><time>2026-04-12T07:03:50.646Z</time></trkpt><trkpt lat="43.2220111" lon="12.1747669"><ele>405.2</ele><time>2026-04-12T07:03:51.641Z</time></trkpt><trkpt lat="43.2219389" lon="12.1746723"><ele>404.6</ele><time>2026-04-12T07:03:52.635Z</time></trkpt><trkpt lat="43.2218703" lon="12.1745492"><ele>404.0</ele><time>2026-04-12T07:03:53.652Z</time></trkpt><trkpt lat="43.2218214" lon="12.1744054"><ele>404.0</ele><time>2026-04-12T07:03:54.633Z</time></trkpt><trkpt lat="43.2217895" lon="12.1742586"><ele>404.0</ele><time>2026-04-12T07:03:55.637Z</time></trkpt><trkpt lat="43.2217877" lon="12.1740958"><ele>404.0</ele><time>2026-04-12T07:03:56.638Z</time></trkpt><trkpt lat="43.2217893" lon="12.1739325"><ele>404.0</ele><time>2026-04-12T07:03:57.641Z</time></trkpt><trkpt lat="43.2217922" lon="12.173768"><ele>405.0</ele><time>2026-04-12T07:03:58.632Z</time></trkpt><trkpt lat="43.221796" lon="12.1736171"><ele>406.0</ele><time>2026-04-12T07:03:59.651Z</time></trkpt><trkpt lat="43.2218044" lon="12.1734995"><ele>407.0</ele><time>2026-04-12T07:04:00.639Z</time></trkpt><trkpt lat="43.2218233" lon="12.1733996"><ele>408.0</ele><time>2026-04-12T07:04:01.638Z</time></trkpt><trkpt lat="43.2218447" lon="12.1733139"><ele>409.0</ele><time>2026-04-12T07:04:02.644Z</time></trkpt><trkpt lat="43.2219416" lon="12.1731975"><ele>408.1666666666667</ele><time>2026-04-12T07:04:04.647Z</time></trkpt><trkpt lat="43.2220151" lon="12.1731807"><ele>407.33333333333337</ele><time>2026-04-12T07:04:05.644Z</time></trkpt><trkpt lat="43.2220893" lon="12.1731641"><ele>406.5</ele><time>2026-04-12T07:04:06.642Z</time></trkpt><trkpt lat="43.2221577" lon="12.1731459"><ele>405.66666666666663</ele><time>2026-04-12T07:04:07.649Z</time></trkpt><trkpt lat="43.2222627" lon="12.1730692"><ele>404.8333333333333</ele><time>2026-04-12T07:04:09.644Z</time></trkpt><trkpt lat="43.2223017" lon="12.1729731"><ele>404.0</ele><time>2026-04-12T07:04:10.636Z</time></trkpt><trkpt lat="43.2223273" lon="12.1728494"><ele>406.99999999999994</ele><time>2026-04-12T07:04:11.652Z</time></trkpt><trkpt lat="43.2223459" lon="12.1727253"><ele>410.0</ele><time>2026-04-12T07:04:12.639Z</time></trkpt><trkpt lat="43.2223657" lon="12.1726073"><ele>413.0</ele><time>2026-04-12T07:04:13.64Z</time></trkpt><trkpt lat="43.2223808" lon="12.1724961"><ele>416.0</ele><time>2026-04-12T07:04:14.645Z</time></trkpt><trkpt lat="43.2223948" lon="12.1724024"><ele>418.99999999999994</ele><time>2026-04-12T07:04:15.638Z</time></trkpt><trkpt lat="43.2224073" lon="12.1723018"><ele>422.0</ele><time>2026-04-12T07:04:20.652Z</time></trkpt><trkpt lat="43.2224636" lon="12.1722338"><ele>422.0</ele><time>2026-04-12T07:04:22.651Z</time></trkpt><trkpt lat="43.2225372" lon="12.1721797"><ele>422.0</ele><time>2026-04-12T07:04:24.646Z</time></trkpt><trkpt lat="43.2225987" lon="12.1721552"><ele>422.0</ele><time>2026-04-12T07:04:25.646Z</time></trkpt><trkpt lat="43.2227204" lon="12.1721324"><ele>422.0</ele><time>2026-04-12T07:04:27.64Z</time></trkpt><trkpt lat="43.2228299" lon="12.1721198"><ele>422.0</ele><time>2026-04-12T07:04:29.634Z</time></trkpt><trkpt lat="43.222889" lon="12.1720519"><ele>422.0</ele><time>2026-04-12T07:04:31.652Z</time></trkpt><trkpt lat="43.2229213" lon="12.1719303"><ele>422.0</ele><time>2026-04-12T07:04:33.651Z</time></trkpt><trkpt lat="43.2229666" lon="12.1717951"><ele>422.0</ele><time>2026-04-12T07:04:35.656Z</time></trkpt><trkpt lat="43.22304" lon="12.1716779"><ele>422.0</ele><time>2026-04-12T07:04:37.644Z</time></trkpt><trkpt lat="43.2230882" lon="12.1716183"><ele>422.0</ele><time>2026-04-12T07:04:38.647Z</time></trkpt><trkpt lat="43.2231423" lon="12.171558"><ele>428.20000000000005</ele><time>2026-04-12T07:04:39.65Z</time></trkpt><trkpt lat="43.2231967" lon="12.1714454"><ele>434.4</ele><time>2026-04-12T07:04:41.648Z</time></trkpt><trkpt lat="43.2232036" lon="12.1713074"><ele>440.59999999999997</ele><time>2026-04-12T07:04:43.641Z</time></trkpt><trkpt lat="43.2232213" lon="12.1711563"><ele>446.79999999999995</ele><time>2026-04-12T07:04:45.635Z</time></trkpt><trkpt lat="43.2232419" lon="12.1709923"><ele>453.0</ele><time>2026-04-12T07:04:47.638Z</time></trkpt><trkpt lat="43.2232149" lon="12.1708228"><ele>453.8333333333333</ele><time>2026-04-12T07:04:49.649Z</time></trkpt><trkpt lat="43.2231807" lon="12.1706755"><ele>454.66666666666663</ele><time>2026-04-12T07:04:51.632Z</time></trkpt><trkpt lat="43.2231433" lon="12.1705274"><ele>455.5</ele><time>2026-04-12T07:04:53.637Z</time></trkpt><trkpt lat="43.2231096" lon="12.17044"><ele>456.3333333333333</ele><time>2026-04-12T07:04:54.628Z</time></trkpt><trkpt lat="43.2230707" lon="12.1703548"><ele>457.16666666666663</ele><time>2026-04-12T07:04:55.624Z</time></trkpt><trkpt lat="43.2230381" lon="12.1702754"><ele>458.0</ele><time>2026-04-12T07:04:56.63Z</time></trkpt><trkpt lat="43.2229983" lon="12.1701371"><ele>459.2</ele><time>2026-04-12T07:04:58.633Z</time></trkpt><trkpt lat="43.2229747" lon="12.170008"><ele>460.4</ele><time>2026-04-12T07:05:00.631Z</time></trkpt><trkpt lat="43.2230031" lon="12.1698774"><ele>461.59999999999997</ele><time>2026-04-12T07:05:02.643Z</time></trkpt><trkpt lat="43.223079" lon="12.1697689"><ele>462.79999999999995</ele><time>2026-04-12T07:05:04.644Z</time></trkpt><trkpt lat="43.2231515" lon="12.169671"><ele>464.0</ele><time>2026-04-12T07:05:06.643Z</time></trkpt><trkpt lat="43.2231844" lon="12.1695887"><ele>464.0</ele><time>2026-04-12T07:05:08.642Z</time></trkpt><trkpt lat="43.2232588" lon="12.1693471"><ele>464.0</ele><time>2026-04-12T07:05:12.643Z</time></trkpt><trkpt lat="43.22336" lon="12.1692495"><ele>464.0</ele><time>2026-04-12T07:05:15.644Z</time></trkpt><trkpt lat="43.2234258" lon="12.169239"><ele>464.0</ele><time>2026-04-12T07:05:16.645Z</time></trkpt><trkpt lat="43.2235298" lon="12.1692542"><ele>464.0</ele><time>2026-04-12T07:05:18.645Z</time></trkpt><trkpt lat="43.2235968" lon="12.1692507"><ele>464.0</ele><time>2026-04-12T07:05:19.636Z</time></trkpt><trkpt lat="43.2236434" lon="12.1691537"><ele>464.0</ele><time>2026-04-12T07:05:22.642Z</time></trkpt><trkpt lat="43.2236798" lon="12.1689245"><ele>464.0</ele><time>2026-04-12T07:05:25.633Z</time></trkpt><trkpt lat="43.2236992" lon="12.1688281"><ele>464.0</ele><time>2026-04-12T07:05:26.628Z</time></trkpt><trkpt lat="43.2237462" lon="12.168694"><ele>465.6</ele><time>2026-04-12T07:05:28.63Z</time></trkpt><trkpt lat="43.2238109" lon="12.1685853"><ele>467.2</ele><time>2026-04-12T07:05:30.641Z</time></trkpt><trkpt lat="43.2239012" lon="12.1685262"><ele>468.80000000000007</ele><time>2026-04-12T07:05:32.634Z</time></trkpt><trkpt lat="43.2240235" lon="12.1685976"><ele>470.40000000000003</ele><time>2026-04-12T07:05:34.626Z</time></trkpt><trkpt lat="43.2240846" lon="12.1686411"><ele>472.0</ele><time>2026-04-12T07:05:35.631Z</time></trkpt><trkpt lat="43.2241441" lon="12.1686762"><ele>474.6666666666667</ele><time>2026-04-12T07:05:36.628Z</time></trkpt><trkpt lat="43.2242042" lon="12.168703"><ele>477.33333333333337</ele><time>2026-04-12T07:05:37.635Z</time></trkpt><trkpt lat="43.2243271" lon="12.1687494"><ele>480.0</ele><time>2026-04-12T07:05:39.629Z</time></trkpt><trkpt lat="43.2243965" lon="12.168779"><ele>482.66666666666663</ele><time>2026-04-12T07:05:40.633Z</time></trkpt><trkpt lat="43.2244588" lon="12.1688036"><ele>485.3333333333333</ele><time>2026-04-12T07:05:41.633Z</time></trkpt><trkpt lat="43.2245389" lon="12.1687495"><ele>488.0</ele><time>2026-04-12T07:05:43.627Z</time></trkpt><trkpt lat="43.2245869" lon="12.1686686"><ele>487.99999999999994</ele><time>2026-04-12T07:05:45.639Z</time></trkpt><trkpt lat="43.2246544" lon="12.1686875"><ele>488.0</ele><time>2026-04-12T07:05:47.64Z</time></trkpt><trkpt lat="43.2247097" lon="12.168787"><ele>488.0</ele><time>2026-04-12T07:05:49.646Z</time></trkpt><trkpt lat="43.2247768" lon="12.1689188"><ele>488.0</ele><time>2026-04-12T07:05:51.659Z</time></trkpt><trkpt lat="43.2248157" lon="12.1689898"><ele>487.99999999999994</ele><time>2026-04-12T07:05:52.622Z</time></trkpt><trkpt lat="43.2248744" lon="12.1691122"><ele>488.0</ele><time>2026-04-12T07:05:54.642Z</time></trkpt><trkpt lat="43.224945" lon="12.1691665"><ele>491.8333333333333</ele><time>2026-04-12T07:05:56.643Z</time></trkpt><trkpt lat="43.2250317" lon="12.1692005"><ele>495.66666666666663</ele><time>2026-04-12T07:05:58.639Z</time></trkpt><trkpt lat="43.225112" lon="12.1692723"><ele>499.5</ele><time>2026-04-12T07:06:00.638Z</time></trkpt><trkpt lat="43.225159" lon="12.169337"><ele>503.33333333333337</ele><time>2026-04-12T07:06:01.626Z</time></trkpt><trkpt lat="43.2252188" lon="12.169453"><ele>507.1666666666667</ele><time>2026-04-12T07:06:03.628Z</time></trkpt><trkpt lat="43.2252166" lon="12.1695647"><ele>511.0</ele><time>2026-04-12T07:06:05.645Z</time></trkpt><trkpt lat="43.2251629" lon="12.1696808"><ele>511.0</ele><time>2026-04-12T07:06:07.646Z</time></trkpt><trkpt lat="43.2251052" lon="12.1697939"><ele>511.0</ele><time>2026-04-12T07:06:09.647Z</time></trkpt><trkpt lat="43.2250732" lon="12.1699359"><ele>511.0</ele><time>2026-04-12T07:06:12.642Z</time></trkpt><trkpt lat="43.2250589" lon="12.1701049"><ele>511.0</ele><time>2026-04-12T07:06:14.634Z</time></trkpt><trkpt lat="43.2250476" lon="12.1701907"><ele>511.0</ele><time>2026-04-12T07:06:15.633Z</time></trkpt><trkpt lat="43.2250158" lon="12.1703491"><ele>511.6</ele><time>2026-04-12T07:06:17.633Z</time></trkpt><trkpt lat="43.2249977" lon="12.1704833"><ele>512.2</ele><time>2026-04-12T07:06:19.651Z</time></trkpt><trkpt lat="43.2250023" lon="12.1706125"><ele>512.8</ele><time>2026-04-12T07:06:21.648Z</time></trkpt><trkpt lat="43.225021" lon="12.1707725"><ele>513.4</ele><time>2026-04-12T07:06:23.641Z</time></trkpt><trkpt lat="43.2250694" lon="12.1709013"><ele>514.0</ele><time>2026-04-12T07:06:25.638Z</time></trkpt><trkpt lat="43.2251404" lon="12.1710007"><ele>514.8</ele><time>2026-04-12T07:06:27.636Z</time></trkpt><trkpt lat="43.2252218" lon="12.1710996"><ele>515.5999999999999</ele><time>2026-04-12T07:06:29.641Z</time></trkpt><trkpt lat="43.2253062" lon="12.1711999"><ele>516.4</ele><time>2026-04-12T07:06:31.638Z</time></trkpt><trkpt lat="43.2254029" lon="12.1712667"><ele>517.1999999999999</ele><time>2026-04-12T07:06:33.638Z</time></trkpt><trkpt lat="43.2255045" lon="12.1713044"><ele>518.0</ele><time>2026-04-12T07:06:35.637Z</time></trkpt><trkpt lat="43.2255991" lon="12.1713418"><ele>523.0</ele><time>2026-04-12T07:06:37.642Z</time></trkpt><trkpt lat="43.2256905" lon="12.1713896"><ele>528.0</ele><time>2026-04-12T07:06:39.644Z</time></trkpt><trkpt lat="43.2257859" lon="12.1714192"><ele>533.0</ele><time>2026-04-12T07:06:41.641Z</time></trkpt><trkpt lat="43.2258844" lon="12.1714197"><ele>538.0</ele><time>2026-04-12T07:06:43.64Z</time></trkpt><trkpt lat="43.2260032" lon="12.1714102"><ele>543.0</ele><time>2026-04-12T07:06:45.64Z</time></trkpt><trkpt lat="43.2261122" lon="12.1714299"><ele>543.0</ele><time>2026-04-12T07:06:47.638Z</time></trkpt><trkpt lat="43.2262211" lon="12.1714817"><ele>543.0</ele><time>2026-04-12T07:06:49.639Z</time></trkpt><trkpt lat="43.2263366" lon="12.1714986"><ele>543.0</ele><time>2026-04-12T07:06:51.635Z</time></trkpt><trkpt lat="43.2263995" lon="12.1715086"><ele>543.0</ele><time>2026-04-12T07:06:52.637Z</time></trkpt><trkpt lat="43.2264616" lon="12.1715333"><ele>543.0</ele><time>2026-04-12T07:06:53.676Z</time></trkpt><trkpt lat="43.2265754" lon="12.171574"><ele>544.4</ele><time>2026-04-12T07:06:55.638Z</time></trkpt><trkpt lat="43.2266664" lon="12.1715417"><ele>545.8</ele><time>2026-04-12T07:06:57.645Z</time></trkpt><trkpt lat="43.2267552" lon="12.1714754"><ele>547.2</ele><time>2026-04-12T07:06:59.641Z</time></trkpt><trkpt lat="43.2268833" lon="12.1714574"><ele>548.6</ele><time>2026-04-12T07:07:01.638Z</time></trkpt><trkpt lat="43.2269481" lon="12.1714532"><ele>550.0</ele><time>2026-04-12T07:07:02.64Z</time></trkpt><trkpt lat="43.227053" lon="12.1714206"><ele>551.6666666666667</ele><time>2026-04-12T07:07:04.649Z</time></trkpt><trkpt lat="43.2270843" lon="12.1713118"><ele>553.3333333333334</ele><time>2026-04-12T07:07:06.659Z</time></trkpt><trkpt lat="43.2270198" lon="12.1711834"><ele>555.0</ele><time>2026-04-12T07:07:08.642Z</time></trkpt><trkpt lat="43.2269732" lon="12.1711225"><ele>556.6666666666666</ele><time>2026-04-12T07:07:09.641Z</time></trkpt><trkpt lat="43.2269215" lon="12.1710671"><ele>558.3333333333333</ele><time>2026-04-12T07:07:10.642Z</time></trkpt><trkpt lat="43.2268654" lon="12.1710167"><ele>560.0</ele><time>2026-04-12T07:07:11.643Z</time></trkpt><trkpt lat="43.2267725" lon="12.1709325"><ele>560.0</ele><time>2026-04-12T07:07:13.647Z</time></trkpt><trkpt lat="43.2267313" lon="12.1708265"><ele>560.0</ele><time>2026-04-12T07:07:15.637Z</time></trkpt><trkpt lat="43.22674" lon="12.170684"><ele>560.0</ele><time>2026-04-12T07:07:17.644Z</time></trkpt><trkpt lat="43.2267648" lon="12.1705408"><ele>560.0</ele><time>2026-04-12T07:07:19.648Z</time></trkpt><trkpt lat="43.2268618" lon="12.1705241"><ele>560.0</ele><time>2026-04-12T07:07:21.655Z</time></trkpt><trkpt lat="43.2269394" lon="12.1705684"><ele>560.0</ele><time>2026-04-12T07:07:22.643Z</time></trkpt><trkpt lat="43.2270145" lon="12.1706131"><ele>560.0</ele><time>2026-04-12T07:07:23.658Z</time></trkpt><trkpt lat="43.2270806" lon="12.1706429"><ele>560.0</ele><time>2026-04-12T07:07:24.637Z</time></trkpt><trkpt lat="43.2271444" lon="12.1706665"><ele>560.0</ele><time>2026-04-12T07:07:25.647Z</time></trkpt><trkpt lat="43.2272715" lon="12.1707121"><ele>560.0</ele><time>2026-04-12T07:07:27.65Z</time></trkpt><trkpt lat="43.2273354" lon="12.1707284"><ele>560.0</ele><time>2026-04-12T07:07:28.645Z</time></trkpt><trkpt lat="43.227438" lon="12.1707088"><ele>562.0</ele><time>2026-04-12T07:07:30.646Z</time></trkpt><trkpt lat="43.2275305" lon="12.1707362"><ele>564.0</ele><time>2026-04-12T07:09:44.648Z</time></trkpt><trkpt lat="43.2276063" lon="12.1707745"><ele>566.0</ele><time>2026-04-12T07:09:45.649Z</time></trkpt><trkpt lat="43.2277123" lon="12.1708204"><ele>568.0</ele><time>2026-04-12T07:09:46.642Z</time></trkpt><trkpt lat="43.2278065" lon="12.1708561"><ele>570.0</ele><time>2026-04-12T07:09:47.641Z</time></trkpt><trkpt lat="43.2278877" lon="12.1708769"><ele>570.0</ele><time>2026-04-12T07:09:48.644Z</time></trkpt><trkpt lat="43.2279666" lon="12.1708735"><ele>570.0</ele><time>2026-04-12T07:09:49.64Z</time></trkpt><trkpt lat="43.2280429" lon="12.1708482"><ele>570.0</ele><time>2026-04-12T07:09:50.645Z</time></trkpt><trkpt lat="43.2281105" lon="12.1708142"><ele>570.0</ele><time>2026-04-12T07:09:51.64Z</time></trkpt><trkpt lat="43.2281775" lon="12.1707901"><ele>570.0</ele><time>2026-04-12T07:09:52.637Z</time></trkpt><trkpt lat="43.2282413" lon="12.1708013"><ele>570.0</ele><time>2026-04-12T07:09:53.643Z</time></trkpt><trkpt lat="43.2283044" lon="12.1708423"><ele>570.0</ele><time>2026-04-12T07:09:54.639Z</time></trkpt><trkpt lat="43.2283594" lon="12.1709132"><ele>570.3333333333334</ele><time>2026-04-12T07:09:55.64Z</time></trkpt><trkpt lat="43.2284099" lon="12.1709982"><ele>570.6666666666666</ele><time>2026-04-12T07:09:56.639Z</time></trkpt><trkpt lat="43.2284561" lon="12.171077"><ele>571.0</ele><time>2026-04-12T07:09:57.647Z</time></trkpt><trkpt lat="43.2285326" lon="12.1711703"><ele>571.3333333333333</ele><time>2026-04-12T07:09:59.63Z</time></trkpt><trkpt lat="43.2286254" lon="12.1712041"><ele>571.6666666666666</ele><time>2026-04-12T07:10:01.646Z</time></trkpt><trkpt lat="43.2286891" lon="12.1712261"><ele>572.0</ele><time>2026-04-12T07:10:02.631Z</time></trkpt><trkpt lat="43.228751" lon="12.1712615"><ele>572.0</ele><time>2026-04-12T07:10:03.633Z</time></trkpt><trkpt lat="43.2288104" lon="12.1713026"><ele>572.0</ele><time>2026-04-12T07:10:04.628Z</time></trkpt><trkpt lat="43.2288716" lon="12.1713405"><ele>572.0</ele><time>2026-04-12T07:10:05.635Z</time></trkpt><trkpt lat="43.2289819" lon="12.1713952"><ele>572.0</ele><time>2026-04-12T07:10:07.634Z</time></trkpt><trkpt lat="43.2291051" lon="12.1714403"><ele>572.0</ele><time>2026-04-12T07:10:09.634Z</time></trkpt><trkpt lat="43.2291716" lon="12.1714743"><ele>572.0</ele><time>2026-04-12T07:10:10.634Z</time></trkpt><trkpt lat="43.2292449" lon="12.1715268"><ele>569.6666666666666</ele><time>2026-04-12T07:10:11.634Z</time></trkpt><trkpt lat="43.2293207" lon="12.1716031"><ele>567.3333333333333</ele><time>2026-04-12T07:10:12.641Z</time></trkpt><trkpt lat="43.2293918" lon="12.1716802"><ele>565.0</ele><time>2026-04-12T07:10:13.632Z</time></trkpt><trkpt lat="43.2294627" lon="12.1717505"><ele>562.6666666666666</ele><time>2026-04-12T07:10:14.63Z</time></trkpt><trkpt lat="43.2295276" lon="12.1718107"><ele>560.3333333333334</ele><time>2026-04-12T07:10:15.632Z</time></trkpt><trkpt lat="43.2295874" lon="12.1718738"><ele>558.0</ele><time>2026-04-12T07:10:16.635Z</time></trkpt><trkpt lat="43.2296366" lon="12.1719325"><ele>558.0</ele><time>2026-04-12T07:10:17.634Z</time></trkpt><trkpt lat="43.2296846" lon="12.1719888"><ele>558.0</ele><time>2026-04-12T07:10:18.639Z</time></trkpt><trkpt lat="43.2298015" lon="12.1720581"><ele>558.0</ele><time>2026-04-12T07:10:20.637Z</time></trkpt><trkpt lat="43.2298732" lon="12.1720806"><ele>558.0</ele><time>2026-04-12T07:10:21.639Z</time></trkpt><trkpt lat="43.2299469" lon="12.1720929"><ele>558.0</ele><time>2026-04-12T07:10:22.64Z</time></trkpt><trkpt lat="43.2300229" lon="12.1720989"><ele>558.0</ele><time>2026-04-12T07:10:23.644Z</time></trkpt><trkpt lat="43.2300982" lon="12.1721105"><ele>559.4</ele><time>2026-04-12T07:10:24.642Z</time></trkpt><trkpt lat="43.2301725" lon="12.1721231"><ele>560.8</ele><time>2026-04-12T07:10:25.643Z</time></trkpt><trkpt lat="43.2302391" lon="12.1721226"><ele>562.2</ele><time>2026-04-12T07:10:26.64Z</time></trkpt><trkpt lat="43.2303541" lon="12.1720698"><ele>563.6</ele><time>2026-04-12T07:10:28.647Z</time></trkpt><trkpt lat="43.2304694" lon="12.1720043"><ele>565.0</ele><time>2026-04-12T07:10:30.648Z</time></trkpt><trkpt lat="43.2305342" lon="12.1719703"><ele>565.0</ele><time>2026-04-12T07:10:31.646Z</time></trkpt><trkpt lat="43.2305985" lon="12.1719275"><ele>565.0</ele><time>2026-04-12T07:10:32.641Z</time></trkpt><trkpt lat="43.2306555" lon="12.1718747"><ele>565.0</ele><time>2026-04-12T07:10:33.652Z</time></trkpt><trkpt lat="43.2307363" lon="12.1717635"><ele>565.0</ele><time>2026-04-12T07:10:35.641Z</time></trkpt><trkpt lat="43.2307769" lon="12.1716537"><ele>565.0</ele><time>2026-04-12T07:10:37.635Z</time></trkpt><trkpt lat="43.2307873" lon="12.171564"><ele>565.0</ele><time>2026-04-12T07:10:39.649Z</time></trkpt><trkpt lat="43.2308332" lon="12.1713624"><ele>563.5</ele><time>2026-04-12T07:10:42.638Z</time></trkpt><trkpt lat="43.2308634" lon="12.1712817"><ele>562.0</ele><time>2026-04-12T07:10:43.632Z</time></trkpt><trkpt lat="43.2309012" lon="12.1711997"><ele>560.5</ele><time>2026-04-12T07:10:44.636Z</time></trkpt><trkpt lat="43.2309404" lon="12.1711137"><ele>559.0</ele><time>2026-04-12T07:10:45.632Z</time></trkpt><trkpt lat="43.2309653" lon="12.1710298"><ele>557.5</ele><time>2026-04-12T07:10:46.632Z</time></trkpt><trkpt lat="43.230998" lon="12.1708825"><ele>556.0</ele><time>2026-04-12T07:10:48.63Z</time></trkpt><trkpt lat="43.2310446" lon="12.1707472"><ele>558.4</ele><time>2026-04-12T07:10:50.628Z</time></trkpt><trkpt lat="43.2311748" lon="12.1706453"><ele>560.8</ele><time>2026-04-12T07:10:53.631Z</time></trkpt><trkpt lat="43.2312407" lon="12.1706072"><ele>563.1999999999999</ele><time>2026-04-12T07:10:54.626Z</time></trkpt><trkpt lat="43.2313047" lon="12.1705679"><ele>565.6</ele><time>2026-04-12T07:10:55.63Z</time></trkpt><trkpt lat="43.2313897" lon="12.1704505"><ele>568.0</ele><time>2026-04-12T07:10:57.631Z</time></trkpt><trkpt lat="43.2314287" lon="12.1702949"><ele>566.6</ele><time>2026-04-12T07:10:59.633Z</time></trkpt><trkpt lat="43.2314858" lon="12.1701617"><ele>565.1999999999999</ele><time>2026-04-12T07:11:01.628Z</time></trkpt><trkpt lat="43.2315849" lon="12.1700893"><ele>563.8</ele><time>2026-04-12T07:11:03.628Z</time></trkpt><trkpt lat="43.2316507" lon="12.1700626"><ele>562.4</ele><time>2026-04-12T07:11:04.621Z</time></trkpt><trkpt lat="43.2317293" lon="12.1700499"><ele>561.0</ele><time>2026-04-12T07:11:05.632Z</time></trkpt><trkpt lat="43.231811" lon="12.1700265"><ele>561.0</ele><time>2026-04-12T07:11:06.632Z</time></trkpt><trkpt lat="43.2318915" lon="12.1699852"><ele>561.0</ele><time>2026-04-12T07:11:07.63Z</time></trkpt><trkpt lat="43.2319626" lon="12.169935"><ele>561.0</ele><time>2026-04-12T07:11:08.627Z</time></trkpt><trkpt lat="43.232031" lon="12.1698876"><ele>561.0</ele><time>2026-04-12T07:11:09.629Z</time></trkpt><trkpt lat="43.2321041" lon="12.1698397"><ele>561.0</ele><time>2026-04-12T07:11:10.633Z</time></trkpt><trkpt lat="43.2321714" lon="12.1697958"><ele>561.0</ele><time>2026-04-12T07:11:11.63Z</time></trkpt><trkpt lat="43.2322346" lon="12.1697425"><ele>562.0</ele><time>2026-04-12T07:11:12.633Z</time></trkpt><trkpt lat="43.2322911" lon="12.169681"><ele>563.0</ele><time>2026-04-12T07:11:13.629Z</time></trkpt><trkpt lat="43.2323319" lon="12.1696022"><ele>564.0</ele><time>2026-04-12T07:11:14.632Z</time></trkpt><trkpt lat="43.2323747" lon="12.169508"><ele>565.0</ele><time>2026-04-12T07:11:15.63Z</time></trkpt><trkpt lat="43.2324193" lon="12.1694091"><ele>566.0</ele><time>2026-04-12T07:11:16.634Z</time></trkpt><trkpt lat="43.2324701" lon="12.1693226"><ele>567.0</ele><time>2026-04-12T07:11:17.634Z</time></trkpt><trkpt lat="43.2325314" lon="12.1692452"><ele>567.0</ele><time>2026-04-12T07:11:18.634Z</time></trkpt><trkpt lat="43.23259" lon="12.1691702"><ele>567.0</ele><time>2026-04-12T07:11:19.633Z</time></trkpt><trkpt lat="43.2326447" lon="12.1690872"><ele>567.0</ele><time>2026-04-12T07:11:20.634Z</time></trkpt><trkpt lat="43.2327002" lon="12.1690118"><ele>567.0</ele><time>2026-04-12T07:11:21.635Z</time></trkpt><trkpt lat="43.2327599" lon="12.1689453"><ele>567.0</ele><time>2026-04-12T07:11:22.634Z</time></trkpt><trkpt lat="43.2328162" lon="12.1688857"><ele>567.0</ele><time>2026-04-12T07:11:23.637Z</time></trkpt><trkpt lat="43.2328674" lon="12.1688271"><ele>568.8000000000001</ele><time>2026-04-12T07:11:24.63Z</time></trkpt><trkpt lat="43.2329185" lon="12.1687644"><ele>570.6</ele><time>2026-04-12T07:11:25.636Z</time></trkpt><trkpt lat="43.2329706" lon="12.1687071"><ele>572.4000000000001</ele><time>2026-04-12T07:11:26.629Z</time></trkpt><trkpt lat="43.2330744" lon="12.1686469"><ele>574.2</ele><time>2026-04-12T07:11:28.631Z</time></trkpt><trkpt lat="43.2331724" lon="12.1686669"><ele>576.0</ele><time>2026-04-12T07:11:30.629Z</time></trkpt><trkpt lat="43.2332687" lon="12.1687169"><ele>576.0</ele><time>2026-04-12T07:11:32.64Z</time></trkpt><trkpt lat="43.2333711" lon="12.1687521"><ele>576.0</ele><time>2026-04-12T07:11:34.643Z</time></trkpt><trkpt lat="43.2334738" lon="12.1687508"><ele>576.0</ele><time>2026-04-12T07:11:36.65Z</time></trkpt><trkpt lat="43.233431" lon="12.1686427"><ele>576.0</ele><time>2026-04-12T07:11:43.652Z</time></trkpt><trkpt lat="43.2333241" lon="12.1685402"><ele>576.0</ele><time>2026-04-12T07:11:45.648Z</time></trkpt><trkpt lat="43.2332684" lon="12.1684648"><ele>576.0</ele><time>2026-04-12T07:11:47.653Z</time></trkpt><trkpt lat="43.2332874" lon="12.1683748"><ele>576.0</ele><time>2026-04-12T07:11:48.646Z</time></trkpt><trkpt lat="43.233316" lon="12.1682785"><ele>576.0</ele><time>2026-04-12T07:11:49.631Z</time></trkpt><trkpt lat="43.2333376" lon="12.1681677"><ele>576.0</ele><time>2026-04-12T07:11:50.636Z</time></trkpt><trkpt lat="43.2333463" lon="12.1680471"><ele>576.0</ele><time>2026-04-12T07:11:51.636Z</time></trkpt><trkpt lat="43.233343" lon="12.1679357"><ele>576.0</ele><time>2026-04-12T07:11:52.635Z</time></trkpt><trkpt lat="43.2333276" lon="12.1678434"><ele>576.8333333333334</ele><time>2026-04-12T07:11:53.639Z</time></trkpt><trkpt lat="43.2333088" lon="12.1677597"><ele>577.6666666666666</ele><time>2026-04-12T07:11:54.638Z</time></trkpt><trkpt lat="43.2332909" lon="12.1676743"><ele>578.5</ele><time>2026-04-12T07:11:55.639Z</time></trkpt><trkpt lat="43.2332791" lon="12.1675738"><ele>579.3333333333333</ele><time>2026-04-12T07:11:56.636Z</time></trkpt><trkpt lat="43.23327" lon="12.1674737"><ele>580.1666666666666</ele><time>2026-04-12T07:11:57.632Z</time></trkpt><trkpt lat="43.2332717" lon="12.1673804"><ele>581.0</ele><time>2026-04-12T07:11:58.641Z</time></trkpt><trkpt lat="43.2332649" lon="12.1672236"><ele>581.4</ele><time>2026-04-12T07:12:00.636Z</time></trkpt><trkpt lat="43.2332672" lon="12.1671322"><ele>581.8</ele><time>2026-04-12T07:12:01.65Z</time></trkpt><trkpt lat="43.2332748" lon="12.1670385"><ele>582.1999999999999</ele><time>2026-04-12T07:12:02.631Z</time></trkpt><trkpt lat="43.2332931" lon="12.1668732"><ele>582.6</ele><time>2026-04-12T07:12:04.63Z</time></trkpt><trkpt lat="43.2332879" lon="12.16672"><ele>583.0</ele><time>2026-04-12T07:12:06.623Z</time></trkpt><trkpt lat="43.2333032" lon="12.1665768"><ele>583.0</ele><time>2026-04-12T07:12:08.634Z</time></trkpt><trkpt lat="43.2333839" lon="12.1665358"><ele>583.0</ele><time>2026-04-12T07:12:10.638Z</time></trkpt><trkpt lat="43.2335143" lon="12.1665462"><ele>583.0</ele><time>2026-04-12T07:12:12.636Z</time></trkpt><trkpt lat="43.2335854" lon="12.1665773"><ele>583.0</ele><time>2026-04-12T07:12:13.629Z</time></trkpt><trkpt lat="43.2336601" lon="12.1666001"><ele>583.0</ele><time>2026-04-12T07:12:14.629Z</time></trkpt><trkpt lat="43.2337303" lon="12.1665919"><ele>583.0</ele><time>2026-04-12T07:12:15.629Z</time></trkpt><trkpt lat="43.2337976" lon="12.1665537"><ele>582.5</ele><time>2026-04-12T07:12:16.625Z</time></trkpt><trkpt lat="43.233874" lon="12.1664944"><ele>582.0</ele><time>2026-04-12T07:12:17.627Z</time></trkpt><trkpt lat="43.2339544" lon="12.1664305"><ele>581.5</ele><time>2026-04-12T07:12:18.625Z</time></trkpt><trkpt lat="43.2340302" lon="12.1663741"><ele>581.0</ele><time>2026-04-12T07:12:19.625Z</time></trkpt><trkpt lat="43.2341036" lon="12.1663277"><ele>580.5</ele><time>2026-04-12T07:12:20.628Z</time></trkpt><trkpt lat="43.2341744" lon="12.1662844"><ele>580.0</ele><time>2026-04-12T07:12:21.631Z</time></trkpt><trkpt lat="43.2342414" lon="12.1662493"><ele>580.0</ele><time>2026-04-12T07:12:22.624Z</time></trkpt><trkpt lat="43.2343044" lon="12.1662199"><ele>580.0</ele><time>2026-04-12T07:12:23.624Z</time></trkpt><trkpt lat="43.2344197" lon="12.1661877"><ele>580.0</ele><time>2026-04-12T07:12:25.626Z</time></trkpt><trkpt lat="43.2345173" lon="12.1662616"><ele>580.0</ele><time>2026-04-12T07:12:27.625Z</time></trkpt><trkpt lat="43.2345616" lon="12.1663331"><ele>580.0</ele><time>2026-04-12T07:12:28.627Z</time></trkpt><trkpt lat="43.2346177" lon="12.1663951"><ele>580.0</ele><time>2026-04-12T07:12:29.625Z</time></trkpt><trkpt lat="43.2346743" lon="12.1664388"><ele>580.0</ele><time>2026-04-12T07:12:30.624Z</time></trkpt><trkpt lat="43.2347385" lon="12.1664611"><ele>580.0</ele><time>2026-04-12T07:12:31.63Z</time></trkpt><trkpt lat="43.2348095" lon="12.1664853"><ele>580.0</ele><time>2026-04-12T07:12:32.644Z</time></trkpt><trkpt lat="43.2348808" lon="12.1665015"><ele>580.0</ele><time>2026-04-12T07:12:33.628Z</time></trkpt><trkpt lat="43.2349566" lon="12.166519"><ele>580.0</ele><time>2026-04-12T07:12:34.627Z</time></trkpt><trkpt lat="43.2350305" lon="12.1665452"><ele>580.0</ele><time>2026-04-12T07:12:35.63Z</time></trkpt><trkpt lat="43.2350955" lon="12.1665818"><ele>580.0</ele><time>2026-04-12T07:12:36.63Z</time></trkpt><trkpt lat="43.2351588" lon="12.1666213"><ele>577.3333333333334</ele><time>2026-04-12T07:12:37.627Z</time></trkpt><trkpt lat="43.2352255" lon="12.166669"><ele>574.6666666666667</ele><time>2026-04-12T07:12:38.627Z</time></trkpt><trkpt lat="43.2352838" lon="12.1667296"><ele>572.0</ele><time>2026-04-12T07:12:39.63Z</time></trkpt><trkpt lat="43.2353331" lon="12.1667959"><ele>569.3333333333334</ele><time>2026-04-12T07:12:40.629Z</time></trkpt><trkpt lat="43.2353807" lon="12.1668654"><ele>566.6666666666666</ele><time>2026-04-12T07:12:41.628Z</time></trkpt><trkpt lat="43.2354833" lon="12.166978"><ele>564.0</ele><time>2026-04-12T07:12:43.627Z</time></trkpt><trkpt lat="43.2355333" lon="12.1670352"><ele>564.8</ele><time>2026-04-12T07:12:44.627Z</time></trkpt><trkpt lat="43.2356433" lon="12.1671268"><ele>565.5999999999999</ele><time>2026-04-12T07:12:46.627Z</time></trkpt><trkpt lat="43.2356998" lon="12.1671734"><ele>566.4</ele><time>2026-04-12T07:12:47.634Z</time></trkpt><trkpt lat="43.235791" lon="12.1672752"><ele>567.1999999999999</ele><time>2026-04-12T07:12:49.629Z</time></trkpt><trkpt lat="43.2358534" lon="12.1673751"><ele>568.0</ele><time>2026-04-12T07:12:51.634Z</time></trkpt><trkpt lat="43.2359194" lon="12.1674374"><ele>568.0</ele><time>2026-04-12T07:12:53.64Z</time></trkpt><trkpt lat="43.23599" lon="12.167407"><ele>568.0</ele><time>2026-04-12T07:12:55.65Z</time></trkpt><trkpt lat="43.2360535" lon="12.1672874"><ele>568.0</ele><time>2026-04-12T07:12:57.632Z</time></trkpt><trkpt lat="43.2361037" lon="12.1671363"><ele>568.0</ele><time>2026-04-12T07:12:59.624Z</time></trkpt><trkpt lat="43.2361237" lon="12.167052"><ele>568.0</ele><time>2026-04-12T07:13:00.63Z</time></trkpt><trkpt lat="43.2361446" lon="12.1669684"><ele>568.0</ele><time>2026-04-12T07:13:01.63Z</time></trkpt><trkpt lat="43.2361805" lon="12.1668117"><ele>568.0</ele><time>2026-04-12T07:13:03.633Z</time></trkpt><trkpt lat="43.2362312" lon="12.1666916"><ele>568.0</ele><time>2026-04-12T07:13:05.619Z</time></trkpt><trkpt lat="43.2363367" lon="12.1666519"><ele>568.0</ele><time>2026-04-12T07:13:07.619Z</time></trkpt><trkpt lat="43.2364002" lon="12.1666813"><ele>568.0</ele><time>2026-04-12T07:13:08.617Z</time></trkpt><trkpt lat="43.23647" lon="12.166729"><ele>568.0</ele><time>2026-04-12T07:13:09.619Z</time></trkpt><trkpt lat="43.2365407" lon="12.1667764"><ele>568.0</ele><time>2026-04-12T07:13:10.622Z</time></trkpt><trkpt lat="43.2366164" lon="12.1668103"><ele>565.5</ele><time>2026-04-12T07:13:11.622Z</time></trkpt><trkpt lat="43.2366953" lon="12.1668387"><ele>563.0</ele><time>2026-04-12T07:13:12.623Z</time></trkpt><trkpt lat="43.2367679" lon="12.1668707"><ele>560.5</ele><time>2026-04-12T07:13:13.626Z</time></trkpt><trkpt lat="43.2368359" lon="12.1669077"><ele>558.0</ele><time>2026-04-12T07:13:14.626Z</time></trkpt><trkpt lat="43.2368956" lon="12.1669629"><ele>555.5</ele><time>2026-04-12T07:13:15.627Z</time></trkpt><trkpt lat="43.2369532" lon="12.1670267"><ele>553.0</ele><time>2026-04-12T07:13:16.629Z</time></trkpt><trkpt lat="43.2370536" lon="12.16709"><ele>553.0</ele><time>2026-04-12T07:13:18.629Z</time></trkpt><trkpt lat="43.2371762" lon="12.1670526"><ele>553.0</ele><time>2026-04-12T07:13:20.628Z</time></trkpt><trkpt lat="43.2372457" lon="12.1670182"><ele>553.0</ele><time>2026-04-12T07:13:21.631Z</time></trkpt><trkpt lat="43.2373118" lon="12.1669822"><ele>553.0</ele><time>2026-04-12T07:13:22.631Z</time></trkpt><trkpt lat="43.2373764" lon="12.1669518"><ele>553.0</ele><time>2026-04-12T07:13:23.629Z</time></trkpt><trkpt lat="43.2374365" lon="12.1669249"><ele>553.0</ele><time>2026-04-12T07:13:24.632Z</time></trkpt><trkpt lat="43.2375447" lon="12.1668759"><ele>551.6666666666667</ele><time>2026-04-12T07:13:26.632Z</time></trkpt><trkpt lat="43.2376608" lon="12.1668576"><ele>550.3333333333334</ele><time>2026-04-12T07:13:28.631Z</time></trkpt><trkpt lat="43.2377265" lon="12.16687"><ele>549.0</ele><time>2026-04-12T07:13:29.631Z</time></trkpt><trkpt lat="43.2377909" lon="12.1669017"><ele>547.6666666666666</ele><time>2026-04-12T07:13:30.633Z</time></trkpt><trkpt lat="43.2378622" lon="12.1669426"><ele>546.3333333333333</ele><time>2026-04-12T07:13:31.632Z</time></trkpt><trkpt lat="43.2379411" lon="12.1669748"><ele>545.0</ele><time>2026-04-12T07:13:32.636Z</time></trkpt><trkpt lat="43.2380291" lon="12.1669911"><ele>545.0</ele><time>2026-04-12T07:13:33.629Z</time></trkpt><trkpt lat="43.2381254" lon="12.1669947"><ele>545.0</ele><time>2026-04-12T07:13:34.653Z</time></trkpt><trkpt lat="43.2382144" lon="12.166986"><ele>545.0</ele><time>2026-04-12T07:13:35.638Z</time></trkpt><trkpt lat="43.2382875" lon="12.1669661"><ele>545.0</ele><time>2026-04-12T07:13:36.64Z</time></trkpt><trkpt lat="43.2383977" lon="12.1669401"><ele>545.0</ele><time>2026-04-12T07:13:38.636Z</time></trkpt><trkpt lat="43.2384969" lon="12.1669621"><ele>540.75</ele><time>2026-04-12T07:13:40.642Z</time></trkpt><trkpt lat="43.2386013" lon="12.1670163"><ele>536.5</ele><time>2026-04-12T07:13:42.647Z</time></trkpt><trkpt lat="43.2386982" lon="12.1670553"><ele>532.25</ele><time>2026-04-12T07:13:44.65Z</time></trkpt><trkpt lat="43.2387134" lon="12.1669394"><ele>528.0</ele><time>2026-04-12T07:16:30.657Z</time></trkpt><trkpt lat="43.2386669" lon="12.1667272"><ele>528.0</ele><time>2026-04-12T07:16:32.648Z</time></trkpt><trkpt lat="43.2386365" lon="12.1665915"><ele>528.0</ele><time>2026-04-12T07:16:33.642Z</time></trkpt><trkpt lat="43.2386092" lon="12.1664625"><ele>528.0</ele><time>2026-04-12T07:16:34.636Z</time></trkpt><trkpt lat="43.2385734" lon="12.1663229"><ele>528.0</ele><time>2026-04-12T07:16:35.641Z</time></trkpt><trkpt lat="43.238534" lon="12.1661724"><ele>528.0</ele><time>2026-04-12T07:16:36.636Z</time></trkpt><trkpt lat="43.2385" lon="12.1660254"><ele>529.0</ele><time>2026-04-12T07:16:37.637Z</time></trkpt><trkpt lat="43.2384666" lon="12.1658746"><ele>530.0</ele><time>2026-04-12T07:16:38.637Z</time></trkpt><trkpt lat="43.2384352" lon="12.1657139"><ele>531.0</ele><time>2026-04-12T07:16:39.652Z</time></trkpt><trkpt lat="43.2384035" lon="12.1655416"><ele>532.0</ele><time>2026-04-12T07:16:40.635Z</time></trkpt><trkpt lat="43.2383737" lon="12.1653548"><ele>532.0</ele><time>2026-04-12T07:16:41.639Z</time></trkpt><trkpt lat="43.2383457" lon="12.165165"><ele>532.0</ele><time>2026-04-12T07:16:42.642Z</time></trkpt><trkpt lat="43.2383258" lon="12.164978"><ele>532.0</ele><time>2026-04-12T07:16:43.637Z</time></trkpt><trkpt lat="43.2383062" lon="12.164816"><ele>532.0</ele><time>2026-04-12T07:16:44.643Z</time></trkpt><trkpt lat="43.2382702" lon="12.1646785"><ele>532.0</ele><time>2026-04-12T07:16:45.642Z</time></trkpt><trkpt lat="43.2382233" lon="12.1645526"><ele>532.0</ele><time>2026-04-12T07:16:46.641Z</time></trkpt><trkpt lat="43.2381855" lon="12.1644105"><ele>532.0</ele><time>2026-04-12T07:16:47.64Z</time></trkpt><trkpt lat="43.2381616" lon="12.1642588"><ele>532.0</ele><time>2026-04-12T07:16:48.643Z</time></trkpt><trkpt lat="43.2381504" lon="12.1641082"><ele>532.0</ele><time>2026-04-12T07:16:49.628Z</time></trkpt><trkpt lat="43.2381537" lon="12.1639578"><ele>531.6</ele><time>2026-04-12T07:16:50.635Z</time></trkpt><trkpt lat="43.238176" lon="12.163817"><ele>531.2</ele><time>2026-04-12T07:16:51.637Z</time></trkpt><trkpt lat="43.2381938" lon="12.1636913"><ele>530.8</ele><time>2026-04-12T07:16:52.635Z</time></trkpt><trkpt lat="43.2381986" lon="12.1635631"><ele>530.4</ele><time>2026-04-12T07:16:53.642Z</time></trkpt><trkpt lat="43.2381714" lon="12.1634343"><ele>530.0</ele><time>2026-04-12T07:16:54.636Z</time></trkpt><trkpt lat="43.2381222" lon="12.1633107"><ele>533.6</ele><time>2026-04-12T07:16:55.644Z</time></trkpt><trkpt lat="43.2380541" lon="12.1632087"><ele>537.2</ele><time>2026-04-12T07:16:56.643Z</time></trkpt><trkpt lat="43.2379708" lon="12.1631428"><ele>540.8</ele><time>2026-04-12T07:16:57.641Z</time></trkpt><trkpt lat="43.2378744" lon="12.1631115"><ele>544.4</ele><time>2026-04-12T07:16:58.641Z</time></trkpt><trkpt lat="43.2377795" lon="12.1630952"><ele>548.0</ele><time>2026-04-12T07:16:59.64Z</time></trkpt><trkpt lat="43.2376904" lon="12.1630782"><ele>548.0</ele><time>2026-04-12T07:17:00.643Z</time></trkpt><trkpt lat="43.2376174" lon="12.1630307"><ele>548.0</ele><time>2026-04-12T07:17:01.642Z</time></trkpt><trkpt lat="43.2375541" lon="12.1629601"><ele>548.0</ele><time>2026-04-12T07:17:02.634Z</time></trkpt><trkpt lat="43.2375109" lon="12.1628708"><ele>548.0</ele><time>2026-04-12T07:17:03.636Z</time></trkpt><trkpt lat="43.2374848" lon="12.1627639"><ele>548.0</ele><time>2026-04-12T07:17:04.639Z</time></trkpt><trkpt lat="43.2374552" lon="12.1626467"><ele>548.0</ele><time>2026-04-12T07:17:05.638Z</time></trkpt><trkpt lat="43.2374196" lon="12.1625452"><ele>548.0000000000001</ele><time>2026-04-12T07:17:06.641Z</time></trkpt><trkpt lat="43.2373725" lon="12.1624702"><ele>548.0</ele><time>2026-04-12T07:17:07.642Z</time></trkpt><trkpt lat="43.2373139" lon="12.1624094"><ele>548.0</ele><time>2026-04-12T07:17:08.634Z</time></trkpt><trkpt lat="43.2372511" lon="12.1623607"><ele>548.0</ele><time>2026-04-12T07:17:09.636Z</time></trkpt><trkpt lat="43.2371869" lon="12.162328"><ele>548.0</ele><time>2026-04-12T07:17:10.656Z</time></trkpt><trkpt lat="43.2371154" lon="12.1623158"><ele>548.0000000000001</ele><time>2026-04-12T07:17:11.635Z</time></trkpt><trkpt lat="43.2370431" lon="12.1623195"><ele>548.0</ele><time>2026-04-12T07:17:12.643Z</time></trkpt><trkpt lat="43.2369373" lon="12.1622728"><ele>551.6666666666666</ele><time>2026-04-12T07:17:14.642Z</time></trkpt><trkpt lat="43.2369056" lon="12.1621002"><ele>555.3333333333333</ele><time>2026-04-12T07:17:16.637Z</time></trkpt><trkpt lat="43.2368995" lon="12.1619963"><ele>559.0</ele><time>2026-04-12T07:17:17.638Z</time></trkpt><trkpt lat="43.2368843" lon="12.1618863"><ele>562.6666666666666</ele><time>2026-04-12T07:17:18.639Z</time></trkpt><trkpt lat="43.2368639" lon="12.161781"><ele>566.3333333333334</ele><time>2026-04-12T07:17:19.641Z</time></trkpt><trkpt lat="43.2368375" lon="12.1616927"><ele>570.0</ele><time>2026-04-12T07:17:20.641Z</time></trkpt><trkpt lat="43.2367617" lon="12.1616055"><ele>570.0</ele><time>2026-04-12T07:17:22.638Z</time></trkpt><trkpt lat="43.2366558" lon="12.161561"><ele>570.0</ele><time>2026-04-12T07:17:24.647Z</time></trkpt><trkpt lat="43.236531" lon="12.1615502"><ele>570.0</ele><time>2026-04-12T07:17:26.634Z</time></trkpt><trkpt lat="43.2364663" lon="12.1615504"><ele>570.0</ele><time>2026-04-12T07:17:27.641Z</time></trkpt><trkpt lat="43.2363614" lon="12.1615135"><ele>570.0</ele><time>2026-04-12T07:17:29.643Z</time></trkpt><trkpt lat="43.2363177" lon="12.1613796"><ele>569.1666666666666</ele><time>2026-04-12T07:17:31.64Z</time></trkpt><trkpt lat="43.2363269" lon="12.1612803"><ele>568.3333333333334</ele><time>2026-04-12T07:17:32.639Z</time></trkpt><trkpt lat="43.2363524" lon="12.161175"><ele>567.5</ele><time>2026-04-12T07:17:33.636Z</time></trkpt><trkpt lat="43.2363908" lon="12.1610643"><ele>566.6666666666667</ele><time>2026-04-12T07:17:34.64Z</time></trkpt><trkpt lat="43.2364326" lon="12.1609598"><ele>565.8333333333334</ele><time>2026-04-12T07:17:35.638Z</time></trkpt><trkpt lat="43.2364658" lon="12.1608524"><ele>565.0</ele><time>2026-04-12T07:17:36.637Z</time></trkpt><trkpt lat="43.2364742" lon="12.1607438"><ele>564.4</ele><time>2026-04-12T07:17:37.637Z</time></trkpt><trkpt lat="43.2364724" lon="12.1606321"><ele>563.8</ele><time>2026-04-12T07:17:38.635Z</time></trkpt><trkpt lat="43.2364549" lon="12.1605058"><ele>563.2</ele><time>2026-04-12T07:17:39.644Z</time></trkpt><trkpt lat="43.2364357" lon="12.1603762"><ele>562.6</ele><time>2026-04-12T07:17:40.636Z</time></trkpt><trkpt lat="43.2364142" lon="12.1602414"><ele>562.0</ele><time>2026-04-12T07:17:41.648Z</time></trkpt><trkpt lat="43.2363905" lon="12.1601217"><ele>563.5</ele><time>2026-04-12T07:17:42.638Z</time></trkpt><trkpt lat="43.2363671" lon="12.1600229"><ele>565.0</ele><time>2026-04-12T07:17:43.638Z</time></trkpt><trkpt lat="43.2363435" lon="12.1599405"><ele>566.5</ele><time>2026-04-12T07:17:44.643Z</time></trkpt><trkpt lat="43.2362908" lon="12.1598356"><ele>568.0</ele><time>2026-04-12T07:17:46.643Z</time></trkpt><trkpt lat="43.2362188" lon="12.1597952"><ele>569.5</ele><time>2026-04-12T07:17:49.658Z</time></trkpt><trkpt lat="43.2361978" lon="12.159703"><ele>571.0</ele><time>2026-04-12T07:19:35.663Z</time></trkpt><trkpt lat="43.2361854" lon="12.1595963"><ele>571.0</ele><time>2026-04-12T07:19:36.659Z</time></trkpt><trkpt lat="43.2361756" lon="12.1595035"><ele>571.0</ele><time>2026-04-12T07:19:37.66Z</time></trkpt><trkpt lat="43.2361606" lon="12.1594169"><ele>571.0</ele><time>2026-04-12T07:19:39.599Z</time></trkpt><trkpt lat="43.2361776" lon="12.1592147"><ele>571.0</ele><time>2026-04-12T07:19:41.64Z</time></trkpt><trkpt lat="43.2362167" lon="12.1591174"><ele>571.0</ele><time>2026-04-12T07:19:42.649Z</time></trkpt><trkpt lat="43.2362668" lon="12.1590364"><ele>571.0</ele><time>2026-04-12T07:19:43.644Z</time></trkpt><trkpt lat="43.2363222" lon="12.1589663"><ele>568.2</ele><time>2026-04-12T07:19:44.647Z</time></trkpt><trkpt lat="43.2363713" lon="12.1588991"><ele>565.4000000000001</ele><time>2026-04-12T07:19:45.664Z</time></trkpt><trkpt lat="43.2364431" lon="12.1587744"><ele>562.6</ele><time>2026-04-12T07:19:47.654Z</time></trkpt><trkpt lat="43.2365246" lon="12.158738"><ele>559.8000000000001</ele><time>2026-04-12T07:19:49.657Z</time></trkpt><trkpt lat="43.2366219" lon="12.1587955"><ele>557.0</ele><time>2026-04-12T07:19:51.654Z</time></trkpt><trkpt lat="43.2367368" lon="12.1588025"><ele>553.8000000000001</ele><time>2026-04-12T07:19:53.651Z</time></trkpt><trkpt lat="43.2368494" lon="12.158781"><ele>550.6</ele><time>2026-04-12T07:19:55.643Z</time></trkpt><trkpt lat="43.2369536" lon="12.1587664"><ele>547.4000000000001</ele><time>2026-04-12T07:19:57.645Z</time></trkpt><trkpt lat="43.2370539" lon="12.1587286"><ele>544.2</ele><time>2026-04-12T07:19:59.644Z</time></trkpt><trkpt lat="43.2371521" lon="12.1586689"><ele>541.0</ele><time>2026-04-12T07:20:01.66Z</time></trkpt><trkpt lat="43.2372113" lon="12.1586276"><ele>541.0</ele><time>2026-04-12T07:20:03.66Z</time></trkpt><trkpt lat="43.2372808" lon="12.1585209"><ele>541.0</ele><time>2026-04-12T07:20:05.624Z</time></trkpt><trkpt lat="43.2373171" lon="12.1583928"><ele>541.0</ele><time>2026-04-12T07:20:07.645Z</time></trkpt><trkpt lat="43.2373609" lon="12.1582577"><ele>541.0</ele><time>2026-04-12T07:20:09.643Z</time></trkpt><trkpt lat="43.2374288" lon="12.1581827"><ele>541.0</ele><time>2026-04-12T07:20:11.668Z</time></trkpt><trkpt lat="43.2374963" lon="12.158112"><ele>536.0</ele><time>2026-04-12T07:20:13.66Z</time></trkpt><trkpt lat="43.2375159" lon="12.1579832"><ele>531.0</ele><time>2026-04-12T07:20:15.662Z</time></trkpt><trkpt lat="43.2375152" lon="12.1578292"><ele>526.0</ele><time>2026-04-12T07:20:17.648Z</time></trkpt><trkpt lat="43.2374978" lon="12.157735"><ele>521.0</ele><time>2026-04-12T07:20:19.667Z</time></trkpt><trkpt lat="43.2374688" lon="12.1575838"><ele>516.0</ele><time>2026-04-12T07:20:21.621Z</time></trkpt><trkpt lat="43.2374938" lon="12.1574421"><ele>513.2</ele><time>2026-04-12T07:20:23.642Z</time></trkpt><trkpt lat="43.2375316" lon="12.157286"><ele>510.40000000000003</ele><time>2026-04-12T07:20:25.642Z</time></trkpt><trkpt lat="43.2375492" lon="12.157159"><ele>507.6</ele><time>2026-04-12T07:20:27.645Z</time></trkpt><trkpt lat="43.2375296" lon="12.1570389"><ele>504.8</ele><time>2026-04-12T07:20:29.659Z</time></trkpt><trkpt lat="43.2374937" lon="12.1568842"><ele>502.0</ele><time>2026-04-12T07:20:31.647Z</time></trkpt><trkpt lat="43.2374523" lon="12.1567652"><ele>502.0</ele><time>2026-04-12T07:20:33.658Z</time></trkpt><trkpt lat="43.2373656" lon="12.1566628"><ele>502.00000000000006</ele><time>2026-04-12T07:20:36.66Z</time></trkpt><trkpt lat="43.2373046" lon="12.1565793"><ele>502.00000000000006</ele><time>2026-04-12T07:20:38.654Z</time></trkpt><trkpt lat="43.237318" lon="12.1564494"><ele>502.0</ele><time>2026-04-12T07:20:41.6Z</time></trkpt><trkpt lat="43.2373826" lon="12.1563215"><ele>502.0</ele><time>2026-04-12T07:20:43.651Z</time></trkpt><trkpt lat="43.2374902" lon="12.1562367"><ele>498.6</ele><time>2026-04-12T07:20:45.662Z</time></trkpt><trkpt lat="43.2375948" lon="12.1561543"><ele>495.20000000000005</ele><time>2026-04-12T07:20:47.66Z</time></trkpt><trkpt lat="43.2376766" lon="12.1560683"><ele>491.8</ele><time>2026-04-12T07:20:49.646Z</time></trkpt><trkpt lat="43.2377395" lon="12.1559803"><ele>488.4</ele><time>2026-04-12T07:20:51.656Z</time></trkpt><trkpt lat="43.2377834" lon="12.1558951"><ele>485.0</ele><time>2026-04-12T07:20:53.658Z</time></trkpt><trkpt lat="43.2378277" lon="12.1558236"><ele>485.0</ele><time>2026-04-12T07:20:56.65Z</time></trkpt><trkpt lat="43.2376601" lon="12.1558368"><ele>485.0</ele><time>2026-04-12T07:21:01.639Z</time></trkpt><trkpt lat="43.2375759" lon="12.1558184"><ele>485.0</ele><time>2026-04-12T07:21:02.635Z</time></trkpt><trkpt lat="43.2374947" lon="12.155791"><ele>485.0</ele><time>2026-04-12T07:21:03.641Z</time></trkpt><trkpt lat="43.2374176" lon="12.155759"><ele>485.0</ele><time>2026-04-12T07:21:04.639Z</time></trkpt><trkpt lat="43.2373314" lon="12.1557265"><ele>483.99999999999994</ele><time>2026-04-12T07:21:05.64Z</time></trkpt><trkpt lat="43.2372459" lon="12.155705"><ele>483.0</ele><time>2026-04-12T07:21:06.638Z</time></trkpt><trkpt lat="43.2371656" lon="12.155694"><ele>482.0</ele><time>2026-04-12T07:21:07.639Z</time></trkpt><trkpt lat="43.2370915" lon="12.1556849"><ele>481.0</ele><time>2026-04-12T07:21:08.639Z</time></trkpt><trkpt lat="43.2370185" lon="12.155655"><ele>479.99999999999994</ele><time>2026-04-12T07:21:09.638Z</time></trkpt><trkpt lat="43.2369481" lon="12.1555968"><ele>479.0</ele><time>2026-04-12T07:21:10.638Z</time></trkpt><trkpt lat="43.2368734" lon="12.1555345"><ele>479.0</ele><time>2026-04-12T07:21:11.644Z</time></trkpt><trkpt lat="43.2368031" lon="12.1554894"><ele>479.0</ele><time>2026-04-12T07:21:12.64Z</time></trkpt><trkpt lat="43.2366888" lon="12.1554977"><ele>479.0</ele><time>2026-04-12T07:21:14.636Z</time></trkpt><trkpt lat="43.2365674" lon="12.1555652"><ele>479.0</ele><time>2026-04-12T07:21:16.638Z</time></trkpt><trkpt lat="43.2364995" lon="12.1555909"><ele>479.0</ele><time>2026-04-12T07:21:17.641Z</time></trkpt><trkpt lat="43.2364269" lon="12.1555887"><ele>483.16666666666663</ele><time>2026-04-12T07:21:18.652Z</time></trkpt><trkpt lat="43.2363539" lon="12.1555558"><ele>487.3333333333333</ele><time>2026-04-12T07:21:19.638Z</time></trkpt><trkpt lat="43.2362708" lon="12.1554873"><ele>491.5</ele><time>2026-04-12T07:21:20.645Z</time></trkpt><trkpt lat="43.2361967" lon="12.1554194"><ele>495.66666666666663</ele><time>2026-04-12T07:21:21.638Z</time></trkpt><trkpt lat="43.236132" lon="12.1553794"><ele>499.8333333333333</ele><time>2026-04-12T07:21:22.635Z</time></trkpt><trkpt lat="43.2360359" lon="12.1553801"><ele>504.0</ele><time>2026-04-12T07:21:24.635Z</time></trkpt><trkpt lat="43.2359527" lon="12.1554355"><ele>504.0</ele><time>2026-04-12T07:21:26.632Z</time></trkpt><trkpt lat="43.2358698" lon="12.1554336"><ele>504.0</ele><time>2026-04-12T07:21:28.648Z</time></trkpt><trkpt lat="43.2358295" lon="12.1553113"><ele>504.0</ele><time>2026-04-12T07:21:30.647Z</time></trkpt><trkpt lat="43.2358004" lon="12.1552195"><ele>504.0</ele><time>2026-04-12T07:21:32.646Z</time></trkpt><trkpt lat="43.2357352" lon="12.1552772"><ele>504.0</ele><time>2026-04-12T07:21:35.644Z</time></trkpt><trkpt lat="43.2356927" lon="12.1553849"><ele>504.0</ele><time>2026-04-12T07:21:36.634Z</time></trkpt><trkpt lat="43.2356508" lon="12.1554691"><ele>509.42857142857144</ele><time>2026-04-12T07:21:37.634Z</time></trkpt><trkpt lat="43.2356013" lon="12.1555417"><ele>514.8571428571429</ele><time>2026-04-12T07:21:38.632Z</time></trkpt><trkpt lat="43.235553" lon="12.15561"><ele>520.2857142857142</ele><time>2026-04-12T07:21:39.633Z</time></trkpt><trkpt lat="43.2355034" lon="12.1556799"><ele>525.7142857142858</ele><time>2026-04-12T07:21:40.634Z</time></trkpt><trkpt lat="43.2354565" lon="12.1557462"><ele>531.1428571428571</ele><time>2026-04-12T07:21:41.636Z</time></trkpt><trkpt lat="43.2354053" lon="12.1558015"><ele>536.5714285714286</ele><time>2026-04-12T07:21:42.636Z</time></trkpt><trkpt lat="43.2353436" lon="12.1558506"><ele>542.0</ele><time>2026-04-12T07:21:43.634Z</time></trkpt><trkpt lat="43.2352729" lon="12.1558955"><ele>542.0</ele><time>2026-04-12T07:21:44.634Z</time></trkpt><trkpt lat="43.2352055" lon="12.1559271"><ele>542.0</ele><time>2026-04-12T07:21:45.635Z</time></trkpt><trkpt lat="43.2350955" lon="12.1559206"><ele>542.0</ele><time>2026-04-12T07:21:47.637Z</time></trkpt><trkpt lat="43.2350544" lon="12.1557604"><ele>542.0</ele><time>2026-04-12T07:21:49.663Z</time></trkpt><trkpt lat="43.2350526" lon="12.1556689"><ele>542.0</ele><time>2026-04-12T07:21:50.63Z</time></trkpt><trkpt lat="43.2350399" lon="12.1555743"><ele>542.0</ele><time>2026-04-12T07:21:51.631Z</time></trkpt><trkpt lat="43.2350335" lon="12.1554795"><ele>544.4</ele><time>2026-04-12T07:21:52.633Z</time></trkpt><trkpt lat="43.2350514" lon="12.1553158"><ele>546.8000000000001</ele><time>2026-04-12T07:21:54.638Z</time></trkpt><trkpt lat="43.235076" lon="12.1551628"><ele>549.2</ele><time>2026-04-12T07:21:56.638Z</time></trkpt><trkpt lat="43.2350993" lon="12.1549909"><ele>551.6</ele><time>2026-04-12T07:21:58.639Z</time></trkpt><trkpt lat="43.2351082" lon="12.1548911"><ele>554.0</ele><time>2026-04-12T07:21:59.639Z</time></trkpt><trkpt lat="43.2351072" lon="12.1547943"><ele>554.2</ele><time>2026-04-12T07:22:00.639Z</time></trkpt><trkpt lat="43.2350787" lon="12.1546572"><ele>554.4</ele><time>2026-04-12T07:22:02.637Z</time></trkpt><trkpt lat="43.2349975" lon="12.1545668"><ele>554.6</ele><time>2026-04-12T07:22:04.637Z</time></trkpt><trkpt lat="43.2349018" lon="12.1544616"><ele>554.8</ele><time>2026-04-12T07:22:06.636Z</time></trkpt><trkpt lat="43.2348681" lon="12.1543829"><ele>555.0</ele><time>2026-04-12T07:22:07.64Z</time></trkpt><trkpt lat="43.2348229" lon="12.15426"><ele>559.6666666666666</ele><time>2026-04-12T07:22:09.65Z</time></trkpt><trkpt lat="43.2347543" lon="12.1542395"><ele>564.3333333333334</ele><time>2026-04-12T07:22:11.648Z</time></trkpt><trkpt lat="43.2346423" lon="12.1542428"><ele>569.0</ele><time>2026-04-12T07:22:13.638Z</time></trkpt><trkpt lat="43.2345753" lon="12.1542584"><ele>573.6666666666667</ele><time>2026-04-12T07:22:14.645Z</time></trkpt><trkpt lat="43.234502" lon="12.1542814"><ele>578.3333333333334</ele><time>2026-04-12T07:22:15.633Z</time></trkpt><trkpt lat="43.2344198" lon="12.154299"><ele>583.0</ele><time>2026-04-12T07:22:16.631Z</time></trkpt><trkpt lat="43.2343453" lon="12.1543"><ele>583.0</ele><time>2026-04-12T07:22:17.637Z</time></trkpt><trkpt lat="43.2342325" lon="12.154209"><ele>583.0</ele><time>2026-04-12T07:22:19.637Z</time></trkpt><trkpt lat="43.2341782" lon="12.1541381"><ele>583.0</ele><time>2026-04-12T07:22:20.655Z</time></trkpt><trkpt lat="43.2340818" lon="12.1540871"><ele>583.0</ele><time>2026-04-12T07:22:22.639Z</time></trkpt><trkpt lat="43.2340135" lon="12.1542281"><ele>583.0</ele><time>2026-04-12T07:22:25.648Z</time></trkpt><trkpt lat="43.2340022" lon="12.1544125"><ele>583.0</ele><time>2026-04-12T07:22:27.657Z</time></trkpt><trkpt lat="43.2340202" lon="12.1545189"><ele>583.0</ele><time>2026-04-12T07:22:28.635Z</time></trkpt><trkpt lat="43.2340527" lon="12.1546196"><ele>583.0</ele><time>2026-04-12T07:22:29.633Z</time></trkpt><trkpt lat="43.234088" lon="12.1547181"><ele>583.0</ele><time>2026-04-12T07:22:30.636Z</time></trkpt><trkpt lat="43.2341212" lon="12.154812"><ele>583.0</ele><time>2026-04-12T07:22:31.637Z</time></trkpt><trkpt lat="43.2341464" lon="12.1549045"><ele>583.0</ele><time>2026-04-12T07:22:32.634Z</time></trkpt><trkpt lat="43.2341663" lon="12.1550011"><ele>584.0</ele><time>2026-04-12T07:22:33.642Z</time></trkpt><trkpt lat="43.234171" lon="12.1550972"><ele>585.0</ele><time>2026-04-12T07:22:34.637Z</time></trkpt><trkpt lat="43.2341264" lon="12.1552469"><ele>586.0</ele><time>2026-04-12T07:22:36.637Z</time></trkpt><trkpt lat="43.234011" lon="12.1553406"><ele>587.0</ele><time>2026-04-12T07:22:38.635Z</time></trkpt><trkpt lat="43.2339311" lon="12.1553773"><ele>588.0</ele><time>2026-04-12T07:22:39.647Z</time></trkpt><trkpt lat="43.2338431" lon="12.1554101"><ele>592.5</ele><time>2026-04-12T07:22:40.636Z</time></trkpt><trkpt lat="43.2337426" lon="12.1554348"><ele>597.0</ele><time>2026-04-12T07:22:41.64Z</time></trkpt><trkpt lat="43.2336421" lon="12.1554372"><ele>601.5</ele><time>2026-04-12T07:22:42.641Z</time></trkpt><trkpt lat="43.2335547" lon="12.1554126"><ele>606.0</ele><time>2026-04-12T07:22:43.642Z</time></trkpt><trkpt lat="43.2334976" lon="12.1553573"><ele>610.5</ele><time>2026-04-12T07:22:44.644Z</time></trkpt><trkpt lat="43.2334642" lon="12.1552698"><ele>615.0</ele><time>2026-04-12T07:22:45.639Z</time></trkpt><trkpt lat="43.233434" lon="12.1551694"><ele>615.0</ele><time>2026-04-12T07:22:46.646Z</time></trkpt><trkpt lat="43.233398" lon="12.1550929"><ele>615.0</ele><time>2026-04-12T07:22:47.641Z</time></trkpt><trkpt lat="43.2333183" lon="12.1550545"><ele>615.0</ele><time>2026-04-12T07:22:49.643Z</time></trkpt><trkpt lat="43.2332161" lon="12.1551317"><ele>615.0</ele><time>2026-04-12T07:22:51.668Z</time></trkpt><trkpt lat="43.2331482" lon="12.1551338"><ele>615.0</ele><time>2026-04-12T07:22:52.639Z</time></trkpt><trkpt lat="43.2330696" lon="12.1551152"><ele>615.0</ele><time>2026-04-12T07:22:53.637Z</time></trkpt><trkpt lat="43.2329807" lon="12.1550933"><ele>618.5</ele><time>2026-04-12T07:22:54.637Z</time></trkpt><trkpt lat="43.2328946" lon="12.1550719"><ele>622.0</ele><time>2026-04-12T07:22:55.64Z</time></trkpt><trkpt lat="43.2328092" lon="12.1550494"><ele>625.5</ele><time>2026-04-12T07:22:56.634Z</time></trkpt><trkpt lat="43.2327201" lon="12.1550341"><ele>629.0</ele><time>2026-04-12T07:22:57.634Z</time></trkpt><trkpt lat="43.2326279" lon="12.1550158"><ele>632.5</ele><time>2026-04-12T07:22:58.643Z</time></trkpt><trkpt lat="43.23254" lon="12.154997"><ele>636.0</ele><time>2026-04-12T07:22:59.635Z</time></trkpt><trkpt lat="43.2324502" lon="12.154987"><ele>636.0</ele><time>2026-04-12T07:23:00.627Z</time></trkpt><trkpt lat="43.2323673" lon="12.1549871"><ele>636.0</ele><time>2026-04-12T07:23:01.627Z</time></trkpt><trkpt lat="43.2322973" lon="12.1549958"><ele>636.0</ele><time>2026-04-12T07:23:02.624Z</time></trkpt><trkpt lat="43.2322365" lon="12.1550248"><ele>636.0</ele><time>2026-04-12T07:23:03.623Z</time></trkpt><trkpt lat="43.2321616" lon="12.1551284"><ele>636.0</ele><time>2026-04-12T07:23:05.633Z</time></trkpt><trkpt lat="43.2321624" lon="12.1552709"><ele>636.0</ele><time>2026-04-12T07:23:07.633Z</time></trkpt><trkpt lat="43.2321612" lon="12.1554404"><ele>636.8333333333334</ele><time>2026-04-12T07:23:09.63Z</time></trkpt><trkpt lat="43.2321498" lon="12.1555446"><ele>637.6666666666666</ele><time>2026-04-12T07:23:10.637Z</time></trkpt><trkpt lat="43.2321435" lon="12.1556839"><ele>638.5</ele><time>2026-04-12T07:23:11.634Z</time></trkpt><trkpt lat="43.2321323" lon="12.1558065"><ele>639.3333333333333</ele><time>2026-04-12T07:23:12.642Z</time></trkpt><trkpt lat="43.2321063" lon="12.1559013"><ele>640.1666666666666</ele><time>2026-04-12T07:23:13.641Z</time></trkpt><trkpt lat="43.2320513" lon="12.1559607"><ele>641.0</ele><time>2026-04-12T07:23:14.64Z</time></trkpt><trkpt lat="43.2319713" lon="12.155981"><ele>641.0</ele><time>2026-04-12T07:23:15.641Z</time></trkpt><trkpt lat="43.2318818" lon="12.1559671"><ele>641.0</ele><time>2026-04-12T07:23:16.635Z</time></trkpt><trkpt lat="43.2317881" lon="12.1559401"><ele>641.0</ele><time>2026-04-12T07:23:17.646Z</time></trkpt><trkpt lat="43.2316934" lon="12.1559106"><ele>641.0</ele><time>2026-04-12T07:23:18.638Z</time></trkpt><trkpt lat="43.2315914" lon="12.1558745"><ele>641.0</ele><time>2026-04-12T07:23:19.641Z</time></trkpt><trkpt lat="43.2314787" lon="12.1558224"><ele>643.0</ele><time>2026-04-12T07:23:20.638Z</time></trkpt><trkpt lat="43.2313652" lon="12.1557608"><ele>645.0</ele><time>2026-04-12T07:23:21.632Z</time></trkpt><trkpt lat="43.2312676" lon="12.1556999"><ele>647.0</ele><time>2026-04-12T07:23:22.647Z</time></trkpt><trkpt lat="43.2311894" lon="12.1556543"><ele>649.0</ele><time>2026-04-12T07:23:23.636Z</time></trkpt><trkpt lat="43.2311227" lon="12.1556306"><ele>651.0</ele><time>2026-04-12T07:23:24.64Z</time></trkpt><trkpt lat="43.2310316" lon="12.1556469"><ele>651.0</ele><time>2026-04-12T07:23:26.639Z</time></trkpt><trkpt lat="43.2310095" lon="12.1558231"><ele>651.0</ele><time>2026-04-12T07:23:28.655Z</time></trkpt><trkpt lat="43.2310243" lon="12.1559739"><ele>651.0</ele><time>2026-04-12T07:23:29.649Z</time></trkpt><trkpt lat="43.2310476" lon="12.1561489"><ele>651.0</ele><time>2026-04-12T07:23:30.635Z</time></trkpt><trkpt lat="43.2310584" lon="12.1563021"><ele>651.0</ele><time>2026-04-12T07:23:31.638Z</time></trkpt><trkpt lat="43.2310696" lon="12.1564484"><ele>651.0</ele><time>2026-04-12T07:23:32.635Z</time></trkpt><trkpt lat="43.2310807" lon="12.1565848"><ele>651.0</ele><time>2026-04-12T07:23:33.64Z</time></trkpt><trkpt lat="43.2310844" lon="12.1567145"><ele>651.0</ele><time>2026-04-12T07:23:34.634Z</time></trkpt><trkpt lat="43.2310769" lon="12.1568351"><ele>651.0</ele><time>2026-04-12T07:23:35.636Z</time></trkpt><trkpt lat="43.2310535" lon="12.1569435"><ele>650.6666666666666</ele><time>2026-04-12T07:23:36.641Z</time></trkpt><trkpt lat="43.2310129" lon="12.157028"><ele>650.3333333333334</ele><time>2026-04-12T07:23:37.636Z</time></trkpt><trkpt lat="43.2309554" lon="12.1570984"><ele>650.0</ele><time>2026-04-12T07:23:38.635Z</time></trkpt><trkpt lat="43.2308911" lon="12.157158"><ele>649.6666666666667</ele><time>2026-04-12T07:23:39.646Z</time></trkpt><trkpt lat="43.2308207" lon="12.1572141"><ele>649.3333333333334</ele><time>2026-04-12T07:23:40.635Z</time></trkpt><trkpt lat="43.230742" lon="12.1572745"><ele>649.0</ele><time>2026-04-12T07:23:41.638Z</time></trkpt><trkpt lat="43.2306529" lon="12.1573338"><ele>648.2</ele><time>2026-04-12T07:23:42.639Z</time></trkpt><trkpt lat="43.230554" lon="12.1573934"><ele>647.4000000000001</ele><time>2026-04-12T07:23:43.635Z</time></trkpt><trkpt lat="43.2304554" lon="12.1574579"><ele>646.6</ele><time>2026-04-12T07:23:44.639Z</time></trkpt><trkpt lat="43.230365" lon="12.1575251"><ele>645.8</ele><time>2026-04-12T07:23:45.637Z</time></trkpt><trkpt lat="43.230284" lon="12.1575943"><ele>645.0</ele><time>2026-04-12T07:23:46.638Z</time></trkpt><trkpt lat="43.2302145" lon="12.1576577"><ele>645.0</ele><time>2026-04-12T07:23:47.642Z</time></trkpt><trkpt lat="43.2301573" lon="12.1577205"><ele>645.0</ele><time>2026-04-12T07:23:48.643Z</time></trkpt><trkpt lat="43.2300673" lon="12.1578153"><ele>645.0</ele><time>2026-04-12T07:23:50.641Z</time></trkpt><trkpt lat="43.2300111" lon="12.1578728"><ele>645.0</ele><time>2026-04-12T07:23:52.643Z</time></trkpt><trkpt lat="43.2299802" lon="12.1577701"><ele>645.0</ele><time>2026-04-12T07:26:11.67Z</time></trkpt><trkpt lat="43.2299653" lon="12.1576609"><ele>645.0</ele><time>2026-04-12T07:26:12.654Z</time></trkpt><trkpt lat="43.2299669" lon="12.157538"><ele>645.0</ele><time>2026-04-12T07:26:13.657Z</time></trkpt><trkpt lat="43.2299757" lon="12.1574041"><ele>645.0</ele><time>2026-04-12T07:26:14.657Z</time></trkpt><trkpt lat="43.2299835" lon="12.157273"><ele>645.0</ele><time>2026-04-12T07:26:15.653Z</time></trkpt><trkpt lat="43.229989" lon="12.1571422"><ele>645.0</ele><time>2026-04-12T07:26:16.655Z</time></trkpt><trkpt lat="43.22999" lon="12.1570175"><ele>645.0</ele><time>2026-04-12T07:26:17.656Z</time></trkpt><trkpt lat="43.2299912" lon="12.156908"><ele>646.5714285714286</ele><time>2026-04-12T07:26:18.653Z</time></trkpt><trkpt lat="43.229994" lon="12.1568095"><ele>648.1428571428571</ele><time>2026-04-12T07:26:19.659Z</time></trkpt><trkpt lat="43.2300011" lon="12.1567155"><ele>649.7142857142857</ele><time>2026-04-12T07:26:20.649Z</time></trkpt><trkpt lat="43.2300095" lon="12.1566128"><ele>651.2857142857142</ele><time>2026-04-12T07:26:21.65Z</time></trkpt><trkpt lat="43.2300194" lon="12.1565115"><ele>652.8571428571429</ele><time>2026-04-12T07:26:22.65Z</time></trkpt><trkpt lat="43.2300397" lon="12.1564095"><ele>654.4285714285713</ele><time>2026-04-12T07:26:23.657Z</time></trkpt><trkpt lat="43.230064" lon="12.1563033"><ele>656.0</ele><time>2026-04-12T07:26:24.649Z</time></trkpt><trkpt lat="43.2300962" lon="12.156203"><ele>656.0</ele><time>2026-04-12T07:26:25.655Z</time></trkpt><trkpt lat="43.2301276" lon="12.1561017"><ele>656.0</ele><time>2026-04-12T07:26:26.649Z</time></trkpt><trkpt lat="43.2301554" lon="12.1559915"><ele>656.0</ele><time>2026-04-12T07:26:27.669Z</time></trkpt><trkpt lat="43.2301828" lon="12.1558687"><ele>656.0</ele><time>2026-04-12T07:26:28.651Z</time></trkpt><trkpt lat="43.2302101" lon="12.155737"><ele>656.0</ele><time>2026-04-12T07:26:29.654Z</time></trkpt><trkpt lat="43.2302334" lon="12.1556055"><ele>655.3333333333333</ele><time>2026-04-12T07:26:30.656Z</time></trkpt><trkpt lat="43.2302626" lon="12.1554787"><ele>654.6666666666666</ele><time>2026-04-12T07:26:31.658Z</time></trkpt><trkpt lat="43.23029" lon="12.1553563"><ele>654.0</ele><time>2026-04-12T07:26:32.657Z</time></trkpt><trkpt lat="43.2303153" lon="12.1552425"><ele>653.3333333333334</ele><time>2026-04-12T07:26:33.654Z</time></trkpt><trkpt lat="43.2303379" lon="12.1551389"><ele>652.6666666666667</ele><time>2026-04-12T07:26:34.654Z</time></trkpt><trkpt lat="43.2303571" lon="12.1550456"><ele>652.0</ele><time>2026-04-12T07:26:35.659Z</time></trkpt><trkpt lat="43.2303746" lon="12.1549567"><ele>653.4000000000001</ele><time>2026-04-12T07:26:36.652Z</time></trkpt><trkpt lat="43.2304279" lon="12.1548076"><ele>654.8000000000001</ele><time>2026-04-12T07:26:38.664Z</time></trkpt><trkpt lat="43.2305465" lon="12.1547538"><ele>656.2</ele><time>2026-04-12T07:26:40.649Z</time></trkpt><trkpt lat="43.2306381" lon="12.1547403"><ele>657.6</ele><time>2026-04-12T07:26:41.649Z</time></trkpt><trkpt lat="43.2307367" lon="12.1547325"><ele>659.0</ele><time>2026-04-12T07:26:42.65Z</time></trkpt><trkpt lat="43.2308361" lon="12.1547419"><ele>658.2</ele><time>2026-04-12T07:26:43.65Z</time></trkpt><trkpt lat="43.2309279" lon="12.1547687"><ele>657.4000000000001</ele><time>2026-04-12T07:26:44.651Z</time></trkpt><trkpt lat="43.2310204" lon="12.154798"><ele>656.6</ele><time>2026-04-12T07:26:45.647Z</time></trkpt><trkpt lat="43.2311207" lon="12.1548297"><ele>655.8</ele><time>2026-04-12T07:26:46.647Z</time></trkpt><trkpt lat="43.2312355" lon="12.1548624"><ele>655.0</ele><time>2026-04-12T07:26:47.647Z</time></trkpt><trkpt lat="43.2313459" lon="12.1548828"><ele>655.0</ele><time>2026-04-12T07:26:48.649Z</time></trkpt><trkpt lat="43.2314411" lon="12.1548898"><ele>655.0</ele><time>2026-04-12T07:26:49.638Z</time></trkpt><trkpt lat="43.2315222" lon="12.1548816"><ele>655.0</ele><time>2026-04-12T07:26:50.665Z</time></trkpt><trkpt lat="43.2315847" lon="12.1548446"><ele>655.0</ele><time>2026-04-12T07:26:51.648Z</time></trkpt><trkpt lat="43.2316323" lon="12.154777"><ele>655.0</ele><time>2026-04-12T07:26:52.639Z</time></trkpt><trkpt lat="43.2316685" lon="12.1546905"><ele>655.0</ele><time>2026-04-12T07:26:53.649Z</time></trkpt><trkpt lat="43.2317049" lon="12.154575"><ele>655.1666666666667</ele><time>2026-04-12T07:26:54.637Z</time></trkpt><trkpt lat="43.2317248" lon="12.1544681"><ele>655.3333333333334</ele><time>2026-04-12T07:26:55.639Z</time></trkpt><trkpt lat="43.231772" lon="12.154371"><ele>655.5</ele><time>2026-04-12T07:26:57.645Z</time></trkpt><trkpt lat="43.2318468" lon="12.1543444"><ele>655.6666666666666</ele><time>2026-04-12T07:26:59.639Z</time></trkpt><trkpt lat="43.2318351" lon="12.1542014"><ele>655.8333333333333</ele><time>2026-04-12T07:27:02.654Z</time></trkpt><trkpt lat="43.2317809" lon="12.1541193"><ele>656.0</ele><time>2026-04-12T07:27:03.635Z</time></trkpt><trkpt lat="43.2317356" lon="12.1540298"><ele>655.1666666666666</ele><time>2026-04-12T07:27:04.635Z</time></trkpt><trkpt lat="43.2317116" lon="12.1539445"><ele>654.3333333333333</ele><time>2026-04-12T07:27:05.638Z</time></trkpt><trkpt lat="43.2317035" lon="12.1538569"><ele>653.5</ele><time>2026-04-12T07:27:06.643Z</time></trkpt><trkpt lat="43.2317109" lon="12.153768"><ele>652.6666666666666</ele><time>2026-04-12T07:27:07.641Z</time></trkpt><trkpt lat="43.2317163" lon="12.1536801"><ele>651.8333333333334</ele><time>2026-04-12T07:27:08.642Z</time></trkpt><trkpt lat="43.2316859" lon="12.1535091"><ele>651.0</ele><time>2026-04-12T07:27:10.643Z</time></trkpt><trkpt lat="43.2316539" lon="12.1534144"><ele>651.0</ele><time>2026-04-12T07:27:11.64Z</time></trkpt><trkpt lat="43.2316224" lon="12.1533293"><ele>651.0</ele><time>2026-04-12T07:27:12.644Z</time></trkpt><trkpt lat="43.2315733" lon="12.1531777"><ele>651.0</ele><time>2026-04-12T07:27:14.642Z</time></trkpt><trkpt lat="43.2315401" lon="12.1530279"><ele>651.0</ele><time>2026-04-12T07:27:16.639Z</time></trkpt><trkpt lat="43.2315689" lon="12.152882"><ele>651.0</ele><time>2026-04-12T07:27:18.645Z</time></trkpt><trkpt lat="43.2316491" lon="12.1527864"><ele>651.5999999999999</ele><time>2026-04-12T07:27:20.662Z</time></trkpt><trkpt lat="43.2317115" lon="12.152682"><ele>652.2</ele><time>2026-04-12T07:27:22.65Z</time></trkpt><trkpt lat="43.2317637" lon="12.1525852"><ele>652.8</ele><time>2026-04-12T07:27:24.65Z</time></trkpt><trkpt lat="43.2318803" lon="12.1525675"><ele>653.4000000000001</ele><time>2026-04-12T07:27:27.651Z</time></trkpt><trkpt lat="43.2319874" lon="12.1525314"><ele>654.0</ele><time>2026-04-12T07:27:29.557Z</time></trkpt><trkpt lat="43.2320744" lon="12.1524803"><ele>654.0</ele><time>2026-04-12T07:27:30.645Z</time></trkpt><trkpt lat="43.2321631" lon="12.1524054"><ele>654.0</ele><time>2026-04-12T07:27:31.642Z</time></trkpt><trkpt lat="43.2322471" lon="12.1523267"><ele>654.0</ele><time>2026-04-12T07:27:32.638Z</time></trkpt><trkpt lat="43.2323202" lon="12.1522382"><ele>654.0</ele><time>2026-04-12T07:27:33.639Z</time></trkpt><trkpt lat="43.2323831" lon="12.1521615"><ele>654.0</ele><time>2026-04-12T07:27:34.648Z</time></trkpt><trkpt lat="43.2324368" lon="12.1520964"><ele>652.4000000000001</ele><time>2026-04-12T07:27:35.641Z</time></trkpt><trkpt lat="43.2325055" lon="12.151968"><ele>650.8</ele><time>2026-04-12T07:27:37.637Z</time></trkpt><trkpt lat="43.2325182" lon="12.1518509"><ele>649.2</ele><time>2026-04-12T07:27:39.642Z</time></trkpt><trkpt lat="43.2324984" lon="12.1516834"><ele>647.5999999999999</ele><time>2026-04-12T07:27:41.64Z</time></trkpt><trkpt lat="43.2324803" lon="12.1515861"><ele>646.0</ele><time>2026-04-12T07:27:42.642Z</time></trkpt><trkpt lat="43.2324566" lon="12.1514863"><ele>646.0</ele><time>2026-04-12T07:27:43.646Z</time></trkpt><trkpt lat="43.2324292" lon="12.1513996"><ele>646.0</ele><time>2026-04-12T07:27:44.641Z</time></trkpt><trkpt lat="43.2323631" lon="12.1512783"><ele>646.0</ele><time>2026-04-12T07:27:46.64Z</time></trkpt><trkpt lat="43.2323146" lon="12.1511814"><ele>646.0</ele><time>2026-04-12T07:27:48.652Z</time></trkpt><trkpt lat="43.232324" lon="12.1510807"><ele>646.0</ele><time>2026-04-12T07:27:50.65Z</time></trkpt><trkpt lat="43.2323921" lon="12.1510009"><ele>646.0</ele><time>2026-04-12T07:27:52.648Z</time></trkpt><trkpt lat="43.2324672" lon="12.1509584"><ele>646.0</ele><time>2026-04-12T07:27:54.65Z</time></trkpt><trkpt lat="43.2325461" lon="12.1509336"><ele>646.0</ele><time>2026-04-12T07:27:56.646Z</time></trkpt><trkpt lat="43.23261" lon="12.1508541"><ele>646.0</ele><time>2026-04-12T07:27:57.649Z</time></trkpt><trkpt lat="43.2326607" lon="12.1507853"><ele>646.0</ele><time>2026-04-12T07:27:58.652Z</time></trkpt><trkpt lat="43.2327586" lon="12.1506507"><ele>646.0</ele><time>2026-04-12T07:28:00.664Z</time></trkpt><trkpt lat="43.2328603" lon="12.1506021"><ele>647.1999999999999</ele><time>2026-04-12T07:28:02.65Z</time></trkpt><trkpt lat="43.2329738" lon="12.1505963"><ele>648.4</ele><time>2026-04-12T07:28:04.648Z</time></trkpt><trkpt lat="43.233066" lon="12.1505351"><ele>649.6</ele><time>2026-04-12T07:28:06.634Z</time></trkpt><trkpt lat="43.233143" lon="12.1503827"><ele>650.8</ele><time>2026-04-12T07:28:08.637Z</time></trkpt><trkpt lat="43.233189" lon="12.1502878"><ele>652.0</ele><time>2026-04-12T07:28:09.639Z</time></trkpt><trkpt lat="43.233241" lon="12.1501963"><ele>647.8333333333334</ele><time>2026-04-12T07:28:10.642Z</time></trkpt><trkpt lat="43.2333042" lon="12.1501045"><ele>643.6666666666667</ele><time>2026-04-12T07:28:11.641Z</time></trkpt><trkpt lat="43.2333733" lon="12.1500291"><ele>639.5</ele><time>2026-04-12T07:28:12.642Z</time></trkpt><trkpt lat="43.2334439" lon="12.1499706"><ele>635.3333333333334</ele><time>2026-04-12T07:28:13.648Z</time></trkpt><trkpt lat="43.2335047" lon="12.1499204"><ele>631.1666666666666</ele><time>2026-04-12T07:28:14.642Z</time></trkpt><trkpt lat="43.2335582" lon="12.1498633"><ele>627.0</ele><time>2026-04-12T07:28:15.643Z</time></trkpt><trkpt lat="43.2336109" lon="12.1498025"><ele>626.3333333333334</ele><time>2026-04-12T07:28:16.643Z</time></trkpt><trkpt lat="43.2336557" lon="12.1497332"><ele>625.6666666666666</ele><time>2026-04-12T07:28:17.644Z</time></trkpt><trkpt lat="43.2337016" lon="12.1496677"><ele>625.0</ele><time>2026-04-12T07:28:18.654Z</time></trkpt><trkpt lat="43.2337792" lon="12.1495795"><ele>624.3333333333333</ele><time>2026-04-12T07:28:20.645Z</time></trkpt><trkpt lat="43.2338766" lon="12.1495431"><ele>623.6666666666666</ele><time>2026-04-12T07:28:22.648Z</time></trkpt><trkpt lat="43.2339833" lon="12.1495378"><ele>623.0</ele><time>2026-04-12T07:28:24.649Z</time></trkpt><trkpt lat="43.2340465" lon="12.1495392"><ele>621.1428571428571</ele><time>2026-04-12T07:28:25.659Z</time></trkpt><trkpt lat="43.2341152" lon="12.1495385"><ele>619.2857142857142</ele><time>2026-04-12T07:28:26.649Z</time></trkpt><trkpt lat="43.2341901" lon="12.1495291"><ele>617.4285714285714</ele><time>2026-04-12T07:28:27.651Z</time></trkpt><trkpt lat="43.2342652" lon="12.1495122"><ele>615.5714285714286</ele><time>2026-04-12T07:28:28.653Z</time></trkpt><trkpt lat="43.2343339" lon="12.1494984"><ele>613.7142857142857</ele><time>2026-04-12T07:28:29.65Z</time></trkpt><trkpt lat="43.2343985" lon="12.1495"><ele>611.8571428571429</ele><time>2026-04-12T07:28:30.656Z</time></trkpt><trkpt lat="43.2344658" lon="12.1495208"><ele>610.0</ele><time>2026-04-12T07:28:31.662Z</time></trkpt><trkpt lat="43.2345398" lon="12.1495521"><ele>610.0</ele><time>2026-04-12T07:28:32.646Z</time></trkpt><trkpt lat="43.2346247" lon="12.1495883"><ele>610.0</ele><time>2026-04-12T07:28:33.659Z</time></trkpt><trkpt lat="43.2347116" lon="12.1496186"><ele>610.0</ele><time>2026-04-12T07:28:34.649Z</time></trkpt><trkpt lat="43.2347977" lon="12.149641"><ele>610.0</ele><time>2026-04-12T07:28:35.651Z</time></trkpt><trkpt lat="43.2348805" lon="12.1496615"><ele>610.0</ele><time>2026-04-12T07:28:36.65Z</time></trkpt><trkpt lat="43.234956" lon="12.1496865"><ele>610.0</ele><time>2026-04-12T07:28:37.648Z</time></trkpt><trkpt lat="43.2350197" lon="12.1497124"><ele>609.3333333333334</ele><time>2026-04-12T07:28:38.647Z</time></trkpt><trkpt lat="43.2350782" lon="12.1497529"><ele>608.6666666666667</ele><time>2026-04-12T07:28:39.657Z</time></trkpt><trkpt lat="43.2351302" lon="12.1498076"><ele>608.0</ele><time>2026-04-12T07:28:40.65Z</time></trkpt><trkpt lat="43.235183" lon="12.1498657"><ele>607.3333333333334</ele><time>2026-04-12T07:28:41.65Z</time></trkpt><trkpt lat="43.2352385" lon="12.1499186"><ele>606.6666666666666</ele><time>2026-04-12T07:28:42.655Z</time></trkpt><trkpt lat="43.2353433" lon="12.1499862"><ele>606.0</ele><time>2026-04-12T07:28:44.658Z</time></trkpt><trkpt lat="43.2354469" lon="12.150012"><ele>606.0</ele><time>2026-04-12T07:28:46.649Z</time></trkpt><trkpt lat="43.2355101" lon="12.1501018"><ele>606.0</ele><time>2026-04-12T07:28:48.654Z</time></trkpt><trkpt lat="43.2355577" lon="12.150222"><ele>606.0</ele><time>2026-04-12T07:28:50.657Z</time></trkpt><trkpt lat="43.2356128" lon="12.1503145"><ele>606.0</ele><time>2026-04-12T07:28:52.657Z</time></trkpt><trkpt lat="43.2357096" lon="12.1503339"><ele>606.0</ele><time>2026-04-12T07:28:54.672Z</time></trkpt><trkpt lat="43.2358264" lon="12.1503518"><ele>601.2</ele><time>2026-04-12T07:28:56.645Z</time></trkpt><trkpt lat="43.2359295" lon="12.1504143"><ele>596.4000000000001</ele><time>2026-04-12T07:28:58.658Z</time></trkpt><trkpt lat="43.2360272" lon="12.1504695"><ele>591.6</ele><time>2026-04-12T07:29:00.666Z</time></trkpt><trkpt lat="43.2361133" lon="12.1504548"><ele>586.8000000000001</ele><time>2026-04-12T07:29:02.661Z</time></trkpt><trkpt lat="43.2361779" lon="12.1503787"><ele>582.0</ele><time>2026-04-12T07:29:04.665Z</time></trkpt><trkpt lat="43.2362774" lon="12.1503529"><ele>582.0</ele><time>2026-04-12T07:29:06.642Z</time></trkpt><trkpt lat="43.236407" lon="12.1503629"><ele>582.0</ele><time>2026-04-12T07:29:08.645Z</time></trkpt><trkpt lat="43.2364745" lon="12.1503734"><ele>582.0</ele><time>2026-04-12T07:29:09.644Z</time></trkpt><trkpt lat="43.2365375" lon="12.1503937"><ele>582.0</ele><time>2026-04-12T07:29:10.648Z</time></trkpt><trkpt lat="43.2365984" lon="12.1504192"><ele>582.0</ele><time>2026-04-12T07:29:11.649Z</time></trkpt><trkpt lat="43.2366571" lon="12.1504536"><ele>582.0</ele><time>2026-04-12T07:29:12.649Z</time></trkpt><trkpt lat="43.2367613" lon="12.1505082"><ele>577.2</ele><time>2026-04-12T07:29:14.645Z</time></trkpt><trkpt lat="43.236873" lon="12.1505358"><ele>572.4000000000001</ele><time>2026-04-12T07:29:16.647Z</time></trkpt><trkpt lat="43.2369761" lon="12.1505224"><ele>567.5999999999999</ele><time>2026-04-12T07:29:18.643Z</time></trkpt><trkpt lat="43.2370704" lon="12.1504661"><ele>562.8</ele><time>2026-04-12T07:29:20.65Z</time></trkpt><trkpt lat="43.2371476" lon="12.1504083"><ele>558.0</ele><time>2026-04-12T07:29:22.661Z</time></trkpt><trkpt lat="43.2372203" lon="12.1503843"><ele>558.0</ele><time>2026-04-12T07:29:24.668Z</time></trkpt><trkpt lat="43.2372963" lon="12.1503683"><ele>558.0</ele><time>2026-04-12T07:29:26.674Z</time></trkpt><trkpt lat="43.2373663" lon="12.1503705"><ele>558.0</ele><time>2026-04-12T07:29:28.667Z</time></trkpt><trkpt lat="43.2374527" lon="12.1504074"><ele>558.0</ele><time>2026-04-12T07:29:30.663Z</time></trkpt><trkpt lat="43.2375191" lon="12.1503767"><ele>558.0</ele><time>2026-04-12T07:29:31.674Z</time></trkpt><trkpt lat="43.2376187" lon="12.1503095"><ele>558.0</ele><time>2026-04-12T07:29:33.593Z</time></trkpt><trkpt lat="43.2376908" lon="12.1503256"><ele>553.8333333333334</ele><time>2026-04-12T07:29:34.667Z</time></trkpt><trkpt lat="43.2377521" lon="12.1503533"><ele>549.6666666666666</ele><time>2026-04-12T07:29:35.658Z</time></trkpt><trkpt lat="43.2378089" lon="12.1503908"><ele>545.5</ele><time>2026-04-12T07:29:36.654Z</time></trkpt><trkpt lat="43.2379238" lon="12.1504391"><ele>541.3333333333333</ele><time>2026-04-12T07:29:38.65Z</time></trkpt><trkpt lat="43.2380546" lon="12.1504329"><ele>537.1666666666666</ele><time>2026-04-12T07:29:40.656Z</time></trkpt><trkpt lat="43.2381253" lon="12.1504266"><ele>533.0</ele><time>2026-04-12T07:29:41.654Z</time></trkpt><trkpt lat="43.2381919" lon="12.1504175"><ele>530.1666666666666</ele><time>2026-04-12T07:29:42.654Z</time></trkpt><trkpt lat="43.2382954" lon="12.1503874"><ele>527.3333333333333</ele><time>2026-04-12T07:29:44.66Z</time></trkpt><trkpt lat="43.2383595" lon="12.1503696"><ele>524.5</ele><time>2026-04-12T07:29:46.665Z</time></trkpt><trkpt lat="43.2384245" lon="12.1503519"><ele>521.6666666666666</ele><time>2026-04-12T07:29:48.669Z</time></trkpt><trkpt lat="43.238525" lon="12.1503088"><ele>518.8333333333334</ele><time>2026-04-12T07:29:50.656Z</time></trkpt><trkpt lat="43.2386309" lon="12.1503111"><ele>516.0</ele><time>2026-04-12T07:29:52.653Z</time></trkpt><trkpt lat="43.2387459" lon="12.1502834"><ele>516.0</ele><time>2026-04-12T07:29:54.656Z</time></trkpt><trkpt lat="43.2388476" lon="12.1502678"><ele>516.0</ele><time>2026-04-12T07:29:56.655Z</time></trkpt><trkpt lat="43.2389329" lon="12.1502261"><ele>516.0</ele><time>2026-04-12T07:29:58.654Z</time></trkpt><trkpt lat="43.238995" lon="12.1501817"><ele>516.0</ele><time>2026-04-12T07:30:00.668Z</time></trkpt><trkpt lat="43.2390754" lon="12.1500814"><ele>516.0</ele><time>2026-04-12T07:30:02.664Z</time></trkpt><trkpt lat="43.2391452" lon="12.1499912"><ele>514.1666666666666</ele><time>2026-04-12T07:30:04.706Z</time></trkpt><trkpt lat="43.239178" lon="12.149912"><ele>512.3333333333334</ele><time>2026-04-12T07:30:06.636Z</time></trkpt><trkpt lat="43.2392047" lon="12.1498129"><ele>510.5</ele><time>2026-04-12T07:30:08.663Z</time></trkpt><trkpt lat="43.2392667" lon="12.149772"><ele>508.6666666666667</ele><time>2026-04-12T07:30:10.66Z</time></trkpt><trkpt lat="43.239343" lon="12.1497668"><ele>506.83333333333337</ele><time>2026-04-12T07:30:12.662Z</time></trkpt><trkpt lat="43.2394647" lon="12.1496999"><ele>505.0</ele><time>2026-04-12T07:30:14.648Z</time></trkpt><trkpt lat="43.2395318" lon="12.1496531"><ele>503.2857142857143</ele><time>2026-04-12T07:30:15.651Z</time></trkpt><trkpt lat="43.2395984" lon="12.1496046"><ele>501.57142857142856</ele><time>2026-04-12T07:30:16.648Z</time></trkpt><trkpt lat="43.2396611" lon="12.1495526"><ele>499.85714285714283</ele><time>2026-04-12T07:30:17.653Z</time></trkpt><trkpt lat="43.2397183" lon="12.1494967"><ele>498.1428571428571</ele><time>2026-04-12T07:30:18.648Z</time></trkpt><trkpt lat="43.2397723" lon="12.1494285"><ele>496.42857142857144</ele><time>2026-04-12T07:30:19.658Z</time></trkpt><trkpt lat="43.239819" lon="12.1493507"><ele>494.71428571428567</ele><time>2026-04-12T07:30:20.65Z</time></trkpt><trkpt lat="43.2398689" lon="12.1492648"><ele>493.0</ele><time>2026-04-12T07:30:21.649Z</time></trkpt><trkpt lat="43.2399168" lon="12.1491713"><ele>491.83333333333337</ele><time>2026-04-12T07:30:22.652Z</time></trkpt><trkpt lat="43.2399641" lon="12.1490832"><ele>490.6666666666667</ele><time>2026-04-12T07:30:23.657Z</time></trkpt><trkpt lat="43.2400134" lon="12.1489983"><ele>489.5</ele><time>2026-04-12T07:30:24.649Z</time></trkpt><trkpt lat="43.2400668" lon="12.1489205"><ele>488.33333333333337</ele><time>2026-04-12T07:30:25.66Z</time></trkpt><trkpt lat="43.2401198" lon="12.1488563"><ele>487.1666666666667</ele><time>2026-04-12T07:30:26.649Z</time></trkpt><trkpt lat="43.2401888" lon="12.1487457"><ele>486.0</ele><time>2026-04-12T07:30:28.648Z</time></trkpt><trkpt lat="43.2401073" lon="12.1486578"><ele>484.6666666666667</ele><time>2026-04-12T07:30:31.662Z</time></trkpt><trkpt lat="43.2400378" lon="12.1486454"><ele>483.33333333333337</ele><time>2026-04-12T07:30:32.645Z</time></trkpt><trkpt lat="43.2399658" lon="12.1486505"><ele>482.0</ele><time>2026-04-12T07:30:33.65Z</time></trkpt><trkpt lat="43.2398795" lon="12.1486688"><ele>480.6666666666667</ele><time>2026-04-12T07:30:34.659Z</time></trkpt><trkpt lat="43.2397861" lon="12.1486893"><ele>479.33333333333337</ele><time>2026-04-12T07:30:35.647Z</time></trkpt><trkpt lat="43.2396869" lon="12.1487016"><ele>478.0</ele><time>2026-04-12T07:30:36.651Z</time></trkpt><trkpt lat="43.2395978" lon="12.1487077"><ele>478.00000000000006</ele><time>2026-04-12T07:30:37.641Z</time></trkpt><trkpt lat="43.2395243" lon="12.1486996"><ele>478.0</ele><time>2026-04-12T07:30:38.641Z</time></trkpt><trkpt lat="43.2394235" lon="12.1486461"><ele>478.0</ele><time>2026-04-12T07:30:40.64Z</time></trkpt><trkpt lat="43.2393952" lon="12.1485178"><ele>478.0</ele><time>2026-04-12T07:30:42.655Z</time></trkpt><trkpt lat="43.2393976" lon="12.1484279"><ele>478.00000000000006</ele><time>2026-04-12T07:30:43.644Z</time></trkpt><trkpt lat="43.2394046" lon="12.1483286"><ele>478.0</ele><time>2026-04-12T07:30:44.643Z</time></trkpt><trkpt lat="43.2394074" lon="12.1482273"><ele>475.83333333333337</ele><time>2026-04-12T07:30:45.639Z</time></trkpt><trkpt lat="43.2394021" lon="12.1481279"><ele>473.6666666666667</ele><time>2026-04-12T07:30:46.652Z</time></trkpt><trkpt lat="43.2393853" lon="12.1480373"><ele>471.5</ele><time>2026-04-12T07:30:47.644Z</time></trkpt><trkpt lat="43.2393566" lon="12.1479594"><ele>469.33333333333337</ele><time>2026-04-12T07:30:48.641Z</time></trkpt><trkpt lat="43.2393315" lon="12.1478223"><ele>467.1666666666667</ele><time>2026-04-12T07:30:50.644Z</time></trkpt><trkpt lat="43.2393448" lon="12.1476942"><ele>465.0</ele><time>2026-04-12T07:30:52.65Z</time></trkpt><trkpt lat="43.2392999" lon="12.1476247"><ele>465.0</ele><time>2026-04-12T07:30:54.663Z</time></trkpt><trkpt lat="43.2392123" lon="12.1475975"><ele>465.0</ele><time>2026-04-12T07:30:56.655Z</time></trkpt><trkpt lat="43.2391125" lon="12.1474931"><ele>465.0</ele><time>2026-04-12T07:30:58.646Z</time></trkpt><trkpt lat="43.2390671" lon="12.1474243"><ele>465.0</ele><time>2026-04-12T07:30:59.644Z</time></trkpt><trkpt lat="43.2390293" lon="12.1473418"><ele>465.0</ele><time>2026-04-12T07:31:00.643Z</time></trkpt><trkpt lat="43.2390056" lon="12.1472495"><ele>465.0</ele><time>2026-04-12T07:31:01.644Z</time></trkpt><trkpt lat="43.2389798" lon="12.1471656"><ele>465.6666666666667</ele><time>2026-04-12T07:31:02.644Z</time></trkpt><trkpt lat="43.2389392" lon="12.1470279"><ele>466.33333333333337</ele><time>2026-04-12T07:31:04.642Z</time></trkpt><trkpt lat="43.2389291" lon="12.1469312"><ele>467.0</ele><time>2026-04-12T07:31:06.653Z</time></trkpt><trkpt lat="43.2389175" lon="12.1468417"><ele>467.6666666666667</ele><time>2026-04-12T07:31:08.538Z</time></trkpt><trkpt lat="43.2388892" lon="12.1467583"><ele>468.33333333333337</ele><time>2026-04-12T07:31:09.652Z</time></trkpt><trkpt lat="43.2388502" lon="12.146678"><ele>469.0</ele><time>2026-04-12T07:31:10.643Z</time></trkpt><trkpt lat="43.2388112" lon="12.1465918"><ele>467.0</ele><time>2026-04-12T07:31:11.643Z</time></trkpt><trkpt lat="43.2387708" lon="12.1465133"><ele>465.0</ele><time>2026-04-12T07:31:12.649Z</time></trkpt><trkpt lat="43.2387058" lon="12.1463669"><ele>463.0</ele><time>2026-04-12T07:31:14.628Z</time></trkpt><trkpt lat="43.238685" lon="12.1462546"><ele>461.0</ele><time>2026-04-12T07:31:15.641Z</time></trkpt><trkpt lat="43.2386598" lon="12.1461333"><ele>459.0</ele><time>2026-04-12T07:31:16.636Z</time></trkpt><trkpt lat="43.2386225" lon="12.1460148"><ele>459.0</ele><time>2026-04-12T07:31:17.638Z</time></trkpt><trkpt lat="43.2385892" lon="12.1459229"><ele>459.0</ele><time>2026-04-12T07:31:18.639Z</time></trkpt><trkpt lat="43.2385318" lon="12.1457994"><ele>459.0</ele><time>2026-04-12T07:31:20.64Z</time></trkpt><trkpt lat="43.2384745" lon="12.1457004"><ele>459.0</ele><time>2026-04-12T07:31:22.639Z</time></trkpt><trkpt lat="43.2383912" lon="12.1455548"><ele>459.0</ele><time>2026-04-12T07:31:24.64Z</time></trkpt><trkpt lat="43.2383393" lon="12.1454567"><ele>457.5</ele><time>2026-04-12T07:31:25.64Z</time></trkpt><trkpt lat="43.2382873" lon="12.1453647"><ele>456.0</ele><time>2026-04-12T07:31:26.638Z</time></trkpt><trkpt lat="43.238241" lon="12.1452813"><ele>454.5</ele><time>2026-04-12T07:31:27.641Z</time></trkpt><trkpt lat="43.2381874" lon="12.1451602"><ele>453.0</ele><time>2026-04-12T07:31:29.641Z</time></trkpt><trkpt lat="43.2381606" lon="12.1450532"><ele>451.5</ele><time>2026-04-12T07:31:31.655Z</time></trkpt><trkpt lat="43.2381809" lon="12.1449193"><ele>450.0</ele><time>2026-04-12T07:31:33.65Z</time></trkpt><trkpt lat="43.2382277" lon="12.1447922"><ele>449.8333333333333</ele><time>2026-04-12T07:31:35.652Z</time></trkpt><trkpt lat="43.2382829" lon="12.1446355"><ele>449.66666666666663</ele><time>2026-04-12T07:31:37.639Z</time></trkpt><trkpt lat="43.2383121" lon="12.1445567"><ele>449.5</ele><time>2026-04-12T07:31:38.637Z</time></trkpt><trkpt lat="43.2383423" lon="12.1444665"><ele>449.3333333333333</ele><time>2026-04-12T07:31:40.569Z</time></trkpt><trkpt lat="43.2383733" lon="12.1443861"><ele>449.16666666666663</ele><time>2026-04-12T07:31:41.65Z</time></trkpt><trkpt lat="43.2384474" lon="12.1442939"><ele>449.0</ele><time>2026-04-12T07:31:43.654Z</time></trkpt><trkpt lat="43.2385241" lon="12.1442068"><ele>448.99999999999994</ele><time>2026-04-12T07:31:45.648Z</time></trkpt><trkpt lat="43.238603" lon="12.1441365"><ele>449.0</ele><time>2026-04-12T07:31:47.649Z</time></trkpt><trkpt lat="43.2386695" lon="12.1441724"><ele>449.0</ele><time>2026-04-12T07:31:50.646Z</time></trkpt><trkpt lat="43.2386133" lon="12.1441321"><ele>449.0</ele><time>2026-04-12T07:31:55.653Z</time></trkpt><trkpt lat="43.238683" lon="12.144077"><ele>448.99999999999994</ele><time>2026-04-12T07:32:46.645Z</time></trkpt><trkpt lat="43.238759" lon="12.1440233"><ele>449.0</ele><time>2026-04-12T07:32:48.643Z</time></trkpt><trkpt lat="43.2388774" lon="12.1440112"><ele>450.0</ele><time>2026-04-12T07:32:50.652Z</time></trkpt><trkpt lat="43.2389572" lon="12.144"><ele>450.99999999999994</ele><time>2026-04-12T07:32:51.639Z</time></trkpt><trkpt lat="43.2390356" lon="12.1439859"><ele>452.0</ele><time>2026-04-12T07:32:52.636Z</time></trkpt><trkpt lat="43.2391057" lon="12.1439555"><ele>453.0</ele><time>2026-04-12T07:32:53.645Z</time></trkpt><trkpt lat="43.2391628" lon="12.1439038"><ele>453.99999999999994</ele><time>2026-04-12T07:32:54.635Z</time></trkpt><trkpt lat="43.239209" lon="12.143834"><ele>455.0</ele><time>2026-04-12T07:32:55.637Z</time></trkpt><trkpt lat="43.2392487" lon="12.1437559"><ele>456.0</ele><time>2026-04-12T07:32:56.637Z</time></trkpt><trkpt lat="43.2392866" lon="12.1436836"><ele>451.1666666666667</ele><time>2026-04-12T07:32:57.639Z</time></trkpt><trkpt lat="43.2393825" lon="12.1435901"><ele>446.33333333333337</ele><time>2026-04-12T07:32:59.634Z</time></trkpt><trkpt lat="43.239442" lon="12.1435612"><ele>441.5</ele><time>2026-04-12T07:33:00.635Z</time></trkpt><trkpt lat="43.2395114" lon="12.1435457"><ele>436.6666666666667</ele><time>2026-04-12T07:33:01.636Z</time></trkpt><trkpt lat="43.2395846" lon="12.1435475"><ele>431.83333333333337</ele><time>2026-04-12T07:33:02.633Z</time></trkpt><trkpt lat="43.2396609" lon="12.1435673"><ele>427.0</ele><time>2026-04-12T07:33:03.633Z</time></trkpt><trkpt lat="43.2397411" lon="12.143597"><ele>421.40000000000003</ele><time>2026-04-12T07:33:04.634Z</time></trkpt><trkpt lat="43.2398295" lon="12.1436224"><ele>415.80000000000007</ele><time>2026-04-12T07:33:05.635Z</time></trkpt><trkpt lat="43.2399256" lon="12.1436215"><ele>410.2</ele><time>2026-04-12T07:33:06.635Z</time></trkpt><trkpt lat="43.2400231" lon="12.1436093"><ele>404.6</ele><time>2026-04-12T07:33:07.642Z</time></trkpt><trkpt lat="43.2401172" lon="12.1436003"><ele>399.0</ele><time>2026-04-12T07:33:08.637Z</time></trkpt><trkpt lat="43.2402049" lon="12.143593"><ele>399.0</ele><time>2026-04-12T07:33:09.651Z</time></trkpt><trkpt lat="43.2402815" lon="12.1435872"><ele>399.0</ele><time>2026-04-12T07:33:10.631Z</time></trkpt><trkpt lat="43.2403879" lon="12.143558"><ele>399.0</ele><time>2026-04-12T07:33:12.641Z</time></trkpt><trkpt lat="43.240412" lon="12.1434399"><ele>399.0</ele><time>2026-04-12T07:33:14.635Z</time></trkpt><trkpt lat="43.2403946" lon="12.1433542"><ele>399.0</ele><time>2026-04-12T07:33:15.634Z</time></trkpt><trkpt lat="43.2403801" lon="12.1432646"><ele>399.0</ele><time>2026-04-12T07:33:16.634Z</time></trkpt><trkpt lat="43.2404009" lon="12.1431241"><ele>397.2</ele><time>2026-04-12T07:33:18.633Z</time></trkpt><trkpt lat="43.2404723" lon="12.1430445"><ele>395.4</ele><time>2026-04-12T07:33:20.649Z</time></trkpt><trkpt lat="43.2405382" lon="12.1429596"><ele>393.6</ele><time>2026-04-12T07:33:22.641Z</time></trkpt><trkpt lat="43.2405029" lon="12.1428717"><ele>391.8</ele><time>2026-04-12T07:33:24.649Z</time></trkpt><trkpt lat="43.240417" lon="12.1428523"><ele>390.0</ele><time>2026-04-12T07:33:26.649Z</time></trkpt><trkpt lat="43.2403067" lon="12.1428121"><ele>390.0</ele><time>2026-04-12T07:33:28.643Z</time></trkpt><trkpt lat="43.2402734" lon="12.1426917"><ele>390.0</ele><time>2026-04-12T07:33:30.654Z</time></trkpt><trkpt lat="43.2403397" lon="12.1425409"><ele>390.0</ele><time>2026-04-12T07:33:32.636Z</time></trkpt><trkpt lat="43.2404062" lon="12.1424566"><ele>390.0</ele><time>2026-04-12T07:33:33.631Z</time></trkpt><trkpt lat="43.2404787" lon="12.1423778"><ele>390.0</ele><time>2026-04-12T07:33:34.632Z</time></trkpt><trkpt lat="43.2405475" lon="12.1423197"><ele>389.1666666666667</ele><time>2026-04-12T07:33:35.634Z</time></trkpt><trkpt lat="43.2406121" lon="12.1422858"><ele>388.33333333333337</ele><time>2026-04-12T07:33:36.637Z</time></trkpt><trkpt lat="43.2407227" lon="12.1423613"><ele>387.5</ele><time>2026-04-12T07:33:38.646Z</time></trkpt><trkpt lat="43.2407691" lon="12.1424591"><ele>386.6666666666667</ele><time>2026-04-12T07:33:39.635Z</time></trkpt><trkpt lat="43.2408197" lon="12.1425493"><ele>385.83333333333337</ele><time>2026-04-12T07:33:40.65Z</time></trkpt><trkpt lat="43.2408797" lon="12.1426158"><ele>385.0</ele><time>2026-04-12T07:33:41.636Z</time></trkpt><trkpt lat="43.24096" lon="12.1426425"><ele>382.1666666666667</ele><time>2026-04-12T07:33:42.645Z</time></trkpt><trkpt lat="43.2410557" lon="12.1426294"><ele>379.33333333333337</ele><time>2026-04-12T07:33:43.63Z</time></trkpt><trkpt lat="43.2411475" lon="12.1426075"><ele>376.5</ele><time>2026-04-12T07:33:44.63Z</time></trkpt><trkpt lat="43.2412312" lon="12.142618"><ele>373.6666666666667</ele><time>2026-04-12T07:33:45.631Z</time></trkpt><trkpt lat="43.2413028" lon="12.1426671"><ele>370.83333333333337</ele><time>2026-04-12T07:33:46.637Z</time></trkpt><trkpt lat="43.2413718" lon="12.1427517"><ele>368.0</ele><time>2026-04-12T07:33:47.632Z</time></trkpt><trkpt lat="43.2414281" lon="12.1428498"><ele>367.1666666666667</ele><time>2026-04-12T07:33:48.629Z</time></trkpt><trkpt lat="43.2414783" lon="12.1429231"><ele>366.33333333333337</ele><time>2026-04-12T07:33:49.625Z</time></trkpt><trkpt lat="43.2415787" lon="12.1429375"><ele>365.5</ele><time>2026-04-12T07:33:51.629Z</time></trkpt><trkpt lat="43.2416392" lon="12.1428935"><ele>364.6666666666667</ele><time>2026-04-12T07:33:52.627Z</time></trkpt><trkpt lat="43.2417185" lon="12.1428424"><ele>363.8333333333333</ele><time>2026-04-12T07:33:53.634Z</time></trkpt><trkpt lat="43.2418051" lon="12.1427804"><ele>363.0</ele><time>2026-04-12T07:33:54.63Z</time></trkpt><trkpt lat="43.2418932" lon="12.1427093"><ele>363.0</ele><time>2026-04-12T07:33:55.639Z</time></trkpt><trkpt lat="43.2419763" lon="12.1426157"><ele>363.0</ele><time>2026-04-12T07:33:56.631Z</time></trkpt><trkpt lat="43.2420619" lon="12.1425197"><ele>363.0</ele><time>2026-04-12T07:33:57.633Z</time></trkpt><trkpt lat="43.2421542" lon="12.1424332"><ele>363.0</ele><time>2026-04-12T07:33:58.628Z</time></trkpt><trkpt lat="43.2422572" lon="12.1423566"><ele>363.0</ele><time>2026-04-12T07:33:59.634Z</time></trkpt><trkpt lat="43.24235" lon="12.1422954"><ele>362.3333333333333</ele><time>2026-04-12T07:34:00.636Z</time></trkpt><trkpt lat="43.2424392" lon="12.1422412"><ele>361.6666666666667</ele><time>2026-04-12T07:34:01.634Z</time></trkpt><trkpt lat="43.2425229" lon="12.1421869"><ele>361.0</ele><time>2026-04-12T07:34:02.636Z</time></trkpt><trkpt lat="43.242597" lon="12.142131"><ele>360.33333333333337</ele><time>2026-04-12T07:34:03.634Z</time></trkpt><trkpt lat="43.242674" lon="12.1420953"><ele>359.6666666666667</ele><time>2026-04-12T07:34:04.644Z</time></trkpt><trkpt lat="43.2427547" lon="12.1420917"><ele>359.0</ele><time>2026-04-12T07:34:05.63Z</time></trkpt><trkpt lat="43.2428401" lon="12.1421109"><ele>359.0</ele><time>2026-04-12T07:34:06.635Z</time></trkpt><trkpt lat="43.2429276" lon="12.1421376"><ele>359.0</ele><time>2026-04-12T07:34:07.636Z</time></trkpt><trkpt lat="43.2430157" lon="12.1421603"><ele>359.0</ele><time>2026-04-12T07:34:08.633Z</time></trkpt><trkpt lat="43.243109" lon="12.1421667"><ele>359.0</ele><time>2026-04-12T07:34:09.645Z</time></trkpt><trkpt lat="43.2432087" lon="12.1421669"><ele>359.0</ele><time>2026-04-12T07:34:10.636Z</time></trkpt><trkpt lat="43.2433076" lon="12.142167"><ele>356.79999999999995</ele><time>2026-04-12T07:34:11.65Z</time></trkpt><trkpt lat="43.2434067" lon="12.1421733"><ele>354.59999999999997</ele><time>2026-04-12T07:34:12.641Z</time></trkpt><trkpt lat="43.2435042" lon="12.1421775"><ele>352.4</ele><time>2026-04-12T07:34:13.639Z</time></trkpt><trkpt lat="43.2436036" lon="12.1421754"><ele>350.2</ele><time>2026-04-12T07:34:14.639Z</time></trkpt><trkpt lat="43.2437129" lon="12.1421631"><ele>348.0</ele><time>2026-04-12T07:34:15.641Z</time></trkpt><trkpt lat="43.2438154" lon="12.1421489"><ele>348.0</ele><time>2026-04-12T07:34:16.641Z</time></trkpt><trkpt lat="43.2439157" lon="12.1421413"><ele>348.0</ele><time>2026-04-12T07:34:17.651Z</time></trkpt><trkpt lat="43.2440071" lon="12.142132"><ele>348.0</ele><time>2026-04-12T07:34:18.64Z</time></trkpt><trkpt lat="43.2440953" lon="12.1421266"><ele>348.0</ele><time>2026-04-12T07:34:19.643Z</time></trkpt><trkpt lat="43.2441765" lon="12.1421257"><ele>348.0</ele><time>2026-04-12T07:34:20.643Z</time></trkpt><trkpt lat="43.244257" lon="12.1421307"><ele>348.0</ele><time>2026-04-12T07:34:21.643Z</time></trkpt><trkpt lat="43.2443313" lon="12.1421484"><ele>346.1428571428571</ele><time>2026-04-12T07:34:22.642Z</time></trkpt><trkpt lat="43.2444018" lon="12.1421752"><ele>344.2857142857143</ele><time>2026-04-12T07:34:23.646Z</time></trkpt><trkpt lat="43.2444708" lon="12.1422091"><ele>342.42857142857144</ele><time>2026-04-12T07:34:24.641Z</time></trkpt><trkpt lat="43.2445373" lon="12.1422472"><ele>340.57142857142856</ele><time>2026-04-12T07:34:25.65Z</time></trkpt><trkpt lat="43.2445981" lon="12.142288"><ele>338.7142857142857</ele><time>2026-04-12T07:34:26.641Z</time></trkpt><trkpt lat="43.2446618" lon="12.1423331"><ele>336.85714285714283</ele><time>2026-04-12T07:34:27.643Z</time></trkpt><trkpt lat="43.2447246" lon="12.1423782"><ele>335.0</ele><time>2026-04-12T07:34:28.642Z</time></trkpt><trkpt lat="43.2447952" lon="12.1424276"><ele>333.0</ele><time>2026-04-12T07:34:29.641Z</time></trkpt><trkpt lat="43.2448635" lon="12.1424859"><ele>331.0</ele><time>2026-04-12T07:34:30.647Z</time></trkpt><trkpt lat="43.2449361" lon="12.1425493"><ele>329.0</ele><time>2026-04-12T07:34:31.64Z</time></trkpt><trkpt lat="43.2450202" lon="12.1426169"><ele>327.0</ele><time>2026-04-12T07:34:32.639Z</time></trkpt><trkpt lat="43.2451139" lon="12.1426861"><ele>325.0</ele><time>2026-04-12T07:34:33.639Z</time></trkpt><trkpt lat="43.245213" lon="12.1427357"><ele>325.0</ele><time>2026-04-12T07:34:34.642Z</time></trkpt><trkpt lat="43.245318" lon="12.1427641"><ele>325.0</ele><time>2026-04-12T07:34:35.639Z</time></trkpt><trkpt lat="43.2454266" lon="12.1427832"><ele>325.0</ele><time>2026-04-12T07:34:36.65Z</time></trkpt><trkpt lat="43.2455412" lon="12.1427967"><ele>325.0</ele><time>2026-04-12T07:34:37.641Z</time></trkpt><trkpt lat="43.2456526" lon="12.1428088"><ele>325.0</ele><time>2026-04-12T07:34:38.636Z</time></trkpt><trkpt lat="43.2457561" lon="12.1428199"><ele>323.8</ele><time>2026-04-12T07:34:39.638Z</time></trkpt><trkpt lat="43.2458529" lon="12.1428371"><ele>322.6</ele><time>2026-04-12T07:34:40.64Z</time></trkpt><trkpt lat="43.2459433" lon="12.1428594"><ele>321.4</ele><time>2026-04-12T07:34:41.64Z</time></trkpt><trkpt lat="43.2460308" lon="12.1428956"><ele>320.2</ele><time>2026-04-12T07:34:42.684Z</time></trkpt><trkpt lat="43.2461153" lon="12.142933"><ele>319.0</ele><time>2026-04-12T07:34:43.638Z</time></trkpt><trkpt lat="43.2461978" lon="12.1429777"><ele>319.0</ele><time>2026-04-12T07:34:44.642Z</time></trkpt><trkpt lat="43.2462724" lon="12.1430203"><ele>319.0</ele><time>2026-04-12T07:34:45.641Z</time></trkpt><trkpt lat="43.2463417" lon="12.1430682"><ele>319.0</ele><time>2026-04-12T07:34:46.636Z</time></trkpt><trkpt lat="43.2464045" lon="12.143129"><ele>319.0</ele><time>2026-04-12T07:34:47.639Z</time></trkpt><trkpt lat="43.2464554" lon="12.1431953"><ele>319.0</ele><time>2026-04-12T07:34:48.633Z</time></trkpt><trkpt lat="43.2464933" lon="12.143266"><ele>319.0</ele><time>2026-04-12T07:34:49.636Z</time></trkpt><trkpt lat="43.2465368" lon="12.1433889"><ele>318.16666666666663</ele><time>2026-04-12T07:34:51.644Z</time></trkpt><trkpt lat="43.2466185" lon="12.143456"><ele>317.3333333333333</ele><time>2026-04-12T07:34:53.631Z</time></trkpt><trkpt lat="43.2467369" lon="12.1435006"><ele>316.5</ele><time>2026-04-12T07:34:55.634Z</time></trkpt><trkpt lat="43.2468028" lon="12.1435124"><ele>315.6666666666667</ele><time>2026-04-12T07:34:56.639Z</time></trkpt><trkpt lat="43.2468732" lon="12.143495"><ele>314.83333333333337</ele><time>2026-04-12T07:34:57.644Z</time></trkpt><trkpt lat="43.2469536" lon="12.1434447"><ele>314.0</ele><time>2026-04-12T07:34:58.64Z</time></trkpt><trkpt lat="43.2471159" lon="12.1432667"><ele>313.75</ele><time>2026-04-12T07:35:00.644Z</time></trkpt><trkpt lat="43.247172" lon="12.1431238"><ele>313.5</ele><time>2026-04-12T07:35:01.63Z</time></trkpt><trkpt lat="43.2472194" lon="12.1429527"><ele>313.25</ele><time>2026-04-12T07:35:02.631Z</time></trkpt><trkpt lat="43.2472504" lon="12.1427674"><ele>313.0</ele><time>2026-04-12T07:35:03.626Z</time></trkpt><trkpt lat="43.2472589" lon="12.1425879"><ele>313.0</ele><time>2026-04-12T07:35:04.63Z</time></trkpt><trkpt lat="43.2472584" lon="12.1424163"><ele>313.0</ele><time>2026-04-12T07:35:05.637Z</time></trkpt><trkpt lat="43.2472606" lon="12.1422515"><ele>313.0</ele><time>2026-04-12T07:35:06.636Z</time></trkpt><trkpt lat="43.2472628" lon="12.1420859"><ele>313.0</ele><time>2026-04-12T07:35:07.635Z</time></trkpt><trkpt lat="43.2472829" lon="12.1419247"><ele>313.0</ele><time>2026-04-12T07:35:08.634Z</time></trkpt><trkpt lat="43.2473285" lon="12.1417752"><ele>313.0</ele><time>2026-04-12T07:35:09.635Z</time></trkpt><trkpt lat="43.2473989" lon="12.1416534"><ele>313.0</ele><time>2026-04-12T07:35:10.638Z</time></trkpt><trkpt lat="43.2474812" lon="12.1415353"><ele>313.0</ele><time>2026-04-12T07:35:11.65Z</time></trkpt><trkpt lat="43.2475698" lon="12.1414146"><ele>313.0</ele><time>2026-04-12T07:35:12.656Z</time></trkpt><trkpt lat="43.2476632" lon="12.1412882"><ele>313.0</ele><time>2026-04-12T07:35:13.642Z</time></trkpt><trkpt lat="43.2477578" lon="12.1411552"><ele>313.0</ele><time>2026-04-12T07:35:14.64Z</time></trkpt><trkpt lat="43.2478584" lon="12.1410221"><ele>313.0</ele><time>2026-04-12T07:35:15.642Z</time></trkpt><trkpt lat="43.2479585" lon="12.1408896"><ele>313.0</ele><time>2026-04-12T07:35:16.641Z</time></trkpt><trkpt lat="43.2480568" lon="12.1407578"><ele>313.0</ele><time>2026-04-12T07:35:17.645Z</time></trkpt><trkpt lat="43.2481522" lon="12.1406272"><ele>313.0</ele><time>2026-04-12T07:35:18.65Z</time></trkpt><trkpt lat="43.2482493" lon="12.140499"><ele>313.0</ele><time>2026-04-12T07:35:19.651Z</time></trkpt><trkpt lat="43.2483466" lon="12.1403788"><ele>311.75</ele><time>2026-04-12T07:35:20.652Z</time></trkpt><trkpt lat="43.2484398" lon="12.1402666"><ele>310.5</ele><time>2026-04-12T07:35:21.649Z</time></trkpt><trkpt lat="43.2485323" lon="12.1401504"><ele>309.25</ele><time>2026-04-12T07:35:22.645Z</time></trkpt><trkpt lat="43.2486201" lon="12.1400361"><ele>308.0</ele><time>2026-04-12T07:35:23.653Z</time></trkpt><trkpt lat="43.2487027" lon="12.1399327"><ele>307.8</ele><time>2026-04-12T07:35:24.65Z</time></trkpt><trkpt lat="43.248778" lon="12.1398374"><ele>307.6</ele><time>2026-04-12T07:35:25.654Z</time></trkpt><trkpt lat="43.2488517" lon="12.1397411"><ele>307.4</ele><time>2026-04-12T07:35:26.648Z</time></trkpt><trkpt lat="43.2489254" lon="12.1396347"><ele>307.2</ele><time>2026-04-12T07:35:27.649Z</time></trkpt><trkpt lat="43.2490041" lon="12.1395266"><ele>307.0</ele><time>2026-04-12T07:35:28.649Z</time></trkpt><trkpt lat="43.24909" lon="12.1394088"><ele>307.0</ele><time>2026-04-12T07:35:29.642Z</time></trkpt><trkpt lat="43.2491741" lon="12.1392987"><ele>307.0</ele><time>2026-04-12T07:35:30.642Z</time></trkpt><trkpt lat="43.249252" lon="12.139201"><ele>307.0</ele><time>2026-04-12T07:35:31.646Z</time></trkpt><trkpt lat="43.2493262" lon="12.1391034"><ele>307.0</ele><time>2026-04-12T07:35:32.644Z</time></trkpt><trkpt lat="43.2493941" lon="12.1390142"><ele>307.0</ele><time>2026-04-12T07:35:33.643Z</time></trkpt><trkpt lat="43.2494632" lon="12.1389323"><ele>305.6</ele><time>2026-04-12T07:35:34.648Z</time></trkpt><trkpt lat="43.2495348" lon="12.1388655"><ele>304.2</ele><time>2026-04-12T07:35:35.647Z</time></trkpt><trkpt lat="43.2496103" lon="12.1388131"><ele>302.8</ele><time>2026-04-12T07:35:36.64Z</time></trkpt><trkpt lat="43.2496982" lon="12.1387863"><ele>301.4</ele><time>2026-04-12T07:35:37.651Z</time></trkpt><trkpt lat="43.2497965" lon="12.1387833"><ele>300.0</ele><time>2026-04-12T07:35:38.641Z</time></trkpt><trkpt lat="43.2499102" lon="12.1387986"><ele>300.0</ele><time>2026-04-12T07:35:39.643Z</time></trkpt><trkpt lat="43.2500344" lon="12.1388251"><ele>300.0</ele><time>2026-04-12T07:35:40.646Z</time></trkpt><trkpt lat="43.250163" lon="12.1388493"><ele>300.0</ele><time>2026-04-12T07:35:41.649Z</time></trkpt><trkpt lat="43.250292" lon="12.1388732"><ele>300.0</ele><time>2026-04-12T07:35:42.649Z</time></trkpt><trkpt lat="43.2504207" lon="12.1389"><ele>300.0</ele><time>2026-04-12T07:35:43.664Z</time></trkpt><trkpt lat="43.2505445" lon="12.1389294"><ele>300.0</ele><time>2026-04-12T07:35:44.648Z</time></trkpt><trkpt lat="43.2506718" lon="12.1389577"><ele>300.0</ele><time>2026-04-12T07:35:45.645Z</time></trkpt><trkpt lat="43.2508009" lon="12.1389794"><ele>300.0</ele><time>2026-04-12T07:35:46.644Z</time></trkpt><trkpt lat="43.2509301" lon="12.138994"><ele>299.5</ele><time>2026-04-12T07:35:47.651Z</time></trkpt><trkpt lat="43.2510597" lon="12.139008"><ele>299.0</ele><time>2026-04-12T07:35:48.651Z</time></trkpt><trkpt lat="43.2511873" lon="12.139019"><ele>298.5</ele><time>2026-04-12T07:35:49.653Z</time></trkpt><trkpt lat="43.2513156" lon="12.1390307"><ele>298.0</ele><time>2026-04-12T07:35:50.651Z</time></trkpt><trkpt lat="43.25144" lon="12.1390457"><ele>298.3333333333333</ele><time>2026-04-12T07:35:51.651Z</time></trkpt><trkpt lat="43.251681" lon="12.1390762"><ele>298.6666666666667</ele><time>2026-04-12T07:35:53.659Z</time></trkpt><trkpt lat="43.2517951" lon="12.1390941"><ele>299.0</ele><time>2026-04-12T07:35:54.649Z</time></trkpt><trkpt lat="43.2519139" lon="12.1391111"><ele>299.0</ele><time>2026-04-12T07:35:55.652Z</time></trkpt><trkpt lat="43.2520355" lon="12.1391268"><ele>299.0</ele><time>2026-04-12T07:35:56.649Z</time></trkpt><trkpt lat="43.2521585" lon="12.1391398"><ele>299.0</ele><time>2026-04-12T07:35:57.646Z</time></trkpt><trkpt lat="43.2522882" lon="12.1391508"><ele>299.0</ele><time>2026-04-12T07:35:58.653Z</time></trkpt><trkpt lat="43.2524217" lon="12.139163"><ele>299.25</ele><time>2026-04-12T07:35:59.648Z</time></trkpt><trkpt lat="43.2525526" lon="12.1391817"><ele>299.5</ele><time>2026-04-12T07:36:00.647Z</time></trkpt><trkpt lat="43.2526822" lon="12.1391992"><ele>299.75</ele><time>2026-04-12T07:36:01.648Z</time></trkpt><trkpt lat="43.2528106" lon="12.1392186"><ele>300.0</ele><time>2026-04-12T07:36:02.647Z</time></trkpt><trkpt lat="43.25294" lon="12.1392344"><ele>300.0</ele><time>2026-04-12T07:36:03.646Z</time></trkpt><trkpt lat="43.253072" lon="12.1392524"><ele>300.0</ele><time>2026-04-12T07:36:04.646Z</time></trkpt><trkpt lat="43.2532044" lon="12.1392672"><ele>300.0</ele><time>2026-04-12T07:36:05.648Z</time></trkpt><trkpt lat="43.2533368" lon="12.139284"><ele>300.0</ele><time>2026-04-12T07:36:06.646Z</time></trkpt><trkpt lat="43.2534644" lon="12.139294"><ele>300.5</ele><time>2026-04-12T07:36:07.646Z</time></trkpt><trkpt lat="43.2535839" lon="12.1393059"><ele>301.0</ele><time>2026-04-12T07:36:08.649Z</time></trkpt><trkpt lat="43.253696" lon="12.139319"><ele>301.5</ele><time>2026-04-12T07:36:09.647Z</time></trkpt><trkpt lat="43.2538032" lon="12.1393341"><ele>302.0</ele><time>2026-04-12T07:36:10.651Z</time></trkpt><trkpt lat="43.2539117" lon="12.1393548"><ele>302.25</ele><time>2026-04-12T07:36:11.652Z</time></trkpt><trkpt lat="43.25402" lon="12.139373"><ele>302.5</ele><time>2026-04-12T07:36:12.653Z</time></trkpt><trkpt lat="43.2541353" lon="12.1393874"><ele>302.75</ele><time>2026-04-12T07:36:13.653Z</time></trkpt><trkpt lat="43.2542579" lon="12.1393981"><ele>303.0</ele><time>2026-04-12T07:36:14.665Z</time></trkpt><trkpt lat="43.2543819" lon="12.1394052"><ele>303.0</ele><time>2026-04-12T07:36:15.646Z</time></trkpt><trkpt lat="43.2545087" lon="12.1394096"><ele>303.0</ele><time>2026-04-12T07:36:16.651Z</time></trkpt><trkpt lat="43.2546304" lon="12.1394125"><ele>303.0</ele><time>2026-04-12T07:36:17.643Z</time></trkpt><trkpt lat="43.2547439" lon="12.1394219"><ele>303.0</ele><time>2026-04-12T07:36:18.644Z</time></trkpt><trkpt lat="43.2548526" lon="12.1394339"><ele>303.2</ele><time>2026-04-12T07:36:19.644Z</time></trkpt><trkpt lat="43.254948" lon="12.1394454"><ele>303.4</ele><time>2026-04-12T07:36:20.647Z</time></trkpt><trkpt lat="43.2550344" lon="12.1394531"><ele>303.59999999999997</ele><time>2026-04-12T07:36:21.639Z</time></trkpt><trkpt lat="43.2551803" lon="12.1394733"><ele>303.8</ele><time>2026-04-12T07:36:23.638Z</time></trkpt><trkpt lat="43.2552706" lon="12.1395644"><ele>304.0</ele><time>2026-04-12T07:36:25.637Z</time></trkpt><trkpt lat="43.2552824" lon="12.13965"><ele>304.0</ele><time>2026-04-12T07:36:27.65Z</time></trkpt><trkpt lat="43.2552752" lon="12.139764"><ele>304.0</ele><time>2026-04-12T07:41:32.62Z</time></trkpt><trkpt lat="43.2552306" lon="12.1397021"><ele>304.0</ele><time>2026-04-12T07:45:33.659Z</time></trkpt><trkpt lat="43.2551567" lon="12.1396862"><ele>304.0</ele><time>2026-04-12T07:58:28.675Z</time></trkpt><trkpt lat="43.2551219" lon="12.139566"><ele>304.0</ele><time>2026-04-12T07:58:31.664Z</time></trkpt><trkpt lat="43.2551182" lon="12.1394694"><ele>304.0</ele><time>2026-04-12T07:58:33.658Z</time></trkpt><trkpt lat="43.2550123" lon="12.1394123"><ele>304.0</ele><time>2026-04-12T07:58:36.658Z</time></trkpt><trkpt lat="43.2549067" lon="12.1394261"><ele>304.0</ele><time>2026-04-12T07:58:37.643Z</time></trkpt><trkpt lat="43.2547762" lon="12.139442"><ele>304.0</ele><time>2026-04-12T07:58:38.64Z</time></trkpt><trkpt lat="43.2546418" lon="12.1394492"><ele>304.0</ele><time>2026-04-12T07:58:39.644Z</time></trkpt><trkpt lat="43.2545061" lon="12.1394433"><ele>303.66666666666663</ele><time>2026-04-12T07:58:40.648Z</time></trkpt><trkpt lat="43.2543702" lon="12.1394274"><ele>303.3333333333333</ele><time>2026-04-12T07:58:41.648Z</time></trkpt><trkpt lat="43.2541249" lon="12.1393937"><ele>303.0</ele><time>2026-04-12T07:58:43.66Z</time></trkpt><trkpt lat="43.2540231" lon="12.1393818"><ele>302.8333333333333</ele><time>2026-04-12T07:58:44.649Z</time></trkpt><trkpt lat="43.2539353" lon="12.1393696"><ele>302.6666666666667</ele><time>2026-04-12T07:58:45.655Z</time></trkpt><trkpt lat="43.2538572" lon="12.1393594"><ele>302.5</ele><time>2026-04-12T07:58:46.667Z</time></trkpt><trkpt lat="43.253788" lon="12.1393501"><ele>302.33333333333337</ele><time>2026-04-12T07:58:47.662Z</time></trkpt><trkpt lat="43.2537244" lon="12.1393537"><ele>302.1666666666667</ele><time>2026-04-12T07:58:48.66Z</time></trkpt><trkpt lat="43.2536397" lon="12.1393551"><ele>302.0</ele><time>2026-04-12T07:58:50.662Z</time></trkpt><trkpt lat="43.2536173" lon="12.1392215"><ele>302.0</ele><time>2026-04-12T07:58:55.688Z</time></trkpt><trkpt lat="43.2536271" lon="12.1390464"><ele>302.0</ele><time>2026-04-12T07:58:57.664Z</time></trkpt><trkpt lat="43.2536256" lon="12.138887"><ele>302.0</ele><time>2026-04-12T07:58:59.647Z</time></trkpt><trkpt lat="43.253624" lon="12.138726"><ele>302.0</ele><time>2026-04-12T07:59:01.651Z</time></trkpt><trkpt lat="43.2536146" lon="12.1386345"><ele>302.0</ele><time>2026-04-12T07:59:02.652Z</time></trkpt><trkpt lat="43.2536057" lon="12.1385401"><ele>302.0</ele><time>2026-04-12T07:59:03.65Z</time></trkpt><trkpt lat="43.2535925" lon="12.1384337"><ele>302.0</ele><time>2026-04-12T07:59:04.653Z</time></trkpt><trkpt lat="43.253576" lon="12.1383284"><ele>302.0</ele><time>2026-04-12T07:59:05.645Z</time></trkpt><trkpt lat="43.2535602" lon="12.1382313"><ele>302.0</ele><time>2026-04-12T07:59:06.652Z</time></trkpt><trkpt lat="43.2535407" lon="12.1381291"><ele>302.0</ele><time>2026-04-12T07:59:07.65Z</time></trkpt><trkpt lat="43.253492" lon="12.1379416"><ele>302.0</ele><time>2026-04-12T07:59:09.65Z</time></trkpt><trkpt lat="43.2534519" lon="12.1377776"><ele>302.0</ele><time>2026-04-12T07:59:11.653Z</time></trkpt><trkpt lat="43.2534176" lon="12.1376333"><ele>302.0</ele><time>2026-04-12T07:59:13.65Z</time></trkpt><trkpt lat="43.2534071" lon="12.1374978"><ele>302.0</ele><time>2026-04-12T07:59:15.643Z</time></trkpt><trkpt lat="43.2534048" lon="12.1374071"><ele>302.0</ele><time>2026-04-12T07:59:16.644Z</time></trkpt><trkpt lat="43.2534145" lon="12.1372698"><ele>302.0</ele><time>2026-04-12T07:59:18.642Z</time></trkpt><trkpt lat="43.2534187" lon="12.1371112"><ele>302.0</ele><time>2026-04-12T07:59:20.642Z</time></trkpt><trkpt lat="43.2534325" lon="12.1369454"><ele>302.0</ele><time>2026-04-12T07:59:22.647Z</time></trkpt><trkpt lat="43.2534469" lon="12.1367907"><ele>302.0</ele><time>2026-04-12T07:59:24.645Z</time></trkpt><trkpt lat="43.2534556" lon="12.1366115"><ele>301.83333333333337</ele><time>2026-04-12T07:59:26.659Z</time></trkpt><trkpt lat="43.2534565" lon="12.1365123"><ele>301.6666666666667</ele><time>2026-04-12T07:59:27.654Z</time></trkpt><trkpt lat="43.2534587" lon="12.1364177"><ele>301.5</ele><time>2026-04-12T07:59:28.643Z</time></trkpt><trkpt lat="43.2534614" lon="12.1363285"><ele>301.3333333333333</ele><time>2026-04-12T07:59:29.651Z</time></trkpt><trkpt lat="43.2534655" lon="12.1361607"><ele>301.16666666666663</ele><time>2026-04-12T07:59:31.652Z</time></trkpt><trkpt lat="43.2534739" lon="12.1360064"><ele>301.0</ele><time>2026-04-12T07:59:33.65Z</time></trkpt><trkpt lat="43.2534775" lon="12.1358418"><ele>301.16666666666663</ele><time>2026-04-12T07:59:35.649Z</time></trkpt><trkpt lat="43.253478" lon="12.1356696"><ele>301.3333333333333</ele><time>2026-04-12T07:59:37.647Z</time></trkpt><trkpt lat="43.2534764" lon="12.1355819"><ele>301.5</ele><time>2026-04-12T07:59:38.646Z</time></trkpt><trkpt lat="43.2534758" lon="12.1354858"><ele>301.6666666666667</ele><time>2026-04-12T07:59:39.655Z</time></trkpt><trkpt lat="43.253474" lon="12.1353907"><ele>301.83333333333337</ele><time>2026-04-12T07:59:40.652Z</time></trkpt><trkpt lat="43.2534726" lon="12.1352986"><ele>302.0</ele><time>2026-04-12T07:59:41.649Z</time></trkpt><trkpt lat="43.2534728" lon="12.1352033"><ele>302.0</ele><time>2026-04-12T07:59:42.651Z</time></trkpt><trkpt lat="43.2534729" lon="12.1351118"><ele>302.0</ele><time>2026-04-12T07:59:43.646Z</time></trkpt><trkpt lat="43.2534693" lon="12.1349416"><ele>302.0</ele><time>2026-04-12T07:59:45.648Z</time></trkpt><trkpt lat="43.2534689" lon="12.1348517"><ele>302.0</ele><time>2026-04-12T07:59:46.649Z</time></trkpt><trkpt lat="43.2534658" lon="12.1347583"><ele>302.0</ele><time>2026-04-12T07:59:47.643Z</time></trkpt><trkpt lat="43.2534664" lon="12.134658"><ele>302.0</ele><time>2026-04-12T07:59:48.649Z</time></trkpt><trkpt lat="43.2534714" lon="12.1345522"><ele>302.0</ele><time>2026-04-12T07:59:49.652Z</time></trkpt><trkpt lat="43.253479" lon="12.1344528"><ele>302.0</ele><time>2026-04-12T07:59:50.646Z</time></trkpt><trkpt lat="43.2534893" lon="12.1343563"><ele>302.0</ele><time>2026-04-12T07:59:51.653Z</time></trkpt><trkpt lat="43.253503" lon="12.134265"><ele>302.0</ele><time>2026-04-12T07:59:52.652Z</time></trkpt><trkpt lat="43.2535198" lon="12.1341005"><ele>302.0</ele><time>2026-04-12T07:59:54.64Z</time></trkpt><trkpt lat="43.2535152" lon="12.1340068"><ele>302.0</ele><time>2026-04-12T07:59:55.652Z</time></trkpt><trkpt lat="43.2535143" lon="12.1338599"><ele>302.0</ele><time>2026-04-12T07:59:57.643Z</time></trkpt><trkpt lat="43.2535207" lon="12.133753"><ele>302.0</ele><time>2026-04-12T07:59:59.643Z</time></trkpt><trkpt lat="43.2535347" lon="12.1335805"><ele>302.0</ele><time>2026-04-12T08:00:01.639Z</time></trkpt><trkpt lat="43.2535389" lon="12.1334935"><ele>302.0</ele><time>2026-04-12T08:00:02.639Z</time></trkpt><trkpt lat="43.2535468" lon="12.1333858"><ele>302.0</ele><time>2026-04-12T08:00:03.643Z</time></trkpt><trkpt lat="43.2535543" lon="12.1332547"><ele>302.0</ele><time>2026-04-12T08:00:04.638Z</time></trkpt><trkpt lat="43.2535534" lon="12.1331057"><ele>302.2</ele><time>2026-04-12T08:00:05.645Z</time></trkpt><trkpt lat="43.2535567" lon="12.1329644"><ele>302.4</ele><time>2026-04-12T08:00:06.634Z</time></trkpt><trkpt lat="43.2535634" lon="12.1328336"><ele>302.6</ele><time>2026-04-12T08:00:07.628Z</time></trkpt><trkpt lat="43.2535782" lon="12.1327045"><ele>302.8</ele><time>2026-04-12T08:00:08.641Z</time></trkpt><trkpt lat="43.2535978" lon="12.1325844"><ele>303.0</ele><time>2026-04-12T08:00:09.628Z</time></trkpt><trkpt lat="43.2536278" lon="12.1324589"><ele>303.8</ele><time>2026-04-12T08:00:10.633Z</time></trkpt><trkpt lat="43.25366" lon="12.1323266"><ele>304.6</ele><time>2026-04-12T08:00:11.624Z</time></trkpt><trkpt lat="43.2536947" lon="12.1321777"><ele>305.4</ele><time>2026-04-12T08:00:12.634Z</time></trkpt><trkpt lat="43.2537354" lon="12.1320244"><ele>306.2</ele><time>2026-04-12T08:00:13.637Z</time></trkpt><trkpt lat="43.2537687" lon="12.1318817"><ele>307.0</ele><time>2026-04-12T08:00:14.633Z</time></trkpt><trkpt lat="43.2538091" lon="12.1317339"><ele>307.0</ele><time>2026-04-12T08:00:15.631Z</time></trkpt><trkpt lat="43.2538425" lon="12.1315943"><ele>307.0</ele><time>2026-04-12T08:00:16.635Z</time></trkpt><trkpt lat="43.2538768" lon="12.1314676"><ele>307.0</ele><time>2026-04-12T08:00:17.633Z</time></trkpt><trkpt lat="43.2539108" lon="12.1313312"><ele>307.0</ele><time>2026-04-12T08:00:18.631Z</time></trkpt><trkpt lat="43.2539446" lon="12.1311843"><ele>307.0</ele><time>2026-04-12T08:00:19.641Z</time></trkpt><trkpt lat="43.2539796" lon="12.13104"><ele>307.2</ele><time>2026-04-12T08:00:20.636Z</time></trkpt><trkpt lat="43.2540097" lon="12.1308979"><ele>307.4</ele><time>2026-04-12T08:00:21.63Z</time></trkpt><trkpt lat="43.2540384" lon="12.130765"><ele>307.6</ele><time>2026-04-12T08:00:22.632Z</time></trkpt><trkpt lat="43.2540655" lon="12.1306291"><ele>307.8</ele><time>2026-04-12T08:00:23.644Z</time></trkpt><trkpt lat="43.2540911" lon="12.1304989"><ele>308.0</ele><time>2026-04-12T08:00:24.637Z</time></trkpt><trkpt lat="43.2541184" lon="12.1303773"><ele>308.4</ele><time>2026-04-12T08:00:25.632Z</time></trkpt><trkpt lat="43.2541448" lon="12.1302746"><ele>308.8</ele><time>2026-04-12T08:00:26.635Z</time></trkpt><trkpt lat="43.2541722" lon="12.1301672"><ele>309.2</ele><time>2026-04-12T08:00:27.633Z</time></trkpt><trkpt lat="43.2541979" lon="12.1300647"><ele>309.6</ele><time>2026-04-12T08:00:28.651Z</time></trkpt><trkpt lat="43.2542424" lon="12.1299201"><ele>310.0</ele><time>2026-04-12T08:00:30.633Z</time></trkpt><trkpt lat="43.254269" lon="12.1297536"><ele>310.66666666666663</ele><time>2026-04-12T08:00:32.636Z</time></trkpt><trkpt lat="43.2542886" lon="12.1296465"><ele>311.3333333333333</ele><time>2026-04-12T08:00:33.636Z</time></trkpt><trkpt lat="43.2543009" lon="12.1295346"><ele>312.0</ele><time>2026-04-12T08:00:34.632Z</time></trkpt><trkpt lat="43.254307" lon="12.1294072"><ele>312.6666666666667</ele><time>2026-04-12T08:00:35.633Z</time></trkpt><trkpt lat="43.2543026" lon="12.1292827"><ele>313.33333333333337</ele><time>2026-04-12T08:00:36.637Z</time></trkpt><trkpt lat="43.254295" lon="12.1291626"><ele>314.0</ele><time>2026-04-12T08:00:37.63Z</time></trkpt><trkpt lat="43.2542789" lon="12.1290474"><ele>314.4</ele><time>2026-04-12T08:00:38.632Z</time></trkpt><trkpt lat="43.2542638" lon="12.1289268"><ele>314.79999999999995</ele><time>2026-04-12T08:00:39.638Z</time></trkpt><trkpt lat="43.2542494" lon="12.1287981"><ele>315.20000000000005</ele><time>2026-04-12T08:00:40.639Z</time></trkpt><trkpt lat="43.2542384" lon="12.1286573"><ele>315.6</ele><time>2026-04-12T08:00:41.636Z</time></trkpt><trkpt lat="43.2542269" lon="12.128511"><ele>316.0</ele><time>2026-04-12T08:00:42.641Z</time></trkpt><trkpt lat="43.2542139" lon="12.1283646"><ele>315.6</ele><time>2026-04-12T08:00:43.636Z</time></trkpt><trkpt lat="43.254198" lon="12.1282122"><ele>315.20000000000005</ele><time>2026-04-12T08:00:44.642Z</time></trkpt><trkpt lat="43.2541897" lon="12.1280469"><ele>314.79999999999995</ele><time>2026-04-12T08:00:45.641Z</time></trkpt><trkpt lat="43.2541815" lon="12.127891"><ele>314.4</ele><time>2026-04-12T08:00:46.635Z</time></trkpt><trkpt lat="43.2541863" lon="12.1277508"><ele>314.0</ele><time>2026-04-12T08:00:47.632Z</time></trkpt><trkpt lat="43.2542021" lon="12.1276161"><ele>314.0</ele><time>2026-04-12T08:00:48.641Z</time></trkpt><trkpt lat="43.2542313" lon="12.1275008"><ele>314.0</ele><time>2026-04-12T08:00:49.631Z</time></trkpt><trkpt lat="43.2542638" lon="12.1273912"><ele>314.0</ele><time>2026-04-12T08:00:50.632Z</time></trkpt><trkpt lat="43.2543055" lon="12.1272906"><ele>314.0</ele><time>2026-04-12T08:00:51.628Z</time></trkpt><trkpt lat="43.2543497" lon="12.1271972"><ele>314.0</ele><time>2026-04-12T08:00:52.634Z</time></trkpt><trkpt lat="43.2543902" lon="12.1270985"><ele>314.0</ele><time>2026-04-12T08:00:53.634Z</time></trkpt><trkpt lat="43.2544166" lon="12.1269838"><ele>314.8</ele><time>2026-04-12T08:00:54.629Z</time></trkpt><trkpt lat="43.2544524" lon="12.1268549"><ele>315.59999999999997</ele><time>2026-04-12T08:00:55.64Z</time></trkpt><trkpt lat="43.2544987" lon="12.1267268"><ele>316.4</ele><time>2026-04-12T08:00:56.639Z</time></trkpt><trkpt lat="43.254545" lon="12.1266004"><ele>317.2</ele><time>2026-04-12T08:00:57.645Z</time></trkpt><trkpt lat="43.2545899" lon="12.1264815"><ele>318.0</ele><time>2026-04-12T08:00:58.64Z</time></trkpt><trkpt lat="43.254631" lon="12.126372"><ele>316.4</ele><time>2026-04-12T08:00:59.653Z</time></trkpt><trkpt lat="43.2546694" lon="12.1262701"><ele>314.8</ele><time>2026-04-12T08:01:00.634Z</time></trkpt><trkpt lat="43.2547079" lon="12.1261626"><ele>313.2</ele><time>2026-04-12T08:01:01.64Z</time></trkpt><trkpt lat="43.2547469" lon="12.1260456"><ele>311.6</ele><time>2026-04-12T08:01:02.64Z</time></trkpt><trkpt lat="43.254786" lon="12.1259144"><ele>310.0</ele><time>2026-04-12T08:01:03.645Z</time></trkpt><trkpt lat="43.2548239" lon="12.1257982"><ele>310.8333333333333</ele><time>2026-04-12T08:01:04.64Z</time></trkpt><trkpt lat="43.2548617" lon="12.1256913"><ele>311.66666666666663</ele><time>2026-04-12T08:01:05.637Z</time></trkpt><trkpt lat="43.2548978" lon="12.1255932"><ele>312.5</ele><time>2026-04-12T08:01:06.644Z</time></trkpt><trkpt lat="43.2549365" lon="12.1254948"><ele>313.3333333333333</ele><time>2026-04-12T08:01:07.638Z</time></trkpt><trkpt lat="43.2549721" lon="12.1253866"><ele>314.1666666666667</ele><time>2026-04-12T08:01:08.639Z</time></trkpt><trkpt lat="43.2550009" lon="12.1252805"><ele>315.0</ele><time>2026-04-12T08:01:09.632Z</time></trkpt><trkpt lat="43.255034" lon="12.1251762"><ele>315.0</ele><time>2026-04-12T08:01:10.639Z</time></trkpt><trkpt lat="43.2550617" lon="12.12507"><ele>315.0</ele><time>2026-04-12T08:01:11.635Z</time></trkpt><trkpt lat="43.2550865" lon="12.1249659"><ele>315.0</ele><time>2026-04-12T08:01:12.637Z</time></trkpt><trkpt lat="43.2551121" lon="12.1248697"><ele>315.0</ele><time>2026-04-12T08:01:13.636Z</time></trkpt><trkpt lat="43.2551444" lon="12.1247811"><ele>315.0</ele><time>2026-04-12T08:01:14.644Z</time></trkpt><trkpt lat="43.2551762" lon="12.1246968"><ele>315.0</ele><time>2026-04-12T08:01:15.641Z</time></trkpt><trkpt lat="43.2552051" lon="12.124605"><ele>315.6666666666667</ele><time>2026-04-12T08:01:16.636Z</time></trkpt><trkpt lat="43.2552351" lon="12.1245115"><ele>316.3333333333333</ele><time>2026-04-12T08:01:17.64Z</time></trkpt><trkpt lat="43.2552667" lon="12.1244143"><ele>317.0</ele><time>2026-04-12T08:01:18.64Z</time></trkpt><trkpt lat="43.2552989" lon="12.1243167"><ele>317.66666666666663</ele><time>2026-04-12T08:01:19.644Z</time></trkpt><trkpt lat="43.2553339" lon="12.12423"><ele>318.3333333333333</ele><time>2026-04-12T08:01:20.637Z</time></trkpt><trkpt lat="43.2553692" lon="12.124139"><ele>319.0</ele><time>2026-04-12T08:01:21.639Z</time></trkpt><trkpt lat="43.2554087" lon="12.1240488"><ele>318.8</ele><time>2026-04-12T08:01:22.64Z</time></trkpt><trkpt lat="43.2554613" lon="12.1239632"><ele>318.59999999999997</ele><time>2026-04-12T08:01:23.642Z</time></trkpt><trkpt lat="43.2555224" lon="12.123873"><ele>318.4</ele><time>2026-04-12T08:01:24.645Z</time></trkpt><trkpt lat="43.2555901" lon="12.1237882"><ele>318.2</ele><time>2026-04-12T08:01:25.64Z</time></trkpt><trkpt lat="43.2556688" lon="12.1237089"><ele>318.0</ele><time>2026-04-12T08:01:26.64Z</time></trkpt><trkpt lat="43.2557556" lon="12.1236445"><ele>318.0</ele><time>2026-04-12T08:01:27.641Z</time></trkpt><trkpt lat="43.2558353" lon="12.1236026"><ele>318.0</ele><time>2026-04-12T08:01:28.637Z</time></trkpt><trkpt lat="43.255905" lon="12.123576"><ele>318.0</ele><time>2026-04-12T08:01:29.639Z</time></trkpt><trkpt lat="43.2560237" lon="12.1235785"><ele>318.0</ele><time>2026-04-12T08:01:31.642Z</time></trkpt><trkpt lat="43.2560838" lon="12.1235365"><ele>318.0</ele><time>2026-04-12T08:01:34.659Z</time></trkpt><trkpt lat="43.256015" lon="12.1234321"><ele>318.0</ele><time>2026-04-12T08:01:36.652Z</time></trkpt><trkpt lat="43.2559447" lon="12.1233684"><ele>318.0</ele><time>2026-04-12T08:01:38.657Z</time></trkpt><trkpt lat="43.2558816" lon="12.1234148"><ele>318.0</ele><time>2026-04-12T08:01:53.654Z</time></trkpt><trkpt lat="43.2558218" lon="12.1235186"><ele>318.0</ele><time>2026-04-12T08:01:55.65Z</time></trkpt><trkpt lat="43.2557623" lon="12.1235651"><ele>318.0</ele><time>2026-04-12T08:01:56.639Z</time></trkpt><trkpt lat="43.2556903" lon="12.1236138"><ele>318.0</ele><time>2026-04-12T08:01:57.647Z</time></trkpt><trkpt lat="43.2556142" lon="12.1236719"><ele>318.0</ele><time>2026-04-12T08:01:58.639Z</time></trkpt><trkpt lat="43.2555314" lon="12.1237349"><ele>318.8</ele><time>2026-04-12T08:01:59.65Z</time></trkpt><trkpt lat="43.2554542" lon="12.123794"><ele>319.6</ele><time>2026-04-12T08:02:00.649Z</time></trkpt><trkpt lat="43.2553813" lon="12.1238427"><ele>320.40000000000003</ele><time>2026-04-12T08:02:01.656Z</time></trkpt><trkpt lat="43.25532" lon="12.1238824"><ele>321.20000000000005</ele><time>2026-04-12T08:02:02.633Z</time></trkpt><trkpt lat="43.2551963" lon="12.1239038"><ele>322.0</ele><time>2026-04-12T08:02:04.639Z</time></trkpt><trkpt lat="43.2551011" lon="12.12397"><ele>322.0</ele><time>2026-04-12T08:02:06.64Z</time></trkpt><trkpt lat="43.2550396" lon="12.1240465"><ele>322.0</ele><time>2026-04-12T08:02:08.651Z</time></trkpt><trkpt lat="43.2549902" lon="12.1241118"><ele>322.0</ele><time>2026-04-12T08:02:10.642Z</time></trkpt><trkpt lat="43.2549682" lon="12.1242116"><ele>322.0</ele><time>2026-04-12T08:02:13.655Z</time></trkpt><trkpt lat="43.2549779" lon="12.1243067"><ele>322.0</ele><time>2026-04-12T08:02:15.656Z</time></trkpt><trkpt lat="43.2549598" lon="12.1244428"><ele>322.0</ele><time>2026-04-12T08:02:18.651Z</time></trkpt><trkpt lat="43.2549054" lon="12.1245825"><ele>321.5</ele><time>2026-04-12T08:02:20.634Z</time></trkpt><trkpt lat="43.2548416" lon="12.1246808"><ele>321.0</ele><time>2026-04-12T08:02:22.638Z</time></trkpt><trkpt lat="43.2547696" lon="12.1246984"><ele>320.5</ele><time>2026-04-12T08:02:24.647Z</time></trkpt><trkpt lat="43.2547116" lon="12.1246456"><ele>320.0</ele><time>2026-04-12T08:02:26.653Z</time></trkpt><trkpt lat="43.2547068" lon="12.1245478"><ele>319.5</ele><time>2026-04-12T08:02:28.656Z</time></trkpt><trkpt lat="43.2547271" lon="12.1244435"><ele>319.0</ele><time>2026-04-12T08:02:30.649Z</time></trkpt><trkpt lat="43.2547181" lon="12.1243489"><ele>322.0</ele><time>2026-04-12T08:02:32.67Z</time></trkpt><trkpt lat="43.254684" lon="12.1242185"><ele>325.0</ele><time>2026-04-12T08:02:34.649Z</time></trkpt><trkpt lat="43.2546615" lon="12.1240558"><ele>328.0</ele><time>2026-04-12T08:02:36.638Z</time></trkpt><trkpt lat="43.254646" lon="12.1239715"><ele>331.0</ele><time>2026-04-12T08:02:37.635Z</time></trkpt><trkpt lat="43.254643" lon="12.1238243"><ele>334.0</ele><time>2026-04-12T08:02:39.635Z</time></trkpt><trkpt lat="43.2546316" lon="12.123719"><ele>334.4</ele><time>2026-04-12T08:02:41.65Z</time></trkpt><trkpt lat="43.2545501" lon="12.1236416"><ele>334.79999999999995</ele><time>2026-04-12T08:02:44.654Z</time></trkpt><trkpt lat="43.2544649" lon="12.1236025"><ele>335.20000000000005</ele><time>2026-04-12T08:02:46.649Z</time></trkpt><trkpt lat="43.2543649" lon="12.1235605"><ele>335.6</ele><time>2026-04-12T08:02:48.647Z</time></trkpt><trkpt lat="43.254242" lon="12.1235617"><ele>336.0</ele><time>2026-04-12T08:02:50.637Z</time></trkpt><trkpt lat="43.2541147" lon="12.1235395"><ele>336.0</ele><time>2026-04-12T08:02:52.646Z</time></trkpt><trkpt lat="43.2540489" lon="12.1235455"><ele>336.0</ele><time>2026-04-12T08:02:53.646Z</time></trkpt><trkpt lat="43.2539824" lon="12.1235704"><ele>336.0</ele><time>2026-04-12T08:02:54.638Z</time></trkpt><trkpt lat="43.2539203" lon="12.1235853"><ele>336.0</ele><time>2026-04-12T08:02:55.635Z</time></trkpt><trkpt lat="43.2538142" lon="12.1235702"><ele>336.0</ele><time>2026-04-12T08:02:57.638Z</time></trkpt><trkpt lat="43.2537541" lon="12.1235436"><ele>336.0</ele><time>2026-04-12T08:02:58.64Z</time></trkpt><trkpt lat="43.2536832" lon="12.1235147"><ele>336.0</ele><time>2026-04-12T08:02:59.645Z</time></trkpt><trkpt lat="43.2536101" lon="12.1235221"><ele>337.5</ele><time>2026-04-12T08:03:00.644Z</time></trkpt><trkpt lat="43.2535087" lon="12.1235437"><ele>339.0</ele><time>2026-04-12T08:03:01.641Z</time></trkpt><trkpt lat="43.2534256" lon="12.1235554"><ele>340.5</ele><time>2026-04-12T08:03:02.649Z</time></trkpt><trkpt lat="43.2533519" lon="12.1235757"><ele>342.0</ele><time>2026-04-12T08:03:03.642Z</time></trkpt><trkpt lat="43.2532905" lon="12.1236215"><ele>343.5</ele><time>2026-04-12T08:03:04.637Z</time></trkpt><trkpt lat="43.2532287" lon="12.1236927"><ele>345.0</ele><time>2026-04-12T08:03:05.64Z</time></trkpt><trkpt lat="43.2531755" lon="12.1237635"><ele>345.0</ele><time>2026-04-12T08:03:06.638Z</time></trkpt><trkpt lat="43.2531286" lon="12.1238363"><ele>345.0</ele><time>2026-04-12T08:03:07.644Z</time></trkpt><trkpt lat="43.2530871" lon="12.1239144"><ele>345.0</ele><time>2026-04-12T08:03:08.641Z</time></trkpt><trkpt lat="43.2529994" lon="12.1239881"><ele>345.0</ele><time>2026-04-12T08:03:10.647Z</time></trkpt><trkpt lat="43.2528856" lon="12.1239096"><ele>345.0</ele><time>2026-04-12T08:03:12.639Z</time></trkpt><trkpt lat="43.252826" lon="12.1238507"><ele>345.0</ele><time>2026-04-12T08:03:13.64Z</time></trkpt><trkpt lat="43.2527482" lon="12.1238037"><ele>346.5</ele><time>2026-04-12T08:03:14.636Z</time></trkpt><trkpt lat="43.2526675" lon="12.1237845"><ele>348.0</ele><time>2026-04-12T08:03:15.64Z</time></trkpt><trkpt lat="43.2525938" lon="12.1237653"><ele>349.5</ele><time>2026-04-12T08:03:16.638Z</time></trkpt><trkpt lat="43.2525323" lon="12.1237285"><ele>351.0</ele><time>2026-04-12T08:03:17.641Z</time></trkpt><trkpt lat="43.2524662" lon="12.1236679"><ele>352.5</ele><time>2026-04-12T08:03:18.637Z</time></trkpt><trkpt lat="43.2523967" lon="12.1236015"><ele>354.0</ele><time>2026-04-12T08:03:19.644Z</time></trkpt><trkpt lat="43.2523159" lon="12.1235448"><ele>356.0</ele><time>2026-04-12T08:03:20.639Z</time></trkpt><trkpt lat="43.2522484" lon="12.1234933"><ele>358.0</ele><time>2026-04-12T08:03:21.644Z</time></trkpt><trkpt lat="43.2521706" lon="12.1234079"><ele>360.0</ele><time>2026-04-12T08:03:23.644Z</time></trkpt><trkpt lat="43.2521703" lon="12.1233197"><ele>362.0</ele><time>2026-04-12T08:03:25.658Z</time></trkpt><trkpt lat="43.2521411" lon="12.1232152"><ele>364.0</ele><time>2026-04-12T08:03:31.656Z</time></trkpt><trkpt lat="43.2520695" lon="12.1232002"><ele>366.0</ele><time>2026-04-12T08:03:34.653Z</time></trkpt><trkpt lat="43.2520362" lon="12.1231266"><ele>366.3333333333333</ele><time>2026-04-12T08:03:36.656Z</time></trkpt><trkpt lat="43.2519889" lon="12.1230037"><ele>366.6666666666667</ele><time>2026-04-12T08:03:38.648Z</time></trkpt><trkpt lat="43.2518895" lon="12.1228939"><ele>367.0</ele><time>2026-04-12T08:03:40.633Z</time></trkpt><trkpt lat="43.2518253" lon="12.1228487"><ele>367.33333333333337</ele><time>2026-04-12T08:03:41.636Z</time></trkpt><trkpt lat="43.2517588" lon="12.1228257"><ele>367.6666666666667</ele><time>2026-04-12T08:03:42.642Z</time></trkpt><trkpt lat="43.2516941" lon="12.122814"><ele>368.0</ele><time>2026-04-12T08:03:43.647Z</time></trkpt><trkpt lat="43.2516275" lon="12.1227494"><ele>368.0</ele><time>2026-04-12T08:03:45.642Z</time></trkpt><trkpt lat="43.2515779" lon="12.1226758"><ele>368.0</ele><time>2026-04-12T08:03:48.651Z</time></trkpt><trkpt lat="43.2515168" lon="12.1226396"><ele>368.0</ele><time>2026-04-12T08:03:50.65Z</time></trkpt><trkpt lat="43.2514496" lon="12.12261"><ele>368.0</ele><time>2026-04-12T08:03:52.656Z</time></trkpt><trkpt lat="43.2514032" lon="12.1225147"><ele>368.0</ele><time>2026-04-12T08:03:54.653Z</time></trkpt><trkpt lat="43.2513234" lon="12.1224711"><ele>368.0</ele><time>2026-04-12T08:03:56.654Z</time></trkpt><trkpt lat="43.2512275" lon="12.1224245"><ele>371.0</ele><time>2026-04-12T08:03:58.644Z</time></trkpt><trkpt lat="43.251126" lon="12.1224006"><ele>374.0</ele><time>2026-04-12T08:04:00.643Z</time></trkpt><trkpt lat="43.2510285" lon="12.1223677"><ele>377.0</ele><time>2026-04-12T08:04:02.647Z</time></trkpt><trkpt lat="43.2509239" lon="12.1223344"><ele>380.0</ele><time>2026-04-12T08:04:04.652Z</time></trkpt><trkpt lat="43.2508274" lon="12.1222833"><ele>383.0</ele><time>2026-04-12T08:04:06.638Z</time></trkpt><trkpt lat="43.2507057" lon="12.1222572"><ele>383.0</ele><time>2026-04-12T08:04:08.637Z</time></trkpt><trkpt lat="43.2506355" lon="12.1222444"><ele>383.0</ele><time>2026-04-12T08:04:09.636Z</time></trkpt><trkpt lat="43.2505371" lon="12.1222449"><ele>383.0</ele><time>2026-04-12T08:04:11.635Z</time></trkpt><trkpt lat="43.2504718" lon="12.1222789"><ele>383.0</ele><time>2026-04-12T08:04:13.655Z</time></trkpt><trkpt lat="43.2503937" lon="12.1222663"><ele>383.0</ele><time>2026-04-12T08:04:15.653Z</time></trkpt><trkpt lat="43.2503293" lon="12.1221986"><ele>383.0</ele><time>2026-04-12T08:04:17.654Z</time></trkpt><trkpt lat="43.2502476" lon="12.1221656"><ele>387.2</ele><time>2026-04-12T08:04:19.655Z</time></trkpt><trkpt lat="43.2501321" lon="12.1221089"><ele>391.4</ele><time>2026-04-12T08:04:21.636Z</time></trkpt><trkpt lat="43.2500509" lon="12.122024"><ele>395.59999999999997</ele><time>2026-04-12T08:04:23.645Z</time></trkpt><trkpt lat="43.249949" lon="12.1219743"><ele>399.79999999999995</ele><time>2026-04-12T08:04:25.642Z</time></trkpt><trkpt lat="43.2498553" lon="12.1219649"><ele>404.0</ele><time>2026-04-12T08:04:27.653Z</time></trkpt><trkpt lat="43.2497571" lon="12.1219297"><ele>408.4</ele><time>2026-04-12T08:04:29.638Z</time></trkpt><trkpt lat="43.2496882" lon="12.1218335"><ele>412.79999999999995</ele><time>2026-04-12T08:04:31.649Z</time></trkpt><trkpt lat="43.249627" lon="12.1217201"><ele>417.20000000000005</ele><time>2026-04-12T08:04:33.65Z</time></trkpt><trkpt lat="43.2495928" lon="12.1215998"><ele>421.6</ele><time>2026-04-12T08:04:35.649Z</time></trkpt><trkpt lat="43.2494995" lon="12.1216016"><ele>426.0</ele><time>2026-04-12T08:04:38.651Z</time></trkpt><trkpt lat="43.2494147" lon="12.1216127"><ele>426.0</ele><time>2026-04-12T08:04:40.654Z</time></trkpt><trkpt lat="43.2493293" lon="12.121555"><ele>426.0</ele><time>2026-04-12T08:04:42.655Z</time></trkpt><trkpt lat="43.2492523" lon="12.1215612"><ele>426.0</ele><time>2026-04-12T08:04:44.641Z</time></trkpt><trkpt lat="43.2491852" lon="12.1215896"><ele>426.0</ele><time>2026-04-12T08:04:46.642Z</time></trkpt><trkpt lat="43.2491189" lon="12.1216379"><ele>426.0</ele><time>2026-04-12T08:04:48.641Z</time></trkpt><trkpt lat="43.2490113" lon="12.1216983"><ele>426.0</ele><time>2026-04-12T08:04:50.637Z</time></trkpt><trkpt lat="43.2489404" lon="12.1217507"><ele>429.1666666666667</ele><time>2026-04-12T08:04:51.629Z</time></trkpt><trkpt lat="43.2488741" lon="12.1218149"><ele>432.33333333333337</ele><time>2026-04-12T08:04:52.63Z</time></trkpt><trkpt lat="43.2488171" lon="12.121882"><ele>435.5</ele><time>2026-04-12T08:04:53.634Z</time></trkpt><trkpt lat="43.248712" lon="12.1219722"><ele>438.6666666666667</ele><time>2026-04-12T08:04:55.631Z</time></trkpt><trkpt lat="43.2486423" lon="12.1220274"><ele>441.83333333333337</ele><time>2026-04-12T08:04:56.622Z</time></trkpt><trkpt lat="43.2485738" lon="12.122064"><ele>445.0</ele><time>2026-04-12T08:04:57.636Z</time></trkpt><trkpt lat="43.2484654" lon="12.1220352"><ele>445.0</ele><time>2026-04-12T08:04:59.625Z</time></trkpt><trkpt lat="43.248372" lon="12.1219342"><ele>445.0</ele><time>2026-04-12T08:05:01.634Z</time></trkpt><trkpt lat="43.2482639" lon="12.1218799"><ele>445.0</ele><time>2026-04-12T08:05:03.632Z</time></trkpt><trkpt lat="43.2481882" lon="12.1218762"><ele>445.0</ele><time>2026-04-12T08:05:04.633Z</time></trkpt><trkpt lat="43.2481227" lon="12.1218629"><ele>445.0</ele><time>2026-04-12T08:05:05.624Z</time></trkpt><trkpt lat="43.2480541" lon="12.1217657"><ele>445.4</ele><time>2026-04-12T08:05:07.633Z</time></trkpt><trkpt lat="43.2480777" lon="12.1216404"><ele>445.8</ele><time>2026-04-12T08:05:09.639Z</time></trkpt><trkpt lat="43.2481469" lon="12.1215139"><ele>446.20000000000005</ele><time>2026-04-12T08:05:11.643Z</time></trkpt><trkpt lat="43.2481708" lon="12.1213961"><ele>446.6</ele><time>2026-04-12T08:05:13.637Z</time></trkpt><trkpt lat="43.2480864" lon="12.1213307"><ele>447.0</ele><time>2026-04-12T08:05:15.642Z</time></trkpt><trkpt lat="43.2480239" lon="12.1213165"><ele>447.0</ele><time>2026-04-12T08:05:16.631Z</time></trkpt><trkpt lat="43.2479555" lon="12.121266"><ele>447.0</ele><time>2026-04-12T08:05:18.645Z</time></trkpt><trkpt lat="43.2479743" lon="12.121173"><ele>447.0</ele><time>2026-04-12T08:05:20.643Z</time></trkpt><trkpt lat="43.2479964" lon="12.1210893"><ele>447.0</ele><time>2026-04-12T08:05:22.647Z</time></trkpt><trkpt lat="43.2479871" lon="12.1212081"><ele>447.0</ele><time>2026-04-12T08:06:39.651Z</time></trkpt><trkpt lat="43.2480449" lon="12.1212918"><ele>447.0</ele><time>2026-04-12T08:06:41.646Z</time></trkpt><trkpt lat="43.248139" lon="12.1213483"><ele>447.0</ele><time>2026-04-12T08:06:43.643Z</time></trkpt><trkpt lat="43.2482233" lon="12.1214155"><ele>447.00000000000006</ele><time>2026-04-12T08:06:45.639Z</time></trkpt><trkpt lat="43.2482475" lon="12.1215291"><ele>447.00000000000006</ele><time>2026-04-12T08:06:47.638Z</time></trkpt><trkpt lat="43.2481856" lon="12.1216373"><ele>447.0</ele><time>2026-04-12T08:06:49.644Z</time></trkpt><trkpt lat="43.2481299" lon="12.121741"><ele>447.0</ele><time>2026-04-12T08:06:51.636Z</time></trkpt><trkpt lat="43.2481313" lon="12.1218433"><ele>446.6666666666667</ele><time>2026-04-12T08:06:54.642Z</time></trkpt><trkpt lat="43.2481951" lon="12.1218616"><ele>446.33333333333337</ele><time>2026-04-12T08:06:56.642Z</time></trkpt><trkpt lat="43.2482845" lon="12.1218478"><ele>446.0</ele><time>2026-04-12T08:06:58.65Z</time></trkpt><trkpt lat="43.248393" lon="12.121897"><ele>445.6666666666667</ele><time>2026-04-12T08:07:00.641Z</time></trkpt><trkpt lat="43.2484492" lon="12.1219387"><ele>445.33333333333337</ele><time>2026-04-12T08:07:01.642Z</time></trkpt><trkpt lat="43.2485007" lon="12.1219887"><ele>445.0</ele><time>2026-04-12T08:07:02.634Z</time></trkpt><trkpt lat="43.2485853" lon="12.1220276"><ele>445.0</ele><time>2026-04-12T08:07:04.649Z</time></trkpt><trkpt lat="43.2486903" lon="12.1219794"><ele>445.0</ele><time>2026-04-12T08:07:06.636Z</time></trkpt><trkpt lat="43.2487451" lon="12.1219276"><ele>445.0</ele><time>2026-04-12T08:07:07.625Z</time></trkpt><trkpt lat="43.2488356" lon="12.1218385"><ele>445.0</ele><time>2026-04-12T08:07:09.626Z</time></trkpt><trkpt lat="43.2489127" lon="12.1217572"><ele>445.0</ele><time>2026-04-12T08:07:11.626Z</time></trkpt><trkpt lat="43.2489705" lon="12.1216798"><ele>441.83333333333337</ele><time>2026-04-12T08:07:13.65Z</time></trkpt><trkpt lat="43.2490526" lon="12.1216104"><ele>438.6666666666667</ele><time>2026-04-12T08:07:15.636Z</time></trkpt><trkpt lat="43.2491602" lon="12.121568"><ele>435.5</ele><time>2026-04-12T08:07:17.636Z</time></trkpt><trkpt lat="43.2492496" lon="12.1215331"><ele>432.33333333333337</ele><time>2026-04-12T08:07:19.644Z</time></trkpt><trkpt lat="43.249313" lon="12.1214919"><ele>429.1666666666667</ele><time>2026-04-12T08:07:21.648Z</time></trkpt><trkpt lat="43.2493765" lon="12.1215049"><ele>426.0</ele><time>2026-04-12T08:07:23.643Z</time></trkpt><trkpt lat="43.2494692" lon="12.1215617"><ele>426.0</ele><time>2026-04-12T08:07:25.645Z</time></trkpt><trkpt lat="43.2495569" lon="12.1215482"><ele>426.0</ele><time>2026-04-12T08:07:27.643Z</time></trkpt><trkpt lat="43.2496298" lon="12.1215579"><ele>426.0</ele><time>2026-04-12T08:07:29.646Z</time></trkpt><trkpt lat="43.2496733" lon="12.1216488"><ele>426.0</ele><time>2026-04-12T08:07:31.646Z</time></trkpt><trkpt lat="43.2497096" lon="12.1217448"><ele>426.0</ele><time>2026-04-12T08:07:33.643Z</time></trkpt><trkpt lat="43.2497497" lon="12.12182"><ele>426.0</ele><time>2026-04-12T08:07:35.645Z</time></trkpt><trkpt lat="43.2498089" lon="12.1219039"><ele>421.6</ele><time>2026-04-12T08:07:38.648Z</time></trkpt><trkpt lat="43.2498999" lon="12.1219302"><ele>417.20000000000005</ele><time>2026-04-12T08:07:41.641Z</time></trkpt><trkpt lat="43.2500041" lon="12.1219394"><ele>412.79999999999995</ele><time>2026-04-12T08:07:43.641Z</time></trkpt><trkpt lat="43.2501027" lon="12.121989"><ele>408.4</ele><time>2026-04-12T08:07:45.643Z</time></trkpt><trkpt lat="43.2501776" lon="12.1220628"><ele>404.0</ele><time>2026-04-12T08:07:47.644Z</time></trkpt><trkpt lat="43.250283" lon="12.12213"><ele>403.99999999999994</ele><time>2026-04-12T08:07:49.634Z</time></trkpt><trkpt lat="43.2503843" lon="12.122159"><ele>404.0</ele><time>2026-04-12T08:07:51.635Z</time></trkpt><trkpt lat="43.2504619" lon="12.1222099"><ele>404.0</ele><time>2026-04-12T08:07:53.645Z</time></trkpt><trkpt lat="43.2505238" lon="12.1222463"><ele>404.0</ele><time>2026-04-12T08:07:55.646Z</time></trkpt><trkpt lat="43.2505983" lon="12.1222155"><ele>403.99999999999994</ele><time>2026-04-12T08:07:57.642Z</time></trkpt><trkpt lat="43.2506765" lon="12.1221887"><ele>404.0</ele><time>2026-04-12T08:07:59.644Z</time></trkpt><trkpt lat="43.2507906" lon="12.1222279"><ele>399.79999999999995</ele><time>2026-04-12T08:08:01.638Z</time></trkpt><trkpt lat="43.2509035" lon="12.122274"><ele>395.59999999999997</ele><time>2026-04-12T08:08:03.631Z</time></trkpt><trkpt lat="43.2509889" lon="12.1223128"><ele>391.4</ele><time>2026-04-12T08:08:05.644Z</time></trkpt><trkpt lat="43.2510688" lon="12.1223463"><ele>387.2</ele><time>2026-04-12T08:08:07.646Z</time></trkpt><trkpt lat="43.2511352" lon="12.1223569"><ele>383.0</ele><time>2026-04-12T08:08:09.644Z</time></trkpt><trkpt lat="43.2512264" lon="12.1223791"><ele>383.1666666666667</ele><time>2026-04-12T08:08:12.648Z</time></trkpt><trkpt lat="43.2512983" lon="12.1224025"><ele>383.33333333333337</ele><time>2026-04-12T08:08:14.645Z</time></trkpt><trkpt lat="43.2513818" lon="12.1224361"><ele>383.5</ele><time>2026-04-12T08:08:16.645Z</time></trkpt><trkpt lat="43.2514652" lon="12.1224975"><ele>383.6666666666667</ele><time>2026-04-12T08:08:18.647Z</time></trkpt><trkpt lat="43.251522" lon="12.1225776"><ele>383.8333333333333</ele><time>2026-04-12T08:08:20.646Z</time></trkpt><trkpt lat="43.2515843" lon="12.1226171"><ele>384.0</ele><time>2026-04-12T08:08:23.649Z</time></trkpt><trkpt lat="43.2516595" lon="12.1226816"><ele>381.3333333333333</ele><time>2026-04-12T08:08:26.65Z</time></trkpt><trkpt lat="43.2517013" lon="12.1227675"><ele>378.6666666666667</ele><time>2026-04-12T08:08:29.647Z</time></trkpt><trkpt lat="43.2517672" lon="12.122793"><ele>376.0</ele><time>2026-04-12T08:08:32.647Z</time></trkpt><trkpt lat="43.2518354" lon="12.1228128"><ele>373.33333333333337</ele><time>2026-04-12T08:08:34.647Z</time></trkpt><trkpt lat="43.2519056" lon="12.1228714"><ele>370.6666666666667</ele><time>2026-04-12T08:08:36.65Z</time></trkpt><trkpt lat="43.2519813" lon="12.1229476"><ele>368.0</ele><time>2026-04-12T08:08:38.645Z</time></trkpt><trkpt lat="43.2520563" lon="12.1230364"><ele>368.0</ele><time>2026-04-12T08:08:40.643Z</time></trkpt><trkpt lat="43.2521132" lon="12.123152"><ele>368.0</ele><time>2026-04-12T08:08:42.66Z</time></trkpt><trkpt lat="43.2521867" lon="12.1231743"><ele>368.0</ele><time>2026-04-12T08:08:46.644Z</time></trkpt><trkpt lat="43.2522331" lon="12.1232625"><ele>368.0</ele><time>2026-04-12T08:08:49.644Z</time></trkpt><trkpt lat="43.2522494" lon="12.1233746"><ele>368.0</ele><time>2026-04-12T08:08:52.652Z</time></trkpt><trkpt lat="43.2522924" lon="12.1234865"><ele>368.0</ele><time>2026-04-12T08:08:55.649Z</time></trkpt><trkpt lat="43.2523508" lon="12.1235225"><ele>365.6666666666667</ele><time>2026-04-12T08:08:56.65Z</time></trkpt><trkpt lat="43.252433" lon="12.1235669"><ele>363.33333333333337</ele><time>2026-04-12T08:08:57.63Z</time></trkpt><trkpt lat="43.2525117" lon="12.1236207"><ele>361.0</ele><time>2026-04-12T08:08:58.633Z</time></trkpt><trkpt lat="43.2525731" lon="12.1236731"><ele>358.6666666666667</ele><time>2026-04-12T08:08:59.635Z</time></trkpt><trkpt lat="43.2526264" lon="12.1237228"><ele>356.3333333333333</ele><time>2026-04-12T08:09:00.63Z</time></trkpt><trkpt lat="43.2527136" lon="12.1237816"><ele>354.0</ele><time>2026-04-12T08:09:02.632Z</time></trkpt><trkpt lat="43.2527947" lon="12.1237847"><ele>354.0</ele><time>2026-04-12T08:09:04.635Z</time></trkpt><trkpt lat="43.2529134" lon="12.1238398"><ele>354.0</ele><time>2026-04-12T08:09:06.638Z</time></trkpt><trkpt lat="43.2530231" lon="12.1239004"><ele>354.0</ele><time>2026-04-12T08:09:08.635Z</time></trkpt><trkpt lat="43.2531004" lon="12.1239017"><ele>354.0</ele><time>2026-04-12T08:09:10.646Z</time></trkpt><trkpt lat="43.2531479" lon="12.1238197"><ele>354.0</ele><time>2026-04-12T08:09:12.635Z</time></trkpt><trkpt lat="43.2531991" lon="12.1237225"><ele>352.2</ele><time>2026-04-12T08:09:14.641Z</time></trkpt><trkpt lat="43.2532666" lon="12.1236161"><ele>350.4</ele><time>2026-04-12T08:09:16.647Z</time></trkpt><trkpt lat="43.2533486" lon="12.1235183"><ele>348.6</ele><time>2026-04-12T08:09:18.637Z</time></trkpt><trkpt lat="43.2534325" lon="12.1234599"><ele>346.8</ele><time>2026-04-12T08:09:20.644Z</time></trkpt><trkpt lat="43.2535239" lon="12.1234438"><ele>345.0</ele><time>2026-04-12T08:09:22.647Z</time></trkpt><trkpt lat="43.2536308" lon="12.1234404"><ele>345.0</ele><time>2026-04-12T08:09:24.648Z</time></trkpt><trkpt lat="43.2537368" lon="12.1234369"><ele>345.0</ele><time>2026-04-12T08:09:26.631Z</time></trkpt><trkpt lat="43.2538498" lon="12.1234745"><ele>345.0</ele><time>2026-04-12T08:09:28.635Z</time></trkpt><trkpt lat="43.253947" lon="12.1234982"><ele>345.0</ele><time>2026-04-12T08:09:30.633Z</time></trkpt><trkpt lat="43.2540307" lon="12.1234773"><ele>345.0</ele><time>2026-04-12T08:09:32.629Z</time></trkpt><trkpt lat="43.254115" lon="12.1234387"><ele>343.5</ele><time>2026-04-12T08:09:34.629Z</time></trkpt><trkpt lat="43.2541826" lon="12.1234516"><ele>342.0</ele><time>2026-04-12T08:09:35.63Z</time></trkpt><trkpt lat="43.2542481" lon="12.1234718"><ele>340.5</ele><time>2026-04-12T08:09:36.63Z</time></trkpt><trkpt lat="43.2543568" lon="12.1234928"><ele>339.0</ele><time>2026-04-12T08:09:38.634Z</time></trkpt><trkpt lat="43.2544489" lon="12.1235101"><ele>337.5</ele><time>2026-04-12T08:09:40.634Z</time></trkpt><trkpt lat="43.2545261" lon="12.123569"><ele>336.0</ele><time>2026-04-12T08:09:42.647Z</time></trkpt><trkpt lat="43.2545912" lon="12.1236089"><ele>336.0</ele><time>2026-04-12T08:09:44.652Z</time></trkpt><trkpt lat="43.2546548" lon="12.1236712"><ele>336.0</ele><time>2026-04-12T08:09:46.649Z</time></trkpt><trkpt lat="43.2546917" lon="12.1237667"><ele>336.0</ele><time>2026-04-12T08:09:48.644Z</time></trkpt><trkpt lat="43.2546936" lon="12.1239156"><ele>336.0</ele><time>2026-04-12T08:09:50.648Z</time></trkpt><trkpt lat="43.2546939" lon="12.124027"><ele>336.0</ele><time>2026-04-12T08:09:52.647Z</time></trkpt><trkpt lat="43.2547325" lon="12.1241731"><ele>335.6666666666667</ele><time>2026-04-12T08:09:54.644Z</time></trkpt><trkpt lat="43.2547503" lon="12.1243119"><ele>335.3333333333333</ele><time>2026-04-12T08:09:56.638Z</time></trkpt><trkpt lat="43.254781" lon="12.124398"><ele>335.0</ele><time>2026-04-12T08:09:58.648Z</time></trkpt><trkpt lat="43.2547916" lon="12.1244996"><ele>334.66666666666663</ele><time>2026-04-12T08:10:00.647Z</time></trkpt><trkpt lat="43.2547748" lon="12.1245883"><ele>334.3333333333333</ele><time>2026-04-12T08:10:03.649Z</time></trkpt><trkpt lat="43.2547864" lon="12.1246743"><ele>334.0</ele><time>2026-04-12T08:10:07.646Z</time></trkpt><trkpt lat="43.2548453" lon="12.1245938"><ele>332.0</ele><time>2026-04-12T08:10:10.651Z</time></trkpt><trkpt lat="43.2548821" lon="12.1245009"><ele>330.0</ele><time>2026-04-12T08:10:14.651Z</time></trkpt><trkpt lat="43.2549161" lon="12.1244212"><ele>328.0</ele><time>2026-04-12T08:10:16.647Z</time></trkpt><trkpt lat="43.254958" lon="12.1243357"><ele>326.0</ele><time>2026-04-12T08:10:18.645Z</time></trkpt><trkpt lat="43.254966" lon="12.1242246"><ele>324.0</ele><time>2026-04-12T08:10:21.643Z</time></trkpt><trkpt lat="43.2549643" lon="12.124095"><ele>322.0</ele><time>2026-04-12T08:10:24.655Z</time></trkpt><trkpt lat="43.2550106" lon="12.1239973"><ele>322.0</ele><time>2026-04-12T08:10:27.648Z</time></trkpt><trkpt lat="43.2550846" lon="12.123914"><ele>322.0</ele><time>2026-04-12T08:10:30.646Z</time></trkpt><trkpt lat="43.2551386" lon="12.1238312"><ele>322.0</ele><time>2026-04-12T08:10:32.647Z</time></trkpt><trkpt lat="43.2552286" lon="12.1237729"><ele>322.0</ele><time>2026-04-12T08:10:34.648Z</time></trkpt><trkpt lat="43.2553517" lon="12.1237224"><ele>322.0</ele><time>2026-04-12T08:10:36.634Z</time></trkpt><trkpt lat="43.2554113" lon="12.1236902"><ele>322.0</ele><time>2026-04-12T08:10:37.633Z</time></trkpt><trkpt lat="43.2554688" lon="12.1236491"><ele>322.0</ele><time>2026-04-12T08:10:38.63Z</time></trkpt><trkpt lat="43.2555294" lon="12.1236069"><ele>322.0</ele><time>2026-04-12T08:10:39.634Z</time></trkpt><trkpt lat="43.2555879" lon="12.1235537"><ele>322.0</ele><time>2026-04-12T08:10:40.636Z</time></trkpt><trkpt lat="43.2556469" lon="12.1234957"><ele>322.0</ele><time>2026-04-12T08:10:41.634Z</time></trkpt><trkpt lat="43.255704" lon="12.1234482"><ele>322.0</ele><time>2026-04-12T08:10:42.634Z</time></trkpt><trkpt lat="43.2557651" lon="12.1234105"><ele>322.0</ele><time>2026-04-12T08:10:43.637Z</time></trkpt><trkpt lat="43.2558606" lon="12.1233396"><ele>321.3333333333333</ele><time>2026-04-12T08:10:45.632Z</time></trkpt><trkpt lat="43.2559101" lon="12.1232698"><ele>320.66666666666663</ele><time>2026-04-12T08:10:49.647Z</time></trkpt><trkpt lat="43.2559551" lon="12.1233765"><ele>320.0</ele><time>2026-04-12T08:10:51.646Z</time></trkpt><trkpt lat="43.2560032" lon="12.1235123"><ele>319.3333333333333</ele><time>2026-04-12T08:10:53.637Z</time></trkpt><trkpt lat="43.2560577" lon="12.1235987"><ele>318.6666666666667</ele><time>2026-04-12T08:10:55.65Z</time></trkpt><trkpt lat="43.2561257" lon="12.1236409"><ele>318.0</ele><time>2026-04-12T08:10:58.646Z</time></trkpt><trkpt lat="43.2561651" lon="12.123504"><ele>318.0</ele><time>2026-04-12T08:11:55.646Z</time></trkpt><trkpt lat="43.2562" lon="12.1234235"><ele>318.0</ele><time>2026-04-12T08:11:56.645Z</time></trkpt><trkpt lat="43.25625" lon="12.1233254"><ele>318.0</ele><time>2026-04-12T08:11:57.632Z</time></trkpt><trkpt lat="43.2563116" lon="12.1232139"><ele>318.0</ele><time>2026-04-12T08:11:58.634Z</time></trkpt><trkpt lat="43.2563865" lon="12.1230854"><ele>318.0</ele><time>2026-04-12T08:11:59.637Z</time></trkpt><trkpt lat="43.2564613" lon="12.1229353"><ele>319.25</ele><time>2026-04-12T08:12:00.635Z</time></trkpt><trkpt lat="43.2565404" lon="12.1227673"><ele>320.5</ele><time>2026-04-12T08:12:01.632Z</time></trkpt><trkpt lat="43.2566205" lon="12.1225935"><ele>321.75</ele><time>2026-04-12T08:12:02.626Z</time></trkpt><trkpt lat="43.256694" lon="12.1224239"><ele>323.0</ele><time>2026-04-12T08:12:03.632Z</time></trkpt><trkpt lat="43.2567599" lon="12.1222841"><ele>323.0</ele><time>2026-04-12T08:12:04.63Z</time></trkpt><trkpt lat="43.2568211" lon="12.1221468"><ele>323.0</ele><time>2026-04-12T08:12:05.629Z</time></trkpt><trkpt lat="43.2568774" lon="12.122006"><ele>323.0</ele><time>2026-04-12T08:12:06.633Z</time></trkpt><trkpt lat="43.256935" lon="12.1218637"><ele>323.0</ele><time>2026-04-12T08:12:07.631Z</time></trkpt><trkpt lat="43.2569894" lon="12.1217165"><ele>323.0</ele><time>2026-04-12T08:12:08.633Z</time></trkpt><trkpt lat="43.2570392" lon="12.1215613"><ele>323.0</ele><time>2026-04-12T08:12:09.634Z</time></trkpt><trkpt lat="43.25708" lon="12.1214096"><ele>323.0</ele><time>2026-04-12T08:12:10.631Z</time></trkpt><trkpt lat="43.2571128" lon="12.1212629"><ele>323.0</ele><time>2026-04-12T08:12:11.632Z</time></trkpt><trkpt lat="43.2571309" lon="12.1211115"><ele>323.0</ele><time>2026-04-12T08:12:12.629Z</time></trkpt><trkpt lat="43.2571466" lon="12.1209653"><ele>323.0</ele><time>2026-04-12T08:12:13.629Z</time></trkpt><trkpt lat="43.2571579" lon="12.1208128"><ele>323.0</ele><time>2026-04-12T08:12:14.628Z</time></trkpt><trkpt lat="43.2571583" lon="12.120657"><ele>323.0</ele><time>2026-04-12T08:12:15.628Z</time></trkpt><trkpt lat="43.2571602" lon="12.1204994"><ele>323.0</ele><time>2026-04-12T08:12:16.628Z</time></trkpt><trkpt lat="43.2571574" lon="12.120336"><ele>323.4</ele><time>2026-04-12T08:12:17.628Z</time></trkpt><trkpt lat="43.2571641" lon="12.1201805"><ele>323.79999999999995</ele><time>2026-04-12T08:12:18.627Z</time></trkpt><trkpt lat="43.2571784" lon="12.1200359"><ele>324.2</ele><time>2026-04-12T08:12:19.638Z</time></trkpt><trkpt lat="43.2571955" lon="12.1198937"><ele>324.6</ele><time>2026-04-12T08:12:20.625Z</time></trkpt><trkpt lat="43.2572221" lon="12.1197629"><ele>325.0</ele><time>2026-04-12T08:12:21.623Z</time></trkpt><trkpt lat="43.2572569" lon="12.1196386"><ele>326.0</ele><time>2026-04-12T08:12:22.627Z</time></trkpt><trkpt lat="43.2573004" lon="12.1195197"><ele>327.0</ele><time>2026-04-12T08:12:23.63Z</time></trkpt><trkpt lat="43.2573538" lon="12.1194009"><ele>328.0</ele><time>2026-04-12T08:12:24.623Z</time></trkpt><trkpt lat="43.2574059" lon="12.1192885"><ele>329.0</ele><time>2026-04-12T08:12:25.626Z</time></trkpt><trkpt lat="43.2574582" lon="12.1191852"><ele>330.0</ele><time>2026-04-12T08:12:26.625Z</time></trkpt><trkpt lat="43.2575117" lon="12.119092"><ele>330.1666666666667</ele><time>2026-04-12T08:12:27.627Z</time></trkpt><trkpt lat="43.2575603" lon="12.1190089"><ele>330.3333333333333</ele><time>2026-04-12T08:12:28.628Z</time></trkpt><trkpt lat="43.2576116" lon="12.1189255"><ele>330.5</ele><time>2026-04-12T08:12:29.629Z</time></trkpt><trkpt lat="43.2576548" lon="12.1188389"><ele>330.66666666666663</ele><time>2026-04-12T08:12:30.625Z</time></trkpt><trkpt lat="43.2576999" lon="12.1187487"><ele>330.8333333333333</ele><time>2026-04-12T08:12:31.625Z</time></trkpt><trkpt lat="43.2577454" lon="12.1186444"><ele>331.0</ele><time>2026-04-12T08:12:32.624Z</time></trkpt><trkpt lat="43.2577951" lon="12.1185389"><ele>331.0</ele><time>2026-04-12T08:12:33.621Z</time></trkpt><trkpt lat="43.2578451" lon="12.1184299"><ele>331.0</ele><time>2026-04-12T08:12:34.623Z</time></trkpt><trkpt lat="43.2578923" lon="12.1183174"><ele>331.0</ele><time>2026-04-12T08:12:35.623Z</time></trkpt><trkpt lat="43.2579383" lon="12.1181965"><ele>331.0</ele><time>2026-04-12T08:12:36.621Z</time></trkpt><trkpt lat="43.2579869" lon="12.1180847"><ele>331.0</ele><time>2026-04-12T08:12:37.621Z</time></trkpt><trkpt lat="43.2580412" lon="12.1179739"><ele>331.3333333333333</ele><time>2026-04-12T08:12:38.621Z</time></trkpt><trkpt lat="43.2580979" lon="12.1178748"><ele>331.66666666666663</ele><time>2026-04-12T08:12:39.623Z</time></trkpt><trkpt lat="43.2581597" lon="12.1177842"><ele>332.0</ele><time>2026-04-12T08:12:40.617Z</time></trkpt><trkpt lat="43.2582158" lon="12.1177001"><ele>332.3333333333333</ele><time>2026-04-12T08:12:41.622Z</time></trkpt><trkpt lat="43.2582747" lon="12.1176308"><ele>332.6666666666667</ele><time>2026-04-12T08:12:42.622Z</time></trkpt><trkpt lat="43.2583296" lon="12.1175705"><ele>333.0</ele><time>2026-04-12T08:12:43.622Z</time></trkpt><trkpt lat="43.2583888" lon="12.1175141"><ele>333.0</ele><time>2026-04-12T08:12:44.622Z</time></trkpt><trkpt lat="43.258452" lon="12.1174671"><ele>333.0</ele><time>2026-04-12T08:12:45.624Z</time></trkpt><trkpt lat="43.2585168" lon="12.11742"><ele>333.0</ele><time>2026-04-12T08:12:46.619Z</time></trkpt><trkpt lat="43.2585888" lon="12.1173712"><ele>333.0</ele><time>2026-04-12T08:12:47.623Z</time></trkpt><trkpt lat="43.2586596" lon="12.1173175"><ele>333.0</ele><time>2026-04-12T08:12:48.622Z</time></trkpt><trkpt lat="43.2587364" lon="12.1172311"><ele>333.0</ele><time>2026-04-12T08:12:49.623Z</time></trkpt><trkpt lat="43.2588193" lon="12.1171393"><ele>334.75</ele><time>2026-04-12T08:12:50.627Z</time></trkpt><trkpt lat="43.2589087" lon="12.1170479"><ele>336.5</ele><time>2026-04-12T08:12:51.622Z</time></trkpt><trkpt lat="43.2590008" lon="12.1169514"><ele>338.25</ele><time>2026-04-12T08:12:52.623Z</time></trkpt><trkpt lat="43.2590955" lon="12.1168544"><ele>340.0</ele><time>2026-04-12T08:12:53.618Z</time></trkpt><trkpt lat="43.2591996" lon="12.1167595"><ele>340.0</ele><time>2026-04-12T08:12:54.618Z</time></trkpt><trkpt lat="43.2593009" lon="12.1166779"><ele>340.0</ele><time>2026-04-12T08:12:55.622Z</time></trkpt><trkpt lat="43.259397" lon="12.1166261"><ele>340.0</ele><time>2026-04-12T08:12:56.617Z</time></trkpt><trkpt lat="43.2594882" lon="12.1166113"><ele>340.0</ele><time>2026-04-12T08:12:57.625Z</time></trkpt><trkpt lat="43.2595744" lon="12.1166243"><ele>340.0</ele><time>2026-04-12T08:12:58.622Z</time></trkpt><trkpt lat="43.2596469" lon="12.1166474"><ele>340.0</ele><time>2026-04-12T08:12:59.624Z</time></trkpt><trkpt lat="43.2597555" lon="12.1166529"><ele>340.0</ele><time>2026-04-12T08:13:01.618Z</time></trkpt><trkpt lat="43.2598332" lon="12.116593"><ele>340.0</ele><time>2026-04-12T08:13:03.616Z</time></trkpt><trkpt lat="43.2599223" lon="12.1165349"><ele>340.0</ele><time>2026-04-12T08:13:05.616Z</time></trkpt><trkpt lat="43.2600371" lon="12.1164864"><ele>340.0</ele><time>2026-04-12T08:13:07.615Z</time></trkpt><trkpt lat="43.2600897" lon="12.1164317"><ele>341.0</ele><time>2026-04-12T08:13:08.616Z</time></trkpt><trkpt lat="43.26018" lon="12.116317"><ele>342.0</ele><time>2026-04-12T08:13:10.62Z</time></trkpt><trkpt lat="43.2602386" lon="12.1162502"><ele>343.0</ele><time>2026-04-12T08:13:11.617Z</time></trkpt><trkpt lat="43.2602999" lon="12.116174"><ele>344.0</ele><time>2026-04-12T08:13:12.621Z</time></trkpt><trkpt lat="43.2603571" lon="12.1160851"><ele>345.0</ele><time>2026-04-12T08:13:13.62Z</time></trkpt><trkpt lat="43.2603978" lon="12.1159903"><ele>346.0</ele><time>2026-04-12T08:13:14.62Z</time></trkpt><trkpt lat="43.2604219" lon="12.1158943"><ele>346.0</ele><time>2026-04-12T08:13:15.621Z</time></trkpt><trkpt lat="43.2604643" lon="12.1157542"><ele>346.0</ele><time>2026-04-12T08:13:17.62Z</time></trkpt><trkpt lat="43.2605305" lon="12.1156668"><ele>346.0</ele><time>2026-04-12T08:13:19.626Z</time></trkpt><trkpt lat="43.2605868" lon="12.1156224"><ele>346.0</ele><time>2026-04-12T08:13:20.621Z</time></trkpt><trkpt lat="43.2606518" lon="12.1155906"><ele>346.0</ele><time>2026-04-12T08:13:21.628Z</time></trkpt><trkpt lat="43.2607275" lon="12.1155729"><ele>346.0</ele><time>2026-04-12T08:13:22.622Z</time></trkpt><trkpt lat="43.2608172" lon="12.1155521"><ele>349.4</ele><time>2026-04-12T08:13:23.625Z</time></trkpt><trkpt lat="43.2609151" lon="12.1155387"><ele>352.8</ele><time>2026-04-12T08:13:24.621Z</time></trkpt><trkpt lat="43.2610138" lon="12.1155102"><ele>356.2</ele><time>2026-04-12T08:13:25.621Z</time></trkpt><trkpt lat="43.261112" lon="12.1154786"><ele>359.59999999999997</ele><time>2026-04-12T08:13:26.617Z</time></trkpt><trkpt lat="43.2612069" lon="12.1154513"><ele>363.0</ele><time>2026-04-12T08:13:27.621Z</time></trkpt><trkpt lat="43.2612987" lon="12.1154241"><ele>363.0</ele><time>2026-04-12T08:13:28.619Z</time></trkpt><trkpt lat="43.2614062" lon="12.1153846"><ele>363.0</ele><time>2026-04-12T08:13:29.621Z</time></trkpt><trkpt lat="43.261523" lon="12.1153387"><ele>363.0</ele><time>2026-04-12T08:13:30.628Z</time></trkpt><trkpt lat="43.2616353" lon="12.115287"><ele>363.0</ele><time>2026-04-12T08:13:31.626Z</time></trkpt><trkpt lat="43.2617399" lon="12.1152419"><ele>365.1666666666667</ele><time>2026-04-12T08:13:32.623Z</time></trkpt><trkpt lat="43.2618334" lon="12.1151996"><ele>367.3333333333333</ele><time>2026-04-12T08:13:33.624Z</time></trkpt><trkpt lat="43.2619132" lon="12.1151599"><ele>369.5</ele><time>2026-04-12T08:13:34.62Z</time></trkpt><trkpt lat="43.2619781" lon="12.1151154"><ele>371.66666666666663</ele><time>2026-04-12T08:13:35.62Z</time></trkpt><trkpt lat="43.262039" lon="12.1150815"><ele>373.8333333333333</ele><time>2026-04-12T08:13:36.62Z</time></trkpt><trkpt lat="43.2621457" lon="12.1149919"><ele>376.0</ele><time>2026-04-12T08:13:38.619Z</time></trkpt><trkpt lat="43.2622089" lon="12.1149399"><ele>378.16666666666663</ele><time>2026-04-12T08:13:39.621Z</time></trkpt><trkpt lat="43.2622778" lon="12.1148878"><ele>380.3333333333333</ele><time>2026-04-12T08:13:40.622Z</time></trkpt><trkpt lat="43.2623459" lon="12.1148339"><ele>382.5</ele><time>2026-04-12T08:13:41.619Z</time></trkpt><trkpt lat="43.2624225" lon="12.1147822"><ele>384.66666666666663</ele><time>2026-04-12T08:13:42.621Z</time></trkpt><trkpt lat="43.262493" lon="12.114728"><ele>386.8333333333333</ele><time>2026-04-12T08:13:43.62Z</time></trkpt><trkpt lat="43.2625579" lon="12.1146624"><ele>389.0</ele><time>2026-04-12T08:13:44.624Z</time></trkpt><trkpt lat="43.2626212" lon="12.1146023"><ele>389.66666666666663</ele><time>2026-04-12T08:13:45.628Z</time></trkpt><trkpt lat="43.2626876" lon="12.1145616"><ele>390.3333333333333</ele><time>2026-04-12T08:13:46.617Z</time></trkpt><trkpt lat="43.2627968" lon="12.1145264"><ele>391.0</ele><time>2026-04-12T08:13:48.622Z</time></trkpt><trkpt lat="43.2628679" lon="12.1145138"><ele>391.66666666666663</ele><time>2026-04-12T08:13:49.625Z</time></trkpt><trkpt lat="43.2629562" lon="12.1145025"><ele>392.3333333333333</ele><time>2026-04-12T08:13:50.621Z</time></trkpt><trkpt lat="43.2630342" lon="12.1144713"><ele>393.0</ele><time>2026-04-12T08:13:51.619Z</time></trkpt><trkpt lat="43.2631213" lon="12.1144059"><ele>393.0</ele><time>2026-04-12T08:13:53.624Z</time></trkpt><trkpt lat="43.2631425" lon="12.1142741"><ele>393.0</ele><time>2026-04-12T08:13:55.62Z</time></trkpt><trkpt lat="43.2631778" lon="12.1141381"><ele>393.0</ele><time>2026-04-12T08:13:57.62Z</time></trkpt><trkpt lat="43.2632707" lon="12.114039"><ele>393.0</ele><time>2026-04-12T08:13:59.623Z</time></trkpt><trkpt lat="43.2633467" lon="12.1140055"><ele>393.0</ele><time>2026-04-12T08:14:00.622Z</time></trkpt><trkpt lat="43.2634424" lon="12.1139856"><ele>396.25</ele><time>2026-04-12T08:14:01.627Z</time></trkpt><trkpt lat="43.2635269" lon="12.1139662"><ele>399.5</ele><time>2026-04-12T08:14:02.62Z</time></trkpt><trkpt lat="43.2635929" lon="12.1139397"><ele>402.75</ele><time>2026-04-12T08:14:03.623Z</time></trkpt><trkpt lat="43.2636736" lon="12.1138221"><ele>406.0</ele><time>2026-04-12T08:14:05.621Z</time></trkpt><trkpt lat="43.2636955" lon="12.1135752"><ele>406.00000000000006</ele><time>2026-04-12T08:14:09.7Z</time></trkpt><trkpt lat="43.2636149" lon="12.1136253"><ele>406.0</ele><time>2026-04-12T08:14:12.688Z</time></trkpt><trkpt lat="43.2635293" lon="12.1136255"><ele>406.0</ele><time>2026-04-12T08:14:13.668Z</time></trkpt><trkpt lat="43.2634441" lon="12.1136144"><ele>406.0</ele><time>2026-04-12T08:14:14.671Z</time></trkpt><trkpt lat="43.2633645" lon="12.1136038"><ele>406.00000000000006</ele><time>2026-04-12T08:14:15.671Z</time></trkpt><trkpt lat="43.2632866" lon="12.1135989"><ele>406.0</ele><time>2026-04-12T08:14:16.672Z</time></trkpt><trkpt lat="43.2632078" lon="12.1135935"><ele>406.00000000000006</ele><time>2026-04-12T08:14:17.676Z</time></trkpt><trkpt lat="43.2631307" lon="12.11359"><ele>406.0</ele><time>2026-04-12T08:14:18.671Z</time></trkpt><trkpt lat="43.2630592" lon="12.1135896"><ele>406.0</ele><time>2026-04-12T08:14:19.671Z</time></trkpt><trkpt lat="43.2629968" lon="12.1136161"><ele>406.0</ele><time>2026-04-12T08:14:20.668Z</time></trkpt><trkpt lat="43.2629397" lon="12.1136902"><ele>406.00000000000006</ele><time>2026-04-12T08:14:21.669Z</time></trkpt><trkpt lat="43.2628793" lon="12.1137683"><ele>406.0</ele><time>2026-04-12T08:14:22.671Z</time></trkpt><trkpt lat="43.2627827" lon="12.1138167"><ele>406.20000000000005</ele><time>2026-04-12T08:14:24.675Z</time></trkpt><trkpt lat="43.2627799" lon="12.1136921"><ele>406.40000000000003</ele><time>2026-04-12T08:14:27.681Z</time></trkpt><trkpt lat="43.2628532" lon="12.1135983"><ele>406.6</ele><time>2026-04-12T08:14:29.681Z</time></trkpt><trkpt lat="43.2629251" lon="12.1134491"><ele>406.8</ele><time>2026-04-12T08:14:31.671Z</time></trkpt><trkpt lat="43.2629637" lon="12.1133355"><ele>407.0</ele><time>2026-04-12T08:14:32.672Z</time></trkpt><trkpt lat="43.2630078" lon="12.1132293"><ele>406.99999999999994</ele><time>2026-04-12T08:14:33.671Z</time></trkpt><trkpt lat="43.263056" lon="12.1131402"><ele>407.0</ele><time>2026-04-12T08:14:34.664Z</time></trkpt><trkpt lat="43.2631054" lon="12.1130515"><ele>407.0</ele><time>2026-04-12T08:14:35.668Z</time></trkpt><trkpt lat="43.2631436" lon="12.11295"><ele>407.0</ele><time>2026-04-12T08:14:36.665Z</time></trkpt><trkpt lat="43.2631866" lon="12.1128371"><ele>406.99999999999994</ele><time>2026-04-12T08:14:37.664Z</time></trkpt><trkpt lat="43.2632318" lon="12.1127397"><ele>407.0</ele><time>2026-04-12T08:14:38.669Z</time></trkpt><trkpt lat="43.2632709" lon="12.1126555"><ele>409.20000000000005</ele><time>2026-04-12T08:14:39.673Z</time></trkpt><trkpt lat="43.2632913" lon="12.1125221"><ele>411.4</ele><time>2026-04-12T08:14:41.673Z</time></trkpt><trkpt lat="43.2632499" lon="12.1123848"><ele>413.6</ele><time>2026-04-12T08:14:43.675Z</time></trkpt><trkpt lat="43.2631941" lon="12.1122835"><ele>415.79999999999995</ele><time>2026-04-12T08:14:45.688Z</time></trkpt><trkpt lat="43.2632275" lon="12.1121394"><ele>418.0</ele><time>2026-04-12T08:14:47.668Z</time></trkpt><trkpt lat="43.263263" lon="12.1120408"><ele>417.6666666666667</ele><time>2026-04-12T08:14:48.625Z</time></trkpt><trkpt lat="43.2632845" lon="12.1119366"><ele>417.33333333333337</ele><time>2026-04-12T08:14:49.615Z</time></trkpt><trkpt lat="43.2632895" lon="12.1118267"><ele>417.0</ele><time>2026-04-12T08:14:50.629Z</time></trkpt><trkpt lat="43.2632919" lon="12.1117005"><ele>416.66666666666663</ele><time>2026-04-12T08:14:51.622Z</time></trkpt><trkpt lat="43.263303" lon="12.1115979"><ele>416.3333333333333</ele><time>2026-04-12T08:14:52.632Z</time></trkpt><trkpt lat="43.2633384" lon="12.1115263"><ele>416.0</ele><time>2026-04-12T08:14:53.626Z</time></trkpt><trkpt lat="43.2633937" lon="12.1114621"><ele>416.0</ele><time>2026-04-12T08:14:54.62Z</time></trkpt><trkpt lat="43.2634717" lon="12.1114034"><ele>416.0</ele><time>2026-04-12T08:14:55.623Z</time></trkpt><trkpt lat="43.2635405" lon="12.111327"><ele>416.0</ele><time>2026-04-12T08:14:56.618Z</time></trkpt><trkpt lat="43.2635939" lon="12.1112364"><ele>416.0</ele><time>2026-04-12T08:14:57.626Z</time></trkpt><trkpt lat="43.263635" lon="12.1111075"><ele>416.0</ele><time>2026-04-12T08:14:58.624Z</time></trkpt><trkpt lat="43.2636822" lon="12.1109416"><ele>415.99999999999994</ele><time>2026-04-12T08:14:59.62Z</time></trkpt><trkpt lat="43.2637233" lon="12.1107937"><ele>416.0</ele><time>2026-04-12T08:15:00.621Z</time></trkpt><trkpt lat="43.2637576" lon="12.1106668"><ele>416.0</ele><time>2026-04-12T08:15:01.613Z</time></trkpt><trkpt lat="43.2637943" lon="12.1105621"><ele>416.0</ele><time>2026-04-12T08:15:02.621Z</time></trkpt><trkpt lat="43.2638463" lon="12.110502"><ele>415.99999999999994</ele><time>2026-04-12T08:15:03.613Z</time></trkpt><trkpt lat="43.2639107" lon="12.1104442"><ele>416.0</ele><time>2026-04-12T08:15:04.614Z</time></trkpt><trkpt lat="43.2639848" lon="12.1103847"><ele>418.6</ele><time>2026-04-12T08:15:05.617Z</time></trkpt><trkpt lat="43.2640731" lon="12.1103298"><ele>421.20000000000005</ele><time>2026-04-12T08:15:06.615Z</time></trkpt><trkpt lat="43.2641644" lon="12.1102779"><ele>423.79999999999995</ele><time>2026-04-12T08:15:07.611Z</time></trkpt><trkpt lat="43.2642559" lon="12.1102239"><ele>426.4</ele><time>2026-04-12T08:15:08.611Z</time></trkpt><trkpt lat="43.2643426" lon="12.1101743"><ele>429.0</ele><time>2026-04-12T08:15:09.611Z</time></trkpt><trkpt lat="43.2644348" lon="12.1101322"><ele>429.0</ele><time>2026-04-12T08:15:10.618Z</time></trkpt><trkpt lat="43.2645333" lon="12.1101047"><ele>429.0</ele><time>2026-04-12T08:15:11.646Z</time></trkpt><trkpt lat="43.2646196" lon="12.1100689"><ele>429.0</ele><time>2026-04-12T08:15:12.613Z</time></trkpt><trkpt lat="43.2646966" lon="12.1100303"><ele>429.0</ele><time>2026-04-12T08:15:13.621Z</time></trkpt><trkpt lat="43.264759" lon="12.1099645"><ele>429.0</ele><time>2026-04-12T08:15:14.617Z</time></trkpt><trkpt lat="43.2648106" lon="12.1098789"><ele>429.0</ele><time>2026-04-12T08:15:15.614Z</time></trkpt><trkpt lat="43.2648546" lon="12.1097886"><ele>432.1666666666667</ele><time>2026-04-12T08:15:16.62Z</time></trkpt><trkpt lat="43.2649056" lon="12.109702"><ele>435.33333333333337</ele><time>2026-04-12T08:15:17.623Z</time></trkpt><trkpt lat="43.2649583" lon="12.10961"><ele>438.5</ele><time>2026-04-12T08:15:18.612Z</time></trkpt><trkpt lat="43.2650094" lon="12.1095122"><ele>441.6666666666667</ele><time>2026-04-12T08:15:19.627Z</time></trkpt><trkpt lat="43.265056" lon="12.1094206"><ele>444.83333333333337</ele><time>2026-04-12T08:15:20.62Z</time></trkpt><trkpt lat="43.265096" lon="12.1093533"><ele>448.0</ele><time>2026-04-12T08:15:21.622Z</time></trkpt><trkpt lat="43.2651711" lon="12.109249"><ele>448.0</ele><time>2026-04-12T08:15:23.623Z</time></trkpt><trkpt lat="43.2652364" lon="12.1091045"><ele>447.99999999999994</ele><time>2026-04-12T08:15:25.624Z</time></trkpt><trkpt lat="43.2652652" lon="12.1089967"><ele>447.99999999999994</ele><time>2026-04-12T08:15:26.615Z</time></trkpt><trkpt lat="43.265271" lon="12.1088964"><ele>448.0</ele><time>2026-04-12T08:15:27.622Z</time></trkpt><trkpt lat="43.2652275" lon="12.1087637"><ele>448.0</ele><time>2026-04-12T08:15:29.62Z</time></trkpt><trkpt lat="43.2651336" lon="12.1086547"><ele>449.00000000000006</ele><time>2026-04-12T08:15:31.622Z</time></trkpt><trkpt lat="43.2651017" lon="12.1085695"><ele>450.0</ele><time>2026-04-12T08:15:32.623Z</time></trkpt><trkpt lat="43.2650745" lon="12.1084733"><ele>451.0</ele><time>2026-04-12T08:15:33.622Z</time></trkpt><trkpt lat="43.2650381" lon="12.1083749"><ele>452.0</ele><time>2026-04-12T08:15:34.618Z</time></trkpt><trkpt lat="43.264987" lon="12.1082685"><ele>453.00000000000006</ele><time>2026-04-12T08:15:35.62Z</time></trkpt><trkpt lat="43.2649285" lon="12.1081482"><ele>454.0</ele><time>2026-04-12T08:15:36.625Z</time></trkpt><trkpt lat="43.2648609" lon="12.1079972"><ele>453.5</ele><time>2026-04-12T08:15:37.626Z</time></trkpt><trkpt lat="43.2647934" lon="12.1078332"><ele>453.0</ele><time>2026-04-12T08:15:38.627Z</time></trkpt><trkpt lat="43.2647365" lon="12.1076753"><ele>452.5</ele><time>2026-04-12T08:15:39.624Z</time></trkpt><trkpt lat="43.2646812" lon="12.1075413"><ele>452.0</ele><time>2026-04-12T08:15:40.625Z</time></trkpt><trkpt lat="43.2646231" lon="12.1074359"><ele>451.99999999999994</ele><time>2026-04-12T08:15:41.632Z</time></trkpt><trkpt lat="43.2645748" lon="12.107367"><ele>452.0</ele><time>2026-04-12T08:15:42.638Z</time></trkpt><trkpt lat="43.264648" lon="12.1073544"><ele>452.0</ele><time>2026-04-12T08:15:50.639Z</time></trkpt><trkpt lat="43.2646963" lon="12.107412"><ele>452.0</ele><time>2026-04-12T08:15:51.648Z</time></trkpt><trkpt lat="43.264759" lon="12.1074859"><ele>451.99999999999994</ele><time>2026-04-12T08:15:52.626Z</time></trkpt><trkpt lat="43.2648265" lon="12.1075877"><ele>452.0</ele><time>2026-04-12T08:15:53.635Z</time></trkpt><trkpt lat="43.2648896" lon="12.1077026"><ele>454.8333333333333</ele><time>2026-04-12T08:15:54.633Z</time></trkpt><trkpt lat="43.2649546" lon="12.1077826"><ele>457.66666666666663</ele><time>2026-04-12T08:15:55.632Z</time></trkpt><trkpt lat="43.2650274" lon="12.1078269"><ele>460.5</ele><time>2026-04-12T08:15:56.626Z</time></trkpt><trkpt lat="43.2651077" lon="12.1078552"><ele>463.33333333333337</ele><time>2026-04-12T08:15:57.633Z</time></trkpt><trkpt lat="43.2651949" lon="12.1078766"><ele>466.1666666666667</ele><time>2026-04-12T08:15:58.634Z</time></trkpt><trkpt lat="43.2652878" lon="12.1079031"><ele>469.0</ele><time>2026-04-12T08:15:59.632Z</time></trkpt><trkpt lat="43.26537" lon="12.1079434"><ele>469.00000000000006</ele><time>2026-04-12T08:16:00.631Z</time></trkpt><trkpt lat="43.2654501" lon="12.1079992"><ele>469.0</ele><time>2026-04-12T08:16:01.627Z</time></trkpt><trkpt lat="43.2655166" lon="12.1080471"><ele>469.0</ele><time>2026-04-12T08:16:02.628Z</time></trkpt><trkpt lat="43.2655809" lon="12.1080703"><ele>469.0</ele><time>2026-04-12T08:16:03.62Z</time></trkpt><trkpt lat="43.2656494" lon="12.1080667"><ele>469.00000000000006</ele><time>2026-04-12T08:16:04.625Z</time></trkpt><trkpt lat="43.2657206" lon="12.1080252"><ele>469.0</ele><time>2026-04-12T08:16:05.626Z</time></trkpt><trkpt lat="43.2657932" lon="12.1079551"><ele>473.2</ele><time>2026-04-12T08:16:06.623Z</time></trkpt><trkpt lat="43.2658636" lon="12.1078735"><ele>477.4</ele><time>2026-04-12T08:16:07.62Z</time></trkpt><trkpt lat="43.2659435" lon="12.1077896"><ele>481.6</ele><time>2026-04-12T08:16:08.623Z</time></trkpt><trkpt lat="43.2660392" lon="12.1077074"><ele>485.8</ele><time>2026-04-12T08:16:09.623Z</time></trkpt><trkpt lat="43.2661307" lon="12.1076323"><ele>490.0</ele><time>2026-04-12T08:16:10.623Z</time></trkpt><trkpt lat="43.2662157" lon="12.1075632"><ele>490.0</ele><time>2026-04-12T08:16:11.638Z</time></trkpt><trkpt lat="43.2662944" lon="12.1075043"><ele>490.0</ele><time>2026-04-12T08:16:12.623Z</time></trkpt><trkpt lat="43.2663688" lon="12.1074566"><ele>490.0</ele><time>2026-04-12T08:16:13.641Z</time></trkpt><trkpt lat="43.2664292" lon="12.1074191"><ele>490.0</ele><time>2026-04-12T08:16:14.622Z</time></trkpt><trkpt lat="43.2665324" lon="12.1073435"><ele>490.0</ele><time>2026-04-12T08:16:16.627Z</time></trkpt><trkpt lat="43.2666215" lon="12.1072952"><ele>492.1666666666667</ele><time>2026-04-12T08:16:18.626Z</time></trkpt><trkpt lat="43.2665359" lon="12.107197"><ele>494.33333333333337</ele><time>2026-04-12T08:16:23.636Z</time></trkpt><trkpt lat="43.2664649" lon="12.107201"><ele>496.5</ele><time>2026-04-12T08:16:24.623Z</time></trkpt><trkpt lat="43.266385" lon="12.1072033"><ele>498.66666666666663</ele><time>2026-04-12T08:16:25.63Z</time></trkpt><trkpt lat="43.2662918" lon="12.1072044"><ele>500.8333333333333</ele><time>2026-04-12T08:16:26.624Z</time></trkpt><trkpt lat="43.2662055" lon="12.1072185"><ele>503.0</ele><time>2026-04-12T08:16:27.621Z</time></trkpt><trkpt lat="43.2661223" lon="12.1072354"><ele>502.99999999999994</ele><time>2026-04-12T08:16:28.624Z</time></trkpt><trkpt lat="43.2660437" lon="12.1072495"><ele>503.0</ele><time>2026-04-12T08:16:29.619Z</time></trkpt><trkpt lat="43.265969" lon="12.1072532"><ele>503.0</ele><time>2026-04-12T08:16:30.62Z</time></trkpt><trkpt lat="43.2658998" lon="12.1072255"><ele>503.0</ele><time>2026-04-12T08:16:31.622Z</time></trkpt><trkpt lat="43.2658367" lon="12.1071834"><ele>502.99999999999994</ele><time>2026-04-12T08:16:32.628Z</time></trkpt><trkpt lat="43.265753" lon="12.1070994"><ele>503.0</ele><time>2026-04-12T08:16:34.622Z</time></trkpt><trkpt lat="43.2657637" lon="12.1069826"><ele>502.99999999999994</ele><time>2026-04-12T08:16:36.643Z</time></trkpt><trkpt lat="43.2658055" lon="12.1069098"><ele>503.0</ele><time>2026-04-12T08:16:37.637Z</time></trkpt><trkpt lat="43.2658624" lon="12.106841"><ele>503.0</ele><time>2026-04-12T08:16:38.625Z</time></trkpt><trkpt lat="43.2659248" lon="12.106754"><ele>503.0</ele><time>2026-04-12T08:16:39.626Z</time></trkpt><trkpt lat="43.2659881" lon="12.1066829"><ele>502.99999999999994</ele><time>2026-04-12T08:16:40.624Z</time></trkpt><trkpt lat="43.2660521" lon="12.1066424"><ele>503.0</ele><time>2026-04-12T08:16:41.635Z</time></trkpt><trkpt lat="43.2661272" lon="12.1066116"><ele>503.2</ele><time>2026-04-12T08:16:42.629Z</time></trkpt><trkpt lat="43.2662102" lon="12.1065703"><ele>503.4</ele><time>2026-04-12T08:16:43.625Z</time></trkpt><trkpt lat="43.2662774" lon="12.1065046"><ele>503.59999999999997</ele><time>2026-04-12T08:16:44.636Z</time></trkpt><trkpt lat="43.2663291" lon="12.1064369"><ele>503.79999999999995</ele><time>2026-04-12T08:16:45.626Z</time></trkpt><trkpt lat="43.2663878" lon="12.1063227"><ele>504.0</ele><time>2026-04-12T08:16:47.621Z</time></trkpt><trkpt lat="43.2664274" lon="12.1061704"><ele>509.0</ele><time>2026-04-12T08:16:49.623Z</time></trkpt><trkpt lat="43.2664571" lon="12.1060112"><ele>514.0</ele><time>2026-04-12T08:16:51.624Z</time></trkpt><trkpt lat="43.2665122" lon="12.1058995"><ele>519.0</ele><time>2026-04-12T08:16:53.625Z</time></trkpt><trkpt lat="43.2666131" lon="12.1058071"><ele>524.0</ele><time>2026-04-12T08:16:55.627Z</time></trkpt><trkpt lat="43.2666434" lon="12.1056846"><ele>529.0</ele><time>2026-04-12T08:16:57.625Z</time></trkpt><trkpt lat="43.2666422" lon="12.1055475"><ele>530.3333333333334</ele><time>2026-04-12T08:16:59.622Z</time></trkpt><trkpt lat="43.2666757" lon="12.1054116"><ele>531.6666666666667</ele><time>2026-04-12T08:17:01.629Z</time></trkpt><trkpt lat="43.266706" lon="12.1053201"><ele>533.0</ele><time>2026-04-12T08:17:02.625Z</time></trkpt><trkpt lat="43.2667405" lon="12.10521"><ele>534.3333333333334</ele><time>2026-04-12T08:17:03.627Z</time></trkpt><trkpt lat="43.2667891" lon="12.1051123"><ele>535.6666666666666</ele><time>2026-04-12T08:17:04.622Z</time></trkpt><trkpt lat="43.2668409" lon="12.1050419"><ele>537.0</ele><time>2026-04-12T08:17:05.627Z</time></trkpt><trkpt lat="43.2669588" lon="12.1050197"><ele>537.0</ele><time>2026-04-12T08:17:07.63Z</time></trkpt><trkpt lat="43.2670575" lon="12.1049754"><ele>537.0</ele><time>2026-04-12T08:17:09.638Z</time></trkpt><trkpt lat="43.2671444" lon="12.1048729"><ele>537.0</ele><time>2026-04-12T08:17:11.633Z</time></trkpt><trkpt lat="43.2671892" lon="12.1047954"><ele>537.0</ele><time>2026-04-12T08:17:12.625Z</time></trkpt><trkpt lat="43.2672249" lon="12.1046998"><ele>537.0</ele><time>2026-04-12T08:17:13.621Z</time></trkpt><trkpt lat="43.2672591" lon="12.1045936"><ele>542.2</ele><time>2026-04-12T08:17:14.623Z</time></trkpt><trkpt lat="43.2672923" lon="12.1044879"><ele>547.4000000000001</ele><time>2026-04-12T08:17:15.64Z</time></trkpt><trkpt lat="43.2673163" lon="12.104406"><ele>552.5999999999999</ele><time>2026-04-12T08:17:16.622Z</time></trkpt><trkpt lat="43.2673657" lon="12.1042872"><ele>557.8</ele><time>2026-04-12T08:17:18.621Z</time></trkpt><trkpt lat="43.267443" lon="12.1041799"><ele>563.0</ele><time>2026-04-12T08:17:20.623Z</time></trkpt><trkpt lat="43.2675404" lon="12.1040926"><ele>565.5</ele><time>2026-04-12T08:17:22.628Z</time></trkpt><trkpt lat="43.2676548" lon="12.1040462"><ele>568.0</ele><time>2026-04-12T08:17:24.62Z</time></trkpt><trkpt lat="43.2677416" lon="12.1039849"><ele>570.5</ele><time>2026-04-12T08:17:26.627Z</time></trkpt><trkpt lat="43.2677916" lon="12.1039161"><ele>573.0</ele><time>2026-04-12T08:17:27.622Z</time></trkpt><trkpt lat="43.2678476" lon="12.1038401"><ele>575.5</ele><time>2026-04-12T08:17:28.626Z</time></trkpt><trkpt lat="43.2678979" lon="12.1037634"><ele>578.0</ele><time>2026-04-12T08:17:29.625Z</time></trkpt><trkpt lat="43.2679461" lon="12.1036547"><ele>578.0</ele><time>2026-04-12T08:17:31.623Z</time></trkpt><trkpt lat="43.267917" lon="12.1035334"><ele>578.0</ele><time>2026-04-12T08:17:33.631Z</time></trkpt><trkpt lat="43.2679394" lon="12.1033788"><ele>578.0</ele><time>2026-04-12T08:17:35.624Z</time></trkpt><trkpt lat="43.267981" lon="12.1032852"><ele>578.0</ele><time>2026-04-12T08:17:36.628Z</time></trkpt><trkpt lat="43.2680141" lon="12.1031871"><ele>578.0</ele><time>2026-04-12T08:17:37.624Z</time></trkpt><trkpt lat="43.2680496" lon="12.1030823"><ele>579.6666666666666</ele><time>2026-04-12T08:17:38.624Z</time></trkpt><trkpt lat="43.2680836" lon="12.1029908"><ele>581.3333333333333</ele><time>2026-04-12T08:17:39.63Z</time></trkpt><trkpt lat="43.2681104" lon="12.1029082"><ele>583.0</ele><time>2026-04-12T08:17:40.624Z</time></trkpt><trkpt lat="43.2681473" lon="12.1027592"><ele>584.6666666666666</ele><time>2026-04-12T08:17:42.628Z</time></trkpt><trkpt lat="43.2681933" lon="12.1026524"><ele>586.3333333333334</ele><time>2026-04-12T08:17:44.62Z</time></trkpt><trkpt lat="43.2682005" lon="12.1025332"><ele>588.0</ele><time>2026-04-12T08:17:46.641Z</time></trkpt><trkpt lat="43.268193" lon="12.1023858"><ele>590.1666666666666</ele><time>2026-04-12T08:17:48.629Z</time></trkpt><trkpt lat="43.2681958" lon="12.1022952"><ele>592.3333333333334</ele><time>2026-04-12T08:17:49.621Z</time></trkpt><trkpt lat="43.2682103" lon="12.102199"><ele>594.5</ele><time>2026-04-12T08:17:50.627Z</time></trkpt><trkpt lat="43.2682353" lon="12.1020985"><ele>596.6666666666667</ele><time>2026-04-12T08:17:51.624Z</time></trkpt><trkpt lat="43.2682548" lon="12.102001"><ele>598.8333333333334</ele><time>2026-04-12T08:17:52.627Z</time></trkpt><trkpt lat="43.2682419" lon="12.1018434"><ele>601.0</ele><time>2026-04-12T08:17:54.629Z</time></trkpt><trkpt lat="43.2682176" lon="12.1017597"><ele>601.0</ele><time>2026-04-12T08:17:55.628Z</time></trkpt><trkpt lat="43.2682064" lon="12.1016626"><ele>601.0</ele><time>2026-04-12T08:17:56.625Z</time></trkpt><trkpt lat="43.2681972" lon="12.1015443"><ele>601.0</ele><time>2026-04-12T08:17:57.63Z</time></trkpt><trkpt lat="43.2682035" lon="12.1014313"><ele>601.0</ele><time>2026-04-12T08:17:58.627Z</time></trkpt><trkpt lat="43.2682226" lon="12.1013223"><ele>601.0</ele><time>2026-04-12T08:17:59.623Z</time></trkpt><trkpt lat="43.2682605" lon="12.1012205"><ele>601.0</ele><time>2026-04-12T08:18:00.622Z</time></trkpt><trkpt lat="43.2683098" lon="12.1011185"><ele>603.0</ele><time>2026-04-12T08:18:01.623Z</time></trkpt><trkpt lat="43.2683725" lon="12.1010224"><ele>605.0</ele><time>2026-04-12T08:18:02.625Z</time></trkpt><trkpt lat="43.2684253" lon="12.1009211"><ele>607.0</ele><time>2026-04-12T08:18:03.627Z</time></trkpt><trkpt lat="43.2684679" lon="12.1008182"><ele>609.0</ele><time>2026-04-12T08:18:04.624Z</time></trkpt><trkpt lat="43.2684906" lon="12.1007257"><ele>611.0</ele><time>2026-04-12T08:18:05.623Z</time></trkpt><trkpt lat="43.2684788" lon="12.1005526"><ele>613.0</ele><time>2026-04-12T08:18:07.621Z</time></trkpt><trkpt lat="43.2684686" lon="12.1003848"><ele>615.0</ele><time>2026-04-12T08:18:09.626Z</time></trkpt><trkpt lat="43.2685181" lon="12.1003262"><ele>617.0</ele><time>2026-04-12T08:18:13.639Z</time></trkpt><trkpt lat="43.2685857" lon="12.1003297"><ele>619.0</ele><time>2026-04-12T08:18:15.638Z</time></trkpt><trkpt lat="43.2686615" lon="12.1002977"><ele>621.0</ele><time>2026-04-12T08:18:17.652Z</time></trkpt><trkpt lat="43.2687478" lon="12.1002847"><ele>623.0</ele><time>2026-04-12T08:18:19.634Z</time></trkpt><trkpt lat="43.2688466" lon="12.1002585"><ele>623.0</ele><time>2026-04-12T08:18:21.636Z</time></trkpt><trkpt lat="43.2689247" lon="12.1002031"><ele>623.0</ele><time>2026-04-12T08:18:23.638Z</time></trkpt><trkpt lat="43.2690329" lon="12.1001182"><ele>623.0</ele><time>2026-04-12T08:18:25.627Z</time></trkpt><trkpt lat="43.2691002" lon="12.1000616"><ele>623.0</ele><time>2026-04-12T08:18:26.623Z</time></trkpt><trkpt lat="43.2691714" lon="12.0999931"><ele>623.0</ele><time>2026-04-12T08:18:27.626Z</time></trkpt><trkpt lat="43.2692558" lon="12.0999187"><ele>626.4</ele><time>2026-04-12T08:18:28.622Z</time></trkpt><trkpt lat="43.2693341" lon="12.0998516"><ele>629.8</ele><time>2026-04-12T08:18:29.628Z</time></trkpt><trkpt lat="43.2694099" lon="12.0998206"><ele>633.2</ele><time>2026-04-12T08:18:30.623Z</time></trkpt><trkpt lat="43.2694897" lon="12.0998192"><ele>636.6</ele><time>2026-04-12T08:18:31.623Z</time></trkpt><trkpt lat="43.2695919" lon="12.0998422"><ele>640.0</ele><time>2026-04-12T08:18:32.624Z</time></trkpt><trkpt lat="43.2697159" lon="12.0998916"><ele>639.0</ele><time>2026-04-12T08:18:33.622Z</time></trkpt><trkpt lat="43.2698413" lon="12.0999502"><ele>638.0</ele><time>2026-04-12T08:18:34.624Z</time></trkpt><trkpt lat="43.2699551" lon="12.1000035"><ele>637.0</ele><time>2026-04-12T08:18:35.625Z</time></trkpt><trkpt lat="43.2700522" lon="12.1000578"><ele>636.0</ele><time>2026-04-12T08:18:36.625Z</time></trkpt><trkpt lat="43.2701369" lon="12.1001127"><ele>636.0</ele><time>2026-04-12T08:18:37.622Z</time></trkpt><trkpt lat="43.2702147" lon="12.100163"><ele>636.0</ele><time>2026-04-12T08:18:38.622Z</time></trkpt><trkpt lat="43.2702848" lon="12.1001929"><ele>636.0</ele><time>2026-04-12T08:18:39.62Z</time></trkpt><trkpt lat="43.2704092" lon="12.100157"><ele>636.0</ele><time>2026-04-12T08:18:41.635Z</time></trkpt><trkpt lat="43.2704873" lon="12.1001212"><ele>636.0</ele><time>2026-04-12T08:18:42.624Z</time></trkpt><trkpt lat="43.2705659" lon="12.1001296"><ele>636.0</ele><time>2026-04-12T08:18:43.627Z</time></trkpt><trkpt lat="43.2706484" lon="12.1001749"><ele>638.0</ele><time>2026-04-12T08:18:44.629Z</time></trkpt><trkpt lat="43.2707297" lon="12.1002603"><ele>640.0</ele><time>2026-04-12T08:18:45.621Z</time></trkpt><trkpt lat="43.2708079" lon="12.1003575"><ele>642.0</ele><time>2026-04-12T08:18:46.628Z</time></trkpt><trkpt lat="43.2708945" lon="12.100441"><ele>644.0</ele><time>2026-04-12T08:18:47.62Z</time></trkpt><trkpt lat="43.2709817" lon="12.1005133"><ele>646.0</ele><time>2026-04-12T08:18:48.639Z</time></trkpt><trkpt lat="43.2710885" lon="12.1005717"><ele>646.0</ele><time>2026-04-12T08:18:49.621Z</time></trkpt><trkpt lat="43.2712039" lon="12.1006207"><ele>646.0</ele><time>2026-04-12T08:18:50.626Z</time></trkpt><trkpt lat="43.2713166" lon="12.1006563"><ele>646.0</ele><time>2026-04-12T08:18:51.624Z</time></trkpt><trkpt lat="43.2714091" lon="12.1006967"><ele>646.0</ele><time>2026-04-12T08:18:52.625Z</time></trkpt><trkpt lat="43.2714847" lon="12.1007572"><ele>646.0</ele><time>2026-04-12T08:18:53.624Z</time></trkpt><trkpt lat="43.2715366" lon="12.1008342"><ele>644.4</ele><time>2026-04-12T08:18:54.624Z</time></trkpt><trkpt lat="43.2715561" lon="12.1009307"><ele>642.8</ele><time>2026-04-12T08:18:55.628Z</time></trkpt><trkpt lat="43.27154" lon="12.1010513"><ele>641.1999999999999</ele><time>2026-04-12T08:18:56.624Z</time></trkpt><trkpt lat="43.2714931" lon="12.1011873"><ele>639.5999999999999</ele><time>2026-04-12T08:18:57.621Z</time></trkpt><trkpt lat="43.2714421" lon="12.1013302"><ele>638.0</ele><time>2026-04-12T08:18:58.623Z</time></trkpt><trkpt lat="43.2714087" lon="12.1014328"><ele>638.0</ele><time>2026-04-12T08:18:59.622Z</time></trkpt><trkpt lat="43.2714255" lon="12.1015214"><ele>638.0</ele><time>2026-04-12T08:19:01.633Z</time></trkpt><trkpt lat="43.2715037" lon="12.1014627"><ele>638.0</ele><time>2026-04-12T08:19:03.637Z</time></trkpt><trkpt lat="43.2715625" lon="12.1014237"><ele>638.0</ele><time>2026-04-12T08:19:04.639Z</time></trkpt><trkpt lat="43.2716369" lon="12.1013785"><ele>638.0</ele><time>2026-04-12T08:19:05.626Z</time></trkpt><trkpt lat="43.2717133" lon="12.1013422"><ele>638.0</ele><time>2026-04-12T08:19:06.628Z</time></trkpt><trkpt lat="43.2717937" lon="12.1013075"><ele>641.8</ele><time>2026-04-12T08:19:07.626Z</time></trkpt><trkpt lat="43.2718878" lon="12.1012651"><ele>645.5999999999999</ele><time>2026-04-12T08:19:08.627Z</time></trkpt><trkpt lat="43.2719894" lon="12.101221"><ele>649.4000000000001</ele><time>2026-04-12T08:19:09.623Z</time></trkpt><trkpt lat="43.2720937" lon="12.1011757"><ele>653.2</ele><time>2026-04-12T08:19:10.622Z</time></trkpt><trkpt lat="43.2721931" lon="12.1011339"><ele>657.0</ele><time>2026-04-12T08:19:11.637Z</time></trkpt><trkpt lat="43.2722882" lon="12.1010989"><ele>660.1666666666666</ele><time>2026-04-12T08:19:12.628Z</time></trkpt><trkpt lat="43.2723727" lon="12.1010689"><ele>663.3333333333334</ele><time>2026-04-12T08:19:13.627Z</time></trkpt><trkpt lat="43.2724563" lon="12.1010404"><ele>666.5</ele><time>2026-04-12T08:19:14.624Z</time></trkpt><trkpt lat="43.2725381" lon="12.1009949"><ele>669.6666666666667</ele><time>2026-04-12T08:19:15.625Z</time></trkpt><trkpt lat="43.2726197" lon="12.1009385"><ele>672.8333333333334</ele><time>2026-04-12T08:19:16.623Z</time></trkpt><trkpt lat="43.2726919" lon="12.1008742"><ele>676.0</ele><time>2026-04-12T08:19:17.619Z</time></trkpt><trkpt lat="43.2727533" lon="12.1008027"><ele>677.8</ele><time>2026-04-12T08:19:18.62Z</time></trkpt><trkpt lat="43.2728129" lon="12.1007055"><ele>679.5999999999999</ele><time>2026-04-12T08:19:19.634Z</time></trkpt><trkpt lat="43.272874" lon="12.1006083"><ele>681.4</ele><time>2026-04-12T08:19:20.624Z</time></trkpt><trkpt lat="43.2729409" lon="12.1005277"><ele>683.2</ele><time>2026-04-12T08:19:21.625Z</time></trkpt><trkpt lat="43.2730166" lon="12.1004669"><ele>685.0</ele><time>2026-04-12T08:19:22.624Z</time></trkpt><trkpt lat="43.2731025" lon="12.1004277"><ele>688.4</ele><time>2026-04-12T08:19:23.625Z</time></trkpt><trkpt lat="43.2732002" lon="12.1004176"><ele>691.8</ele><time>2026-04-12T08:19:24.624Z</time></trkpt><trkpt lat="43.2733025" lon="12.1003978"><ele>695.2</ele><time>2026-04-12T08:19:25.624Z</time></trkpt><trkpt lat="43.2734185" lon="12.1003816"><ele>698.6</ele><time>2026-04-12T08:19:26.625Z</time></trkpt><trkpt lat="43.2735197" lon="12.1003809"><ele>702.0</ele><time>2026-04-12T08:19:27.621Z</time></trkpt><trkpt lat="43.2736199" lon="12.1003969"><ele>702.0</ele><time>2026-04-12T08:19:28.626Z</time></trkpt><trkpt lat="43.2736987" lon="12.100408"><ele>702.0</ele><time>2026-04-12T08:19:29.623Z</time></trkpt><trkpt lat="43.2737815" lon="12.1003684"><ele>702.0</ele><time>2026-04-12T08:19:31.629Z</time></trkpt><trkpt lat="43.2738554" lon="12.1002522"><ele>702.0</ele><time>2026-04-12T08:19:33.627Z</time></trkpt><trkpt lat="43.273909" lon="12.1001264"><ele>702.0</ele><time>2026-04-12T08:19:35.628Z</time></trkpt><trkpt lat="43.2739373" lon="12.1000456"><ele>701.1666666666666</ele><time>2026-04-12T08:19:36.633Z</time></trkpt><trkpt lat="43.2739609" lon="12.0999379"><ele>700.3333333333334</ele><time>2026-04-12T08:19:37.629Z</time></trkpt><trkpt lat="43.2739892" lon="12.0998214"><ele>699.5</ele><time>2026-04-12T08:19:38.624Z</time></trkpt><trkpt lat="43.274015" lon="12.0997086"><ele>698.6666666666667</ele><time>2026-04-12T08:19:39.624Z</time></trkpt><trkpt lat="43.2740457" lon="12.099591"><ele>697.8333333333334</ele><time>2026-04-12T08:19:40.63Z</time></trkpt><trkpt lat="43.2740871" lon="12.099475"><ele>697.0</ele><time>2026-04-12T08:19:41.638Z</time></trkpt><trkpt lat="43.2741384" lon="12.0993578"><ele>700.6666666666667</ele><time>2026-04-12T08:19:42.623Z</time></trkpt><trkpt lat="43.2741985" lon="12.0992587"><ele>704.3333333333334</ele><time>2026-04-12T08:19:43.631Z</time></trkpt><trkpt lat="43.2742742" lon="12.0991958"><ele>708.0</ele><time>2026-04-12T08:19:44.626Z</time></trkpt><trkpt lat="43.2743579" lon="12.099175"><ele>711.6666666666666</ele><time>2026-04-12T08:19:45.625Z</time></trkpt><trkpt lat="43.2744386" lon="12.0991864"><ele>715.3333333333333</ele><time>2026-04-12T08:19:46.627Z</time></trkpt><trkpt lat="43.2745296" lon="12.0991853"><ele>719.0</ele><time>2026-04-12T08:19:47.627Z</time></trkpt><trkpt lat="43.2746077" lon="12.0991622"><ele>719.0</ele><time>2026-04-12T08:19:48.628Z</time></trkpt><trkpt lat="43.2746688" lon="12.0991172"><ele>719.0</ele><time>2026-04-12T08:19:49.624Z</time></trkpt><trkpt lat="43.2747276" lon="12.0990532"><ele>719.0</ele><time>2026-04-12T08:19:50.641Z</time></trkpt><trkpt lat="43.2747839" lon="12.0989595"><ele>719.0</ele><time>2026-04-12T08:19:51.619Z</time></trkpt><trkpt lat="43.2748331" lon="12.0988659"><ele>719.0</ele><time>2026-04-12T08:19:52.626Z</time></trkpt><trkpt lat="43.2748995" lon="12.0987912"><ele>719.0</ele><time>2026-04-12T08:19:53.623Z</time></trkpt><trkpt lat="43.2749873" lon="12.0987361"><ele>722.6</ele><time>2026-04-12T08:19:54.624Z</time></trkpt><trkpt lat="43.2750883" lon="12.0986993"><ele>726.2</ele><time>2026-04-12T08:19:55.627Z</time></trkpt><trkpt lat="43.275202" lon="12.098687"><ele>729.8000000000001</ele><time>2026-04-12T08:19:56.623Z</time></trkpt><trkpt lat="43.2753104" lon="12.0986904"><ele>733.4000000000001</ele><time>2026-04-12T08:19:57.622Z</time></trkpt><trkpt lat="43.2754245" lon="12.0986996"><ele>737.0</ele><time>2026-04-12T08:19:58.621Z</time></trkpt><trkpt lat="43.2755461" lon="12.0987166"><ele>736.2</ele><time>2026-04-12T08:19:59.624Z</time></trkpt><trkpt lat="43.2756598" lon="12.0987303"><ele>735.4000000000001</ele><time>2026-04-12T08:20:00.622Z</time></trkpt><trkpt lat="43.2757572" lon="12.0987196"><ele>734.5999999999999</ele><time>2026-04-12T08:20:01.63Z</time></trkpt><trkpt lat="43.2758381" lon="12.0986789"><ele>733.8</ele><time>2026-04-12T08:20:02.624Z</time></trkpt><trkpt lat="43.2759161" lon="12.0986247"><ele>733.0</ele><time>2026-04-12T08:20:03.622Z</time></trkpt><trkpt lat="43.275997" lon="12.0985644"><ele>733.0</ele><time>2026-04-12T08:20:04.626Z</time></trkpt><trkpt lat="43.2760759" lon="12.0985141"><ele>733.0</ele><time>2026-04-12T08:20:05.622Z</time></trkpt><trkpt lat="43.2761553" lon="12.0984636"><ele>733.0</ele><time>2026-04-12T08:20:06.627Z</time></trkpt><trkpt lat="43.2762333" lon="12.098401"><ele>733.0</ele><time>2026-04-12T08:20:07.622Z</time></trkpt><trkpt lat="43.2763084" lon="12.0983336"><ele>733.0</ele><time>2026-04-12T08:20:08.623Z</time></trkpt><trkpt lat="43.2763759" lon="12.0982678"><ele>733.0</ele><time>2026-04-12T08:20:09.626Z</time></trkpt><trkpt lat="43.2764541" lon="12.0982266"><ele>737.6666666666667</ele><time>2026-04-12T08:20:10.627Z</time></trkpt><trkpt lat="43.276533" lon="12.098201"><ele>742.3333333333334</ele><time>2026-04-12T08:20:11.638Z</time></trkpt><trkpt lat="43.2766144" lon="12.0981789"><ele>747.0</ele><time>2026-04-12T08:20:12.621Z</time></trkpt><trkpt lat="43.2767008" lon="12.0981549"><ele>751.6666666666666</ele><time>2026-04-12T08:20:13.623Z</time></trkpt><trkpt lat="43.2767896" lon="12.0981262"><ele>756.3333333333333</ele><time>2026-04-12T08:20:14.621Z</time></trkpt><trkpt lat="43.2768745" lon="12.0980919"><ele>761.0</ele><time>2026-04-12T08:20:15.621Z</time></trkpt><trkpt lat="43.2769643" lon="12.098053"><ele>761.0</ele><time>2026-04-12T08:20:16.628Z</time></trkpt><trkpt lat="43.2770606" lon="12.0980212"><ele>761.0</ele><time>2026-04-12T08:20:17.624Z</time></trkpt><trkpt lat="43.277155" lon="12.0979972"><ele>761.0</ele><time>2026-04-12T08:20:18.627Z</time></trkpt><trkpt lat="43.2772515" lon="12.0979828"><ele>761.0</ele><time>2026-04-12T08:20:19.627Z</time></trkpt><trkpt lat="43.2773437" lon="12.0979703"><ele>761.0</ele><time>2026-04-12T08:20:20.63Z</time></trkpt><trkpt lat="43.2774365" lon="12.0979663"><ele>759.0</ele><time>2026-04-12T08:20:21.658Z</time></trkpt><trkpt lat="43.277531" lon="12.0979734"><ele>757.0</ele><time>2026-04-12T08:20:22.626Z</time></trkpt><trkpt lat="43.2776355" lon="12.097975"><ele>755.0</ele><time>2026-04-12T08:20:23.622Z</time></trkpt><trkpt lat="43.2777517" lon="12.0979866"><ele>753.0</ele><time>2026-04-12T08:20:24.63Z</time></trkpt><trkpt lat="43.2778688" lon="12.0979926"><ele>751.0</ele><time>2026-04-12T08:20:25.636Z</time></trkpt><trkpt lat="43.2779862" lon="12.0980013"><ele>751.0</ele><time>2026-04-12T08:20:26.62Z</time></trkpt><trkpt lat="43.2780933" lon="12.0980259"><ele>751.0</ele><time>2026-04-12T08:20:27.629Z</time></trkpt><trkpt lat="43.2781794" lon="12.0980742"><ele>751.0</ele><time>2026-04-12T08:20:28.629Z</time></trkpt><trkpt lat="43.2782378" lon="12.0981496"><ele>751.0</ele><time>2026-04-12T08:20:29.622Z</time></trkpt><trkpt lat="43.2782789" lon="12.0982431"><ele>751.0</ele><time>2026-04-12T08:20:30.627Z</time></trkpt><trkpt lat="43.2783144" lon="12.0983367"><ele>751.0</ele><time>2026-04-12T08:20:31.632Z</time></trkpt><trkpt lat="43.2783587" lon="12.0984121"><ele>748.1999999999999</ele><time>2026-04-12T08:20:32.632Z</time></trkpt><trkpt lat="43.2784147" lon="12.0984591"><ele>745.4</ele><time>2026-04-12T08:20:33.63Z</time></trkpt><trkpt lat="43.2784762" lon="12.0984955"><ele>742.6</ele><time>2026-04-12T08:20:34.631Z</time></trkpt><trkpt lat="43.2785826" lon="12.098526"><ele>739.8</ele><time>2026-04-12T08:20:36.63Z</time></trkpt><trkpt lat="43.2785741" lon="12.0983901"><ele>737.0</ele><time>2026-04-12T08:22:48.651Z</time></trkpt><trkpt lat="43.2784904" lon="12.098242"><ele>737.0</ele><time>2026-04-12T08:22:50.637Z</time></trkpt><trkpt lat="43.2784294" lon="12.0981653"><ele>737.0</ele><time>2026-04-12T08:22:51.65Z</time></trkpt><trkpt lat="43.2783673" lon="12.0980862"><ele>737.0</ele><time>2026-04-12T08:22:52.635Z</time></trkpt><trkpt lat="43.2783083" lon="12.0980178"><ele>737.0</ele><time>2026-04-12T08:22:53.631Z</time></trkpt><trkpt lat="43.2782614" lon="12.097957"><ele>737.0</ele><time>2026-04-12T08:22:54.628Z</time></trkpt><trkpt lat="43.2782314" lon="12.097833"><ele>737.0</ele><time>2026-04-12T08:22:56.633Z</time></trkpt><trkpt lat="43.2783006" lon="12.0977072"><ele>737.0</ele><time>2026-04-12T08:22:58.639Z</time></trkpt><trkpt lat="43.2783423" lon="12.0976332"><ele>737.0</ele><time>2026-04-12T08:22:59.643Z</time></trkpt><trkpt lat="43.2783549" lon="12.0975252"><ele>737.0</ele><time>2026-04-12T08:23:01.645Z</time></trkpt><trkpt lat="43.2782471" lon="12.0974039"><ele>737.0</ele><time>2026-04-12T08:23:03.639Z</time></trkpt><trkpt lat="43.2781824" lon="12.0973415"><ele>737.0</ele><time>2026-04-12T08:23:04.64Z</time></trkpt><trkpt lat="43.2781191" lon="12.0972933"><ele>737.0</ele><time>2026-04-12T08:23:05.638Z</time></trkpt><trkpt lat="43.2780524" lon="12.0972683"><ele>738.3333333333333</ele><time>2026-04-12T08:23:06.638Z</time></trkpt><trkpt lat="43.2779751" lon="12.0972568"><ele>739.6666666666666</ele><time>2026-04-12T08:23:07.637Z</time></trkpt><trkpt lat="43.2778925" lon="12.0972467"><ele>741.0</ele><time>2026-04-12T08:23:08.643Z</time></trkpt><trkpt lat="43.2778156" lon="12.0972286"><ele>742.3333333333334</ele><time>2026-04-12T08:23:09.644Z</time></trkpt><trkpt lat="43.2777342" lon="12.0972067"><ele>743.6666666666667</ele><time>2026-04-12T08:23:10.645Z</time></trkpt><trkpt lat="43.2776509" lon="12.0971971"><ele>745.0</ele><time>2026-04-12T08:23:11.643Z</time></trkpt><trkpt lat="43.2775775" lon="12.0972148"><ele>745.0</ele><time>2026-04-12T08:23:12.647Z</time></trkpt><trkpt lat="43.2775116" lon="12.0972691"><ele>745.0</ele><time>2026-04-12T08:23:13.641Z</time></trkpt><trkpt lat="43.2774375" lon="12.0973306"><ele>745.0</ele><time>2026-04-12T08:23:14.642Z</time></trkpt><trkpt lat="43.2773624" lon="12.097362"><ele>745.0</ele><time>2026-04-12T08:23:15.643Z</time></trkpt><trkpt lat="43.2772781" lon="12.0973807"><ele>745.0</ele><time>2026-04-12T08:23:16.646Z</time></trkpt><trkpt lat="43.2771774" lon="12.0973794"><ele>745.0</ele><time>2026-04-12T08:23:17.648Z</time></trkpt><trkpt lat="43.2770744" lon="12.097372"><ele>750.8</ele><time>2026-04-12T08:23:18.646Z</time></trkpt><trkpt lat="43.2769688" lon="12.0973751"><ele>756.6</ele><time>2026-04-12T08:23:19.646Z</time></trkpt><trkpt lat="43.2768566" lon="12.0973846"><ele>762.4000000000001</ele><time>2026-04-12T08:23:20.646Z</time></trkpt><trkpt lat="43.2767536" lon="12.0973941"><ele>768.2</ele><time>2026-04-12T08:23:21.645Z</time></trkpt><trkpt lat="43.2766647" lon="12.0973899"><ele>774.0</ele><time>2026-04-12T08:23:22.641Z</time></trkpt><trkpt lat="43.2765956" lon="12.0973687"><ele>774.0</ele><time>2026-04-12T08:23:23.637Z</time></trkpt><trkpt lat="43.2765272" lon="12.0973306"><ele>774.0</ele><time>2026-04-12T08:23:24.638Z</time></trkpt><trkpt lat="43.276456" lon="12.0972846"><ele>774.0</ele><time>2026-04-12T08:23:25.637Z</time></trkpt><trkpt lat="43.2763907" lon="12.0972379"><ele>774.0</ele><time>2026-04-12T08:23:26.653Z</time></trkpt><trkpt lat="43.2763339" lon="12.0971888"><ele>774.0</ele><time>2026-04-12T08:23:27.632Z</time></trkpt><trkpt lat="43.2762831" lon="12.0971345"><ele>774.0</ele><time>2026-04-12T08:23:28.638Z</time></trkpt><trkpt lat="43.2762343" lon="12.09705"><ele>774.0</ele><time>2026-04-12T08:23:29.637Z</time></trkpt><trkpt lat="43.2761859" lon="12.0969563"><ele>775.6666666666666</ele><time>2026-04-12T08:23:30.64Z</time></trkpt><trkpt lat="43.2761545" lon="12.0968665"><ele>777.3333333333333</ele><time>2026-04-12T08:23:31.637Z</time></trkpt><trkpt lat="43.2761379" lon="12.0967765"><ele>779.0</ele><time>2026-04-12T08:23:32.638Z</time></trkpt><trkpt lat="43.2761355" lon="12.0966872"><ele>780.6666666666666</ele><time>2026-04-12T08:23:33.639Z</time></trkpt><trkpt lat="43.2761412" lon="12.0965263"><ele>782.3333333333333</ele><time>2026-04-12T08:23:35.642Z</time></trkpt><trkpt lat="43.2761187" lon="12.0963721"><ele>784.0</ele><time>2026-04-12T08:23:37.636Z</time></trkpt><trkpt lat="43.2760672" lon="12.0962163"><ele>785.4000000000001</ele><time>2026-04-12T08:23:39.639Z</time></trkpt><trkpt lat="43.2760068" lon="12.0960713"><ele>786.8</ele><time>2026-04-12T08:23:41.648Z</time></trkpt><trkpt lat="43.2759237" lon="12.0959557"><ele>788.2</ele><time>2026-04-12T08:23:43.635Z</time></trkpt><trkpt lat="43.2758792" lon="12.0958874"><ele>789.5999999999999</ele><time>2026-04-12T08:23:44.64Z</time></trkpt><trkpt lat="43.2758652" lon="12.0957266"><ele>791.0</ele><time>2026-04-12T08:23:46.64Z</time></trkpt><trkpt lat="43.2759019" lon="12.0956315"><ele>792.4285714285714</ele><time>2026-04-12T08:23:47.643Z</time></trkpt><trkpt lat="43.2759499" lon="12.0955367"><ele>793.8571428571429</ele><time>2026-04-12T08:23:48.638Z</time></trkpt><trkpt lat="43.2759816" lon="12.0954564"><ele>795.2857142857142</ele><time>2026-04-12T08:23:49.636Z</time></trkpt><trkpt lat="43.2760001" lon="12.0953646"><ele>796.7142857142858</ele><time>2026-04-12T08:23:50.641Z</time></trkpt><trkpt lat="43.2759873" lon="12.0952463"><ele>798.1428571428571</ele><time>2026-04-12T08:23:51.643Z</time></trkpt><trkpt lat="43.2759643" lon="12.0951468"><ele>799.5714285714286</ele><time>2026-04-12T08:23:52.643Z</time></trkpt><trkpt lat="43.2759363" lon="12.0950652"><ele>801.0</ele><time>2026-04-12T08:23:53.64Z</time></trkpt><trkpt lat="43.275852" lon="12.094949"><ele>803.1666666666666</ele><time>2026-04-12T08:23:55.643Z</time></trkpt><trkpt lat="43.2757392" lon="12.0948985"><ele>805.3333333333333</ele><time>2026-04-12T08:23:57.649Z</time></trkpt><trkpt lat="43.2756713" lon="12.0948548"><ele>807.5</ele><time>2026-04-12T08:23:58.64Z</time></trkpt><trkpt lat="43.2755979" lon="12.0947892"><ele>809.6666666666666</ele><time>2026-04-12T08:23:59.637Z</time></trkpt><trkpt lat="43.2755306" lon="12.0947148"><ele>811.8333333333333</ele><time>2026-04-12T08:24:00.632Z</time></trkpt><trkpt lat="43.2754769" lon="12.0946327"><ele>814.0</ele><time>2026-04-12T08:24:01.637Z</time></trkpt><trkpt lat="43.2754243" lon="12.0945605"><ele>813.9999999999999</ele><time>2026-04-12T08:24:02.628Z</time></trkpt><trkpt lat="43.2753699" lon="12.0945017"><ele>814.0</ele><time>2026-04-12T08:24:03.628Z</time></trkpt><trkpt lat="43.2752698" lon="12.0944707"><ele>814.0</ele><time>2026-04-12T08:24:05.631Z</time></trkpt><trkpt lat="43.2752021" lon="12.0944688"><ele>814.0</ele><time>2026-04-12T08:24:06.626Z</time></trkpt><trkpt lat="43.2751272" lon="12.0944578"><ele>813.9999999999999</ele><time>2026-04-12T08:24:07.63Z</time></trkpt><trkpt lat="43.2750533" lon="12.0944363"><ele>814.0</ele><time>2026-04-12T08:24:08.627Z</time></trkpt><trkpt lat="43.2749899" lon="12.0944114"><ele>814.0</ele><time>2026-04-12T08:24:09.622Z</time></trkpt><trkpt lat="43.2748978" lon="12.0944003"><ele>814.0</ele><time>2026-04-12T08:24:11.635Z</time></trkpt><trkpt lat="43.2747726" lon="12.094383"><ele>814.0</ele><time>2026-04-12T08:24:13.632Z</time></trkpt><trkpt lat="43.27468" lon="12.0943458"><ele>814.0</ele><time>2026-04-12T08:24:14.629Z</time></trkpt><trkpt lat="43.2745932" lon="12.0943122"><ele>814.0</ele><time>2026-04-12T08:24:15.632Z</time></trkpt><trkpt lat="43.2745116" lon="12.0942787"><ele>812.4999999999999</ele><time>2026-04-12T08:24:16.63Z</time></trkpt><trkpt lat="43.2744444" lon="12.0942251"><ele>811.0</ele><time>2026-04-12T08:24:17.632Z</time></trkpt><trkpt lat="43.2744017" lon="12.0941591"><ele>809.5</ele><time>2026-04-12T08:24:18.633Z</time></trkpt><trkpt lat="43.2743872" lon="12.0939845"><ele>808.0</ele><time>2026-04-12T08:24:20.627Z</time></trkpt><trkpt lat="43.2743527" lon="12.0938845"><ele>806.4999999999999</ele><time>2026-04-12T08:24:22.642Z</time></trkpt><trkpt lat="43.2742607" lon="12.0938644"><ele>805.0</ele><time>2026-04-12T08:24:24.652Z</time></trkpt><trkpt lat="43.274164" lon="12.0938242"><ele>807.3333333333333</ele><time>2026-04-12T08:24:26.64Z</time></trkpt><trkpt lat="43.274046" lon="12.0937587"><ele>809.6666666666666</ele><time>2026-04-12T08:24:28.657Z</time></trkpt><trkpt lat="43.2739811" lon="12.0937188"><ele>812.0</ele><time>2026-04-12T08:24:29.64Z</time></trkpt><trkpt lat="43.2739165" lon="12.093679"><ele>814.3333333333333</ele><time>2026-04-12T08:24:30.637Z</time></trkpt><trkpt lat="43.2738536" lon="12.0936421"><ele>816.6666666666666</ele><time>2026-04-12T08:24:31.64Z</time></trkpt><trkpt lat="43.2737851" lon="12.0936071"><ele>819.0</ele><time>2026-04-12T08:24:32.632Z</time></trkpt><trkpt lat="43.2737019" lon="12.0935822"><ele>819.0</ele><time>2026-04-12T08:24:33.632Z</time></trkpt><trkpt lat="43.2736264" lon="12.0935765"><ele>819.0</ele><time>2026-04-12T08:24:34.628Z</time></trkpt><trkpt lat="43.2735545" lon="12.0935786"><ele>819.0</ele><time>2026-04-12T08:24:35.633Z</time></trkpt><trkpt lat="43.2734764" lon="12.0935883"><ele>819.0</ele><time>2026-04-12T08:24:36.629Z</time></trkpt><trkpt lat="43.2733944" lon="12.0936012"><ele>819.0</ele><time>2026-04-12T08:24:37.631Z</time></trkpt><trkpt lat="43.2733168" lon="12.0936088"><ele>819.0</ele><time>2026-04-12T08:24:38.627Z</time></trkpt><trkpt lat="43.2732377" lon="12.0935939"><ele>819.0</ele><time>2026-04-12T08:24:39.625Z</time></trkpt><trkpt lat="43.2731553" lon="12.0935639"><ele>819.0</ele><time>2026-04-12T08:24:40.633Z</time></trkpt><trkpt lat="43.2730922" lon="12.093516"><ele>819.0</ele><time>2026-04-12T08:24:41.638Z</time></trkpt><trkpt lat="43.2730359" lon="12.0934515"><ele>819.0</ele><time>2026-04-12T08:24:42.629Z</time></trkpt><trkpt lat="43.2729846" lon="12.0933628"><ele>819.0</ele><time>2026-04-12T08:24:43.63Z</time></trkpt><trkpt lat="43.2729348" lon="12.0932527"><ele>819.0</ele><time>2026-04-12T08:24:44.63Z</time></trkpt><trkpt lat="43.2729002" lon="12.0931292"><ele>820.1666666666666</ele><time>2026-04-12T08:24:45.63Z</time></trkpt><trkpt lat="43.2728647" lon="12.0930199"><ele>821.3333333333333</ele><time>2026-04-12T08:24:46.628Z</time></trkpt><trkpt lat="43.2728342" lon="12.092918"><ele>822.5</ele><time>2026-04-12T08:24:47.629Z</time></trkpt><trkpt lat="43.2728066" lon="12.0928198"><ele>823.6666666666666</ele><time>2026-04-12T08:24:48.632Z</time></trkpt><trkpt lat="43.2727835" lon="12.0927258"><ele>824.8333333333333</ele><time>2026-04-12T08:24:49.627Z</time></trkpt><trkpt lat="43.2727891" lon="12.0925806"><ele>826.0</ele><time>2026-04-12T08:24:51.629Z</time></trkpt><trkpt lat="43.2728357" lon="12.092459"><ele>829.9999999999999</ele><time>2026-04-12T08:24:53.627Z</time></trkpt><trkpt lat="43.2727466" lon="12.0923971"><ele>834.0</ele><time>2026-04-12T08:24:56.64Z</time></trkpt><trkpt lat="43.2726638" lon="12.0923957"><ele>838.0</ele><time>2026-04-12T08:24:57.624Z</time></trkpt><trkpt lat="43.2725973" lon="12.0924061"><ele>842.0</ele><time>2026-04-12T08:24:58.633Z</time></trkpt><trkpt lat="43.2725343" lon="12.0924112"><ele>845.9999999999999</ele><time>2026-04-12T08:24:59.658Z</time></trkpt><trkpt lat="43.2724668" lon="12.0923984"><ele>850.0</ele><time>2026-04-12T08:25:00.634Z</time></trkpt><trkpt lat="43.2723954" lon="12.0923752"><ele>850.0</ele><time>2026-04-12T08:25:01.633Z</time></trkpt><trkpt lat="43.2722932" lon="12.0923706"><ele>850.0</ele><time>2026-04-12T08:25:03.626Z</time></trkpt><trkpt lat="43.2721853" lon="12.0923826"><ele>850.0</ele><time>2026-04-12T08:25:05.631Z</time></trkpt><trkpt lat="43.2721199" lon="12.0923769"><ele>850.0</ele><time>2026-04-12T08:25:06.633Z</time></trkpt><trkpt lat="43.271999" lon="12.0924121"><ele>850.0</ele><time>2026-04-12T08:25:08.627Z</time></trkpt><trkpt lat="43.2719236" lon="12.0924402"><ele>849.1666666666666</ele><time>2026-04-12T08:25:09.633Z</time></trkpt><trkpt lat="43.2718462" lon="12.0924588"><ele>848.3333333333333</ele><time>2026-04-12T08:25:10.631Z</time></trkpt><trkpt lat="43.2717765" lon="12.0924751"><ele>847.5</ele><time>2026-04-12T08:25:11.642Z</time></trkpt><trkpt lat="43.2716595" lon="12.0924912"><ele>846.6666666666667</ele><time>2026-04-12T08:25:13.627Z</time></trkpt><trkpt lat="43.2715926" lon="12.0924872"><ele>845.8333333333334</ele><time>2026-04-12T08:25:14.632Z</time></trkpt><trkpt lat="43.2715135" lon="12.092459"><ele>845.0</ele><time>2026-04-12T08:25:15.631Z</time></trkpt><trkpt lat="43.2714291" lon="12.0924203"><ele>845.0</ele><time>2026-04-12T08:25:16.634Z</time></trkpt><trkpt lat="43.2713384" lon="12.0923777"><ele>845.0</ele><time>2026-04-12T08:25:17.635Z</time></trkpt><trkpt lat="43.2712468" lon="12.092329"><ele>845.0</ele><time>2026-04-12T08:25:18.634Z</time></trkpt><trkpt lat="43.2711554" lon="12.0922775"><ele>845.0</ele><time>2026-04-12T08:25:19.628Z</time></trkpt><trkpt lat="43.2710676" lon="12.0922212"><ele>845.0</ele><time>2026-04-12T08:25:20.633Z</time></trkpt><trkpt lat="43.2709776" lon="12.0921616"><ele>845.0</ele><time>2026-04-12T08:25:21.632Z</time></trkpt><trkpt lat="43.2708877" lon="12.0921003"><ele>845.0</ele><time>2026-04-12T08:25:22.631Z</time></trkpt><trkpt lat="43.2708142" lon="12.0920463"><ele>845.0</ele><time>2026-04-12T08:25:23.63Z</time></trkpt><trkpt lat="43.2707591" lon="12.0919991"><ele>845.0</ele><time>2026-04-12T08:25:24.632Z</time></trkpt><trkpt lat="43.2706732" lon="12.0918826"><ele>845.0</ele><time>2026-04-12T08:25:26.633Z</time></trkpt><trkpt lat="43.2705978" lon="12.0917833"><ele>845.1428571428571</ele><time>2026-04-12T08:25:28.629Z</time></trkpt><trkpt lat="43.2705562" lon="12.0917142"><ele>845.2857142857142</ele><time>2026-04-12T08:25:35.647Z</time></trkpt><trkpt lat="43.2705049" lon="12.0916439"><ele>845.4285714285713</ele><time>2026-04-12T08:25:38.648Z</time></trkpt><trkpt lat="43.2704549" lon="12.091578"><ele>845.5714285714286</ele><time>2026-04-12T08:25:41.667Z</time></trkpt><trkpt lat="43.2703979" lon="12.0915227"><ele>845.7142857142858</ele><time>2026-04-12T08:25:43.649Z</time></trkpt><trkpt lat="43.2703242" lon="12.0915106"><ele>845.8571428571428</ele><time>2026-04-12T08:25:45.654Z</time></trkpt><trkpt lat="43.2702561" lon="12.0914797"><ele>846.0</ele><time>2026-04-12T08:29:12.654Z</time></trkpt><trkpt lat="43.2701771" lon="12.0914708"><ele>846.0</ele><time>2026-04-12T08:29:14.662Z</time></trkpt><trkpt lat="43.270105" lon="12.0914919"><ele>846.0</ele><time>2026-04-12T08:29:15.655Z</time></trkpt><trkpt lat="43.2700193" lon="12.0915396"><ele>846.0</ele><time>2026-04-12T08:29:16.639Z</time></trkpt><trkpt lat="43.2699349" lon="12.0916016"><ele>846.0</ele><time>2026-04-12T08:29:17.643Z</time></trkpt><trkpt lat="43.269843" lon="12.0916663"><ele>846.0</ele><time>2026-04-12T08:29:18.64Z</time></trkpt><trkpt lat="43.2697403" lon="12.0917316"><ele>844.1999999999999</ele><time>2026-04-12T08:29:19.645Z</time></trkpt><trkpt lat="43.2696392" lon="12.091788"><ele>842.4</ele><time>2026-04-12T08:29:20.638Z</time></trkpt><trkpt lat="43.2695425" lon="12.0918175"><ele>840.6</ele><time>2026-04-12T08:29:21.643Z</time></trkpt><trkpt lat="43.2694462" lon="12.0918328"><ele>838.8</ele><time>2026-04-12T08:29:22.647Z</time></trkpt><trkpt lat="43.2693519" lon="12.0918379"><ele>837.0</ele><time>2026-04-12T08:29:23.646Z</time></trkpt><trkpt lat="43.269274" lon="12.0918379"><ele>837.0</ele><time>2026-04-12T08:29:24.645Z</time></trkpt><trkpt lat="43.26917" lon="12.0918771"><ele>837.0</ele><time>2026-04-12T08:29:26.646Z</time></trkpt><trkpt lat="43.2690961" lon="12.0919562"><ele>837.0</ele><time>2026-04-12T08:29:28.642Z</time></trkpt><trkpt lat="43.2690136" lon="12.0920873"><ele>837.0</ele><time>2026-04-12T08:29:30.642Z</time></trkpt><trkpt lat="43.2689651" lon="12.0921593"><ele>837.0</ele><time>2026-04-12T08:29:31.643Z</time></trkpt><trkpt lat="43.2689187" lon="12.09223"><ele>835.0</ele><time>2026-04-12T08:29:32.64Z</time></trkpt><trkpt lat="43.2688808" lon="12.0923027"><ele>833.0</ele><time>2026-04-12T08:29:33.64Z</time></trkpt><trkpt lat="43.2688523" lon="12.0923867"><ele>831.0</ele><time>2026-04-12T08:29:34.629Z</time></trkpt><trkpt lat="43.2688292" lon="12.0924925"><ele>829.0</ele><time>2026-04-12T08:29:35.639Z</time></trkpt><trkpt lat="43.268807" lon="12.0926151"><ele>827.0</ele><time>2026-04-12T08:29:36.632Z</time></trkpt><trkpt lat="43.2687726" lon="12.0927411"><ele>825.0</ele><time>2026-04-12T08:29:37.666Z</time></trkpt><trkpt lat="43.2687287" lon="12.0928672"><ele>825.0</ele><time>2026-04-12T08:29:38.639Z</time></trkpt><trkpt lat="43.2686793" lon="12.0930062"><ele>825.0</ele><time>2026-04-12T08:29:39.635Z</time></trkpt><trkpt lat="43.2686204" lon="12.0931525"><ele>825.0</ele><time>2026-04-12T08:29:40.634Z</time></trkpt><trkpt lat="43.2685642" lon="12.0932825"><ele>825.0</ele><time>2026-04-12T08:29:41.638Z</time></trkpt><trkpt lat="43.2685113" lon="12.0933905"><ele>825.0</ele><time>2026-04-12T08:29:42.633Z</time></trkpt><trkpt lat="43.2684529" lon="12.0934649"><ele>824.8333333333334</ele><time>2026-04-12T08:29:43.638Z</time></trkpt><trkpt lat="43.268382" lon="12.0935141"><ele>824.6666666666667</ele><time>2026-04-12T08:29:44.634Z</time></trkpt><trkpt lat="43.2683088" lon="12.0935499"><ele>824.5</ele><time>2026-04-12T08:29:45.638Z</time></trkpt><trkpt lat="43.2682487" lon="12.0935822"><ele>824.3333333333334</ele><time>2026-04-12T08:29:46.639Z</time></trkpt><trkpt lat="43.2681686" lon="12.0936927"><ele>824.1666666666667</ele><time>2026-04-12T08:29:48.632Z</time></trkpt><trkpt lat="43.2681277" lon="12.0937906"><ele>824.0</ele><time>2026-04-12T08:29:49.636Z</time></trkpt><trkpt lat="43.2680969" lon="12.0938984"><ele>823.6666666666667</ele><time>2026-04-12T08:29:50.638Z</time></trkpt><trkpt lat="43.2680574" lon="12.0939897"><ele>823.3333333333334</ele><time>2026-04-12T08:29:51.638Z</time></trkpt><trkpt lat="43.2680063" lon="12.0940604"><ele>823.0</ele><time>2026-04-12T08:29:52.642Z</time></trkpt><trkpt lat="43.2679453" lon="12.0941041"><ele>822.6666666666667</ele><time>2026-04-12T08:29:53.64Z</time></trkpt><trkpt lat="43.2678736" lon="12.0941124"><ele>822.3333333333334</ele><time>2026-04-12T08:29:54.647Z</time></trkpt><trkpt lat="43.2678037" lon="12.0940834"><ele>822.0</ele><time>2026-04-12T08:29:55.644Z</time></trkpt><trkpt lat="43.2677212" lon="12.0940151"><ele>820.3333333333334</ele><time>2026-04-12T08:29:56.639Z</time></trkpt><trkpt lat="43.2676366" lon="12.0939419"><ele>818.6666666666667</ele><time>2026-04-12T08:29:57.633Z</time></trkpt><trkpt lat="43.2675522" lon="12.0938805"><ele>817.0</ele><time>2026-04-12T08:29:58.631Z</time></trkpt><trkpt lat="43.2674745" lon="12.0938331"><ele>815.3333333333334</ele><time>2026-04-12T08:29:59.627Z</time></trkpt><trkpt lat="43.2673998" lon="12.0938038"><ele>813.6666666666667</ele><time>2026-04-12T08:30:00.63Z</time></trkpt><trkpt lat="43.2673299" lon="12.0937898"><ele>812.0</ele><time>2026-04-12T08:30:01.631Z</time></trkpt><trkpt lat="43.2672525" lon="12.0937895"><ele>810.0000000000001</ele><time>2026-04-12T08:30:02.63Z</time></trkpt><trkpt lat="43.2671645" lon="12.0938059"><ele>808.0</ele><time>2026-04-12T08:30:03.631Z</time></trkpt><trkpt lat="43.2670776" lon="12.0938248"><ele>806.0</ele><time>2026-04-12T08:30:04.634Z</time></trkpt><trkpt lat="43.2669981" lon="12.0938325"><ele>804.0</ele><time>2026-04-12T08:30:05.633Z</time></trkpt><trkpt lat="43.2669346" lon="12.0938433"><ele>802.0000000000001</ele><time>2026-04-12T08:30:06.63Z</time></trkpt><trkpt lat="43.2668337" lon="12.093885"><ele>800.0</ele><time>2026-04-12T08:30:08.636Z</time></trkpt><trkpt lat="43.2667708" lon="12.093904"><ele>800.0</ele><time>2026-04-12T08:30:10.647Z</time></trkpt><trkpt lat="43.2667139" lon="12.0939651"><ele>800.0</ele><time>2026-04-12T08:30:34.643Z</time></trkpt><trkpt lat="43.2666343" lon="12.0940628"><ele>800.0</ele><time>2026-04-12T08:30:36.649Z</time></trkpt><trkpt lat="43.2665504" lon="12.0941579"><ele>800.0</ele><time>2026-04-12T08:30:38.651Z</time></trkpt><trkpt lat="43.2664566" lon="12.0942058"><ele>800.0</ele><time>2026-04-12T08:30:40.631Z</time></trkpt><trkpt lat="43.2663556" lon="12.0942419"><ele>798.4</ele><time>2026-04-12T08:30:42.63Z</time></trkpt><trkpt lat="43.266258" lon="12.0942975"><ele>796.8</ele><time>2026-04-12T08:30:44.635Z</time></trkpt><trkpt lat="43.2661487" lon="12.0943815"><ele>795.2</ele><time>2026-04-12T08:30:46.631Z</time></trkpt><trkpt lat="43.266094" lon="12.094451"><ele>793.6</ele><time>2026-04-12T08:30:47.632Z</time></trkpt><trkpt lat="43.2660363" lon="12.0945359"><ele>792.0</ele><time>2026-04-12T08:30:48.633Z</time></trkpt><trkpt lat="43.265975" lon="12.0946437"><ele>792.0</ele><time>2026-04-12T08:30:49.632Z</time></trkpt><trkpt lat="43.2659145" lon="12.0947498"><ele>792.0</ele><time>2026-04-12T08:30:50.63Z</time></trkpt><trkpt lat="43.2658784" lon="12.0948485"><ele>792.0</ele><time>2026-04-12T08:30:51.632Z</time></trkpt><trkpt lat="43.2658573" lon="12.0949335"><ele>792.0</ele><time>2026-04-12T08:30:52.636Z</time></trkpt><trkpt lat="43.2658121" lon="12.0948125"><ele>792.0</ele><time>2026-04-12T08:30:57.644Z</time></trkpt><trkpt lat="43.2658049" lon="12.0947166"><ele>792.0</ele><time>2026-04-12T08:30:58.632Z</time></trkpt><trkpt lat="43.2657983" lon="12.0946075"><ele>792.0</ele><time>2026-04-12T08:30:59.636Z</time></trkpt><trkpt lat="43.2658007" lon="12.0944851"><ele>792.0</ele><time>2026-04-12T08:31:00.631Z</time></trkpt><trkpt lat="43.2658144" lon="12.094368"><ele>792.0</ele><time>2026-04-12T08:31:01.632Z</time></trkpt><trkpt lat="43.2658373" lon="12.0942626"><ele>792.0</ele><time>2026-04-12T08:31:02.632Z</time></trkpt><trkpt lat="43.2658296" lon="12.0940692"><ele>792.0</ele><time>2026-04-12T08:31:04.634Z</time></trkpt><trkpt lat="43.2658014" lon="12.093931"><ele>790.4000000000001</ele><time>2026-04-12T08:31:05.622Z</time></trkpt><trkpt lat="43.2657697" lon="12.0937974"><ele>788.8000000000001</ele><time>2026-04-12T08:31:06.629Z</time></trkpt><trkpt lat="43.2657534" lon="12.0936671"><ele>787.2</ele><time>2026-04-12T08:31:07.632Z</time></trkpt><trkpt lat="43.2657503" lon="12.0935423"><ele>785.6</ele><time>2026-04-12T08:31:08.63Z</time></trkpt><trkpt lat="43.2657571" lon="12.0934202"><ele>784.0</ele><time>2026-04-12T08:31:09.645Z</time></trkpt><trkpt lat="43.2657761" lon="12.0932956"><ele>781.1666666666666</ele><time>2026-04-12T08:31:10.631Z</time></trkpt><trkpt lat="43.2657946" lon="12.0931904"><ele>778.3333333333333</ele><time>2026-04-12T08:31:11.641Z</time></trkpt><trkpt lat="43.2658228" lon="12.0931034"><ele>775.5</ele><time>2026-04-12T08:31:12.636Z</time></trkpt><trkpt lat="43.2659152" lon="12.0930328"><ele>772.6666666666666</ele><time>2026-04-12T08:31:14.628Z</time></trkpt><trkpt lat="43.2659803" lon="12.0930085"><ele>769.8333333333333</ele><time>2026-04-12T08:31:15.63Z</time></trkpt><trkpt lat="43.2660663" lon="12.0929691"><ele>767.0</ele><time>2026-04-12T08:31:16.634Z</time></trkpt><trkpt lat="43.2661566" lon="12.0929263"><ele>767.0</ele><time>2026-04-12T08:31:17.628Z</time></trkpt><trkpt lat="43.2662478" lon="12.0928734"><ele>767.0</ele><time>2026-04-12T08:31:18.631Z</time></trkpt><trkpt lat="43.2663446" lon="12.0928223"><ele>767.0</ele><time>2026-04-12T08:31:19.63Z</time></trkpt><trkpt lat="43.2664296" lon="12.0927653"><ele>767.0</ele><time>2026-04-12T08:31:20.627Z</time></trkpt><trkpt lat="43.2664996" lon="12.0927045"><ele>767.0</ele><time>2026-04-12T08:31:21.63Z</time></trkpt><trkpt lat="43.2665683" lon="12.0926519"><ele>768.3333333333333</ele><time>2026-04-12T08:31:22.624Z</time></trkpt><trkpt lat="43.2666275" lon="12.0926033"><ele>769.6666666666666</ele><time>2026-04-12T08:31:23.626Z</time></trkpt><trkpt lat="43.2667095" lon="12.092469"><ele>771.0</ele><time>2026-04-12T08:31:25.625Z</time></trkpt><trkpt lat="43.2667236" lon="12.0923746"><ele>772.3333333333333</ele><time>2026-04-12T08:31:26.621Z</time></trkpt><trkpt lat="43.2667374" lon="12.0922858"><ele>773.6666666666666</ele><time>2026-04-12T08:31:27.623Z</time></trkpt><trkpt lat="43.2667158" lon="12.0921347"><ele>775.0</ele><time>2026-04-12T08:31:29.62Z</time></trkpt><trkpt lat="43.2666781" lon="12.0920419"><ele>774.9999999999999</ele><time>2026-04-12T08:31:30.625Z</time></trkpt><trkpt lat="43.2666596" lon="12.091932"><ele>775.0</ele><time>2026-04-12T08:31:31.628Z</time></trkpt><trkpt lat="43.2666458" lon="12.0918173"><ele>775.0</ele><time>2026-04-12T08:31:32.629Z</time></trkpt><trkpt lat="43.2666382" lon="12.0916931"><ele>775.0</ele><time>2026-04-12T08:31:33.63Z</time></trkpt><trkpt lat="43.2666408" lon="12.0915692"><ele>774.9999999999999</ele><time>2026-04-12T08:31:34.634Z</time></trkpt><trkpt lat="43.2666551" lon="12.0914332"><ele>775.0</ele><time>2026-04-12T08:31:35.631Z</time></trkpt><trkpt lat="43.2666729" lon="12.091296"><ele>772.9999999999999</ele><time>2026-04-12T08:31:36.631Z</time></trkpt><trkpt lat="43.2666876" lon="12.0911823"><ele>771.0</ele><time>2026-04-12T08:31:37.632Z</time></trkpt><trkpt lat="43.2667039" lon="12.0910373"><ele>769.0</ele><time>2026-04-12T08:31:39.637Z</time></trkpt><trkpt lat="43.2667369" lon="12.0909607"><ele>767.0</ele><time>2026-04-12T08:32:42.659Z</time></trkpt><trkpt lat="43.266785" lon="12.0908704"><ele>765.0</ele><time>2026-04-12T08:32:45.641Z</time></trkpt><trkpt lat="43.2668617" lon="12.0907982"><ele>763.0</ele><time>2026-04-12T08:32:47.645Z</time></trkpt><trkpt lat="43.26694" lon="12.0907307"><ele>762.5999999999999</ele><time>2026-04-12T08:32:49.642Z</time></trkpt><trkpt lat="43.2670282" lon="12.0906861"><ele>762.1999999999999</ele><time>2026-04-12T08:32:51.642Z</time></trkpt><trkpt lat="43.2671112" lon="12.0906324"><ele>761.8</ele><time>2026-04-12T08:32:53.643Z</time></trkpt><trkpt lat="43.2671922" lon="12.0905469"><ele>761.4</ele><time>2026-04-12T08:32:55.634Z</time></trkpt><trkpt lat="43.26727" lon="12.0904442"><ele>761.0</ele><time>2026-04-12T08:32:57.631Z</time></trkpt><trkpt lat="43.2673268" lon="12.0903887"><ele>760.9999999999999</ele><time>2026-04-12T08:32:59.643Z</time></trkpt><trkpt lat="43.2673951" lon="12.0903665"><ele>761.0</ele><time>2026-04-12T08:33:01.645Z</time></trkpt><trkpt lat="43.2674552" lon="12.0903167"><ele>761.0</ele><time>2026-04-12T08:33:22.65Z</time></trkpt><trkpt lat="43.2674833" lon="12.0902297"><ele>761.0</ele><time>2026-04-12T08:33:25.64Z</time></trkpt><trkpt lat="43.2675126" lon="12.0901437"><ele>761.0</ele><time>2026-04-12T08:33:27.639Z</time></trkpt><trkpt lat="43.2675254" lon="12.0900434"><ele>760.9999999999999</ele><time>2026-04-12T08:33:29.642Z</time></trkpt><trkpt lat="43.2675357" lon="12.0899496"><ele>761.0</ele><time>2026-04-12T08:33:31.64Z</time></trkpt><trkpt lat="43.2675549" lon="12.0898529"><ele>758.6666666666666</ele><time>2026-04-12T08:33:33.638Z</time></trkpt><trkpt lat="43.2675764" lon="12.0897639"><ele>756.3333333333333</ele><time>2026-04-12T08:33:35.64Z</time></trkpt><trkpt lat="43.2675059" lon="12.0897327"><ele>754.0</ele><time>2026-04-12T08:33:41.649Z</time></trkpt><trkpt lat="43.2674071" lon="12.0897187"><ele>751.6666666666666</ele><time>2026-04-12T08:33:43.638Z</time></trkpt><trkpt lat="43.2673445" lon="12.0897049"><ele>749.3333333333334</ele><time>2026-04-12T08:33:44.654Z</time></trkpt><trkpt lat="43.2672325" lon="12.0897137"><ele>747.0</ele><time>2026-04-12T08:33:46.629Z</time></trkpt><trkpt lat="43.2671342" lon="12.0897175"><ele>743.75</ele><time>2026-04-12T08:33:48.64Z</time></trkpt><trkpt lat="43.2670379" lon="12.0896829"><ele>740.5</ele><time>2026-04-12T08:33:50.63Z</time></trkpt><trkpt lat="43.2669349" lon="12.0896468"><ele>737.25</ele><time>2026-04-12T08:33:52.642Z</time></trkpt><trkpt lat="43.2668578" lon="12.0895294"><ele>734.0</ele><time>2026-04-12T08:33:54.626Z</time></trkpt><trkpt lat="43.2668167" lon="12.0893598"><ele>734.0</ele><time>2026-04-12T08:33:56.632Z</time></trkpt><trkpt lat="43.2667964" lon="12.0892568"><ele>734.0</ele><time>2026-04-12T08:33:57.63Z</time></trkpt><trkpt lat="43.2667763" lon="12.0891513"><ele>734.0</ele><time>2026-04-12T08:33:58.631Z</time></trkpt><trkpt lat="43.2667595" lon="12.0890543"><ele>734.0</ele><time>2026-04-12T08:33:59.631Z</time></trkpt><trkpt lat="43.2667409" lon="12.0889662"><ele>734.0</ele><time>2026-04-12T08:34:00.631Z</time></trkpt><trkpt lat="43.2667541" lon="12.0888349"><ele>734.0</ele><time>2026-04-12T08:34:02.629Z</time></trkpt><trkpt lat="43.2668252" lon="12.0887567"><ele>731.8333333333333</ele><time>2026-04-12T08:34:04.633Z</time></trkpt><trkpt lat="43.2668808" lon="12.088669"><ele>729.6666666666666</ele><time>2026-04-12T08:34:06.642Z</time></trkpt><trkpt lat="43.2669028" lon="12.0885828"><ele>727.5</ele><time>2026-04-12T08:34:08.639Z</time></trkpt><trkpt lat="43.2669238" lon="12.0884789"><ele>725.3333333333334</ele><time>2026-04-12T08:34:10.64Z</time></trkpt><trkpt lat="43.2669336" lon="12.0883733"><ele>723.1666666666667</ele><time>2026-04-12T08:34:12.64Z</time></trkpt><trkpt lat="43.2669066" lon="12.0882687"><ele>721.0</ele><time>2026-04-12T08:34:14.641Z</time></trkpt><trkpt lat="43.2668148" lon="12.0882158"><ele>718.1999999999999</ele><time>2026-04-12T08:34:16.631Z</time></trkpt><trkpt lat="43.2667369" lon="12.0881437"><ele>715.4</ele><time>2026-04-12T08:34:18.641Z</time></trkpt><trkpt lat="43.2667162" lon="12.0880333"><ele>712.6</ele><time>2026-04-12T08:34:20.641Z</time></trkpt><trkpt lat="43.2666807" lon="12.0879218"><ele>709.8</ele><time>2026-04-12T08:34:22.639Z</time></trkpt><trkpt lat="43.2665787" lon="12.0878196"><ele>707.0</ele><time>2026-04-12T08:34:24.63Z</time></trkpt><trkpt lat="43.266496" lon="12.087704"><ele>707.0</ele><time>2026-04-12T08:34:26.631Z</time></trkpt><trkpt lat="43.2664764" lon="12.0876177"><ele>707.0</ele><time>2026-04-12T08:34:28.641Z</time></trkpt><trkpt lat="43.2665382" lon="12.0875449"><ele>707.0</ele><time>2026-04-12T08:34:34.652Z</time></trkpt><trkpt lat="43.2666098" lon="12.0875117"><ele>707.0</ele><time>2026-04-12T08:34:38.653Z</time></trkpt><trkpt lat="43.2667122" lon="12.0874543"><ele>707.0</ele><time>2026-04-12T08:34:41.661Z</time></trkpt><trkpt lat="43.2667811" lon="12.0874144"><ele>707.0</ele><time>2026-04-12T08:34:42.642Z</time></trkpt><trkpt lat="43.2668543" lon="12.0873782"><ele>703.6666666666666</ele><time>2026-04-12T08:34:43.641Z</time></trkpt><trkpt lat="43.2669312" lon="12.0873472"><ele>700.3333333333333</ele><time>2026-04-12T08:34:44.637Z</time></trkpt><trkpt lat="43.2670112" lon="12.0873173"><ele>697.0</ele><time>2026-04-12T08:34:45.652Z</time></trkpt><trkpt lat="43.2670831" lon="12.0872881"><ele>693.6666666666666</ele><time>2026-04-12T08:34:46.635Z</time></trkpt><trkpt lat="43.2671487" lon="12.0872586"><ele>690.3333333333334</ele><time>2026-04-12T08:34:47.637Z</time></trkpt><trkpt lat="43.2672351" lon="12.0871819"><ele>687.0</ele><time>2026-04-12T08:34:49.638Z</time></trkpt><trkpt lat="43.2672436" lon="12.087065"><ele>687.0</ele><time>2026-04-12T08:34:51.644Z</time></trkpt><trkpt lat="43.2672358" lon="12.0869737"><ele>687.0</ele><time>2026-04-12T08:34:52.63Z</time></trkpt><trkpt lat="43.2672286" lon="12.0868701"><ele>687.0</ele><time>2026-04-12T08:34:53.631Z</time></trkpt><trkpt lat="43.2672285" lon="12.0867662"><ele>687.0</ele><time>2026-04-12T08:34:54.629Z</time></trkpt><trkpt lat="43.2672427" lon="12.0866496"><ele>687.0</ele><time>2026-04-12T08:34:55.633Z</time></trkpt><trkpt lat="43.2672683" lon="12.0865161"><ele>687.0</ele><time>2026-04-12T08:34:56.631Z</time></trkpt><trkpt lat="43.2672909" lon="12.0863769"><ele>688.1666666666666</ele><time>2026-04-12T08:34:57.631Z</time></trkpt><trkpt lat="43.2673234" lon="12.0862516"><ele>689.3333333333334</ele><time>2026-04-12T08:34:58.633Z</time></trkpt><trkpt lat="43.2673647" lon="12.0861463"><ele>690.5</ele><time>2026-04-12T08:34:59.629Z</time></trkpt><trkpt lat="43.2674139" lon="12.0860622"><ele>691.6666666666667</ele><time>2026-04-12T08:35:00.628Z</time></trkpt><trkpt lat="43.2674727" lon="12.0859803"><ele>692.8333333333334</ele><time>2026-04-12T08:35:01.629Z</time></trkpt><trkpt lat="43.2675417" lon="12.085914"><ele>694.0</ele><time>2026-04-12T08:35:02.627Z</time></trkpt><trkpt lat="43.2676138" lon="12.0858653"><ele>694.0</ele><time>2026-04-12T08:35:03.625Z</time></trkpt><trkpt lat="43.2676898" lon="12.0858301"><ele>694.0</ele><time>2026-04-12T08:35:04.629Z</time></trkpt><trkpt lat="43.2677653" lon="12.0858185"><ele>694.0</ele><time>2026-04-12T08:35:05.626Z</time></trkpt><trkpt lat="43.267836" lon="12.0858396"><ele>694.0</ele><time>2026-04-12T08:35:06.627Z</time></trkpt><trkpt lat="43.2679401" lon="12.085938"><ele>694.0</ele><time>2026-04-12T08:35:08.624Z</time></trkpt><trkpt lat="43.2679931" lon="12.0860044"><ele>694.0</ele><time>2026-04-12T08:35:09.625Z</time></trkpt><trkpt lat="43.2680623" lon="12.0860557"><ele>695.3333333333334</ele><time>2026-04-12T08:35:10.627Z</time></trkpt><trkpt lat="43.2681325" lon="12.0860795"><ele>696.6666666666667</ele><time>2026-04-12T08:35:11.631Z</time></trkpt><trkpt lat="43.2682039" lon="12.0860871"><ele>698.0</ele><time>2026-04-12T08:35:12.623Z</time></trkpt><trkpt lat="43.2682714" lon="12.086092"><ele>699.3333333333334</ele><time>2026-04-12T08:35:13.62Z</time></trkpt><trkpt lat="43.2683889" lon="12.0860753"><ele>700.6666666666666</ele><time>2026-04-12T08:35:15.624Z</time></trkpt><trkpt lat="43.2684477" lon="12.0860225"><ele>702.0</ele><time>2026-04-12T08:35:17.635Z</time></trkpt><trkpt lat="43.2684778" lon="12.085932"><ele>702.0</ele><time>2026-04-12T08:35:19.637Z</time></trkpt><trkpt lat="43.2685242" lon="12.0857716"><ele>702.0</ele><time>2026-04-12T08:35:21.628Z</time></trkpt><trkpt lat="43.2685561" lon="12.0856866"><ele>702.0</ele><time>2026-04-12T08:35:22.624Z</time></trkpt><trkpt lat="43.268578" lon="12.0855384"><ele>702.0</ele><time>2026-04-12T08:35:24.626Z</time></trkpt><trkpt lat="43.2685588" lon="12.0853637"><ele>702.0</ele><time>2026-04-12T08:35:26.627Z</time></trkpt><trkpt lat="43.2685491" lon="12.0852653"><ele>698.4000000000001</ele><time>2026-04-12T08:35:27.624Z</time></trkpt><trkpt lat="43.2685532" lon="12.0851194"><ele>694.8000000000001</ele><time>2026-04-12T08:35:29.624Z</time></trkpt><trkpt lat="43.2685215" lon="12.0852271"><ele>691.2</ele><time>2026-04-12T08:35:34.633Z</time></trkpt><trkpt lat="43.2685115" lon="12.0853667"><ele>687.6</ele><time>2026-04-12T08:35:36.638Z</time></trkpt><trkpt lat="43.268476" lon="12.0854948"><ele>684.0</ele><time>2026-04-12T08:35:38.638Z</time></trkpt><trkpt lat="43.2684089" lon="12.0855999"><ele>684.0</ele><time>2026-04-12T08:35:40.635Z</time></trkpt><trkpt lat="43.2683232" lon="12.0856059"><ele>684.0</ele><time>2026-04-12T08:35:42.634Z</time></trkpt><trkpt lat="43.2682376" lon="12.0855299"><ele>684.0</ele><time>2026-04-12T08:35:44.628Z</time></trkpt><trkpt lat="43.2681665" lon="12.085429"><ele>684.0</ele><time>2026-04-12T08:35:46.634Z</time></trkpt><trkpt lat="43.2681052" lon="12.0853547"><ele>684.0</ele><time>2026-04-12T08:35:48.634Z</time></trkpt><trkpt lat="43.2680408" lon="12.0852746"><ele>684.0</ele><time>2026-04-12T08:35:50.635Z</time></trkpt><trkpt lat="43.2680376" lon="12.0851685"><ele>684.0</ele><time>2026-04-12T08:35:52.635Z</time></trkpt><trkpt lat="43.2680913" lon="12.0850573"><ele>684.0</ele><time>2026-04-12T08:35:54.638Z</time></trkpt><trkpt lat="43.2681483" lon="12.0849472"><ele>684.0</ele><time>2026-04-12T08:35:56.64Z</time></trkpt><trkpt lat="43.2681434" lon="12.084833"><ele>684.0</ele><time>2026-04-12T08:35:58.639Z</time></trkpt><trkpt lat="43.268144" lon="12.0847422"><ele>684.0</ele><time>2026-04-12T08:36:00.643Z</time></trkpt><trkpt lat="43.268152" lon="12.0846213"><ele>682.0</ele><time>2026-04-12T08:36:03.64Z</time></trkpt><trkpt lat="43.2681164" lon="12.0845278"><ele>680.0</ele><time>2026-04-12T08:36:07.642Z</time></trkpt><trkpt lat="43.2680541" lon="12.0844717"><ele>678.0</ele><time>2026-04-12T08:36:11.653Z</time></trkpt><trkpt lat="43.2680307" lon="12.0843773"><ele>676.0</ele><time>2026-04-12T08:36:14.644Z</time></trkpt><trkpt lat="43.2680328" lon="12.0842646"><ele>674.0</ele><time>2026-04-12T08:36:17.645Z</time></trkpt><trkpt lat="43.2680446" lon="12.0841526"><ele>672.0</ele><time>2026-04-12T08:36:21.644Z</time></trkpt><trkpt lat="43.2680335" lon="12.0840584"><ele>671.0</ele><time>2026-04-12T08:36:25.645Z</time></trkpt><trkpt lat="43.2680643" lon="12.0839758"><ele>670.0</ele><time>2026-04-12T08:36:27.644Z</time></trkpt><trkpt lat="43.2680969" lon="12.0838975"><ele>669.0</ele><time>2026-04-12T08:36:33.651Z</time></trkpt><trkpt lat="43.2681221" lon="12.0837997"><ele>668.0</ele><time>2026-04-12T08:36:36.643Z</time></trkpt><trkpt lat="43.2681408" lon="12.0837072"><ele>667.0</ele><time>2026-04-12T08:36:38.643Z</time></trkpt><trkpt lat="43.2681617" lon="12.0836224"><ele>666.0</ele><time>2026-04-12T08:36:40.642Z</time></trkpt><trkpt lat="43.2681779" lon="12.0835363"><ele>665.0</ele><time>2026-04-12T08:36:42.638Z</time></trkpt><trkpt lat="43.2682033" lon="12.083444"><ele>665.0</ele><time>2026-04-12T08:36:44.642Z</time></trkpt><trkpt lat="43.2682445" lon="12.0833279"><ele>665.0</ele><time>2026-04-12T08:36:46.642Z</time></trkpt><trkpt lat="43.2682938" lon="12.0832252"><ele>665.0</ele><time>2026-04-12T08:36:48.642Z</time></trkpt><trkpt lat="43.2683197" lon="12.0831442"><ele>665.0</ele><time>2026-04-12T08:36:50.64Z</time></trkpt><trkpt lat="43.2682815" lon="12.083057"><ele>665.0</ele><time>2026-04-12T08:36:52.639Z</time></trkpt><trkpt lat="43.2681604" lon="12.0829458"><ele>660.1666666666666</ele><time>2026-04-12T08:36:54.629Z</time></trkpt><trkpt lat="43.2680914" lon="12.082895"><ele>655.3333333333333</ele><time>2026-04-12T08:36:55.624Z</time></trkpt><trkpt lat="43.268031" lon="12.0828445"><ele>650.5</ele><time>2026-04-12T08:36:56.627Z</time></trkpt><trkpt lat="43.2679701" lon="12.0827976"><ele>645.6666666666666</ele><time>2026-04-12T08:36:57.629Z</time></trkpt><trkpt lat="43.2678944" lon="12.0827074"><ele>640.8333333333334</ele><time>2026-04-12T08:36:59.629Z</time></trkpt><trkpt lat="43.2678469" lon="12.0826322"><ele>636.0</ele><time>2026-04-12T08:37:01.645Z</time></trkpt><trkpt lat="43.2677551" lon="12.082617"><ele>636.0</ele><time>2026-04-12T08:37:04.644Z</time></trkpt><trkpt lat="43.2676839" lon="12.0826294"><ele>636.0</ele><time>2026-04-12T08:37:06.644Z</time></trkpt><trkpt lat="43.2676124" lon="12.0826325"><ele>636.0</ele><time>2026-04-12T08:37:09.647Z</time></trkpt><trkpt lat="43.2675501" lon="12.0826458"><ele>636.0</ele><time>2026-04-12T08:37:11.651Z</time></trkpt><trkpt lat="43.2674697" lon="12.0826262"><ele>636.0</ele><time>2026-04-12T08:37:13.641Z</time></trkpt><trkpt lat="43.2673846" lon="12.0826323"><ele>636.0</ele><time>2026-04-12T08:37:15.644Z</time></trkpt><trkpt lat="43.2672928" lon="12.0826501"><ele>632.0</ele><time>2026-04-12T08:37:17.643Z</time></trkpt><trkpt lat="43.2672153" lon="12.0826648"><ele>628.0</ele><time>2026-04-12T08:37:19.643Z</time></trkpt><trkpt lat="43.2671402" lon="12.0826692"><ele>624.0</ele><time>2026-04-12T08:37:21.645Z</time></trkpt><trkpt lat="43.2670641" lon="12.0826654"><ele>620.0</ele><time>2026-04-12T08:37:23.643Z</time></trkpt><trkpt lat="43.2669804" lon="12.0826674"><ele>616.0</ele><time>2026-04-12T08:37:25.641Z</time></trkpt><trkpt lat="43.2669045" lon="12.0827063"><ele>612.0</ele><time>2026-04-12T08:37:29.645Z</time></trkpt><trkpt lat="43.2668386" lon="12.0826905"><ele>612.0</ele><time>2026-04-12T08:37:31.646Z</time></trkpt><trkpt lat="43.26677" lon="12.0826372"><ele>612.0</ele><time>2026-04-12T08:37:33.643Z</time></trkpt><trkpt lat="43.2667595" lon="12.0825239"><ele>612.0</ele><time>2026-04-12T08:37:36.644Z</time></trkpt><trkpt lat="43.2668055" lon="12.0824364"><ele>612.0</ele><time>2026-04-12T08:37:38.645Z</time></trkpt><trkpt lat="43.2668719" lon="12.0823188"><ele>612.0</ele><time>2026-04-12T08:37:40.644Z</time></trkpt><trkpt lat="43.2669362" lon="12.0822237"><ele>612.0</ele><time>2026-04-12T08:37:42.636Z</time></trkpt><trkpt lat="43.2669996" lon="12.0821644"><ele>608.1666666666666</ele><time>2026-04-12T08:37:44.637Z</time></trkpt><trkpt lat="43.2670514" lon="12.0820854"><ele>604.3333333333334</ele><time>2026-04-12T08:37:49.636Z</time></trkpt><trkpt lat="43.2671088" lon="12.0820056"><ele>600.5</ele><time>2026-04-12T08:37:51.65Z</time></trkpt><trkpt lat="43.2671512" lon="12.0819183"><ele>596.6666666666667</ele><time>2026-04-12T08:37:53.636Z</time></trkpt><trkpt lat="43.2671947" lon="12.0818085"><ele>592.8333333333334</ele><time>2026-04-12T08:37:56.638Z</time></trkpt><trkpt lat="43.2671511" lon="12.081741"><ele>589.0</ele><time>2026-04-12T08:37:59.637Z</time></trkpt><trkpt lat="43.2670699" lon="12.0817611"><ele>589.0</ele><time>2026-04-12T08:38:02.633Z</time></trkpt><trkpt lat="43.2670095" lon="12.081814"><ele>589.0</ele><time>2026-04-12T08:38:05.638Z</time></trkpt><trkpt lat="43.266944" lon="12.0818314"><ele>589.0</ele><time>2026-04-12T08:38:08.638Z</time></trkpt><trkpt lat="43.266868" lon="12.0817957"><ele>589.0</ele><time>2026-04-12T08:38:11.647Z</time></trkpt><trkpt lat="43.2668281" lon="12.0817002"><ele>589.0</ele><time>2026-04-12T08:38:14.637Z</time></trkpt><trkpt lat="43.266864" lon="12.0816044"><ele>589.0</ele><time>2026-04-12T08:38:18.639Z</time></trkpt><trkpt lat="43.2668983" lon="12.0815226"><ele>589.0</ele><time>2026-04-12T08:38:21.642Z</time></trkpt><trkpt lat="43.2669" lon="12.0814304"><ele>587.0</ele><time>2026-04-12T08:38:24.64Z</time></trkpt><trkpt lat="43.26686" lon="12.0813465"><ele>585.0</ele><time>2026-04-12T08:38:28.635Z</time></trkpt><trkpt lat="43.2667919" lon="12.0812848"><ele>583.0</ele><time>2026-04-12T08:38:32.641Z</time></trkpt><trkpt lat="43.266705" lon="12.0812643"><ele>581.0</ele><time>2026-04-12T08:38:36.636Z</time></trkpt><trkpt lat="43.26664" lon="12.0812681"><ele>579.0</ele><time>2026-04-12T08:38:39.639Z</time></trkpt><trkpt lat="43.2665765" lon="12.0813041"><ele>577.0</ele><time>2026-04-12T08:38:44.641Z</time></trkpt><trkpt lat="43.2665231" lon="12.0813685"><ele>575.0</ele><time>2026-04-12T08:38:50.64Z</time></trkpt><trkpt lat="43.2664562" lon="12.081388"><ele>569.1666666666666</ele><time>2026-04-12T08:38:53.657Z</time></trkpt><trkpt lat="43.2663816" lon="12.0814242"><ele>563.3333333333333</ele><time>2026-04-12T08:38:56.646Z</time></trkpt><trkpt lat="43.2663065" lon="12.0814812"><ele>557.5</ele><time>2026-04-12T08:39:00.639Z</time></trkpt><trkpt lat="43.2662199" lon="12.0815223"><ele>551.6666666666666</ele><time>2026-04-12T08:39:03.636Z</time></trkpt><trkpt lat="43.2661531" lon="12.0815359"><ele>545.8333333333334</ele><time>2026-04-12T08:39:05.638Z</time></trkpt><trkpt lat="43.2660711" lon="12.0815501"><ele>540.0</ele><time>2026-04-12T08:39:08.638Z</time></trkpt><trkpt lat="43.2660067" lon="12.0815501"><ele>540.0</ele><time>2026-04-12T08:39:10.638Z</time></trkpt><trkpt lat="43.265933" lon="12.0815819"><ele>540.0</ele><time>2026-04-12T08:39:13.638Z</time></trkpt><trkpt lat="43.2658566" lon="12.0816358"><ele>540.0</ele><time>2026-04-12T08:39:16.637Z</time></trkpt><trkpt lat="43.2657889" lon="12.081673"><ele>540.0</ele><time>2026-04-12T08:39:19.637Z</time></trkpt><trkpt lat="43.2656982" lon="12.0816979"><ele>540.0</ele><time>2026-04-12T08:39:22.635Z</time></trkpt><trkpt lat="43.2656163" lon="12.081739"><ele>540.0</ele><time>2026-04-12T08:39:25.634Z</time></trkpt><trkpt lat="43.2655258" lon="12.0817689"><ele>537.5</ele><time>2026-04-12T08:39:28.634Z</time></trkpt><trkpt lat="43.2654565" lon="12.0817737"><ele>535.0</ele><time>2026-04-12T08:39:30.632Z</time></trkpt><trkpt lat="43.2653746" lon="12.0817947"><ele>532.5</ele><time>2026-04-12T08:39:32.633Z</time></trkpt><trkpt lat="43.265296" lon="12.081829"><ele>530.0</ele><time>2026-04-12T08:39:34.633Z</time></trkpt><trkpt lat="43.2652279" lon="12.0818681"><ele>527.5</ele><time>2026-04-12T08:39:36.631Z</time></trkpt><trkpt lat="43.2651511" lon="12.0819046"><ele>525.0</ele><time>2026-04-12T08:39:39.633Z</time></trkpt><trkpt lat="43.2650879" lon="12.0819446"><ele>525.0</ele><time>2026-04-12T08:39:42.631Z</time></trkpt><trkpt lat="43.2650347" lon="12.0820014"><ele>525.0</ele><time>2026-04-12T08:39:47.633Z</time></trkpt><trkpt lat="43.2649647" lon="12.082016"><ele>525.0</ele><time>2026-04-12T08:39:52.629Z</time></trkpt><trkpt lat="43.2648959" lon="12.0819798"><ele>525.0</ele><time>2026-04-12T08:40:03.64Z</time></trkpt><trkpt lat="43.2648622" lon="12.0819051"><ele>525.0</ele><time>2026-04-12T08:40:08.638Z</time></trkpt><trkpt lat="43.2648497" lon="12.0818167"><ele>525.0</ele><time>2026-04-12T08:40:12.639Z</time></trkpt><trkpt lat="43.2648357" lon="12.0817097"><ele>525.0</ele><time>2026-04-12T08:40:15.634Z</time></trkpt><trkpt lat="43.2648156" lon="12.0816163"><ele>523.0</ele><time>2026-04-12T08:40:18.641Z</time></trkpt><trkpt lat="43.2648052" lon="12.081491"><ele>521.0</ele><time>2026-04-12T08:40:22.636Z</time></trkpt><trkpt lat="43.2647422" lon="12.0815117"><ele>519.0</ele><time>2026-04-12T08:40:27.639Z</time></trkpt><trkpt lat="43.2647582" lon="12.0816355"><ele>517.0</ele><time>2026-04-12T08:45:13.647Z</time></trkpt><trkpt lat="43.264749" lon="12.081731"><ele>515.0</ele><time>2026-04-12T08:45:15.637Z</time></trkpt><trkpt lat="43.2647365" lon="12.0818188"><ele>513.0</ele><time>2026-04-12T08:45:17.632Z</time></trkpt><trkpt lat="43.2647123" lon="12.0819105"><ele>513.0</ele><time>2026-04-12T08:45:19.642Z</time></trkpt><trkpt lat="43.2646985" lon="12.082034"><ele>513.0</ele><time>2026-04-12T08:45:25.634Z</time></trkpt><trkpt lat="43.264686" lon="12.0821556"><ele>513.0</ele><time>2026-04-12T08:45:28.631Z</time></trkpt><trkpt lat="43.2646715" lon="12.0822455"><ele>513.0</ele><time>2026-04-12T08:45:31.632Z</time></trkpt><trkpt lat="43.2646467" lon="12.0823533"><ele>513.0</ele><time>2026-04-12T08:45:34.631Z</time></trkpt><trkpt lat="43.2646408" lon="12.0824505"><ele>513.0</ele><time>2026-04-12T08:45:37.625Z</time></trkpt><trkpt lat="43.2646081" lon="12.0825443"><ele>513.0</ele><time>2026-04-12T08:45:40.624Z</time></trkpt><trkpt lat="43.2645533" lon="12.0826292"><ele>513.0</ele><time>2026-04-12T08:45:44.628Z</time></trkpt><trkpt lat="43.2644904" lon="12.082625"><ele>513.0</ele><time>2026-04-12T08:45:46.627Z</time></trkpt><trkpt lat="43.2644395" lon="12.082554"><ele>513.0</ele><time>2026-04-12T08:45:48.626Z</time></trkpt><trkpt lat="43.264394" lon="12.0824677"><ele>513.0</ele><time>2026-04-12T08:45:50.623Z</time></trkpt><trkpt lat="43.2643258" lon="12.082416"><ele>513.0</ele><time>2026-04-12T08:45:52.624Z</time></trkpt><trkpt lat="43.2642498" lon="12.082372"><ele>513.0</ele><time>2026-04-12T08:45:54.626Z</time></trkpt><trkpt lat="43.2641647" lon="12.0823346"><ele>513.0</ele><time>2026-04-12T08:45:56.626Z</time></trkpt><trkpt lat="43.2641054" lon="12.0822692"><ele>513.0</ele><time>2026-04-12T08:45:58.626Z</time></trkpt><trkpt lat="43.2640645" lon="12.0821804"><ele>513.0</ele><time>2026-04-12T08:46:00.626Z</time></trkpt><trkpt lat="43.2639996" lon="12.0820622"><ele>513.0</ele><time>2026-04-12T08:46:16.631Z</time></trkpt><trkpt lat="43.263918" lon="12.0819399"><ele>511.0</ele><time>2026-04-12T08:46:18.612Z</time></trkpt><trkpt lat="43.2638689" lon="12.0818663"><ele>509.0</ele><time>2026-04-12T08:46:19.619Z</time></trkpt><trkpt lat="43.2638209" lon="12.0818094"><ele>507.0</ele><time>2026-04-12T08:46:20.625Z</time></trkpt><trkpt lat="43.2637254" lon="12.0816786"><ele>505.0</ele><time>2026-04-12T08:46:22.624Z</time></trkpt><trkpt lat="43.2636842" lon="12.0816018"><ele>503.0</ele><time>2026-04-12T08:46:23.616Z</time></trkpt><trkpt lat="43.2636372" lon="12.0815234"><ele>501.0</ele><time>2026-04-12T08:46:24.627Z</time></trkpt><trkpt lat="43.263593" lon="12.0814534"><ele>501.0</ele><time>2026-04-12T08:46:25.626Z</time></trkpt><trkpt lat="43.2635145" lon="12.0813324"><ele>501.0</ele><time>2026-04-12T08:46:27.63Z</time></trkpt><trkpt lat="43.2634363" lon="12.0812853"><ele>501.0</ele><time>2026-04-12T08:46:29.633Z</time></trkpt><trkpt lat="43.2633485" lon="12.0813186"><ele>501.0</ele><time>2026-04-12T08:46:31.642Z</time></trkpt><trkpt lat="43.2632506" lon="12.0813866"><ele>501.0</ele><time>2026-04-12T08:46:33.63Z</time></trkpt><trkpt lat="43.263145" lon="12.0814312"><ele>502.8</ele><time>2026-04-12T08:46:35.63Z</time></trkpt><trkpt lat="43.2630342" lon="12.0814167"><ele>504.6</ele><time>2026-04-12T08:46:37.623Z</time></trkpt><trkpt lat="43.2629298" lon="12.0813193"><ele>506.4</ele><time>2026-04-12T08:46:39.631Z</time></trkpt><trkpt lat="43.2628861" lon="12.0812526"><ele>508.2</ele><time>2026-04-12T08:46:40.623Z</time></trkpt><trkpt lat="43.2628433" lon="12.0811832"><ele>510.0</ele><time>2026-04-12T08:46:41.641Z</time></trkpt><trkpt lat="43.262741" lon="12.0810877"><ele>510.0</ele><time>2026-04-12T08:46:43.624Z</time></trkpt><trkpt lat="43.2626322" lon="12.081026"><ele>510.0</ele><time>2026-04-12T08:46:45.653Z</time></trkpt><trkpt lat="43.2625684" lon="12.0809927"><ele>510.0</ele><time>2026-04-12T08:46:46.625Z</time></trkpt><trkpt lat="43.2625054" lon="12.0809629"><ele>510.0</ele><time>2026-04-12T08:46:47.624Z</time></trkpt><trkpt lat="43.2624433" lon="12.0809297"><ele>510.0</ele><time>2026-04-12T08:46:48.627Z</time></trkpt><trkpt lat="43.2623172" lon="12.0808836"><ele>509.0</ele><time>2026-04-12T08:46:50.625Z</time></trkpt><trkpt lat="43.2622441" lon="12.0808533"><ele>508.0</ele><time>2026-04-12T08:46:51.63Z</time></trkpt><trkpt lat="43.2621735" lon="12.0808187"><ele>507.0</ele><time>2026-04-12T08:46:52.628Z</time></trkpt><trkpt lat="43.2621048" lon="12.0807845"><ele>506.0</ele><time>2026-04-12T08:46:53.625Z</time></trkpt><trkpt lat="43.2619888" lon="12.0807353"><ele>505.0</ele><time>2026-04-12T08:46:55.629Z</time></trkpt><trkpt lat="43.2618752" lon="12.0806742"><ele>503.71428571428567</ele><time>2026-04-12T08:46:57.619Z</time></trkpt><trkpt lat="43.2618227" lon="12.0806159"><ele>502.4285714285714</ele><time>2026-04-12T08:46:58.622Z</time></trkpt><trkpt lat="43.2617743" lon="12.080544"><ele>501.1428571428571</ele><time>2026-04-12T08:46:59.623Z</time></trkpt><trkpt lat="43.261734" lon="12.0804615"><ele>499.8571428571429</ele><time>2026-04-12T08:47:00.628Z</time></trkpt><trkpt lat="43.2616987" lon="12.0803761"><ele>498.5714285714286</ele><time>2026-04-12T08:47:01.623Z</time></trkpt><trkpt lat="43.2616677" lon="12.0802809"><ele>497.28571428571433</ele><time>2026-04-12T08:47:02.622Z</time></trkpt><trkpt lat="43.2616391" lon="12.0801775"><ele>496.0</ele><time>2026-04-12T08:47:03.627Z</time></trkpt><trkpt lat="43.2616117" lon="12.0800721"><ele>496.00000000000006</ele><time>2026-04-12T08:47:04.627Z</time></trkpt><trkpt lat="43.2615852" lon="12.0799693"><ele>496.0</ele><time>2026-04-12T08:47:05.626Z</time></trkpt><trkpt lat="43.2615593" lon="12.0798657"><ele>496.0</ele><time>2026-04-12T08:47:06.628Z</time></trkpt><trkpt lat="43.2615262" lon="12.0797609"><ele>496.0</ele><time>2026-04-12T08:47:07.624Z</time></trkpt><trkpt lat="43.2614838" lon="12.0796549"><ele>496.00000000000006</ele><time>2026-04-12T08:47:08.625Z</time></trkpt><trkpt lat="43.2614359" lon="12.0795496"><ele>496.0</ele><time>2026-04-12T08:47:09.628Z</time></trkpt><trkpt lat="43.2613794" lon="12.0794366"><ele>493.6</ele><time>2026-04-12T08:47:10.624Z</time></trkpt><trkpt lat="43.2613236" lon="12.0793247"><ele>491.20000000000005</ele><time>2026-04-12T08:47:11.639Z</time></trkpt><trkpt lat="43.2612694" lon="12.0792142"><ele>488.79999999999995</ele><time>2026-04-12T08:47:12.627Z</time></trkpt><trkpt lat="43.2612081" lon="12.0790955"><ele>486.4</ele><time>2026-04-12T08:47:13.631Z</time></trkpt><trkpt lat="43.2611459" lon="12.0789854"><ele>484.0</ele><time>2026-04-12T08:47:14.625Z</time></trkpt><trkpt lat="43.2610942" lon="12.078876"><ele>482.50000000000006</ele><time>2026-04-12T08:47:15.638Z</time></trkpt><trkpt lat="43.2610442" lon="12.0787777"><ele>481.0</ele><time>2026-04-12T08:47:16.62Z</time></trkpt><trkpt lat="43.2609832" lon="12.0786912"><ele>479.5</ele><time>2026-04-12T08:47:17.626Z</time></trkpt><trkpt lat="43.2609201" lon="12.0786033"><ele>478.0</ele><time>2026-04-12T08:47:18.628Z</time></trkpt><trkpt lat="43.2608506" lon="12.0785113"><ele>476.50000000000006</ele><time>2026-04-12T08:47:19.627Z</time></trkpt><trkpt lat="43.2607927" lon="12.0784255"><ele>475.0</ele><time>2026-04-12T08:47:20.627Z</time></trkpt><trkpt lat="43.2607445" lon="12.0783429"><ele>471.8</ele><time>2026-04-12T08:47:21.625Z</time></trkpt><trkpt lat="43.2607027" lon="12.0782637"><ele>468.6</ele><time>2026-04-12T08:47:22.628Z</time></trkpt><trkpt lat="43.2606547" lon="12.0781204"><ele>465.4</ele><time>2026-04-12T08:47:24.627Z</time></trkpt><trkpt lat="43.2606671" lon="12.0779437"><ele>462.2</ele><time>2026-04-12T08:47:26.623Z</time></trkpt><trkpt lat="43.2606599" lon="12.0778453"><ele>459.0</ele><time>2026-04-12T08:47:27.628Z</time></trkpt><trkpt lat="43.2606403" lon="12.0777496"><ele>456.6666666666667</ele><time>2026-04-12T08:47:28.624Z</time></trkpt><trkpt lat="43.2606142" lon="12.0776636"><ele>454.33333333333337</ele><time>2026-04-12T08:47:29.626Z</time></trkpt><trkpt lat="43.2605359" lon="12.0775458"><ele>452.0</ele><time>2026-04-12T08:47:31.627Z</time></trkpt><trkpt lat="43.260414" lon="12.0775316"><ele>449.6666666666667</ele><time>2026-04-12T08:47:33.626Z</time></trkpt><trkpt lat="43.2603479" lon="12.0775566"><ele>447.33333333333337</ele><time>2026-04-12T08:47:34.627Z</time></trkpt><trkpt lat="43.2602809" lon="12.0775909"><ele>445.0</ele><time>2026-04-12T08:47:35.628Z</time></trkpt><trkpt lat="43.2601745" lon="12.077609"><ele>445.0</ele><time>2026-04-12T08:47:37.627Z</time></trkpt><trkpt lat="43.2601607" lon="12.0774792"><ele>445.0</ele><time>2026-04-12T08:47:51.637Z</time></trkpt><trkpt lat="43.2601792" lon="12.0773793"><ele>445.0</ele><time>2026-04-12T08:47:52.638Z</time></trkpt><trkpt lat="43.2602145" lon="12.0772998"><ele>445.0</ele><time>2026-04-12T08:47:53.624Z</time></trkpt><trkpt lat="43.2602558" lon="12.0772182"><ele>445.0</ele><time>2026-04-12T08:47:54.63Z</time></trkpt><trkpt lat="43.2602962" lon="12.0771415"><ele>445.0</ele><time>2026-04-12T08:47:55.629Z</time></trkpt><trkpt lat="43.2603361" lon="12.0770672"><ele>445.0</ele><time>2026-04-12T08:47:56.624Z</time></trkpt><trkpt lat="43.2603816" lon="12.0769899"><ele>442.6666666666667</ele><time>2026-04-12T08:47:57.628Z</time></trkpt><trkpt lat="43.2604272" lon="12.0769091"><ele>440.33333333333337</ele><time>2026-04-12T08:47:58.624Z</time></trkpt><trkpt lat="43.2604711" lon="12.0768251"><ele>438.0</ele><time>2026-04-12T08:47:59.629Z</time></trkpt><trkpt lat="43.2605037" lon="12.0767378"><ele>435.66666666666663</ele><time>2026-04-12T08:48:00.626Z</time></trkpt><trkpt lat="43.2605134" lon="12.0765589"><ele>433.3333333333333</ele><time>2026-04-12T08:48:02.626Z</time></trkpt><trkpt lat="43.26049" lon="12.0764485"><ele>431.0</ele><time>2026-04-12T08:48:03.626Z</time></trkpt><trkpt lat="43.2604614" lon="12.0763432"><ele>428.6</ele><time>2026-04-12T08:48:04.624Z</time></trkpt><trkpt lat="43.2604271" lon="12.0762286"><ele>426.20000000000005</ele><time>2026-04-12T08:48:05.625Z</time></trkpt><trkpt lat="43.2603992" lon="12.0761147"><ele>423.79999999999995</ele><time>2026-04-12T08:48:06.627Z</time></trkpt><trkpt lat="43.2603808" lon="12.0760147"><ele>421.4</ele><time>2026-04-12T08:48:07.626Z</time></trkpt><trkpt lat="43.2603465" lon="12.0758705"><ele>419.0</ele><time>2026-04-12T08:48:09.622Z</time></trkpt><trkpt lat="43.26027" lon="12.0757872"><ele>416.8333333333333</ele><time>2026-04-12T08:48:11.635Z</time></trkpt><trkpt lat="43.26021" lon="12.0757235"><ele>414.66666666666663</ele><time>2026-04-12T08:48:12.626Z</time></trkpt><trkpt lat="43.2601619" lon="12.0756556"><ele>412.5</ele><time>2026-04-12T08:48:13.624Z</time></trkpt><trkpt lat="43.2601253" lon="12.0755781"><ele>410.33333333333337</ele><time>2026-04-12T08:48:14.626Z</time></trkpt><trkpt lat="43.2601106" lon="12.0754921"><ele>408.1666666666667</ele><time>2026-04-12T08:48:15.629Z</time></trkpt><trkpt lat="43.2601089" lon="12.0753797"><ele>406.0</ele><time>2026-04-12T08:48:16.621Z</time></trkpt><trkpt lat="43.2601121" lon="12.0752496"><ele>406.00000000000006</ele><time>2026-04-12T08:48:17.638Z</time></trkpt><trkpt lat="43.2601078" lon="12.0751253"><ele>406.0</ele><time>2026-04-12T08:48:18.621Z</time></trkpt><trkpt lat="43.2600909" lon="12.0750133"><ele>406.0</ele><time>2026-04-12T08:48:19.625Z</time></trkpt><trkpt lat="43.2600642" lon="12.0748972"><ele>406.0</ele><time>2026-04-12T08:48:20.626Z</time></trkpt><trkpt lat="43.2600354" lon="12.0747897"><ele>406.00000000000006</ele><time>2026-04-12T08:48:21.627Z</time></trkpt><trkpt lat="43.2600115" lon="12.0746837"><ele>406.0</ele><time>2026-04-12T08:48:22.623Z</time></trkpt><trkpt lat="43.2599972" lon="12.074572"><ele>404.50000000000006</ele><time>2026-04-12T08:48:23.627Z</time></trkpt><trkpt lat="43.2599883" lon="12.0744617"><ele>403.0</ele><time>2026-04-12T08:48:24.624Z</time></trkpt><trkpt lat="43.259979" lon="12.0743708"><ele>401.5</ele><time>2026-04-12T08:48:25.623Z</time></trkpt><trkpt lat="43.2599544" lon="12.0742898"><ele>400.0</ele><time>2026-04-12T08:48:26.621Z</time></trkpt><trkpt lat="43.2599113" lon="12.0741978"><ele>398.50000000000006</ele><time>2026-04-12T08:48:27.626Z</time></trkpt><trkpt lat="43.25985" lon="12.0740831"><ele>397.0</ele><time>2026-04-12T08:48:28.624Z</time></trkpt><trkpt lat="43.2597921" lon="12.0739671"><ele>393.6666666666667</ele><time>2026-04-12T08:48:29.628Z</time></trkpt><trkpt lat="43.2597445" lon="12.073867"><ele>390.33333333333337</ele><time>2026-04-12T08:48:30.627Z</time></trkpt><trkpt lat="43.2597137" lon="12.0737674"><ele>387.0</ele><time>2026-04-12T08:48:31.626Z</time></trkpt><trkpt lat="43.2597066" lon="12.0736815"><ele>383.6666666666667</ele><time>2026-04-12T08:48:32.628Z</time></trkpt><trkpt lat="43.2597199" lon="12.0735249"><ele>380.33333333333337</ele><time>2026-04-12T08:48:34.623Z</time></trkpt><trkpt lat="43.2597111" lon="12.0734301"><ele>377.0</ele><time>2026-04-12T08:48:35.622Z</time></trkpt><trkpt lat="43.259692" lon="12.0733267"><ele>377.5</ele><time>2026-04-12T08:48:36.625Z</time></trkpt><trkpt lat="43.2596687" lon="12.0732216"><ele>378.0</ele><time>2026-04-12T08:48:37.619Z</time></trkpt><trkpt lat="43.2596446" lon="12.0731216"><ele>378.5</ele><time>2026-04-12T08:48:38.62Z</time></trkpt><trkpt lat="43.2596194" lon="12.0730306"><ele>379.0</ele><time>2026-04-12T08:48:39.621Z</time></trkpt><trkpt lat="43.2596045" lon="12.0728738"><ele>379.5</ele><time>2026-04-12T08:48:41.639Z</time></trkpt><trkpt lat="43.2596633" lon="12.0727581"><ele>380.0</ele><time>2026-04-12T08:48:43.628Z</time></trkpt><trkpt lat="43.2596876" lon="12.0726187"><ele>380.0</ele><time>2026-04-12T08:48:45.626Z</time></trkpt><trkpt lat="43.2596878" lon="12.07253"><ele>380.0</ele><time>2026-04-12T08:48:46.623Z</time></trkpt><trkpt lat="43.2596797" lon="12.0724395"><ele>380.0</ele><time>2026-04-12T08:48:47.627Z</time></trkpt><trkpt lat="43.2596653" lon="12.0723418"><ele>380.0</ele><time>2026-04-12T08:48:48.636Z</time></trkpt><trkpt lat="43.2596385" lon="12.0722414"><ele>380.0</ele><time>2026-04-12T08:48:49.625Z</time></trkpt><trkpt lat="43.2596068" lon="12.0721497"><ele>380.0</ele><time>2026-04-12T08:48:50.624Z</time></trkpt><trkpt lat="43.2595585" lon="12.0720768"><ele>380.0</ele><time>2026-04-12T08:48:51.626Z</time></trkpt><trkpt lat="43.2594963" lon="12.0720133"><ele>379.33333333333337</ele><time>2026-04-12T08:48:52.627Z</time></trkpt><trkpt lat="43.2594334" lon="12.071985"><ele>378.6666666666667</ele><time>2026-04-12T08:48:53.622Z</time></trkpt><trkpt lat="43.2593583" lon="12.071928"><ele>378.0</ele><time>2026-04-12T08:48:55.624Z</time></trkpt><trkpt lat="43.2593919" lon="12.0718538"><ele>377.3333333333333</ele><time>2026-04-12T08:48:57.633Z</time></trkpt><trkpt lat="43.2594997" lon="12.071848"><ele>376.66666666666663</ele><time>2026-04-12T08:48:59.632Z</time></trkpt><trkpt lat="43.2595777" lon="12.0718425"><ele>376.0</ele><time>2026-04-12T08:49:00.623Z</time></trkpt><trkpt lat="43.2596752" lon="12.0718216"><ele>376.0</ele><time>2026-04-12T08:49:01.626Z</time></trkpt><trkpt lat="43.2597686" lon="12.0717999"><ele>376.0</ele><time>2026-04-12T08:49:02.623Z</time></trkpt><trkpt lat="43.2598509" lon="12.0717692"><ele>376.0</ele><time>2026-04-12T08:49:03.628Z</time></trkpt><trkpt lat="43.2599204" lon="12.0717325"><ele>376.0</ele><time>2026-04-12T08:49:04.622Z</time></trkpt><trkpt lat="43.2600176" lon="12.0716447"><ele>376.0</ele><time>2026-04-12T08:49:06.626Z</time></trkpt><trkpt lat="43.2600693" lon="12.0715065"><ele>375.0</ele><time>2026-04-12T08:49:08.626Z</time></trkpt><trkpt lat="43.2600627" lon="12.0713432"><ele>374.0</ele><time>2026-04-12T08:49:10.627Z</time></trkpt><trkpt lat="43.2600237" lon="12.0712603"><ele>373.0</ele><time>2026-04-12T08:49:11.64Z</time></trkpt><trkpt lat="43.2599723" lon="12.0711672"><ele>372.0</ele><time>2026-04-12T08:49:12.625Z</time></trkpt><trkpt lat="43.2599146" lon="12.0710797"><ele>371.0</ele><time>2026-04-12T08:49:13.622Z</time></trkpt><trkpt lat="43.2598483" lon="12.0709959"><ele>370.6</ele><time>2026-04-12T08:49:14.623Z</time></trkpt><trkpt lat="43.2597744" lon="12.0709182"><ele>370.20000000000005</ele><time>2026-04-12T08:49:15.622Z</time></trkpt><trkpt lat="43.2596834" lon="12.0708509"><ele>369.79999999999995</ele><time>2026-04-12T08:49:16.619Z</time></trkpt><trkpt lat="43.2595866" lon="12.070786"><ele>369.4</ele><time>2026-04-12T08:49:17.618Z</time></trkpt><trkpt lat="43.2595026" lon="12.0707315"><ele>369.0</ele><time>2026-04-12T08:49:18.622Z</time></trkpt><trkpt lat="43.259423" lon="12.070674"><ele>367.5</ele><time>2026-04-12T08:49:19.638Z</time></trkpt><trkpt lat="43.2593547" lon="12.07061"><ele>366.0</ele><time>2026-04-12T08:49:20.621Z</time></trkpt><trkpt lat="43.2593015" lon="12.070542"><ele>364.5</ele><time>2026-04-12T08:49:21.624Z</time></trkpt><trkpt lat="43.2592665" lon="12.0704599"><ele>363.0</ele><time>2026-04-12T08:49:22.622Z</time></trkpt><trkpt lat="43.2592486" lon="12.0703635"><ele>361.5</ele><time>2026-04-12T08:49:23.626Z</time></trkpt><trkpt lat="43.2592301" lon="12.0702787"><ele>360.0</ele><time>2026-04-12T08:49:24.623Z</time></trkpt><trkpt lat="43.2591493" lon="12.0701471"><ele>360.0</ele><time>2026-04-12T08:49:26.622Z</time></trkpt><trkpt lat="43.2591016" lon="12.0700872"><ele>360.0</ele><time>2026-04-12T08:49:27.625Z</time></trkpt><trkpt lat="43.2590454" lon="12.0700224"><ele>360.0</ele><time>2026-04-12T08:49:28.624Z</time></trkpt><trkpt lat="43.2589951" lon="12.0699461"><ele>360.0</ele><time>2026-04-12T08:49:29.625Z</time></trkpt><trkpt lat="43.2589526" lon="12.0698643"><ele>360.0</ele><time>2026-04-12T08:49:30.624Z</time></trkpt><trkpt lat="43.258918" lon="12.0697817"><ele>360.0</ele><time>2026-04-12T08:49:31.622Z</time></trkpt><trkpt lat="43.25884" lon="12.069677"><ele>358.7142857142857</ele><time>2026-04-12T08:49:33.626Z</time></trkpt><trkpt lat="43.258777" lon="12.0696571"><ele>357.42857142857144</ele><time>2026-04-12T08:49:34.626Z</time></trkpt><trkpt lat="43.2586954" lon="12.0696552"><ele>356.14285714285717</ele><time>2026-04-12T08:49:35.623Z</time></trkpt><trkpt lat="43.2586142" lon="12.0696588"><ele>354.8571428571429</ele><time>2026-04-12T08:49:36.624Z</time></trkpt><trkpt lat="43.2585422" lon="12.0696565"><ele>353.57142857142856</ele><time>2026-04-12T08:49:37.629Z</time></trkpt><trkpt lat="43.2584711" lon="12.0696507"><ele>352.28571428571433</ele><time>2026-04-12T08:49:38.626Z</time></trkpt><trkpt lat="43.258411" lon="12.0696203"><ele>351.0</ele><time>2026-04-12T08:49:39.625Z</time></trkpt><trkpt lat="43.2583626" lon="12.0695595"><ele>351.0</ele><time>2026-04-12T08:49:40.626Z</time></trkpt><trkpt lat="43.2583249" lon="12.0694725"><ele>351.0</ele><time>2026-04-12T08:49:41.641Z</time></trkpt><trkpt lat="43.2582869" lon="12.0693736"><ele>351.0</ele><time>2026-04-12T08:49:42.629Z</time></trkpt><trkpt lat="43.258245" lon="12.069269"><ele>351.0</ele><time>2026-04-12T08:49:43.628Z</time></trkpt><trkpt lat="43.2581971" lon="12.0691573"><ele>351.0</ele><time>2026-04-12T08:49:44.626Z</time></trkpt><trkpt lat="43.2581541" lon="12.0690523"><ele>351.0</ele><time>2026-04-12T08:49:45.629Z</time></trkpt><trkpt lat="43.2581236" lon="12.0689629"><ele>350.0</ele><time>2026-04-12T08:49:46.625Z</time></trkpt><trkpt lat="43.2580753" lon="12.0688392"><ele>349.0</ele><time>2026-04-12T08:49:48.632Z</time></trkpt><trkpt lat="43.258021" lon="12.0687384"><ele>348.0</ele><time>2026-04-12T08:49:50.646Z</time></trkpt><trkpt lat="43.2579537" lon="12.0686309"><ele>347.0</ele><time>2026-04-12T08:49:52.627Z</time></trkpt><trkpt lat="43.2579136" lon="12.0685628"><ele>346.0</ele><time>2026-04-12T08:49:53.632Z</time></trkpt><trkpt lat="43.2578741" lon="12.068494"><ele>345.0</ele><time>2026-04-12T08:49:54.628Z</time></trkpt><trkpt lat="43.2578016" lon="12.0683609"><ele>345.0</ele><time>2026-04-12T08:49:56.625Z</time></trkpt><trkpt lat="43.2577029" lon="12.0682979"><ele>345.0</ele><time>2026-04-12T08:49:58.631Z</time></trkpt><trkpt lat="43.2575809" lon="12.0683029"><ele>345.0</ele><time>2026-04-12T08:50:00.624Z</time></trkpt><trkpt lat="43.2574666" lon="12.0683096"><ele>345.0</ele><time>2026-04-12T08:50:02.629Z</time></trkpt><trkpt lat="43.257346" lon="12.0683106"><ele>343.2857142857143</ele><time>2026-04-12T08:50:04.626Z</time></trkpt><trkpt lat="43.2572775" lon="12.0683029"><ele>341.57142857142856</ele><time>2026-04-12T08:50:05.62Z</time></trkpt><trkpt lat="43.2572124" lon="12.0682746"><ele>339.8571428571429</ele><time>2026-04-12T08:50:06.621Z</time></trkpt><trkpt lat="43.2571479" lon="12.0682393"><ele>338.1428571428571</ele><time>2026-04-12T08:50:07.622Z</time></trkpt><trkpt lat="43.2570767" lon="12.0681943"><ele>336.4285714285714</ele><time>2026-04-12T08:50:08.622Z</time></trkpt><trkpt lat="43.2570085" lon="12.0681519"><ele>334.7142857142857</ele><time>2026-04-12T08:50:09.626Z</time></trkpt><trkpt lat="43.2569511" lon="12.0681072"><ele>333.0</ele><time>2026-04-12T08:50:10.627Z</time></trkpt><trkpt lat="43.2568986" lon="12.0680413"><ele>332.6666666666667</ele><time>2026-04-12T08:50:12.626Z</time></trkpt><trkpt lat="43.2568696" lon="12.0679467"><ele>332.3333333333333</ele><time>2026-04-12T08:50:19.639Z</time></trkpt><trkpt lat="43.2568261" lon="12.0678155"><ele>332.0</ele><time>2026-04-12T08:50:21.652Z</time></trkpt><trkpt lat="43.2568059" lon="12.0677298"><ele>331.66666666666663</ele><time>2026-04-12T08:50:22.629Z</time></trkpt><trkpt lat="43.2567863" lon="12.0676319"><ele>331.3333333333333</ele><time>2026-04-12T08:50:23.634Z</time></trkpt><trkpt lat="43.2567608" lon="12.0675277"><ele>331.0</ele><time>2026-04-12T08:50:24.635Z</time></trkpt><trkpt lat="43.2567304" lon="12.0674152"><ele>331.0</ele><time>2026-04-12T08:50:25.632Z</time></trkpt><trkpt lat="43.2566909" lon="12.0672932"><ele>331.0</ele><time>2026-04-12T08:50:26.633Z</time></trkpt><trkpt lat="43.2566582" lon="12.0671688"><ele>331.0</ele><time>2026-04-12T08:50:27.625Z</time></trkpt><trkpt lat="43.2566264" lon="12.0670301"><ele>331.0</ele><time>2026-04-12T08:50:28.634Z</time></trkpt><trkpt lat="43.2566042" lon="12.0668673"><ele>331.0</ele><time>2026-04-12T08:50:29.628Z</time></trkpt><trkpt lat="43.256592" lon="12.0667105"><ele>330.8</ele><time>2026-04-12T08:50:30.627Z</time></trkpt><trkpt lat="43.2565907" lon="12.066569"><ele>330.6</ele><time>2026-04-12T08:50:31.628Z</time></trkpt><trkpt lat="43.2565782" lon="12.06643"><ele>330.4</ele><time>2026-04-12T08:50:32.626Z</time></trkpt><trkpt lat="43.2565439" lon="12.0662895"><ele>330.2</ele><time>2026-04-12T08:50:33.628Z</time></trkpt><trkpt lat="43.2564844" lon="12.0661502"><ele>330.0</ele><time>2026-04-12T08:50:34.624Z</time></trkpt><trkpt lat="43.256415" lon="12.0660126"><ele>328.4</ele><time>2026-04-12T08:50:35.627Z</time></trkpt><trkpt lat="43.2563373" lon="12.065884"><ele>326.8</ele><time>2026-04-12T08:50:36.625Z</time></trkpt><trkpt lat="43.2562549" lon="12.0657729"><ele>325.20000000000005</ele><time>2026-04-12T08:50:37.627Z</time></trkpt><trkpt lat="43.2561705" lon="12.0656854"><ele>323.6</ele><time>2026-04-12T08:50:38.626Z</time></trkpt><trkpt lat="43.2560925" lon="12.0656111"><ele>322.0</ele><time>2026-04-12T08:50:39.627Z</time></trkpt><trkpt lat="43.2560235" lon="12.0655463"><ele>321.8</ele><time>2026-04-12T08:50:40.62Z</time></trkpt><trkpt lat="43.2559622" lon="12.0654945"><ele>321.6</ele><time>2026-04-12T08:50:41.633Z</time></trkpt><trkpt lat="43.2558604" lon="12.0654179"><ele>321.40000000000003</ele><time>2026-04-12T08:50:43.624Z</time></trkpt><trkpt lat="43.2557622" lon="12.0653217"><ele>321.20000000000005</ele><time>2026-04-12T08:50:45.627Z</time></trkpt><trkpt lat="43.2556698" lon="12.0652469"><ele>321.0</ele><time>2026-04-12T08:50:47.63Z</time></trkpt><trkpt lat="43.2555595" lon="12.0651745"><ele>320.1666666666667</ele><time>2026-04-12T08:50:49.628Z</time></trkpt><trkpt lat="43.2554403" lon="12.06512"><ele>319.3333333333333</ele><time>2026-04-12T08:50:51.631Z</time></trkpt><trkpt lat="43.2553787" lon="12.0650907"><ele>318.5</ele><time>2026-04-12T08:50:52.641Z</time></trkpt><trkpt lat="43.2553091" lon="12.0650567"><ele>317.66666666666663</ele><time>2026-04-12T08:50:53.625Z</time></trkpt><trkpt lat="43.2552416" lon="12.0650178"><ele>316.8333333333333</ele><time>2026-04-12T08:50:54.628Z</time></trkpt><trkpt lat="43.255178" lon="12.0649758"><ele>316.0</ele><time>2026-04-12T08:50:55.612Z</time></trkpt><trkpt lat="43.2551156" lon="12.0649318"><ele>315.8333333333333</ele><time>2026-04-12T08:50:56.627Z</time></trkpt><trkpt lat="43.2550507" lon="12.0648918"><ele>315.66666666666663</ele><time>2026-04-12T08:50:57.621Z</time></trkpt><trkpt lat="43.2549702" lon="12.0648473"><ele>315.5</ele><time>2026-04-12T08:50:58.623Z</time></trkpt><trkpt lat="43.2548904" lon="12.0647885"><ele>315.3333333333333</ele><time>2026-04-12T08:50:59.621Z</time></trkpt><trkpt lat="43.2548107" lon="12.0647183"><ele>315.1666666666667</ele><time>2026-04-12T08:51:00.619Z</time></trkpt><trkpt lat="43.2547329" lon="12.0646497"><ele>315.0</ele><time>2026-04-12T08:51:01.616Z</time></trkpt><trkpt lat="43.2546575" lon="12.0645848"><ele>313.3333333333333</ele><time>2026-04-12T08:51:02.618Z</time></trkpt><trkpt lat="43.2545845" lon="12.0645242"><ele>311.6666666666667</ele><time>2026-04-12T08:51:03.618Z</time></trkpt><trkpt lat="43.254521" lon="12.0644709"><ele>310.0</ele><time>2026-04-12T08:51:04.616Z</time></trkpt><trkpt lat="43.254464" lon="12.0644187"><ele>308.33333333333337</ele><time>2026-04-12T08:51:05.616Z</time></trkpt><trkpt lat="43.2543719" lon="12.0643393"><ele>306.6666666666667</ele><time>2026-04-12T08:51:07.617Z</time></trkpt><trkpt lat="43.2542954" lon="12.064281"><ele>305.0</ele><time>2026-04-12T08:51:14.636Z</time></trkpt><trkpt lat="43.2542826" lon="12.0641264"><ele>304.8</ele><time>2026-04-12T08:51:16.629Z</time></trkpt><trkpt lat="43.2542779" lon="12.0640129"><ele>304.6</ele><time>2026-04-12T08:51:17.617Z</time></trkpt><trkpt lat="43.2542745" lon="12.0638816"><ele>304.4</ele><time>2026-04-12T08:51:18.626Z</time></trkpt><trkpt lat="43.2542779" lon="12.0637365"><ele>304.2</ele><time>2026-04-12T08:51:19.618Z</time></trkpt><trkpt lat="43.2542793" lon="12.0635749"><ele>304.0</ele><time>2026-04-12T08:51:20.622Z</time></trkpt><trkpt lat="43.254279" lon="12.0634083"><ele>303.75</ele><time>2026-04-12T08:51:21.62Z</time></trkpt><trkpt lat="43.2542759" lon="12.0632242"><ele>303.5</ele><time>2026-04-12T08:51:22.62Z</time></trkpt><trkpt lat="43.2542742" lon="12.0630442"><ele>303.25</ele><time>2026-04-12T08:51:23.652Z</time></trkpt><trkpt lat="43.2542764" lon="12.0628757"><ele>303.0</ele><time>2026-04-12T08:51:24.626Z</time></trkpt><trkpt lat="43.2542801" lon="12.0627194"><ele>303.0</ele><time>2026-04-12T08:51:25.623Z</time></trkpt><trkpt lat="43.2542829" lon="12.0625622"><ele>303.0</ele><time>2026-04-12T08:51:26.624Z</time></trkpt><trkpt lat="43.2542874" lon="12.062401"><ele>303.0</ele><time>2026-04-12T08:51:27.623Z</time></trkpt><trkpt lat="43.2542914" lon="12.0622402"><ele>303.0</ele><time>2026-04-12T08:51:28.626Z</time></trkpt><trkpt lat="43.2542951" lon="12.0620896"><ele>302.8</ele><time>2026-04-12T08:51:29.623Z</time></trkpt><trkpt lat="43.2542998" lon="12.0619494"><ele>302.6</ele><time>2026-04-12T08:51:30.625Z</time></trkpt><trkpt lat="43.2543047" lon="12.0618049"><ele>302.4</ele><time>2026-04-12T08:51:31.625Z</time></trkpt><trkpt lat="43.2543095" lon="12.0616564"><ele>302.2</ele><time>2026-04-12T08:51:32.619Z</time></trkpt><trkpt lat="43.2543159" lon="12.0615069"><ele>302.0</ele><time>2026-04-12T08:51:33.618Z</time></trkpt><trkpt lat="43.2543192" lon="12.0613516"><ele>301.75</ele><time>2026-04-12T08:51:34.616Z</time></trkpt><trkpt lat="43.2543263" lon="12.061192"><ele>301.5</ele><time>2026-04-12T08:51:35.621Z</time></trkpt><trkpt lat="43.2543317" lon="12.0610231"><ele>301.25</ele><time>2026-04-12T08:51:36.623Z</time></trkpt><trkpt lat="43.2543428" lon="12.0608469"><ele>301.0</ele><time>2026-04-12T08:51:37.619Z</time></trkpt><trkpt lat="43.2543596" lon="12.0606609"><ele>300.0</ele><time>2026-04-12T08:51:38.624Z</time></trkpt><trkpt lat="43.2543745" lon="12.060473"><ele>299.0</ele><time>2026-04-12T08:51:39.624Z</time></trkpt><trkpt lat="43.2543888" lon="12.0603031"><ele>298.0</ele><time>2026-04-12T08:51:40.624Z</time></trkpt><trkpt lat="43.2543972" lon="12.0601356"><ele>297.0</ele><time>2026-04-12T08:51:41.629Z</time></trkpt><trkpt lat="43.2544098" lon="12.059976"><ele>296.5</ele><time>2026-04-12T08:51:42.618Z</time></trkpt><trkpt lat="43.254423" lon="12.05982"><ele>296.0</ele><time>2026-04-12T08:51:43.622Z</time></trkpt><trkpt lat="43.2544319" lon="12.0596648"><ele>295.5</ele><time>2026-04-12T08:51:44.622Z</time></trkpt><trkpt lat="43.254438" lon="12.059505"><ele>295.0</ele><time>2026-04-12T08:51:45.62Z</time></trkpt><trkpt lat="43.2544494" lon="12.0593365"><ele>295.0</ele><time>2026-04-12T08:51:46.615Z</time></trkpt><trkpt lat="43.2544572" lon="12.0591633"><ele>295.0</ele><time>2026-04-12T08:51:47.622Z</time></trkpt><trkpt lat="43.254471" lon="12.0589814"><ele>295.0</ele><time>2026-04-12T08:51:48.623Z</time></trkpt><trkpt lat="43.2544846" lon="12.0587929"><ele>295.0</ele><time>2026-04-12T08:51:49.622Z</time></trkpt><trkpt lat="43.254499" lon="12.0586006"><ele>294.0</ele><time>2026-04-12T08:51:50.623Z</time></trkpt><trkpt lat="43.254507" lon="12.0584117"><ele>293.0</ele><time>2026-04-12T08:51:51.624Z</time></trkpt><trkpt lat="43.2545127" lon="12.0582393"><ele>292.0</ele><time>2026-04-12T08:51:52.625Z</time></trkpt><trkpt lat="43.2545229" lon="12.058062"><ele>291.0</ele><time>2026-04-12T08:51:53.635Z</time></trkpt><trkpt lat="43.2545349" lon="12.05788"><ele>290.5</ele><time>2026-04-12T08:51:54.624Z</time></trkpt><trkpt lat="43.2545436" lon="12.0576933"><ele>290.0</ele><time>2026-04-12T08:51:55.622Z</time></trkpt><trkpt lat="43.2545558" lon="12.0574976"><ele>289.5</ele><time>2026-04-12T08:51:56.623Z</time></trkpt><trkpt lat="43.2545535" lon="12.0572993"><ele>289.0</ele><time>2026-04-12T08:51:57.624Z</time></trkpt><trkpt lat="43.2545429" lon="12.0571057"><ele>289.0</ele><time>2026-04-12T08:51:58.624Z</time></trkpt><trkpt lat="43.2545315" lon="12.0569141"><ele>289.0</ele><time>2026-04-12T08:51:59.624Z</time></trkpt><trkpt lat="43.2545175" lon="12.0567214"><ele>289.0</ele><time>2026-04-12T08:52:00.623Z</time></trkpt><trkpt lat="43.2544987" lon="12.0565251"><ele>289.0</ele><time>2026-04-12T08:52:01.624Z</time></trkpt><trkpt lat="43.2544812" lon="12.0563177"><ele>289.0</ele><time>2026-04-12T08:52:02.623Z</time></trkpt><trkpt lat="43.2544553" lon="12.0560982"><ele>289.0</ele><time>2026-04-12T08:52:03.624Z</time></trkpt><trkpt lat="43.2544381" lon="12.0558837"><ele>289.0</ele><time>2026-04-12T08:52:04.622Z</time></trkpt><trkpt lat="43.2544262" lon="12.0556877"><ele>289.3333333333333</ele><time>2026-04-12T08:52:05.623Z</time></trkpt><trkpt lat="43.2544147" lon="12.0554855"><ele>289.6666666666667</ele><time>2026-04-12T08:52:06.625Z</time></trkpt><trkpt lat="43.2544061" lon="12.055277"><ele>290.0</ele><time>2026-04-12T08:52:07.626Z</time></trkpt><trkpt lat="43.2543866" lon="12.0550665"><ele>289.75</ele><time>2026-04-12T08:52:08.625Z</time></trkpt><trkpt lat="43.2543703" lon="12.0548671"><ele>289.5</ele><time>2026-04-12T08:52:09.63Z</time></trkpt><trkpt lat="43.2543567" lon="12.0546643"><ele>289.25</ele><time>2026-04-12T08:52:10.627Z</time></trkpt><trkpt lat="43.2543471" lon="12.0544581"><ele>289.0</ele><time>2026-04-12T08:52:11.64Z</time></trkpt><trkpt lat="43.2543364" lon="12.054251"><ele>289.0</ele><time>2026-04-12T08:52:12.627Z</time></trkpt><trkpt lat="43.2543234" lon="12.0540347"><ele>289.0</ele><time>2026-04-12T08:52:13.626Z</time></trkpt><trkpt lat="43.2543009" lon="12.0538208"><ele>289.0</ele><time>2026-04-12T08:52:14.624Z</time></trkpt><trkpt lat="43.2542816" lon="12.0536105"><ele>289.0</ele><time>2026-04-12T08:52:15.625Z</time></trkpt><trkpt lat="43.25427" lon="12.0534259"><ele>289.0</ele><time>2026-04-12T08:52:16.627Z</time></trkpt><trkpt lat="43.2542505" lon="12.0532418"><ele>289.0</ele><time>2026-04-12T08:52:17.625Z</time></trkpt><trkpt lat="43.2542365" lon="12.0530465"><ele>289.0</ele><time>2026-04-12T08:52:18.631Z</time></trkpt><trkpt lat="43.2542159" lon="12.0528423"><ele>288.66666666666663</ele><time>2026-04-12T08:52:19.63Z</time></trkpt><trkpt lat="43.2541951" lon="12.0526346"><ele>288.3333333333333</ele><time>2026-04-12T08:52:20.627Z</time></trkpt><trkpt lat="43.254174" lon="12.0524271"><ele>288.0</ele><time>2026-04-12T08:52:21.628Z</time></trkpt><trkpt lat="43.254146" lon="12.0522217"><ele>288.0</ele><time>2026-04-12T08:52:22.629Z</time></trkpt><trkpt lat="43.2541213" lon="12.0520082"><ele>288.0</ele><time>2026-04-12T08:52:23.623Z</time></trkpt><trkpt lat="43.2540942" lon="12.0517718"><ele>288.0</ele><time>2026-04-12T08:52:24.635Z</time></trkpt><trkpt lat="43.2540664" lon="12.0515165"><ele>286.6666666666667</ele><time>2026-04-12T08:52:25.621Z</time></trkpt><trkpt lat="43.2540329" lon="12.0512656"><ele>285.33333333333337</ele><time>2026-04-12T08:52:26.62Z</time></trkpt><trkpt lat="43.2540037" lon="12.0510472"><ele>284.0</ele><time>2026-04-12T08:52:27.62Z</time></trkpt><trkpt lat="43.2539861" lon="12.0508397"><ele>285.0</ele><time>2026-04-12T08:52:28.623Z</time></trkpt><trkpt lat="43.2538893" lon="12.0499806"><ele>285.5</ele><time>2026-04-12T08:52:32.757Z</time></trkpt><trkpt lat="43.2538544" lon="12.0495763"><ele>286.0</ele><time>2026-04-12T08:52:34.555Z</time></trkpt><trkpt lat="43.2538103" lon="12.049332"><ele>285.3333333333333</ele><time>2026-04-12T08:52:35.57Z</time></trkpt><trkpt lat="43.2537784" lon="12.0491172"><ele>284.6666666666667</ele><time>2026-04-12T08:52:36.565Z</time></trkpt><trkpt lat="43.2537484" lon="12.048898"><ele>284.0</ele><time>2026-04-12T08:52:37.568Z</time></trkpt><trkpt lat="43.2537166" lon="12.0486616"><ele>284.0</ele><time>2026-04-12T08:52:38.578Z</time></trkpt><trkpt lat="43.2536892" lon="12.0484109"><ele>284.0</ele><time>2026-04-12T08:52:39.563Z</time></trkpt><trkpt lat="43.2536669" lon="12.048172"><ele>284.0</ele><time>2026-04-12T08:52:40.575Z</time></trkpt><trkpt lat="43.2536355" lon="12.0479303"><ele>284.0</ele><time>2026-04-12T08:52:41.58Z</time></trkpt><trkpt lat="43.2536094" lon="12.0477074"><ele>284.0</ele><time>2026-04-12T08:52:42.577Z</time></trkpt><trkpt lat="43.2535882" lon="12.0475108"><ele>284.0</ele><time>2026-04-12T08:52:43.567Z</time></trkpt><trkpt lat="43.2535627" lon="12.0473066"><ele>284.0</ele><time>2026-04-12T08:52:44.566Z</time></trkpt><trkpt lat="43.253537" lon="12.047118"><ele>284.0</ele><time>2026-04-12T08:52:45.578Z</time></trkpt><trkpt lat="43.2535095" lon="12.0469403"><ele>284.0</ele><time>2026-04-12T08:52:46.566Z</time></trkpt><trkpt lat="43.2534792" lon="12.0467629"><ele>284.0</ele><time>2026-04-12T08:52:47.568Z</time></trkpt><trkpt lat="43.2534566" lon="12.0465945"><ele>283.8</ele><time>2026-04-12T08:52:48.565Z</time></trkpt><trkpt lat="43.2534398" lon="12.0464281"><ele>283.59999999999997</ele><time>2026-04-12T08:52:49.566Z</time></trkpt><trkpt lat="43.2534182" lon="12.0462698"><ele>283.4</ele><time>2026-04-12T08:52:50.568Z</time></trkpt><trkpt lat="43.253403" lon="12.0461342"><ele>283.2</ele><time>2026-04-12T08:52:51.575Z</time></trkpt><trkpt lat="43.2533881" lon="12.0460111"><ele>283.0</ele><time>2026-04-12T08:52:52.571Z</time></trkpt><trkpt lat="43.2533683" lon="12.0458937"><ele>282.66666666666663</ele><time>2026-04-12T08:52:53.57Z</time></trkpt><trkpt lat="43.2533494" lon="12.0457922"><ele>282.3333333333333</ele><time>2026-04-12T08:52:54.568Z</time></trkpt><trkpt lat="43.253327" lon="12.0457092"><ele>282.0</ele><time>2026-04-12T08:52:55.569Z</time></trkpt><trkpt lat="43.2532287" lon="12.0456118"><ele>281.6666666666667</ele><time>2026-04-12T08:52:57.362Z</time></trkpt><trkpt lat="43.2531543" lon="12.0455802"><ele>281.33333333333337</ele><time>2026-04-12T08:52:58.266Z</time></trkpt><trkpt lat="43.2530578" lon="12.0455524"><ele>281.0</ele><time>2026-04-12T08:52:59.166Z</time></trkpt><trkpt lat="43.2528358" lon="12.0454671"><ele>281.0</ele><time>2026-04-12T08:53:00.968Z</time></trkpt><trkpt lat="43.2527259" lon="12.0454093"><ele>281.0</ele><time>2026-04-12T08:53:01.87Z</time></trkpt><trkpt lat="43.2525419" lon="12.0452921"><ele>281.0</ele><time>2026-04-12T08:53:03.691Z</time></trkpt><trkpt lat="43.2524501" lon="12.04522"><ele>281.0</ele><time>2026-04-12T08:53:04.618Z</time></trkpt><trkpt lat="43.2523555" lon="12.0451358"><ele>281.0</ele><time>2026-04-12T08:53:05.62Z</time></trkpt><trkpt lat="43.2522627" lon="12.045043"><ele>281.0</ele><time>2026-04-12T08:53:06.616Z</time></trkpt><trkpt lat="43.2521683" lon="12.0449377"><ele>281.0</ele><time>2026-04-12T08:53:07.619Z</time></trkpt><trkpt lat="43.2520731" lon="12.0448273"><ele>281.0</ele><time>2026-04-12T08:53:08.627Z</time></trkpt><trkpt lat="43.25199" lon="12.0447195"><ele>281.0</ele><time>2026-04-12T08:53:09.622Z</time></trkpt><trkpt lat="43.251911" lon="12.0446044"><ele>281.0</ele><time>2026-04-12T08:53:10.622Z</time></trkpt><trkpt lat="43.2518243" lon="12.0444912"><ele>281.0</ele><time>2026-04-12T08:53:11.623Z</time></trkpt><trkpt lat="43.2517307" lon="12.0443799"><ele>281.0</ele><time>2026-04-12T08:53:12.621Z</time></trkpt><trkpt lat="43.2516338" lon="12.0442689"><ele>281.0</ele><time>2026-04-12T08:53:13.616Z</time></trkpt><trkpt lat="43.2515271" lon="12.0441509"><ele>281.0</ele><time>2026-04-12T08:53:14.621Z</time></trkpt><trkpt lat="43.2514205" lon="12.0440222"><ele>281.0</ele><time>2026-04-12T08:53:15.622Z</time></trkpt><trkpt lat="43.2513206" lon="12.0438914"><ele>281.0</ele><time>2026-04-12T08:53:16.62Z</time></trkpt><trkpt lat="43.2512259" lon="12.0437727"><ele>280.5</ele><time>2026-04-12T08:53:17.624Z</time></trkpt><trkpt lat="43.2511339" lon="12.0436626"><ele>280.0</ele><time>2026-04-12T08:53:18.627Z</time></trkpt><trkpt lat="43.251046" lon="12.043559"><ele>279.5</ele><time>2026-04-12T08:53:19.626Z</time></trkpt><trkpt lat="43.2509588" lon="12.0434574"><ele>279.0</ele><time>2026-04-12T08:53:20.619Z</time></trkpt><trkpt lat="43.2508788" lon="12.0433598"><ele>278.59999999999997</ele><time>2026-04-12T08:53:21.623Z</time></trkpt><trkpt lat="43.2508106" lon="12.0432584"><ele>278.2</ele><time>2026-04-12T08:53:22.619Z</time></trkpt><trkpt lat="43.2507527" lon="12.0431433"><ele>277.79999999999995</ele><time>2026-04-12T08:53:23.621Z</time></trkpt><trkpt lat="43.2506976" lon="12.0430153"><ele>277.4</ele><time>2026-04-12T08:53:24.627Z</time></trkpt><trkpt lat="43.2506467" lon="12.0428615"><ele>277.0</ele><time>2026-04-12T08:53:25.626Z</time></trkpt><trkpt lat="43.2505927" lon="12.042682"><ele>276.75</ele><time>2026-04-12T08:53:26.629Z</time></trkpt><trkpt lat="43.2505397" lon="12.0424888"><ele>276.5</ele><time>2026-04-12T08:53:27.627Z</time></trkpt><trkpt lat="43.2504821" lon="12.0422907"><ele>276.25</ele><time>2026-04-12T08:53:28.63Z</time></trkpt><trkpt lat="43.2504352" lon="12.0421049"><ele>276.0</ele><time>2026-04-12T08:53:29.63Z</time></trkpt><trkpt lat="43.2503849" lon="12.0419218"><ele>276.0</ele><time>2026-04-12T08:53:30.623Z</time></trkpt><trkpt lat="43.2503405" lon="12.0417506"><ele>276.0</ele><time>2026-04-12T08:53:31.631Z</time></trkpt><trkpt lat="43.2502934" lon="12.0415877"><ele>276.0</ele><time>2026-04-12T08:53:32.625Z</time></trkpt><trkpt lat="43.2502399" lon="12.0414196"><ele>276.0</ele><time>2026-04-12T08:53:33.629Z</time></trkpt><trkpt lat="43.2501925" lon="12.0412533"><ele>276.0</ele><time>2026-04-12T08:53:34.652Z</time></trkpt><trkpt lat="43.2501542" lon="12.0410897"><ele>276.0</ele><time>2026-04-12T08:53:35.623Z</time></trkpt><trkpt lat="43.2501182" lon="12.0409386"><ele>276.0</ele><time>2026-04-12T08:53:36.625Z</time></trkpt><trkpt lat="43.2500966" lon="12.0407957"><ele>276.0</ele><time>2026-04-12T08:53:37.624Z</time></trkpt><trkpt lat="43.2500797" lon="12.040643"><ele>275.75</ele><time>2026-04-12T08:53:38.623Z</time></trkpt><trkpt lat="43.2500753" lon="12.0404845"><ele>275.5</ele><time>2026-04-12T08:53:39.631Z</time></trkpt><trkpt lat="43.2500853" lon="12.0403188"><ele>275.25</ele><time>2026-04-12T08:53:40.63Z</time></trkpt><trkpt lat="43.2501016" lon="12.0401625"><ele>275.0</ele><time>2026-04-12T08:53:41.632Z</time></trkpt><trkpt lat="43.2501252" lon="12.0400053"><ele>275.75</ele><time>2026-04-12T08:53:42.631Z</time></trkpt><trkpt lat="43.2501488" lon="12.0398463"><ele>276.5</ele><time>2026-04-12T08:53:43.633Z</time></trkpt><trkpt lat="43.2501775" lon="12.0396962"><ele>277.25</ele><time>2026-04-12T08:53:44.635Z</time></trkpt><trkpt lat="43.2502077" lon="12.0395412"><ele>278.0</ele><time>2026-04-12T08:53:45.633Z</time></trkpt><trkpt lat="43.2502314" lon="12.0393859"><ele>278.0</ele><time>2026-04-12T08:53:46.628Z</time></trkpt><trkpt lat="43.2502523" lon="12.0392225"><ele>278.0</ele><time>2026-04-12T08:53:47.633Z</time></trkpt><trkpt lat="43.2502699" lon="12.0390554"><ele>278.0</ele><time>2026-04-12T08:53:48.631Z</time></trkpt><trkpt lat="43.2502819" lon="12.0389024"><ele>278.0</ele><time>2026-04-12T08:53:49.632Z</time></trkpt><trkpt lat="43.2502953" lon="12.0387724"><ele>277.83333333333337</ele><time>2026-04-12T08:53:50.629Z</time></trkpt><trkpt lat="43.2503092" lon="12.0386662"><ele>277.6666666666667</ele><time>2026-04-12T08:53:51.636Z</time></trkpt><trkpt lat="43.250313" lon="12.0385414"><ele>277.5</ele><time>2026-04-12T08:53:53.629Z</time></trkpt><trkpt lat="43.2502916" lon="12.0384166"><ele>277.3333333333333</ele><time>2026-04-12T08:53:55.633Z</time></trkpt><trkpt lat="43.2502688" lon="12.0383112"><ele>277.16666666666663</ele><time>2026-04-12T08:53:56.636Z</time></trkpt><trkpt lat="43.2502497" lon="12.0381779"><ele>277.0</ele><time>2026-04-12T08:53:57.636Z</time></trkpt><trkpt lat="43.2502331" lon="12.0380371"><ele>276.3333333333333</ele><time>2026-04-12T08:53:58.636Z</time></trkpt><trkpt lat="43.2502161" lon="12.0378858"><ele>275.66666666666663</ele><time>2026-04-12T08:53:59.633Z</time></trkpt><trkpt lat="43.250202" lon="12.0377537"><ele>275.0</ele><time>2026-04-12T08:54:00.633Z</time></trkpt><trkpt lat="43.2501925" lon="12.0376547"><ele>274.3333333333333</ele><time>2026-04-12T08:54:01.637Z</time></trkpt><trkpt lat="43.250184" lon="12.0375156"><ele>273.6666666666667</ele><time>2026-04-12T08:54:03.633Z</time></trkpt><trkpt lat="43.250174" lon="12.03743"><ele>273.0</ele><time>2026-04-12T08:54:04.646Z</time></trkpt><trkpt lat="43.2501601" lon="12.0373313"><ele>272.8</ele><time>2026-04-12T08:54:05.642Z</time></trkpt><trkpt lat="43.2501459" lon="12.0372246"><ele>272.6</ele><time>2026-04-12T08:54:06.633Z</time></trkpt><trkpt lat="43.2501283" lon="12.0371097"><ele>272.4</ele><time>2026-04-12T08:54:07.631Z</time></trkpt><trkpt lat="43.2501121" lon="12.0369804"><ele>272.2</ele><time>2026-04-12T08:54:08.631Z</time></trkpt><trkpt lat="43.2500981" lon="12.036832"><ele>272.0</ele><time>2026-04-12T08:54:09.632Z</time></trkpt><trkpt lat="43.2500829" lon="12.0366756"><ele>272.0</ele><time>2026-04-12T08:54:10.629Z</time></trkpt><trkpt lat="43.2500666" lon="12.0365036"><ele>272.0</ele><time>2026-04-12T08:54:11.633Z</time></trkpt><trkpt lat="43.2500466" lon="12.0363312"><ele>272.0</ele><time>2026-04-12T08:54:12.633Z</time></trkpt><trkpt lat="43.2500307" lon="12.0361616"><ele>272.0</ele><time>2026-04-12T08:54:13.634Z</time></trkpt><trkpt lat="43.2500187" lon="12.0359975"><ele>272.0</ele><time>2026-04-12T08:54:14.633Z</time></trkpt><trkpt lat="43.2500072" lon="12.0358347"><ele>272.0</ele><time>2026-04-12T08:54:15.633Z</time></trkpt><trkpt lat="43.2499964" lon="12.035676"><ele>272.0</ele><time>2026-04-12T08:54:16.633Z</time></trkpt><trkpt lat="43.2499768" lon="12.0355199"><ele>272.0</ele><time>2026-04-12T08:54:17.633Z</time></trkpt><trkpt lat="43.2499552" lon="12.0353647"><ele>272.0</ele><time>2026-04-12T08:54:18.633Z</time></trkpt><trkpt lat="43.2499359" lon="12.035209"><ele>272.0</ele><time>2026-04-12T08:54:19.629Z</time></trkpt><trkpt lat="43.2499186" lon="12.0350553"><ele>272.0</ele><time>2026-04-12T08:54:20.632Z</time></trkpt><trkpt lat="43.2498993" lon="12.0349059"><ele>272.0</ele><time>2026-04-12T08:54:21.629Z</time></trkpt><trkpt lat="43.2498823" lon="12.0347507"><ele>272.0</ele><time>2026-04-12T08:54:22.633Z</time></trkpt><trkpt lat="43.2498679" lon="12.0345883"><ele>272.0</ele><time>2026-04-12T08:54:23.634Z</time></trkpt><trkpt lat="43.2498532" lon="12.0344261"><ele>272.0</ele><time>2026-04-12T08:54:24.628Z</time></trkpt><trkpt lat="43.2498378" lon="12.0342643"><ele>272.0</ele><time>2026-04-12T08:54:25.634Z</time></trkpt><trkpt lat="43.2498258" lon="12.0341035"><ele>272.0</ele><time>2026-04-12T08:54:26.628Z</time></trkpt><trkpt lat="43.2498123" lon="12.0339458"><ele>272.0</ele><time>2026-04-12T08:54:27.633Z</time></trkpt><trkpt lat="43.2497986" lon="12.0337952"><ele>272.0</ele><time>2026-04-12T08:54:28.629Z</time></trkpt><trkpt lat="43.2497818" lon="12.0336423"><ele>272.0</ele><time>2026-04-12T08:54:29.633Z</time></trkpt><trkpt lat="43.2497634" lon="12.0334912"><ele>272.0</ele><time>2026-04-12T08:54:30.633Z</time></trkpt><trkpt lat="43.2497417" lon="12.0333366"><ele>272.0</ele><time>2026-04-12T08:54:31.632Z</time></trkpt><trkpt lat="43.2497248" lon="12.0331768"><ele>272.0</ele><time>2026-04-12T08:54:32.633Z</time></trkpt><trkpt lat="43.249709" lon="12.0330153"><ele>272.0</ele><time>2026-04-12T08:54:33.631Z</time></trkpt><trkpt lat="43.2496907" lon="12.0328471"><ele>272.0</ele><time>2026-04-12T08:54:34.646Z</time></trkpt><trkpt lat="43.2496713" lon="12.0326768"><ele>272.0</ele><time>2026-04-12T08:54:35.631Z</time></trkpt><trkpt lat="43.2496576" lon="12.0325094"><ele>272.0</ele><time>2026-04-12T08:54:36.649Z</time></trkpt><trkpt lat="43.2496416" lon="12.0323484"><ele>272.0</ele><time>2026-04-12T08:54:37.63Z</time></trkpt><trkpt lat="43.2496277" lon="12.032195"><ele>272.0</ele><time>2026-04-12T08:54:38.631Z</time></trkpt><trkpt lat="43.2496128" lon="12.0320569"><ele>272.0</ele><time>2026-04-12T08:54:39.629Z</time></trkpt><trkpt lat="43.249602" lon="12.0319319"><ele>272.0</ele><time>2026-04-12T08:54:40.629Z</time></trkpt><trkpt lat="43.2495945" lon="12.0318243"><ele>272.0</ele><time>2026-04-12T08:54:41.631Z</time></trkpt><trkpt lat="43.2495917" lon="12.0317313"><ele>272.0</ele><time>2026-04-12T08:54:42.635Z</time></trkpt><trkpt lat="43.2495802" lon="12.0316133"><ele>272.0</ele><time>2026-04-12T08:54:44.627Z</time></trkpt><trkpt lat="43.249479" lon="12.0316248"><ele>272.0</ele><time>2026-04-12T08:54:47.649Z</time></trkpt><trkpt lat="43.2494138" lon="12.0317406"><ele>272.0</ele><time>2026-04-12T08:54:49.647Z</time></trkpt><trkpt lat="43.2494023" lon="12.0318832"><ele>272.0</ele><time>2026-04-12T08:54:51.649Z</time></trkpt><trkpt lat="43.2494535" lon="12.0320297"><ele>272.0</ele><time>2026-04-12T08:54:53.648Z</time></trkpt><trkpt lat="43.2494757" lon="12.0321211"><ele>272.0</ele><time>2026-04-12T08:54:54.633Z</time></trkpt><trkpt lat="43.2494724" lon="12.0322075"><ele>272.0</ele><time>2026-04-12T08:54:55.623Z</time></trkpt><trkpt lat="43.2494464" lon="12.0322908"><ele>272.0</ele><time>2026-04-12T08:54:56.64Z</time></trkpt><trkpt lat="43.2493917" lon="12.0323672"><ele>272.0</ele><time>2026-04-12T08:54:57.635Z</time></trkpt><trkpt lat="43.2493093" lon="12.0324414"><ele>272.0</ele><time>2026-04-12T08:54:58.631Z</time></trkpt><trkpt lat="43.2492077" lon="12.0325148"><ele>272.0</ele><time>2026-04-12T08:54:59.626Z</time></trkpt><trkpt lat="43.2490987" lon="12.0325854"><ele>272.0</ele><time>2026-04-12T08:55:00.63Z</time></trkpt><trkpt lat="43.2489835" lon="12.0326547"><ele>272.0</ele><time>2026-04-12T08:55:01.628Z</time></trkpt><trkpt lat="43.2488577" lon="12.0327419"><ele>272.0</ele><time>2026-04-12T08:55:02.625Z</time></trkpt><trkpt lat="43.2487344" lon="12.0328329"><ele>272.0</ele><time>2026-04-12T08:55:03.618Z</time></trkpt><trkpt lat="43.248616" lon="12.032915"><ele>272.0</ele><time>2026-04-12T08:55:04.64Z</time></trkpt><trkpt lat="43.2485192" lon="12.0329728"><ele>272.0</ele><time>2026-04-12T08:55:05.621Z</time></trkpt><trkpt lat="43.2484384" lon="12.0330228"><ele>272.0</ele><time>2026-04-12T08:55:06.618Z</time></trkpt><trkpt lat="43.248364" lon="12.0330757"><ele>272.0</ele><time>2026-04-12T08:55:07.64Z</time></trkpt><trkpt lat="43.2482966" lon="12.0331175"><ele>272.0</ele><time>2026-04-12T08:55:08.622Z</time></trkpt><trkpt lat="43.2482371" lon="12.0331515"><ele>272.0</ele><time>2026-04-12T08:55:09.627Z</time></trkpt><trkpt lat="43.2481184" lon="12.0332416"><ele>272.2</ele><time>2026-04-12T08:55:11.62Z</time></trkpt><trkpt lat="43.2480391" lon="12.0332981"><ele>272.4</ele><time>2026-04-12T08:55:12.626Z</time></trkpt><trkpt lat="43.2479431" lon="12.0333648"><ele>272.6</ele><time>2026-04-12T08:55:13.62Z</time></trkpt><trkpt lat="43.2478462" lon="12.0334337"><ele>272.8</ele><time>2026-04-12T08:55:14.631Z</time></trkpt><trkpt lat="43.247746" lon="12.0334975"><ele>273.0</ele><time>2026-04-12T08:55:15.62Z</time></trkpt><trkpt lat="43.2476472" lon="12.0335639"><ele>273.0</ele><time>2026-04-12T08:55:16.628Z</time></trkpt><trkpt lat="43.2475473" lon="12.0336268"><ele>273.0</ele><time>2026-04-12T08:55:17.625Z</time></trkpt><trkpt lat="43.2474502" lon="12.0336856"><ele>273.0</ele><time>2026-04-12T08:55:18.635Z</time></trkpt><trkpt lat="43.2473504" lon="12.033737"><ele>273.0</ele><time>2026-04-12T08:55:19.621Z</time></trkpt><trkpt lat="43.2472565" lon="12.0337653"><ele>273.0</ele><time>2026-04-12T08:55:20.634Z</time></trkpt><trkpt lat="43.2471652" lon="12.033773"><ele>273.0</ele><time>2026-04-12T08:55:21.623Z</time></trkpt><trkpt lat="43.2470688" lon="12.0337665"><ele>273.0</ele><time>2026-04-12T08:55:22.631Z</time></trkpt><trkpt lat="43.246968" lon="12.0337581"><ele>273.0</ele><time>2026-04-12T08:55:23.626Z</time></trkpt><trkpt lat="43.2468709" lon="12.0337554"><ele>273.0</ele><time>2026-04-12T08:55:24.627Z</time></trkpt><trkpt lat="43.2467863" lon="12.0337693"><ele>273.0</ele><time>2026-04-12T08:55:25.628Z</time></trkpt><trkpt lat="43.2467038" lon="12.0337935"><ele>273.0</ele><time>2026-04-12T08:55:26.635Z</time></trkpt><trkpt lat="43.2466257" lon="12.0338214"><ele>273.0</ele><time>2026-04-12T08:55:27.631Z</time></trkpt><trkpt lat="43.2465474" lon="12.0338581"><ele>273.0</ele><time>2026-04-12T08:55:28.626Z</time></trkpt><trkpt lat="43.2464702" lon="12.0339057"><ele>273.0</ele><time>2026-04-12T08:55:29.632Z</time></trkpt><trkpt lat="43.246391" lon="12.0339627"><ele>273.0</ele><time>2026-04-12T08:55:30.633Z</time></trkpt><trkpt lat="43.2463161" lon="12.0340358"><ele>273.0</ele><time>2026-04-12T08:55:31.64Z</time></trkpt><trkpt lat="43.246244" lon="12.0341136"><ele>273.1666666666667</ele><time>2026-04-12T08:55:32.625Z</time></trkpt><trkpt lat="43.2461785" lon="12.0341765"><ele>273.3333333333333</ele><time>2026-04-12T08:55:33.627Z</time></trkpt><trkpt lat="43.2461028" lon="12.0342372"><ele>273.5</ele><time>2026-04-12T08:55:34.661Z</time></trkpt><trkpt lat="43.2460296" lon="12.034294"><ele>273.66666666666663</ele><time>2026-04-12T08:55:35.632Z</time></trkpt><trkpt lat="43.2459611" lon="12.0343498"><ele>273.8333333333333</ele><time>2026-04-12T08:55:36.631Z</time></trkpt><trkpt lat="43.2458875" lon="12.0344103"><ele>274.0</ele><time>2026-04-12T08:55:37.627Z</time></trkpt><trkpt lat="43.2458103" lon="12.0344718"><ele>274.0</ele><time>2026-04-12T08:55:38.647Z</time></trkpt><trkpt lat="43.245729" lon="12.0345302"><ele>274.0</ele><time>2026-04-12T08:55:39.632Z</time></trkpt><trkpt lat="43.2456464" lon="12.0345864"><ele>274.0</ele><time>2026-04-12T08:55:40.63Z</time></trkpt><trkpt lat="43.245563" lon="12.0346403"><ele>274.0</ele><time>2026-04-12T08:55:41.634Z</time></trkpt><trkpt lat="43.2454759" lon="12.0346973"><ele>274.0</ele><time>2026-04-12T08:55:42.626Z</time></trkpt><trkpt lat="43.2453841" lon="12.0347586"><ele>274.2</ele><time>2026-04-12T08:55:43.633Z</time></trkpt><trkpt lat="43.2452978" lon="12.0348189"><ele>274.4</ele><time>2026-04-12T08:55:44.63Z</time></trkpt><trkpt lat="43.2452093" lon="12.0348747"><ele>274.6</ele><time>2026-04-12T08:55:45.631Z</time></trkpt><trkpt lat="43.2451228" lon="12.0349291"><ele>274.8</ele><time>2026-04-12T08:55:46.628Z</time></trkpt><trkpt lat="43.2450349" lon="12.0349737"><ele>275.0</ele><time>2026-04-12T08:55:47.635Z</time></trkpt><trkpt lat="43.2449462" lon="12.0350153"><ele>275.0</ele><time>2026-04-12T08:55:48.635Z</time></trkpt><trkpt lat="43.2448545" lon="12.0350515"><ele>275.0</ele><time>2026-04-12T08:55:49.626Z</time></trkpt><trkpt lat="43.2447594" lon="12.0350885"><ele>275.0</ele><time>2026-04-12T08:55:50.636Z</time></trkpt><trkpt lat="43.2446655" lon="12.0351241"><ele>275.0</ele><time>2026-04-12T08:55:51.636Z</time></trkpt><trkpt lat="43.244572" lon="12.0351624"><ele>275.0</ele><time>2026-04-12T08:55:52.634Z</time></trkpt><trkpt lat="43.2444817" lon="12.0352002"><ele>275.6</ele><time>2026-04-12T08:55:53.632Z</time></trkpt><trkpt lat="43.2443827" lon="12.0352411"><ele>276.2</ele><time>2026-04-12T08:55:54.632Z</time></trkpt><trkpt lat="43.2442729" lon="12.0352886"><ele>276.8</ele><time>2026-04-12T08:55:55.631Z</time></trkpt><trkpt lat="43.2441604" lon="12.0353318"><ele>277.4</ele><time>2026-04-12T08:55:56.631Z</time></trkpt><trkpt lat="43.244054" lon="12.0353702"><ele>278.0</ele><time>2026-04-12T08:55:57.63Z</time></trkpt><trkpt lat="43.2439652" lon="12.0353947"><ele>278.1666666666667</ele><time>2026-04-12T08:55:58.628Z</time></trkpt><trkpt lat="43.2438912" lon="12.0354125"><ele>278.33333333333337</ele><time>2026-04-12T08:55:59.629Z</time></trkpt><trkpt lat="43.243816" lon="12.0354393"><ele>278.5</ele><time>2026-04-12T08:56:01.636Z</time></trkpt><trkpt lat="43.2437514" lon="12.0354425"><ele>278.6666666666667</ele><time>2026-04-12T08:56:05.644Z</time></trkpt><trkpt lat="43.243686" lon="12.0353457"><ele>278.8333333333333</ele><time>2026-04-12T08:56:07.644Z</time></trkpt><trkpt lat="43.2436707" lon="12.0351792"><ele>279.0</ele><time>2026-04-12T08:56:09.641Z</time></trkpt><trkpt lat="43.2436807" lon="12.035084"><ele>279.0</ele><time>2026-04-12T08:56:10.63Z</time></trkpt><trkpt lat="43.2436959" lon="12.0349938"><ele>279.0</ele><time>2026-04-12T08:56:11.629Z</time></trkpt><trkpt lat="43.2437067" lon="12.0349049"><ele>279.0</ele><time>2026-04-12T08:56:12.628Z</time></trkpt><trkpt lat="43.2437231" lon="12.0347345"><ele>279.0</ele><time>2026-04-12T08:56:14.629Z</time></trkpt><trkpt lat="43.2437312" lon="12.0346463"><ele>279.0</ele><time>2026-04-12T08:56:15.626Z</time></trkpt><trkpt lat="43.2437399" lon="12.0345411"><ele>279.0</ele><time>2026-04-12T08:56:16.625Z</time></trkpt><trkpt lat="43.2437509" lon="12.0344206"><ele>278.8</ele><time>2026-04-12T08:56:17.631Z</time></trkpt><trkpt lat="43.2437635" lon="12.0342934"><ele>278.59999999999997</ele><time>2026-04-12T08:56:18.631Z</time></trkpt><trkpt lat="43.2437778" lon="12.0341531"><ele>278.4</ele><time>2026-04-12T08:56:19.635Z</time></trkpt><trkpt lat="43.243792" lon="12.0340051"><ele>278.2</ele><time>2026-04-12T08:56:20.637Z</time></trkpt><trkpt lat="43.2438116" lon="12.0338496"><ele>278.0</ele><time>2026-04-12T08:56:21.631Z</time></trkpt><trkpt lat="43.243833" lon="12.0336803"><ele>278.0</ele><time>2026-04-12T08:56:22.629Z</time></trkpt><trkpt lat="43.2438548" lon="12.0335035"><ele>278.0</ele><time>2026-04-12T08:56:23.627Z</time></trkpt><trkpt lat="43.2438844" lon="12.0333346"><ele>278.0</ele><time>2026-04-12T08:56:24.632Z</time></trkpt><trkpt lat="43.2439138" lon="12.0331816"><ele>278.0</ele><time>2026-04-12T08:56:25.633Z</time></trkpt><trkpt lat="43.2439426" lon="12.033048"><ele>277.83333333333337</ele><time>2026-04-12T08:56:26.636Z</time></trkpt><trkpt lat="43.2439625" lon="12.0329353"><ele>277.6666666666667</ele><time>2026-04-12T08:56:27.632Z</time></trkpt><trkpt lat="43.2439783" lon="12.0328483"><ele>277.5</ele><time>2026-04-12T08:56:28.634Z</time></trkpt><trkpt lat="43.2439627" lon="12.032761"><ele>277.3333333333333</ele><time>2026-04-12T08:56:30.634Z</time></trkpt><trkpt lat="43.2438495" lon="12.0327111"><ele>277.16666666666663</ele><time>2026-04-12T08:56:32.629Z</time></trkpt><trkpt lat="43.243746" lon="12.0326691"><ele>277.0</ele><time>2026-04-12T08:56:33.631Z</time></trkpt><trkpt lat="43.243623" lon="12.0326152"><ele>277.0</ele><time>2026-04-12T08:56:34.64Z</time></trkpt><trkpt lat="43.2434899" lon="12.0325658"><ele>277.0</ele><time>2026-04-12T08:56:35.622Z</time></trkpt><trkpt lat="43.2433715" lon="12.0325168"><ele>277.0</ele><time>2026-04-12T08:56:36.631Z</time></trkpt><trkpt lat="43.2432611" lon="12.0324726"><ele>277.0</ele><time>2026-04-12T08:56:37.628Z</time></trkpt><trkpt lat="43.243161" lon="12.032423"><ele>280.6</ele><time>2026-04-12T08:56:38.632Z</time></trkpt><trkpt lat="43.2430778" lon="12.0323744"><ele>284.2</ele><time>2026-04-12T08:56:39.634Z</time></trkpt><trkpt lat="43.2429918" lon="12.0323293"><ele>287.8</ele><time>2026-04-12T08:56:40.646Z</time></trkpt><trkpt lat="43.2429026" lon="12.0322888"><ele>291.4</ele><time>2026-04-12T08:56:41.632Z</time></trkpt><trkpt lat="43.2428229" lon="12.0322537"><ele>295.0</ele><time>2026-04-12T08:56:42.626Z</time></trkpt><trkpt lat="43.2427208" lon="12.0322223"><ele>295.0</ele><time>2026-04-12T08:56:44.632Z</time></trkpt><trkpt lat="43.2426522" lon="12.032214"><ele>295.0</ele><time>2026-04-12T08:56:47.649Z</time></trkpt><trkpt lat="43.242568" lon="12.0322425"><ele>295.0</ele><time>2026-04-12T08:56:59.627Z</time></trkpt><trkpt lat="43.2425027" lon="12.032284"><ele>295.0</ele><time>2026-04-12T08:57:00.617Z</time></trkpt><trkpt lat="43.2424463" lon="12.0323709"><ele>295.0</ele><time>2026-04-12T08:57:01.622Z</time></trkpt><trkpt lat="43.2424146" lon="12.0325014"><ele>295.0</ele><time>2026-04-12T08:57:02.617Z</time></trkpt><trkpt lat="43.2423756" lon="12.0326455"><ele>293.8333333333333</ele><time>2026-04-12T08:57:03.62Z</time></trkpt><trkpt lat="43.2423448" lon="12.0327728"><ele>292.66666666666663</ele><time>2026-04-12T08:57:04.628Z</time></trkpt><trkpt lat="43.2423173" lon="12.0328881"><ele>291.5</ele><time>2026-04-12T08:57:05.614Z</time></trkpt><trkpt lat="43.2422811" lon="12.0329812"><ele>290.3333333333333</ele><time>2026-04-12T08:57:06.625Z</time></trkpt><trkpt lat="43.2422306" lon="12.0330676"><ele>289.1666666666667</ele><time>2026-04-12T08:57:07.623Z</time></trkpt><trkpt lat="43.2421717" lon="12.0331404"><ele>288.0</ele><time>2026-04-12T08:57:08.625Z</time></trkpt><trkpt lat="43.2420987" lon="12.033202"><ele>289.4</ele><time>2026-04-12T08:57:09.628Z</time></trkpt><trkpt lat="43.2420026" lon="12.0332456"><ele>290.8</ele><time>2026-04-12T08:57:10.626Z</time></trkpt><trkpt lat="43.2418929" lon="12.0332804"><ele>292.2</ele><time>2026-04-12T08:57:11.642Z</time></trkpt><trkpt lat="43.241787" lon="12.0333222"><ele>293.6</ele><time>2026-04-12T08:57:12.629Z</time></trkpt><trkpt lat="43.2417036" lon="12.0333845"><ele>295.0</ele><time>2026-04-12T08:57:13.625Z</time></trkpt><trkpt lat="43.2416249" lon="12.0334576"><ele>295.0</ele><time>2026-04-12T08:57:14.623Z</time></trkpt><trkpt lat="43.2415394" lon="12.0335358"><ele>295.0</ele><time>2026-04-12T08:57:15.628Z</time></trkpt><trkpt lat="43.2414536" lon="12.0335948"><ele>295.0</ele><time>2026-04-12T08:57:16.63Z</time></trkpt><trkpt lat="43.2413562" lon="12.033638"><ele>295.0</ele><time>2026-04-12T08:57:17.627Z</time></trkpt><trkpt lat="43.2412501" lon="12.0336826"><ele>295.0</ele><time>2026-04-12T08:57:18.628Z</time></trkpt><trkpt lat="43.2411348" lon="12.0337213"><ele>297.75</ele><time>2026-04-12T08:57:19.628Z</time></trkpt><trkpt lat="43.2410154" lon="12.0337566"><ele>300.5</ele><time>2026-04-12T08:57:20.63Z</time></trkpt><trkpt lat="43.2409016" lon="12.0337923"><ele>303.25</ele><time>2026-04-12T08:57:21.633Z</time></trkpt><trkpt lat="43.2407946" lon="12.0338358"><ele>306.0</ele><time>2026-04-12T08:57:22.628Z</time></trkpt><trkpt lat="43.2406921" lon="12.0338662"><ele>305.8</ele><time>2026-04-12T08:57:23.63Z</time></trkpt><trkpt lat="43.24059" lon="12.0338799"><ele>305.6</ele><time>2026-04-12T08:57:24.633Z</time></trkpt><trkpt lat="43.2404838" lon="12.0338618"><ele>305.4</ele><time>2026-04-12T08:57:25.635Z</time></trkpt><trkpt lat="43.2403814" lon="12.0338266"><ele>305.2</ele><time>2026-04-12T08:57:26.634Z</time></trkpt><trkpt lat="43.2402788" lon="12.0337824"><ele>305.0</ele><time>2026-04-12T08:57:27.634Z</time></trkpt><trkpt lat="43.2401801" lon="12.0337337"><ele>305.0</ele><time>2026-04-12T08:57:28.63Z</time></trkpt><trkpt lat="43.24009" lon="12.0336978"><ele>305.0</ele><time>2026-04-12T08:57:29.63Z</time></trkpt><trkpt lat="43.2400008" lon="12.0336713"><ele>305.0</ele><time>2026-04-12T08:57:30.628Z</time></trkpt><trkpt lat="43.2399078" lon="12.033632"><ele>305.0</ele><time>2026-04-12T08:57:31.628Z</time></trkpt><trkpt lat="43.2398114" lon="12.0335874"><ele>305.0</ele><time>2026-04-12T08:57:32.624Z</time></trkpt><trkpt lat="43.2397145" lon="12.0335267"><ele>304.0</ele><time>2026-04-12T08:57:33.623Z</time></trkpt><trkpt lat="43.2396218" lon="12.0334529"><ele>303.0</ele><time>2026-04-12T08:57:34.636Z</time></trkpt><trkpt lat="43.2395262" lon="12.0333636"><ele>302.0</ele><time>2026-04-12T08:57:35.622Z</time></trkpt><trkpt lat="43.2394269" lon="12.0332851"><ele>301.0</ele><time>2026-04-12T08:57:36.623Z</time></trkpt><trkpt lat="43.2393327" lon="12.0332239"><ele>300.0</ele><time>2026-04-12T08:57:37.619Z</time></trkpt><trkpt lat="43.2392517" lon="12.0331762"><ele>301.8333333333333</ele><time>2026-04-12T08:57:38.624Z</time></trkpt><trkpt lat="43.2391814" lon="12.0331266"><ele>303.6666666666667</ele><time>2026-04-12T08:57:39.623Z</time></trkpt><trkpt lat="43.2391184" lon="12.0330615"><ele>305.5</ele><time>2026-04-12T08:57:40.626Z</time></trkpt><trkpt lat="43.2390624" lon="12.0329706"><ele>307.33333333333337</ele><time>2026-04-12T08:57:41.629Z</time></trkpt><trkpt lat="43.2390164" lon="12.0328466"><ele>309.1666666666667</ele><time>2026-04-12T08:57:42.632Z</time></trkpt><trkpt lat="43.2389661" lon="12.0327258"><ele>311.0</ele><time>2026-04-12T08:57:43.628Z</time></trkpt><trkpt lat="43.2389065" lon="12.0326343"><ele>311.0</ele><time>2026-04-12T08:57:44.621Z</time></trkpt><trkpt lat="43.2388411" lon="12.0325666"><ele>311.0</ele><time>2026-04-12T08:57:45.62Z</time></trkpt><trkpt lat="43.2387719" lon="12.0325152"><ele>311.0</ele><time>2026-04-12T08:57:46.626Z</time></trkpt><trkpt lat="43.2387026" lon="12.0324783"><ele>311.0</ele><time>2026-04-12T08:57:47.623Z</time></trkpt><trkpt lat="43.2386363" lon="12.0324325"><ele>311.0</ele><time>2026-04-12T08:57:48.627Z</time></trkpt><trkpt lat="43.2385748" lon="12.0323768"><ele>311.0</ele><time>2026-04-12T08:57:49.627Z</time></trkpt><trkpt lat="43.2385206" lon="12.0323184"><ele>311.83333333333337</ele><time>2026-04-12T08:57:50.627Z</time></trkpt><trkpt lat="43.2384279" lon="12.0322052"><ele>312.6666666666667</ele><time>2026-04-12T08:57:52.623Z</time></trkpt><trkpt lat="43.2383857" lon="12.0321359"><ele>313.5</ele><time>2026-04-12T08:57:53.623Z</time></trkpt><trkpt lat="43.2383502" lon="12.0320508"><ele>314.3333333333333</ele><time>2026-04-12T08:57:54.623Z</time></trkpt><trkpt lat="43.238321" lon="12.0319368"><ele>315.16666666666663</ele><time>2026-04-12T08:57:55.62Z</time></trkpt><trkpt lat="43.238303" lon="12.0318064"><ele>316.0</ele><time>2026-04-12T08:57:56.625Z</time></trkpt><trkpt lat="43.2382925" lon="12.0316806"><ele>317.16666666666663</ele><time>2026-04-12T08:57:57.621Z</time></trkpt><trkpt lat="43.2382856" lon="12.0315719"><ele>318.3333333333333</ele><time>2026-04-12T08:57:58.625Z</time></trkpt><trkpt lat="43.2382908" lon="12.0314771"><ele>319.5</ele><time>2026-04-12T08:57:59.622Z</time></trkpt><trkpt lat="43.238297" lon="12.0313734"><ele>320.6666666666667</ele><time>2026-04-12T08:58:00.626Z</time></trkpt><trkpt lat="43.2383037" lon="12.03127"><ele>321.83333333333337</ele><time>2026-04-12T08:58:01.63Z</time></trkpt><trkpt lat="43.2383041" lon="12.0311681"><ele>323.0</ele><time>2026-04-12T08:58:02.622Z</time></trkpt><trkpt lat="43.2382916" lon="12.0310657"><ele>323.0</ele><time>2026-04-12T08:58:03.621Z</time></trkpt><trkpt lat="43.2382703" lon="12.0309637"><ele>323.0</ele><time>2026-04-12T08:58:04.627Z</time></trkpt><trkpt lat="43.2382405" lon="12.0308496"><ele>323.0</ele><time>2026-04-12T08:58:05.619Z</time></trkpt><trkpt lat="43.2382097" lon="12.030727"><ele>323.0</ele><time>2026-04-12T08:58:06.622Z</time></trkpt><trkpt lat="43.2381786" lon="12.0306205"><ele>323.0</ele><time>2026-04-12T08:58:07.623Z</time></trkpt><trkpt lat="43.2381475" lon="12.0305334"><ele>323.0</ele><time>2026-04-12T08:58:08.624Z</time></trkpt><trkpt lat="43.2381157" lon="12.0304543"><ele>325.83333333333337</ele><time>2026-04-12T08:58:09.62Z</time></trkpt><trkpt lat="43.2380865" lon="12.030365"><ele>328.6666666666667</ele><time>2026-04-12T08:58:10.623Z</time></trkpt><trkpt lat="43.2380471" lon="12.0302633"><ele>331.5</ele><time>2026-04-12T08:58:11.62Z</time></trkpt><trkpt lat="43.2379912" lon="12.0301564"><ele>334.3333333333333</ele><time>2026-04-12T08:58:12.62Z</time></trkpt><trkpt lat="43.2379201" lon="12.0300519"><ele>337.16666666666663</ele><time>2026-04-12T08:58:13.63Z</time></trkpt><trkpt lat="43.237868" lon="12.0299613"><ele>340.0</ele><time>2026-04-12T08:58:14.624Z</time></trkpt><trkpt lat="43.2378489" lon="12.0298761"><ele>340.0</ele><time>2026-04-12T08:58:15.616Z</time></trkpt><trkpt lat="43.2378301" lon="12.029707"><ele>340.0</ele><time>2026-04-12T08:58:17.61Z</time></trkpt><trkpt lat="43.2378138" lon="12.029602"><ele>340.0</ele><time>2026-04-12T08:58:18.621Z</time></trkpt><trkpt lat="43.2377744" lon="12.0294738"><ele>340.0</ele><time>2026-04-12T08:58:19.611Z</time></trkpt><trkpt lat="43.2377449" lon="12.0293632"><ele>340.0</ele><time>2026-04-12T08:58:20.618Z</time></trkpt><trkpt lat="43.2377268" lon="12.0292636"><ele>340.0</ele><time>2026-04-12T08:58:21.619Z</time></trkpt><trkpt lat="43.2377172" lon="12.0291596"><ele>340.0</ele><time>2026-04-12T08:58:22.619Z</time></trkpt><trkpt lat="43.2376956" lon="12.029068"><ele>340.0</ele><time>2026-04-12T08:58:23.607Z</time></trkpt><trkpt lat="43.2376662" lon="12.02898"><ele>340.0</ele><time>2026-04-12T08:58:24.621Z</time></trkpt><trkpt lat="43.2376339" lon="12.028893"><ele>340.0</ele><time>2026-04-12T08:58:25.62Z</time></trkpt><trkpt lat="43.2376109" lon="12.028801"><ele>340.0</ele><time>2026-04-12T08:58:26.619Z</time></trkpt><trkpt lat="43.2375898" lon="12.0286984"><ele>340.0</ele><time>2026-04-12T08:58:27.615Z</time></trkpt><trkpt lat="43.2375636" lon="12.0285935"><ele>340.3333333333333</ele><time>2026-04-12T08:58:28.623Z</time></trkpt><trkpt lat="43.2375193" lon="12.0285058"><ele>340.66666666666663</ele><time>2026-04-12T08:58:29.626Z</time></trkpt><trkpt lat="43.2374653" lon="12.0284245"><ele>341.0</ele><time>2026-04-12T08:58:30.624Z</time></trkpt><trkpt lat="43.2374219" lon="12.028333"><ele>341.3333333333333</ele><time>2026-04-12T08:58:31.622Z</time></trkpt><trkpt lat="43.2373961" lon="12.0282472"><ele>341.6666666666667</ele><time>2026-04-12T08:58:32.618Z</time></trkpt><trkpt lat="43.2373582" lon="12.0281572"><ele>342.0</ele><time>2026-04-12T08:58:33.623Z</time></trkpt><trkpt lat="43.2373119" lon="12.0280702"><ele>345.75</ele><time>2026-04-12T08:58:34.641Z</time></trkpt><trkpt lat="43.2372464" lon="12.0279727"><ele>349.5</ele><time>2026-04-12T08:58:35.617Z</time></trkpt><trkpt lat="43.2371911" lon="12.0278676"><ele>353.25</ele><time>2026-04-12T08:58:36.623Z</time></trkpt><trkpt lat="43.2371505" lon="12.027755"><ele>357.0</ele><time>2026-04-12T08:58:37.623Z</time></trkpt><trkpt lat="43.2369342" lon="12.0273678"><ele>357.8</ele><time>2026-04-12T08:58:42.354Z</time></trkpt><trkpt lat="43.2367704" lon="12.0272123"><ele>358.6</ele><time>2026-04-12T08:58:44.139Z</time></trkpt><trkpt lat="43.2367275" lon="12.0271167"><ele>359.40000000000003</ele><time>2026-04-12T08:58:45.155Z</time></trkpt><trkpt lat="43.2366839" lon="12.0270213"><ele>360.20000000000005</ele><time>2026-04-12T08:58:46.151Z</time></trkpt><trkpt lat="43.2366325" lon="12.0269379"><ele>361.0</ele><time>2026-04-12T08:58:47.152Z</time></trkpt><trkpt lat="43.2365778" lon="12.0268542"><ele>361.0</ele><time>2026-04-12T08:58:48.153Z</time></trkpt><trkpt lat="43.2365161" lon="12.0267683"><ele>361.0</ele><time>2026-04-12T08:58:49.161Z</time></trkpt><trkpt lat="43.2364525" lon="12.0266774"><ele>361.0</ele><time>2026-04-12T08:58:50.165Z</time></trkpt><trkpt lat="43.2363891" lon="12.0265822"><ele>361.0</ele><time>2026-04-12T08:58:51.16Z</time></trkpt><trkpt lat="43.2363236" lon="12.0264786"><ele>361.0</ele><time>2026-04-12T08:58:52.157Z</time></trkpt><trkpt lat="43.2362727" lon="12.0263678"><ele>363.0</ele><time>2026-04-12T08:58:53.163Z</time></trkpt><trkpt lat="43.2362379" lon="12.0262641"><ele>365.0</ele><time>2026-04-12T08:58:54.162Z</time></trkpt><trkpt lat="43.2361982" lon="12.0261754"><ele>367.0</ele><time>2026-04-12T08:58:55.165Z</time></trkpt><trkpt lat="43.2361594" lon="12.0260798"><ele>369.0</ele><time>2026-04-12T08:58:56.168Z</time></trkpt><trkpt lat="43.2361137" lon="12.0259704"><ele>371.0</ele><time>2026-04-12T08:58:57.174Z</time></trkpt><trkpt lat="43.2360615" lon="12.0258452"><ele>373.0</ele><time>2026-04-12T08:58:58.174Z</time></trkpt><trkpt lat="43.2360078" lon="12.0257323"><ele>374.4</ele><time>2026-04-12T08:58:59.174Z</time></trkpt><trkpt lat="43.2359472" lon="12.0256091"><ele>375.79999999999995</ele><time>2026-04-12T08:59:00.17Z</time></trkpt><trkpt lat="43.2358792" lon="12.0255019"><ele>377.2</ele><time>2026-04-12T08:59:01.165Z</time></trkpt><trkpt lat="43.2358116" lon="12.0254033"><ele>378.6</ele><time>2026-04-12T08:59:02.174Z</time></trkpt><trkpt lat="43.2357469" lon="12.0253235"><ele>380.0</ele><time>2026-04-12T08:59:03.174Z</time></trkpt><trkpt lat="43.2356858" lon="12.0252327"><ele>381.5</ele><time>2026-04-12T08:59:04.168Z</time></trkpt><trkpt lat="43.2356201" lon="12.0251279"><ele>383.0</ele><time>2026-04-12T08:59:05.171Z</time></trkpt><trkpt lat="43.2355057" lon="12.0249886"><ele>384.5</ele><time>2026-04-12T08:59:06.97Z</time></trkpt><trkpt lat="43.2354329" lon="12.0248709"><ele>386.0</ele><time>2026-04-12T08:59:08.763Z</time></trkpt><trkpt lat="43.2353682" lon="12.0247328"><ele>385.99999999999994</ele><time>2026-04-12T08:59:10.63Z</time></trkpt><trkpt lat="43.2353314" lon="12.0246536"><ele>386.0</ele><time>2026-04-12T08:59:11.628Z</time></trkpt><trkpt lat="43.2352887" lon="12.0245702"><ele>386.0</ele><time>2026-04-12T08:59:12.633Z</time></trkpt><trkpt lat="43.235242" lon="12.0245074"><ele>386.0</ele><time>2026-04-12T08:59:13.655Z</time></trkpt><trkpt lat="43.2351551" lon="12.0244212"><ele>385.99999999999994</ele><time>2026-04-12T08:59:15.627Z</time></trkpt><trkpt lat="43.2350888" lon="12.0243873"><ele>386.0</ele><time>2026-04-12T08:59:16.626Z</time></trkpt><trkpt lat="43.2350148" lon="12.0243471"><ele>386.00000000000006</ele><time>2026-04-12T08:59:17.624Z</time></trkpt><trkpt lat="43.2349401" lon="12.0243177"><ele>386.0</ele><time>2026-04-12T08:59:18.627Z</time></trkpt><trkpt lat="43.2348713" lon="12.0242931"><ele>386.0</ele><time>2026-04-12T08:59:19.625Z</time></trkpt><trkpt lat="43.2347982" lon="12.024269"><ele>386.0</ele><time>2026-04-12T08:59:20.629Z</time></trkpt><trkpt lat="43.2347262" lon="12.0242505"><ele>386.0</ele><time>2026-04-12T08:59:21.628Z</time></trkpt><trkpt lat="43.234664" lon="12.0242321"><ele>386.00000000000006</ele><time>2026-04-12T08:59:22.628Z</time></trkpt><trkpt lat="43.2345971" lon="12.0242029"><ele>386.0</ele><time>2026-04-12T08:59:23.624Z</time></trkpt><trkpt lat="43.2345261" lon="12.0241501"><ele>390.3333333333333</ele><time>2026-04-12T08:59:24.628Z</time></trkpt><trkpt lat="43.2344527" lon="12.0240843"><ele>394.66666666666663</ele><time>2026-04-12T08:59:25.63Z</time></trkpt><trkpt lat="43.2343873" lon="12.0240198"><ele>399.0</ele><time>2026-04-12T08:59:26.633Z</time></trkpt><trkpt lat="43.2343291" lon="12.0239527"><ele>403.33333333333337</ele><time>2026-04-12T08:59:27.635Z</time></trkpt><trkpt lat="43.2342701" lon="12.0238885"><ele>407.6666666666667</ele><time>2026-04-12T08:59:28.634Z</time></trkpt><trkpt lat="43.2342012" lon="12.0238335"><ele>412.0</ele><time>2026-04-12T08:59:29.634Z</time></trkpt><trkpt lat="43.2341316" lon="12.0237919"><ele>412.00000000000006</ele><time>2026-04-12T08:59:30.632Z</time></trkpt><trkpt lat="43.2340671" lon="12.0237555"><ele>412.0</ele><time>2026-04-12T08:59:31.632Z</time></trkpt><trkpt lat="43.2339953" lon="12.0237208"><ele>412.0</ele><time>2026-04-12T08:59:32.632Z</time></trkpt><trkpt lat="43.2339139" lon="12.0236809"><ele>412.0</ele><time>2026-04-12T08:59:33.633Z</time></trkpt><trkpt lat="43.2338243" lon="12.0236231"><ele>412.00000000000006</ele><time>2026-04-12T08:59:34.629Z</time></trkpt><trkpt lat="43.2337456" lon="12.0235693"><ele>412.0</ele><time>2026-04-12T08:59:35.63Z</time></trkpt><trkpt lat="43.2336673" lon="12.0235313"><ele>412.83333333333337</ele><time>2026-04-12T08:59:36.628Z</time></trkpt><trkpt lat="43.2335831" lon="12.0234881"><ele>413.6666666666667</ele><time>2026-04-12T08:59:37.63Z</time></trkpt><trkpt lat="43.2335126" lon="12.0234487"><ele>414.5</ele><time>2026-04-12T08:59:38.629Z</time></trkpt><trkpt lat="43.2334548" lon="12.0234081"><ele>415.33333333333337</ele><time>2026-04-12T08:59:39.629Z</time></trkpt><trkpt lat="43.2333971" lon="12.0233695"><ele>416.1666666666667</ele><time>2026-04-12T08:59:40.63Z</time></trkpt><trkpt lat="43.233307" lon="12.0233469"><ele>417.0</ele><time>2026-04-12T08:59:42.634Z</time></trkpt><trkpt lat="43.2332723" lon="12.023468"><ele>417.0</ele><time>2026-04-12T08:59:44.654Z</time></trkpt><trkpt lat="43.233225" lon="12.0235314"><ele>417.0</ele><time>2026-04-12T08:59:45.631Z</time></trkpt><trkpt lat="43.2331632" lon="12.0235716"><ele>417.0</ele><time>2026-04-12T08:59:46.633Z</time></trkpt><trkpt lat="43.2330922" lon="12.023593"><ele>417.0</ele><time>2026-04-12T08:59:47.63Z</time></trkpt><trkpt lat="43.2330034" lon="12.0236173"><ele>417.0</ele><time>2026-04-12T08:59:48.627Z</time></trkpt><trkpt lat="43.2329198" lon="12.023645"><ele>417.0</ele><time>2026-04-12T08:59:49.638Z</time></trkpt><trkpt lat="43.2328397" lon="12.0236673"><ele>419.20000000000005</ele><time>2026-04-12T08:59:50.628Z</time></trkpt><trkpt lat="43.2327684" lon="12.0237112"><ele>421.4</ele><time>2026-04-12T08:59:51.635Z</time></trkpt><trkpt lat="43.2326903" lon="12.0237697"><ele>423.59999999999997</ele><time>2026-04-12T08:59:52.634Z</time></trkpt><trkpt lat="43.2325999" lon="12.0238356"><ele>425.79999999999995</ele><time>2026-04-12T08:59:53.634Z</time></trkpt><trkpt lat="43.2324997" lon="12.0239051"><ele>428.0</ele><time>2026-04-12T08:59:54.633Z</time></trkpt><trkpt lat="43.2323901" lon="12.0239675"><ele>428.79999999999995</ele><time>2026-04-12T08:59:55.638Z</time></trkpt><trkpt lat="43.2322892" lon="12.0240147"><ele>429.59999999999997</ele><time>2026-04-12T08:59:56.634Z</time></trkpt><trkpt lat="43.2321823" lon="12.0240548"><ele>430.40000000000003</ele><time>2026-04-12T08:59:57.631Z</time></trkpt><trkpt lat="43.23207" lon="12.0240863"><ele>431.20000000000005</ele><time>2026-04-12T08:59:58.628Z</time></trkpt><trkpt lat="43.2319584" lon="12.0241068"><ele>432.0</ele><time>2026-04-12T08:59:59.631Z</time></trkpt><trkpt lat="43.2318708" lon="12.0241171"><ele>432.0</ele><time>2026-04-12T09:00:00.633Z</time></trkpt><trkpt lat="43.231805" lon="12.024116"><ele>432.00000000000006</ele><time>2026-04-12T09:00:01.632Z</time></trkpt><trkpt lat="43.2316854" lon="12.0240578"><ele>432.00000000000006</ele><time>2026-04-12T09:00:03.621Z</time></trkpt><trkpt lat="43.2315992" lon="12.0239425"><ele>432.0</ele><time>2026-04-12T09:00:05.626Z</time></trkpt><trkpt lat="43.2315585" lon="12.0238689"><ele>432.0</ele><time>2026-04-12T09:00:06.628Z</time></trkpt><trkpt lat="43.231512" lon="12.0237914"><ele>434.0</ele><time>2026-04-12T09:00:07.621Z</time></trkpt><trkpt lat="43.2314576" lon="12.0236915"><ele>436.00000000000006</ele><time>2026-04-12T09:00:08.621Z</time></trkpt><trkpt lat="43.2314012" lon="12.0235729"><ele>438.00000000000006</ele><time>2026-04-12T09:00:09.625Z</time></trkpt><trkpt lat="43.2313304" lon="12.0234521"><ele>440.0</ele><time>2026-04-12T09:00:10.618Z</time></trkpt><trkpt lat="43.2312634" lon="12.023354"><ele>442.0</ele><time>2026-04-12T09:00:11.629Z</time></trkpt><trkpt lat="43.2311954" lon="12.0232892"><ele>442.00000000000006</ele><time>2026-04-12T09:00:12.624Z</time></trkpt><trkpt lat="43.2311327" lon="12.0232311"><ele>442.0</ele><time>2026-04-12T09:00:13.637Z</time></trkpt><trkpt lat="43.2310744" lon="12.0231811"><ele>442.0</ele><time>2026-04-12T09:00:14.624Z</time></trkpt><trkpt lat="43.2310149" lon="12.0231201"><ele>442.0</ele><time>2026-04-12T09:00:15.637Z</time></trkpt><trkpt lat="43.2309423" lon="12.0230536"><ele>442.00000000000006</ele><time>2026-04-12T09:00:16.621Z</time></trkpt><trkpt lat="43.2308483" lon="12.0229653"><ele>442.0</ele><time>2026-04-12T09:00:17.62Z</time></trkpt><trkpt lat="43.2307694" lon="12.0228772"><ele>442.00000000000006</ele><time>2026-04-12T09:00:18.627Z</time></trkpt><trkpt lat="43.2307081" lon="12.022795"><ele>442.0</ele><time>2026-04-12T09:00:19.62Z</time></trkpt><trkpt lat="43.2306552" lon="12.0227184"><ele>442.0</ele><time>2026-04-12T09:00:20.617Z</time></trkpt><trkpt lat="43.2306094" lon="12.0226486"><ele>442.0</ele><time>2026-04-12T09:00:21.624Z</time></trkpt><trkpt lat="43.230564" lon="12.022567"><ele>442.00000000000006</ele><time>2026-04-12T09:00:23.625Z</time></trkpt><trkpt lat="43.2305407" lon="12.0226872"><ele>442.0</ele><time>2026-04-12T09:04:58.65Z</time></trkpt><trkpt lat="43.2305985" lon="12.0228146"><ele>442.0</ele><time>2026-04-12T09:05:00.635Z</time></trkpt><trkpt lat="43.2306466" lon="12.0229015"><ele>442.00000000000006</ele><time>2026-04-12T09:05:01.642Z</time></trkpt><trkpt lat="43.2306939" lon="12.0230189"><ele>442.00000000000006</ele><time>2026-04-12T09:05:02.637Z</time></trkpt><trkpt lat="43.2307382" lon="12.0231485"><ele>442.0</ele><time>2026-04-12T09:05:03.632Z</time></trkpt><trkpt lat="43.2307838" lon="12.023287"><ele>442.0</ele><time>2026-04-12T09:05:04.638Z</time></trkpt><trkpt lat="43.2308124" lon="12.0234254"><ele>442.6</ele><time>2026-04-12T09:05:05.637Z</time></trkpt><trkpt lat="43.2308475" lon="12.0235775"><ele>443.20000000000005</ele><time>2026-04-12T09:05:06.63Z</time></trkpt><trkpt lat="43.2308831" lon="12.0237376"><ele>443.8</ele><time>2026-04-12T09:05:07.635Z</time></trkpt><trkpt lat="43.2309173" lon="12.0238703"><ele>444.4</ele><time>2026-04-12T09:05:08.63Z</time></trkpt><trkpt lat="43.2309465" lon="12.0239888"><ele>445.0</ele><time>2026-04-12T09:05:09.624Z</time></trkpt><trkpt lat="43.2309696" lon="12.0240987"><ele>446.33333333333337</ele><time>2026-04-12T09:05:10.625Z</time></trkpt><trkpt lat="43.2309751" lon="12.0242121"><ele>447.6666666666667</ele><time>2026-04-12T09:05:11.622Z</time></trkpt><trkpt lat="43.230962" lon="12.0243276"><ele>449.0</ele><time>2026-04-12T09:05:12.635Z</time></trkpt><trkpt lat="43.23095" lon="12.0244492"><ele>450.33333333333337</ele><time>2026-04-12T09:05:13.628Z</time></trkpt><trkpt lat="43.230944" lon="12.0245561"><ele>451.6666666666667</ele><time>2026-04-12T09:05:14.626Z</time></trkpt><trkpt lat="43.2309356" lon="12.0246552"><ele>453.0</ele><time>2026-04-12T09:05:15.625Z</time></trkpt><trkpt lat="43.2309248" lon="12.0247624"><ele>453.0</ele><time>2026-04-12T09:05:16.624Z</time></trkpt><trkpt lat="43.2309075" lon="12.0248719"><ele>453.0</ele><time>2026-04-12T09:05:17.628Z</time></trkpt><trkpt lat="43.230887" lon="12.0249803"><ele>453.0</ele><time>2026-04-12T09:05:18.627Z</time></trkpt><trkpt lat="43.2308588" lon="12.0250828"><ele>453.0</ele><time>2026-04-12T09:05:19.629Z</time></trkpt><trkpt lat="43.2308245" lon="12.025177"><ele>453.0</ele><time>2026-04-12T09:05:20.632Z</time></trkpt><trkpt lat="43.230783" lon="12.025266"><ele>453.0</ele><time>2026-04-12T09:05:21.634Z</time></trkpt><trkpt lat="43.2307348" lon="12.0253614"><ele>452.6666666666667</ele><time>2026-04-12T09:05:22.629Z</time></trkpt><trkpt lat="43.2306782" lon="12.0254537"><ele>452.33333333333337</ele><time>2026-04-12T09:05:23.629Z</time></trkpt><trkpt lat="43.2306155" lon="12.0255318"><ele>452.0</ele><time>2026-04-12T09:05:24.631Z</time></trkpt><trkpt lat="43.2305389" lon="12.0256029"><ele>451.6666666666667</ele><time>2026-04-12T09:05:25.633Z</time></trkpt><trkpt lat="43.2304687" lon="12.0256804"><ele>451.33333333333337</ele><time>2026-04-12T09:05:26.635Z</time></trkpt><trkpt lat="43.2304047" lon="12.0257726"><ele>451.0</ele><time>2026-04-12T09:05:27.634Z</time></trkpt><trkpt lat="43.2303538" lon="12.0258641"><ele>451.00000000000006</ele><time>2026-04-12T09:05:28.637Z</time></trkpt><trkpt lat="43.2303169" lon="12.0259672"><ele>451.0</ele><time>2026-04-12T09:05:29.63Z</time></trkpt><trkpt lat="43.2302978" lon="12.0260834"><ele>451.0</ele><time>2026-04-12T09:05:30.633Z</time></trkpt><trkpt lat="43.2303025" lon="12.0261986"><ele>451.0</ele><time>2026-04-12T09:05:31.633Z</time></trkpt><trkpt lat="43.2303284" lon="12.026309"><ele>451.00000000000006</ele><time>2026-04-12T09:05:32.624Z</time></trkpt><trkpt lat="43.2303691" lon="12.0264091"><ele>451.0</ele><time>2026-04-12T09:05:33.625Z</time></trkpt><trkpt lat="43.230411" lon="12.026506"><ele>451.00000000000006</ele><time>2026-04-12T09:05:34.627Z</time></trkpt><trkpt lat="43.2304411" lon="12.0266055"><ele>451.0</ele><time>2026-04-12T09:05:35.628Z</time></trkpt><trkpt lat="43.2304673" lon="12.0267139"><ele>451.0</ele><time>2026-04-12T09:05:36.637Z</time></trkpt><trkpt lat="43.2305005" lon="12.0268193"><ele>451.0</ele><time>2026-04-12T09:05:37.625Z</time></trkpt><trkpt lat="43.2305376" lon="12.0269232"><ele>451.00000000000006</ele><time>2026-04-12T09:05:38.627Z</time></trkpt><trkpt lat="43.2305724" lon="12.0270247"><ele>451.0</ele><time>2026-04-12T09:05:39.625Z</time></trkpt><trkpt lat="43.2305928" lon="12.0271315"><ele>452.1666666666667</ele><time>2026-04-12T09:05:40.627Z</time></trkpt><trkpt lat="43.2305994" lon="12.0272395"><ele>453.33333333333337</ele><time>2026-04-12T09:05:41.627Z</time></trkpt><trkpt lat="43.2306047" lon="12.0273515"><ele>454.5</ele><time>2026-04-12T09:05:42.629Z</time></trkpt><trkpt lat="43.2306076" lon="12.0274773"><ele>455.66666666666663</ele><time>2026-04-12T09:05:43.64Z</time></trkpt><trkpt lat="43.230618" lon="12.0276014"><ele>456.8333333333333</ele><time>2026-04-12T09:05:44.628Z</time></trkpt><trkpt lat="43.230629" lon="12.0277162"><ele>458.0</ele><time>2026-04-12T09:05:45.627Z</time></trkpt><trkpt lat="43.230642" lon="12.0278202"><ele>458.0</ele><time>2026-04-12T09:05:46.62Z</time></trkpt><trkpt lat="43.2306524" lon="12.0279108"><ele>457.99999999999994</ele><time>2026-04-12T09:05:47.624Z</time></trkpt><trkpt lat="43.2306642" lon="12.0280635"><ele>457.99999999999994</ele><time>2026-04-12T09:05:49.626Z</time></trkpt><trkpt lat="43.2306093" lon="12.0282171"><ele>458.0</ele><time>2026-04-12T09:05:51.626Z</time></trkpt><trkpt lat="43.2305895" lon="12.0283755"><ele>458.0</ele><time>2026-04-12T09:05:53.622Z</time></trkpt><trkpt lat="43.2306149" lon="12.0284621"><ele>459.3333333333333</ele><time>2026-04-12T09:05:54.627Z</time></trkpt><trkpt lat="43.2306597" lon="12.0285683"><ele>460.66666666666663</ele><time>2026-04-12T09:05:55.62Z</time></trkpt><trkpt lat="43.2306945" lon="12.028679"><ele>462.0</ele><time>2026-04-12T09:05:56.626Z</time></trkpt><trkpt lat="43.2307294" lon="12.0287803"><ele>463.33333333333337</ele><time>2026-04-12T09:05:57.625Z</time></trkpt><trkpt lat="43.2307573" lon="12.0288705"><ele>464.6666666666667</ele><time>2026-04-12T09:05:58.625Z</time></trkpt><trkpt lat="43.2307742" lon="12.0289549"><ele>466.0</ele><time>2026-04-12T09:05:59.622Z</time></trkpt><trkpt lat="43.230789" lon="12.0290459"><ele>466.00000000000006</ele><time>2026-04-12T09:06:00.622Z</time></trkpt><trkpt lat="43.2308081" lon="12.0291363"><ele>466.0</ele><time>2026-04-12T09:06:01.622Z</time></trkpt><trkpt lat="43.2308351" lon="12.0292325"><ele>466.0</ele><time>2026-04-12T09:06:02.624Z</time></trkpt><trkpt lat="43.2308626" lon="12.0293322"><ele>466.0</ele><time>2026-04-12T09:06:03.625Z</time></trkpt><trkpt lat="43.2308925" lon="12.0294455"><ele>466.00000000000006</ele><time>2026-04-12T09:06:04.62Z</time></trkpt><trkpt lat="43.230926" lon="12.0295533"><ele>466.0</ele><time>2026-04-12T09:06:05.622Z</time></trkpt><trkpt lat="43.2309585" lon="12.0296409"><ele>468.1666666666667</ele><time>2026-04-12T09:06:06.632Z</time></trkpt><trkpt lat="43.2309939" lon="12.0297762"><ele>470.33333333333337</ele><time>2026-04-12T09:06:08.624Z</time></trkpt><trkpt lat="43.2310741" lon="12.0298507"><ele>472.5</ele><time>2026-04-12T09:06:10.614Z</time></trkpt><trkpt lat="43.2311477" lon="12.0298616"><ele>474.66666666666663</ele><time>2026-04-12T09:06:11.617Z</time></trkpt><trkpt lat="43.2312359" lon="12.0298737"><ele>476.8333333333333</ele><time>2026-04-12T09:06:12.617Z</time></trkpt><trkpt lat="43.2313145" lon="12.0299189"><ele>479.0</ele><time>2026-04-12T09:06:13.618Z</time></trkpt><trkpt lat="43.2313812" lon="12.0299812"><ele>480.79999999999995</ele><time>2026-04-12T09:06:14.638Z</time></trkpt><trkpt lat="43.2314385" lon="12.03006"><ele>482.59999999999997</ele><time>2026-04-12T09:06:15.616Z</time></trkpt><trkpt lat="43.2314974" lon="12.0301655"><ele>484.4</ele><time>2026-04-12T09:06:16.62Z</time></trkpt><trkpt lat="43.2315492" lon="12.0303065"><ele>486.2</ele><time>2026-04-12T09:06:17.619Z</time></trkpt><trkpt lat="43.2315945" lon="12.030447"><ele>488.0</ele><time>2026-04-12T09:06:18.617Z</time></trkpt><trkpt lat="43.2316358" lon="12.0305539"><ele>487.99999999999994</ele><time>2026-04-12T09:06:19.619Z</time></trkpt><trkpt lat="43.2317012" lon="12.0305995"><ele>488.0</ele><time>2026-04-12T09:06:21.62Z</time></trkpt><trkpt lat="43.2317635" lon="12.0305679"><ele>488.0</ele><time>2026-04-12T09:06:23.639Z</time></trkpt><trkpt lat="43.2316834" lon="12.0305787"><ele>488.0</ele><time>2026-04-12T09:06:35.635Z</time></trkpt><trkpt lat="43.2315769" lon="12.0305493"><ele>487.99999999999994</ele><time>2026-04-12T09:06:37.634Z</time></trkpt><trkpt lat="43.2314816" lon="12.0304492"><ele>488.0</ele><time>2026-04-12T09:06:39.623Z</time></trkpt><trkpt lat="43.231447" lon="12.030338"><ele>488.66666666666663</ele><time>2026-04-12T09:06:40.617Z</time></trkpt><trkpt lat="43.2314098" lon="12.0302139"><ele>489.3333333333333</ele><time>2026-04-12T09:06:41.616Z</time></trkpt><trkpt lat="43.231369" lon="12.0301085"><ele>490.0</ele><time>2026-04-12T09:06:42.619Z</time></trkpt><trkpt lat="43.23133" lon="12.0300166"><ele>490.66666666666663</ele><time>2026-04-12T09:06:43.618Z</time></trkpt><trkpt lat="43.2312474" lon="12.0299036"><ele>491.3333333333333</ele><time>2026-04-12T09:06:45.636Z</time></trkpt><trkpt lat="43.2311851" lon="12.0298641"><ele>492.0</ele><time>2026-04-12T09:06:46.623Z</time></trkpt><trkpt lat="43.2311068" lon="12.0298314"><ele>489.8333333333333</ele><time>2026-04-12T09:06:47.619Z</time></trkpt><trkpt lat="43.2310231" lon="12.029813"><ele>487.66666666666663</ele><time>2026-04-12T09:06:48.619Z</time></trkpt><trkpt lat="43.2309367" lon="12.0297815"><ele>485.5</ele><time>2026-04-12T09:06:49.614Z</time></trkpt><trkpt lat="43.2308567" lon="12.0297255"><ele>483.3333333333333</ele><time>2026-04-12T09:06:50.617Z</time></trkpt><trkpt lat="43.2307904" lon="12.0296475"><ele>481.16666666666663</ele><time>2026-04-12T09:06:51.612Z</time></trkpt><trkpt lat="43.2307301" lon="12.0295515"><ele>479.0</ele><time>2026-04-12T09:06:52.617Z</time></trkpt><trkpt lat="43.230676" lon="12.0294467"><ele>479.79999999999995</ele><time>2026-04-12T09:06:53.615Z</time></trkpt><trkpt lat="43.2306197" lon="12.0293399"><ele>480.59999999999997</ele><time>2026-04-12T09:06:54.614Z</time></trkpt><trkpt lat="43.2305497" lon="12.0292397"><ele>481.4</ele><time>2026-04-12T09:06:55.612Z</time></trkpt><trkpt lat="43.2304708" lon="12.029155"><ele>482.2</ele><time>2026-04-12T09:06:56.613Z</time></trkpt><trkpt lat="43.230386" lon="12.0290854"><ele>483.0</ele><time>2026-04-12T09:06:57.613Z</time></trkpt><trkpt lat="43.2302957" lon="12.0290239"><ele>483.0</ele><time>2026-04-12T09:06:58.611Z</time></trkpt><trkpt lat="43.2301991" lon="12.028982"><ele>482.99999999999994</ele><time>2026-04-12T09:06:59.616Z</time></trkpt><trkpt lat="43.2300959" lon="12.0289376"><ele>482.99999999999994</ele><time>2026-04-12T09:07:00.614Z</time></trkpt><trkpt lat="43.2299928" lon="12.0288888"><ele>483.0</ele><time>2026-04-12T09:07:01.626Z</time></trkpt><trkpt lat="43.2299027" lon="12.0288459"><ele>483.0</ele><time>2026-04-12T09:07:02.619Z</time></trkpt><trkpt lat="43.2298271" lon="12.0288157"><ele>483.3333333333333</ele><time>2026-04-12T09:07:03.625Z</time></trkpt><trkpt lat="43.229779" lon="12.0288842"><ele>483.66666666666663</ele><time>2026-04-12T09:07:06.643Z</time></trkpt><trkpt lat="43.2297721" lon="12.0289768"><ele>484.0</ele><time>2026-04-12T09:07:08.628Z</time></trkpt><trkpt lat="43.22972" lon="12.0290616"><ele>484.3333333333333</ele><time>2026-04-12T09:07:10.633Z</time></trkpt><trkpt lat="43.2296817" lon="12.0291718"><ele>484.66666666666663</ele><time>2026-04-12T09:07:12.635Z</time></trkpt><trkpt lat="43.2296608" lon="12.0293354"><ele>485.0</ele><time>2026-04-12T09:07:14.624Z</time></trkpt><trkpt lat="43.2296288" lon="12.0294675"><ele>487.4</ele><time>2026-04-12T09:07:15.624Z</time></trkpt><trkpt lat="43.2296063" lon="12.0296132"><ele>489.8</ele><time>2026-04-12T09:07:16.653Z</time></trkpt><trkpt lat="43.2296004" lon="12.02976"><ele>492.20000000000005</ele><time>2026-04-12T09:07:17.623Z</time></trkpt><trkpt lat="43.2296101" lon="12.0298902"><ele>494.6</ele><time>2026-04-12T09:07:18.621Z</time></trkpt><trkpt lat="43.2296317" lon="12.030016"><ele>497.0</ele><time>2026-04-12T09:07:19.623Z</time></trkpt><trkpt lat="43.2296563" lon="12.0301259"><ele>498.99999999999994</ele><time>2026-04-12T09:07:20.622Z</time></trkpt><trkpt lat="43.2296785" lon="12.0302299"><ele>501.0</ele><time>2026-04-12T09:07:21.624Z</time></trkpt><trkpt lat="43.229697" lon="12.0303407"><ele>503.0</ele><time>2026-04-12T09:07:22.619Z</time></trkpt><trkpt lat="43.2297092" lon="12.0304528"><ele>505.0</ele><time>2026-04-12T09:07:23.622Z</time></trkpt><trkpt lat="43.2297065" lon="12.0305573"><ele>506.99999999999994</ele><time>2026-04-12T09:07:24.621Z</time></trkpt><trkpt lat="43.2297035" lon="12.0306616"><ele>509.0</ele><time>2026-04-12T09:07:25.623Z</time></trkpt><trkpt lat="43.2296951" lon="12.0307673"><ele>510.8571428571428</ele><time>2026-04-12T09:07:26.624Z</time></trkpt><trkpt lat="43.2296709" lon="12.0308537"><ele>512.7142857142857</ele><time>2026-04-12T09:07:27.624Z</time></trkpt><trkpt lat="43.2296388" lon="12.030933"><ele>514.5714285714286</ele><time>2026-04-12T09:07:28.625Z</time></trkpt><trkpt lat="43.2296" lon="12.0310082"><ele>516.4285714285713</ele><time>2026-04-12T09:07:29.621Z</time></trkpt><trkpt lat="43.2295655" lon="12.0310875"><ele>518.2857142857142</ele><time>2026-04-12T09:07:30.624Z</time></trkpt><trkpt lat="43.2295134" lon="12.0311663"><ele>520.1428571428571</ele><time>2026-04-12T09:07:31.629Z</time></trkpt><trkpt lat="43.2294495" lon="12.0312319"><ele>522.0</ele><time>2026-04-12T09:07:32.626Z</time></trkpt><trkpt lat="43.2293838" lon="12.0312833"><ele>522.0</ele><time>2026-04-12T09:07:33.624Z</time></trkpt><trkpt lat="43.2293167" lon="12.0314014"><ele>522.0</ele><time>2026-04-12T09:07:35.619Z</time></trkpt><trkpt lat="43.2292844" lon="12.031558"><ele>522.0</ele><time>2026-04-12T09:07:37.623Z</time></trkpt><trkpt lat="43.2292719" lon="12.0316731"><ele>522.0</ele><time>2026-04-12T09:07:38.623Z</time></trkpt><trkpt lat="43.2292512" lon="12.0318015"><ele>522.0</ele><time>2026-04-12T09:07:39.62Z</time></trkpt><trkpt lat="43.2292392" lon="12.0319378"><ele>522.4</ele><time>2026-04-12T09:07:40.618Z</time></trkpt><trkpt lat="43.2292324" lon="12.0320795"><ele>522.8000000000001</ele><time>2026-04-12T09:07:41.617Z</time></trkpt><trkpt lat="43.2292319" lon="12.032217"><ele>523.2</ele><time>2026-04-12T09:07:42.609Z</time></trkpt><trkpt lat="43.2292273" lon="12.0323394"><ele>523.6</ele><time>2026-04-12T09:07:43.611Z</time></trkpt><trkpt lat="43.2292351" lon="12.0324599"><ele>524.0</ele><time>2026-04-12T09:07:44.613Z</time></trkpt><trkpt lat="43.2292494" lon="12.0325652"><ele>524.1666666666666</ele><time>2026-04-12T09:07:45.612Z</time></trkpt><trkpt lat="43.2292512" lon="12.0326832"><ele>524.3333333333333</ele><time>2026-04-12T09:07:46.624Z</time></trkpt><trkpt lat="43.2292554" lon="12.0328026"><ele>524.5</ele><time>2026-04-12T09:07:47.612Z</time></trkpt><trkpt lat="43.2292694" lon="12.0329059"><ele>524.6666666666666</ele><time>2026-04-12T09:07:48.618Z</time></trkpt><trkpt lat="43.2293024" lon="12.0329935"><ele>524.8333333333334</ele><time>2026-04-12T09:07:49.612Z</time></trkpt><trkpt lat="43.2293386" lon="12.0330712"><ele>525.0</ele><time>2026-04-12T09:07:50.614Z</time></trkpt><trkpt lat="43.2293803" lon="12.0331413"><ele>525.0</ele><time>2026-04-12T09:07:51.618Z</time></trkpt><trkpt lat="43.2294363" lon="12.0332747"><ele>525.0</ele><time>2026-04-12T09:07:53.616Z</time></trkpt><trkpt lat="43.229465" lon="12.0334045"><ele>525.0</ele><time>2026-04-12T09:07:55.621Z</time></trkpt><trkpt lat="43.2295152" lon="12.0335794"><ele>525.0</ele><time>2026-04-12T09:07:57.619Z</time></trkpt><trkpt lat="43.2295572" lon="12.033707"><ele>524.8</ele><time>2026-04-12T09:07:58.614Z</time></trkpt><trkpt lat="43.2296016" lon="12.0338336"><ele>524.6</ele><time>2026-04-12T09:07:59.62Z</time></trkpt><trkpt lat="43.2296475" lon="12.0339533"><ele>524.4</ele><time>2026-04-12T09:08:00.62Z</time></trkpt><trkpt lat="43.2297033" lon="12.0340577"><ele>524.2</ele><time>2026-04-12T09:08:01.628Z</time></trkpt><trkpt lat="43.2297554" lon="12.0341526"><ele>524.0</ele><time>2026-04-12T09:08:02.622Z</time></trkpt><trkpt lat="43.2297966" lon="12.0342467"><ele>524.6666666666666</ele><time>2026-04-12T09:08:03.62Z</time></trkpt><trkpt lat="43.229821" lon="12.0343375"><ele>525.3333333333333</ele><time>2026-04-12T09:08:04.621Z</time></trkpt><trkpt lat="43.2298341" lon="12.0344308"><ele>526.0</ele><time>2026-04-12T09:08:05.621Z</time></trkpt><trkpt lat="43.2298438" lon="12.0345173"><ele>526.6666666666666</ele><time>2026-04-12T09:08:06.625Z</time></trkpt><trkpt lat="43.2298175" lon="12.0346563"><ele>527.3333333333334</ele><time>2026-04-12T09:08:08.621Z</time></trkpt><trkpt lat="43.2297473" lon="12.0347181"><ele>528.0</ele><time>2026-04-12T09:08:10.63Z</time></trkpt><trkpt lat="43.2296303" lon="12.03475"><ele>528.0</ele><time>2026-04-12T09:08:12.615Z</time></trkpt><trkpt lat="43.2295553" lon="12.0347458"><ele>528.0</ele><time>2026-04-12T09:08:13.615Z</time></trkpt><trkpt lat="43.2294693" lon="12.0347283"><ele>528.0</ele><time>2026-04-12T09:08:14.616Z</time></trkpt><trkpt lat="43.2293759" lon="12.0347257"><ele>528.0</ele><time>2026-04-12T09:08:15.608Z</time></trkpt><trkpt lat="43.2292788" lon="12.0347258"><ele>528.0</ele><time>2026-04-12T09:08:16.611Z</time></trkpt><trkpt lat="43.2291926" lon="12.0347295"><ele>528.0</ele><time>2026-04-12T09:08:17.625Z</time></trkpt><trkpt lat="43.2291194" lon="12.0347314"><ele>528.0</ele><time>2026-04-12T09:08:18.611Z</time></trkpt><trkpt lat="43.2290573" lon="12.0347483"><ele>528.0</ele><time>2026-04-12T09:08:19.614Z</time></trkpt><trkpt lat="43.228953" lon="12.0348181"><ele>528.0</ele><time>2026-04-12T09:08:21.618Z</time></trkpt><trkpt lat="43.2288634" lon="12.0348793"><ele>528.0</ele><time>2026-04-12T09:08:23.618Z</time></trkpt><trkpt lat="43.2287685" lon="12.0349716"><ele>528.0</ele><time>2026-04-12T09:08:25.618Z</time></trkpt><trkpt lat="43.2287123" lon="12.0350306"><ele>530.0</ele><time>2026-04-12T09:08:26.616Z</time></trkpt><trkpt lat="43.2286546" lon="12.0350834"><ele>532.0</ele><time>2026-04-12T09:08:27.618Z</time></trkpt><trkpt lat="43.2285956" lon="12.0351409"><ele>534.0</ele><time>2026-04-12T09:08:28.615Z</time></trkpt><trkpt lat="43.2285395" lon="12.0351942"><ele>536.0</ele><time>2026-04-12T09:08:29.617Z</time></trkpt><trkpt lat="43.2284822" lon="12.035239"><ele>538.0</ele><time>2026-04-12T09:08:30.616Z</time></trkpt><trkpt lat="43.2284229" lon="12.0353721"><ele>540.0</ele><time>2026-04-12T09:08:32.62Z</time></trkpt><trkpt lat="43.2283856" lon="12.0354566"><ele>540.0</ele><time>2026-04-12T09:08:33.62Z</time></trkpt><trkpt lat="43.2283313" lon="12.0355311"><ele>540.0</ele><time>2026-04-12T09:08:34.618Z</time></trkpt><trkpt lat="43.2282812" lon="12.0356114"><ele>540.0</ele><time>2026-04-12T09:08:35.618Z</time></trkpt><trkpt lat="43.2282397" lon="12.0357077"><ele>540.0</ele><time>2026-04-12T09:08:36.626Z</time></trkpt><trkpt lat="43.2282008" lon="12.0358033"><ele>540.0</ele><time>2026-04-12T09:08:37.62Z</time></trkpt><trkpt lat="43.2281644" lon="12.0358872"><ele>540.0</ele><time>2026-04-12T09:08:38.619Z</time></trkpt><trkpt lat="43.2281275" lon="12.0359718"><ele>538.5</ele><time>2026-04-12T09:08:39.618Z</time></trkpt><trkpt lat="43.2281015" lon="12.03606"><ele>537.0</ele><time>2026-04-12T09:08:40.618Z</time></trkpt><trkpt lat="43.2280826" lon="12.0361633"><ele>535.5</ele><time>2026-04-12T09:08:41.619Z</time></trkpt><trkpt lat="43.2280645" lon="12.0362912"><ele>534.0</ele><time>2026-04-12T09:08:42.617Z</time></trkpt><trkpt lat="43.2280526" lon="12.036421"><ele>532.5</ele><time>2026-04-12T09:08:43.617Z</time></trkpt><trkpt lat="43.2280525" lon="12.03653"><ele>531.0</ele><time>2026-04-12T09:08:44.616Z</time></trkpt><trkpt lat="43.2280436" lon="12.0366461"><ele>530.8333333333334</ele><time>2026-04-12T09:08:45.616Z</time></trkpt><trkpt lat="43.228034" lon="12.0367682"><ele>530.6666666666666</ele><time>2026-04-12T09:08:46.615Z</time></trkpt><trkpt lat="43.2280261" lon="12.0368919"><ele>530.5</ele><time>2026-04-12T09:08:47.619Z</time></trkpt><trkpt lat="43.2280283" lon="12.0369996"><ele>530.3333333333333</ele><time>2026-04-12T09:08:48.63Z</time></trkpt><trkpt lat="43.2280365" lon="12.0371002"><ele>530.1666666666666</ele><time>2026-04-12T09:08:49.62Z</time></trkpt><trkpt lat="43.2280516" lon="12.0371984"><ele>530.0</ele><time>2026-04-12T09:08:50.621Z</time></trkpt><trkpt lat="43.2280697" lon="12.037298"><ele>530.0</ele><time>2026-04-12T09:08:51.618Z</time></trkpt><trkpt lat="43.2281003" lon="12.0374048"><ele>530.0</ele><time>2026-04-12T09:08:52.62Z</time></trkpt><trkpt lat="43.2281342" lon="12.0375001"><ele>530.0</ele><time>2026-04-12T09:08:53.622Z</time></trkpt><trkpt lat="43.228173" lon="12.0376009"><ele>530.0</ele><time>2026-04-12T09:08:54.621Z</time></trkpt><trkpt lat="43.2282129" lon="12.0377025"><ele>530.0</ele><time>2026-04-12T09:08:55.621Z</time></trkpt><trkpt lat="43.228263" lon="12.0377961"><ele>530.0</ele><time>2026-04-12T09:08:56.62Z</time></trkpt><trkpt lat="43.2283109" lon="12.0378774"><ele>532.0</ele><time>2026-04-12T09:08:57.623Z</time></trkpt><trkpt lat="43.2283576" lon="12.0379629"><ele>534.0</ele><time>2026-04-12T09:08:58.623Z</time></trkpt><trkpt lat="43.2283975" lon="12.0380682"><ele>536.0</ele><time>2026-04-12T09:08:59.621Z</time></trkpt><trkpt lat="43.2284202" lon="12.0381808"><ele>538.0</ele><time>2026-04-12T09:09:00.62Z</time></trkpt><trkpt lat="43.2284287" lon="12.0383177"><ele>540.0</ele><time>2026-04-12T09:09:01.622Z</time></trkpt><trkpt lat="43.2284294" lon="12.038464"><ele>540.0</ele><time>2026-04-12T09:09:02.618Z</time></trkpt><trkpt lat="43.2284293" lon="12.0386016"><ele>540.0</ele><time>2026-04-12T09:09:03.62Z</time></trkpt><trkpt lat="43.2284219" lon="12.0387376"><ele>540.0</ele><time>2026-04-12T09:09:04.618Z</time></trkpt><trkpt lat="43.2284102" lon="12.0388598"><ele>540.0</ele><time>2026-04-12T09:09:05.617Z</time></trkpt><trkpt lat="43.2283974" lon="12.0389669"><ele>540.0</ele><time>2026-04-12T09:09:06.626Z</time></trkpt><trkpt lat="43.2283841" lon="12.039052"><ele>540.0</ele><time>2026-04-12T09:09:07.619Z</time></trkpt><trkpt lat="43.228364" lon="12.0391907"><ele>539.8</ele><time>2026-04-12T09:09:09.618Z</time></trkpt><trkpt lat="43.228379" lon="12.0393188"><ele>539.6</ele><time>2026-04-12T09:09:11.623Z</time></trkpt><trkpt lat="43.2283931" lon="12.0394474"><ele>539.4</ele><time>2026-04-12T09:09:13.622Z</time></trkpt><trkpt lat="43.2284298" lon="12.0396064"><ele>539.2</ele><time>2026-04-12T09:09:15.621Z</time></trkpt><trkpt lat="43.2284663" lon="12.0396883"><ele>539.0</ele><time>2026-04-12T09:09:16.62Z</time></trkpt><trkpt lat="43.2285325" lon="12.0398236"><ele>539.0</ele><time>2026-04-12T09:09:18.624Z</time></trkpt><trkpt lat="43.2285848" lon="12.039939"><ele>539.0</ele><time>2026-04-12T09:09:20.623Z</time></trkpt><trkpt lat="43.228632" lon="12.0400339"><ele>539.0</ele><time>2026-04-12T09:09:22.634Z</time></trkpt><trkpt lat="43.2286656" lon="12.0401616"><ele>539.0</ele><time>2026-04-12T09:09:32.626Z</time></trkpt><trkpt lat="43.2287035" lon="12.040326"><ele>539.0</ele><time>2026-04-12T09:09:34.615Z</time></trkpt><trkpt lat="43.2287238" lon="12.0404366"><ele>539.3333333333333</ele><time>2026-04-12T09:09:35.614Z</time></trkpt><trkpt lat="43.2287512" lon="12.0405501"><ele>539.6666666666666</ele><time>2026-04-12T09:09:36.626Z</time></trkpt><trkpt lat="43.2287743" lon="12.0406477"><ele>540.0</ele><time>2026-04-12T09:09:37.618Z</time></trkpt><trkpt lat="43.2287914" lon="12.0407524"><ele>540.3333333333334</ele><time>2026-04-12T09:09:38.618Z</time></trkpt><trkpt lat="43.2288132" lon="12.040864"><ele>540.6666666666667</ele><time>2026-04-12T09:09:39.621Z</time></trkpt><trkpt lat="43.2288354" lon="12.0409816"><ele>541.0</ele><time>2026-04-12T09:09:40.617Z</time></trkpt><trkpt lat="43.2288515" lon="12.0410801"><ele>541.0</ele><time>2026-04-12T09:09:41.618Z</time></trkpt><trkpt lat="43.2288587" lon="12.0412434"><ele>541.0</ele><time>2026-04-12T09:09:43.627Z</time></trkpt><trkpt lat="43.2288604" lon="12.0413306"><ele>541.0</ele><time>2026-04-12T09:09:44.626Z</time></trkpt><trkpt lat="43.2288559" lon="12.0414265"><ele>541.0</ele><time>2026-04-12T09:09:45.631Z</time></trkpt><trkpt lat="43.2288499" lon="12.0415255"><ele>541.0</ele><time>2026-04-12T09:09:46.627Z</time></trkpt><trkpt lat="43.2288459" lon="12.0416218"><ele>541.0</ele><time>2026-04-12T09:09:47.628Z</time></trkpt><trkpt lat="43.2288371" lon="12.0417112"><ele>541.0</ele><time>2026-04-12T09:09:48.628Z</time></trkpt><trkpt lat="43.2288107" lon="12.0417959"><ele>541.0</ele><time>2026-04-12T09:09:49.629Z</time></trkpt><trkpt lat="43.2287779" lon="12.0418834"><ele>541.0</ele><time>2026-04-12T09:09:50.64Z</time></trkpt><trkpt lat="43.2287379" lon="12.041983"><ele>541.0</ele><time>2026-04-12T09:09:51.628Z</time></trkpt><trkpt lat="43.2286959" lon="12.0420833"><ele>541.0</ele><time>2026-04-12T09:09:52.629Z</time></trkpt><trkpt lat="43.2286693" lon="12.0421929"><ele>541.0</ele><time>2026-04-12T09:09:53.626Z</time></trkpt><trkpt lat="43.2286703" lon="12.0422991"><ele>541.0</ele><time>2026-04-12T09:09:54.625Z</time></trkpt><trkpt lat="43.2286933" lon="12.0424021"><ele>541.0</ele><time>2026-04-12T09:09:55.625Z</time></trkpt><trkpt lat="43.2287218" lon="12.0425118"><ele>541.0</ele><time>2026-04-12T09:09:56.629Z</time></trkpt><trkpt lat="43.2287393" lon="12.0426168"><ele>541.0</ele><time>2026-04-12T09:09:57.629Z</time></trkpt><trkpt lat="43.2287521" lon="12.0427215"><ele>541.0</ele><time>2026-04-12T09:09:58.631Z</time></trkpt><trkpt lat="43.2287728" lon="12.0428186"><ele>541.0</ele><time>2026-04-12T09:09:59.628Z</time></trkpt><trkpt lat="43.2288039" lon="12.0429104"><ele>539.8</ele><time>2026-04-12T09:10:00.629Z</time></trkpt><trkpt lat="43.2288385" lon="12.0430622"><ele>538.6</ele><time>2026-04-12T09:10:02.629Z</time></trkpt><trkpt lat="43.2288373" lon="12.0432297"><ele>537.4</ele><time>2026-04-12T09:10:04.628Z</time></trkpt><trkpt lat="43.2288558" lon="12.043321"><ele>536.2</ele><time>2026-04-12T09:10:05.628Z</time></trkpt><trkpt lat="43.228884" lon="12.0434125"><ele>535.0</ele><time>2026-04-12T09:10:06.639Z</time></trkpt><trkpt lat="43.2289173" lon="12.0435024"><ele>535.0</ele><time>2026-04-12T09:10:07.628Z</time></trkpt><trkpt lat="43.2289612" lon="12.0435874"><ele>535.0</ele><time>2026-04-12T09:10:08.631Z</time></trkpt><trkpt lat="43.2290084" lon="12.0436743"><ele>535.0</ele><time>2026-04-12T09:10:09.629Z</time></trkpt><trkpt lat="43.2290524" lon="12.0437688"><ele>535.0</ele><time>2026-04-12T09:10:10.63Z</time></trkpt><trkpt lat="43.2290842" lon="12.043877"><ele>535.0</ele><time>2026-04-12T09:10:11.627Z</time></trkpt><trkpt lat="43.2291076" lon="12.0439822"><ele>535.0</ele><time>2026-04-12T09:10:12.628Z</time></trkpt><trkpt lat="43.2291251" lon="12.0440943"><ele>535.8571428571429</ele><time>2026-04-12T09:10:13.623Z</time></trkpt><trkpt lat="43.229136" lon="12.0442028"><ele>536.7142857142858</ele><time>2026-04-12T09:10:14.627Z</time></trkpt><trkpt lat="43.2291508" lon="12.0443038"><ele>537.5714285714287</ele><time>2026-04-12T09:10:15.626Z</time></trkpt><trkpt lat="43.2291837" lon="12.0443966"><ele>538.4285714285714</ele><time>2026-04-12T09:10:16.629Z</time></trkpt><trkpt lat="43.2292257" lon="12.0444785"><ele>539.2857142857143</ele><time>2026-04-12T09:10:17.63Z</time></trkpt><trkpt lat="43.2292787" lon="12.0445452"><ele>540.1428571428572</ele><time>2026-04-12T09:10:18.629Z</time></trkpt><trkpt lat="43.2293405" lon="12.0445858"><ele>541.0</ele><time>2026-04-12T09:10:19.631Z</time></trkpt><trkpt lat="43.2294023" lon="12.0446196"><ele>541.0</ele><time>2026-04-12T09:10:20.632Z</time></trkpt><trkpt lat="43.229473" lon="12.0446287"><ele>541.0</ele><time>2026-04-12T09:10:21.639Z</time></trkpt><trkpt lat="43.2295475" lon="12.0446335"><ele>541.0</ele><time>2026-04-12T09:10:22.625Z</time></trkpt><trkpt lat="43.2296249" lon="12.044638"><ele>541.0</ele><time>2026-04-12T09:10:23.627Z</time></trkpt><trkpt lat="43.229707" lon="12.0446366"><ele>541.0</ele><time>2026-04-12T09:10:24.627Z</time></trkpt><trkpt lat="43.2297932" lon="12.044629"><ele>541.0</ele><time>2026-04-12T09:10:25.632Z</time></trkpt><trkpt lat="43.2298806" lon="12.0446211"><ele>541.6666666666667</ele><time>2026-04-12T09:10:26.625Z</time></trkpt><trkpt lat="43.22997" lon="12.0446203"><ele>542.3333333333334</ele><time>2026-04-12T09:10:27.628Z</time></trkpt><trkpt lat="43.2300544" lon="12.0446546"><ele>543.0</ele><time>2026-04-12T09:10:28.628Z</time></trkpt><trkpt lat="43.2301347" lon="12.0447101"><ele>543.6666666666666</ele><time>2026-04-12T09:10:29.626Z</time></trkpt><trkpt lat="43.2302101" lon="12.0447768"><ele>544.3333333333333</ele><time>2026-04-12T09:10:30.628Z</time></trkpt><trkpt lat="43.2302864" lon="12.0448376"><ele>545.0</ele><time>2026-04-12T09:10:31.632Z</time></trkpt><trkpt lat="43.2303681" lon="12.0448892"><ele>545.0</ele><time>2026-04-12T09:10:32.628Z</time></trkpt><trkpt lat="43.2304512" lon="12.0449289"><ele>545.0</ele><time>2026-04-12T09:10:33.625Z</time></trkpt><trkpt lat="43.2305288" lon="12.044949"><ele>545.0</ele><time>2026-04-12T09:10:34.625Z</time></trkpt><trkpt lat="43.2306007" lon="12.0449713"><ele>545.0</ele><time>2026-04-12T09:10:35.629Z</time></trkpt><trkpt lat="43.2306658" lon="12.0450139"><ele>545.0</ele><time>2026-04-12T09:10:36.64Z</time></trkpt><trkpt lat="43.2307278" lon="12.045083"><ele>545.0</ele><time>2026-04-12T09:10:37.628Z</time></trkpt><trkpt lat="43.2307885" lon="12.0451569"><ele>546.1666666666666</ele><time>2026-04-12T09:10:38.625Z</time></trkpt><trkpt lat="43.2308523" lon="12.0452433"><ele>547.3333333333333</ele><time>2026-04-12T09:10:39.628Z</time></trkpt><trkpt lat="43.2309209" lon="12.0453175"><ele>548.5</ele><time>2026-04-12T09:10:40.626Z</time></trkpt><trkpt lat="43.2309745" lon="12.0453909"><ele>549.6666666666666</ele><time>2026-04-12T09:10:41.627Z</time></trkpt><trkpt lat="43.2310206" lon="12.04548"><ele>550.8333333333334</ele><time>2026-04-12T09:10:42.628Z</time></trkpt><trkpt lat="43.2310659" lon="12.0455879"><ele>552.0</ele><time>2026-04-12T09:10:43.628Z</time></trkpt><trkpt lat="43.2311257" lon="12.0456881"><ele>553.2</ele><time>2026-04-12T09:10:44.626Z</time></trkpt><trkpt lat="43.2311919" lon="12.0457987"><ele>554.4000000000001</ele><time>2026-04-12T09:10:45.632Z</time></trkpt><trkpt lat="43.2312605" lon="12.0459113"><ele>555.5999999999999</ele><time>2026-04-12T09:10:46.629Z</time></trkpt><trkpt lat="43.2313242" lon="12.0460107"><ele>556.8</ele><time>2026-04-12T09:10:47.629Z</time></trkpt><trkpt lat="43.2313776" lon="12.0461057"><ele>558.0</ele><time>2026-04-12T09:10:48.63Z</time></trkpt><trkpt lat="43.2314168" lon="12.0461925"><ele>558.0</ele><time>2026-04-12T09:10:49.629Z</time></trkpt><trkpt lat="43.2314528" lon="12.0462668"><ele>558.0</ele><time>2026-04-12T09:10:50.629Z</time></trkpt><trkpt lat="43.2314916" lon="12.0463438"><ele>558.0</ele><time>2026-04-12T09:10:51.628Z</time></trkpt><trkpt lat="43.2315348" lon="12.0464427"><ele>558.0</ele><time>2026-04-12T09:10:52.642Z</time></trkpt><trkpt lat="43.2315793" lon="12.0465658"><ele>558.0</ele><time>2026-04-12T09:10:53.623Z</time></trkpt><trkpt lat="43.2316183" lon="12.046697"><ele>558.0</ele><time>2026-04-12T09:10:54.625Z</time></trkpt><trkpt lat="43.2316629" lon="12.0468322"><ele>558.3333333333334</ele><time>2026-04-12T09:10:55.625Z</time></trkpt><trkpt lat="43.2317101" lon="12.0469542"><ele>558.6666666666666</ele><time>2026-04-12T09:10:56.625Z</time></trkpt><trkpt lat="43.2317539" lon="12.0470626"><ele>559.0</ele><time>2026-04-12T09:10:57.626Z</time></trkpt><trkpt lat="43.2317913" lon="12.0471671"><ele>559.3333333333333</ele><time>2026-04-12T09:10:58.63Z</time></trkpt><trkpt lat="43.2318252" lon="12.0472793"><ele>559.6666666666666</ele><time>2026-04-12T09:10:59.627Z</time></trkpt><trkpt lat="43.2318556" lon="12.0473871"><ele>560.0</ele><time>2026-04-12T09:11:00.626Z</time></trkpt><trkpt lat="43.2318783" lon="12.0474898"><ele>560.0</ele><time>2026-04-12T09:11:01.63Z</time></trkpt><trkpt lat="43.2318975" lon="12.0475791"><ele>560.0</ele><time>2026-04-12T09:11:02.62Z</time></trkpt><trkpt lat="43.2319526" lon="12.0477199"><ele>560.0</ele><time>2026-04-12T09:11:04.624Z</time></trkpt><trkpt lat="43.2320202" lon="12.047859"><ele>560.0</ele><time>2026-04-12T09:11:06.636Z</time></trkpt><trkpt lat="43.2320597" lon="12.047934"><ele>560.0</ele><time>2026-04-12T09:11:07.628Z</time></trkpt><trkpt lat="43.2321083" lon="12.0480221"><ele>560.0</ele><time>2026-04-12T09:11:08.628Z</time></trkpt><trkpt lat="43.2321559" lon="12.0481255"><ele>560.0</ele><time>2026-04-12T09:11:09.627Z</time></trkpt><trkpt lat="43.2322021" lon="12.0482364"><ele>560.0</ele><time>2026-04-12T09:11:10.626Z</time></trkpt><trkpt lat="43.232244" lon="12.0483594"><ele>560.0</ele><time>2026-04-12T09:11:11.622Z</time></trkpt><trkpt lat="43.2322874" lon="12.0484768"><ele>560.0</ele><time>2026-04-12T09:11:12.624Z</time></trkpt><trkpt lat="43.2323375" lon="12.048564"><ele>558.8</ele><time>2026-04-12T09:11:13.626Z</time></trkpt><trkpt lat="43.2323902" lon="12.0486344"><ele>557.6</ele><time>2026-04-12T09:11:14.627Z</time></trkpt><trkpt lat="43.2324728" lon="12.0486653"><ele>556.4</ele><time>2026-04-12T09:11:15.63Z</time></trkpt><trkpt lat="43.2325686" lon="12.048687"><ele>555.2</ele><time>2026-04-12T09:11:16.629Z</time></trkpt><trkpt lat="43.2326755" lon="12.0486951"><ele>554.0</ele><time>2026-04-12T09:11:17.627Z</time></trkpt><trkpt lat="43.232786" lon="12.0487147"><ele>554.0</ele><time>2026-04-12T09:11:18.626Z</time></trkpt><trkpt lat="43.2328785" lon="12.0487369"><ele>554.0</ele><time>2026-04-12T09:11:19.624Z</time></trkpt><trkpt lat="43.2329644" lon="12.0487505"><ele>554.0</ele><time>2026-04-12T09:11:20.625Z</time></trkpt><trkpt lat="43.2330438" lon="12.0487464"><ele>554.0</ele><time>2026-04-12T09:11:21.628Z</time></trkpt><trkpt lat="43.2331152" lon="12.0487343"><ele>554.0</ele><time>2026-04-12T09:11:22.623Z</time></trkpt><trkpt lat="43.2331891" lon="12.0487262"><ele>554.0</ele><time>2026-04-12T09:11:23.637Z</time></trkpt><trkpt lat="43.2332598" lon="12.0487229"><ele>555.6666666666666</ele><time>2026-04-12T09:11:24.623Z</time></trkpt><trkpt lat="43.2333293" lon="12.048714"><ele>557.3333333333333</ele><time>2026-04-12T09:11:25.626Z</time></trkpt><trkpt lat="43.2333955" lon="12.0486958"><ele>559.0</ele><time>2026-04-12T09:11:26.622Z</time></trkpt><trkpt lat="43.2335197" lon="12.0486906"><ele>560.6666666666666</ele><time>2026-04-12T09:11:28.621Z</time></trkpt><trkpt lat="43.2336422" lon="12.048681"><ele>562.3333333333334</ele><time>2026-04-12T09:11:30.625Z</time></trkpt><trkpt lat="43.2337011" lon="12.0486467"><ele>564.0</ele><time>2026-04-12T09:11:31.627Z</time></trkpt><trkpt lat="43.233763" lon="12.0486112"><ele>564.0</ele><time>2026-04-12T09:11:32.623Z</time></trkpt><trkpt lat="43.2338287" lon="12.0485842"><ele>564.0</ele><time>2026-04-12T09:11:33.623Z</time></trkpt><trkpt lat="43.2338952" lon="12.0485614"><ele>564.0</ele><time>2026-04-12T09:11:34.625Z</time></trkpt><trkpt lat="43.233962" lon="12.0485477"><ele>564.0</ele><time>2026-04-12T09:11:35.624Z</time></trkpt><trkpt lat="43.2340323" lon="12.0485563"><ele>564.0</ele><time>2026-04-12T09:11:36.632Z</time></trkpt><trkpt lat="43.2340876" lon="12.0486042"><ele>564.0</ele><time>2026-04-12T09:11:37.62Z</time></trkpt><trkpt lat="43.2341621" lon="12.0487389"><ele>564.6666666666666</ele><time>2026-04-12T09:11:39.623Z</time></trkpt><trkpt lat="43.2341857" lon="12.048831"><ele>565.3333333333334</ele><time>2026-04-12T09:11:40.624Z</time></trkpt><trkpt lat="43.2342152" lon="12.048937"><ele>566.0</ele><time>2026-04-12T09:11:41.628Z</time></trkpt><trkpt lat="43.234261" lon="12.0490417"><ele>566.6666666666667</ele><time>2026-04-12T09:11:42.622Z</time></trkpt><trkpt lat="43.2343126" lon="12.0491251"><ele>567.3333333333334</ele><time>2026-04-12T09:11:43.623Z</time></trkpt><trkpt lat="43.234362" lon="12.0491905"><ele>568.0</ele><time>2026-04-12T09:11:44.62Z</time></trkpt><trkpt lat="43.2344074" lon="12.0492593"><ele>569.2857142857142</ele><time>2026-04-12T09:11:45.624Z</time></trkpt><trkpt lat="43.2344485" lon="12.0493386"><ele>570.5714285714286</ele><time>2026-04-12T09:11:46.625Z</time></trkpt><trkpt lat="43.2344796" lon="12.0494304"><ele>571.8571428571429</ele><time>2026-04-12T09:11:47.626Z</time></trkpt><trkpt lat="43.2345136" lon="12.0495188"><ele>573.1428571428571</ele><time>2026-04-12T09:11:48.628Z</time></trkpt><trkpt lat="43.2345561" lon="12.0496009"><ele>574.4285714285714</ele><time>2026-04-12T09:11:49.626Z</time></trkpt><trkpt lat="43.2345929" lon="12.0496912"><ele>575.7142857142857</ele><time>2026-04-12T09:11:50.627Z</time></trkpt><trkpt lat="43.234622" lon="12.0497873"><ele>577.0</ele><time>2026-04-12T09:11:51.625Z</time></trkpt><trkpt lat="43.2346961" lon="12.0499186"><ele>577.4</ele><time>2026-04-12T09:11:53.629Z</time></trkpt><trkpt lat="43.2347697" lon="12.0499984"><ele>577.8000000000001</ele><time>2026-04-12T09:11:54.652Z</time></trkpt><trkpt lat="43.2348496" lon="12.0500888"><ele>578.2</ele><time>2026-04-12T09:11:55.622Z</time></trkpt><trkpt lat="43.2349135" lon="12.0501921"><ele>578.6</ele><time>2026-04-12T09:11:56.622Z</time></trkpt><trkpt lat="43.2349731" lon="12.0503093"><ele>579.0</ele><time>2026-04-12T09:11:57.621Z</time></trkpt><trkpt lat="43.2350228" lon="12.0504279"><ele>579.0</ele><time>2026-04-12T09:11:58.625Z</time></trkpt><trkpt lat="43.2350672" lon="12.050554"><ele>579.0</ele><time>2026-04-12T09:11:59.619Z</time></trkpt><trkpt lat="43.2351023" lon="12.0506774"><ele>579.0</ele><time>2026-04-12T09:12:00.622Z</time></trkpt><trkpt lat="43.2351356" lon="12.0508107"><ele>579.0</ele><time>2026-04-12T09:12:01.623Z</time></trkpt><trkpt lat="43.2351645" lon="12.0509549"><ele>579.0</ele><time>2026-04-12T09:12:02.622Z</time></trkpt><trkpt lat="43.2351972" lon="12.0510939"><ele>579.6666666666666</ele><time>2026-04-12T09:12:03.622Z</time></trkpt><trkpt lat="43.2352221" lon="12.051221"><ele>580.3333333333334</ele><time>2026-04-12T09:12:04.625Z</time></trkpt><trkpt lat="43.2352413" lon="12.0513405"><ele>581.0</ele><time>2026-04-12T09:12:05.623Z</time></trkpt><trkpt lat="43.2352519" lon="12.0514478"><ele>581.6666666666667</ele><time>2026-04-12T09:12:06.632Z</time></trkpt><trkpt lat="43.2352576" lon="12.0515459"><ele>582.3333333333334</ele><time>2026-04-12T09:12:07.623Z</time></trkpt><trkpt lat="43.2352706" lon="12.0516425"><ele>583.0</ele><time>2026-04-12T09:12:08.628Z</time></trkpt><trkpt lat="43.2353046" lon="12.0517316"><ele>581.1666666666667</ele><time>2026-04-12T09:12:09.627Z</time></trkpt><trkpt lat="43.2353436" lon="12.051826"><ele>579.3333333333334</ele><time>2026-04-12T09:12:10.627Z</time></trkpt><trkpt lat="43.235393" lon="12.0519178"><ele>577.5</ele><time>2026-04-12T09:12:11.626Z</time></trkpt><trkpt lat="43.2354458" lon="12.0520084"><ele>575.6666666666666</ele><time>2026-04-12T09:12:12.623Z</time></trkpt><trkpt lat="43.235506" lon="12.0521001"><ele>573.8333333333333</ele><time>2026-04-12T09:12:13.623Z</time></trkpt><trkpt lat="43.2355637" lon="12.0521983"><ele>572.0</ele><time>2026-04-12T09:12:14.627Z</time></trkpt><trkpt lat="43.2356193" lon="12.0523052"><ele>570.8000000000001</ele><time>2026-04-12T09:12:15.63Z</time></trkpt><trkpt lat="43.2356692" lon="12.0524145"><ele>569.6</ele><time>2026-04-12T09:12:16.629Z</time></trkpt><trkpt lat="43.2357182" lon="12.0525249"><ele>568.4000000000001</ele><time>2026-04-12T09:12:17.629Z</time></trkpt><trkpt lat="43.2357581" lon="12.052626"><ele>567.2</ele><time>2026-04-12T09:12:18.628Z</time></trkpt><trkpt lat="43.2358105" lon="12.0527277"><ele>566.0</ele><time>2026-04-12T09:12:19.628Z</time></trkpt><trkpt lat="43.2358777" lon="12.052816"><ele>566.0</ele><time>2026-04-12T09:12:20.628Z</time></trkpt><trkpt lat="43.2359462" lon="12.0528962"><ele>566.0</ele><time>2026-04-12T09:12:21.628Z</time></trkpt><trkpt lat="43.2360047" lon="12.0529765"><ele>566.0</ele><time>2026-04-12T09:12:22.629Z</time></trkpt><trkpt lat="43.2360696" lon="12.0530535"><ele>566.0</ele><time>2026-04-12T09:12:23.631Z</time></trkpt><trkpt lat="43.2361312" lon="12.0531389"><ele>566.0</ele><time>2026-04-12T09:12:24.643Z</time></trkpt><trkpt lat="43.2361952" lon="12.0532397"><ele>566.0</ele><time>2026-04-12T09:12:25.632Z</time></trkpt><trkpt lat="43.2362527" lon="12.0533546"><ele>565.3333333333333</ele><time>2026-04-12T09:12:26.631Z</time></trkpt><trkpt lat="43.2363026" lon="12.053471"><ele>564.6666666666666</ele><time>2026-04-12T09:12:27.628Z</time></trkpt><trkpt lat="43.2363503" lon="12.0535816"><ele>564.0</ele><time>2026-04-12T09:12:28.631Z</time></trkpt><trkpt lat="43.2363874" lon="12.053689"><ele>563.3333333333334</ele><time>2026-04-12T09:12:29.631Z</time></trkpt><trkpt lat="43.236415" lon="12.0537883"><ele>562.6666666666667</ele><time>2026-04-12T09:12:30.63Z</time></trkpt><trkpt lat="43.2364299" lon="12.0538859"><ele>562.0</ele><time>2026-04-12T09:12:31.634Z</time></trkpt><trkpt lat="43.2364454" lon="12.0539797"><ele>562.0</ele><time>2026-04-12T09:12:32.628Z</time></trkpt><trkpt lat="43.2364559" lon="12.054069"><ele>562.0</ele><time>2026-04-12T09:12:33.631Z</time></trkpt><trkpt lat="43.2364726" lon="12.0541654"><ele>562.0</ele><time>2026-04-12T09:12:34.626Z</time></trkpt><trkpt lat="43.236495" lon="12.0542776"><ele>562.0</ele><time>2026-04-12T09:12:35.632Z</time></trkpt><trkpt lat="43.2365242" lon="12.0544022"><ele>562.0</ele><time>2026-04-12T09:12:36.643Z</time></trkpt><trkpt lat="43.2365591" lon="12.0545167"><ele>562.0</ele><time>2026-04-12T09:12:37.634Z</time></trkpt><trkpt lat="43.2365827" lon="12.0546248"><ele>564.4</ele><time>2026-04-12T09:12:38.632Z</time></trkpt><trkpt lat="43.2366014" lon="12.0547348"><ele>566.8000000000001</ele><time>2026-04-12T09:12:39.629Z</time></trkpt><trkpt lat="43.236612" lon="12.0548631"><ele>569.2</ele><time>2026-04-12T09:12:40.632Z</time></trkpt><trkpt lat="43.2366127" lon="12.055005"><ele>571.6</ele><time>2026-04-12T09:12:41.633Z</time></trkpt><trkpt lat="43.2366079" lon="12.0551456"><ele>574.0</ele><time>2026-04-12T09:12:42.632Z</time></trkpt><trkpt lat="43.2365959" lon="12.0552813"><ele>574.8333333333334</ele><time>2026-04-12T09:12:43.631Z</time></trkpt><trkpt lat="43.2365863" lon="12.0554081"><ele>575.6666666666667</ele><time>2026-04-12T09:12:44.635Z</time></trkpt><trkpt lat="43.2365812" lon="12.0555331"><ele>576.5</ele><time>2026-04-12T09:12:45.63Z</time></trkpt><trkpt lat="43.2365833" lon="12.055649"><ele>577.3333333333334</ele><time>2026-04-12T09:12:46.631Z</time></trkpt><trkpt lat="43.2365915" lon="12.0557678"><ele>578.1666666666666</ele><time>2026-04-12T09:12:47.632Z</time></trkpt><trkpt lat="43.2366069" lon="12.0558762"><ele>579.0</ele><time>2026-04-12T09:12:48.63Z</time></trkpt><trkpt lat="43.2366275" lon="12.0559704"><ele>579.0</ele><time>2026-04-12T09:12:49.634Z</time></trkpt><trkpt lat="43.2366404" lon="12.0560633"><ele>579.0</ele><time>2026-04-12T09:12:50.631Z</time></trkpt><trkpt lat="43.2366543" lon="12.0562203"><ele>579.0</ele><time>2026-04-12T09:12:52.631Z</time></trkpt><trkpt lat="43.2366911" lon="12.0563454"><ele>579.0</ele><time>2026-04-12T09:12:54.627Z</time></trkpt><trkpt lat="43.2367348" lon="12.0564703"><ele>579.0</ele><time>2026-04-12T09:12:56.628Z</time></trkpt><trkpt lat="43.2367836" lon="12.056616"><ele>577.0</ele><time>2026-04-12T09:12:58.629Z</time></trkpt><trkpt lat="43.2368264" lon="12.0567569"><ele>575.0</ele><time>2026-04-12T09:13:00.624Z</time></trkpt><trkpt lat="43.2368702" lon="12.0568847"><ele>573.0</ele><time>2026-04-12T09:13:02.624Z</time></trkpt><trkpt lat="43.2369184" lon="12.0570123"><ele>571.0</ele><time>2026-04-12T09:13:04.623Z</time></trkpt><trkpt lat="43.2369777" lon="12.057158"><ele>569.0</ele><time>2026-04-12T09:13:06.633Z</time></trkpt><trkpt lat="43.2370254" lon="12.0572559"><ele>569.0</ele><time>2026-04-12T09:13:07.626Z</time></trkpt><trkpt lat="43.2370917" lon="12.0573635"><ele>569.0</ele><time>2026-04-12T09:13:08.629Z</time></trkpt><trkpt lat="43.2371841" lon="12.0574815"><ele>569.0</ele><time>2026-04-12T09:13:09.628Z</time></trkpt><trkpt lat="43.2372703" lon="12.0575855"><ele>569.0</ele><time>2026-04-12T09:13:10.625Z</time></trkpt><trkpt lat="43.2373354" lon="12.0576976"><ele>569.0</ele><time>2026-04-12T09:13:11.624Z</time></trkpt><trkpt lat="43.2373876" lon="12.0578321"><ele>568.2</ele><time>2026-04-12T09:13:12.626Z</time></trkpt><trkpt lat="43.2374384" lon="12.0579756"><ele>567.4</ele><time>2026-04-12T09:13:13.624Z</time></trkpt><trkpt lat="43.2374773" lon="12.0581085"><ele>566.6</ele><time>2026-04-12T09:13:14.626Z</time></trkpt><trkpt lat="43.2375075" lon="12.0582247"><ele>565.8</ele><time>2026-04-12T09:13:15.623Z</time></trkpt><trkpt lat="43.237521" lon="12.0583197"><ele>565.0</ele><time>2026-04-12T09:13:16.625Z</time></trkpt><trkpt lat="43.2374828" lon="12.058461"><ele>563.8333333333334</ele><time>2026-04-12T09:13:18.627Z</time></trkpt><trkpt lat="43.2374447" lon="12.058534"><ele>562.6666666666667</ele><time>2026-04-12T09:13:19.627Z</time></trkpt><trkpt lat="43.237393" lon="12.0586026"><ele>561.5</ele><time>2026-04-12T09:13:20.631Z</time></trkpt><trkpt lat="43.2373469" lon="12.0586655"><ele>560.3333333333334</ele><time>2026-04-12T09:13:21.629Z</time></trkpt><trkpt lat="43.2373237" lon="12.058783"><ele>559.1666666666666</ele><time>2026-04-12T09:13:23.624Z</time></trkpt><trkpt lat="43.2373714" lon="12.0588945"><ele>558.0</ele><time>2026-04-12T09:13:25.627Z</time></trkpt><trkpt lat="43.2374116" lon="12.0590339"><ele>556.3333333333334</ele><time>2026-04-12T09:13:27.626Z</time></trkpt><trkpt lat="43.2374302" lon="12.059143"><ele>554.6666666666666</ele><time>2026-04-12T09:13:28.629Z</time></trkpt><trkpt lat="43.2374417" lon="12.0592637"><ele>553.0</ele><time>2026-04-12T09:13:29.626Z</time></trkpt><trkpt lat="43.2374676" lon="12.0593643"><ele>551.3333333333333</ele><time>2026-04-12T09:13:30.627Z</time></trkpt><trkpt lat="43.2374983" lon="12.0594481"><ele>549.6666666666666</ele><time>2026-04-12T09:13:31.63Z</time></trkpt><trkpt lat="43.2375705" lon="12.0595684"><ele>548.0</ele><time>2026-04-12T09:13:33.629Z</time></trkpt><trkpt lat="43.2376136" lon="12.0596332"><ele>548.0</ele><time>2026-04-12T09:13:34.63Z</time></trkpt><trkpt lat="43.2376553" lon="12.059705"><ele>548.0</ele><time>2026-04-12T09:13:35.631Z</time></trkpt><trkpt lat="43.2376877" lon="12.0597892"><ele>548.0</ele><time>2026-04-12T09:13:36.639Z</time></trkpt><trkpt lat="43.2377109" lon="12.0598827"><ele>548.0</ele><time>2026-04-12T09:13:37.627Z</time></trkpt><trkpt lat="43.2377168" lon="12.0599889"><ele>548.0</ele><time>2026-04-12T09:13:38.63Z</time></trkpt><trkpt lat="43.2377028" lon="12.0601094"><ele>548.0</ele><time>2026-04-12T09:13:39.626Z</time></trkpt><trkpt lat="43.2376764" lon="12.060233"><ele>547.0</ele><time>2026-04-12T09:13:40.628Z</time></trkpt><trkpt lat="43.2376509" lon="12.0603567"><ele>546.0</ele><time>2026-04-12T09:13:41.628Z</time></trkpt><trkpt lat="43.2376359" lon="12.0604879"><ele>545.0</ele><time>2026-04-12T09:13:42.628Z</time></trkpt><trkpt lat="43.2376365" lon="12.0606196"><ele>544.0</ele><time>2026-04-12T09:13:43.627Z</time></trkpt><trkpt lat="43.2376445" lon="12.0607491"><ele>543.0</ele><time>2026-04-12T09:13:44.634Z</time></trkpt><trkpt lat="43.2376482" lon="12.0608758"><ele>542.4</ele><time>2026-04-12T09:13:45.629Z</time></trkpt><trkpt lat="43.2376565" lon="12.061004"><ele>541.8</ele><time>2026-04-12T09:13:46.634Z</time></trkpt><trkpt lat="43.2376798" lon="12.0611292"><ele>541.2</ele><time>2026-04-12T09:13:47.628Z</time></trkpt><trkpt lat="43.2377094" lon="12.0612475"><ele>540.6</ele><time>2026-04-12T09:13:48.63Z</time></trkpt><trkpt lat="43.2377442" lon="12.0613578"><ele>540.0</ele><time>2026-04-12T09:13:49.63Z</time></trkpt><trkpt lat="43.2377709" lon="12.0614656"><ele>540.0</ele><time>2026-04-12T09:13:50.63Z</time></trkpt><trkpt lat="43.237793" lon="12.0615766"><ele>540.0</ele><time>2026-04-12T09:13:51.629Z</time></trkpt><trkpt lat="43.2378114" lon="12.0616951"><ele>540.0</ele><time>2026-04-12T09:13:52.631Z</time></trkpt><trkpt lat="43.2378263" lon="12.0618074"><ele>540.0</ele><time>2026-04-12T09:13:53.624Z</time></trkpt><trkpt lat="43.2378372" lon="12.0619032"><ele>540.0</ele><time>2026-04-12T09:13:54.622Z</time></trkpt><trkpt lat="43.2378468" lon="12.0620065"><ele>540.0</ele><time>2026-04-12T09:13:55.624Z</time></trkpt><trkpt lat="43.2378649" lon="12.0621172"><ele>541.1666666666666</ele><time>2026-04-12T09:13:56.625Z</time></trkpt><trkpt lat="43.23788" lon="12.0622311"><ele>542.3333333333334</ele><time>2026-04-12T09:13:57.641Z</time></trkpt><trkpt lat="43.2378855" lon="12.0623437"><ele>543.5</ele><time>2026-04-12T09:13:58.623Z</time></trkpt><trkpt lat="43.2378952" lon="12.0624476"><ele>544.6666666666667</ele><time>2026-04-12T09:13:59.619Z</time></trkpt><trkpt lat="43.2379195" lon="12.062543"><ele>545.8333333333334</ele><time>2026-04-12T09:14:00.618Z</time></trkpt><trkpt lat="43.2379546" lon="12.0626289"><ele>547.0</ele><time>2026-04-12T09:14:01.626Z</time></trkpt><trkpt lat="43.2379758" lon="12.0627229"><ele>547.6666666666667</ele><time>2026-04-12T09:14:02.621Z</time></trkpt><trkpt lat="43.2379923" lon="12.0628277"><ele>548.3333333333334</ele><time>2026-04-12T09:14:03.621Z</time></trkpt><trkpt lat="43.2380149" lon="12.06293"><ele>549.0</ele><time>2026-04-12T09:14:04.617Z</time></trkpt><trkpt lat="43.2380468" lon="12.0630098"><ele>549.6666666666666</ele><time>2026-04-12T09:14:05.625Z</time></trkpt><trkpt lat="43.2381178" lon="12.0630819"><ele>550.3333333333333</ele><time>2026-04-12T09:14:07.623Z</time></trkpt><trkpt lat="43.2381411" lon="12.0631706"><ele>551.0</ele><time>2026-04-12T09:14:09.635Z</time></trkpt><trkpt lat="43.238117" lon="12.063308"><ele>551.8</ele><time>2026-04-12T09:16:55.644Z</time></trkpt><trkpt lat="43.2380823" lon="12.063489"><ele>552.6</ele><time>2026-04-12T09:16:57.624Z</time></trkpt><trkpt lat="43.2380533" lon="12.0635862"><ele>553.4</ele><time>2026-04-12T09:16:58.62Z</time></trkpt><trkpt lat="43.2380336" lon="12.06367"><ele>554.2</ele><time>2026-04-12T09:16:59.629Z</time></trkpt><trkpt lat="43.2381019" lon="12.0638013"><ele>555.0</ele><time>2026-04-12T09:17:01.63Z</time></trkpt><trkpt lat="43.2381838" lon="12.0639062"><ele>557.8333333333334</ele><time>2026-04-12T09:17:02.623Z</time></trkpt><trkpt lat="43.2382426" lon="12.063998"><ele>560.6666666666666</ele><time>2026-04-12T09:17:03.642Z</time></trkpt><trkpt lat="43.2382792" lon="12.0640966"><ele>563.5</ele><time>2026-04-12T09:17:04.627Z</time></trkpt><trkpt lat="43.2382933" lon="12.0642063"><ele>566.3333333333333</ele><time>2026-04-12T09:17:05.62Z</time></trkpt><trkpt lat="43.2382771" lon="12.0643157"><ele>569.1666666666666</ele><time>2026-04-12T09:17:06.627Z</time></trkpt><trkpt lat="43.2382354" lon="12.0644152"><ele>572.0</ele><time>2026-04-12T09:17:07.612Z</time></trkpt><trkpt lat="43.2381703" lon="12.0644948"><ele>569.5</ele><time>2026-04-12T09:17:08.62Z</time></trkpt><trkpt lat="43.2380988" lon="12.0645588"><ele>567.0</ele><time>2026-04-12T09:17:09.618Z</time></trkpt><trkpt lat="43.2380376" lon="12.0646184"><ele>564.5</ele><time>2026-04-12T09:17:10.618Z</time></trkpt><trkpt lat="43.237976" lon="12.0646754"><ele>562.0</ele><time>2026-04-12T09:17:11.622Z</time></trkpt><trkpt lat="43.2379162" lon="12.0647352"><ele>559.5</ele><time>2026-04-12T09:17:12.621Z</time></trkpt><trkpt lat="43.2378541" lon="12.0648023"><ele>557.0</ele><time>2026-04-12T09:17:13.621Z</time></trkpt><trkpt lat="43.2378009" lon="12.0648603"><ele>559.5</ele><time>2026-04-12T09:17:14.618Z</time></trkpt><trkpt lat="43.2377184" lon="12.0649496"><ele>562.0</ele><time>2026-04-12T09:17:16.62Z</time></trkpt><trkpt lat="43.2376316" lon="12.0650785"><ele>564.5</ele><time>2026-04-12T09:17:18.626Z</time></trkpt><trkpt lat="43.2375885" lon="12.065145"><ele>567.0</ele><time>2026-04-12T09:17:19.627Z</time></trkpt><trkpt lat="43.2375447" lon="12.0652162"><ele>569.5</ele><time>2026-04-12T09:17:20.624Z</time></trkpt><trkpt lat="43.2375008" lon="12.065285"><ele>572.0</ele><time>2026-04-12T09:17:21.625Z</time></trkpt><trkpt lat="43.2374575" lon="12.0653587"><ele>572.0</ele><time>2026-04-12T09:17:22.625Z</time></trkpt><trkpt lat="43.2374111" lon="12.0654417"><ele>572.0</ele><time>2026-04-12T09:17:23.628Z</time></trkpt><trkpt lat="43.2373628" lon="12.0655295"><ele>572.0</ele><time>2026-04-12T09:17:24.623Z</time></trkpt><trkpt lat="43.2373115" lon="12.0656132"><ele>572.0</ele><time>2026-04-12T09:17:25.625Z</time></trkpt><trkpt lat="43.2372567" lon="12.0657011"><ele>572.0</ele><time>2026-04-12T09:17:26.62Z</time></trkpt><trkpt lat="43.2371984" lon="12.0658074"><ele>572.0</ele><time>2026-04-12T09:17:27.623Z</time></trkpt><trkpt lat="43.2371561" lon="12.0659138"><ele>571.1666666666666</ele><time>2026-04-12T09:17:28.62Z</time></trkpt><trkpt lat="43.2371356" lon="12.0660166"><ele>570.3333333333333</ele><time>2026-04-12T09:17:29.622Z</time></trkpt><trkpt lat="43.2371277" lon="12.0661254"><ele>569.5</ele><time>2026-04-12T09:17:30.621Z</time></trkpt><trkpt lat="43.237118" lon="12.0662429"><ele>568.6666666666666</ele><time>2026-04-12T09:17:31.621Z</time></trkpt><trkpt lat="43.237102" lon="12.0663438"><ele>567.8333333333334</ele><time>2026-04-12T09:17:32.621Z</time></trkpt><trkpt lat="43.2370835" lon="12.0664317"><ele>567.0</ele><time>2026-04-12T09:17:33.615Z</time></trkpt><trkpt lat="43.2371077" lon="12.0665739"><ele>567.3333333333334</ele><time>2026-04-12T09:17:35.624Z</time></trkpt><trkpt lat="43.2371703" lon="12.0666409"><ele>567.6666666666666</ele><time>2026-04-12T09:17:36.628Z</time></trkpt><trkpt lat="43.2372354" lon="12.0667109"><ele>568.0</ele><time>2026-04-12T09:17:37.621Z</time></trkpt><trkpt lat="43.2373119" lon="12.0667799"><ele>568.3333333333333</ele><time>2026-04-12T09:17:38.623Z</time></trkpt><trkpt lat="43.237383" lon="12.0668549"><ele>568.6666666666666</ele><time>2026-04-12T09:17:39.622Z</time></trkpt><trkpt lat="43.2374383" lon="12.0669488"><ele>569.0</ele><time>2026-04-12T09:17:40.619Z</time></trkpt><trkpt lat="43.2374876" lon="12.0670597"><ele>572.1666666666666</ele><time>2026-04-12T09:17:41.622Z</time></trkpt><trkpt lat="43.2375379" lon="12.067162"><ele>575.3333333333333</ele><time>2026-04-12T09:17:42.621Z</time></trkpt><trkpt lat="43.2375698" lon="12.0672472"><ele>578.5</ele><time>2026-04-12T09:17:43.623Z</time></trkpt><trkpt lat="43.2375254" lon="12.0674121"><ele>581.6666666666666</ele><time>2026-04-12T09:17:45.622Z</time></trkpt><trkpt lat="43.2375011" lon="12.067506"><ele>584.8333333333334</ele><time>2026-04-12T09:17:46.622Z</time></trkpt><trkpt lat="43.2374892" lon="12.067612"><ele>588.0</ele><time>2026-04-12T09:17:47.621Z</time></trkpt><trkpt lat="43.2374708" lon="12.067716"><ele>588.0</ele><time>2026-04-12T09:17:48.62Z</time></trkpt><trkpt lat="43.2374481" lon="12.0678153"><ele>588.0</ele><time>2026-04-12T09:17:49.621Z</time></trkpt><trkpt lat="43.2374366" lon="12.0679158"><ele>588.0</ele><time>2026-04-12T09:17:50.621Z</time></trkpt><trkpt lat="43.2374465" lon="12.0680136"><ele>588.0</ele><time>2026-04-12T09:17:51.625Z</time></trkpt><trkpt lat="43.237476" lon="12.0681166"><ele>588.0</ele><time>2026-04-12T09:17:52.625Z</time></trkpt><trkpt lat="43.2375054" lon="12.0682408"><ele>588.0</ele><time>2026-04-12T09:17:53.623Z</time></trkpt><trkpt lat="43.2375356" lon="12.0683773"><ele>587.5</ele><time>2026-04-12T09:17:54.63Z</time></trkpt><trkpt lat="43.2375599" lon="12.0684807"><ele>587.0</ele><time>2026-04-12T09:17:55.632Z</time></trkpt><trkpt lat="43.2375959" lon="12.068555"><ele>586.5</ele><time>2026-04-12T09:17:56.625Z</time></trkpt><trkpt lat="43.2376464" lon="12.0686235"><ele>586.0</ele><time>2026-04-12T09:17:57.623Z</time></trkpt><trkpt lat="43.2377132" lon="12.0686684"><ele>585.5</ele><time>2026-04-12T09:17:58.632Z</time></trkpt><trkpt lat="43.2378138" lon="12.0687125"><ele>585.0</ele><time>2026-04-12T09:17:59.624Z</time></trkpt><trkpt lat="43.2379103" lon="12.0687379"><ele>585.0</ele><time>2026-04-12T09:18:00.627Z</time></trkpt><trkpt lat="43.2379953" lon="12.0687532"><ele>585.0</ele><time>2026-04-12T09:18:01.63Z</time></trkpt><trkpt lat="43.2380837" lon="12.0687761"><ele>585.0</ele><time>2026-04-12T09:18:02.628Z</time></trkpt><trkpt lat="43.238158" lon="12.068817"><ele>585.0</ele><time>2026-04-12T09:18:03.623Z</time></trkpt><trkpt lat="43.2382183" lon="12.068874"><ele>585.0</ele><time>2026-04-12T09:18:04.619Z</time></trkpt><trkpt lat="43.2382691" lon="12.0689307"><ele>585.0</ele><time>2026-04-12T09:18:05.634Z</time></trkpt><trkpt lat="43.2383231" lon="12.0690073"><ele>585.8333333333334</ele><time>2026-04-12T09:18:06.629Z</time></trkpt><trkpt lat="43.2383858" lon="12.0690818"><ele>586.6666666666666</ele><time>2026-04-12T09:18:07.62Z</time></trkpt><trkpt lat="43.238445" lon="12.0691431"><ele>587.5</ele><time>2026-04-12T09:18:08.622Z</time></trkpt><trkpt lat="43.2384987" lon="12.069197"><ele>588.3333333333333</ele><time>2026-04-12T09:18:09.62Z</time></trkpt><trkpt lat="43.2385357" lon="12.0693133"><ele>589.1666666666666</ele><time>2026-04-12T09:18:11.624Z</time></trkpt><trkpt lat="43.2384723" lon="12.0694556"><ele>590.0</ele><time>2026-04-12T09:18:13.621Z</time></trkpt><trkpt lat="43.2384274" lon="12.0695458"><ele>590.0</ele><time>2026-04-12T09:18:14.623Z</time></trkpt><trkpt lat="43.238371" lon="12.0696625"><ele>590.0</ele><time>2026-04-12T09:18:15.626Z</time></trkpt><trkpt lat="43.2383196" lon="12.0697868"><ele>590.0</ele><time>2026-04-12T09:18:16.625Z</time></trkpt><trkpt lat="43.2382734" lon="12.0699074"><ele>590.0</ele><time>2026-04-12T09:18:17.628Z</time></trkpt><trkpt lat="43.2382266" lon="12.0700121"><ele>590.0</ele><time>2026-04-12T09:18:18.625Z</time></trkpt><trkpt lat="43.2381784" lon="12.0701035"><ele>588.0</ele><time>2026-04-12T09:18:19.624Z</time></trkpt><trkpt lat="43.2381195" lon="12.0701839"><ele>586.0</ele><time>2026-04-12T09:18:20.626Z</time></trkpt><trkpt lat="43.238048" lon="12.0702496"><ele>584.0</ele><time>2026-04-12T09:18:21.619Z</time></trkpt><trkpt lat="43.2379672" lon="12.070316"><ele>582.0</ele><time>2026-04-12T09:18:22.622Z</time></trkpt><trkpt lat="43.2378853" lon="12.0703868"><ele>580.0</ele><time>2026-04-12T09:18:23.619Z</time></trkpt><trkpt lat="43.237815" lon="12.0704493"><ele>578.0</ele><time>2026-04-12T09:18:24.622Z</time></trkpt><trkpt lat="43.237737" lon="12.0705186"><ele>578.0</ele><time>2026-04-12T09:18:25.623Z</time></trkpt><trkpt lat="43.2376406" lon="12.0705961"><ele>578.0</ele><time>2026-04-12T09:18:26.622Z</time></trkpt><trkpt lat="43.237546" lon="12.0706703"><ele>578.0</ele><time>2026-04-12T09:18:27.615Z</time></trkpt><trkpt lat="43.2374595" lon="12.0707246"><ele>578.0</ele><time>2026-04-12T09:18:28.621Z</time></trkpt><trkpt lat="43.2373745" lon="12.070768"><ele>578.0</ele><time>2026-04-12T09:18:29.622Z</time></trkpt><trkpt lat="43.237286" lon="12.0707952"><ele>579.8333333333333</ele><time>2026-04-12T09:18:30.623Z</time></trkpt><trkpt lat="43.2371923" lon="12.0708225"><ele>581.6666666666666</ele><time>2026-04-12T09:18:31.626Z</time></trkpt><trkpt lat="43.2371134" lon="12.0708342"><ele>583.5</ele><time>2026-04-12T09:18:32.618Z</time></trkpt><trkpt lat="43.2370471" lon="12.0708473"><ele>585.3333333333334</ele><time>2026-04-12T09:18:33.619Z</time></trkpt><trkpt lat="43.2369806" lon="12.0708802"><ele>587.1666666666667</ele><time>2026-04-12T09:18:34.619Z</time></trkpt><trkpt lat="43.2368956" lon="12.0709189"><ele>589.0</ele><time>2026-04-12T09:18:35.622Z</time></trkpt><trkpt lat="43.2368054" lon="12.0709478"><ele>589.0</ele><time>2026-04-12T09:18:36.644Z</time></trkpt><trkpt lat="43.2367228" lon="12.07097"><ele>589.0</ele><time>2026-04-12T09:18:37.621Z</time></trkpt><trkpt lat="43.2366466" lon="12.0709865"><ele>589.0</ele><time>2026-04-12T09:18:38.621Z</time></trkpt><trkpt lat="43.2365758" lon="12.0710053"><ele>589.0</ele><time>2026-04-12T09:18:39.623Z</time></trkpt><trkpt lat="43.2365083" lon="12.0710224"><ele>589.0</ele><time>2026-04-12T09:18:40.628Z</time></trkpt><trkpt lat="43.2364444" lon="12.0710361"><ele>589.0</ele><time>2026-04-12T09:18:41.627Z</time></trkpt><trkpt lat="43.2363798" lon="12.0710365"><ele>589.0</ele><time>2026-04-12T09:18:42.627Z</time></trkpt><trkpt lat="43.2363131" lon="12.0710381"><ele>588.5714285714286</ele><time>2026-04-12T09:18:43.627Z</time></trkpt><trkpt lat="43.2362448" lon="12.0710461"><ele>588.1428571428571</ele><time>2026-04-12T09:18:44.631Z</time></trkpt><trkpt lat="43.2361737" lon="12.0710568"><ele>587.7142857142857</ele><time>2026-04-12T09:18:45.628Z</time></trkpt><trkpt lat="43.2361035" lon="12.0710767"><ele>587.2857142857142</ele><time>2026-04-12T09:18:46.627Z</time></trkpt><trkpt lat="43.2360354" lon="12.0711003"><ele>586.8571428571429</ele><time>2026-04-12T09:18:47.629Z</time></trkpt><trkpt lat="43.2359738" lon="12.0711283"><ele>586.4285714285713</ele><time>2026-04-12T09:18:48.625Z</time></trkpt><trkpt lat="43.2359083" lon="12.0711587"><ele>586.0</ele><time>2026-04-12T09:18:49.627Z</time></trkpt><trkpt lat="43.2358432" lon="12.0711831"><ele>586.0</ele><time>2026-04-12T09:18:50.63Z</time></trkpt><trkpt lat="43.2357513" lon="12.0712393"><ele>586.0</ele><time>2026-04-12T09:18:52.625Z</time></trkpt><trkpt lat="43.2356827" lon="12.0712972"><ele>586.0</ele><time>2026-04-12T09:18:54.635Z</time></trkpt><trkpt lat="43.2355821" lon="12.0713505"><ele>586.0</ele><time>2026-04-12T09:18:56.62Z</time></trkpt><trkpt lat="43.2355183" lon="12.0713894"><ele>586.0</ele><time>2026-04-12T09:18:57.62Z</time></trkpt><trkpt lat="43.2354515" lon="12.071436"><ele>586.0</ele><time>2026-04-12T09:18:58.622Z</time></trkpt><trkpt lat="43.2353902" lon="12.07148"><ele>586.8</ele><time>2026-04-12T09:18:59.621Z</time></trkpt><trkpt lat="43.2352954" lon="12.0715661"><ele>587.6</ele><time>2026-04-12T09:19:01.627Z</time></trkpt><trkpt lat="43.2352263" lon="12.0716142"><ele>588.4</ele><time>2026-04-12T09:19:03.623Z</time></trkpt><trkpt lat="43.2351699" lon="12.0716809"><ele>589.2</ele><time>2026-04-12T09:19:26.634Z</time></trkpt><trkpt lat="43.235124" lon="12.0717656"><ele>590.0</ele><time>2026-04-12T09:19:28.632Z</time></trkpt><trkpt lat="43.2350407" lon="12.0719067"><ele>590.0</ele><time>2026-04-12T09:19:30.627Z</time></trkpt><trkpt lat="43.2350004" lon="12.071985"><ele>590.0</ele><time>2026-04-12T09:19:31.628Z</time></trkpt><trkpt lat="43.2349529" lon="12.0720789"><ele>590.0</ele><time>2026-04-12T09:19:32.621Z</time></trkpt><trkpt lat="43.2349075" lon="12.0721772"><ele>590.0</ele><time>2026-04-12T09:19:33.624Z</time></trkpt><trkpt lat="43.2348539" lon="12.0722828"><ele>590.0</ele><time>2026-04-12T09:19:34.624Z</time></trkpt><trkpt lat="43.2348056" lon="12.0723927"><ele>590.0</ele><time>2026-04-12T09:19:35.622Z</time></trkpt><trkpt lat="43.2347692" lon="12.0724993"><ele>585.5</ele><time>2026-04-12T09:19:36.631Z</time></trkpt><trkpt lat="43.234745" lon="12.0725908"><ele>581.0</ele><time>2026-04-12T09:19:37.622Z</time></trkpt><trkpt lat="43.234734" lon="12.0726805"><ele>576.5</ele><time>2026-04-12T09:19:38.636Z</time></trkpt><trkpt lat="43.2347129" lon="12.0728301"><ele>572.0</ele><time>2026-04-12T09:19:40.622Z</time></trkpt><trkpt lat="43.2347061" lon="12.072981"><ele>567.5</ele><time>2026-04-12T09:19:42.621Z</time></trkpt><trkpt lat="43.2347313" lon="12.0730695"><ele>563.0</ele><time>2026-04-12T09:19:43.621Z</time></trkpt><trkpt lat="43.234759" lon="12.0731543"><ele>563.0</ele><time>2026-04-12T09:19:44.624Z</time></trkpt><trkpt lat="43.2347896" lon="12.0732492"><ele>563.0</ele><time>2026-04-12T09:19:45.619Z</time></trkpt><trkpt lat="43.2348268" lon="12.0733539"><ele>563.0</ele><time>2026-04-12T09:19:46.622Z</time></trkpt><trkpt lat="43.234864" lon="12.0734621"><ele>563.0</ele><time>2026-04-12T09:19:47.619Z</time></trkpt><trkpt lat="43.234894" lon="12.0735586"><ele>563.0</ele><time>2026-04-12T09:19:48.626Z</time></trkpt><trkpt lat="43.2348575" lon="12.0736778"><ele>563.0</ele><time>2026-04-12T09:19:50.618Z</time></trkpt><trkpt lat="43.2347891" lon="12.0737018"><ele>566.0</ele><time>2026-04-12T09:19:51.619Z</time></trkpt><trkpt lat="43.2347125" lon="12.0737226"><ele>569.0</ele><time>2026-04-12T09:19:52.617Z</time></trkpt><trkpt lat="43.2346191" lon="12.0737381"><ele>572.0</ele><time>2026-04-12T09:19:53.617Z</time></trkpt><trkpt lat="43.2345109" lon="12.0737635"><ele>575.0</ele><time>2026-04-12T09:19:54.619Z</time></trkpt><trkpt lat="43.2344018" lon="12.073807"><ele>578.0</ele><time>2026-04-12T09:19:55.619Z</time></trkpt><trkpt lat="43.2342823" lon="12.0738678"><ele>578.0</ele><time>2026-04-12T09:19:56.616Z</time></trkpt><trkpt lat="43.2341588" lon="12.0739332"><ele>578.0</ele><time>2026-04-12T09:19:57.616Z</time></trkpt><trkpt lat="43.2340457" lon="12.074003"><ele>578.0</ele><time>2026-04-12T09:19:58.619Z</time></trkpt><trkpt lat="43.2339249" lon="12.0740729"><ele>578.0</ele><time>2026-04-12T09:19:59.62Z</time></trkpt><trkpt lat="43.2337989" lon="12.0741434"><ele>579.0</ele><time>2026-04-12T09:20:00.619Z</time></trkpt><trkpt lat="43.2336658" lon="12.074203"><ele>580.0</ele><time>2026-04-12T09:20:01.621Z</time></trkpt><trkpt lat="43.2335328" lon="12.0742517"><ele>581.0</ele><time>2026-04-12T09:20:02.619Z</time></trkpt><trkpt lat="43.2334119" lon="12.0742975"><ele>582.0</ele><time>2026-04-12T09:20:03.62Z</time></trkpt><trkpt lat="43.2332996" lon="12.0743421"><ele>582.0</ele><time>2026-04-12T09:20:04.62Z</time></trkpt><trkpt lat="43.2332017" lon="12.0744007"><ele>582.0</ele><time>2026-04-12T09:20:05.618Z</time></trkpt><trkpt lat="43.2331112" lon="12.0744592"><ele>582.0</ele><time>2026-04-12T09:20:06.626Z</time></trkpt><trkpt lat="43.2330377" lon="12.0745136"><ele>582.0</ele><time>2026-04-12T09:20:07.615Z</time></trkpt><trkpt lat="43.2329199" lon="12.074542"><ele>582.0</ele><time>2026-04-12T09:20:09.633Z</time></trkpt><trkpt lat="43.2328654" lon="12.0744853"><ele>581.1666666666666</ele><time>2026-04-12T09:20:10.614Z</time></trkpt><trkpt lat="43.2328149" lon="12.0744048"><ele>580.3333333333334</ele><time>2026-04-12T09:20:11.619Z</time></trkpt><trkpt lat="43.2327687" lon="12.0743024"><ele>579.5</ele><time>2026-04-12T09:20:12.626Z</time></trkpt><trkpt lat="43.2327323" lon="12.074198"><ele>578.6666666666667</ele><time>2026-04-12T09:20:13.604Z</time></trkpt><trkpt lat="43.2326943" lon="12.0740935"><ele>577.8333333333334</ele><time>2026-04-12T09:20:14.622Z</time></trkpt><trkpt lat="43.2326474" lon="12.0740039"><ele>577.0</ele><time>2026-04-12T09:20:15.621Z</time></trkpt><trkpt lat="43.2325489" lon="12.0739459"><ele>577.0</ele><time>2026-04-12T09:20:17.619Z</time></trkpt><trkpt lat="43.2324474" lon="12.0740124"><ele>577.0</ele><time>2026-04-12T09:20:19.615Z</time></trkpt><trkpt lat="43.2323894" lon="12.0740752"><ele>577.0</ele><time>2026-04-12T09:20:20.617Z</time></trkpt><trkpt lat="43.2323233" lon="12.0741442"><ele>577.0</ele><time>2026-04-12T09:20:21.618Z</time></trkpt><trkpt lat="43.2322511" lon="12.0742146"><ele>577.0</ele><time>2026-04-12T09:20:22.618Z</time></trkpt><trkpt lat="43.2321574" lon="12.0742835"><ele>579.75</ele><time>2026-04-12T09:20:23.622Z</time></trkpt><trkpt lat="43.2320571" lon="12.0743504"><ele>582.5</ele><time>2026-04-12T09:20:24.623Z</time></trkpt><trkpt lat="43.2319527" lon="12.0744104"><ele>585.25</ele><time>2026-04-12T09:20:25.621Z</time></trkpt><trkpt lat="43.2318423" lon="12.0744705"><ele>588.0</ele><time>2026-04-12T09:20:26.619Z</time></trkpt><trkpt lat="43.2317171" lon="12.0745379"><ele>588.0</ele><time>2026-04-12T09:20:27.621Z</time></trkpt><trkpt lat="43.2315926" lon="12.0746006"><ele>588.0</ele><time>2026-04-12T09:20:28.621Z</time></trkpt><trkpt lat="43.2314822" lon="12.0746595"><ele>588.0</ele><time>2026-04-12T09:20:29.623Z</time></trkpt><trkpt lat="43.2313829" lon="12.0747254"><ele>588.0</ele><time>2026-04-12T09:20:30.623Z</time></trkpt><trkpt lat="43.2312949" lon="12.0748092"><ele>587.6</ele><time>2026-04-12T09:20:31.629Z</time></trkpt><trkpt lat="43.2312189" lon="12.0749078"><ele>587.1999999999999</ele><time>2026-04-12T09:20:32.623Z</time></trkpt><trkpt lat="43.2311523" lon="12.0750273"><ele>586.8</ele><time>2026-04-12T09:20:33.621Z</time></trkpt><trkpt lat="43.2310826" lon="12.0751371"><ele>586.4</ele><time>2026-04-12T09:20:34.619Z</time></trkpt><trkpt lat="43.2310172" lon="12.0752195"><ele>586.0</ele><time>2026-04-12T09:20:35.621Z</time></trkpt><trkpt lat="43.2309568" lon="12.0752933"><ele>586.1666666666667</ele><time>2026-04-12T09:20:36.627Z</time></trkpt><trkpt lat="43.2309095" lon="12.0753682"><ele>586.3333333333334</ele><time>2026-04-12T09:20:37.618Z</time></trkpt><trkpt lat="43.2308667" lon="12.0755262"><ele>586.5</ele><time>2026-04-12T09:20:39.622Z</time></trkpt><trkpt lat="43.230871" lon="12.0756152"><ele>586.6666666666666</ele><time>2026-04-12T09:20:40.634Z</time></trkpt><trkpt lat="43.2308868" lon="12.075711"><ele>586.8333333333333</ele><time>2026-04-12T09:20:41.614Z</time></trkpt><trkpt lat="43.2308963" lon="12.0758042"><ele>587.0</ele><time>2026-04-12T09:20:42.617Z</time></trkpt><trkpt lat="43.2308425" lon="12.0759583"><ele>587.0</ele><time>2026-04-12T09:20:44.621Z</time></trkpt><trkpt lat="43.2307655" lon="12.0760096"><ele>587.0</ele><time>2026-04-12T09:20:45.618Z</time></trkpt><trkpt lat="43.2306783" lon="12.076066"><ele>587.0</ele><time>2026-04-12T09:20:46.618Z</time></trkpt><trkpt lat="43.230586" lon="12.0761233"><ele>587.0</ele><time>2026-04-12T09:20:47.615Z</time></trkpt><trkpt lat="43.2304868" lon="12.0761839"><ele>587.0</ele><time>2026-04-12T09:20:48.615Z</time></trkpt><trkpt lat="43.2303942" lon="12.0762461"><ele>584.6</ele><time>2026-04-12T09:20:49.616Z</time></trkpt><trkpt lat="43.2303069" lon="12.0763111"><ele>582.2</ele><time>2026-04-12T09:20:50.618Z</time></trkpt><trkpt lat="43.2302123" lon="12.0763794"><ele>579.8</ele><time>2026-04-12T09:20:51.615Z</time></trkpt><trkpt lat="43.230124" lon="12.0764438"><ele>577.4</ele><time>2026-04-12T09:20:52.617Z</time></trkpt><trkpt lat="43.2300501" lon="12.0765088"><ele>575.0</ele><time>2026-04-12T09:20:53.617Z</time></trkpt><trkpt lat="43.2299843" lon="12.0765836"><ele>576.1666666666666</ele><time>2026-04-12T09:20:54.617Z</time></trkpt><trkpt lat="43.2299186" lon="12.0766569"><ele>577.3333333333333</ele><time>2026-04-12T09:20:55.616Z</time></trkpt><trkpt lat="43.2298712" lon="12.0767339"><ele>578.5</ele><time>2026-04-12T09:20:56.619Z</time></trkpt><trkpt lat="43.2298509" lon="12.0768218"><ele>579.6666666666666</ele><time>2026-04-12T09:20:57.615Z</time></trkpt><trkpt lat="43.2298473" lon="12.0769179"><ele>580.8333333333334</ele><time>2026-04-12T09:20:58.62Z</time></trkpt><trkpt lat="43.2298444" lon="12.0770382"><ele>582.0</ele><time>2026-04-12T09:20:59.617Z</time></trkpt><trkpt lat="43.2298452" lon="12.0771599"><ele>582.0</ele><time>2026-04-12T09:21:00.618Z</time></trkpt><trkpt lat="43.229839" lon="12.0772688"><ele>582.0</ele><time>2026-04-12T09:21:01.623Z</time></trkpt><trkpt lat="43.2298234" lon="12.0773666"><ele>582.0</ele><time>2026-04-12T09:21:02.617Z</time></trkpt><trkpt lat="43.229806" lon="12.0774603"><ele>582.0</ele><time>2026-04-12T09:21:03.616Z</time></trkpt><trkpt lat="43.2297759" lon="12.0775362"><ele>582.0</ele><time>2026-04-12T09:21:04.614Z</time></trkpt><trkpt lat="43.2296613" lon="12.0775931"><ele>582.0</ele><time>2026-04-12T09:21:06.625Z</time></trkpt><trkpt lat="43.2295693" lon="12.0775534"><ele>582.2</ele><time>2026-04-12T09:21:07.612Z</time></trkpt><trkpt lat="43.2294724" lon="12.0775077"><ele>582.4000000000001</ele><time>2026-04-12T09:21:08.618Z</time></trkpt><trkpt lat="43.2293712" lon="12.0774614"><ele>582.5999999999999</ele><time>2026-04-12T09:21:09.615Z</time></trkpt><trkpt lat="43.2292598" lon="12.0774339"><ele>582.8</ele><time>2026-04-12T09:21:10.617Z</time></trkpt><trkpt lat="43.2291368" lon="12.0774223"><ele>583.0</ele><time>2026-04-12T09:21:11.644Z</time></trkpt><trkpt lat="43.2290148" lon="12.0774201"><ele>581.75</ele><time>2026-04-12T09:21:12.615Z</time></trkpt><trkpt lat="43.2288855" lon="12.0774262"><ele>580.5</ele><time>2026-04-12T09:21:13.611Z</time></trkpt><trkpt lat="43.2287559" lon="12.0774546"><ele>579.25</ele><time>2026-04-12T09:21:14.611Z</time></trkpt><trkpt lat="43.2286199" lon="12.0775092"><ele>578.0</ele><time>2026-04-12T09:21:15.612Z</time></trkpt><trkpt lat="43.2284915" lon="12.0775766"><ele>578.0</ele><time>2026-04-12T09:21:16.613Z</time></trkpt><trkpt lat="43.2283784" lon="12.077647"><ele>578.0</ele><time>2026-04-12T09:21:17.611Z</time></trkpt><trkpt lat="43.2282696" lon="12.0777225"><ele>578.0</ele><time>2026-04-12T09:21:18.611Z</time></trkpt><trkpt lat="43.2281677" lon="12.0778037"><ele>578.0</ele><time>2026-04-12T09:21:19.607Z</time></trkpt><trkpt lat="43.2280766" lon="12.0778799"><ele>575.5</ele><time>2026-04-12T09:21:20.607Z</time></trkpt><trkpt lat="43.2279856" lon="12.0779602"><ele>573.0</ele><time>2026-04-12T09:21:21.609Z</time></trkpt><trkpt lat="43.227902" lon="12.0780407"><ele>570.5</ele><time>2026-04-12T09:21:22.61Z</time></trkpt><trkpt lat="43.2278022" lon="12.0781348"><ele>568.0</ele><time>2026-04-12T09:21:23.615Z</time></trkpt><trkpt lat="43.2277155" lon="12.0782608"><ele>569.5</ele><time>2026-04-12T09:21:24.609Z</time></trkpt><trkpt lat="43.2276525" lon="12.0784015"><ele>571.0</ele><time>2026-04-12T09:21:25.61Z</time></trkpt><trkpt lat="43.2275862" lon="12.0785487"><ele>572.5</ele><time>2026-04-12T09:21:26.606Z</time></trkpt><trkpt lat="43.2275135" lon="12.0786937"><ele>574.0</ele><time>2026-04-12T09:21:27.619Z</time></trkpt><trkpt lat="43.2274382" lon="12.0788243"><ele>574.0</ele><time>2026-04-12T09:21:28.621Z</time></trkpt><trkpt lat="43.2273606" lon="12.0789268"><ele>574.0</ele><time>2026-04-12T09:21:29.617Z</time></trkpt><trkpt lat="43.2272685" lon="12.0790234"><ele>574.0</ele><time>2026-04-12T09:21:30.615Z</time></trkpt><trkpt lat="43.2271645" lon="12.0791011"><ele>574.0</ele><time>2026-04-12T09:21:31.623Z</time></trkpt><trkpt lat="43.227053" lon="12.0791634"><ele>573.0</ele><time>2026-04-12T09:21:32.62Z</time></trkpt><trkpt lat="43.2269471" lon="12.0792052"><ele>572.0</ele><time>2026-04-12T09:21:33.619Z</time></trkpt><trkpt lat="43.2268486" lon="12.0792551"><ele>571.0</ele><time>2026-04-12T09:21:34.619Z</time></trkpt><trkpt lat="43.2267619" lon="12.0793134"><ele>570.0</ele><time>2026-04-12T09:21:35.622Z</time></trkpt><trkpt lat="43.2266984" lon="12.0793802"><ele>569.0</ele><time>2026-04-12T09:21:36.629Z</time></trkpt><trkpt lat="43.2266471" lon="12.0794608"><ele>569.0</ele><time>2026-04-12T09:21:37.622Z</time></trkpt><trkpt lat="43.2265921" lon="12.0795548"><ele>569.0</ele><time>2026-04-12T09:21:38.614Z</time></trkpt><trkpt lat="43.2265411" lon="12.0796408"><ele>569.0</ele><time>2026-04-12T09:21:39.612Z</time></trkpt><trkpt lat="43.2264939" lon="12.0797335"><ele>569.0</ele><time>2026-04-12T09:21:40.614Z</time></trkpt><trkpt lat="43.2264636" lon="12.0798382"><ele>569.0</ele><time>2026-04-12T09:21:41.631Z</time></trkpt><trkpt lat="43.2264445" lon="12.0799438"><ele>569.0</ele><time>2026-04-12T09:21:42.615Z</time></trkpt><trkpt lat="43.226447" lon="12.0800576"><ele>569.8</ele><time>2026-04-12T09:21:43.614Z</time></trkpt><trkpt lat="43.2264706" lon="12.0801882"><ele>570.5999999999999</ele><time>2026-04-12T09:21:44.614Z</time></trkpt><trkpt lat="43.2264979" lon="12.080328"><ele>571.4</ele><time>2026-04-12T09:21:45.607Z</time></trkpt><trkpt lat="43.2265437" lon="12.0804729"><ele>572.1999999999999</ele><time>2026-04-12T09:21:46.613Z</time></trkpt><trkpt lat="43.2266034" lon="12.080618"><ele>573.0</ele><time>2026-04-12T09:21:47.612Z</time></trkpt><trkpt lat="43.2266688" lon="12.0807471"><ele>573.8333333333334</ele><time>2026-04-12T09:21:48.615Z</time></trkpt><trkpt lat="43.2267278" lon="12.0808673"><ele>574.6666666666666</ele><time>2026-04-12T09:21:49.612Z</time></trkpt><trkpt lat="43.2267761" lon="12.0809815"><ele>575.5</ele><time>2026-04-12T09:21:50.613Z</time></trkpt><trkpt lat="43.2268171" lon="12.081081"><ele>576.3333333333333</ele><time>2026-04-12T09:21:51.611Z</time></trkpt><trkpt lat="43.226814" lon="12.0811793"><ele>577.1666666666666</ele><time>2026-04-12T09:21:52.614Z</time></trkpt><trkpt lat="43.2267785" lon="12.0812653"><ele>578.0</ele><time>2026-04-12T09:21:53.612Z</time></trkpt><trkpt lat="43.2267177" lon="12.0813442"><ele>578.0</ele><time>2026-04-12T09:21:54.613Z</time></trkpt><trkpt lat="43.2266392" lon="12.0814187"><ele>578.0</ele><time>2026-04-12T09:21:55.612Z</time></trkpt><trkpt lat="43.2265788" lon="12.0815008"><ele>578.0</ele><time>2026-04-12T09:21:56.614Z</time></trkpt><trkpt lat="43.2265132" lon="12.0815783"><ele>578.0</ele><time>2026-04-12T09:21:57.616Z</time></trkpt><trkpt lat="43.2264465" lon="12.0816467"><ele>578.0</ele><time>2026-04-12T09:21:58.62Z</time></trkpt><trkpt lat="43.226372" lon="12.0817113"><ele>578.0</ele><time>2026-04-12T09:21:59.614Z</time></trkpt><trkpt lat="43.2262913" lon="12.0817749"><ele>577.5</ele><time>2026-04-12T09:22:00.617Z</time></trkpt><trkpt lat="43.2262001" lon="12.0818268"><ele>577.0</ele><time>2026-04-12T09:22:01.622Z</time></trkpt><trkpt lat="43.2261153" lon="12.0818803"><ele>576.5</ele><time>2026-04-12T09:22:02.613Z</time></trkpt><trkpt lat="43.2260383" lon="12.0819316"><ele>576.0</ele><time>2026-04-12T09:22:03.614Z</time></trkpt><trkpt lat="43.2259786" lon="12.0819766"><ele>575.5</ele><time>2026-04-12T09:22:04.619Z</time></trkpt><trkpt lat="43.2259783" lon="12.0820751"><ele>575.0</ele><time>2026-04-12T09:22:06.622Z</time></trkpt><trkpt lat="43.226024" lon="12.0821536"><ele>575.0</ele><time>2026-04-12T09:22:08.625Z</time></trkpt><trkpt lat="43.2261026" lon="12.0822461"><ele>575.0</ele><time>2026-04-12T09:22:10.627Z</time></trkpt><trkpt lat="43.226138" lon="12.0823356"><ele>575.0</ele><time>2026-04-12T09:22:11.611Z</time></trkpt><trkpt lat="43.2261605" lon="12.0824553"><ele>575.0</ele><time>2026-04-12T09:22:12.627Z</time></trkpt><trkpt lat="43.2261678" lon="12.0825774"><ele>575.0</ele><time>2026-04-12T09:22:13.613Z</time></trkpt><trkpt lat="43.2261542" lon="12.082714"><ele>577.1666666666666</ele><time>2026-04-12T09:22:14.615Z</time></trkpt><trkpt lat="43.226125" lon="12.0828561"><ele>579.3333333333333</ele><time>2026-04-12T09:22:15.612Z</time></trkpt><trkpt lat="43.2261096" lon="12.0829841"><ele>581.5</ele><time>2026-04-12T09:22:16.621Z</time></trkpt><trkpt lat="43.2261186" lon="12.0830958"><ele>583.6666666666666</ele><time>2026-04-12T09:22:17.611Z</time></trkpt><trkpt lat="43.226145" lon="12.083198"><ele>585.8333333333334</ele><time>2026-04-12T09:22:18.612Z</time></trkpt><trkpt lat="43.2261894" lon="12.0832839"><ele>588.0</ele><time>2026-04-12T09:22:19.619Z</time></trkpt><trkpt lat="43.2262331" lon="12.0833573"><ele>588.2857142857143</ele><time>2026-04-12T09:22:20.614Z</time></trkpt><trkpt lat="43.2262712" lon="12.0834352"><ele>588.5714285714286</ele><time>2026-04-12T09:22:21.614Z</time></trkpt><trkpt lat="43.2263095" lon="12.0835067"><ele>588.8571428571429</ele><time>2026-04-12T09:22:22.615Z</time></trkpt><trkpt lat="43.2263567" lon="12.0835643"><ele>589.1428571428571</ele><time>2026-04-12T09:22:23.615Z</time></trkpt><trkpt lat="43.226459" lon="12.0836588"><ele>589.4285714285714</ele><time>2026-04-12T09:22:25.617Z</time></trkpt><trkpt lat="43.2265166" lon="12.0836985"><ele>589.7142857142858</ele><time>2026-04-12T09:22:26.613Z</time></trkpt><trkpt lat="43.2265713" lon="12.0837436"><ele>590.0</ele><time>2026-04-12T09:22:27.615Z</time></trkpt><trkpt lat="43.2266229" lon="12.0838087"><ele>593.3333333333333</ele><time>2026-04-12T09:22:28.618Z</time></trkpt><trkpt lat="43.2266648" lon="12.0838914"><ele>596.6666666666666</ele><time>2026-04-12T09:22:29.614Z</time></trkpt><trkpt lat="43.2267228" lon="12.0839776"><ele>600.0</ele><time>2026-04-12T09:22:31.625Z</time></trkpt><trkpt lat="43.2267504" lon="12.0838586"><ele>603.3333333333334</ele><time>2026-04-12T09:22:34.635Z</time></trkpt><trkpt lat="43.226773" lon="12.0837512"><ele>606.6666666666667</ele><time>2026-04-12T09:22:35.619Z</time></trkpt><trkpt lat="43.226825" lon="12.0836669"><ele>610.0</ele><time>2026-04-12T09:22:36.631Z</time></trkpt><trkpt lat="43.2268956" lon="12.0836046"><ele>610.0</ele><time>2026-04-12T09:22:37.626Z</time></trkpt><trkpt lat="43.2270005" lon="12.0835605"><ele>610.0</ele><time>2026-04-12T09:22:38.621Z</time></trkpt><trkpt lat="43.2271198" lon="12.0835252"><ele>610.0</ele><time>2026-04-12T09:22:39.621Z</time></trkpt><trkpt lat="43.2272441" lon="12.0835099"><ele>610.0</ele><time>2026-04-12T09:22:40.615Z</time></trkpt><trkpt lat="43.2273789" lon="12.083525"><ele>614.3333333333334</ele><time>2026-04-12T09:22:41.617Z</time></trkpt><trkpt lat="43.2275192" lon="12.083582"><ele>618.6666666666666</ele><time>2026-04-12T09:22:42.619Z</time></trkpt><trkpt lat="43.2276631" lon="12.0836698"><ele>623.0</ele><time>2026-04-12T09:22:43.631Z</time></trkpt><trkpt lat="43.2278022" lon="12.083783"><ele>623.0</ele><time>2026-04-12T09:22:44.617Z</time></trkpt><trkpt lat="43.2279412" lon="12.0839034"><ele>623.0</ele><time>2026-04-12T09:22:45.62Z</time></trkpt><trkpt lat="43.2280704" lon="12.0840001"><ele>623.0</ele><time>2026-04-12T09:22:46.622Z</time></trkpt><trkpt lat="43.228176" lon="12.0841015"><ele>623.0</ele><time>2026-04-12T09:22:47.622Z</time></trkpt><trkpt lat="43.2282785" lon="12.084217"><ele>627.25</ele><time>2026-04-12T09:22:48.618Z</time></trkpt><trkpt lat="43.228386" lon="12.0843242"><ele>631.5</ele><time>2026-04-12T09:22:49.623Z</time></trkpt><trkpt lat="43.2284958" lon="12.0844369"><ele>635.75</ele><time>2026-04-12T09:22:50.626Z</time></trkpt><trkpt lat="43.2286024" lon="12.0845373"><ele>640.0</ele><time>2026-04-12T09:22:51.626Z</time></trkpt><trkpt lat="43.2287038" lon="12.0846474"><ele>640.0</ele><time>2026-04-12T09:22:52.63Z</time></trkpt><trkpt lat="43.2287985" lon="12.0847367"><ele>640.0</ele><time>2026-04-12T09:22:53.627Z</time></trkpt><trkpt lat="43.2288843" lon="12.0848184"><ele>640.0</ele><time>2026-04-12T09:22:54.625Z</time></trkpt><trkpt lat="43.2289709" lon="12.0848935"><ele>640.0</ele><time>2026-04-12T09:22:55.629Z</time></trkpt><trkpt lat="43.2290605" lon="12.084951"><ele>640.0</ele><time>2026-04-12T09:22:56.627Z</time></trkpt><trkpt lat="43.2291653" lon="12.0849872"><ele>641.75</ele><time>2026-04-12T09:22:57.628Z</time></trkpt><trkpt lat="43.2292819" lon="12.0850102"><ele>643.5</ele><time>2026-04-12T09:22:58.628Z</time></trkpt><trkpt lat="43.2294045" lon="12.0850309"><ele>645.25</ele><time>2026-04-12T09:22:59.625Z</time></trkpt><trkpt lat="43.2295356" lon="12.0850498"><ele>647.0</ele><time>2026-04-12T09:23:00.626Z</time></trkpt><trkpt lat="43.2296662" lon="12.0850693"><ele>647.0</ele><time>2026-04-12T09:23:01.626Z</time></trkpt><trkpt lat="43.2298011" lon="12.085089"><ele>647.0</ele><time>2026-04-12T09:23:02.623Z</time></trkpt><trkpt lat="43.229929" lon="12.0851133"><ele>647.0</ele><time>2026-04-12T09:23:03.622Z</time></trkpt><trkpt lat="43.2300437" lon="12.0851324"><ele>647.0</ele><time>2026-04-12T09:23:04.62Z</time></trkpt><trkpt lat="43.2301465" lon="12.0851429"><ele>648.8</ele><time>2026-04-12T09:23:05.621Z</time></trkpt><trkpt lat="43.2302497" lon="12.0851435"><ele>650.6</ele><time>2026-04-12T09:23:06.633Z</time></trkpt><trkpt lat="43.230357" lon="12.08513"><ele>652.4</ele><time>2026-04-12T09:23:07.625Z</time></trkpt><trkpt lat="43.2304721" lon="12.0851091"><ele>654.1999999999999</ele><time>2026-04-12T09:23:08.623Z</time></trkpt><trkpt lat="43.2305917" lon="12.0850799"><ele>656.0</ele><time>2026-04-12T09:23:09.623Z</time></trkpt><trkpt lat="43.2307083" lon="12.0850436"><ele>658.0</ele><time>2026-04-12T09:23:10.625Z</time></trkpt><trkpt lat="43.230812" lon="12.0850105"><ele>660.0</ele><time>2026-04-12T09:23:11.622Z</time></trkpt><trkpt lat="43.2309015" lon="12.0849729"><ele>662.0</ele><time>2026-04-12T09:23:12.621Z</time></trkpt><trkpt lat="43.2309795" lon="12.0849432"><ele>664.0</ele><time>2026-04-12T09:23:13.624Z</time></trkpt><trkpt lat="43.2310433" lon="12.0849261"><ele>666.0</ele><time>2026-04-12T09:23:14.636Z</time></trkpt><trkpt lat="43.2311361" lon="12.084964"><ele>668.0</ele><time>2026-04-12T09:23:16.622Z</time></trkpt><trkpt lat="43.2312352" lon="12.0850929"><ele>668.0</ele><time>2026-04-12T09:23:18.62Z</time></trkpt><trkpt lat="43.2312868" lon="12.0851947"><ele>668.0</ele><time>2026-04-12T09:23:19.617Z</time></trkpt><trkpt lat="43.2313318" lon="12.0853014"><ele>668.0</ele><time>2026-04-12T09:23:20.62Z</time></trkpt><trkpt lat="43.2313721" lon="12.0854108"><ele>668.0</ele><time>2026-04-12T09:23:21.62Z</time></trkpt><trkpt lat="43.2314163" lon="12.0855442"><ele>668.0</ele><time>2026-04-12T09:23:22.621Z</time></trkpt><trkpt lat="43.231471" lon="12.085683"><ele>670.0</ele><time>2026-04-12T09:23:23.622Z</time></trkpt><trkpt lat="43.2315281" lon="12.0857903"><ele>672.0</ele><time>2026-04-12T09:23:24.618Z</time></trkpt><trkpt lat="43.2316021" lon="12.0858663"><ele>674.0</ele><time>2026-04-12T09:23:25.616Z</time></trkpt><trkpt lat="43.2316875" lon="12.085951"><ele>676.0</ele><time>2026-04-12T09:23:26.618Z</time></trkpt><trkpt lat="43.2317661" lon="12.0860597"><ele>678.0</ele><time>2026-04-12T09:23:27.615Z</time></trkpt><trkpt lat="43.2318433" lon="12.0861624"><ele>678.0</ele><time>2026-04-12T09:23:28.617Z</time></trkpt><trkpt lat="43.2319108" lon="12.0862518"><ele>678.0</ele><time>2026-04-12T09:23:29.612Z</time></trkpt><trkpt lat="43.2319797" lon="12.0863368"><ele>678.0</ele><time>2026-04-12T09:23:30.614Z</time></trkpt><trkpt lat="43.2320404" lon="12.086429"><ele>678.0</ele><time>2026-04-12T09:23:31.622Z</time></trkpt><trkpt lat="43.2320957" lon="12.0865121"><ele>678.0</ele><time>2026-04-12T09:23:32.615Z</time></trkpt><trkpt lat="43.2321467" lon="12.086604"><ele>678.0</ele><time>2026-04-12T09:23:33.616Z</time></trkpt><trkpt lat="43.2321859" lon="12.0867042"><ele>679.1666666666666</ele><time>2026-04-12T09:23:34.615Z</time></trkpt><trkpt lat="43.2322222" lon="12.0867991"><ele>680.3333333333334</ele><time>2026-04-12T09:23:35.612Z</time></trkpt><trkpt lat="43.2322505" lon="12.0869076"><ele>681.5</ele><time>2026-04-12T09:23:36.623Z</time></trkpt><trkpt lat="43.2322689" lon="12.0870242"><ele>682.6666666666667</ele><time>2026-04-12T09:23:37.613Z</time></trkpt><trkpt lat="43.2322837" lon="12.0871487"><ele>683.8333333333334</ele><time>2026-04-12T09:23:38.621Z</time></trkpt><trkpt lat="43.2323042" lon="12.0872911"><ele>685.0</ele><time>2026-04-12T09:23:39.617Z</time></trkpt><trkpt lat="43.2323221" lon="12.0874344"><ele>685.0</ele><time>2026-04-12T09:23:40.618Z</time></trkpt><trkpt lat="43.232336" lon="12.0875709"><ele>685.0</ele><time>2026-04-12T09:23:41.62Z</time></trkpt><trkpt lat="43.2323484" lon="12.0877068"><ele>685.0</ele><time>2026-04-12T09:23:42.618Z</time></trkpt><trkpt lat="43.2323578" lon="12.087836"><ele>685.0</ele><time>2026-04-12T09:23:43.617Z</time></trkpt><trkpt lat="43.2323655" lon="12.0879692"><ele>685.0</ele><time>2026-04-12T09:23:44.618Z</time></trkpt><trkpt lat="43.232369" lon="12.0881168"><ele>683.8</ele><time>2026-04-12T09:23:45.629Z</time></trkpt><trkpt lat="43.2323734" lon="12.0882613"><ele>682.6</ele><time>2026-04-12T09:23:46.617Z</time></trkpt><trkpt lat="43.23238" lon="12.088405"><ele>681.4000000000001</ele><time>2026-04-12T09:23:47.62Z</time></trkpt><trkpt lat="43.2323882" lon="12.0885363"><ele>680.2</ele><time>2026-04-12T09:23:48.619Z</time></trkpt><trkpt lat="43.232406" lon="12.0886759"><ele>679.0</ele><time>2026-04-12T09:23:49.614Z</time></trkpt><trkpt lat="43.2324314" lon="12.0888208"><ele>679.0</ele><time>2026-04-12T09:23:50.613Z</time></trkpt><trkpt lat="43.2324522" lon="12.0889629"><ele>679.0</ele><time>2026-04-12T09:23:51.62Z</time></trkpt><trkpt lat="43.2324638" lon="12.0890936"><ele>679.0</ele><time>2026-04-12T09:23:52.619Z</time></trkpt><trkpt lat="43.232461" lon="12.0892203"><ele>679.0</ele><time>2026-04-12T09:23:53.615Z</time></trkpt><trkpt lat="43.2324548" lon="12.0893356"><ele>679.0</ele><time>2026-04-12T09:23:54.616Z</time></trkpt><trkpt lat="43.2324604" lon="12.0894414"><ele>678.3333333333334</ele><time>2026-04-12T09:23:55.616Z</time></trkpt><trkpt lat="43.2324733" lon="12.0895455"><ele>677.6666666666667</ele><time>2026-04-12T09:23:56.616Z</time></trkpt><trkpt lat="43.2324838" lon="12.0896516"><ele>677.0</ele><time>2026-04-12T09:23:57.615Z</time></trkpt><trkpt lat="43.2324892" lon="12.0897449"><ele>676.3333333333334</ele><time>2026-04-12T09:23:58.614Z</time></trkpt><trkpt lat="43.2324961" lon="12.0898343"><ele>675.6666666666666</ele><time>2026-04-12T09:23:59.615Z</time></trkpt><trkpt lat="43.2324784" lon="12.0900101"><ele>675.0</ele><time>2026-04-12T09:24:01.616Z</time></trkpt><trkpt lat="43.2324618" lon="12.0900945"><ele>674.2</ele><time>2026-04-12T09:24:02.61Z</time></trkpt><trkpt lat="43.2324318" lon="12.0902138"><ele>673.4</ele><time>2026-04-12T09:24:04.611Z</time></trkpt><trkpt lat="43.2324404" lon="12.0903224"><ele>672.5999999999999</ele><time>2026-04-12T09:24:06.628Z</time></trkpt><trkpt lat="43.2324584" lon="12.0904196"><ele>671.8</ele><time>2026-04-12T09:24:08.635Z</time></trkpt><trkpt lat="43.2324962" lon="12.0905262"><ele>671.0</ele><time>2026-04-12T09:24:10.63Z</time></trkpt><trkpt lat="43.2325471" lon="12.090684"><ele>669.5</ele><time>2026-04-12T09:24:12.619Z</time></trkpt><trkpt lat="43.232586" lon="12.0907888"><ele>668.0</ele><time>2026-04-12T09:24:14.616Z</time></trkpt><trkpt lat="43.2326579" lon="12.0908289"><ele>666.5</ele><time>2026-04-12T09:24:16.646Z</time></trkpt><trkpt lat="43.232719" lon="12.0908607"><ele>665.0</ele><time>2026-04-12T09:24:17.617Z</time></trkpt><trkpt lat="43.2327876" lon="12.09088"><ele>663.5</ele><time>2026-04-12T09:24:18.619Z</time></trkpt><trkpt lat="43.2329036" lon="12.0909425"><ele>662.0</ele><time>2026-04-12T09:24:20.623Z</time></trkpt><trkpt lat="43.2329898" lon="12.0909996"><ele>662.0</ele><time>2026-04-12T09:24:21.621Z</time></trkpt><trkpt lat="43.2330775" lon="12.0910452"><ele>662.0</ele><time>2026-04-12T09:24:22.622Z</time></trkpt><trkpt lat="43.2331514" lon="12.091089"><ele>662.0</ele><time>2026-04-12T09:24:23.623Z</time></trkpt><trkpt lat="43.2332326" lon="12.0911033"><ele>662.0</ele><time>2026-04-12T09:24:24.621Z</time></trkpt><trkpt lat="43.2333228" lon="12.0910986"><ele>662.0</ele><time>2026-04-12T09:24:25.621Z</time></trkpt><trkpt lat="43.2334202" lon="12.0910812"><ele>662.0</ele><time>2026-04-12T09:24:26.622Z</time></trkpt><trkpt lat="43.2335071" lon="12.0910718"><ele>664.0</ele><time>2026-04-12T09:24:27.621Z</time></trkpt><trkpt lat="43.233584" lon="12.0910785"><ele>666.0</ele><time>2026-04-12T09:24:28.626Z</time></trkpt><trkpt lat="43.2336534" lon="12.0911067"><ele>668.0</ele><time>2026-04-12T09:24:29.622Z</time></trkpt><trkpt lat="43.233723" lon="12.0911644"><ele>670.0</ele><time>2026-04-12T09:24:30.623Z</time></trkpt><trkpt lat="43.2338033" lon="12.0912262"><ele>672.0</ele><time>2026-04-12T09:24:31.625Z</time></trkpt><trkpt lat="43.2338832" lon="12.0912798"><ele>674.0</ele><time>2026-04-12T09:24:32.621Z</time></trkpt><trkpt lat="43.2339515" lon="12.0913102"><ele>674.6</ele><time>2026-04-12T09:24:33.622Z</time></trkpt><trkpt lat="43.2340679" lon="12.0912976"><ele>675.2</ele><time>2026-04-12T09:24:35.621Z</time></trkpt><trkpt lat="43.23419" lon="12.0913126"><ele>675.8000000000001</ele><time>2026-04-12T09:24:37.62Z</time></trkpt><trkpt lat="43.234298" lon="12.091329"><ele>676.4000000000001</ele><time>2026-04-12T09:24:39.625Z</time></trkpt><trkpt lat="43.2343963" lon="12.0913474"><ele>677.0</ele><time>2026-04-12T09:24:41.618Z</time></trkpt><trkpt lat="43.2344878" lon="12.0914068"><ele>677.0</ele><time>2026-04-12T09:24:43.628Z</time></trkpt><trkpt lat="43.2345579" lon="12.0914761"><ele>677.0</ele><time>2026-04-12T09:24:44.628Z</time></trkpt><trkpt lat="43.2346467" lon="12.0915546"><ele>677.0</ele><time>2026-04-12T09:24:45.626Z</time></trkpt><trkpt lat="43.2347385" lon="12.0916256"><ele>677.0</ele><time>2026-04-12T09:24:46.625Z</time></trkpt><trkpt lat="43.2348296" lon="12.0917029"><ele>677.0</ele><time>2026-04-12T09:24:47.642Z</time></trkpt><trkpt lat="43.2349205" lon="12.0917829"><ele>674.6</ele><time>2026-04-12T09:24:48.622Z</time></trkpt><trkpt lat="43.2350005" lon="12.0918545"><ele>672.2</ele><time>2026-04-12T09:24:49.622Z</time></trkpt><trkpt lat="43.2350822" lon="12.0919273"><ele>669.8</ele><time>2026-04-12T09:24:50.622Z</time></trkpt><trkpt lat="43.2351579" lon="12.091981"><ele>667.4</ele><time>2026-04-12T09:24:51.623Z</time></trkpt><trkpt lat="43.2352478" lon="12.092019"><ele>665.0</ele><time>2026-04-12T09:24:52.621Z</time></trkpt><trkpt lat="43.2353449" lon="12.0920444"><ele>665.0</ele><time>2026-04-12T09:24:53.623Z</time></trkpt><trkpt lat="43.2354436" lon="12.092067"><ele>665.0</ele><time>2026-04-12T09:24:54.623Z</time></trkpt><trkpt lat="43.2355414" lon="12.0920871"><ele>665.0</ele><time>2026-04-12T09:24:55.621Z</time></trkpt><trkpt lat="43.2356274" lon="12.092116"><ele>665.0</ele><time>2026-04-12T09:24:56.617Z</time></trkpt><trkpt lat="43.2357064" lon="12.0921589"><ele>665.0</ele><time>2026-04-12T09:24:57.621Z</time></trkpt><trkpt lat="43.2357715" lon="12.0922287"><ele>665.5</ele><time>2026-04-12T09:24:58.625Z</time></trkpt><trkpt lat="43.2358284" lon="12.092322"><ele>666.0</ele><time>2026-04-12T09:24:59.624Z</time></trkpt><trkpt lat="43.2358895" lon="12.0924128"><ele>666.5</ele><time>2026-04-12T09:25:00.616Z</time></trkpt><trkpt lat="43.2359535" lon="12.0924828"><ele>667.0</ele><time>2026-04-12T09:25:01.628Z</time></trkpt><trkpt lat="43.2360176" lon="12.0925265"><ele>667.5</ele><time>2026-04-12T09:25:02.622Z</time></trkpt><trkpt lat="43.2360786" lon="12.0925609"><ele>668.0</ele><time>2026-04-12T09:25:03.623Z</time></trkpt><trkpt lat="43.2361534" lon="12.0926023"><ele>667.0</ele><time>2026-04-12T09:25:04.623Z</time></trkpt><trkpt lat="43.2362176" lon="12.0926594"><ele>666.0</ele><time>2026-04-12T09:25:05.622Z</time></trkpt><trkpt lat="43.2362714" lon="12.0927385"><ele>665.0</ele><time>2026-04-12T09:25:06.636Z</time></trkpt><trkpt lat="43.2363258" lon="12.0928347"><ele>664.0</ele><time>2026-04-12T09:25:07.628Z</time></trkpt><trkpt lat="43.236387" lon="12.0929383"><ele>663.0</ele><time>2026-04-12T09:25:08.628Z</time></trkpt><trkpt lat="43.2364438" lon="12.0930529"><ele>662.0</ele><time>2026-04-12T09:25:09.629Z</time></trkpt><trkpt lat="43.2364965" lon="12.0931577"><ele>661.1666666666666</ele><time>2026-04-12T09:25:10.637Z</time></trkpt><trkpt lat="43.2365435" lon="12.0932514"><ele>660.3333333333333</ele><time>2026-04-12T09:25:11.625Z</time></trkpt><trkpt lat="43.2365818" lon="12.0933511"><ele>659.5</ele><time>2026-04-12T09:25:12.632Z</time></trkpt><trkpt lat="43.23661" lon="12.0934485"><ele>658.6666666666666</ele><time>2026-04-12T09:25:13.634Z</time></trkpt><trkpt lat="43.2366334" lon="12.0935343"><ele>657.8333333333334</ele><time>2026-04-12T09:25:14.635Z</time></trkpt><trkpt lat="43.2366578" lon="12.0936919"><ele>657.0</ele><time>2026-04-12T09:25:16.637Z</time></trkpt><trkpt lat="43.2366719" lon="12.0937852"><ele>657.0</ele><time>2026-04-12T09:25:17.638Z</time></trkpt><trkpt lat="43.2366817" lon="12.0938929"><ele>657.0</ele><time>2026-04-12T09:25:18.647Z</time></trkpt><trkpt lat="43.2366829" lon="12.0939847"><ele>657.0</ele><time>2026-04-12T09:25:19.634Z</time></trkpt><trkpt lat="43.2366738" lon="12.0941304"><ele>657.0</ele><time>2026-04-12T09:25:21.637Z</time></trkpt><trkpt lat="43.2367073" lon="12.0942998"><ele>657.0</ele><time>2026-04-12T09:25:23.629Z</time></trkpt><trkpt lat="43.236734" lon="12.094381"><ele>657.0</ele><time>2026-04-12T09:25:24.632Z</time></trkpt><trkpt lat="43.2367679" lon="12.0944597"><ele>657.5714285714286</ele><time>2026-04-12T09:25:25.629Z</time></trkpt><trkpt lat="43.2368035" lon="12.0945373"><ele>658.1428571428572</ele><time>2026-04-12T09:25:26.626Z</time></trkpt><trkpt lat="43.2368486" lon="12.0946061"><ele>658.7142857142858</ele><time>2026-04-12T09:25:27.631Z</time></trkpt><trkpt lat="43.2368843" lon="12.0946815"><ele>659.2857142857142</ele><time>2026-04-12T09:25:28.631Z</time></trkpt><trkpt lat="43.2369144" lon="12.0947611"><ele>659.8571428571429</ele><time>2026-04-12T09:25:29.635Z</time></trkpt><trkpt lat="43.2369373" lon="12.0948575"><ele>660.4285714285714</ele><time>2026-04-12T09:25:30.634Z</time></trkpt><trkpt lat="43.2369588" lon="12.0949584"><ele>661.0</ele><time>2026-04-12T09:25:31.642Z</time></trkpt><trkpt lat="43.2369835" lon="12.0950393"><ele>661.0</ele><time>2026-04-12T09:25:32.63Z</time></trkpt><trkpt lat="43.2370585" lon="12.095164"><ele>661.0</ele><time>2026-04-12T09:25:34.634Z</time></trkpt><trkpt lat="43.2371201" lon="12.0952295"><ele>661.0</ele><time>2026-04-12T09:25:35.636Z</time></trkpt><trkpt lat="43.2371762" lon="12.0953065"><ele>661.0</ele><time>2026-04-12T09:25:36.639Z</time></trkpt><trkpt lat="43.2372144" lon="12.0953787"><ele>661.0</ele><time>2026-04-12T09:25:37.639Z</time></trkpt><trkpt lat="43.2372353" lon="12.0955099"><ele>661.0</ele><time>2026-04-12T09:25:39.635Z</time></trkpt><trkpt lat="43.2372602" lon="12.0955992"><ele>661.0</ele><time>2026-04-12T09:25:40.637Z</time></trkpt><trkpt lat="43.237283" lon="12.0957096"><ele>661.0</ele><time>2026-04-12T09:25:41.638Z</time></trkpt><trkpt lat="43.2372953" lon="12.0958168"><ele>661.0</ele><time>2026-04-12T09:25:42.637Z</time></trkpt><trkpt lat="43.2373031" lon="12.0959147"><ele>661.0</ele><time>2026-04-12T09:25:43.631Z</time></trkpt><trkpt lat="43.237309" lon="12.0960027"><ele>661.0</ele><time>2026-04-12T09:25:44.635Z</time></trkpt><trkpt lat="43.2373166" lon="12.096165"><ele>661.0</ele><time>2026-04-12T09:25:46.637Z</time></trkpt><trkpt lat="43.2373144" lon="12.0962548"><ele>660.5999999999999</ele><time>2026-04-12T09:25:47.632Z</time></trkpt><trkpt lat="43.2373089" lon="12.0963468"><ele>660.2</ele><time>2026-04-12T09:25:48.634Z</time></trkpt><trkpt lat="43.2372742" lon="12.096509"><ele>659.8</ele><time>2026-04-12T09:25:50.628Z</time></trkpt><trkpt lat="43.2372463" lon="12.0966083"><ele>659.4000000000001</ele><time>2026-04-12T09:25:51.633Z</time></trkpt><trkpt lat="43.2372136" lon="12.0967342"><ele>659.0</ele><time>2026-04-12T09:25:52.629Z</time></trkpt><trkpt lat="43.2371871" lon="12.0968661"><ele>658.8333333333333</ele><time>2026-04-12T09:25:53.627Z</time></trkpt><trkpt lat="43.237166" lon="12.0969942"><ele>658.6666666666666</ele><time>2026-04-12T09:25:54.629Z</time></trkpt><trkpt lat="43.2371531" lon="12.0971055"><ele>658.5</ele><time>2026-04-12T09:25:55.628Z</time></trkpt><trkpt lat="43.2371508" lon="12.0972108"><ele>658.3333333333334</ele><time>2026-04-12T09:25:56.628Z</time></trkpt><trkpt lat="43.2371643" lon="12.097301"><ele>658.1666666666667</ele><time>2026-04-12T09:25:57.624Z</time></trkpt><trkpt lat="43.23721" lon="12.0974385"><ele>658.0</ele><time>2026-04-12T09:25:59.633Z</time></trkpt><trkpt lat="43.237223" lon="12.0975966"><ele>657.6666666666667</ele><time>2026-04-12T09:26:01.634Z</time></trkpt><trkpt lat="43.2372177" lon="12.0977049"><ele>657.3333333333334</ele><time>2026-04-12T09:26:02.631Z</time></trkpt><trkpt lat="43.2372151" lon="12.0978267"><ele>657.0</ele><time>2026-04-12T09:26:03.63Z</time></trkpt><trkpt lat="43.2372195" lon="12.0979452"><ele>656.6666666666666</ele><time>2026-04-12T09:26:04.635Z</time></trkpt><trkpt lat="43.2372281" lon="12.0980511"><ele>656.3333333333333</ele><time>2026-04-12T09:26:05.631Z</time></trkpt><trkpt lat="43.2372404" lon="12.0981365"><ele>656.0</ele><time>2026-04-12T09:26:06.639Z</time></trkpt><trkpt lat="43.2372572" lon="12.0982483"><ele>656.0</ele><time>2026-04-12T09:26:08.634Z</time></trkpt><trkpt lat="43.2371638" lon="12.0982749"><ele>656.0</ele><time>2026-04-12T09:26:11.65Z</time></trkpt><trkpt lat="43.2370836" lon="12.0982361"><ele>656.0</ele><time>2026-04-12T09:26:12.65Z</time></trkpt><trkpt lat="43.2369759" lon="12.0981836"><ele>656.0</ele><time>2026-04-12T09:26:13.634Z</time></trkpt><trkpt lat="43.2368568" lon="12.0981314"><ele>656.0</ele><time>2026-04-12T09:26:14.631Z</time></trkpt><trkpt lat="43.2367369" lon="12.0980947"><ele>656.0</ele><time>2026-04-12T09:26:15.632Z</time></trkpt><trkpt lat="43.2366228" lon="12.0980795"><ele>656.0</ele><time>2026-04-12T09:26:16.634Z</time></trkpt><trkpt lat="43.2365186" lon="12.0980976"><ele>656.0</ele><time>2026-04-12T09:26:17.632Z</time></trkpt><trkpt lat="43.236419" lon="12.098143"><ele>656.0</ele><time>2026-04-12T09:26:18.628Z</time></trkpt><trkpt lat="43.2363253" lon="12.0981937"><ele>656.0</ele><time>2026-04-12T09:26:19.643Z</time></trkpt><trkpt lat="43.2362306" lon="12.0982476"><ele>654.1666666666666</ele><time>2026-04-12T09:26:20.629Z</time></trkpt><trkpt lat="43.2361313" lon="12.0982879"><ele>652.3333333333333</ele><time>2026-04-12T09:26:21.631Z</time></trkpt><trkpt lat="43.2360381" lon="12.0983035"><ele>650.5</ele><time>2026-04-12T09:26:22.632Z</time></trkpt><trkpt lat="43.2359556" lon="12.0983279"><ele>648.6666666666666</ele><time>2026-04-12T09:26:23.63Z</time></trkpt><trkpt lat="43.2358875" lon="12.0983684"><ele>646.8333333333334</ele><time>2026-04-12T09:26:24.625Z</time></trkpt><trkpt lat="43.2358308" lon="12.0984627"><ele>645.0</ele><time>2026-04-12T09:26:25.632Z</time></trkpt><trkpt lat="43.2357781" lon="12.0985643"><ele>645.0</ele><time>2026-04-12T09:26:26.635Z</time></trkpt><trkpt lat="43.235707" lon="12.0986634"><ele>645.0</ele><time>2026-04-12T09:26:27.64Z</time></trkpt><trkpt lat="43.2356176" lon="12.0987426"><ele>645.0</ele><time>2026-04-12T09:26:28.637Z</time></trkpt><trkpt lat="43.2355261" lon="12.0988148"><ele>645.0</ele><time>2026-04-12T09:26:29.637Z</time></trkpt><trkpt lat="43.2354349" lon="12.0988828"><ele>645.0</ele><time>2026-04-12T09:26:30.627Z</time></trkpt><trkpt lat="43.2353538" lon="12.098959"><ele>642.8</ele><time>2026-04-12T09:26:31.632Z</time></trkpt><trkpt lat="43.2352776" lon="12.0990506"><ele>640.6</ele><time>2026-04-12T09:26:32.629Z</time></trkpt><trkpt lat="43.2352097" lon="12.0991608"><ele>638.4</ele><time>2026-04-12T09:26:33.624Z</time></trkpt><trkpt lat="43.2351459" lon="12.0992747"><ele>636.2</ele><time>2026-04-12T09:26:34.624Z</time></trkpt><trkpt lat="43.2350814" lon="12.0993835"><ele>634.0</ele><time>2026-04-12T09:26:35.626Z</time></trkpt><trkpt lat="43.2350154" lon="12.0994841"><ele>634.0</ele><time>2026-04-12T09:26:36.634Z</time></trkpt><trkpt lat="43.2349484" lon="12.0995871"><ele>634.0</ele><time>2026-04-12T09:26:37.615Z</time></trkpt><trkpt lat="43.2348815" lon="12.0996833"><ele>634.0</ele><time>2026-04-12T09:26:38.615Z</time></trkpt><trkpt lat="43.2348139" lon="12.0997819"><ele>634.0</ele><time>2026-04-12T09:26:39.622Z</time></trkpt><trkpt lat="43.2347461" lon="12.0998722"><ele>634.0</ele><time>2026-04-12T09:26:40.616Z</time></trkpt><trkpt lat="43.2346863" lon="12.0999703"><ele>631.4285714285714</ele><time>2026-04-12T09:26:41.617Z</time></trkpt><trkpt lat="43.2346271" lon="12.1000563"><ele>628.8571428571429</ele><time>2026-04-12T09:26:42.616Z</time></trkpt><trkpt lat="43.2345727" lon="12.1001328"><ele>626.2857142857142</ele><time>2026-04-12T09:26:43.623Z</time></trkpt><trkpt lat="43.2345212" lon="12.1002023"><ele>623.7142857142858</ele><time>2026-04-12T09:26:44.62Z</time></trkpt><trkpt lat="43.2344723" lon="12.1002662"><ele>621.1428571428571</ele><time>2026-04-12T09:26:45.62Z</time></trkpt><trkpt lat="43.2344202" lon="12.1003282"><ele>618.5714285714286</ele><time>2026-04-12T09:26:46.62Z</time></trkpt><trkpt lat="43.2343673" lon="12.1003846"><ele>616.0</ele><time>2026-04-12T09:26:47.625Z</time></trkpt><trkpt lat="43.2343091" lon="12.1004383"><ele>616.0</ele><time>2026-04-12T09:26:48.623Z</time></trkpt><trkpt lat="43.2342468" lon="12.100491"><ele>616.0</ele><time>2026-04-12T09:26:49.622Z</time></trkpt><trkpt lat="43.2341767" lon="12.1005489"><ele>616.0</ele><time>2026-04-12T09:26:50.634Z</time></trkpt><trkpt lat="43.2341121" lon="12.1006101"><ele>616.0</ele><time>2026-04-12T09:26:51.619Z</time></trkpt><trkpt lat="43.2340521" lon="12.1006791"><ele>616.0</ele><time>2026-04-12T09:26:52.625Z</time></trkpt><trkpt lat="43.2339968" lon="12.1007548"><ele>616.0</ele><time>2026-04-12T09:26:53.618Z</time></trkpt><trkpt lat="43.2339432" lon="12.1008404"><ele>613.8333333333334</ele><time>2026-04-12T09:26:54.625Z</time></trkpt><trkpt lat="43.2338922" lon="12.1009349"><ele>611.6666666666667</ele><time>2026-04-12T09:26:55.618Z</time></trkpt><trkpt lat="43.2338473" lon="12.1010417"><ele>609.5</ele><time>2026-04-12T09:26:56.621Z</time></trkpt><trkpt lat="43.2338074" lon="12.1011474"><ele>607.3333333333334</ele><time>2026-04-12T09:26:57.626Z</time></trkpt><trkpt lat="43.233766" lon="12.1012466"><ele>605.1666666666666</ele><time>2026-04-12T09:26:58.62Z</time></trkpt><trkpt lat="43.2337261" lon="12.1013497"><ele>603.0</ele><time>2026-04-12T09:26:59.621Z</time></trkpt><trkpt lat="43.2336918" lon="12.10145"><ele>603.0</ele><time>2026-04-12T09:27:00.623Z</time></trkpt><trkpt lat="43.2336577" lon="12.1015402"><ele>603.0</ele><time>2026-04-12T09:27:01.622Z</time></trkpt><trkpt lat="43.2336154" lon="12.1016274"><ele>603.0</ele><time>2026-04-12T09:27:02.616Z</time></trkpt><trkpt lat="43.2335667" lon="12.1017153"><ele>603.0</ele><time>2026-04-12T09:27:03.62Z</time></trkpt><trkpt lat="43.2335055" lon="12.1018105"><ele>603.0</ele><time>2026-04-12T09:27:04.618Z</time></trkpt><trkpt lat="43.2334311" lon="12.1019195"><ele>603.0</ele><time>2026-04-12T09:27:05.617Z</time></trkpt><trkpt lat="43.2333498" lon="12.1020058"><ele>603.4</ele><time>2026-04-12T09:27:06.617Z</time></trkpt><trkpt lat="43.233257" lon="12.1020836"><ele>603.8</ele><time>2026-04-12T09:27:07.617Z</time></trkpt><trkpt lat="43.2331601" lon="12.1021608"><ele>604.2</ele><time>2026-04-12T09:27:08.613Z</time></trkpt><trkpt lat="43.2330631" lon="12.1022318"><ele>604.6</ele><time>2026-04-12T09:27:09.617Z</time></trkpt><trkpt lat="43.2329798" lon="12.1023138"><ele>605.0</ele><time>2026-04-12T09:27:10.618Z</time></trkpt><trkpt lat="43.2329198" lon="12.1023959"><ele>602.8333333333333</ele><time>2026-04-12T09:27:11.617Z</time></trkpt><trkpt lat="43.2328754" lon="12.1024827"><ele>600.6666666666666</ele><time>2026-04-12T09:27:12.622Z</time></trkpt><trkpt lat="43.2328523" lon="12.102576"><ele>598.5</ele><time>2026-04-12T09:27:13.628Z</time></trkpt><trkpt lat="43.2328559" lon="12.1026692"><ele>596.3333333333334</ele><time>2026-04-12T09:27:14.629Z</time></trkpt><trkpt lat="43.23295" lon="12.1027904"><ele>594.1666666666667</ele><time>2026-04-12T09:27:16.625Z</time></trkpt><trkpt lat="43.2330234" lon="12.1028375"><ele>592.0</ele><time>2026-04-12T09:27:17.622Z</time></trkpt><trkpt lat="43.2330976" lon="12.1028679"><ele>593.2</ele><time>2026-04-12T09:27:18.629Z</time></trkpt><trkpt lat="43.2331632" lon="12.102894"><ele>594.4000000000001</ele><time>2026-04-12T09:27:19.627Z</time></trkpt><trkpt lat="43.2332212" lon="12.1029298"><ele>595.5999999999999</ele><time>2026-04-12T09:27:20.623Z</time></trkpt><trkpt lat="43.2332922" lon="12.1030338"><ele>596.8</ele><time>2026-04-12T09:27:22.628Z</time></trkpt><trkpt lat="43.233402" lon="12.1031687"><ele>598.0</ele><time>2026-04-12T09:27:24.627Z</time></trkpt><trkpt lat="43.2334958" lon="12.1032659"><ele>598.0</ele><time>2026-04-12T09:27:25.621Z</time></trkpt><trkpt lat="43.2335692" lon="12.1033982"><ele>598.0</ele><time>2026-04-12T09:27:26.627Z</time></trkpt><trkpt lat="43.2336087" lon="12.1035733"><ele>598.0</ele><time>2026-04-12T09:27:27.628Z</time></trkpt><trkpt lat="43.2336118" lon="12.1037684"><ele>598.0</ele><time>2026-04-12T09:27:28.631Z</time></trkpt><trkpt lat="43.2335905" lon="12.1039712"><ele>597.75</ele><time>2026-04-12T09:27:29.629Z</time></trkpt><trkpt lat="43.2335814" lon="12.1041536"><ele>597.5</ele><time>2026-04-12T09:27:30.623Z</time></trkpt><trkpt lat="43.2336003" lon="12.104342"><ele>597.25</ele><time>2026-04-12T09:27:31.633Z</time></trkpt><trkpt lat="43.2336573" lon="12.1045262"><ele>597.0</ele><time>2026-04-12T09:27:32.625Z</time></trkpt><trkpt lat="43.2337427" lon="12.1046783"><ele>597.0</ele><time>2026-04-12T09:27:33.622Z</time></trkpt><trkpt lat="43.2338614" lon="12.104798"><ele>597.0</ele><time>2026-04-12T09:27:34.624Z</time></trkpt><trkpt lat="43.2339957" lon="12.1049004"><ele>597.0</ele><time>2026-04-12T09:27:35.623Z</time></trkpt><trkpt lat="43.2341427" lon="12.104972"><ele>598.5</ele><time>2026-04-12T09:27:36.636Z</time></trkpt><trkpt lat="43.2342775" lon="12.1050261"><ele>600.0</ele><time>2026-04-12T09:27:37.627Z</time></trkpt><trkpt lat="43.234383" lon="12.1050778"><ele>601.5</ele><time>2026-04-12T09:27:38.628Z</time></trkpt><trkpt lat="43.2344714" lon="12.1051588"><ele>603.0</ele><time>2026-04-12T09:27:39.624Z</time></trkpt><trkpt lat="43.2345317" lon="12.105285"><ele>603.0</ele><time>2026-04-12T09:27:40.627Z</time></trkpt><trkpt lat="43.2345599" lon="12.1054327"><ele>603.0</ele><time>2026-04-12T09:27:41.631Z</time></trkpt><trkpt lat="43.2345564" lon="12.1056003"><ele>603.0</ele><time>2026-04-12T09:27:42.63Z</time></trkpt><trkpt lat="43.2345338" lon="12.1057683"><ele>603.0</ele><time>2026-04-12T09:27:43.627Z</time></trkpt><trkpt lat="43.2344904" lon="12.1059339"><ele>601.1999999999999</ele><time>2026-04-12T09:27:44.628Z</time></trkpt><trkpt lat="43.234458" lon="12.1060772"><ele>599.4</ele><time>2026-04-12T09:27:45.627Z</time></trkpt><trkpt lat="43.2344324" lon="12.1062028"><ele>597.5999999999999</ele><time>2026-04-12T09:27:46.624Z</time></trkpt><trkpt lat="43.2344169" lon="12.1063127"><ele>595.8</ele><time>2026-04-12T09:27:47.625Z</time></trkpt><trkpt lat="43.2344092" lon="12.1064089"><ele>594.0</ele><time>2026-04-12T09:27:48.62Z</time></trkpt><trkpt lat="43.23441" lon="12.106553"><ele>594.5</ele><time>2026-04-12T09:27:50.622Z</time></trkpt><trkpt lat="43.2343929" lon="12.1066516"><ele>595.0</ele><time>2026-04-12T09:27:53.641Z</time></trkpt><trkpt lat="43.2344237" lon="12.1067392"><ele>595.5</ele><time>2026-04-12T09:30:41.642Z</time></trkpt><trkpt lat="43.2344907" lon="12.1068715"><ele>596.0</ele><time>2026-04-12T09:30:43.645Z</time></trkpt><trkpt lat="43.2344911" lon="12.1069735"><ele>596.5</ele><time>2026-04-12T09:30:44.639Z</time></trkpt><trkpt lat="43.2344577" lon="12.1070892"><ele>597.0</ele><time>2026-04-12T09:30:45.631Z</time></trkpt><trkpt lat="43.2344042" lon="12.1071948"><ele>597.0</ele><time>2026-04-12T09:30:46.625Z</time></trkpt><trkpt lat="43.234365" lon="12.1073021"><ele>597.0</ele><time>2026-04-12T09:30:47.625Z</time></trkpt><trkpt lat="43.2343362" lon="12.1074219"><ele>597.0</ele><time>2026-04-12T09:30:48.621Z</time></trkpt><trkpt lat="43.2343174" lon="12.1075715"><ele>597.0</ele><time>2026-04-12T09:30:49.62Z</time></trkpt><trkpt lat="43.234299" lon="12.1077599"><ele>597.0</ele><time>2026-04-12T09:30:50.625Z</time></trkpt><trkpt lat="43.2342784" lon="12.1079366"><ele>598.25</ele><time>2026-04-12T09:30:51.621Z</time></trkpt><trkpt lat="43.2342646" lon="12.1081132"><ele>599.5</ele><time>2026-04-12T09:30:52.624Z</time></trkpt><trkpt lat="43.2342642" lon="12.1082817"><ele>600.75</ele><time>2026-04-12T09:30:53.624Z</time></trkpt><trkpt lat="43.2342713" lon="12.108442"><ele>602.0</ele><time>2026-04-12T09:30:54.621Z</time></trkpt><trkpt lat="43.2342699" lon="12.1086015"><ele>602.75</ele><time>2026-04-12T09:30:55.624Z</time></trkpt><trkpt lat="43.2342563" lon="12.108765"><ele>603.5</ele><time>2026-04-12T09:30:56.623Z</time></trkpt><trkpt lat="43.2342089" lon="12.108969"><ele>604.25</ele><time>2026-04-12T09:30:57.637Z</time></trkpt><trkpt lat="43.2341468" lon="12.1091821"><ele>605.0</ele><time>2026-04-12T09:30:58.629Z</time></trkpt><trkpt lat="43.2340832" lon="12.1093653"><ele>607.0</ele><time>2026-04-12T09:30:59.628Z</time></trkpt><trkpt lat="43.2340391" lon="12.1095575"><ele>609.0</ele><time>2026-04-12T09:31:00.628Z</time></trkpt><trkpt lat="43.2340064" lon="12.1097709"><ele>611.0</ele><time>2026-04-12T09:31:01.628Z</time></trkpt><trkpt lat="43.2339866" lon="12.1099577"><ele>613.0</ele><time>2026-04-12T09:31:02.623Z</time></trkpt><trkpt lat="43.2339897" lon="12.1101194"><ele>614.0</ele><time>2026-04-12T09:31:03.625Z</time></trkpt><trkpt lat="43.2340203" lon="12.1102782"><ele>615.0</ele><time>2026-04-12T09:31:04.625Z</time></trkpt><trkpt lat="43.2340612" lon="12.1104029"><ele>616.0</ele><time>2026-04-12T09:31:05.63Z</time></trkpt><trkpt lat="43.2341305" lon="12.1104845"><ele>617.0</ele><time>2026-04-12T09:31:06.631Z</time></trkpt><trkpt lat="43.2342128" lon="12.1105475"><ele>618.0</ele><time>2026-04-12T09:31:07.623Z</time></trkpt><trkpt lat="43.2343254" lon="12.1105894"><ele>618.0</ele><time>2026-04-12T09:31:08.621Z</time></trkpt><trkpt lat="43.2344491" lon="12.1106049"><ele>618.0</ele><time>2026-04-12T09:31:09.623Z</time></trkpt><trkpt lat="43.2345771" lon="12.1106151"><ele>618.0</ele><time>2026-04-12T09:31:10.625Z</time></trkpt><trkpt lat="43.2347124" lon="12.110625"><ele>618.0</ele><time>2026-04-12T09:31:11.623Z</time></trkpt><trkpt lat="43.2348528" lon="12.1106423"><ele>618.25</ele><time>2026-04-12T09:31:12.625Z</time></trkpt><trkpt lat="43.2350022" lon="12.1106688"><ele>618.5</ele><time>2026-04-12T09:31:13.625Z</time></trkpt><trkpt lat="43.2351315" lon="12.1107148"><ele>618.75</ele><time>2026-04-12T09:31:14.626Z</time></trkpt><trkpt lat="43.2352385" lon="12.1107782"><ele>619.0</ele><time>2026-04-12T09:31:15.629Z</time></trkpt><trkpt lat="43.2353317" lon="12.110863"><ele>622.5</ele><time>2026-04-12T09:31:16.639Z</time></trkpt><trkpt lat="43.235399" lon="12.1109826"><ele>626.0</ele><time>2026-04-12T09:31:17.629Z</time></trkpt><trkpt lat="43.2354758" lon="12.1110974"><ele>629.5</ele><time>2026-04-12T09:31:18.635Z</time></trkpt><trkpt lat="43.2355763" lon="12.1112083"><ele>633.0</ele><time>2026-04-12T09:31:19.626Z</time></trkpt><trkpt lat="43.2356602" lon="12.1112906"><ele>633.0</ele><time>2026-04-12T09:31:20.622Z</time></trkpt><trkpt lat="43.235731" lon="12.1113617"><ele>633.0</ele><time>2026-04-12T09:31:21.628Z</time></trkpt><trkpt lat="43.2357831" lon="12.1114305"><ele>633.0</ele><time>2026-04-12T09:31:22.63Z</time></trkpt><trkpt lat="43.235727" lon="12.1115063"><ele>633.0</ele><time>2026-04-12T09:31:24.634Z</time></trkpt><trkpt lat="43.2356574" lon="12.1114947"><ele>633.0</ele><time>2026-04-12T09:31:25.634Z</time></trkpt><trkpt lat="43.2355796" lon="12.1114585"><ele>633.0</ele><time>2026-04-12T09:31:26.617Z</time></trkpt><trkpt lat="43.2355004" lon="12.1114267"><ele>633.0</ele><time>2026-04-12T09:31:27.614Z</time></trkpt><trkpt lat="43.2354116" lon="12.1114225"><ele>633.0</ele><time>2026-04-12T09:31:28.638Z</time></trkpt><trkpt lat="43.2353167" lon="12.1114606"><ele>633.0</ele><time>2026-04-12T09:31:29.63Z</time></trkpt><trkpt lat="43.2352247" lon="12.1115534"><ele>633.0</ele><time>2026-04-12T09:31:30.629Z</time></trkpt><trkpt lat="43.2351475" lon="12.1117072"><ele>633.0</ele><time>2026-04-12T09:31:31.618Z</time></trkpt><trkpt lat="43.2350915" lon="12.11187"><ele>635.5</ele><time>2026-04-12T09:31:32.629Z</time></trkpt><trkpt lat="43.2350618" lon="12.1120421"><ele>638.0</ele><time>2026-04-12T09:31:33.632Z</time></trkpt><trkpt lat="43.2350738" lon="12.1122118"><ele>640.5</ele><time>2026-04-12T09:31:34.631Z</time></trkpt><trkpt lat="43.2351211" lon="12.1123842"><ele>643.0</ele><time>2026-04-12T09:31:35.631Z</time></trkpt><trkpt lat="43.2352004" lon="12.1125672"><ele>643.0</ele><time>2026-04-12T09:31:36.638Z</time></trkpt><trkpt lat="43.2352983" lon="12.1127444"><ele>643.0</ele><time>2026-04-12T09:31:37.621Z</time></trkpt><trkpt lat="43.2354125" lon="12.112935"><ele>643.0</ele><time>2026-04-12T09:31:38.628Z</time></trkpt><trkpt lat="43.2355488" lon="12.1131655"><ele>650.5</ele><time>2026-04-12T09:31:39.63Z</time></trkpt><trkpt lat="43.2356477" lon="12.1133494"><ele>658.0</ele><time>2026-04-12T09:31:40.634Z</time></trkpt><trkpt lat="43.2357273" lon="12.1134905"><ele>665.5</ele><time>2026-04-12T09:31:41.624Z</time></trkpt><trkpt lat="43.2357847" lon="12.11365"><ele>673.0</ele><time>2026-04-12T09:31:42.63Z</time></trkpt><trkpt lat="43.2358134" lon="12.1137981"><ele>673.0</ele><time>2026-04-12T09:31:43.634Z</time></trkpt><trkpt lat="43.2357945" lon="12.1139606"><ele>673.0</ele><time>2026-04-12T09:31:44.634Z</time></trkpt><trkpt lat="43.2357574" lon="12.1141506"><ele>673.0</ele><time>2026-04-12T09:31:45.628Z</time></trkpt><trkpt lat="43.2357117" lon="12.1143284"><ele>673.0</ele><time>2026-04-12T09:31:46.629Z</time></trkpt><trkpt lat="43.2356782" lon="12.1144927"><ele>673.5</ele><time>2026-04-12T09:31:47.628Z</time></trkpt><trkpt lat="43.2356597" lon="12.114677"><ele>674.0</ele><time>2026-04-12T09:31:48.625Z</time></trkpt><trkpt lat="43.2356408" lon="12.1148595"><ele>674.5</ele><time>2026-04-12T09:31:49.632Z</time></trkpt><trkpt lat="43.2356103" lon="12.1150315"><ele>675.0</ele><time>2026-04-12T09:31:50.626Z</time></trkpt><trkpt lat="43.2355712" lon="12.1151998"><ele>672.8</ele><time>2026-04-12T09:31:51.62Z</time></trkpt><trkpt lat="43.2355356" lon="12.115346"><ele>670.6</ele><time>2026-04-12T09:31:52.619Z</time></trkpt><trkpt lat="43.2354925" lon="12.1154721"><ele>668.4000000000001</ele><time>2026-04-12T09:31:53.616Z</time></trkpt><trkpt lat="43.2354408" lon="12.1155783"><ele>666.2</ele><time>2026-04-12T09:31:54.619Z</time></trkpt><trkpt lat="43.2353666" lon="12.1156454"><ele>664.0</ele><time>2026-04-12T09:31:55.621Z</time></trkpt><trkpt lat="43.2352601" lon="12.1156802"><ele>664.0</ele><time>2026-04-12T09:31:56.622Z</time></trkpt><trkpt lat="43.2351291" lon="12.1156907"><ele>664.0</ele><time>2026-04-12T09:31:57.621Z</time></trkpt><trkpt lat="43.2349847" lon="12.1156868"><ele>664.0</ele><time>2026-04-12T09:31:58.621Z</time></trkpt><trkpt lat="43.2348298" lon="12.1156731"><ele>664.0</ele><time>2026-04-12T09:31:59.637Z</time></trkpt><trkpt lat="43.2346782" lon="12.1156594"><ele>663.75</ele><time>2026-04-12T09:32:00.623Z</time></trkpt><trkpt lat="43.2345464" lon="12.1156532"><ele>663.5</ele><time>2026-04-12T09:32:01.625Z</time></trkpt><trkpt lat="43.2344338" lon="12.1156519"><ele>663.25</ele><time>2026-04-12T09:32:02.625Z</time></trkpt><trkpt lat="43.2343287" lon="12.1156873"><ele>663.0</ele><time>2026-04-12T09:32:03.629Z</time></trkpt><trkpt lat="43.2342376" lon="12.1157635"><ele>666.0</ele><time>2026-04-12T09:32:04.63Z</time></trkpt><trkpt lat="43.234172" lon="12.1158624"><ele>669.0</ele><time>2026-04-12T09:32:05.627Z</time></trkpt><trkpt lat="43.2341112" lon="12.1160173"><ele>672.0</ele><time>2026-04-12T09:32:06.634Z</time></trkpt><trkpt lat="43.234048" lon="12.1161948"><ele>675.0</ele><time>2026-04-12T09:32:07.623Z</time></trkpt><trkpt lat="43.2339946" lon="12.1163743"><ele>673.5</ele><time>2026-04-12T09:32:08.628Z</time></trkpt><trkpt lat="43.2339471" lon="12.1165549"><ele>672.0</ele><time>2026-04-12T09:32:09.627Z</time></trkpt><trkpt lat="43.2339012" lon="12.1167119"><ele>670.5</ele><time>2026-04-12T09:32:10.628Z</time></trkpt><trkpt lat="43.2338541" lon="12.1168396"><ele>669.0</ele><time>2026-04-12T09:32:11.623Z</time></trkpt><trkpt lat="43.2337853" lon="12.1169281"><ele>669.0</ele><time>2026-04-12T09:32:12.63Z</time></trkpt><trkpt lat="43.2336978" lon="12.1169714"><ele>669.0</ele><time>2026-04-12T09:32:13.624Z</time></trkpt><trkpt lat="43.2335822" lon="12.1169865"><ele>669.0</ele><time>2026-04-12T09:32:14.628Z</time></trkpt><trkpt lat="43.2334649" lon="12.1170093"><ele>669.0</ele><time>2026-04-12T09:32:15.623Z</time></trkpt><trkpt lat="43.233345" lon="12.1170649"><ele>669.0</ele><time>2026-04-12T09:32:16.628Z</time></trkpt><trkpt lat="43.2332221" lon="12.1171671"><ele>669.0</ele><time>2026-04-12T09:32:17.62Z</time></trkpt><trkpt lat="43.2331125" lon="12.1172842"><ele>669.0</ele><time>2026-04-12T09:32:18.624Z</time></trkpt><trkpt lat="43.2330022" lon="12.1173924"><ele>669.0</ele><time>2026-04-12T09:32:19.621Z</time></trkpt><trkpt lat="43.2329014" lon="12.1174591"><ele>671.0</ele><time>2026-04-12T09:32:20.626Z</time></trkpt><trkpt lat="43.2327715" lon="12.1175163"><ele>673.0</ele><time>2026-04-12T09:32:21.622Z</time></trkpt><trkpt lat="43.2326361" lon="12.1175622"><ele>675.0</ele><time>2026-04-12T09:32:22.625Z</time></trkpt><trkpt lat="43.232507" lon="12.1176255"><ele>677.0</ele><time>2026-04-12T09:32:23.631Z</time></trkpt><trkpt lat="43.2324113" lon="12.1177198"><ele>677.0</ele><time>2026-04-12T09:32:24.631Z</time></trkpt><trkpt lat="43.2323493" lon="12.1178285"><ele>677.0</ele><time>2026-04-12T09:32:25.625Z</time></trkpt><trkpt lat="43.2322854" lon="12.1179777"><ele>677.0</ele><time>2026-04-12T09:32:26.628Z</time></trkpt><trkpt lat="43.2322127" lon="12.1181288"><ele>677.0</ele><time>2026-04-12T09:32:27.628Z</time></trkpt><trkpt lat="43.2321341" lon="12.1182618"><ele>677.8</ele><time>2026-04-12T09:32:28.629Z</time></trkpt><trkpt lat="43.2320521" lon="12.1183725"><ele>678.6</ele><time>2026-04-12T09:32:29.634Z</time></trkpt><trkpt lat="43.2320024" lon="12.1184797"><ele>679.4</ele><time>2026-04-12T09:32:30.644Z</time></trkpt><trkpt lat="43.2320004" lon="12.1185991"><ele>680.1999999999999</ele><time>2026-04-12T09:32:31.634Z</time></trkpt><trkpt lat="43.2320418" lon="12.1187236"><ele>681.0</ele><time>2026-04-12T09:32:32.627Z</time></trkpt><trkpt lat="43.2320901" lon="12.118869"><ele>681.0</ele><time>2026-04-12T09:32:33.627Z</time></trkpt><trkpt lat="43.2321202" lon="12.1190224"><ele>681.0</ele><time>2026-04-12T09:32:34.629Z</time></trkpt><trkpt lat="43.2321204" lon="12.119168"><ele>681.0</ele><time>2026-04-12T09:32:35.622Z</time></trkpt><trkpt lat="43.2321166" lon="12.1193139"><ele>681.0</ele><time>2026-04-12T09:32:36.629Z</time></trkpt><trkpt lat="43.2321164" lon="12.1194544"><ele>681.0</ele><time>2026-04-12T09:32:37.619Z</time></trkpt><trkpt lat="43.2321298" lon="12.1195929"><ele>683.1999999999999</ele><time>2026-04-12T09:32:38.625Z</time></trkpt><trkpt lat="43.2321458" lon="12.1197153"><ele>685.4</ele><time>2026-04-12T09:32:39.627Z</time></trkpt><trkpt lat="43.2321538" lon="12.1198242"><ele>687.6</ele><time>2026-04-12T09:32:40.631Z</time></trkpt><trkpt lat="43.2321064" lon="12.1199694"><ele>689.8</ele><time>2026-04-12T09:32:42.63Z</time></trkpt><trkpt lat="43.2320371" lon="12.120002"><ele>692.0</ele><time>2026-04-12T09:32:43.628Z</time></trkpt><trkpt lat="43.2319459" lon="12.1199978"><ele>695.5</ele><time>2026-04-12T09:32:44.632Z</time></trkpt><trkpt lat="43.231827" lon="12.119958"><ele>699.0</ele><time>2026-04-12T09:32:45.619Z</time></trkpt><trkpt lat="43.231715" lon="12.1199244"><ele>702.5</ele><time>2026-04-12T09:32:46.618Z</time></trkpt><trkpt lat="43.2315991" lon="12.119928"><ele>706.0</ele><time>2026-04-12T09:32:47.622Z</time></trkpt><trkpt lat="43.2314905" lon="12.1199828"><ele>702.0</ele><time>2026-04-12T09:32:48.62Z</time></trkpt><trkpt lat="43.2313834" lon="12.1200989"><ele>698.0</ele><time>2026-04-12T09:32:49.618Z</time></trkpt><trkpt lat="43.2312838" lon="12.1202406"><ele>694.0</ele><time>2026-04-12T09:32:50.626Z</time></trkpt><trkpt lat="43.2311954" lon="12.1204053"><ele>690.0</ele><time>2026-04-12T09:32:51.623Z</time></trkpt><trkpt lat="43.2311634" lon="12.1205963"><ele>692.25</ele><time>2026-04-12T09:32:52.614Z</time></trkpt><trkpt lat="43.2311466" lon="12.1207558"><ele>694.5</ele><time>2026-04-12T09:32:53.617Z</time></trkpt><trkpt lat="43.2311525" lon="12.1209341"><ele>696.75</ele><time>2026-04-12T09:32:54.62Z</time></trkpt><trkpt lat="43.2311598" lon="12.1211205"><ele>699.0</ele><time>2026-04-12T09:32:55.627Z</time></trkpt><trkpt lat="43.2311632" lon="12.1212915"><ele>699.0</ele><time>2026-04-12T09:32:56.63Z</time></trkpt><trkpt lat="43.2311671" lon="12.1214649"><ele>699.0</ele><time>2026-04-12T09:32:57.631Z</time></trkpt><trkpt lat="43.2311712" lon="12.1216542"><ele>699.0</ele><time>2026-04-12T09:32:58.633Z</time></trkpt><trkpt lat="43.2311675" lon="12.1218466"><ele>699.0</ele><time>2026-04-12T09:32:59.631Z</time></trkpt><trkpt lat="43.2311669" lon="12.1220353"><ele>698.5</ele><time>2026-04-12T09:33:00.634Z</time></trkpt><trkpt lat="43.2311674" lon="12.1222185"><ele>698.0</ele><time>2026-04-12T09:33:01.643Z</time></trkpt><trkpt lat="43.2311729" lon="12.1223987"><ele>697.5</ele><time>2026-04-12T09:33:02.628Z</time></trkpt><trkpt lat="43.2311971" lon="12.1225692"><ele>697.0</ele><time>2026-04-12T09:33:03.629Z</time></trkpt><trkpt lat="43.2312319" lon="12.1227251"><ele>696.5</ele><time>2026-04-12T09:33:04.624Z</time></trkpt><trkpt lat="43.2312718" lon="12.1228582"><ele>696.0</ele><time>2026-04-12T09:33:05.632Z</time></trkpt><trkpt lat="43.2313081" lon="12.1229709"><ele>695.5</ele><time>2026-04-12T09:33:06.636Z</time></trkpt><trkpt lat="43.2313433" lon="12.123076"><ele>695.0</ele><time>2026-04-12T09:33:07.625Z</time></trkpt><trkpt lat="43.231379" lon="12.1231646"><ele>694.5</ele><time>2026-04-12T09:33:08.626Z</time></trkpt><trkpt lat="43.2314239" lon="12.1232318"><ele>694.0</ele><time>2026-04-12T09:33:09.626Z</time></trkpt><trkpt lat="43.2314846" lon="12.1232775"><ele>696.6666666666667</ele><time>2026-04-12T09:33:10.622Z</time></trkpt><trkpt lat="43.2315593" lon="12.123311"><ele>699.3333333333334</ele><time>2026-04-12T09:33:11.62Z</time></trkpt><trkpt lat="43.2316488" lon="12.1233372"><ele>702.0</ele><time>2026-04-12T09:33:12.622Z</time></trkpt><trkpt lat="43.2317324" lon="12.1233721"><ele>704.6666666666666</ele><time>2026-04-12T09:33:13.611Z</time></trkpt><trkpt lat="43.2318073" lon="12.1234161"><ele>707.3333333333333</ele><time>2026-04-12T09:33:14.622Z</time></trkpt><trkpt lat="43.2318543" lon="12.1234988"><ele>710.0</ele><time>2026-04-12T09:33:15.62Z</time></trkpt><trkpt lat="43.2318778" lon="12.1236055"><ele>710.0</ele><time>2026-04-12T09:33:16.623Z</time></trkpt><trkpt lat="43.2318861" lon="12.123751"><ele>710.0</ele><time>2026-04-12T09:33:17.613Z</time></trkpt><trkpt lat="43.2318798" lon="12.123912"><ele>710.0</ele><time>2026-04-12T09:33:18.616Z</time></trkpt><trkpt lat="43.2318582" lon="12.124102"><ele>710.0</ele><time>2026-04-12T09:33:19.607Z</time></trkpt><trkpt lat="43.231834" lon="12.1242942"><ele>708.5</ele><time>2026-04-12T09:33:20.616Z</time></trkpt><trkpt lat="43.2318172" lon="12.1244807"><ele>707.0</ele><time>2026-04-12T09:33:21.618Z</time></trkpt><trkpt lat="43.2318048" lon="12.1246507"><ele>705.5</ele><time>2026-04-12T09:33:22.615Z</time></trkpt><trkpt lat="43.2317855" lon="12.1247977"><ele>704.0</ele><time>2026-04-12T09:33:23.618Z</time></trkpt><trkpt lat="43.2317466" lon="12.1249392"><ele>704.0</ele><time>2026-04-12T09:33:24.615Z</time></trkpt><trkpt lat="43.2316908" lon="12.1250812"><ele>704.0</ele><time>2026-04-12T09:33:25.616Z</time></trkpt><trkpt lat="43.2316332" lon="12.1252291"><ele>704.0</ele><time>2026-04-12T09:33:26.613Z</time></trkpt><trkpt lat="43.2315765" lon="12.1253701"><ele>704.0</ele><time>2026-04-12T09:33:27.618Z</time></trkpt><trkpt lat="43.2315219" lon="12.1255208"><ele>697.8000000000001</ele><time>2026-04-12T09:33:28.62Z</time></trkpt><trkpt lat="43.2314676" lon="12.1256542"><ele>691.6</ele><time>2026-04-12T09:33:29.626Z</time></trkpt><trkpt lat="43.2314229" lon="12.1257649"><ele>685.4</ele><time>2026-04-12T09:33:30.626Z</time></trkpt><trkpt lat="43.2313944" lon="12.1258766"><ele>679.2</ele><time>2026-04-12T09:33:31.627Z</time></trkpt><trkpt lat="43.2313882" lon="12.1260026"><ele>673.0</ele><time>2026-04-12T09:33:32.64Z</time></trkpt><trkpt lat="43.2314066" lon="12.1261409"><ele>673.0</ele><time>2026-04-12T09:33:33.62Z</time></trkpt><trkpt lat="43.2314245" lon="12.1262748"><ele>673.0</ele><time>2026-04-12T09:33:34.624Z</time></trkpt><trkpt lat="43.2314221" lon="12.1263919"><ele>673.0</ele><time>2026-04-12T09:33:35.622Z</time></trkpt><trkpt lat="43.2314086" lon="12.1264918"><ele>673.0</ele><time>2026-04-12T09:33:36.635Z</time></trkpt><trkpt lat="43.2313627" lon="12.1265756"><ele>673.0</ele><time>2026-04-12T09:33:37.615Z</time></trkpt><trkpt lat="43.2313013" lon="12.1266545"><ele>673.0</ele><time>2026-04-12T09:33:38.618Z</time></trkpt><trkpt lat="43.2312532" lon="12.1267309"><ele>675.2</ele><time>2026-04-12T09:33:39.621Z</time></trkpt><trkpt lat="43.231232" lon="12.1268334"><ele>677.4</ele><time>2026-04-12T09:33:40.622Z</time></trkpt><trkpt lat="43.2312145" lon="12.126952"><ele>679.6</ele><time>2026-04-12T09:33:41.625Z</time></trkpt><trkpt lat="43.231223" lon="12.1270926"><ele>681.8000000000001</ele><time>2026-04-12T09:33:42.621Z</time></trkpt><trkpt lat="43.2312334" lon="12.1272286"><ele>684.0</ele><time>2026-04-12T09:33:43.621Z</time></trkpt><trkpt lat="43.2312486" lon="12.1273665"><ele>685.8000000000001</ele><time>2026-04-12T09:33:44.632Z</time></trkpt><trkpt lat="43.2312847" lon="12.1274985"><ele>687.6</ele><time>2026-04-12T09:33:45.629Z</time></trkpt><trkpt lat="43.2313314" lon="12.127624"><ele>689.4</ele><time>2026-04-12T09:33:46.628Z</time></trkpt><trkpt lat="43.2313816" lon="12.1277415"><ele>691.2</ele><time>2026-04-12T09:33:47.626Z</time></trkpt><trkpt lat="43.2314349" lon="12.1278621"><ele>693.0</ele><time>2026-04-12T09:33:48.621Z</time></trkpt><trkpt lat="43.2314926" lon="12.1279794"><ele>697.3333333333334</ele><time>2026-04-12T09:33:49.625Z</time></trkpt><trkpt lat="43.2315532" lon="12.1280969"><ele>701.6666666666666</ele><time>2026-04-12T09:33:50.627Z</time></trkpt><trkpt lat="43.2316136" lon="12.1282052"><ele>706.0</ele><time>2026-04-12T09:33:51.627Z</time></trkpt><trkpt lat="43.2316735" lon="12.1282968"><ele>710.3333333333333</ele><time>2026-04-12T09:33:52.627Z</time></trkpt><trkpt lat="43.2317198" lon="12.1283843"><ele>714.6666666666666</ele><time>2026-04-12T09:33:53.622Z</time></trkpt><trkpt lat="43.2317416" lon="12.1284717"><ele>719.0</ele><time>2026-04-12T09:33:54.628Z</time></trkpt><trkpt lat="43.2317212" lon="12.1285595"><ele>719.0</ele><time>2026-04-12T09:33:55.619Z</time></trkpt><trkpt lat="43.2316694" lon="12.1286411"><ele>719.0</ele><time>2026-04-12T09:33:56.621Z</time></trkpt><trkpt lat="43.2315794" lon="12.1287071"><ele>719.0</ele><time>2026-04-12T09:33:57.614Z</time></trkpt><trkpt lat="43.231476" lon="12.1287818"><ele>719.0</ele><time>2026-04-12T09:33:58.62Z</time></trkpt><trkpt lat="43.2313723" lon="12.1288594"><ele>719.0</ele><time>2026-04-12T09:33:59.616Z</time></trkpt><trkpt lat="43.2312784" lon="12.1289248"><ele>714.2</ele><time>2026-04-12T09:34:00.617Z</time></trkpt><trkpt lat="43.2311851" lon="12.128989"><ele>709.4000000000001</ele><time>2026-04-12T09:34:01.626Z</time></trkpt><trkpt lat="43.2310887" lon="12.1290283"><ele>704.6</ele><time>2026-04-12T09:34:02.618Z</time></trkpt><trkpt lat="43.2309845" lon="12.1290439"><ele>699.8</ele><time>2026-04-12T09:34:03.633Z</time></trkpt><trkpt lat="43.2308641" lon="12.1290364"><ele>695.0</ele><time>2026-04-12T09:34:04.62Z</time></trkpt><trkpt lat="43.2307573" lon="12.1290307"><ele>695.0</ele><time>2026-04-12T09:34:05.622Z</time></trkpt><trkpt lat="43.2306598" lon="12.1290547"><ele>695.0</ele><time>2026-04-12T09:34:06.629Z</time></trkpt><trkpt lat="43.2305581" lon="12.1290916"><ele>695.0</ele><time>2026-04-12T09:34:07.623Z</time></trkpt><trkpt lat="43.2304738" lon="12.1291681"><ele>695.0</ele><time>2026-04-12T09:34:08.613Z</time></trkpt><trkpt lat="43.230402" lon="12.1292654"><ele>695.0</ele><time>2026-04-12T09:34:09.619Z</time></trkpt><trkpt lat="43.2303322" lon="12.1292974"><ele>694.4285714285714</ele><time>2026-04-12T09:34:10.622Z</time></trkpt><trkpt lat="43.2302538" lon="12.1292895"><ele>693.8571428571429</ele><time>2026-04-12T09:34:11.618Z</time></trkpt><trkpt lat="43.2301822" lon="12.1292631"><ele>693.2857142857142</ele><time>2026-04-12T09:34:12.618Z</time></trkpt><trkpt lat="43.230115" lon="12.1292407"><ele>692.7142857142858</ele><time>2026-04-12T09:34:13.625Z</time></trkpt><trkpt lat="43.2300516" lon="12.129219"><ele>692.1428571428571</ele><time>2026-04-12T09:34:14.627Z</time></trkpt><trkpt lat="43.2299787" lon="12.1292029"><ele>691.5714285714286</ele><time>2026-04-12T09:34:15.625Z</time></trkpt><trkpt lat="43.2299013" lon="12.1291968"><ele>691.0</ele><time>2026-04-12T09:34:16.629Z</time></trkpt><trkpt lat="43.2298192" lon="12.1292071"><ele>687.0</ele><time>2026-04-12T09:34:17.627Z</time></trkpt><trkpt lat="43.2297427" lon="12.1292325"><ele>683.0</ele><time>2026-04-12T09:34:18.628Z</time></trkpt><trkpt lat="43.2296806" lon="12.1292844"><ele>679.0</ele><time>2026-04-12T09:34:19.629Z</time></trkpt><trkpt lat="43.229629" lon="12.1293814"><ele>675.0</ele><time>2026-04-12T09:34:20.631Z</time></trkpt><trkpt lat="43.2295997" lon="12.129511"><ele>671.0</ele><time>2026-04-12T09:34:21.625Z</time></trkpt><trkpt lat="43.2295776" lon="12.1296576"><ele>667.0</ele><time>2026-04-12T09:34:22.624Z</time></trkpt><trkpt lat="43.2295726" lon="12.1298013"><ele>667.4000000000001</ele><time>2026-04-12T09:34:23.632Z</time></trkpt><trkpt lat="43.2295853" lon="12.1299446"><ele>667.8000000000001</ele><time>2026-04-12T09:34:24.627Z</time></trkpt><trkpt lat="43.2296182" lon="12.1300953"><ele>668.2</ele><time>2026-04-12T09:34:25.621Z</time></trkpt><trkpt lat="43.2296473" lon="12.1302408"><ele>668.6</ele><time>2026-04-12T09:34:26.621Z</time></trkpt><trkpt lat="43.2296678" lon="12.1303746"><ele>669.0</ele><time>2026-04-12T09:34:27.618Z</time></trkpt><trkpt lat="43.229673" lon="12.1304972"><ele>669.0</ele><time>2026-04-12T09:34:28.625Z</time></trkpt><trkpt lat="43.2296643" lon="12.1306098"><ele>669.0</ele><time>2026-04-12T09:34:29.62Z</time></trkpt><trkpt lat="43.2296489" lon="12.1307212"><ele>669.0</ele><time>2026-04-12T09:34:30.617Z</time></trkpt><trkpt lat="43.2296405" lon="12.1308334"><ele>669.0</ele><time>2026-04-12T09:34:31.618Z</time></trkpt><trkpt lat="43.2296255" lon="12.1309382"><ele>669.0</ele><time>2026-04-12T09:34:32.616Z</time></trkpt><trkpt lat="43.2295945" lon="12.1310307"><ele>669.0</ele><time>2026-04-12T09:34:33.62Z</time></trkpt><trkpt lat="43.2295388" lon="12.1311041"><ele>669.6</ele><time>2026-04-12T09:34:34.633Z</time></trkpt><trkpt lat="43.2294558" lon="12.1311611"><ele>670.2</ele><time>2026-04-12T09:34:35.621Z</time></trkpt><trkpt lat="43.2293729" lon="12.131225"><ele>670.8000000000001</ele><time>2026-04-12T09:34:36.63Z</time></trkpt><trkpt lat="43.2292944" lon="12.1312903"><ele>671.4000000000001</ele><time>2026-04-12T09:34:37.62Z</time></trkpt><trkpt lat="43.2292202" lon="12.1313539"><ele>672.0</ele><time>2026-04-12T09:34:38.617Z</time></trkpt><trkpt lat="43.2291443" lon="12.1314136"><ele>672.0</ele><time>2026-04-12T09:34:39.619Z</time></trkpt><trkpt lat="43.2290691" lon="12.1314712"><ele>672.0</ele><time>2026-04-12T09:34:40.613Z</time></trkpt><trkpt lat="43.2289994" lon="12.1315255"><ele>672.0</ele><time>2026-04-12T09:34:41.613Z</time></trkpt><trkpt lat="43.2289479" lon="12.1315934"><ele>672.0</ele><time>2026-04-12T09:34:42.621Z</time></trkpt><trkpt lat="43.2289155" lon="12.1316758"><ele>672.0</ele><time>2026-04-12T09:34:43.615Z</time></trkpt><trkpt lat="43.2288777" lon="12.1317477"><ele>672.0</ele><time>2026-04-12T09:34:44.622Z</time></trkpt><trkpt lat="43.2288229" lon="12.1318232"><ele>672.0</ele><time>2026-04-12T09:34:45.618Z</time></trkpt><trkpt lat="43.2287695" lon="12.1318945"><ele>671.6</ele><time>2026-04-12T09:34:46.615Z</time></trkpt><trkpt lat="43.2287108" lon="12.1319516"><ele>671.2</ele><time>2026-04-12T09:34:47.618Z</time></trkpt><trkpt lat="43.2286438" lon="12.1319944"><ele>670.8</ele><time>2026-04-12T09:34:48.62Z</time></trkpt><trkpt lat="43.2285595" lon="12.1320178"><ele>670.4</ele><time>2026-04-12T09:34:49.618Z</time></trkpt><trkpt lat="43.228442" lon="12.1320371"><ele>670.0</ele><time>2026-04-12T09:34:50.616Z</time></trkpt><trkpt lat="43.2283275" lon="12.1320512"><ele>670.0</ele><time>2026-04-12T09:34:51.612Z</time></trkpt><trkpt lat="43.2282151" lon="12.1320734"><ele>670.0</ele><time>2026-04-12T09:34:52.615Z</time></trkpt><trkpt lat="43.2281037" lon="12.132119"><ele>670.0</ele><time>2026-04-12T09:34:53.611Z</time></trkpt><trkpt lat="43.228007" lon="12.1321659"><ele>670.0</ele><time>2026-04-12T09:34:54.619Z</time></trkpt><trkpt lat="43.2279104" lon="12.132225"><ele>670.0</ele><time>2026-04-12T09:34:55.614Z</time></trkpt><trkpt lat="43.2278115" lon="12.1322768"><ele>670.0</ele><time>2026-04-12T09:34:56.617Z</time></trkpt><trkpt lat="43.2277145" lon="12.1323084"><ele>670.0</ele><time>2026-04-12T09:34:57.617Z</time></trkpt><trkpt lat="43.2276326" lon="12.1323171"><ele>670.0</ele><time>2026-04-12T09:34:58.621Z</time></trkpt><trkpt lat="43.2275668" lon="12.1323411"><ele>670.0</ele><time>2026-04-12T09:34:59.626Z</time></trkpt><trkpt lat="43.2274845" lon="12.1324035"><ele>670.0</ele><time>2026-04-12T09:35:01.63Z</time></trkpt><trkpt lat="43.22744" lon="12.1325034"><ele>670.0</ele><time>2026-04-12T09:35:03.645Z</time></trkpt><trkpt lat="43.2274119" lon="12.1325816"><ele>669.9999999999999</ele><time>2026-04-12T09:35:04.628Z</time></trkpt><trkpt lat="43.2273889" lon="12.1326634"><ele>670.0</ele><time>2026-04-12T09:35:05.651Z</time></trkpt><trkpt lat="43.22737" lon="12.1327595"><ele>670.0</ele><time>2026-04-12T09:35:06.632Z</time></trkpt><trkpt lat="43.2273599" lon="12.1328572"><ele>670.0</ele><time>2026-04-12T09:35:07.626Z</time></trkpt><trkpt lat="43.2273566" lon="12.1329565"><ele>670.0</ele><time>2026-04-12T09:35:08.631Z</time></trkpt><trkpt lat="43.2273832" lon="12.1330404"><ele>669.9999999999999</ele><time>2026-04-12T09:35:09.626Z</time></trkpt><trkpt lat="43.2274048" lon="12.1331321"><ele>670.0</ele><time>2026-04-12T09:35:10.628Z</time></trkpt><trkpt lat="43.2274246" lon="12.1332332"><ele>671.3333333333334</ele><time>2026-04-12T09:35:11.621Z</time></trkpt><trkpt lat="43.2274338" lon="12.1333324"><ele>672.6666666666667</ele><time>2026-04-12T09:35:12.62Z</time></trkpt><trkpt lat="43.227434" lon="12.1334349"><ele>674.0</ele><time>2026-04-12T09:35:13.62Z</time></trkpt><trkpt lat="43.2274197" lon="12.1335437"><ele>675.3333333333334</ele><time>2026-04-12T09:35:14.621Z</time></trkpt><trkpt lat="43.227403" lon="12.1336632"><ele>676.6666666666666</ele><time>2026-04-12T09:35:15.622Z</time></trkpt><trkpt lat="43.2273842" lon="12.1337739"><ele>678.0</ele><time>2026-04-12T09:35:16.621Z</time></trkpt><trkpt lat="43.2273643" lon="12.1338728"><ele>678.0</ele><time>2026-04-12T09:35:17.619Z</time></trkpt><trkpt lat="43.2273465" lon="12.1339752"><ele>678.0</ele><time>2026-04-12T09:35:18.618Z</time></trkpt><trkpt lat="43.227331" lon="12.1340767"><ele>678.0</ele><time>2026-04-12T09:35:19.618Z</time></trkpt><trkpt lat="43.2273255" lon="12.1341846"><ele>678.0</ele><time>2026-04-12T09:35:20.626Z</time></trkpt><trkpt lat="43.2273375" lon="12.1342796"><ele>678.0</ele><time>2026-04-12T09:35:21.627Z</time></trkpt><trkpt lat="43.2273555" lon="12.1343727"><ele>678.0</ele><time>2026-04-12T09:35:22.62Z</time></trkpt><trkpt lat="43.2273779" lon="12.1345084"><ele>677.5</ele><time>2026-04-12T09:35:24.627Z</time></trkpt><trkpt lat="43.2273394" lon="12.1345884"><ele>677.0</ele><time>2026-04-12T09:35:25.626Z</time></trkpt><trkpt lat="43.2272969" lon="12.1346749"><ele>676.5</ele><time>2026-04-12T09:35:26.619Z</time></trkpt><trkpt lat="43.2272598" lon="12.1347713"><ele>676.0</ele><time>2026-04-12T09:35:27.618Z</time></trkpt><trkpt lat="43.2272298" lon="12.1348646"><ele>675.5</ele><time>2026-04-12T09:35:28.621Z</time></trkpt><trkpt lat="43.2271983" lon="12.1349658"><ele>675.0</ele><time>2026-04-12T09:35:29.621Z</time></trkpt><trkpt lat="43.2271438" lon="12.1350563"><ele>675.0</ele><time>2026-04-12T09:35:30.619Z</time></trkpt><trkpt lat="43.2270809" lon="12.1351319"><ele>675.0</ele><time>2026-04-12T09:35:31.623Z</time></trkpt><trkpt lat="43.2270126" lon="12.1351962"><ele>675.0</ele><time>2026-04-12T09:35:32.622Z</time></trkpt><trkpt lat="43.2269302" lon="12.1352437"><ele>675.0</ele><time>2026-04-12T09:35:33.626Z</time></trkpt><trkpt lat="43.226851" lon="12.1352675"><ele>675.0</ele><time>2026-04-12T09:35:34.623Z</time></trkpt><trkpt lat="43.2267642" lon="12.1352762"><ele>675.0</ele><time>2026-04-12T09:35:35.633Z</time></trkpt><trkpt lat="43.2266742" lon="12.1352903"><ele>675.0</ele><time>2026-04-12T09:35:36.633Z</time></trkpt><trkpt lat="43.2265791" lon="12.1352983"><ele>675.0</ele><time>2026-04-12T09:35:37.616Z</time></trkpt><trkpt lat="43.2264969" lon="12.1352968"><ele>675.0</ele><time>2026-04-12T09:35:38.624Z</time></trkpt><trkpt lat="43.2264136" lon="12.1352915"><ele>675.0</ele><time>2026-04-12T09:35:39.626Z</time></trkpt><trkpt lat="43.2263372" lon="12.1352922"><ele>675.0</ele><time>2026-04-12T09:35:40.625Z</time></trkpt><trkpt lat="43.2262463" lon="12.1353022"><ele>675.0</ele><time>2026-04-12T09:35:41.624Z</time></trkpt><trkpt lat="43.2261555" lon="12.135318"><ele>673.4285714285714</ele><time>2026-04-12T09:35:42.624Z</time></trkpt><trkpt lat="43.2260774" lon="12.1353254"><ele>671.8571428571429</ele><time>2026-04-12T09:35:43.627Z</time></trkpt><trkpt lat="43.2260006" lon="12.1353458"><ele>670.2857142857142</ele><time>2026-04-12T09:35:44.628Z</time></trkpt><trkpt lat="43.2259344" lon="12.1353733"><ele>668.7142857142858</ele><time>2026-04-12T09:35:45.623Z</time></trkpt><trkpt lat="43.2258742" lon="12.1354206"><ele>667.1428571428572</ele><time>2026-04-12T09:35:46.63Z</time></trkpt><trkpt lat="43.2258173" lon="12.1354798"><ele>665.5714285714286</ele><time>2026-04-12T09:35:47.627Z</time></trkpt><trkpt lat="43.2257565" lon="12.1355472"><ele>664.0</ele><time>2026-04-12T09:35:48.631Z</time></trkpt><trkpt lat="43.2256975" lon="12.1356123"><ele>663.8571428571428</ele><time>2026-04-12T09:35:49.631Z</time></trkpt><trkpt lat="43.2256442" lon="12.1356853"><ele>663.7142857142858</ele><time>2026-04-12T09:35:50.63Z</time></trkpt><trkpt lat="43.2255932" lon="12.1357616"><ele>663.5714285714286</ele><time>2026-04-12T09:35:51.626Z</time></trkpt><trkpt lat="43.2255555" lon="12.1358361"><ele>663.4285714285713</ele><time>2026-04-12T09:35:52.631Z</time></trkpt><trkpt lat="43.225535" lon="12.1359229"><ele>663.2857142857142</ele><time>2026-04-12T09:35:53.627Z</time></trkpt><trkpt lat="43.2255181" lon="12.1360182"><ele>663.1428571428571</ele><time>2026-04-12T09:35:54.628Z</time></trkpt><trkpt lat="43.225487" lon="12.1360956"><ele>663.0</ele><time>2026-04-12T09:35:55.628Z</time></trkpt><trkpt lat="43.2253745" lon="12.1361921"><ele>663.0</ele><time>2026-04-12T09:35:57.627Z</time></trkpt><trkpt lat="43.2253089" lon="12.1362554"><ele>663.0</ele><time>2026-04-12T09:35:58.633Z</time></trkpt><trkpt lat="43.2252497" lon="12.1363355"><ele>663.0</ele><time>2026-04-12T09:35:59.628Z</time></trkpt><trkpt lat="43.2251975" lon="12.1364206"><ele>663.0</ele><time>2026-04-12T09:36:00.632Z</time></trkpt><trkpt lat="43.2251493" lon="12.1365002"><ele>663.0</ele><time>2026-04-12T09:36:01.627Z</time></trkpt><trkpt lat="43.2250925" lon="12.136569"><ele>663.0</ele><time>2026-04-12T09:36:02.625Z</time></trkpt><trkpt lat="43.2250286" lon="12.1366362"><ele>663.5</ele><time>2026-04-12T09:36:03.633Z</time></trkpt><trkpt lat="43.2249695" lon="12.136706"><ele>664.0</ele><time>2026-04-12T09:36:04.633Z</time></trkpt><trkpt lat="43.2249275" lon="12.1367849"><ele>664.5</ele><time>2026-04-12T09:36:05.627Z</time></trkpt><trkpt lat="43.2248974" lon="12.1368839"><ele>665.0</ele><time>2026-04-12T09:36:06.652Z</time></trkpt><trkpt lat="43.2248692" lon="12.1369954"><ele>665.5</ele><time>2026-04-12T09:36:07.628Z</time></trkpt><trkpt lat="43.2248285" lon="12.1371017"><ele>666.0</ele><time>2026-04-12T09:36:08.635Z</time></trkpt><trkpt lat="43.2247765" lon="12.1371893"><ele>663.8</ele><time>2026-04-12T09:36:09.634Z</time></trkpt><trkpt lat="43.2247076" lon="12.1372549"><ele>661.5999999999999</ele><time>2026-04-12T09:36:10.643Z</time></trkpt><trkpt lat="43.2246187" lon="12.1373"><ele>659.4</ele><time>2026-04-12T09:36:11.635Z</time></trkpt><trkpt lat="43.2245166" lon="12.1373324"><ele>657.2</ele><time>2026-04-12T09:36:12.638Z</time></trkpt><trkpt lat="43.2243885" lon="12.1373381"><ele>655.0</ele><time>2026-04-12T09:36:13.638Z</time></trkpt><trkpt lat="43.2242642" lon="12.1373384"><ele>655.0</ele><time>2026-04-12T09:36:14.635Z</time></trkpt><trkpt lat="43.2241531" lon="12.1373374"><ele>655.0</ele><time>2026-04-12T09:36:15.637Z</time></trkpt><trkpt lat="43.2240534" lon="12.1373331"><ele>655.0</ele><time>2026-04-12T09:36:16.632Z</time></trkpt><trkpt lat="43.223966" lon="12.1373225"><ele>655.0</ele><time>2026-04-12T09:36:17.635Z</time></trkpt><trkpt lat="43.223882" lon="12.1373123"><ele>655.0</ele><time>2026-04-12T09:36:18.64Z</time></trkpt><trkpt lat="43.2238114" lon="12.1373084"><ele>653.0</ele><time>2026-04-12T09:36:19.638Z</time></trkpt><trkpt lat="43.2237433" lon="12.1373082"><ele>651.0</ele><time>2026-04-12T09:36:20.639Z</time></trkpt><trkpt lat="43.2236751" lon="12.137309"><ele>649.0</ele><time>2026-04-12T09:36:21.639Z</time></trkpt><trkpt lat="43.2235757" lon="12.1373655"><ele>647.0</ele><time>2026-04-12T09:36:23.644Z</time></trkpt><trkpt lat="43.2235191" lon="12.1374979"><ele>645.0</ele><time>2026-04-12T09:36:25.638Z</time></trkpt><trkpt lat="43.2234656" lon="12.1376427"><ele>645.0</ele><time>2026-04-12T09:36:27.642Z</time></trkpt><trkpt lat="43.2234286" lon="12.1377186"><ele>645.0</ele><time>2026-04-12T09:36:28.644Z</time></trkpt><trkpt lat="43.2233828" lon="12.1378118"><ele>645.0</ele><time>2026-04-12T09:36:29.64Z</time></trkpt><trkpt lat="43.2233416" lon="12.1379158"><ele>645.0</ele><time>2026-04-12T09:36:30.646Z</time></trkpt><trkpt lat="43.2233115" lon="12.1380262"><ele>645.0</ele><time>2026-04-12T09:36:31.649Z</time></trkpt><trkpt lat="43.2232986" lon="12.1381439"><ele>645.0</ele><time>2026-04-12T09:36:32.642Z</time></trkpt><trkpt lat="43.2232894" lon="12.1382644"><ele>644.0</ele><time>2026-04-12T09:36:33.641Z</time></trkpt><trkpt lat="43.2232728" lon="12.1383844"><ele>643.0</ele><time>2026-04-12T09:36:34.639Z</time></trkpt><trkpt lat="43.2232573" lon="12.1385043"><ele>642.0</ele><time>2026-04-12T09:36:35.642Z</time></trkpt><trkpt lat="43.2232363" lon="12.138634"><ele>641.0</ele><time>2026-04-12T09:36:36.649Z</time></trkpt><trkpt lat="43.2232097" lon="12.1387821"><ele>640.0</ele><time>2026-04-12T09:36:37.647Z</time></trkpt><trkpt lat="43.2231638" lon="12.1389361"><ele>638.4</ele><time>2026-04-12T09:36:38.641Z</time></trkpt><trkpt lat="43.2231032" lon="12.1390709"><ele>636.8</ele><time>2026-04-12T09:36:39.637Z</time></trkpt><trkpt lat="43.2230385" lon="12.1391826"><ele>635.2</ele><time>2026-04-12T09:36:40.642Z</time></trkpt><trkpt lat="43.2229603" lon="12.1392709"><ele>633.6</ele><time>2026-04-12T09:36:41.638Z</time></trkpt><trkpt lat="43.2228879" lon="12.1393514"><ele>632.0</ele><time>2026-04-12T09:36:42.64Z</time></trkpt><trkpt lat="43.2228137" lon="12.1394179"><ele>632.0</ele><time>2026-04-12T09:36:43.641Z</time></trkpt><trkpt lat="43.2227469" lon="12.1394786"><ele>632.0</ele><time>2026-04-12T09:36:44.642Z</time></trkpt><trkpt lat="43.2226866" lon="12.1395395"><ele>632.0</ele><time>2026-04-12T09:36:45.643Z</time></trkpt><trkpt lat="43.2226295" lon="12.1396047"><ele>632.0</ele><time>2026-04-12T09:36:46.637Z</time></trkpt><trkpt lat="43.2225758" lon="12.1396773"><ele>632.0</ele><time>2026-04-12T09:36:47.64Z</time></trkpt><trkpt lat="43.2225208" lon="12.1397436"><ele>632.0</ele><time>2026-04-12T09:36:48.641Z</time></trkpt><trkpt lat="43.2224676" lon="12.1398113"><ele>632.0000000000001</ele><time>2026-04-12T09:36:49.639Z</time></trkpt><trkpt lat="43.2224203" lon="12.139887"><ele>632.0</ele><time>2026-04-12T09:36:50.645Z</time></trkpt><trkpt lat="43.2223842" lon="12.1399653"><ele>632.0</ele><time>2026-04-12T09:36:51.639Z</time></trkpt><trkpt lat="43.222363" lon="12.1400507"><ele>632.0</ele><time>2026-04-12T09:36:52.64Z</time></trkpt><trkpt lat="43.222365" lon="12.140144"><ele>632.0</ele><time>2026-04-12T09:36:53.644Z</time></trkpt><trkpt lat="43.2223696" lon="12.1402385"><ele>632.0000000000001</ele><time>2026-04-12T09:36:54.64Z</time></trkpt><trkpt lat="43.2223819" lon="12.1403429"><ele>632.0</ele><time>2026-04-12T09:36:55.638Z</time></trkpt><trkpt lat="43.2223951" lon="12.14044"><ele>632.0</ele><time>2026-04-12T09:36:56.641Z</time></trkpt><trkpt lat="43.2223818" lon="12.1405366"><ele>632.0</ele><time>2026-04-12T09:36:57.639Z</time></trkpt><trkpt lat="43.2223599" lon="12.1406358"><ele>632.0</ele><time>2026-04-12T09:36:58.642Z</time></trkpt><trkpt lat="43.2223317" lon="12.1407471"><ele>632.0</ele><time>2026-04-12T09:36:59.639Z</time></trkpt><trkpt lat="43.2223143" lon="12.1408583"><ele>632.0</ele><time>2026-04-12T09:37:00.641Z</time></trkpt><trkpt lat="43.2222977" lon="12.1409703"><ele>632.0</ele><time>2026-04-12T09:37:01.643Z</time></trkpt><trkpt lat="43.2222648" lon="12.1410829"><ele>630.8000000000001</ele><time>2026-04-12T09:37:02.646Z</time></trkpt><trkpt lat="43.2222079" lon="12.1411901"><ele>629.6</ele><time>2026-04-12T09:37:03.64Z</time></trkpt><trkpt lat="43.2221235" lon="12.141304"><ele>628.4000000000001</ele><time>2026-04-12T09:37:04.642Z</time></trkpt><trkpt lat="43.2220367" lon="12.1414102"><ele>627.2</ele><time>2026-04-12T09:37:05.635Z</time></trkpt><trkpt lat="43.2219715" lon="12.1414873"><ele>626.0</ele><time>2026-04-12T09:37:06.644Z</time></trkpt><trkpt lat="43.2219018" lon="12.1415472"><ele>626.4</ele><time>2026-04-12T09:37:07.632Z</time></trkpt><trkpt lat="43.2218241" lon="12.1416194"><ele>626.8</ele><time>2026-04-12T09:37:08.649Z</time></trkpt><trkpt lat="43.2217426" lon="12.1417114"><ele>627.1999999999999</ele><time>2026-04-12T09:37:09.638Z</time></trkpt><trkpt lat="43.2216663" lon="12.1417953"><ele>627.6</ele><time>2026-04-12T09:37:10.643Z</time></trkpt><trkpt lat="43.2215869" lon="12.1418583"><ele>628.0</ele><time>2026-04-12T09:37:11.641Z</time></trkpt><trkpt lat="43.2215036" lon="12.141924"><ele>627.3333333333334</ele><time>2026-04-12T09:37:12.637Z</time></trkpt><trkpt lat="43.22142" lon="12.1419835"><ele>626.6666666666667</ele><time>2026-04-12T09:37:13.633Z</time></trkpt><trkpt lat="43.2213428" lon="12.1420395"><ele>626.0</ele><time>2026-04-12T09:37:14.635Z</time></trkpt><trkpt lat="43.2212692" lon="12.1420951"><ele>625.3333333333334</ele><time>2026-04-12T09:37:15.635Z</time></trkpt><trkpt lat="43.2212041" lon="12.1421455"><ele>624.6666666666666</ele><time>2026-04-12T09:37:16.642Z</time></trkpt><trkpt lat="43.221136" lon="12.1421979"><ele>624.0</ele><time>2026-04-12T09:37:17.639Z</time></trkpt><trkpt lat="43.2210667" lon="12.1422407"><ele>624.0</ele><time>2026-04-12T09:37:18.639Z</time></trkpt><trkpt lat="43.2209899" lon="12.142273"><ele>624.0</ele><time>2026-04-12T09:37:19.635Z</time></trkpt><trkpt lat="43.2209003" lon="12.142297"><ele>624.0</ele><time>2026-04-12T09:37:20.639Z</time></trkpt><trkpt lat="43.2207989" lon="12.1423154"><ele>624.0</ele><time>2026-04-12T09:37:21.635Z</time></trkpt><trkpt lat="43.2207071" lon="12.1423489"><ele>624.0</ele><time>2026-04-12T09:37:22.635Z</time></trkpt><trkpt lat="43.2206285" lon="12.1423881"><ele>622.1428571428572</ele><time>2026-04-12T09:37:23.642Z</time></trkpt><trkpt lat="43.2205657" lon="12.1424436"><ele>620.2857142857142</ele><time>2026-04-12T09:37:24.636Z</time></trkpt><trkpt lat="43.2205157" lon="12.1425077"><ele>618.4285714285714</ele><time>2026-04-12T09:37:25.632Z</time></trkpt><trkpt lat="43.2204652" lon="12.142575"><ele>616.5714285714287</ele><time>2026-04-12T09:37:26.634Z</time></trkpt><trkpt lat="43.2204084" lon="12.1426388"><ele>614.7142857142858</ele><time>2026-04-12T09:37:27.638Z</time></trkpt><trkpt lat="43.2203484" lon="12.1426854"><ele>612.8571428571429</ele><time>2026-04-12T09:37:28.635Z</time></trkpt><trkpt lat="43.220276" lon="12.1427254"><ele>611.0</ele><time>2026-04-12T09:37:29.636Z</time></trkpt><trkpt lat="43.2201988" lon="12.1427626"><ele>611.0000000000001</ele><time>2026-04-12T09:37:30.641Z</time></trkpt><trkpt lat="43.2201224" lon="12.1427865"><ele>611.0</ele><time>2026-04-12T09:37:31.641Z</time></trkpt><trkpt lat="43.2200494" lon="12.1427906"><ele>611.0</ele><time>2026-04-12T09:37:32.643Z</time></trkpt><trkpt lat="43.2199761" lon="12.14278"><ele>611.0</ele><time>2026-04-12T09:37:33.639Z</time></trkpt><trkpt lat="43.2199058" lon="12.1427605"><ele>611.0</ele><time>2026-04-12T09:37:34.642Z</time></trkpt><trkpt lat="43.2198342" lon="12.1427328"><ele>611.0000000000001</ele><time>2026-04-12T09:37:35.636Z</time></trkpt><trkpt lat="43.219768" lon="12.1427005"><ele>611.0</ele><time>2026-04-12T09:37:36.65Z</time></trkpt><trkpt lat="43.2197" lon="12.1426689"><ele>611.4</ele><time>2026-04-12T09:37:37.631Z</time></trkpt><trkpt lat="43.219625" lon="12.1426375"><ele>611.8</ele><time>2026-04-12T09:37:38.637Z</time></trkpt><trkpt lat="43.2195404" lon="12.1426098"><ele>612.1999999999999</ele><time>2026-04-12T09:37:39.659Z</time></trkpt><trkpt lat="43.2194512" lon="12.1425756"><ele>612.6</ele><time>2026-04-12T09:37:40.638Z</time></trkpt><trkpt lat="43.2193527" lon="12.1425362"><ele>613.0</ele><time>2026-04-12T09:37:41.641Z</time></trkpt><trkpt lat="43.2192439" lon="12.1424976"><ele>613.0</ele><time>2026-04-12T09:37:42.639Z</time></trkpt><trkpt lat="43.2191414" lon="12.1424596"><ele>613.0</ele><time>2026-04-12T09:37:43.639Z</time></trkpt><trkpt lat="43.2190249" lon="12.1424281"><ele>613.0</ele><time>2026-04-12T09:37:44.637Z</time></trkpt><trkpt lat="43.2188888" lon="12.1424003"><ele>613.0</ele><time>2026-04-12T09:37:45.64Z</time></trkpt><trkpt lat="43.2187443" lon="12.1423746"><ele>610.6</ele><time>2026-04-12T09:37:46.632Z</time></trkpt><trkpt lat="43.2186126" lon="12.1423571"><ele>608.1999999999999</ele><time>2026-04-12T09:37:47.636Z</time></trkpt><trkpt lat="43.2185004" lon="12.1423537"><ele>605.8</ele><time>2026-04-12T09:37:48.628Z</time></trkpt><trkpt lat="43.2184072" lon="12.1423537"><ele>603.4</ele><time>2026-04-12T09:37:49.623Z</time></trkpt><trkpt lat="43.2183029" lon="12.1423366"><ele>601.0</ele><time>2026-04-12T09:37:50.623Z</time></trkpt><trkpt lat="43.2181833" lon="12.1423124"><ele>601.25</ele><time>2026-04-12T09:37:51.631Z</time></trkpt><trkpt lat="43.2180511" lon="12.1422782"><ele>601.5</ele><time>2026-04-12T09:37:52.623Z</time></trkpt><trkpt lat="43.2179063" lon="12.1422573"><ele>601.75</ele><time>2026-04-12T09:37:53.634Z</time></trkpt><trkpt lat="43.2177764" lon="12.1422387"><ele>602.0</ele><time>2026-04-12T09:37:54.636Z</time></trkpt><trkpt lat="43.2176676" lon="12.1422225"><ele>602.0</ele><time>2026-04-12T09:37:55.631Z</time></trkpt><trkpt lat="43.2175649" lon="12.1422071"><ele>602.0</ele><time>2026-04-12T09:37:56.639Z</time></trkpt><trkpt lat="43.2174739" lon="12.1421848"><ele>602.0</ele><time>2026-04-12T09:37:57.638Z</time></trkpt><trkpt lat="43.2173937" lon="12.142171"><ele>602.0</ele><time>2026-04-12T09:37:58.642Z</time></trkpt><trkpt lat="43.2173119" lon="12.142149"><ele>602.0</ele><time>2026-04-12T09:37:59.642Z</time></trkpt><trkpt lat="43.2172173" lon="12.1421321"><ele>602.0</ele><time>2026-04-12T09:38:00.634Z</time></trkpt><trkpt lat="43.217134" lon="12.1421298"><ele>602.0</ele><time>2026-04-12T09:38:01.638Z</time></trkpt><trkpt lat="43.2170524" lon="12.1421387"><ele>602.0</ele><time>2026-04-12T09:38:02.641Z</time></trkpt><trkpt lat="43.2169618" lon="12.142148"><ele>602.0</ele><time>2026-04-12T09:38:03.635Z</time></trkpt><trkpt lat="43.2168563" lon="12.1421473"><ele>602.0</ele><time>2026-04-12T09:38:04.639Z</time></trkpt><trkpt lat="43.2167474" lon="12.1421521"><ele>602.0</ele><time>2026-04-12T09:38:05.635Z</time></trkpt><trkpt lat="43.216637" lon="12.1421725"><ele>602.0</ele><time>2026-04-12T09:38:06.648Z</time></trkpt><trkpt lat="43.2165213" lon="12.1422125"><ele>602.0</ele><time>2026-04-12T09:38:07.637Z</time></trkpt><trkpt lat="43.2164111" lon="12.1422616"><ele>602.0</ele><time>2026-04-12T09:38:08.638Z</time></trkpt><trkpt lat="43.2163034" lon="12.1423235"><ele>603.25</ele><time>2026-04-12T09:38:09.638Z</time></trkpt><trkpt lat="43.2162138" lon="12.1423934"><ele>604.5</ele><time>2026-04-12T09:38:10.65Z</time></trkpt><trkpt lat="43.2161245" lon="12.1424747"><ele>605.75</ele><time>2026-04-12T09:38:11.634Z</time></trkpt><trkpt lat="43.216039" lon="12.1425769"><ele>607.0</ele><time>2026-04-12T09:38:12.638Z</time></trkpt><trkpt lat="43.2159584" lon="12.1427097"><ele>607.0</ele><time>2026-04-12T09:38:13.638Z</time></trkpt><trkpt lat="43.2158894" lon="12.1428415"><ele>607.0</ele><time>2026-04-12T09:38:14.638Z</time></trkpt><trkpt lat="43.2158233" lon="12.1429664"><ele>607.0</ele><time>2026-04-12T09:38:15.634Z</time></trkpt><trkpt lat="43.215759" lon="12.1430992"><ele>607.0</ele><time>2026-04-12T09:38:16.639Z</time></trkpt><trkpt lat="43.2156894" lon="12.1432313"><ele>605.6</ele><time>2026-04-12T09:38:17.638Z</time></trkpt><trkpt lat="43.2156235" lon="12.1433618"><ele>604.2</ele><time>2026-04-12T09:38:18.64Z</time></trkpt><trkpt lat="43.2155636" lon="12.1434887"><ele>602.8</ele><time>2026-04-12T09:38:19.644Z</time></trkpt><trkpt lat="43.2155063" lon="12.14361"><ele>601.4</ele><time>2026-04-12T09:38:20.644Z</time></trkpt><trkpt lat="43.2154483" lon="12.143739"><ele>600.0</ele><time>2026-04-12T09:38:21.641Z</time></trkpt><trkpt lat="43.2153928" lon="12.1438597"><ele>600.0</ele><time>2026-04-12T09:38:22.642Z</time></trkpt><trkpt lat="43.2153363" lon="12.1439906"><ele>600.0</ele><time>2026-04-12T09:38:23.64Z</time></trkpt><trkpt lat="43.2152884" lon="12.1441188"><ele>600.0</ele><time>2026-04-12T09:38:24.638Z</time></trkpt><trkpt lat="43.2152417" lon="12.1442386"><ele>600.0</ele><time>2026-04-12T09:38:25.639Z</time></trkpt><trkpt lat="43.2152004" lon="12.1443632"><ele>600.0</ele><time>2026-04-12T09:38:26.643Z</time></trkpt><trkpt lat="43.2151533" lon="12.1445072"><ele>600.25</ele><time>2026-04-12T09:38:27.642Z</time></trkpt><trkpt lat="43.2151" lon="12.144674"><ele>600.5</ele><time>2026-04-12T09:38:28.635Z</time></trkpt><trkpt lat="43.2150419" lon="12.1448478"><ele>600.75</ele><time>2026-04-12T09:38:29.643Z</time></trkpt><trkpt lat="43.2149772" lon="12.1450382"><ele>601.0</ele><time>2026-04-12T09:38:30.639Z</time></trkpt><trkpt lat="43.2149078" lon="12.1452121"><ele>601.5</ele><time>2026-04-12T09:38:31.649Z</time></trkpt><trkpt lat="43.214831" lon="12.1453557"><ele>602.0</ele><time>2026-04-12T09:38:32.643Z</time></trkpt><trkpt lat="43.2147555" lon="12.1454699"><ele>602.5</ele><time>2026-04-12T09:38:33.649Z</time></trkpt><trkpt lat="43.2146825" lon="12.1455583"><ele>603.0</ele><time>2026-04-12T09:38:34.639Z</time></trkpt><trkpt lat="43.2145869" lon="12.1456417"><ele>602.4</ele><time>2026-04-12T09:38:35.641Z</time></trkpt><trkpt lat="43.2144825" lon="12.145709"><ele>601.8</ele><time>2026-04-12T09:38:36.652Z</time></trkpt><trkpt lat="43.2143829" lon="12.1457472"><ele>601.2</ele><time>2026-04-12T09:38:37.641Z</time></trkpt><trkpt lat="43.2142818" lon="12.1457722"><ele>600.6</ele><time>2026-04-12T09:38:38.647Z</time></trkpt><trkpt lat="43.214178" lon="12.1457865"><ele>600.0</ele><time>2026-04-12T09:38:39.645Z</time></trkpt><trkpt lat="43.2140726" lon="12.1457994"><ele>599.75</ele><time>2026-04-12T09:38:40.641Z</time></trkpt><trkpt lat="43.2139628" lon="12.1458215"><ele>599.5</ele><time>2026-04-12T09:38:41.655Z</time></trkpt><trkpt lat="43.2138502" lon="12.1458475"><ele>599.25</ele><time>2026-04-12T09:38:42.645Z</time></trkpt><trkpt lat="43.2137354" lon="12.1458756"><ele>599.0</ele><time>2026-04-12T09:38:43.648Z</time></trkpt><trkpt lat="43.2136223" lon="12.1458993"><ele>599.0</ele><time>2026-04-12T09:38:44.649Z</time></trkpt><trkpt lat="43.2135122" lon="12.1459186"><ele>599.0</ele><time>2026-04-12T09:38:45.652Z</time></trkpt><trkpt lat="43.2134005" lon="12.1459327"><ele>599.0</ele><time>2026-04-12T09:38:46.648Z</time></trkpt><trkpt lat="43.2132971" lon="12.1459534"><ele>599.0</ele><time>2026-04-12T09:38:47.649Z</time></trkpt><trkpt lat="43.2131995" lon="12.1459833"><ele>599.0</ele><time>2026-04-12T09:38:48.649Z</time></trkpt><trkpt lat="43.2130986" lon="12.1460181"><ele>598.4</ele><time>2026-04-12T09:38:49.65Z</time></trkpt><trkpt lat="43.2129989" lon="12.1460492"><ele>597.8</ele><time>2026-04-12T09:38:50.646Z</time></trkpt><trkpt lat="43.2129014" lon="12.1460751"><ele>597.2</ele><time>2026-04-12T09:38:51.637Z</time></trkpt><trkpt lat="43.2128088" lon="12.1461047"><ele>596.6</ele><time>2026-04-12T09:38:52.639Z</time></trkpt><trkpt lat="43.2127173" lon="12.1461348"><ele>596.0</ele><time>2026-04-12T09:38:53.634Z</time></trkpt><trkpt lat="43.212625" lon="12.1461731"><ele>596.0</ele><time>2026-04-12T09:38:54.639Z</time></trkpt><trkpt lat="43.212527" lon="12.1461989"><ele>596.0</ele><time>2026-04-12T09:38:55.631Z</time></trkpt><trkpt lat="43.2124318" lon="12.1462126"><ele>596.0</ele><time>2026-04-12T09:38:56.632Z</time></trkpt><trkpt lat="43.2123402" lon="12.1462146"><ele>596.0</ele><time>2026-04-12T09:38:57.63Z</time></trkpt><trkpt lat="43.2122515" lon="12.1462136"><ele>596.0</ele><time>2026-04-12T09:38:58.633Z</time></trkpt><trkpt lat="43.212169" lon="12.1462387"><ele>594.6666666666666</ele><time>2026-04-12T09:38:59.641Z</time></trkpt><trkpt lat="43.2120981" lon="12.1463039"><ele>593.3333333333333</ele><time>2026-04-12T09:39:00.639Z</time></trkpt><trkpt lat="43.2120345" lon="12.146382"><ele>592.0</ele><time>2026-04-12T09:39:01.641Z</time></trkpt><trkpt lat="43.2119682" lon="12.1464402"><ele>590.6666666666666</ele><time>2026-04-12T09:39:02.636Z</time></trkpt><trkpt lat="43.2118948" lon="12.1464652"><ele>589.3333333333334</ele><time>2026-04-12T09:39:03.637Z</time></trkpt><trkpt lat="43.2118308" lon="12.1464818"><ele>588.0</ele><time>2026-04-12T09:39:04.631Z</time></trkpt><trkpt lat="43.2117445" lon="12.1465084"><ele>588.0</ele><time>2026-04-12T09:39:06.641Z</time></trkpt><trkpt lat="43.2117155" lon="12.1464176"><ele>588.0</ele><time>2026-04-12T09:39:31.656Z</time></trkpt><trkpt lat="43.2117922" lon="12.146369"><ele>588.0</ele><time>2026-04-12T09:39:33.658Z</time></trkpt><trkpt lat="43.2118555" lon="12.1463698"><ele>588.0</ele><time>2026-04-12T09:39:34.654Z</time></trkpt><trkpt lat="43.2119775" lon="12.146359"><ele>588.0</ele><time>2026-04-12T09:39:36.647Z</time></trkpt><trkpt lat="43.2120451" lon="12.1463284"><ele>588.0</ele><time>2026-04-12T09:39:37.644Z</time></trkpt><trkpt lat="43.2121149" lon="12.1462896"><ele>588.0</ele><time>2026-04-12T09:39:38.639Z</time></trkpt><trkpt lat="43.2121751" lon="12.1462257"><ele>588.0</ele><time>2026-04-12T09:39:39.638Z</time></trkpt><trkpt lat="43.2122274" lon="12.1461595"><ele>588.0</ele><time>2026-04-12T09:39:40.645Z</time></trkpt><trkpt lat="43.2122798" lon="12.1461055"><ele>588.0</ele><time>2026-04-12T09:39:41.642Z</time></trkpt><trkpt lat="43.2123425" lon="12.1460827"><ele>588.0</ele><time>2026-04-12T09:39:42.648Z</time></trkpt><trkpt lat="43.2124198" lon="12.1460965"><ele>588.0</ele><time>2026-04-12T09:39:43.655Z</time></trkpt><trkpt lat="43.2124915" lon="12.1461205"><ele>588.0</ele><time>2026-04-12T09:39:44.641Z</time></trkpt><trkpt lat="43.212559" lon="12.1461388"><ele>589.1428571428571</ele><time>2026-04-12T09:39:45.634Z</time></trkpt><trkpt lat="43.2126278" lon="12.1461417"><ele>590.2857142857142</ele><time>2026-04-12T09:39:46.639Z</time></trkpt><trkpt lat="43.2127027" lon="12.146125"><ele>591.4285714285714</ele><time>2026-04-12T09:39:47.635Z</time></trkpt><trkpt lat="43.2127787" lon="12.1460943"><ele>592.5714285714286</ele><time>2026-04-12T09:39:48.633Z</time></trkpt><trkpt lat="43.2128491" lon="12.1460652"><ele>593.7142857142857</ele><time>2026-04-12T09:39:49.636Z</time></trkpt><trkpt lat="43.2129175" lon="12.1460369"><ele>594.8571428571429</ele><time>2026-04-12T09:39:50.639Z</time></trkpt><trkpt lat="43.2129917" lon="12.1460173"><ele>596.0</ele><time>2026-04-12T09:39:51.639Z</time></trkpt><trkpt lat="43.2130658" lon="12.1459993"><ele>596.0</ele><time>2026-04-12T09:39:52.638Z</time></trkpt><trkpt lat="43.2131381" lon="12.1459821"><ele>596.0</ele><time>2026-04-12T09:39:53.639Z</time></trkpt><trkpt lat="43.2132086" lon="12.145967"><ele>596.0</ele><time>2026-04-12T09:39:54.638Z</time></trkpt><trkpt lat="43.2132775" lon="12.1459499"><ele>596.0</ele><time>2026-04-12T09:39:55.638Z</time></trkpt><trkpt lat="43.2133453" lon="12.145932"><ele>596.0</ele><time>2026-04-12T09:39:56.64Z</time></trkpt><trkpt lat="43.2134149" lon="12.1459148"><ele>596.0</ele><time>2026-04-12T09:39:57.642Z</time></trkpt><trkpt lat="43.2134867" lon="12.1459044"><ele>596.0</ele><time>2026-04-12T09:39:58.643Z</time></trkpt><trkpt lat="43.2135577" lon="12.1458921"><ele>596.4285714285714</ele><time>2026-04-12T09:39:59.644Z</time></trkpt><trkpt lat="43.2136283" lon="12.1458785"><ele>596.8571428571428</ele><time>2026-04-12T09:40:00.641Z</time></trkpt><trkpt lat="43.2136981" lon="12.1458646"><ele>597.2857142857142</ele><time>2026-04-12T09:40:01.642Z</time></trkpt><trkpt lat="43.2137668" lon="12.1458495"><ele>597.7142857142857</ele><time>2026-04-12T09:40:02.642Z</time></trkpt><trkpt lat="43.2138305" lon="12.1458318"><ele>598.1428571428571</ele><time>2026-04-12T09:40:03.64Z</time></trkpt><trkpt lat="43.2138959" lon="12.1458156"><ele>598.5714285714286</ele><time>2026-04-12T09:40:04.636Z</time></trkpt><trkpt lat="43.2139649" lon="12.145796"><ele>599.0</ele><time>2026-04-12T09:40:05.636Z</time></trkpt><trkpt lat="43.2140444" lon="12.1457763"><ele>599.1666666666666</ele><time>2026-04-12T09:40:06.65Z</time></trkpt><trkpt lat="43.2141321" lon="12.1457561"><ele>599.3333333333333</ele><time>2026-04-12T09:40:07.633Z</time></trkpt><trkpt lat="43.2142108" lon="12.1457333"><ele>599.5</ele><time>2026-04-12T09:40:08.634Z</time></trkpt><trkpt lat="43.2142804" lon="12.1457197"><ele>599.6666666666666</ele><time>2026-04-12T09:40:09.632Z</time></trkpt><trkpt lat="43.2143451" lon="12.1457057"><ele>599.8333333333334</ele><time>2026-04-12T09:40:10.639Z</time></trkpt><trkpt lat="43.2144302" lon="12.145695"><ele>600.0</ele><time>2026-04-12T09:40:12.632Z</time></trkpt><trkpt lat="43.2143043" lon="12.1457263"><ele>600.0</ele><time>2026-04-12T09:43:17.657Z</time></trkpt><trkpt lat="43.2142147" lon="12.1457617"><ele>600.0</ele><time>2026-04-12T09:43:18.644Z</time></trkpt><trkpt lat="43.2141137" lon="12.1457918"><ele>600.0</ele><time>2026-04-12T09:43:19.639Z</time></trkpt><trkpt lat="43.2140012" lon="12.1458155"><ele>600.0</ele><time>2026-04-12T09:43:20.651Z</time></trkpt><trkpt lat="43.2138861" lon="12.1458363"><ele>600.0</ele><time>2026-04-12T09:43:21.641Z</time></trkpt><trkpt lat="43.2137772" lon="12.1458592"><ele>599.8</ele><time>2026-04-12T09:43:22.641Z</time></trkpt><trkpt lat="43.2136668" lon="12.1458842"><ele>599.6</ele><time>2026-04-12T09:43:23.641Z</time></trkpt><trkpt lat="43.213563" lon="12.1459065"><ele>599.4</ele><time>2026-04-12T09:43:24.639Z</time></trkpt><trkpt lat="43.213458" lon="12.1459258"><ele>599.2</ele><time>2026-04-12T09:43:25.641Z</time></trkpt><trkpt lat="43.213346" lon="12.1459463"><ele>599.0</ele><time>2026-04-12T09:43:26.635Z</time></trkpt><trkpt lat="43.2132286" lon="12.1459748"><ele>598.25</ele><time>2026-04-12T09:43:27.638Z</time></trkpt><trkpt lat="43.2131052" lon="12.1460088"><ele>597.5</ele><time>2026-04-12T09:43:28.645Z</time></trkpt><trkpt lat="43.2129877" lon="12.1460456"><ele>596.75</ele><time>2026-04-12T09:43:29.639Z</time></trkpt><trkpt lat="43.2128757" lon="12.1460859"><ele>596.0</ele><time>2026-04-12T09:43:30.642Z</time></trkpt><trkpt lat="43.2127724" lon="12.146121"><ele>596.0</ele><time>2026-04-12T09:43:31.645Z</time></trkpt><trkpt lat="43.2126687" lon="12.1461575"><ele>596.0</ele><time>2026-04-12T09:43:32.628Z</time></trkpt><trkpt lat="43.2125661" lon="12.1461855"><ele>596.0</ele><time>2026-04-12T09:43:33.628Z</time></trkpt><trkpt lat="43.2124656" lon="12.1461985"><ele>596.0</ele><time>2026-04-12T09:43:34.631Z</time></trkpt><trkpt lat="43.2123655" lon="12.1462012"><ele>596.0</ele><time>2026-04-12T09:43:35.629Z</time></trkpt><trkpt lat="43.2122762" lon="12.146205"><ele>594.4</ele><time>2026-04-12T09:43:36.643Z</time></trkpt><trkpt lat="43.2121913" lon="12.1462337"><ele>592.8</ele><time>2026-04-12T09:43:37.639Z</time></trkpt><trkpt lat="43.2121135" lon="12.1463097"><ele>591.1999999999999</ele><time>2026-04-12T09:43:38.64Z</time></trkpt><trkpt lat="43.2120277" lon="12.1463974"><ele>589.6</ele><time>2026-04-12T09:43:39.636Z</time></trkpt><trkpt lat="43.2119263" lon="12.1464641"><ele>588.0</ele><time>2026-04-12T09:43:40.642Z</time></trkpt><trkpt lat="43.2118121" lon="12.1464974"><ele>588.0</ele><time>2026-04-12T09:43:41.636Z</time></trkpt><trkpt lat="43.2116911" lon="12.1465155"><ele>588.0</ele><time>2026-04-12T09:43:42.637Z</time></trkpt><trkpt lat="43.2115522" lon="12.1465178"><ele>588.0</ele><time>2026-04-12T09:43:43.641Z</time></trkpt><trkpt lat="43.2113893" lon="12.1465263"><ele>588.0</ele><time>2026-04-12T09:43:44.64Z</time></trkpt><trkpt lat="43.2112179" lon="12.1465446"><ele>586.3333333333334</ele><time>2026-04-12T09:43:45.636Z</time></trkpt><trkpt lat="43.2110536" lon="12.1465669"><ele>584.6666666666667</ele><time>2026-04-12T09:43:46.638Z</time></trkpt><trkpt lat="43.210887" lon="12.1465831"><ele>583.0</ele><time>2026-04-12T09:43:47.636Z</time></trkpt><trkpt lat="43.2107043" lon="12.1465702"><ele>582.0</ele><time>2026-04-12T09:43:48.641Z</time></trkpt><trkpt lat="43.2105023" lon="12.1465463"><ele>581.0</ele><time>2026-04-12T09:43:49.635Z</time></trkpt><trkpt lat="43.2103227" lon="12.1465185"><ele>580.0</ele><time>2026-04-12T09:43:50.629Z</time></trkpt><trkpt lat="43.2101587" lon="12.1464894"><ele>579.3333333333334</ele><time>2026-04-12T09:43:51.655Z</time></trkpt><trkpt lat="43.2100123" lon="12.1464715"><ele>578.6666666666666</ele><time>2026-04-12T09:43:52.639Z</time></trkpt><trkpt lat="43.2098584" lon="12.1464624"><ele>578.0</ele><time>2026-04-12T09:43:53.638Z</time></trkpt><trkpt lat="43.2096996" lon="12.1464694"><ele>576.3333333333333</ele><time>2026-04-12T09:43:54.639Z</time></trkpt><trkpt lat="43.2095466" lon="12.1464883"><ele>574.6666666666666</ele><time>2026-04-12T09:43:55.637Z</time></trkpt><trkpt lat="43.2093911" lon="12.1465227"><ele>573.0</ele><time>2026-04-12T09:43:56.642Z</time></trkpt><trkpt lat="43.2092474" lon="12.146551"><ele>573.0</ele><time>2026-04-12T09:43:57.64Z</time></trkpt><trkpt lat="43.2091137" lon="12.1465823"><ele>573.0</ele><time>2026-04-12T09:43:58.64Z</time></trkpt><trkpt lat="43.2089879" lon="12.1466165"><ele>573.0</ele><time>2026-04-12T09:43:59.64Z</time></trkpt><trkpt lat="43.2088727" lon="12.1466469"><ele>573.0</ele><time>2026-04-12T09:44:00.64Z</time></trkpt><trkpt lat="43.2087517" lon="12.1466907"><ele>570.0</ele><time>2026-04-12T09:44:01.642Z</time></trkpt><trkpt lat="43.2086299" lon="12.1467276"><ele>567.0</ele><time>2026-04-12T09:44:02.639Z</time></trkpt><trkpt lat="43.2085098" lon="12.146772"><ele>564.0</ele><time>2026-04-12T09:44:03.635Z</time></trkpt><trkpt lat="43.2083948" lon="12.1468028"><ele>561.0</ele><time>2026-04-12T09:44:04.639Z</time></trkpt><trkpt lat="43.2082808" lon="12.1468328"><ele>561.0</ele><time>2026-04-12T09:44:05.636Z</time></trkpt><trkpt lat="43.2081649" lon="12.1468477"><ele>561.0</ele><time>2026-04-12T09:44:06.656Z</time></trkpt><trkpt lat="43.208044" lon="12.1468336"><ele>561.0</ele><time>2026-04-12T09:44:07.643Z</time></trkpt><trkpt lat="43.2079208" lon="12.1467914"><ele>561.0</ele><time>2026-04-12T09:44:08.637Z</time></trkpt><trkpt lat="43.2077873" lon="12.1467335"><ele>557.3333333333334</ele><time>2026-04-12T09:44:09.624Z</time></trkpt><trkpt lat="43.2076399" lon="12.1466549"><ele>553.6666666666667</ele><time>2026-04-12T09:44:10.639Z</time></trkpt><trkpt lat="43.207486" lon="12.146553"><ele>550.0</ele><time>2026-04-12T09:44:11.635Z</time></trkpt><trkpt lat="43.2073367" lon="12.1464605"><ele>544.3333333333334</ele><time>2026-04-12T09:44:12.641Z</time></trkpt><trkpt lat="43.2071883" lon="12.1463745"><ele>538.6666666666666</ele><time>2026-04-12T09:44:13.64Z</time></trkpt><trkpt lat="43.2070454" lon="12.1462816"><ele>533.0</ele><time>2026-04-12T09:44:14.642Z</time></trkpt><trkpt lat="43.2069072" lon="12.1461959"><ele>533.0</ele><time>2026-04-12T09:44:15.64Z</time></trkpt><trkpt lat="43.2067813" lon="12.1461072"><ele>533.0</ele><time>2026-04-12T09:44:16.636Z</time></trkpt><trkpt lat="43.206646" lon="12.1460185"><ele>533.0</ele><time>2026-04-12T09:44:17.641Z</time></trkpt><trkpt lat="43.2065262" lon="12.1459096"><ele>533.0</ele><time>2026-04-12T09:44:18.639Z</time></trkpt><trkpt lat="43.2064056" lon="12.1458005"><ele>529.0</ele><time>2026-04-12T09:44:19.642Z</time></trkpt><trkpt lat="43.2062794" lon="12.1457195"><ele>525.0</ele><time>2026-04-12T09:44:20.636Z</time></trkpt><trkpt lat="43.2061475" lon="12.1456556"><ele>521.0</ele><time>2026-04-12T09:44:21.637Z</time></trkpt><trkpt lat="43.2059854" lon="12.1456146"><ele>517.0</ele><time>2026-04-12T09:44:22.661Z</time></trkpt><trkpt lat="43.2057954" lon="12.1455966"><ele>513.6666666666667</ele><time>2026-04-12T09:44:23.638Z</time></trkpt><trkpt lat="43.2056121" lon="12.1455839"><ele>510.33333333333337</ele><time>2026-04-12T09:44:24.636Z</time></trkpt><trkpt lat="43.2054423" lon="12.1455794"><ele>507.0</ele><time>2026-04-12T09:44:25.638Z</time></trkpt><trkpt lat="43.2052767" lon="12.1455859"><ele>507.0</ele><time>2026-04-12T09:44:26.64Z</time></trkpt><trkpt lat="43.20513" lon="12.145596"><ele>507.0</ele><time>2026-04-12T09:44:27.635Z</time></trkpt><trkpt lat="43.2049904" lon="12.145605"><ele>507.0</ele><time>2026-04-12T09:44:28.638Z</time></trkpt><trkpt lat="43.2048677" lon="12.1456285"><ele>507.0</ele><time>2026-04-12T09:44:29.635Z</time></trkpt><trkpt lat="43.2047497" lon="12.1456467"><ele>507.0</ele><time>2026-04-12T09:44:30.637Z</time></trkpt><trkpt lat="43.2046449" lon="12.1456609"><ele>507.0</ele><time>2026-04-12T09:44:31.647Z</time></trkpt><trkpt lat="43.2045525" lon="12.1456666"><ele>507.0</ele><time>2026-04-12T09:44:32.641Z</time></trkpt><trkpt lat="43.2044635" lon="12.1456647"><ele>507.0</ele><time>2026-04-12T09:44:33.642Z</time></trkpt><trkpt lat="43.2043852" lon="12.1456478"><ele>507.0</ele><time>2026-04-12T09:44:34.64Z</time></trkpt><trkpt lat="43.2043112" lon="12.1456256"><ele>507.0</ele><time>2026-04-12T09:44:35.635Z</time></trkpt><trkpt lat="43.2042344" lon="12.1456161"><ele>507.0</ele><time>2026-04-12T09:44:36.646Z</time></trkpt><trkpt lat="43.2041561" lon="12.1456473"><ele>507.00000000000006</ele><time>2026-04-12T09:44:37.643Z</time></trkpt><trkpt lat="43.2040803" lon="12.1457152"><ele>507.00000000000006</ele><time>2026-04-12T09:44:38.635Z</time></trkpt><trkpt lat="43.204006" lon="12.1458015"><ele>507.0</ele><time>2026-04-12T09:44:39.638Z</time></trkpt><trkpt lat="43.2039364" lon="12.1459149"><ele>507.0</ele><time>2026-04-12T09:44:40.633Z</time></trkpt><trkpt lat="43.2038636" lon="12.1460473"><ele>512.6666666666666</ele><time>2026-04-12T09:44:41.639Z</time></trkpt><trkpt lat="43.2037937" lon="12.1461851"><ele>518.3333333333333</ele><time>2026-04-12T09:44:42.75Z</time></trkpt><trkpt lat="43.2036748" lon="12.14649"><ele>524.0</ele><time>2026-04-12T09:44:44.639Z</time></trkpt><trkpt lat="43.203632" lon="12.1466506"><ele>524.25</ele><time>2026-04-12T09:44:45.638Z</time></trkpt><trkpt lat="43.2035902" lon="12.1468136"><ele>524.5</ele><time>2026-04-12T09:44:46.637Z</time></trkpt><trkpt lat="43.2035391" lon="12.1469629"><ele>524.75</ele><time>2026-04-12T09:44:47.635Z</time></trkpt><trkpt lat="43.2034805" lon="12.1470857"><ele>525.0</ele><time>2026-04-12T09:44:48.641Z</time></trkpt><trkpt lat="43.2034041" lon="12.147172"><ele>525.0</ele><time>2026-04-12T09:44:49.641Z</time></trkpt><trkpt lat="43.2033077" lon="12.1472216"><ele>525.0</ele><time>2026-04-12T09:44:50.641Z</time></trkpt><trkpt lat="43.2032007" lon="12.147264"><ele>525.0</ele><time>2026-04-12T09:44:51.638Z</time></trkpt><trkpt lat="43.2030933" lon="12.1473107"><ele>525.0</ele><time>2026-04-12T09:44:52.645Z</time></trkpt><trkpt lat="43.202987" lon="12.1473738"><ele>525.0</ele><time>2026-04-12T09:44:53.632Z</time></trkpt><trkpt lat="43.2028863" lon="12.1474502"><ele>525.5</ele><time>2026-04-12T09:44:54.636Z</time></trkpt><trkpt lat="43.2027925" lon="12.1475668"><ele>526.0</ele><time>2026-04-12T09:44:55.634Z</time></trkpt><trkpt lat="43.2027137" lon="12.1476949"><ele>526.5</ele><time>2026-04-12T09:44:56.635Z</time></trkpt><trkpt lat="43.2026424" lon="12.1478295"><ele>527.0</ele><time>2026-04-12T09:44:57.638Z</time></trkpt><trkpt lat="43.2025655" lon="12.1479578"><ele>527.0</ele><time>2026-04-12T09:44:58.64Z</time></trkpt><trkpt lat="43.2024908" lon="12.1480861"><ele>527.0</ele><time>2026-04-12T09:44:59.633Z</time></trkpt><trkpt lat="43.2024105" lon="12.1482207"><ele>527.0</ele><time>2026-04-12T09:45:00.619Z</time></trkpt><trkpt lat="43.2023251" lon="12.1483658"><ele>527.0</ele><time>2026-04-12T09:45:01.625Z</time></trkpt><trkpt lat="43.2022364" lon="12.1485066"><ele>527.75</ele><time>2026-04-12T09:45:02.622Z</time></trkpt><trkpt lat="43.202143" lon="12.1486441"><ele>528.5</ele><time>2026-04-12T09:45:03.627Z</time></trkpt><trkpt lat="43.2020524" lon="12.1487799"><ele>529.25</ele><time>2026-04-12T09:45:04.631Z</time></trkpt><trkpt lat="43.2019582" lon="12.1489096"><ele>530.0</ele><time>2026-04-12T09:45:05.627Z</time></trkpt><trkpt lat="43.2018671" lon="12.1490348"><ele>533.0</ele><time>2026-04-12T09:45:06.635Z</time></trkpt><trkpt lat="43.2017801" lon="12.1491508"><ele>536.0</ele><time>2026-04-12T09:45:07.629Z</time></trkpt><trkpt lat="43.2017012" lon="12.1492737"><ele>539.0</ele><time>2026-04-12T09:45:08.628Z</time></trkpt><trkpt lat="43.2016342" lon="12.1494032"><ele>542.0</ele><time>2026-04-12T09:45:09.634Z</time></trkpt><trkpt lat="43.2015964" lon="12.1495539"><ele>542.0</ele><time>2026-04-12T09:45:10.627Z</time></trkpt><trkpt lat="43.2015682" lon="12.1497242"><ele>542.0</ele><time>2026-04-12T09:45:11.633Z</time></trkpt><trkpt lat="43.2015414" lon="12.1499028"><ele>542.0</ele><time>2026-04-12T09:45:12.628Z</time></trkpt><trkpt lat="43.2015192" lon="12.1500924"><ele>542.0</ele><time>2026-04-12T09:45:13.626Z</time></trkpt><trkpt lat="43.2014975" lon="12.1502952"><ele>539.75</ele><time>2026-04-12T09:45:14.626Z</time></trkpt><trkpt lat="43.2014893" lon="12.1504935"><ele>537.5</ele><time>2026-04-12T09:45:15.629Z</time></trkpt><trkpt lat="43.2014634" lon="12.1506828"><ele>535.25</ele><time>2026-04-12T09:45:16.643Z</time></trkpt><trkpt lat="43.2014349" lon="12.1508675"><ele>533.0</ele><time>2026-04-12T09:45:17.629Z</time></trkpt><trkpt lat="43.2013918" lon="12.1510375"><ele>533.0</ele><time>2026-04-12T09:45:18.626Z</time></trkpt><trkpt lat="43.2013421" lon="12.1511948"><ele>533.0</ele><time>2026-04-12T09:45:19.632Z</time></trkpt><trkpt lat="43.2012968" lon="12.1513244"><ele>533.0</ele><time>2026-04-12T09:45:20.627Z</time></trkpt><trkpt lat="43.2012431" lon="12.1514336"><ele>533.0</ele><time>2026-04-12T09:45:21.631Z</time></trkpt><trkpt lat="43.2012025" lon="12.1515184"><ele>533.0</ele><time>2026-04-12T09:45:22.62Z</time></trkpt><trkpt lat="43.2011382" lon="12.1516475"><ele>536.0</ele><time>2026-04-12T09:45:24.622Z</time></trkpt><trkpt lat="43.2010719" lon="12.1517841"><ele>539.0</ele><time>2026-04-12T09:45:26.625Z</time></trkpt><trkpt lat="43.2010337" lon="12.151872"><ele>542.0</ele><time>2026-04-12T09:45:27.621Z</time></trkpt><trkpt lat="43.2009881" lon="12.1519712"><ele>545.0</ele><time>2026-04-12T09:45:28.624Z</time></trkpt><trkpt lat="43.200936" lon="12.1520842"><ele>548.0</ele><time>2026-04-12T09:45:29.624Z</time></trkpt><trkpt lat="43.2008936" lon="12.1522041"><ele>548.0</ele><time>2026-04-12T09:45:30.627Z</time></trkpt><trkpt lat="43.2008543" lon="12.1523381"><ele>548.0</ele><time>2026-04-12T09:45:31.632Z</time></trkpt><trkpt lat="43.2008345" lon="12.1524619"><ele>548.0</ele><time>2026-04-12T09:45:32.624Z</time></trkpt><trkpt lat="43.2008285" lon="12.1525727"><ele>548.0</ele><time>2026-04-12T09:45:33.628Z</time></trkpt><trkpt lat="43.2008363" lon="12.1526773"><ele>548.0</ele><time>2026-04-12T09:45:34.626Z</time></trkpt><trkpt lat="43.2008643" lon="12.1527731"><ele>548.0</ele><time>2026-04-12T09:45:35.625Z</time></trkpt><trkpt lat="43.2008971" lon="12.1528748"><ele>550.6</ele><time>2026-04-12T09:45:36.637Z</time></trkpt><trkpt lat="43.2009378" lon="12.1529813"><ele>553.1999999999999</ele><time>2026-04-12T09:45:37.626Z</time></trkpt><trkpt lat="43.200984" lon="12.1531067"><ele>555.8</ele><time>2026-04-12T09:45:38.63Z</time></trkpt><trkpt lat="43.2010267" lon="12.1532554"><ele>558.4</ele><time>2026-04-12T09:45:39.63Z</time></trkpt><trkpt lat="43.2010628" lon="12.1534201"><ele>561.0</ele><time>2026-04-12T09:45:40.632Z</time></trkpt><trkpt lat="43.2010882" lon="12.1535872"><ele>562.5</ele><time>2026-04-12T09:45:41.625Z</time></trkpt><trkpt lat="43.2011002" lon="12.1537728"><ele>564.0</ele><time>2026-04-12T09:45:42.627Z</time></trkpt><trkpt lat="43.2011076" lon="12.1539694"><ele>565.5</ele><time>2026-04-12T09:45:43.632Z</time></trkpt><trkpt lat="43.2011152" lon="12.1541716"><ele>567.0</ele><time>2026-04-12T09:45:44.638Z</time></trkpt><trkpt lat="43.2011329" lon="12.1543493"><ele>567.0</ele><time>2026-04-12T09:45:45.631Z</time></trkpt><trkpt lat="43.2011657" lon="12.154489"><ele>567.0</ele><time>2026-04-12T09:45:46.631Z</time></trkpt><trkpt lat="43.2011965" lon="12.1546097"><ele>567.0</ele><time>2026-04-12T09:45:47.631Z</time></trkpt><trkpt lat="43.2012465" lon="12.1547229"><ele>567.0</ele><time>2026-04-12T09:45:48.632Z</time></trkpt><trkpt lat="43.201332" lon="12.1548204"><ele>567.0</ele><time>2026-04-12T09:45:49.628Z</time></trkpt><trkpt lat="43.2014406" lon="12.1549046"><ele>566.0</ele><time>2026-04-12T09:45:50.629Z</time></trkpt><trkpt lat="43.2015379" lon="12.1550135"><ele>565.0</ele><time>2026-04-12T09:45:51.63Z</time></trkpt><trkpt lat="43.2016309" lon="12.1551304"><ele>564.0</ele><time>2026-04-12T09:45:52.632Z</time></trkpt><trkpt lat="43.2017252" lon="12.1552743"><ele>563.0</ele><time>2026-04-12T09:45:53.634Z</time></trkpt><trkpt lat="43.201809" lon="12.155448"><ele>563.0</ele><time>2026-04-12T09:45:54.643Z</time></trkpt><trkpt lat="43.2018657" lon="12.1556146"><ele>563.0</ele><time>2026-04-12T09:45:55.628Z</time></trkpt><trkpt lat="43.2019137" lon="12.155762"><ele>563.0</ele><time>2026-04-12T09:45:56.627Z</time></trkpt><trkpt lat="43.2019591" lon="12.1558654"><ele>563.0</ele><time>2026-04-12T09:45:57.628Z</time></trkpt><trkpt lat="43.2020156" lon="12.1559574"><ele>563.0</ele><time>2026-04-12T09:45:58.63Z</time></trkpt><trkpt lat="43.2020889" lon="12.1560312"><ele>563.0</ele><time>2026-04-12T09:45:59.626Z</time></trkpt><trkpt lat="43.202177" lon="12.1560983"><ele>563.0</ele><time>2026-04-12T09:46:00.629Z</time></trkpt><trkpt lat="43.2022771" lon="12.1561606"><ele>563.0</ele><time>2026-04-12T09:46:01.635Z</time></trkpt><trkpt lat="43.2023784" lon="12.1562288"><ele>563.0</ele><time>2026-04-12T09:46:02.628Z</time></trkpt><trkpt lat="43.2024734" lon="12.1562918"><ele>563.0</ele><time>2026-04-12T09:46:03.626Z</time></trkpt><trkpt lat="43.2025617" lon="12.1563494"><ele>562.0</ele><time>2026-04-12T09:46:04.626Z</time></trkpt><trkpt lat="43.2026402" lon="12.1564069"><ele>561.0</ele><time>2026-04-12T09:46:05.628Z</time></trkpt><trkpt lat="43.2027017" lon="12.1564588"><ele>560.0</ele><time>2026-04-12T09:46:06.634Z</time></trkpt><trkpt lat="43.2027489" lon="12.1565212"><ele>559.0</ele><time>2026-04-12T09:46:07.63Z</time></trkpt><trkpt lat="43.202769" lon="12.1566752"><ele>558.0</ele><time>2026-04-12T09:46:09.628Z</time></trkpt><trkpt lat="43.2026926" lon="12.1568198"><ele>556.8333333333334</ele><time>2026-04-12T09:46:11.627Z</time></trkpt><trkpt lat="43.2026249" lon="12.1568829"><ele>555.6666666666666</ele><time>2026-04-12T09:46:12.63Z</time></trkpt><trkpt lat="43.2025415" lon="12.1569364"><ele>554.5</ele><time>2026-04-12T09:46:13.626Z</time></trkpt><trkpt lat="43.202451" lon="12.1569869"><ele>553.3333333333333</ele><time>2026-04-12T09:46:14.628Z</time></trkpt><trkpt lat="43.2023668" lon="12.1570443"><ele>552.1666666666666</ele><time>2026-04-12T09:46:15.627Z</time></trkpt><trkpt lat="43.2023042" lon="12.1571136"><ele>551.0</ele><time>2026-04-12T09:46:16.626Z</time></trkpt><trkpt lat="43.2022673" lon="12.15719"><ele>548.5</ele><time>2026-04-12T09:46:17.629Z</time></trkpt><trkpt lat="43.2022826" lon="12.1573729"><ele>546.0</ele><time>2026-04-12T09:46:19.625Z</time></trkpt><trkpt lat="43.202322" lon="12.1574753"><ele>543.5</ele><time>2026-04-12T09:46:20.621Z</time></trkpt><trkpt lat="43.2023695" lon="12.1575966"><ele>541.0</ele><time>2026-04-12T09:46:21.628Z</time></trkpt><trkpt lat="43.2024328" lon="12.1577546"><ele>541.0</ele><time>2026-04-12T09:46:22.625Z</time></trkpt><trkpt lat="43.2024957" lon="12.157923"><ele>541.0</ele><time>2026-04-12T09:46:23.623Z</time></trkpt><trkpt lat="43.2025575" lon="12.1580953"><ele>541.0</ele><time>2026-04-12T09:46:24.622Z</time></trkpt><trkpt lat="43.2026246" lon="12.1582686"><ele>541.0</ele><time>2026-04-12T09:46:25.639Z</time></trkpt><trkpt lat="43.2026975" lon="12.1584141"><ele>539.75</ele><time>2026-04-12T09:46:26.626Z</time></trkpt><trkpt lat="43.2027641" lon="12.1585493"><ele>538.5</ele><time>2026-04-12T09:46:27.627Z</time></trkpt><trkpt lat="43.2028187" lon="12.1586965"><ele>537.25</ele><time>2026-04-12T09:46:28.628Z</time></trkpt><trkpt lat="43.2028517" lon="12.1588356"><ele>536.0</ele><time>2026-04-12T09:46:29.625Z</time></trkpt><trkpt lat="43.2028657" lon="12.1589924"><ele>534.25</ele><time>2026-04-12T09:46:30.628Z</time></trkpt><trkpt lat="43.202847" lon="12.1591724"><ele>532.5</ele><time>2026-04-12T09:46:31.635Z</time></trkpt><trkpt lat="43.2028162" lon="12.1593653"><ele>530.75</ele><time>2026-04-12T09:46:32.627Z</time></trkpt><trkpt lat="43.2027799" lon="12.1595515"><ele>529.0</ele><time>2026-04-12T09:46:33.625Z</time></trkpt><trkpt lat="43.2027242" lon="12.1597469"><ele>528.75</ele><time>2026-04-12T09:46:34.624Z</time></trkpt><trkpt lat="43.2026666" lon="12.1599334"><ele>528.5</ele><time>2026-04-12T09:46:35.624Z</time></trkpt><trkpt lat="43.2026105" lon="12.1600916"><ele>528.25</ele><time>2026-04-12T09:46:36.636Z</time></trkpt><trkpt lat="43.2025433" lon="12.1602395"><ele>528.0</ele><time>2026-04-12T09:46:37.631Z</time></trkpt><trkpt lat="43.2024619" lon="12.1603904"><ele>528.0</ele><time>2026-04-12T09:46:38.632Z</time></trkpt><trkpt lat="43.2023738" lon="12.1605439"><ele>528.0</ele><time>2026-04-12T09:46:39.635Z</time></trkpt><trkpt lat="43.202279" lon="12.1606978"><ele>528.0</ele><time>2026-04-12T09:46:40.632Z</time></trkpt><trkpt lat="43.2021809" lon="12.1608409"><ele>528.0</ele><time>2026-04-12T09:46:41.627Z</time></trkpt><trkpt lat="43.2020793" lon="12.1609778"><ele>528.75</ele><time>2026-04-12T09:46:42.626Z</time></trkpt><trkpt lat="43.2019687" lon="12.1611002"><ele>529.5</ele><time>2026-04-12T09:46:43.626Z</time></trkpt><trkpt lat="43.2018406" lon="12.1612151"><ele>530.25</ele><time>2026-04-12T09:46:44.625Z</time></trkpt><trkpt lat="43.201712" lon="12.1613193"><ele>531.0</ele><time>2026-04-12T09:46:45.627Z</time></trkpt><trkpt lat="43.2015922" lon="12.1614191"><ele>531.25</ele><time>2026-04-12T09:46:46.622Z</time></trkpt><trkpt lat="43.2014831" lon="12.1615166"><ele>531.5</ele><time>2026-04-12T09:46:47.618Z</time></trkpt><trkpt lat="43.2013752" lon="12.1616342"><ele>531.75</ele><time>2026-04-12T09:46:48.62Z</time></trkpt><trkpt lat="43.2012862" lon="12.1617591"><ele>532.0</ele><time>2026-04-12T09:46:49.62Z</time></trkpt><trkpt lat="43.2012044" lon="12.1618833"><ele>532.0</ele><time>2026-04-12T09:46:50.626Z</time></trkpt><trkpt lat="43.2011153" lon="12.1620149"><ele>532.0</ele><time>2026-04-12T09:46:51.626Z</time></trkpt><trkpt lat="43.2010195" lon="12.1621457"><ele>532.0</ele><time>2026-04-12T09:46:52.623Z</time></trkpt><trkpt lat="43.2009216" lon="12.1622779"><ele>532.0</ele><time>2026-04-12T09:46:53.625Z</time></trkpt><trkpt lat="43.2008231" lon="12.1624028"><ele>532.0</ele><time>2026-04-12T09:46:54.624Z</time></trkpt><trkpt lat="43.2007254" lon="12.1625293"><ele>532.0</ele><time>2026-04-12T09:46:55.625Z</time></trkpt><trkpt lat="43.200625" lon="12.1626528"><ele>532.0</ele><time>2026-04-12T09:46:56.632Z</time></trkpt><trkpt lat="43.2005227" lon="12.162768"><ele>532.0</ele><time>2026-04-12T09:46:57.62Z</time></trkpt><trkpt lat="43.2004278" lon="12.1628739"><ele>532.0</ele><time>2026-04-12T09:46:58.617Z</time></trkpt><trkpt lat="43.2003457" lon="12.1629741"><ele>532.0</ele><time>2026-04-12T09:46:59.622Z</time></trkpt><trkpt lat="43.2002791" lon="12.1630728"><ele>532.0</ele><time>2026-04-12T09:47:00.626Z</time></trkpt><trkpt lat="43.2002329" lon="12.1631727"><ele>532.0</ele><time>2026-04-12T09:47:01.628Z</time></trkpt><trkpt lat="43.2002145" lon="12.1632773"><ele>532.0</ele><time>2026-04-12T09:47:02.625Z</time></trkpt><trkpt lat="43.2002095" lon="12.1633915"><ele>534.6</ele><time>2026-04-12T09:47:03.624Z</time></trkpt><trkpt lat="43.2002133" lon="12.1635109"><ele>537.2</ele><time>2026-04-12T09:47:04.623Z</time></trkpt><trkpt lat="43.2002226" lon="12.1636208"><ele>539.8</ele><time>2026-04-12T09:47:05.623Z</time></trkpt><trkpt lat="43.200241" lon="12.1637355"><ele>542.4</ele><time>2026-04-12T09:47:06.636Z</time></trkpt><trkpt lat="43.2002633" lon="12.1638617"><ele>545.0</ele><time>2026-04-12T09:47:07.626Z</time></trkpt><trkpt lat="43.2002883" lon="12.1640115"><ele>545.5</ele><time>2026-04-12T09:47:08.628Z</time></trkpt><trkpt lat="43.2003174" lon="12.1641777"><ele>546.0</ele><time>2026-04-12T09:47:09.625Z</time></trkpt><trkpt lat="43.2003549" lon="12.1643419"><ele>546.5</ele><time>2026-04-12T09:47:10.622Z</time></trkpt><trkpt lat="43.2003923" lon="12.1645064"><ele>547.0</ele><time>2026-04-12T09:47:11.629Z</time></trkpt><trkpt lat="43.2004351" lon="12.164672"><ele>547.0</ele><time>2026-04-12T09:47:12.635Z</time></trkpt><trkpt lat="43.2004783" lon="12.164841"><ele>547.0</ele><time>2026-04-12T09:47:13.632Z</time></trkpt><trkpt lat="43.2005155" lon="12.1650159"><ele>547.0</ele><time>2026-04-12T09:47:14.633Z</time></trkpt><trkpt lat="43.2005376" lon="12.1651949"><ele>547.0</ele><time>2026-04-12T09:47:15.633Z</time></trkpt><trkpt lat="43.2005368" lon="12.1653603"><ele>548.5</ele><time>2026-04-12T09:47:16.64Z</time></trkpt><trkpt lat="43.2005085" lon="12.1655209"><ele>550.0</ele><time>2026-04-12T09:47:17.633Z</time></trkpt><trkpt lat="43.2004571" lon="12.1656773"><ele>551.5</ele><time>2026-04-12T09:47:18.627Z</time></trkpt><trkpt lat="43.2004016" lon="12.1658411"><ele>553.0</ele><time>2026-04-12T09:47:19.636Z</time></trkpt><trkpt lat="43.2003431" lon="12.1660059"><ele>554.75</ele><time>2026-04-12T09:47:20.635Z</time></trkpt><trkpt lat="43.2003" lon="12.1661656"><ele>556.5</ele><time>2026-04-12T09:47:21.636Z</time></trkpt><trkpt lat="43.2002688" lon="12.1663309"><ele>558.25</ele><time>2026-04-12T09:47:22.637Z</time></trkpt><trkpt lat="43.2002596" lon="12.1664876"><ele>560.0</ele><time>2026-04-12T09:47:23.633Z</time></trkpt><trkpt lat="43.2002839" lon="12.1666439"><ele>561.75</ele><time>2026-04-12T09:47:24.635Z</time></trkpt><trkpt lat="43.2003161" lon="12.1668077"><ele>563.5</ele><time>2026-04-12T09:47:25.633Z</time></trkpt><trkpt lat="43.2003541" lon="12.1669823"><ele>565.25</ele><time>2026-04-12T09:47:26.633Z</time></trkpt><trkpt lat="43.200395" lon="12.1671736"><ele>567.0</ele><time>2026-04-12T09:47:27.649Z</time></trkpt><trkpt lat="43.20047" lon="12.1673961"><ele>566.25</ele><time>2026-04-12T09:47:28.644Z</time></trkpt><trkpt lat="43.2005281" lon="12.1675886"><ele>565.5</ele><time>2026-04-12T09:47:29.638Z</time></trkpt><trkpt lat="43.2005766" lon="12.1677668"><ele>564.75</ele><time>2026-04-12T09:47:30.639Z</time></trkpt><trkpt lat="43.20063" lon="12.1679402"><ele>564.0</ele><time>2026-04-12T09:47:31.645Z</time></trkpt><trkpt lat="43.2006918" lon="12.1681193"><ele>564.25</ele><time>2026-04-12T09:47:32.634Z</time></trkpt><trkpt lat="43.200772" lon="12.1682907"><ele>564.5</ele><time>2026-04-12T09:47:33.636Z</time></trkpt><trkpt lat="43.2008539" lon="12.1684512"><ele>564.75</ele><time>2026-04-12T09:47:34.638Z</time></trkpt><trkpt lat="43.2009316" lon="12.16861"><ele>565.0</ele><time>2026-04-12T09:47:35.641Z</time></trkpt><trkpt lat="43.2010024" lon="12.168773"><ele>565.0</ele><time>2026-04-12T09:47:36.644Z</time></trkpt><trkpt lat="43.2010548" lon="12.1689434"><ele>565.0</ele><time>2026-04-12T09:47:37.633Z</time></trkpt><trkpt lat="43.2010984" lon="12.169103"><ele>565.0</ele><time>2026-04-12T09:47:38.638Z</time></trkpt><trkpt lat="43.2011291" lon="12.1692469"><ele>565.0</ele><time>2026-04-12T09:47:39.631Z</time></trkpt><trkpt lat="43.2011548" lon="12.1693766"><ele>565.8</ele><time>2026-04-12T09:47:40.632Z</time></trkpt><trkpt lat="43.2011575" lon="12.1695037"><ele>566.6</ele><time>2026-04-12T09:47:41.631Z</time></trkpt><trkpt lat="43.2011566" lon="12.1696365"><ele>567.4</ele><time>2026-04-12T09:47:42.63Z</time></trkpt><trkpt lat="43.2011433" lon="12.1697878"><ele>568.2</ele><time>2026-04-12T09:47:43.627Z</time></trkpt><trkpt lat="43.2011312" lon="12.1699265"><ele>569.0</ele><time>2026-04-12T09:47:44.625Z</time></trkpt><trkpt lat="43.2011167" lon="12.1700522"><ele>569.6666666666666</ele><time>2026-04-12T09:47:45.628Z</time></trkpt><trkpt lat="43.2011058" lon="12.1701659"><ele>570.3333333333333</ele><time>2026-04-12T09:47:46.625Z</time></trkpt><trkpt lat="43.2011106" lon="12.1702747"><ele>571.0</ele><time>2026-04-12T09:47:47.634Z</time></trkpt><trkpt lat="43.2011448" lon="12.1703784"><ele>571.6666666666666</ele><time>2026-04-12T09:47:48.631Z</time></trkpt><trkpt lat="43.2012033" lon="12.1704653"><ele>572.3333333333334</ele><time>2026-04-12T09:47:49.625Z</time></trkpt><trkpt lat="43.2012804" lon="12.1705541"><ele>573.0</ele><time>2026-04-12T09:47:50.624Z</time></trkpt><trkpt lat="43.2013681" lon="12.1706439"><ele>574.5</ele><time>2026-04-12T09:47:51.628Z</time></trkpt><trkpt lat="43.2014668" lon="12.1707423"><ele>576.0</ele><time>2026-04-12T09:47:52.624Z</time></trkpt><trkpt lat="43.201567" lon="12.1708386"><ele>577.5</ele><time>2026-04-12T09:47:53.628Z</time></trkpt><trkpt lat="43.20168" lon="12.1709371"><ele>579.0</ele><time>2026-04-12T09:47:54.623Z</time></trkpt><trkpt lat="43.2018012" lon="12.1710348"><ele>575.5</ele><time>2026-04-12T09:47:55.627Z</time></trkpt><trkpt lat="43.2019215" lon="12.1711388"><ele>572.0</ele><time>2026-04-12T09:47:56.635Z</time></trkpt><trkpt lat="43.2020396" lon="12.1712447"><ele>568.5</ele><time>2026-04-12T09:47:57.637Z</time></trkpt><trkpt lat="43.2021589" lon="12.1713615"><ele>565.0</ele><time>2026-04-12T09:47:58.646Z</time></trkpt><trkpt lat="43.2022892" lon="12.1714879"><ele>565.75</ele><time>2026-04-12T09:47:59.632Z</time></trkpt><trkpt lat="43.2024056" lon="12.1715945"><ele>566.5</ele><time>2026-04-12T09:48:00.629Z</time></trkpt><trkpt lat="43.2025093" lon="12.1716938"><ele>567.25</ele><time>2026-04-12T09:48:01.632Z</time></trkpt><trkpt lat="43.2026007" lon="12.1717958"><ele>568.0</ele><time>2026-04-12T09:48:02.627Z</time></trkpt><trkpt lat="43.2026702" lon="12.1719165"><ele>568.0</ele><time>2026-04-12T09:48:03.632Z</time></trkpt><trkpt lat="43.2027222" lon="12.1720663"><ele>568.0</ele><time>2026-04-12T09:48:04.628Z</time></trkpt><trkpt lat="43.2027556" lon="12.1722034"><ele>568.0</ele><time>2026-04-12T09:48:05.632Z</time></trkpt><trkpt lat="43.2027836" lon="12.1723348"><ele>568.0</ele><time>2026-04-12T09:48:06.641Z</time></trkpt><trkpt lat="43.20281" lon="12.1724458"><ele>568.0</ele><time>2026-04-12T09:48:07.634Z</time></trkpt><trkpt lat="43.20282" lon="12.1725479"><ele>569.0</ele><time>2026-04-12T09:48:08.634Z</time></trkpt><trkpt lat="43.2028005" lon="12.1726415"><ele>570.0</ele><time>2026-04-12T09:48:09.637Z</time></trkpt><trkpt lat="43.2027407" lon="12.1727219"><ele>571.0</ele><time>2026-04-12T09:48:10.634Z</time></trkpt><trkpt lat="43.2026604" lon="12.1727748"><ele>572.0</ele><time>2026-04-12T09:48:11.628Z</time></trkpt><trkpt lat="43.202566" lon="12.1728141"><ele>573.0</ele><time>2026-04-12T09:48:12.629Z</time></trkpt><trkpt lat="43.2024622" lon="12.1728446"><ele>574.0</ele><time>2026-04-12T09:48:13.631Z</time></trkpt><trkpt lat="43.2023437" lon="12.1728745"><ele>576.0</ele><time>2026-04-12T09:48:14.631Z</time></trkpt><trkpt lat="43.2022158" lon="12.1729042"><ele>578.0</ele><time>2026-04-12T09:48:15.631Z</time></trkpt><trkpt lat="43.2020767" lon="12.1729418"><ele>580.0</ele><time>2026-04-12T09:48:16.63Z</time></trkpt><trkpt lat="43.2019413" lon="12.1729836"><ele>582.0</ele><time>2026-04-12T09:48:17.628Z</time></trkpt><trkpt lat="43.2017953" lon="12.1730274"><ele>582.0</ele><time>2026-04-12T09:48:18.633Z</time></trkpt><trkpt lat="43.2016392" lon="12.1730751"><ele>582.0</ele><time>2026-04-12T09:48:19.628Z</time></trkpt><trkpt lat="43.2014627" lon="12.1731608"><ele>582.0</ele><time>2026-04-12T09:48:20.627Z</time></trkpt><trkpt lat="43.2013183" lon="12.1732336"><ele>580.75</ele><time>2026-04-12T09:48:21.627Z</time></trkpt><trkpt lat="43.2011731" lon="12.1732939"><ele>579.5</ele><time>2026-04-12T09:48:22.627Z</time></trkpt><trkpt lat="43.2010445" lon="12.1733565"><ele>578.25</ele><time>2026-04-12T09:48:23.629Z</time></trkpt><trkpt lat="43.2009059" lon="12.1734153"><ele>577.0</ele><time>2026-04-12T09:48:24.628Z</time></trkpt><trkpt lat="43.200781" lon="12.1734799"><ele>577.4</ele><time>2026-04-12T09:48:25.624Z</time></trkpt><trkpt lat="43.2006635" lon="12.1735486"><ele>577.8000000000001</ele><time>2026-04-12T09:48:26.626Z</time></trkpt><trkpt lat="43.2005616" lon="12.1736285"><ele>578.2</ele><time>2026-04-12T09:48:27.631Z</time></trkpt><trkpt lat="43.2004858" lon="12.1737089"><ele>578.6</ele><time>2026-04-12T09:48:28.629Z</time></trkpt><trkpt lat="43.2004216" lon="12.1738139"><ele>579.0</ele><time>2026-04-12T09:48:29.638Z</time></trkpt><trkpt lat="43.2003718" lon="12.1739365"><ele>577.0</ele><time>2026-04-12T09:48:30.632Z</time></trkpt><trkpt lat="43.2003334" lon="12.1740542"><ele>575.0</ele><time>2026-04-12T09:48:31.638Z</time></trkpt><trkpt lat="43.2002917" lon="12.174163"><ele>573.0</ele><time>2026-04-12T09:48:32.631Z</time></trkpt><trkpt lat="43.2002433" lon="12.1742653"><ele>571.0</ele><time>2026-04-12T09:48:33.63Z</time></trkpt><trkpt lat="43.2001875" lon="12.1743553"><ele>569.0</ele><time>2026-04-12T09:48:34.632Z</time></trkpt><trkpt lat="43.2001195" lon="12.1744355"><ele>567.0</ele><time>2026-04-12T09:48:35.634Z</time></trkpt><trkpt lat="43.2000502" lon="12.1745144"><ele>567.0</ele><time>2026-04-12T09:48:36.643Z</time></trkpt><trkpt lat="43.1999835" lon="12.1745905"><ele>567.0</ele><time>2026-04-12T09:48:37.634Z</time></trkpt><trkpt lat="43.1999102" lon="12.1746621"><ele>567.0</ele><time>2026-04-12T09:48:38.635Z</time></trkpt><trkpt lat="43.1998366" lon="12.1747331"><ele>567.0</ele><time>2026-04-12T09:48:39.634Z</time></trkpt><trkpt lat="43.1997556" lon="12.1748083"><ele>567.0</ele><time>2026-04-12T09:48:40.634Z</time></trkpt><trkpt lat="43.1996748" lon="12.1748871"><ele>564.2</ele><time>2026-04-12T09:48:41.633Z</time></trkpt><trkpt lat="43.1996029" lon="12.1749672"><ele>561.4000000000001</ele><time>2026-04-12T09:48:42.632Z</time></trkpt><trkpt lat="43.1995293" lon="12.1750482"><ele>558.5999999999999</ele><time>2026-04-12T09:48:43.635Z</time></trkpt><trkpt lat="43.1994589" lon="12.1751323"><ele>555.8</ele><time>2026-04-12T09:48:44.635Z</time></trkpt><trkpt lat="43.1993969" lon="12.1752197"><ele>553.0</ele><time>2026-04-12T09:48:45.634Z</time></trkpt><trkpt lat="43.19934" lon="12.1753076"><ele>553.0</ele><time>2026-04-12T09:48:46.636Z</time></trkpt><trkpt lat="43.1992949" lon="12.1754042"><ele>553.0</ele><time>2026-04-12T09:48:47.633Z</time></trkpt><trkpt lat="43.199267" lon="12.1755091"><ele>553.0</ele><time>2026-04-12T09:48:48.631Z</time></trkpt><trkpt lat="43.1992517" lon="12.1756288"><ele>553.0</ele><time>2026-04-12T09:48:49.641Z</time></trkpt><trkpt lat="43.1992485" lon="12.1757709"><ele>553.0</ele><time>2026-04-12T09:48:50.631Z</time></trkpt><trkpt lat="43.1992462" lon="12.1759372"><ele>550.5</ele><time>2026-04-12T09:48:51.637Z</time></trkpt><trkpt lat="43.1992448" lon="12.1761235"><ele>548.0</ele><time>2026-04-12T09:48:52.634Z</time></trkpt><trkpt lat="43.199245" lon="12.1763117"><ele>545.5</ele><time>2026-04-12T09:48:53.632Z</time></trkpt><trkpt lat="43.1992392" lon="12.1765102"><ele>543.0</ele><time>2026-04-12T09:48:54.63Z</time></trkpt><trkpt lat="43.1992149" lon="12.176714"><ele>541.0</ele><time>2026-04-12T09:48:55.633Z</time></trkpt><trkpt lat="43.1991473" lon="12.1769259"><ele>539.0</ele><time>2026-04-12T09:48:56.627Z</time></trkpt><trkpt lat="43.1990815" lon="12.1771586"><ele>537.0</ele><time>2026-04-12T09:48:57.629Z</time></trkpt><trkpt lat="43.1989971" lon="12.1773809"><ele>533.5</ele><time>2026-04-12T09:48:58.628Z</time></trkpt><trkpt lat="43.1989343" lon="12.1775739"><ele>530.0</ele><time>2026-04-12T09:48:59.629Z</time></trkpt><trkpt lat="43.1988757" lon="12.1777578"><ele>526.5</ele><time>2026-04-12T09:49:00.658Z</time></trkpt><trkpt lat="43.198821" lon="12.1779477"><ele>523.0</ele><time>2026-04-12T09:49:01.637Z</time></trkpt><trkpt lat="43.1987641" lon="12.1781487"><ele>522.75</ele><time>2026-04-12T09:49:02.639Z</time></trkpt><trkpt lat="43.1987189" lon="12.1783368"><ele>522.5</ele><time>2026-04-12T09:49:03.638Z</time></trkpt><trkpt lat="43.1986754" lon="12.1785139"><ele>522.25</ele><time>2026-04-12T09:49:04.639Z</time></trkpt><trkpt lat="43.1986247" lon="12.1786891"><ele>522.0</ele><time>2026-04-12T09:49:05.642Z</time></trkpt><trkpt lat="43.1985681" lon="12.1788657"><ele>521.5</ele><time>2026-04-12T09:49:06.647Z</time></trkpt><trkpt lat="43.1985005" lon="12.17905"><ele>521.0</ele><time>2026-04-12T09:49:07.642Z</time></trkpt><trkpt lat="43.1984362" lon="12.179218"><ele>520.5</ele><time>2026-04-12T09:49:08.644Z</time></trkpt><trkpt lat="43.1983754" lon="12.179367"><ele>520.0</ele><time>2026-04-12T09:49:09.641Z</time></trkpt><trkpt lat="43.1983094" lon="12.1795075"><ele>520.0</ele><time>2026-04-12T09:49:10.638Z</time></trkpt><trkpt lat="43.1982381" lon="12.179622"><ele>520.0</ele><time>2026-04-12T09:49:11.638Z</time></trkpt><trkpt lat="43.1981514" lon="12.1797215"><ele>520.0</ele><time>2026-04-12T09:49:12.633Z</time></trkpt><trkpt lat="43.1980717" lon="12.1798084"><ele>520.0</ele><time>2026-04-12T09:49:13.636Z</time></trkpt><trkpt lat="43.1979851" lon="12.1798877"><ele>520.0</ele><time>2026-04-12T09:49:14.638Z</time></trkpt><trkpt lat="43.1979029" lon="12.1799592"><ele>518.8333333333334</ele><time>2026-04-12T09:49:15.634Z</time></trkpt><trkpt lat="43.1978287" lon="12.1800319"><ele>517.6666666666667</ele><time>2026-04-12T09:49:16.636Z</time></trkpt><trkpt lat="43.197755" lon="12.1801146"><ele>516.5</ele><time>2026-04-12T09:49:17.636Z</time></trkpt><trkpt lat="43.1976876" lon="12.1802003"><ele>515.3333333333334</ele><time>2026-04-12T09:49:18.638Z</time></trkpt><trkpt lat="43.197629" lon="12.180288"><ele>514.1666666666666</ele><time>2026-04-12T09:49:19.638Z</time></trkpt><trkpt lat="43.1975861" lon="12.1803807"><ele>513.0</ele><time>2026-04-12T09:49:20.644Z</time></trkpt><trkpt lat="43.1975691" lon="12.1804913"><ele>513.0</ele><time>2026-04-12T09:49:21.637Z</time></trkpt><trkpt lat="43.1975856" lon="12.1806083"><ele>513.0</ele><time>2026-04-12T09:49:22.633Z</time></trkpt><trkpt lat="43.197617" lon="12.1807303"><ele>513.0</ele><time>2026-04-12T09:49:23.637Z</time></trkpt><trkpt lat="43.1976645" lon="12.1808609"><ele>513.0</ele><time>2026-04-12T09:49:24.636Z</time></trkpt><trkpt lat="43.1977261" lon="12.1809892"><ele>513.0</ele><time>2026-04-12T09:49:25.636Z</time></trkpt><trkpt lat="43.197794" lon="12.1811229"><ele>512.25</ele><time>2026-04-12T09:49:26.637Z</time></trkpt><trkpt lat="43.1978564" lon="12.1812585"><ele>511.5</ele><time>2026-04-12T09:49:27.637Z</time></trkpt><trkpt lat="43.1979025" lon="12.1814082"><ele>510.75</ele><time>2026-04-12T09:49:28.634Z</time></trkpt><trkpt lat="43.197929" lon="12.1815706"><ele>510.0</ele><time>2026-04-12T09:49:29.636Z</time></trkpt><trkpt lat="43.1979261" lon="12.1817495"><ele>508.33333333333337</ele><time>2026-04-12T09:49:30.643Z</time></trkpt><trkpt lat="43.197902" lon="12.1819373"><ele>506.6666666666667</ele><time>2026-04-12T09:49:31.633Z</time></trkpt><trkpt lat="43.1978574" lon="12.1821304"><ele>505.0</ele><time>2026-04-12T09:49:32.636Z</time></trkpt><trkpt lat="43.1977701" lon="12.1823447"><ele>505.6666666666667</ele><time>2026-04-12T09:49:33.634Z</time></trkpt><trkpt lat="43.1976805" lon="12.1825571"><ele>506.33333333333337</ele><time>2026-04-12T09:49:34.631Z</time></trkpt><trkpt lat="43.1975991" lon="12.1827494"><ele>507.0</ele><time>2026-04-12T09:49:35.641Z</time></trkpt><trkpt lat="43.1975134" lon="12.1829279"><ele>507.0</ele><time>2026-04-12T09:49:36.643Z</time></trkpt><trkpt lat="43.1974359" lon="12.1830839"><ele>507.0</ele><time>2026-04-12T09:49:37.637Z</time></trkpt><trkpt lat="43.1973585" lon="12.1832203"><ele>507.0</ele><time>2026-04-12T09:49:38.636Z</time></trkpt><trkpt lat="43.1972871" lon="12.1833294"><ele>507.0</ele><time>2026-04-12T09:49:39.635Z</time></trkpt><trkpt lat="43.1972025" lon="12.1834121"><ele>508.40000000000003</ele><time>2026-04-12T09:49:40.639Z</time></trkpt><trkpt lat="43.1971025" lon="12.1834519"><ele>509.80000000000007</ele><time>2026-04-12T09:49:41.635Z</time></trkpt><trkpt lat="43.1970097" lon="12.1834582"><ele>511.2</ele><time>2026-04-12T09:49:42.635Z</time></trkpt><trkpt lat="43.1969138" lon="12.1834436"><ele>512.6</ele><time>2026-04-12T09:49:43.636Z</time></trkpt><trkpt lat="43.1968176" lon="12.183413"><ele>514.0</ele><time>2026-04-12T09:49:44.632Z</time></trkpt><trkpt lat="43.1967208" lon="12.1833905"><ele>514.0</ele><time>2026-04-12T09:49:45.635Z</time></trkpt><trkpt lat="43.1966324" lon="12.1833905"><ele>514.0</ele><time>2026-04-12T09:49:46.637Z</time></trkpt><trkpt lat="43.1965551" lon="12.1834173"><ele>514.0</ele><time>2026-04-12T09:49:47.624Z</time></trkpt><trkpt lat="43.1964937" lon="12.1834899"><ele>514.0</ele><time>2026-04-12T09:49:48.634Z</time></trkpt><trkpt lat="43.1964299" lon="12.1835925"><ele>514.0</ele><time>2026-04-12T09:49:49.632Z</time></trkpt><trkpt lat="43.1963566" lon="12.183714"><ele>514.75</ele><time>2026-04-12T09:49:50.631Z</time></trkpt><trkpt lat="43.1962771" lon="12.1838309"><ele>515.5</ele><time>2026-04-12T09:49:51.631Z</time></trkpt><trkpt lat="43.1961842" lon="12.1839432"><ele>516.25</ele><time>2026-04-12T09:49:52.634Z</time></trkpt><trkpt lat="43.196094" lon="12.184054"><ele>517.0</ele><time>2026-04-12T09:49:53.631Z</time></trkpt><trkpt lat="43.1960168" lon="12.184172"><ele>518.0</ele><time>2026-04-12T09:49:54.629Z</time></trkpt><trkpt lat="43.1959614" lon="12.1842839"><ele>519.0</ele><time>2026-04-12T09:49:55.635Z</time></trkpt><trkpt lat="43.1959433" lon="12.1843971"><ele>520.0</ele><time>2026-04-12T09:49:56.634Z</time></trkpt><trkpt lat="43.195953" lon="12.1845055"><ele>521.0</ele><time>2026-04-12T09:49:57.627Z</time></trkpt><trkpt lat="43.1959645" lon="12.1846133"><ele>522.0</ele><time>2026-04-12T09:49:58.637Z</time></trkpt><trkpt lat="43.1959843" lon="12.1847345"><ele>523.0</ele><time>2026-04-12T09:49:59.636Z</time></trkpt><trkpt lat="43.1960086" lon="12.1848662"><ele>524.0</ele><time>2026-04-12T09:50:00.633Z</time></trkpt><trkpt lat="43.1960303" lon="12.1850142"><ele>525.0</ele><time>2026-04-12T09:50:01.65Z</time></trkpt><trkpt lat="43.1960579" lon="12.1851819"><ele>526.0</ele><time>2026-04-12T09:50:02.63Z</time></trkpt><trkpt lat="43.1960898" lon="12.185357"><ele>527.0</ele><time>2026-04-12T09:50:03.637Z</time></trkpt><trkpt lat="43.1961255" lon="12.1855531"><ele>528.75</ele><time>2026-04-12T09:50:04.63Z</time></trkpt><trkpt lat="43.196167" lon="12.1857551"><ele>530.5</ele><time>2026-04-12T09:50:05.636Z</time></trkpt><trkpt lat="43.1962123" lon="12.1859531"><ele>532.25</ele><time>2026-04-12T09:50:06.648Z</time></trkpt><trkpt lat="43.1962502" lon="12.1861442"><ele>534.0</ele><time>2026-04-12T09:50:07.631Z</time></trkpt><trkpt lat="43.1962853" lon="12.1863359"><ele>536.25</ele><time>2026-04-12T09:50:08.632Z</time></trkpt><trkpt lat="43.1963246" lon="12.1865144"><ele>538.5</ele><time>2026-04-12T09:50:09.636Z</time></trkpt><trkpt lat="43.1963451" lon="12.1866703"><ele>540.75</ele><time>2026-04-12T09:50:10.635Z</time></trkpt><trkpt lat="43.1963381" lon="12.1868037"><ele>543.0</ele><time>2026-04-12T09:50:11.636Z</time></trkpt><trkpt lat="43.1963024" lon="12.1869365"><ele>543.0</ele><time>2026-04-12T09:50:12.636Z</time></trkpt><trkpt lat="43.1962406" lon="12.1870514"><ele>543.0</ele><time>2026-04-12T09:50:13.635Z</time></trkpt><trkpt lat="43.1961714" lon="12.1871611"><ele>543.0</ele><time>2026-04-12T09:50:14.638Z</time></trkpt><trkpt lat="43.1960986" lon="12.1872639"><ele>543.0</ele><time>2026-04-12T09:50:15.64Z</time></trkpt><trkpt lat="43.1960169" lon="12.1873762"><ele>543.0</ele><time>2026-04-12T09:50:16.642Z</time></trkpt><trkpt lat="43.1959397" lon="12.187501"><ele>544.5</ele><time>2026-04-12T09:50:17.64Z</time></trkpt><trkpt lat="43.1958667" lon="12.1876307"><ele>546.0</ele><time>2026-04-12T09:50:18.64Z</time></trkpt><trkpt lat="43.1957855" lon="12.187764"><ele>547.5</ele><time>2026-04-12T09:50:19.641Z</time></trkpt><trkpt lat="43.1957019" lon="12.1878946"><ele>549.0</ele><time>2026-04-12T09:50:20.632Z</time></trkpt><trkpt lat="43.1956113" lon="12.1880163"><ele>549.0</ele><time>2026-04-12T09:50:21.628Z</time></trkpt><trkpt lat="43.1955289" lon="12.1881218"><ele>549.0</ele><time>2026-04-12T09:50:22.636Z</time></trkpt><trkpt lat="43.1954596" lon="12.1882433"><ele>549.0</ele><time>2026-04-12T09:50:23.63Z</time></trkpt><trkpt lat="43.1954033" lon="12.1883815"><ele>549.0</ele><time>2026-04-12T09:50:24.634Z</time></trkpt><trkpt lat="43.1953508" lon="12.18853"><ele>550.25</ele><time>2026-04-12T09:50:25.638Z</time></trkpt><trkpt lat="43.1952991" lon="12.1886873"><ele>551.5</ele><time>2026-04-12T09:50:26.633Z</time></trkpt><trkpt lat="43.1952428" lon="12.1888391"><ele>552.75</ele><time>2026-04-12T09:50:27.633Z</time></trkpt><trkpt lat="43.1951708" lon="12.1889849"><ele>554.0</ele><time>2026-04-12T09:50:28.641Z</time></trkpt><trkpt lat="43.1950899" lon="12.1891153"><ele>554.75</ele><time>2026-04-12T09:50:29.635Z</time></trkpt><trkpt lat="43.1949926" lon="12.1892323"><ele>555.5</ele><time>2026-04-12T09:50:30.637Z</time></trkpt><trkpt lat="43.1948906" lon="12.1893476"><ele>556.25</ele><time>2026-04-12T09:50:31.643Z</time></trkpt><trkpt lat="43.1947827" lon="12.1894547"><ele>557.0</ele><time>2026-04-12T09:50:32.646Z</time></trkpt><trkpt lat="43.1946841" lon="12.1895585"><ele>555.8000000000001</ele><time>2026-04-12T09:50:33.631Z</time></trkpt><trkpt lat="43.1945995" lon="12.1896711"><ele>554.6</ele><time>2026-04-12T09:50:34.633Z</time></trkpt><trkpt lat="43.194529" lon="12.189789"><ele>553.4000000000001</ele><time>2026-04-12T09:50:35.634Z</time></trkpt><trkpt lat="43.1944768" lon="12.1899241"><ele>552.2</ele><time>2026-04-12T09:50:36.64Z</time></trkpt><trkpt lat="43.1944412" lon="12.1900633"><ele>551.0</ele><time>2026-04-12T09:50:37.629Z</time></trkpt><trkpt lat="43.1944021" lon="12.1902121"><ele>551.0</ele><time>2026-04-12T09:50:38.634Z</time></trkpt><trkpt lat="43.1943659" lon="12.1903652"><ele>551.0</ele><time>2026-04-12T09:50:39.634Z</time></trkpt><trkpt lat="43.1943293" lon="12.1905101"><ele>551.0</ele><time>2026-04-12T09:50:40.642Z</time></trkpt><trkpt lat="43.1942792" lon="12.190644"><ele>551.0</ele><time>2026-04-12T09:50:41.641Z</time></trkpt><trkpt lat="43.1942228" lon="12.1907613"><ele>551.0</ele><time>2026-04-12T09:50:42.637Z</time></trkpt><trkpt lat="43.1941468" lon="12.1908666"><ele>551.0</ele><time>2026-04-12T09:50:43.641Z</time></trkpt><trkpt lat="43.1940509" lon="12.1909528"><ele>551.0</ele><time>2026-04-12T09:50:44.64Z</time></trkpt><trkpt lat="43.1939497" lon="12.1910221"><ele>551.0</ele><time>2026-04-12T09:50:45.631Z</time></trkpt><trkpt lat="43.19384" lon="12.1910745"><ele>551.0</ele><time>2026-04-12T09:50:46.63Z</time></trkpt><trkpt lat="43.1937159" lon="12.1911189"><ele>550.25</ele><time>2026-04-12T09:50:47.634Z</time></trkpt><trkpt lat="43.1935882" lon="12.1911471"><ele>549.5</ele><time>2026-04-12T09:50:48.644Z</time></trkpt><trkpt lat="43.1934582" lon="12.1911823"><ele>548.75</ele><time>2026-04-12T09:50:49.635Z</time></trkpt><trkpt lat="43.1933307" lon="12.1912214"><ele>548.0</ele><time>2026-04-12T09:50:50.635Z</time></trkpt><trkpt lat="43.1932022" lon="12.1912718"><ele>548.0</ele><time>2026-04-12T09:50:51.647Z</time></trkpt><trkpt lat="43.1930764" lon="12.1913157"><ele>548.0</ele><time>2026-04-12T09:50:52.646Z</time></trkpt><trkpt lat="43.1929543" lon="12.1913582"><ele>548.0</ele><time>2026-04-12T09:50:53.638Z</time></trkpt><trkpt lat="43.1928347" lon="12.1914027"><ele>548.0</ele><time>2026-04-12T09:50:54.639Z</time></trkpt><trkpt lat="43.1927284" lon="12.191444"><ele>548.0</ele><time>2026-04-12T09:50:55.633Z</time></trkpt><trkpt lat="43.1926364" lon="12.1914893"><ele>548.0</ele><time>2026-04-12T09:50:56.639Z</time></trkpt><trkpt lat="43.1925549" lon="12.1915418"><ele>548.0</ele><time>2026-04-12T09:50:57.631Z</time></trkpt><trkpt lat="43.1924843" lon="12.1916082"><ele>548.0</ele><time>2026-04-12T09:50:58.637Z</time></trkpt><trkpt lat="43.1924149" lon="12.1916866"><ele>548.0</ele><time>2026-04-12T09:50:59.63Z</time></trkpt><trkpt lat="43.1923432" lon="12.1917702"><ele>547.75</ele><time>2026-04-12T09:51:00.63Z</time></trkpt><trkpt lat="43.1922683" lon="12.1918655"><ele>547.5</ele><time>2026-04-12T09:51:01.634Z</time></trkpt><trkpt lat="43.19219" lon="12.191968"><ele>547.25</ele><time>2026-04-12T09:51:02.634Z</time></trkpt><trkpt lat="43.1921015" lon="12.1920868"><ele>547.0</ele><time>2026-04-12T09:51:03.644Z</time></trkpt><trkpt lat="43.1920142" lon="12.1922049"><ele>547.0</ele><time>2026-04-12T09:51:04.632Z</time></trkpt><trkpt lat="43.191928" lon="12.1923186"><ele>547.0</ele><time>2026-04-12T09:51:05.628Z</time></trkpt><trkpt lat="43.191853" lon="12.1924371"><ele>547.0</ele><time>2026-04-12T09:51:06.636Z</time></trkpt><trkpt lat="43.1917943" lon="12.1925586"><ele>547.0</ele><time>2026-04-12T09:51:07.628Z</time></trkpt><trkpt lat="43.1917417" lon="12.1926894"><ele>547.0</ele><time>2026-04-12T09:51:08.627Z</time></trkpt><trkpt lat="43.1917148" lon="12.1928267"><ele>547.2</ele><time>2026-04-12T09:51:09.63Z</time></trkpt><trkpt lat="43.1917035" lon="12.1929654"><ele>547.4000000000001</ele><time>2026-04-12T09:51:10.629Z</time></trkpt><trkpt lat="43.1917276" lon="12.1931043"><ele>547.5999999999999</ele><time>2026-04-12T09:51:11.634Z</time></trkpt><trkpt lat="43.1917758" lon="12.1932232"><ele>547.8</ele><time>2026-04-12T09:51:12.621Z</time></trkpt><trkpt lat="43.1918402" lon="12.1933358"><ele>548.0</ele><time>2026-04-12T09:51:13.627Z</time></trkpt><trkpt lat="43.1919061" lon="12.1934545"><ele>548.0</ele><time>2026-04-12T09:51:14.628Z</time></trkpt><trkpt lat="43.1919804" lon="12.1935728"><ele>548.0</ele><time>2026-04-12T09:51:15.631Z</time></trkpt><trkpt lat="43.1920617" lon="12.1936926"><ele>548.0</ele><time>2026-04-12T09:51:16.628Z</time></trkpt><trkpt lat="43.1921619" lon="12.1938131"><ele>548.0</ele><time>2026-04-12T09:51:17.632Z</time></trkpt><trkpt lat="43.192268" lon="12.193941"><ele>549.5</ele><time>2026-04-12T09:51:18.633Z</time></trkpt><trkpt lat="43.1923655" lon="12.1940802"><ele>551.0</ele><time>2026-04-12T09:51:19.637Z</time></trkpt><trkpt lat="43.1924558" lon="12.1942236"><ele>552.5</ele><time>2026-04-12T09:51:20.63Z</time></trkpt><trkpt lat="43.1925325" lon="12.1943713"><ele>554.0</ele><time>2026-04-12T09:51:21.632Z</time></trkpt><trkpt lat="43.192593" lon="12.1945185"><ele>554.0</ele><time>2026-04-12T09:51:22.629Z</time></trkpt><trkpt lat="43.1926411" lon="12.194661"><ele>554.0</ele><time>2026-04-12T09:51:23.642Z</time></trkpt><trkpt lat="43.1926815" lon="12.1947959"><ele>554.0</ele><time>2026-04-12T09:51:24.635Z</time></trkpt><trkpt lat="43.1927282" lon="12.1949213"><ele>554.0</ele><time>2026-04-12T09:51:25.633Z</time></trkpt><trkpt lat="43.1927838" lon="12.1950292"><ele>554.0</ele><time>2026-04-12T09:51:26.634Z</time></trkpt><trkpt lat="43.1928658" lon="12.1951238"><ele>554.0</ele><time>2026-04-12T09:51:27.634Z</time></trkpt><trkpt lat="43.1929521" lon="12.1952178"><ele>554.0</ele><time>2026-04-12T09:51:28.634Z</time></trkpt><trkpt lat="43.1930402" lon="12.1953203"><ele>554.0</ele><time>2026-04-12T09:51:29.634Z</time></trkpt><trkpt lat="43.1931157" lon="12.1954476"><ele>554.0</ele><time>2026-04-12T09:51:30.635Z</time></trkpt><trkpt lat="43.1931879" lon="12.1955938"><ele>554.5</ele><time>2026-04-12T09:51:31.64Z</time></trkpt><trkpt lat="43.1932448" lon="12.1957545"><ele>555.0</ele><time>2026-04-12T09:51:32.635Z</time></trkpt><trkpt lat="43.1932934" lon="12.1959148"><ele>555.5</ele><time>2026-04-12T09:51:33.632Z</time></trkpt><trkpt lat="43.1933468" lon="12.1960776"><ele>556.0</ele><time>2026-04-12T09:51:34.643Z</time></trkpt><trkpt lat="43.193423" lon="12.1962126"><ele>556.0</ele><time>2026-04-12T09:51:35.627Z</time></trkpt><trkpt lat="43.1935062" lon="12.1963309"><ele>556.0</ele><time>2026-04-12T09:51:36.636Z</time></trkpt><trkpt lat="43.1935886" lon="12.196441"><ele>556.0</ele><time>2026-04-12T09:51:37.631Z</time></trkpt><trkpt lat="43.1936596" lon="12.1965498"><ele>556.0</ele><time>2026-04-12T09:51:38.629Z</time></trkpt><trkpt lat="43.1937199" lon="12.1966556"><ele>556.0</ele><time>2026-04-12T09:51:39.634Z</time></trkpt><trkpt lat="43.1937656" lon="12.1967625"><ele>556.6</ele><time>2026-04-12T09:51:40.633Z</time></trkpt><trkpt lat="43.1938016" lon="12.1968742"><ele>557.2</ele><time>2026-04-12T09:51:41.632Z</time></trkpt><trkpt lat="43.1938212" lon="12.1969969"><ele>557.8</ele><time>2026-04-12T09:51:42.628Z</time></trkpt><trkpt lat="43.1938269" lon="12.1971209"><ele>558.4</ele><time>2026-04-12T09:51:43.628Z</time></trkpt><trkpt lat="43.1938172" lon="12.197247"><ele>559.0</ele><time>2026-04-12T09:51:44.629Z</time></trkpt><trkpt lat="43.1938029" lon="12.1973661"><ele>557.4</ele><time>2026-04-12T09:51:45.631Z</time></trkpt><trkpt lat="43.1937604" lon="12.1974854"><ele>555.8</ele><time>2026-04-12T09:51:46.638Z</time></trkpt><trkpt lat="43.1937007" lon="12.1975904"><ele>554.2</ele><time>2026-04-12T09:51:47.629Z</time></trkpt><trkpt lat="43.1936361" lon="12.1976848"><ele>552.6</ele><time>2026-04-12T09:51:48.632Z</time></trkpt><trkpt lat="43.1935859" lon="12.1977848"><ele>551.0</ele><time>2026-04-12T09:51:49.628Z</time></trkpt><trkpt lat="43.1935532" lon="12.1978896"><ele>551.0</ele><time>2026-04-12T09:51:50.632Z</time></trkpt><trkpt lat="43.1935494" lon="12.1980027"><ele>551.0</ele><time>2026-04-12T09:51:51.637Z</time></trkpt><trkpt lat="43.1935863" lon="12.1981263"><ele>551.0</ele><time>2026-04-12T09:51:52.626Z</time></trkpt><trkpt lat="43.1936388" lon="12.1982507"><ele>551.0</ele><time>2026-04-12T09:51:53.628Z</time></trkpt><trkpt lat="43.1936995" lon="12.198389"><ele>551.0</ele><time>2026-04-12T09:51:54.63Z</time></trkpt><trkpt lat="43.193757" lon="12.1985378"><ele>548.25</ele><time>2026-04-12T09:51:55.625Z</time></trkpt><trkpt lat="43.1938093" lon="12.1986987"><ele>545.5</ele><time>2026-04-12T09:51:56.624Z</time></trkpt><trkpt lat="43.1938531" lon="12.1988611"><ele>542.75</ele><time>2026-04-12T09:51:57.627Z</time></trkpt><trkpt lat="43.1938952" lon="12.1990202"><ele>540.0</ele><time>2026-04-12T09:51:58.628Z</time></trkpt><trkpt lat="43.1939421" lon="12.1991693"><ele>540.4</ele><time>2026-04-12T09:51:59.623Z</time></trkpt><trkpt lat="43.1939965" lon="12.1993083"><ele>540.8</ele><time>2026-04-12T09:52:00.629Z</time></trkpt><trkpt lat="43.1940612" lon="12.1994273"><ele>541.2</ele><time>2026-04-12T09:52:01.632Z</time></trkpt><trkpt lat="43.1941268" lon="12.1995305"><ele>541.6</ele><time>2026-04-12T09:52:02.625Z</time></trkpt><trkpt lat="43.1941873" lon="12.1996319"><ele>542.0</ele><time>2026-04-12T09:52:03.633Z</time></trkpt><trkpt lat="43.1942442" lon="12.1997318"><ele>540.0</ele><time>2026-04-12T09:52:04.633Z</time></trkpt><trkpt lat="43.1942983" lon="12.1998363"><ele>538.0</ele><time>2026-04-12T09:52:05.645Z</time></trkpt><trkpt lat="43.1943488" lon="12.1999472"><ele>536.0</ele><time>2026-04-12T09:52:06.637Z</time></trkpt><trkpt lat="43.1943891" lon="12.2000601"><ele>534.0</ele><time>2026-04-12T09:52:07.627Z</time></trkpt><trkpt lat="43.1944175" lon="12.2001772"><ele>532.0</ele><time>2026-04-12T09:52:08.637Z</time></trkpt><trkpt lat="43.1944263" lon="12.200298"><ele>532.0</ele><time>2026-04-12T09:52:09.633Z</time></trkpt><trkpt lat="43.194414" lon="12.2004134"><ele>532.0</ele><time>2026-04-12T09:52:10.637Z</time></trkpt><trkpt lat="43.1943771" lon="12.2005273"><ele>532.0</ele><time>2026-04-12T09:52:11.632Z</time></trkpt><trkpt lat="43.1943199" lon="12.200638"><ele>532.0</ele><time>2026-04-12T09:52:12.639Z</time></trkpt><trkpt lat="43.1942562" lon="12.2007557"><ele>532.0</ele><time>2026-04-12T09:52:13.634Z</time></trkpt><trkpt lat="43.1941955" lon="12.20088"><ele>529.25</ele><time>2026-04-12T09:52:14.626Z</time></trkpt><trkpt lat="43.194135" lon="12.2010229"><ele>526.5</ele><time>2026-04-12T09:52:15.631Z</time></trkpt><trkpt lat="43.1940756" lon="12.2011847"><ele>523.75</ele><time>2026-04-12T09:52:16.628Z</time></trkpt><trkpt lat="43.1940198" lon="12.2013555"><ele>521.0</ele><time>2026-04-12T09:52:17.628Z</time></trkpt><trkpt lat="43.1939749" lon="12.2015299"><ele>517.25</ele><time>2026-04-12T09:52:18.629Z</time></trkpt><trkpt lat="43.1939363" lon="12.2016899"><ele>513.5</ele><time>2026-04-12T09:52:19.629Z</time></trkpt><trkpt lat="43.193906" lon="12.2018325"><ele>509.75</ele><time>2026-04-12T09:52:20.631Z</time></trkpt><trkpt lat="43.1938761" lon="12.2019779"><ele>506.0</ele><time>2026-04-12T09:52:21.632Z</time></trkpt><trkpt lat="43.1938431" lon="12.2021269"><ele>506.0</ele><time>2026-04-12T09:52:22.628Z</time></trkpt><trkpt lat="43.1938124" lon="12.2022654"><ele>506.0</ele><time>2026-04-12T09:52:23.631Z</time></trkpt><trkpt lat="43.1937823" lon="12.2023996"><ele>506.0</ele><time>2026-04-12T09:52:24.633Z</time></trkpt><trkpt lat="43.1937619" lon="12.2025241"><ele>506.0</ele><time>2026-04-12T09:52:25.634Z</time></trkpt><trkpt lat="43.193742" lon="12.2026389"><ele>506.0</ele><time>2026-04-12T09:52:26.632Z</time></trkpt><trkpt lat="43.1937154" lon="12.2027548"><ele>506.16666666666663</ele><time>2026-04-12T09:52:27.632Z</time></trkpt><trkpt lat="43.1936845" lon="12.2028608"><ele>506.3333333333333</ele><time>2026-04-12T09:52:28.633Z</time></trkpt><trkpt lat="43.1936469" lon="12.2029617"><ele>506.5</ele><time>2026-04-12T09:52:29.634Z</time></trkpt><trkpt lat="43.193622" lon="12.2030588"><ele>506.66666666666663</ele><time>2026-04-12T09:52:30.632Z</time></trkpt><trkpt lat="43.1936126" lon="12.2031534"><ele>506.8333333333333</ele><time>2026-04-12T09:52:31.637Z</time></trkpt><trkpt lat="43.193615" lon="12.2032826"><ele>507.0</ele><time>2026-04-12T09:52:33.632Z</time></trkpt><trkpt lat="43.1935643" lon="12.2033435"><ele>507.0</ele><time>2026-04-12T09:52:35.646Z</time></trkpt><trkpt lat="43.1934216" lon="12.2033043"><ele>507.00000000000006</ele><time>2026-04-12T09:52:37.628Z</time></trkpt><trkpt lat="43.193334" lon="12.2032597"><ele>507.00000000000006</ele><time>2026-04-12T09:52:38.631Z</time></trkpt><trkpt lat="43.1932539" lon="12.2032152"><ele>507.0</ele><time>2026-04-12T09:52:39.633Z</time></trkpt><trkpt lat="43.193181" lon="12.2031921"><ele>507.0</ele><time>2026-04-12T09:52:40.632Z</time></trkpt><trkpt lat="43.1930766" lon="12.203187"><ele>505.5</ele><time>2026-04-12T09:52:42.631Z</time></trkpt><trkpt lat="43.1930276" lon="12.203248"><ele>504.0</ele><time>2026-04-12T09:52:44.649Z</time></trkpt><trkpt lat="43.1930557" lon="12.2033693"><ele>502.5</ele><time>2026-04-12T09:52:46.641Z</time></trkpt><trkpt lat="43.1930907" lon="12.2034769"><ele>501.0</ele><time>2026-04-12T09:52:48.641Z</time></trkpt><trkpt lat="43.193031" lon="12.203532"><ele>499.5</ele><time>2026-04-12T09:53:24.64Z</time></trkpt><trkpt lat="43.1929442" lon="12.2035593"><ele>498.0</ele><time>2026-04-12T09:53:26.639Z</time></trkpt><trkpt lat="43.1928462" lon="12.2036044"><ele>498.0</ele><time>2026-04-12T09:53:28.642Z</time></trkpt><trkpt lat="43.1927782" lon="12.2036551"><ele>497.99999999999994</ele><time>2026-04-12T09:53:29.624Z</time></trkpt><trkpt lat="43.1927085" lon="12.2037235"><ele>497.99999999999994</ele><time>2026-04-12T09:53:30.626Z</time></trkpt><trkpt lat="43.1926381" lon="12.2037976"><ele>498.0</ele><time>2026-04-12T09:53:31.632Z</time></trkpt><trkpt lat="43.1925678" lon="12.2038892"><ele>498.0</ele><time>2026-04-12T09:53:32.63Z</time></trkpt><trkpt lat="43.1924936" lon="12.2039834"><ele>498.4</ele><time>2026-04-12T09:53:33.629Z</time></trkpt><trkpt lat="43.1924275" lon="12.2040811"><ele>498.79999999999995</ele><time>2026-04-12T09:53:34.624Z</time></trkpt><trkpt lat="43.1923616" lon="12.2041808"><ele>499.2</ele><time>2026-04-12T09:53:35.627Z</time></trkpt><trkpt lat="43.1922986" lon="12.2042824"><ele>499.6</ele><time>2026-04-12T09:53:36.635Z</time></trkpt><trkpt lat="43.1922357" lon="12.2043793"><ele>500.0</ele><time>2026-04-12T09:53:37.629Z</time></trkpt><trkpt lat="43.1921725" lon="12.204476"><ele>497.3333333333333</ele><time>2026-04-12T09:53:38.653Z</time></trkpt><trkpt lat="43.1921192" lon="12.2045794"><ele>494.66666666666663</ele><time>2026-04-12T09:53:39.627Z</time></trkpt><trkpt lat="43.1920727" lon="12.2046834"><ele>492.0</ele><time>2026-04-12T09:53:40.627Z</time></trkpt><trkpt lat="43.1920282" lon="12.20478"><ele>489.33333333333337</ele><time>2026-04-12T09:53:41.628Z</time></trkpt><trkpt lat="43.1919836" lon="12.2048529"><ele>486.6666666666667</ele><time>2026-04-12T09:53:42.628Z</time></trkpt><trkpt lat="43.1918775" lon="12.2048965"><ele>484.0</ele><time>2026-04-12T09:53:44.621Z</time></trkpt><trkpt lat="43.1918105" lon="12.2048929"><ele>484.0</ele><time>2026-04-12T09:53:45.629Z</time></trkpt><trkpt lat="43.1917164" lon="12.2048625"><ele>484.0</ele><time>2026-04-12T09:53:46.617Z</time></trkpt><trkpt lat="43.1916202" lon="12.2048282"><ele>484.0</ele><time>2026-04-12T09:53:47.614Z</time></trkpt><trkpt lat="43.191519" lon="12.2047977"><ele>484.0</ele><time>2026-04-12T09:53:48.619Z</time></trkpt><trkpt lat="43.191398" lon="12.2047673"><ele>484.0</ele><time>2026-04-12T09:53:49.621Z</time></trkpt><trkpt lat="43.1912611" lon="12.2047336"><ele>481.0</ele><time>2026-04-12T09:53:50.615Z</time></trkpt><trkpt lat="43.1911259" lon="12.2047095"><ele>478.0</ele><time>2026-04-12T09:53:51.618Z</time></trkpt><trkpt lat="43.1910091" lon="12.2046928"><ele>475.0</ele><time>2026-04-12T09:53:52.624Z</time></trkpt><trkpt lat="43.1909045" lon="12.2046872"><ele>472.0</ele><time>2026-04-12T09:53:53.623Z</time></trkpt><trkpt lat="43.1908136" lon="12.2046975"><ele>472.0</ele><time>2026-04-12T09:53:54.62Z</time></trkpt><trkpt lat="43.1907301" lon="12.2047356"><ele>472.00000000000006</ele><time>2026-04-12T09:53:55.626Z</time></trkpt><trkpt lat="43.1906578" lon="12.2048083"><ele>472.00000000000006</ele><time>2026-04-12T09:53:56.626Z</time></trkpt><trkpt lat="43.1905839" lon="12.2048914"><ele>472.0</ele><time>2026-04-12T09:53:57.624Z</time></trkpt><trkpt lat="43.1904947" lon="12.2049843"><ele>472.0</ele><time>2026-04-12T09:53:58.628Z</time></trkpt><trkpt lat="43.190391" lon="12.2050865"><ele>470.75</ele><time>2026-04-12T09:53:59.622Z</time></trkpt><trkpt lat="43.1902865" lon="12.2051788"><ele>469.5</ele><time>2026-04-12T09:54:00.622Z</time></trkpt><trkpt lat="43.1901862" lon="12.2052613"><ele>468.25</ele><time>2026-04-12T09:54:01.623Z</time></trkpt><trkpt lat="43.1900821" lon="12.2053446"><ele>467.0</ele><time>2026-04-12T09:54:02.63Z</time></trkpt><trkpt lat="43.1899833" lon="12.2054293"><ele>467.0</ele><time>2026-04-12T09:54:03.629Z</time></trkpt><trkpt lat="43.1898925" lon="12.2055092"><ele>467.00000000000006</ele><time>2026-04-12T09:54:04.626Z</time></trkpt><trkpt lat="43.1898021" lon="12.2055898"><ele>467.00000000000006</ele><time>2026-04-12T09:54:05.627Z</time></trkpt><trkpt lat="43.1897143" lon="12.2056585"><ele>467.0</ele><time>2026-04-12T09:54:06.635Z</time></trkpt><trkpt lat="43.1896329" lon="12.2057329"><ele>467.0</ele><time>2026-04-12T09:54:07.627Z</time></trkpt><trkpt lat="43.1895537" lon="12.2057998"><ele>465.49999999999994</ele><time>2026-04-12T09:54:08.639Z</time></trkpt><trkpt lat="43.1894754" lon="12.2058624"><ele>464.0</ele><time>2026-04-12T09:54:09.626Z</time></trkpt><trkpt lat="43.1894006" lon="12.2059184"><ele>462.5</ele><time>2026-04-12T09:54:10.623Z</time></trkpt><trkpt lat="43.1893251" lon="12.205978"><ele>461.0</ele><time>2026-04-12T09:54:11.624Z</time></trkpt><trkpt lat="43.1892601" lon="12.2060305"><ele>459.49999999999994</ele><time>2026-04-12T09:54:12.624Z</time></trkpt><trkpt lat="43.1891957" lon="12.2061414"><ele>458.0</ele><time>2026-04-12T09:54:14.631Z</time></trkpt><trkpt lat="43.1892502" lon="12.2063109"><ele>458.0</ele><time>2026-04-12T09:54:16.623Z</time></trkpt><trkpt lat="43.1892802" lon="12.2064322"><ele>457.99999999999994</ele><time>2026-04-12T09:54:17.626Z</time></trkpt><trkpt lat="43.189306" lon="12.2065746"><ele>457.99999999999994</ele><time>2026-04-12T09:54:18.624Z</time></trkpt><trkpt lat="43.1893301" lon="12.2067321"><ele>458.0</ele><time>2026-04-12T09:54:19.618Z</time></trkpt><trkpt lat="43.1893509" lon="12.2068997"><ele>458.0</ele><time>2026-04-12T09:54:20.621Z</time></trkpt><trkpt lat="43.1893726" lon="12.2070585"><ele>458.0</ele><time>2026-04-12T09:54:21.624Z</time></trkpt><trkpt lat="43.1894" lon="12.2072103"><ele>458.0</ele><time>2026-04-12T09:54:22.618Z</time></trkpt><trkpt lat="43.189422" lon="12.2073708"><ele>458.0</ele><time>2026-04-12T09:54:23.622Z</time></trkpt><trkpt lat="43.1894413" lon="12.2075364"><ele>458.0</ele><time>2026-04-12T09:54:24.625Z</time></trkpt><trkpt lat="43.1894516" lon="12.2076904"><ele>457.4</ele><time>2026-04-12T09:54:25.621Z</time></trkpt><trkpt lat="43.1894641" lon="12.2078278"><ele>456.79999999999995</ele><time>2026-04-12T09:54:26.622Z</time></trkpt><trkpt lat="43.189481" lon="12.2079644"><ele>456.2</ele><time>2026-04-12T09:54:27.625Z</time></trkpt><trkpt lat="43.189486" lon="12.2081054"><ele>455.6</ele><time>2026-04-12T09:54:28.631Z</time></trkpt><trkpt lat="43.1894951" lon="12.2082413"><ele>455.0</ele><time>2026-04-12T09:54:29.631Z</time></trkpt><trkpt lat="43.1895016" lon="12.2083855"><ele>455.0</ele><time>2026-04-12T09:54:30.628Z</time></trkpt><trkpt lat="43.1895088" lon="12.2085358"><ele>455.0</ele><time>2026-04-12T09:54:31.632Z</time></trkpt><trkpt lat="43.1895119" lon="12.208691"><ele>455.0</ele><time>2026-04-12T09:54:32.629Z</time></trkpt><trkpt lat="43.1895143" lon="12.2088585"><ele>455.0</ele><time>2026-04-12T09:54:33.624Z</time></trkpt><trkpt lat="43.1895208" lon="12.2090145"><ele>455.3333333333333</ele><time>2026-04-12T09:54:34.627Z</time></trkpt><trkpt lat="43.189529" lon="12.2091587"><ele>455.66666666666663</ele><time>2026-04-12T09:54:35.627Z</time></trkpt><trkpt lat="43.1895349" lon="12.2092869"><ele>456.0</ele><time>2026-04-12T09:54:36.63Z</time></trkpt><trkpt lat="43.1895542" lon="12.2093987"><ele>456.33333333333337</ele><time>2026-04-12T09:54:37.627Z</time></trkpt><trkpt lat="43.1896022" lon="12.2094784"><ele>456.6666666666667</ele><time>2026-04-12T09:54:38.624Z</time></trkpt><trkpt lat="43.189657" lon="12.2095442"><ele>457.0</ele><time>2026-04-12T09:54:39.636Z</time></trkpt><trkpt lat="43.1897016" lon="12.2096203"><ele>457.0</ele><time>2026-04-12T09:54:40.624Z</time></trkpt><trkpt lat="43.1897347" lon="12.2097318"><ele>457.00000000000006</ele><time>2026-04-12T09:54:41.629Z</time></trkpt><trkpt lat="43.1897546" lon="12.2098786"><ele>457.00000000000006</ele><time>2026-04-12T09:54:42.626Z</time></trkpt><trkpt lat="43.1897826" lon="12.2100298"><ele>457.0</ele><time>2026-04-12T09:54:43.624Z</time></trkpt><trkpt lat="43.1898146" lon="12.2101676"><ele>457.0</ele><time>2026-04-12T09:54:44.623Z</time></trkpt><trkpt lat="43.1898511" lon="12.2102986"><ele>457.8</ele><time>2026-04-12T09:54:45.626Z</time></trkpt><trkpt lat="43.1898716" lon="12.2104068"><ele>458.6</ele><time>2026-04-12T09:54:46.622Z</time></trkpt><trkpt lat="43.1898827" lon="12.2105079"><ele>459.40000000000003</ele><time>2026-04-12T09:54:47.626Z</time></trkpt><trkpt lat="43.1897902" lon="12.2105638"><ele>460.20000000000005</ele><time>2026-04-12T09:54:49.631Z</time></trkpt><trkpt lat="43.1897081" lon="12.2104992"><ele>461.0</ele><time>2026-04-12T09:54:50.63Z</time></trkpt><trkpt lat="43.1896016" lon="12.2104326"><ele>461.0</ele><time>2026-04-12T09:54:51.62Z</time></trkpt><trkpt lat="43.1894811" lon="12.2103689"><ele>461.0</ele><time>2026-04-12T09:54:52.622Z</time></trkpt><trkpt lat="43.1893645" lon="12.2103176"><ele>461.0</ele><time>2026-04-12T09:54:53.623Z</time></trkpt><trkpt lat="43.1892616" lon="12.210264"><ele>461.0</ele><time>2026-04-12T09:54:54.62Z</time></trkpt><trkpt lat="43.1891667" lon="12.2102251"><ele>461.0</ele><time>2026-04-12T09:54:55.625Z</time></trkpt><trkpt lat="43.1890876" lon="12.2102124"><ele>461.0</ele><time>2026-04-12T09:54:56.622Z</time></trkpt><trkpt lat="43.18901" lon="12.2102536"><ele>461.0</ele><time>2026-04-12T09:54:57.627Z</time></trkpt><trkpt lat="43.1889331" lon="12.2103288"><ele>461.0</ele><time>2026-04-12T09:54:58.63Z</time></trkpt><trkpt lat="43.1888311" lon="12.2103982"><ele>461.0</ele><time>2026-04-12T09:54:59.632Z</time></trkpt><trkpt lat="43.188719" lon="12.210436"><ele>460.20000000000005</ele><time>2026-04-12T09:55:00.637Z</time></trkpt><trkpt lat="43.1886082" lon="12.2104549"><ele>459.40000000000003</ele><time>2026-04-12T09:55:01.636Z</time></trkpt><trkpt lat="43.1885026" lon="12.2104647"><ele>458.6</ele><time>2026-04-12T09:55:02.636Z</time></trkpt><trkpt lat="43.1884013" lon="12.2104552"><ele>457.8</ele><time>2026-04-12T09:55:03.637Z</time></trkpt><trkpt lat="43.1883" lon="12.2104191"><ele>457.0</ele><time>2026-04-12T09:55:04.633Z</time></trkpt><trkpt lat="43.1882024" lon="12.2103949"><ele>455.6666666666667</ele><time>2026-04-12T09:55:05.631Z</time></trkpt><trkpt lat="43.1881136" lon="12.2103724"><ele>454.33333333333337</ele><time>2026-04-12T09:55:06.64Z</time></trkpt><trkpt lat="43.1880325" lon="12.2103424"><ele>453.0</ele><time>2026-04-12T09:55:07.636Z</time></trkpt><trkpt lat="43.1879631" lon="12.2102877"><ele>451.66666666666663</ele><time>2026-04-12T09:55:08.629Z</time></trkpt><trkpt lat="43.1879053" lon="12.2102119"><ele>450.3333333333333</ele><time>2026-04-12T09:55:09.627Z</time></trkpt><trkpt lat="43.1878454" lon="12.2101116"><ele>449.0</ele><time>2026-04-12T09:55:10.644Z</time></trkpt><trkpt lat="43.1877819" lon="12.2100225"><ele>449.0</ele><time>2026-04-12T09:55:11.626Z</time></trkpt><trkpt lat="43.1877216" lon="12.2099606"><ele>449.0</ele><time>2026-04-12T09:55:12.631Z</time></trkpt><trkpt lat="43.1876541" lon="12.2099128"><ele>449.0</ele><time>2026-04-12T09:55:13.631Z</time></trkpt><trkpt lat="43.1875463" lon="12.2098948"><ele>449.0</ele><time>2026-04-12T09:55:15.64Z</time></trkpt><trkpt lat="43.1875039" lon="12.2100729"><ele>449.0</ele><time>2026-04-12T09:55:17.642Z</time></trkpt><trkpt lat="43.1875011" lon="12.2102267"><ele>449.0</ele><time>2026-04-12T09:55:18.638Z</time></trkpt><trkpt lat="43.1875148" lon="12.210395"><ele>449.0</ele><time>2026-04-12T09:55:19.637Z</time></trkpt><trkpt lat="43.1875341" lon="12.210563"><ele>449.0</ele><time>2026-04-12T09:55:20.63Z</time></trkpt><trkpt lat="43.1875556" lon="12.2107009"><ele>449.0</ele><time>2026-04-12T09:55:21.638Z</time></trkpt><trkpt lat="43.1875928" lon="12.2108011"><ele>449.0</ele><time>2026-04-12T09:55:22.633Z</time></trkpt><trkpt lat="43.187615" lon="12.2109047"><ele>448.6</ele><time>2026-04-12T09:55:23.633Z</time></trkpt><trkpt lat="43.1876237" lon="12.2110202"><ele>448.2</ele><time>2026-04-12T09:55:24.638Z</time></trkpt><trkpt lat="43.1876198" lon="12.2111205"><ele>447.80000000000007</ele><time>2026-04-12T09:55:25.64Z</time></trkpt><trkpt lat="43.1875605" lon="12.2112567"><ele>447.40000000000003</ele><time>2026-04-12T09:55:27.633Z</time></trkpt><trkpt lat="43.187424" lon="12.2112935"><ele>447.0</ele><time>2026-04-12T09:55:29.636Z</time></trkpt><trkpt lat="43.1873051" lon="12.2112639"><ele>444.40000000000003</ele><time>2026-04-12T09:55:30.633Z</time></trkpt><trkpt lat="43.1871883" lon="12.2112413"><ele>441.80000000000007</ele><time>2026-04-12T09:55:31.643Z</time></trkpt><trkpt lat="43.1870772" lon="12.2112396"><ele>439.2</ele><time>2026-04-12T09:55:32.633Z</time></trkpt><trkpt lat="43.1869722" lon="12.2112661"><ele>436.6</ele><time>2026-04-12T09:55:33.632Z</time></trkpt><trkpt lat="43.1868832" lon="12.2113065"><ele>434.0</ele><time>2026-04-12T09:55:34.627Z</time></trkpt><trkpt lat="43.1868071" lon="12.2113301"><ele>434.0</ele><time>2026-04-12T09:55:35.633Z</time></trkpt><trkpt lat="43.1867403" lon="12.2113406"><ele>434.0</ele><time>2026-04-12T09:55:36.647Z</time></trkpt><trkpt lat="43.1866698" lon="12.2114058"><ele>434.0</ele><time>2026-04-12T09:55:38.636Z</time></trkpt><trkpt lat="43.1866842" lon="12.2116189"><ele>434.0</ele><time>2026-04-12T09:55:40.632Z</time></trkpt><trkpt lat="43.1867113" lon="12.2117658"><ele>434.0</ele><time>2026-04-12T09:55:41.643Z</time></trkpt><trkpt lat="43.1867168" lon="12.2118936"><ele>433.66666666666663</ele><time>2026-04-12T09:55:42.638Z</time></trkpt><trkpt lat="43.1867019" lon="12.2119884"><ele>433.3333333333333</ele><time>2026-04-12T09:55:43.631Z</time></trkpt><trkpt lat="43.1866745" lon="12.2120695"><ele>433.0</ele><time>2026-04-12T09:55:44.631Z</time></trkpt><trkpt lat="43.1865937" lon="12.2121478"><ele>432.66666666666663</ele><time>2026-04-12T09:55:46.63Z</time></trkpt><trkpt lat="43.1865093" lon="12.2121274"><ele>432.3333333333333</ele><time>2026-04-12T09:55:47.636Z</time></trkpt><trkpt lat="43.1864178" lon="12.2120489"><ele>432.0</ele><time>2026-04-12T09:55:48.637Z</time></trkpt><trkpt lat="43.1863095" lon="12.2119335"><ele>429.20000000000005</ele><time>2026-04-12T09:55:49.633Z</time></trkpt><trkpt lat="43.1862107" lon="12.2118193"><ele>426.40000000000003</ele><time>2026-04-12T09:55:50.636Z</time></trkpt><trkpt lat="43.1861203" lon="12.2117207"><ele>423.6</ele><time>2026-04-12T09:55:51.631Z</time></trkpt><trkpt lat="43.1860354" lon="12.2116478"><ele>420.79999999999995</ele><time>2026-04-12T09:55:52.634Z</time></trkpt><trkpt lat="43.1859623" lon="12.2116001"><ele>418.0</ele><time>2026-04-12T09:55:53.637Z</time></trkpt><trkpt lat="43.1858946" lon="12.2115648"><ele>418.0</ele><time>2026-04-12T09:55:54.637Z</time></trkpt><trkpt lat="43.1858295" lon="12.2115682"><ele>418.0</ele><time>2026-04-12T09:55:55.628Z</time></trkpt><trkpt lat="43.18576" lon="12.2116139"><ele>418.0</ele><time>2026-04-12T09:55:56.627Z</time></trkpt><trkpt lat="43.1856787" lon="12.2116806"><ele>418.0</ele><time>2026-04-12T09:55:57.629Z</time></trkpt><trkpt lat="43.1855803" lon="12.2117322"><ele>418.0</ele><time>2026-04-12T09:55:58.634Z</time></trkpt><trkpt lat="43.1854749" lon="12.2117759"><ele>415.75</ele><time>2026-04-12T09:55:59.635Z</time></trkpt><trkpt lat="43.1853575" lon="12.2118171"><ele>413.5</ele><time>2026-04-12T09:56:00.634Z</time></trkpt><trkpt lat="43.1852343" lon="12.2118421"><ele>411.25</ele><time>2026-04-12T09:56:01.645Z</time></trkpt><trkpt lat="43.1851027" lon="12.2118681"><ele>409.0</ele><time>2026-04-12T09:56:02.632Z</time></trkpt><trkpt lat="43.1849777" lon="12.2119176"><ele>409.0</ele><time>2026-04-12T09:56:03.629Z</time></trkpt><trkpt lat="43.1848664" lon="12.211978"><ele>409.0</ele><time>2026-04-12T09:56:04.631Z</time></trkpt><trkpt lat="43.1847675" lon="12.2120389"><ele>409.0</ele><time>2026-04-12T09:56:05.631Z</time></trkpt><trkpt lat="43.1846778" lon="12.2120911"><ele>409.0</ele><time>2026-04-12T09:56:06.642Z</time></trkpt><trkpt lat="43.1846017" lon="12.21215"><ele>409.0</ele><time>2026-04-12T09:56:07.628Z</time></trkpt><trkpt lat="43.1845436" lon="12.2122197"><ele>407.6666666666667</ele><time>2026-04-12T09:56:08.635Z</time></trkpt><trkpt lat="43.1845148" lon="12.2123137"><ele>406.33333333333337</ele><time>2026-04-12T09:56:09.631Z</time></trkpt><trkpt lat="43.1845174" lon="12.2124195"><ele>405.0</ele><time>2026-04-12T09:56:10.626Z</time></trkpt><trkpt lat="43.1845289" lon="12.2125307"><ele>403.66666666666663</ele><time>2026-04-12T09:56:11.627Z</time></trkpt><trkpt lat="43.184548" lon="12.2126406"><ele>402.3333333333333</ele><time>2026-04-12T09:56:12.643Z</time></trkpt><trkpt lat="43.184576" lon="12.2127534"><ele>401.0</ele><time>2026-04-12T09:56:13.636Z</time></trkpt><trkpt lat="43.1846027" lon="12.2128593"><ele>400.99999999999994</ele><time>2026-04-12T09:56:14.635Z</time></trkpt><trkpt lat="43.1846129" lon="12.2129644"><ele>401.0</ele><time>2026-04-12T09:56:15.632Z</time></trkpt><trkpt lat="43.1845954" lon="12.2130544"><ele>401.0</ele><time>2026-04-12T09:56:16.636Z</time></trkpt><trkpt lat="43.1845446" lon="12.2131179"><ele>401.0</ele><time>2026-04-12T09:56:17.638Z</time></trkpt><trkpt lat="43.1844659" lon="12.2131703"><ele>400.99999999999994</ele><time>2026-04-12T09:56:18.633Z</time></trkpt><trkpt lat="43.1843564" lon="12.2132264"><ele>401.0</ele><time>2026-04-12T09:56:19.639Z</time></trkpt><trkpt lat="43.1842454" lon="12.2132845"><ele>400.20000000000005</ele><time>2026-04-12T09:56:20.632Z</time></trkpt><trkpt lat="43.1841384" lon="12.2133422"><ele>399.40000000000003</ele><time>2026-04-12T09:56:21.632Z</time></trkpt><trkpt lat="43.1840482" lon="12.2134036"><ele>398.6</ele><time>2026-04-12T09:56:22.63Z</time></trkpt><trkpt lat="43.1839719" lon="12.2134621"><ele>397.8</ele><time>2026-04-12T09:56:23.631Z</time></trkpt><trkpt lat="43.1839042" lon="12.2135284"><ele>397.0</ele><time>2026-04-12T09:56:24.631Z</time></trkpt><trkpt lat="43.1838353" lon="12.2136034"><ele>396.20000000000005</ele><time>2026-04-12T09:56:25.636Z</time></trkpt><trkpt lat="43.1837596" lon="12.2136783"><ele>395.4</ele><time>2026-04-12T09:56:26.627Z</time></trkpt><trkpt lat="43.1836663" lon="12.2137525"><ele>394.6</ele><time>2026-04-12T09:56:27.633Z</time></trkpt><trkpt lat="43.1835643" lon="12.2138195"><ele>393.79999999999995</ele><time>2026-04-12T09:56:28.636Z</time></trkpt><trkpt lat="43.1834661" lon="12.213884"><ele>393.0</ele><time>2026-04-12T09:56:29.635Z</time></trkpt><trkpt lat="43.1833727" lon="12.2139348"><ele>393.0</ele><time>2026-04-12T09:56:30.63Z</time></trkpt><trkpt lat="43.1832816" lon="12.2139699"><ele>393.0</ele><time>2026-04-12T09:56:31.643Z</time></trkpt><trkpt lat="43.1831933" lon="12.2139663"><ele>393.0</ele><time>2026-04-12T09:56:32.637Z</time></trkpt><trkpt lat="43.1831058" lon="12.2139257"><ele>393.0</ele><time>2026-04-12T09:56:33.635Z</time></trkpt><trkpt lat="43.1830243" lon="12.213849"><ele>393.0</ele><time>2026-04-12T09:56:34.629Z</time></trkpt><trkpt lat="43.1829488" lon="12.2137488"><ele>390.5</ele><time>2026-04-12T09:56:35.637Z</time></trkpt><trkpt lat="43.1828729" lon="12.2136217"><ele>388.0</ele><time>2026-04-12T09:56:36.635Z</time></trkpt><trkpt lat="43.1828019" lon="12.2134664"><ele>385.5</ele><time>2026-04-12T09:56:37.631Z</time></trkpt><trkpt lat="43.182736" lon="12.2133022"><ele>383.0</ele><time>2026-04-12T09:56:38.638Z</time></trkpt><trkpt lat="43.1826835" lon="12.2131262"><ele>383.0</ele><time>2026-04-12T09:56:39.639Z</time></trkpt><trkpt lat="43.1826447" lon="12.21293"><ele>383.0</ele><time>2026-04-12T09:56:40.64Z</time></trkpt><trkpt lat="43.1826145" lon="12.2127051"><ele>383.0</ele><time>2026-04-12T09:56:41.636Z</time></trkpt><trkpt lat="43.1826022" lon="12.2124728"><ele>382.83333333333337</ele><time>2026-04-12T09:56:42.635Z</time></trkpt><trkpt lat="43.1825989" lon="12.212293"><ele>382.6666666666667</ele><time>2026-04-12T09:56:43.647Z</time></trkpt><trkpt lat="43.1825972" lon="12.2121764"><ele>382.5</ele><time>2026-04-12T09:56:44.628Z</time></trkpt><trkpt lat="43.1825863" lon="12.212082"><ele>382.3333333333333</ele><time>2026-04-12T09:56:45.632Z</time></trkpt><trkpt lat="43.1825088" lon="12.2120202"><ele>382.16666666666663</ele><time>2026-04-12T09:56:47.633Z</time></trkpt><trkpt lat="43.1824503" lon="12.2120621"><ele>382.0</ele><time>2026-04-12T09:56:48.636Z</time></trkpt><trkpt lat="43.1824039" lon="12.2121205"><ele>382.0</ele><time>2026-04-12T09:56:49.634Z</time></trkpt><trkpt lat="43.182359" lon="12.2121965"><ele>382.0</ele><time>2026-04-12T09:56:50.632Z</time></trkpt><trkpt lat="43.1823142" lon="12.2122955"><ele>382.0</ele><time>2026-04-12T09:56:51.63Z</time></trkpt><trkpt lat="43.1822652" lon="12.2124137"><ele>382.0</ele><time>2026-04-12T09:56:52.627Z</time></trkpt><trkpt lat="43.1822169" lon="12.2125266"><ele>382.0</ele><time>2026-04-12T09:56:53.633Z</time></trkpt><trkpt lat="43.1821613" lon="12.2126216"><ele>382.0</ele><time>2026-04-12T09:56:54.624Z</time></trkpt><trkpt lat="43.1820944" lon="12.2127008"><ele>380.8</ele><time>2026-04-12T09:56:55.626Z</time></trkpt><trkpt lat="43.1820191" lon="12.2127674"><ele>379.6</ele><time>2026-04-12T09:56:56.626Z</time></trkpt><trkpt lat="43.1819155" lon="12.212795"><ele>378.40000000000003</ele><time>2026-04-12T09:56:57.634Z</time></trkpt><trkpt lat="43.1818019" lon="12.2128114"><ele>377.20000000000005</ele><time>2026-04-12T09:56:58.633Z</time></trkpt><trkpt lat="43.1816815" lon="12.2128204"><ele>376.0</ele><time>2026-04-12T09:56:59.634Z</time></trkpt><trkpt lat="43.1815297" lon="12.2128154"><ele>372.75</ele><time>2026-04-12T09:57:00.632Z</time></trkpt><trkpt lat="43.1813858" lon="12.212809"><ele>369.5</ele><time>2026-04-12T09:57:01.63Z</time></trkpt><trkpt lat="43.1812502" lon="12.2127968"><ele>366.25</ele><time>2026-04-12T09:57:02.63Z</time></trkpt><trkpt lat="43.1811107" lon="12.2127914"><ele>363.0</ele><time>2026-04-12T09:57:03.632Z</time></trkpt><trkpt lat="43.1809737" lon="12.2127902"><ele>363.0</ele><time>2026-04-12T09:57:04.628Z</time></trkpt><trkpt lat="43.1808364" lon="12.212799"><ele>363.0</ele><time>2026-04-12T09:57:05.629Z</time></trkpt><trkpt lat="43.1807022" lon="12.2128085"><ele>363.0</ele><time>2026-04-12T09:57:06.64Z</time></trkpt><trkpt lat="43.1805642" lon="12.212817"><ele>363.0</ele><time>2026-04-12T09:57:07.632Z</time></trkpt><trkpt lat="43.1804285" lon="12.2128181"><ele>360.25</ele><time>2026-04-12T09:57:08.63Z</time></trkpt><trkpt lat="43.1803024" lon="12.2128219"><ele>357.5</ele><time>2026-04-12T09:57:09.634Z</time></trkpt><trkpt lat="43.1801809" lon="12.2128232"><ele>354.75</ele><time>2026-04-12T09:57:10.624Z</time></trkpt><trkpt lat="43.1800643" lon="12.2128161"><ele>352.0</ele><time>2026-04-12T09:57:11.629Z</time></trkpt><trkpt lat="43.1799616" lon="12.212809"><ele>352.0</ele><time>2026-04-12T09:57:12.626Z</time></trkpt><trkpt lat="43.1798779" lon="12.212811"><ele>352.0</ele><time>2026-04-12T09:57:13.63Z</time></trkpt><trkpt lat="43.1797775" lon="12.2128974"><ele>352.0</ele><time>2026-04-12T09:57:15.634Z</time></trkpt><trkpt lat="43.17973" lon="12.212984"><ele>352.0</ele><time>2026-04-12T09:57:16.635Z</time></trkpt><trkpt lat="43.1796502" lon="12.2130716"><ele>352.0</ele><time>2026-04-12T09:57:17.628Z</time></trkpt><trkpt lat="43.1795632" lon="12.2131369"><ele>349.8</ele><time>2026-04-12T09:57:18.632Z</time></trkpt><trkpt lat="43.179476" lon="12.2131843"><ele>347.6</ele><time>2026-04-12T09:57:19.633Z</time></trkpt><trkpt lat="43.1793919" lon="12.2132009"><ele>345.40000000000003</ele><time>2026-04-12T09:57:20.629Z</time></trkpt><trkpt lat="43.1793044" lon="12.2131811"><ele>343.20000000000005</ele><time>2026-04-12T09:57:21.633Z</time></trkpt><trkpt lat="43.1792062" lon="12.2131275"><ele>341.0</ele><time>2026-04-12T09:57:22.637Z</time></trkpt><trkpt lat="43.1791081" lon="12.2130487"><ele>338.5</ele><time>2026-04-12T09:57:23.635Z</time></trkpt><trkpt lat="43.179014" lon="12.2129689"><ele>336.0</ele><time>2026-04-12T09:57:24.636Z</time></trkpt><trkpt lat="43.1789138" lon="12.2128972"><ele>333.5</ele><time>2026-04-12T09:57:25.628Z</time></trkpt><trkpt lat="43.1787893" lon="12.2128394"><ele>331.0</ele><time>2026-04-12T09:57:26.633Z</time></trkpt><trkpt lat="43.1786671" lon="12.2127716"><ele>331.0</ele><time>2026-04-12T09:57:27.63Z</time></trkpt><trkpt lat="43.1785469" lon="12.2127023"><ele>331.0</ele><time>2026-04-12T09:57:28.633Z</time></trkpt><trkpt lat="43.1784268" lon="12.2126452"><ele>331.0</ele><time>2026-04-12T09:57:29.634Z</time></trkpt><trkpt lat="43.1783087" lon="12.2125982"><ele>331.0</ele><time>2026-04-12T09:57:30.63Z</time></trkpt><trkpt lat="43.1781904" lon="12.2125627"><ele>329.0</ele><time>2026-04-12T09:57:31.642Z</time></trkpt><trkpt lat="43.1780787" lon="12.2125318"><ele>327.0</ele><time>2026-04-12T09:57:32.638Z</time></trkpt><trkpt lat="43.1779698" lon="12.2125005"><ele>325.0</ele><time>2026-04-12T09:57:33.639Z</time></trkpt><trkpt lat="43.1778563" lon="12.2124766"><ele>323.0</ele><time>2026-04-12T09:57:34.641Z</time></trkpt><trkpt lat="43.1777403" lon="12.2124631"><ele>323.0</ele><time>2026-04-12T09:57:35.631Z</time></trkpt><trkpt lat="43.1776209" lon="12.2124683"><ele>323.0</ele><time>2026-04-12T09:57:36.64Z</time></trkpt><trkpt lat="43.1775059" lon="12.2124956"><ele>323.0</ele><time>2026-04-12T09:57:37.637Z</time></trkpt><trkpt lat="43.1774033" lon="12.212532"><ele>323.0</ele><time>2026-04-12T09:57:38.633Z</time></trkpt><trkpt lat="43.1773146" lon="12.2125889"><ele>323.0</ele><time>2026-04-12T09:57:39.634Z</time></trkpt><trkpt lat="43.1772462" lon="12.2126774"><ele>322.0</ele><time>2026-04-12T09:57:40.635Z</time></trkpt><trkpt lat="43.1771857" lon="12.2128025"><ele>321.0</ele><time>2026-04-12T09:57:41.633Z</time></trkpt><trkpt lat="43.1771093" lon="12.2129649"><ele>320.0</ele><time>2026-04-12T09:57:42.632Z</time></trkpt><trkpt lat="43.1770088" lon="12.2131188"><ele>319.0</ele><time>2026-04-12T09:57:43.632Z</time></trkpt><trkpt lat="43.1769058" lon="12.2132298"><ele>319.0</ele><time>2026-04-12T09:57:44.627Z</time></trkpt><trkpt lat="43.1768275" lon="12.2133326"><ele>319.0</ele><time>2026-04-12T09:57:45.641Z</time></trkpt><trkpt lat="43.1767574" lon="12.2134612"><ele>319.0</ele><time>2026-04-12T09:57:46.625Z</time></trkpt><trkpt lat="43.1766948" lon="12.2135842"><ele>319.0</ele><time>2026-04-12T09:57:47.631Z</time></trkpt><trkpt lat="43.1766159" lon="12.2137021"><ele>319.0</ele><time>2026-04-12T09:57:48.636Z</time></trkpt><trkpt lat="43.1765353" lon="12.2138182"><ele>319.0</ele><time>2026-04-12T09:57:49.635Z</time></trkpt><trkpt lat="43.1764604" lon="12.2139318"><ele>319.0</ele><time>2026-04-12T09:57:50.632Z</time></trkpt><trkpt lat="43.1764055" lon="12.2140486"><ele>319.0</ele><time>2026-04-12T09:57:51.63Z</time></trkpt><trkpt lat="43.176352" lon="12.2141525"><ele>319.0</ele><time>2026-04-12T09:57:52.632Z</time></trkpt><trkpt lat="43.1762941" lon="12.2142362"><ele>316.4</ele><time>2026-04-12T09:57:53.63Z</time></trkpt><trkpt lat="43.1762155" lon="12.2142877"><ele>313.79999999999995</ele><time>2026-04-12T09:57:54.629Z</time></trkpt><trkpt lat="43.1761178" lon="12.2143268"><ele>311.20000000000005</ele><time>2026-04-12T09:57:55.628Z</time></trkpt><trkpt lat="43.1760086" lon="12.2143599"><ele>308.6</ele><time>2026-04-12T09:57:56.629Z</time></trkpt><trkpt lat="43.175886" lon="12.2143995"><ele>306.0</ele><time>2026-04-12T09:57:57.636Z</time></trkpt><trkpt lat="43.1757626" lon="12.2144415"><ele>303.25</ele><time>2026-04-12T09:57:58.637Z</time></trkpt><trkpt lat="43.1756498" lon="12.2144879"><ele>300.5</ele><time>2026-04-12T09:57:59.631Z</time></trkpt><trkpt lat="43.1755427" lon="12.2145379"><ele>297.75</ele><time>2026-04-12T09:58:00.636Z</time></trkpt><trkpt lat="43.1754457" lon="12.2146018"><ele>295.0</ele><time>2026-04-12T09:58:01.636Z</time></trkpt><trkpt lat="43.1753519" lon="12.2146833"><ele>295.0</ele><time>2026-04-12T09:58:02.632Z</time></trkpt><trkpt lat="43.1752578" lon="12.2147714"><ele>295.0</ele><time>2026-04-12T09:58:03.634Z</time></trkpt><trkpt lat="43.1751593" lon="12.2148527"><ele>295.0</ele><time>2026-04-12T09:58:04.64Z</time></trkpt><trkpt lat="43.1750581" lon="12.2149257"><ele>295.0</ele><time>2026-04-12T09:58:05.63Z</time></trkpt><trkpt lat="43.174957" lon="12.2149717"><ele>293.8</ele><time>2026-04-12T09:58:06.64Z</time></trkpt><trkpt lat="43.1748541" lon="12.2150071"><ele>292.6</ele><time>2026-04-12T09:58:07.635Z</time></trkpt><trkpt lat="43.1747463" lon="12.2150264"><ele>291.4</ele><time>2026-04-12T09:58:08.629Z</time></trkpt><trkpt lat="43.174636" lon="12.2150142"><ele>290.2</ele><time>2026-04-12T09:58:09.634Z</time></trkpt><trkpt lat="43.1745317" lon="12.2149826"><ele>289.0</ele><time>2026-04-12T09:58:10.633Z</time></trkpt><trkpt lat="43.1744246" lon="12.2149652"><ele>289.0</ele><time>2026-04-12T09:58:11.632Z</time></trkpt><trkpt lat="43.1743143" lon="12.2149827"><ele>289.0</ele><time>2026-04-12T09:58:12.633Z</time></trkpt><trkpt lat="43.1742036" lon="12.2150313"><ele>289.0</ele><time>2026-04-12T09:58:13.629Z</time></trkpt><trkpt lat="43.1740993" lon="12.2150667"><ele>289.0</ele><time>2026-04-12T09:58:14.629Z</time></trkpt><trkpt lat="43.1740007" lon="12.2150759"><ele>289.0</ele><time>2026-04-12T09:58:15.636Z</time></trkpt><trkpt lat="43.1739162" lon="12.2150622"><ele>288.16666666666663</ele><time>2026-04-12T09:58:16.644Z</time></trkpt><trkpt lat="43.1738402" lon="12.2150449"><ele>287.3333333333333</ele><time>2026-04-12T09:58:17.63Z</time></trkpt><trkpt lat="43.1737452" lon="12.2150183"><ele>286.5</ele><time>2026-04-12T09:58:19.635Z</time></trkpt><trkpt lat="43.1737299" lon="12.2151156"><ele>285.6666666666667</ele><time>2026-04-12T09:58:21.651Z</time></trkpt><trkpt lat="43.173714" lon="12.2152148"><ele>284.83333333333337</ele><time>2026-04-12T09:58:23.656Z</time></trkpt><trkpt lat="43.1736449" lon="12.2151822"><ele>284.0</ele><time>2026-04-12T09:59:57.65Z</time></trkpt><trkpt lat="43.173558" lon="12.2151535"><ele>284.0</ele><time>2026-04-12T09:59:59.652Z</time></trkpt><trkpt lat="43.1734381" lon="12.2151259"><ele>284.0</ele><time>2026-04-12T10:00:01.645Z</time></trkpt><trkpt lat="43.1733678" lon="12.2151024"><ele>284.0</ele><time>2026-04-12T10:00:02.643Z</time></trkpt><trkpt lat="43.1733024" lon="12.2150881"><ele>284.0</ele><time>2026-04-12T10:00:03.637Z</time></trkpt><trkpt lat="43.1732314" lon="12.2150603"><ele>284.0</ele><time>2026-04-12T10:00:04.634Z</time></trkpt><trkpt lat="43.173153" lon="12.2150307"><ele>284.0</ele><time>2026-04-12T10:00:05.638Z</time></trkpt><trkpt lat="43.1730714" lon="12.2150055"><ele>283.2</ele><time>2026-04-12T10:00:06.638Z</time></trkpt><trkpt lat="43.1729887" lon="12.2149863"><ele>282.4</ele><time>2026-04-12T10:00:07.641Z</time></trkpt><trkpt lat="43.1729005" lon="12.2149675"><ele>281.6</ele><time>2026-04-12T10:00:08.645Z</time></trkpt><trkpt lat="43.172808" lon="12.2149445"><ele>280.8</ele><time>2026-04-12T10:00:09.645Z</time></trkpt><trkpt lat="43.1727119" lon="12.2149263"><ele>280.0</ele><time>2026-04-12T10:00:10.638Z</time></trkpt><trkpt lat="43.17262" lon="12.2149116"><ele>280.0</ele><time>2026-04-12T10:00:11.635Z</time></trkpt><trkpt lat="43.1725311" lon="12.2148949"><ele>280.0</ele><time>2026-04-12T10:00:12.638Z</time></trkpt><trkpt lat="43.1724455" lon="12.2148733"><ele>280.0</ele><time>2026-04-12T10:00:13.634Z</time></trkpt><trkpt lat="43.1723567" lon="12.2148574"><ele>280.0</ele><time>2026-04-12T10:00:14.637Z</time></trkpt><trkpt lat="43.1722684" lon="12.2148449"><ele>280.0</ele><time>2026-04-12T10:00:15.639Z</time></trkpt><trkpt lat="43.1721784" lon="12.2148379"><ele>280.0</ele><time>2026-04-12T10:00:16.643Z</time></trkpt><trkpt lat="43.1720846" lon="12.2148365"><ele>279.0</ele><time>2026-04-12T10:00:17.634Z</time></trkpt><trkpt lat="43.1719852" lon="12.2148398"><ele>278.0</ele><time>2026-04-12T10:00:18.638Z</time></trkpt><trkpt lat="43.1717974" lon="12.2148256"><ele>277.0</ele><time>2026-04-12T10:00:20.646Z</time></trkpt><trkpt lat="43.1717008" lon="12.2148115"><ele>276.0</ele><time>2026-04-12T10:00:21.638Z</time></trkpt><trkpt lat="43.1716104" lon="12.2147953"><ele>275.3333333333333</ele><time>2026-04-12T10:00:22.638Z</time></trkpt><trkpt lat="43.1715222" lon="12.2147783"><ele>274.6666666666667</ele><time>2026-04-12T10:00:23.632Z</time></trkpt><trkpt lat="43.1714339" lon="12.2147653"><ele>274.0</ele><time>2026-04-12T10:00:24.638Z</time></trkpt><trkpt lat="43.1713497" lon="12.2147513"><ele>273.33333333333337</ele><time>2026-04-12T10:00:25.635Z</time></trkpt><trkpt lat="43.1712624" lon="12.2147351"><ele>272.6666666666667</ele><time>2026-04-12T10:00:26.639Z</time></trkpt><trkpt lat="43.1711777" lon="12.2147258"><ele>272.0</ele><time>2026-04-12T10:00:27.635Z</time></trkpt><trkpt lat="43.1710893" lon="12.2147296"><ele>272.0</ele><time>2026-04-12T10:00:28.638Z</time></trkpt><trkpt lat="43.1709993" lon="12.2147476"><ele>272.0</ele><time>2026-04-12T10:00:29.633Z</time></trkpt><trkpt lat="43.1709055" lon="12.2147662"><ele>272.0</ele><time>2026-04-12T10:00:30.638Z</time></trkpt><trkpt lat="43.1708077" lon="12.2147842"><ele>272.0</ele><time>2026-04-12T10:00:31.649Z</time></trkpt><trkpt lat="43.1707031" lon="12.2147892"><ele>272.0</ele><time>2026-04-12T10:00:32.632Z</time></trkpt><trkpt lat="43.1705852" lon="12.2148"><ele>271.4</ele><time>2026-04-12T10:00:33.636Z</time></trkpt><trkpt lat="43.1704735" lon="12.2148017"><ele>270.79999999999995</ele><time>2026-04-12T10:00:34.639Z</time></trkpt><trkpt lat="43.1703666" lon="12.2148012"><ele>270.2</ele><time>2026-04-12T10:00:35.635Z</time></trkpt><trkpt lat="43.1702574" lon="12.214806"><ele>269.59999999999997</ele><time>2026-04-12T10:00:36.64Z</time></trkpt><trkpt lat="43.170154" lon="12.2148072"><ele>269.0</ele><time>2026-04-12T10:00:37.633Z</time></trkpt><trkpt lat="43.170058" lon="12.2148048"><ele>269.0</ele><time>2026-04-12T10:00:38.639Z</time></trkpt><trkpt lat="43.1699605" lon="12.2148039"><ele>269.0</ele><time>2026-04-12T10:00:39.636Z</time></trkpt><trkpt lat="43.1698667" lon="12.2147994"><ele>269.0</ele><time>2026-04-12T10:00:40.644Z</time></trkpt><trkpt lat="43.1697698" lon="12.2147936"><ele>269.0</ele><time>2026-04-12T10:00:41.635Z</time></trkpt><trkpt lat="43.1696715" lon="12.2147946"><ele>269.0</ele><time>2026-04-12T10:00:42.64Z</time></trkpt><trkpt lat="43.1695699" lon="12.2147959"><ele>268.4</ele><time>2026-04-12T10:00:43.641Z</time></trkpt><trkpt lat="43.1694735" lon="12.2147957"><ele>267.79999999999995</ele><time>2026-04-12T10:00:44.636Z</time></trkpt><trkpt lat="43.1693817" lon="12.214795"><ele>267.20000000000005</ele><time>2026-04-12T10:00:45.642Z</time></trkpt><trkpt lat="43.1692848" lon="12.2147971"><ele>266.6</ele><time>2026-04-12T10:00:46.638Z</time></trkpt><trkpt lat="43.1691792" lon="12.2148021"><ele>266.0</ele><time>2026-04-12T10:00:47.636Z</time></trkpt><trkpt lat="43.1690654" lon="12.2148068"><ele>265.75</ele><time>2026-04-12T10:00:48.631Z</time></trkpt><trkpt lat="43.1689436" lon="12.2148222"><ele>265.5</ele><time>2026-04-12T10:00:49.629Z</time></trkpt><trkpt lat="43.1688237" lon="12.2148429"><ele>265.25</ele><time>2026-04-12T10:00:50.636Z</time></trkpt><trkpt lat="43.1687107" lon="12.2148637"><ele>265.0</ele><time>2026-04-12T10:00:51.641Z</time></trkpt><trkpt lat="43.1686024" lon="12.214887"><ele>265.0</ele><time>2026-04-12T10:00:52.635Z</time></trkpt><trkpt lat="43.1684921" lon="12.2149124"><ele>265.0</ele><time>2026-04-12T10:00:53.629Z</time></trkpt><trkpt lat="43.1683769" lon="12.2149467"><ele>265.0</ele><time>2026-04-12T10:00:54.635Z</time></trkpt><trkpt lat="43.168259" lon="12.2149858"><ele>265.0</ele><time>2026-04-12T10:00:55.631Z</time></trkpt><trkpt lat="43.1681481" lon="12.2150245"><ele>264.4</ele><time>2026-04-12T10:00:56.633Z</time></trkpt><trkpt lat="43.1680434" lon="12.2150596"><ele>263.8</ele><time>2026-04-12T10:00:57.631Z</time></trkpt><trkpt lat="43.1679441" lon="12.2150879"><ele>263.2</ele><time>2026-04-12T10:00:58.637Z</time></trkpt><trkpt lat="43.1678525" lon="12.2151169"><ele>262.6</ele><time>2026-04-12T10:00:59.633Z</time></trkpt><trkpt lat="43.167771" lon="12.2151402"><ele>262.0</ele><time>2026-04-12T10:01:00.635Z</time></trkpt><trkpt lat="43.1676955" lon="12.2151573"><ele>262.0</ele><time>2026-04-12T10:01:01.644Z</time></trkpt><trkpt lat="43.1676237" lon="12.2151606"><ele>262.0</ele><time>2026-04-12T10:01:02.628Z</time></trkpt><trkpt lat="43.1675446" lon="12.2151496"><ele>262.0</ele><time>2026-04-12T10:01:03.636Z</time></trkpt><trkpt lat="43.1674632" lon="12.2151072"><ele>262.0</ele><time>2026-04-12T10:01:04.633Z</time></trkpt><trkpt lat="43.1673812" lon="12.2150428"><ele>262.0</ele><time>2026-04-12T10:01:05.629Z</time></trkpt><trkpt lat="43.1672921" lon="12.21497"><ele>262.0</ele><time>2026-04-12T10:01:06.639Z</time></trkpt><trkpt lat="43.1671921" lon="12.2148953"><ele>262.0</ele><time>2026-04-12T10:01:07.624Z</time></trkpt><trkpt lat="43.1670788" lon="12.2148388"><ele>262.0</ele><time>2026-04-12T10:01:08.635Z</time></trkpt><trkpt lat="43.1669571" lon="12.2148015"><ele>262.0</ele><time>2026-04-12T10:01:09.632Z</time></trkpt><trkpt lat="43.166658" lon="12.2147944"><ele>262.66666666666663</ele><time>2026-04-12T10:01:11.63Z</time></trkpt><trkpt lat="43.1664753" lon="12.2148062"><ele>263.3333333333333</ele><time>2026-04-12T10:01:12.635Z</time></trkpt><trkpt lat="43.16631" lon="12.2148223"><ele>264.0</ele><time>2026-04-12T10:01:13.633Z</time></trkpt><trkpt lat="43.1661494" lon="12.2148395"><ele>263.0</ele><time>2026-04-12T10:01:14.634Z</time></trkpt><trkpt lat="43.1660073" lon="12.2148484"><ele>262.0</ele><time>2026-04-12T10:01:15.639Z</time></trkpt><trkpt lat="43.1658663" lon="12.2148496"><ele>261.0</ele><time>2026-04-12T10:01:16.639Z</time></trkpt><trkpt lat="43.1657223" lon="12.2148507"><ele>260.0</ele><time>2026-04-12T10:01:17.641Z</time></trkpt><trkpt lat="43.16558" lon="12.2148526"><ele>260.0</ele><time>2026-04-12T10:01:18.64Z</time></trkpt><trkpt lat="43.1654346" lon="12.2148635"><ele>260.0</ele><time>2026-04-12T10:01:19.638Z</time></trkpt><trkpt lat="43.1652917" lon="12.2148759"><ele>260.0</ele><time>2026-04-12T10:01:20.642Z</time></trkpt><trkpt lat="43.1651562" lon="12.2148819"><ele>260.0</ele><time>2026-04-12T10:01:21.637Z</time></trkpt><trkpt lat="43.1650321" lon="12.2148798"><ele>260.0</ele><time>2026-04-12T10:01:22.649Z</time></trkpt><trkpt lat="43.1649033" lon="12.2148768"><ele>260.0</ele><time>2026-04-12T10:01:23.639Z</time></trkpt><trkpt lat="43.1647717" lon="12.214893"><ele>260.0</ele><time>2026-04-12T10:01:24.639Z</time></trkpt><trkpt lat="43.1646364" lon="12.2149263"><ele>260.0</ele><time>2026-04-12T10:01:25.638Z</time></trkpt><trkpt lat="43.1644951" lon="12.2149799"><ele>260.33333333333337</ele><time>2026-04-12T10:01:26.639Z</time></trkpt><trkpt lat="43.1643552" lon="12.2150373"><ele>260.6666666666667</ele><time>2026-04-12T10:01:27.637Z</time></trkpt><trkpt lat="43.1642144" lon="12.2151081"><ele>261.0</ele><time>2026-04-12T10:01:28.643Z</time></trkpt><trkpt lat="43.1640674" lon="12.2151737"><ele>262.0</ele><time>2026-04-12T10:01:29.636Z</time></trkpt><trkpt lat="43.1639214" lon="12.2152315"><ele>263.0</ele><time>2026-04-12T10:01:30.64Z</time></trkpt><trkpt lat="43.1637748" lon="12.215286"><ele>264.0</ele><time>2026-04-12T10:01:31.645Z</time></trkpt><trkpt lat="43.1636127" lon="12.2153471"><ele>264.0</ele><time>2026-04-12T10:01:32.634Z</time></trkpt><trkpt lat="43.1634558" lon="12.2154019"><ele>264.0</ele><time>2026-04-12T10:01:33.638Z</time></trkpt><trkpt lat="43.1633086" lon="12.2154511"><ele>264.0</ele><time>2026-04-12T10:01:34.638Z</time></trkpt><trkpt lat="43.1631653" lon="12.2154952"><ele>264.0</ele><time>2026-04-12T10:01:35.642Z</time></trkpt><trkpt lat="43.1630142" lon="12.2155458"><ele>264.0</ele><time>2026-04-12T10:01:36.643Z</time></trkpt><trkpt lat="43.162867" lon="12.215585"><ele>264.0</ele><time>2026-04-12T10:01:37.642Z</time></trkpt><trkpt lat="43.1627301" lon="12.2156327"><ele>264.0</ele><time>2026-04-12T10:01:38.644Z</time></trkpt><trkpt lat="43.162593" lon="12.2156875"><ele>262.75</ele><time>2026-04-12T10:01:39.639Z</time></trkpt><trkpt lat="43.1624486" lon="12.2157379"><ele>261.5</ele><time>2026-04-12T10:01:40.642Z</time></trkpt><trkpt lat="43.1623114" lon="12.215784"><ele>260.25</ele><time>2026-04-12T10:01:41.642Z</time></trkpt><trkpt lat="43.1621741" lon="12.2158327"><ele>259.0</ele><time>2026-04-12T10:01:42.646Z</time></trkpt><trkpt lat="43.1620405" lon="12.2158862"><ele>259.0</ele><time>2026-04-12T10:01:43.643Z</time></trkpt><trkpt lat="43.1619117" lon="12.215937"><ele>259.0</ele><time>2026-04-12T10:01:44.643Z</time></trkpt><trkpt lat="43.1617734" lon="12.2159844"><ele>259.0</ele><time>2026-04-12T10:01:45.641Z</time></trkpt><trkpt lat="43.1616316" lon="12.2160313"><ele>259.0</ele><time>2026-04-12T10:01:46.642Z</time></trkpt><trkpt lat="43.1614961" lon="12.2160776"><ele>259.0</ele><time>2026-04-12T10:01:47.641Z</time></trkpt><trkpt lat="43.161353" lon="12.216132"><ele>259.0</ele><time>2026-04-12T10:01:48.637Z</time></trkpt><trkpt lat="43.1611996" lon="12.2161761"><ele>259.0</ele><time>2026-04-12T10:01:49.643Z</time></trkpt><trkpt lat="43.1610447" lon="12.216215"><ele>259.0</ele><time>2026-04-12T10:01:50.643Z</time></trkpt><trkpt lat="43.160882" lon="12.2162491"><ele>259.0</ele><time>2026-04-12T10:01:51.643Z</time></trkpt><trkpt lat="43.1607196" lon="12.2162679"><ele>259.0</ele><time>2026-04-12T10:01:52.642Z</time></trkpt><trkpt lat="43.1605559" lon="12.2162811"><ele>259.3333333333333</ele><time>2026-04-12T10:01:53.654Z</time></trkpt><trkpt lat="43.160393" lon="12.2162915"><ele>259.6666666666667</ele><time>2026-04-12T10:01:54.638Z</time></trkpt><trkpt lat="43.1602437" lon="12.2162897"><ele>260.0</ele><time>2026-04-12T10:01:55.642Z</time></trkpt><trkpt lat="43.1600869" lon="12.2162915"><ele>260.0</ele><time>2026-04-12T10:01:56.634Z</time></trkpt><trkpt lat="43.1599314" lon="12.2162835"><ele>260.0</ele><time>2026-04-12T10:01:57.641Z</time></trkpt><trkpt lat="43.159779" lon="12.2162796"><ele>260.0</ele><time>2026-04-12T10:01:58.637Z</time></trkpt><trkpt lat="43.1596288" lon="12.2162744"><ele>259.6666666666667</ele><time>2026-04-12T10:01:59.633Z</time></trkpt><trkpt lat="43.1594835" lon="12.2162526"><ele>259.3333333333333</ele><time>2026-04-12T10:02:00.639Z</time></trkpt><trkpt lat="43.1593337" lon="12.2162268"><ele>259.0</ele><time>2026-04-12T10:02:01.647Z</time></trkpt><trkpt lat="43.1590223" lon="12.2161455"><ele>259.0</ele><time>2026-04-12T10:02:03.641Z</time></trkpt><trkpt lat="43.1588663" lon="12.2161045"><ele>259.0</ele><time>2026-04-12T10:02:04.637Z</time></trkpt><trkpt lat="43.1587302" lon="12.2160662"><ele>259.0</ele><time>2026-04-12T10:02:05.638Z</time></trkpt><trkpt lat="43.1585964" lon="12.2160235"><ele>259.0</ele><time>2026-04-12T10:02:06.645Z</time></trkpt><trkpt lat="43.1584563" lon="12.2159746"><ele>259.0</ele><time>2026-04-12T10:02:07.634Z</time></trkpt><trkpt lat="43.1583179" lon="12.215932"><ele>259.0</ele><time>2026-04-12T10:02:08.644Z</time></trkpt><trkpt lat="43.1581853" lon="12.2159075"><ele>259.0</ele><time>2026-04-12T10:02:09.636Z</time></trkpt><trkpt lat="43.1580704" lon="12.2158912"><ele>259.0</ele><time>2026-04-12T10:02:10.637Z</time></trkpt><trkpt lat="43.157938" lon="12.2158873"><ele>259.0</ele><time>2026-04-12T10:02:11.641Z</time></trkpt><trkpt lat="43.1577974" lon="12.2158706"><ele>259.0</ele><time>2026-04-12T10:02:12.635Z</time></trkpt><trkpt lat="43.1576456" lon="12.2158537"><ele>259.0</ele><time>2026-04-12T10:02:13.639Z</time></trkpt><trkpt lat="43.1574894" lon="12.215838"><ele>257.66666666666663</ele><time>2026-04-12T10:02:14.634Z</time></trkpt><trkpt lat="43.1573264" lon="12.2158092"><ele>256.3333333333333</ele><time>2026-04-12T10:02:15.643Z</time></trkpt><trkpt lat="43.1571487" lon="12.215766"><ele>255.0</ele><time>2026-04-12T10:02:16.642Z</time></trkpt><trkpt lat="43.156961" lon="12.215714"><ele>258.6666666666667</ele><time>2026-04-12T10:02:17.639Z</time></trkpt><trkpt lat="43.156785" lon="12.2156462"><ele>262.33333333333337</ele><time>2026-04-12T10:02:18.639Z</time></trkpt><trkpt lat="43.1566166" lon="12.2155935"><ele>266.0</ele><time>2026-04-12T10:02:19.639Z</time></trkpt><trkpt lat="43.1564441" lon="12.2155491"><ele>266.0</ele><time>2026-04-12T10:02:20.642Z</time></trkpt><trkpt lat="43.1562695" lon="12.2154995"><ele>266.0</ele><time>2026-04-12T10:02:21.634Z</time></trkpt><trkpt lat="43.1560974" lon="12.2154521"><ele>266.0</ele><time>2026-04-12T10:02:22.637Z</time></trkpt><trkpt lat="43.1559223" lon="12.2153943"><ele>266.0</ele><time>2026-04-12T10:02:23.642Z</time></trkpt><trkpt lat="43.1557538" lon="12.2153263"><ele>266.0</ele><time>2026-04-12T10:02:24.649Z</time></trkpt><trkpt lat="43.1555849" lon="12.2152675"><ele>266.0</ele><time>2026-04-12T10:02:25.638Z</time></trkpt><trkpt lat="43.1554264" lon="12.2152145"><ele>263.0</ele><time>2026-04-12T10:02:26.628Z</time></trkpt><trkpt lat="43.1552698" lon="12.2151549"><ele>260.0</ele><time>2026-04-12T10:02:27.628Z</time></trkpt><trkpt lat="43.1551306" lon="12.2150875"><ele>257.0</ele><time>2026-04-12T10:02:28.632Z</time></trkpt><trkpt lat="43.1549951" lon="12.2150034"><ele>254.66666666666669</ele><time>2026-04-12T10:02:29.627Z</time></trkpt><trkpt lat="43.154857" lon="12.214906"><ele>252.33333333333331</ele><time>2026-04-12T10:02:30.629Z</time></trkpt><trkpt lat="43.1547134" lon="12.2147978"><ele>250.0</ele><time>2026-04-12T10:02:31.638Z</time></trkpt><trkpt lat="43.1545825" lon="12.2146867"><ele>255.0</ele><time>2026-04-12T10:02:32.626Z</time></trkpt><trkpt lat="43.1544456" lon="12.2146134"><ele>260.0</ele><time>2026-04-12T10:02:33.623Z</time></trkpt><trkpt lat="43.1543076" lon="12.2145561"><ele>265.0</ele><time>2026-04-12T10:02:34.63Z</time></trkpt><trkpt lat="43.1541508" lon="12.2145133"><ele>263.0</ele><time>2026-04-12T10:02:35.615Z</time></trkpt><trkpt lat="43.153986" lon="12.2144806"><ele>261.0</ele><time>2026-04-12T10:02:36.633Z</time></trkpt><trkpt lat="43.1538102" lon="12.2144521"><ele>259.0</ele><time>2026-04-12T10:02:37.623Z</time></trkpt><trkpt lat="43.1536479" lon="12.2144262"><ele>259.0</ele><time>2026-04-12T10:02:38.623Z</time></trkpt><trkpt lat="43.1534919" lon="12.2143941"><ele>259.0</ele><time>2026-04-12T10:02:39.637Z</time></trkpt><trkpt lat="43.1533316" lon="12.2143655"><ele>259.0</ele><time>2026-04-12T10:02:40.632Z</time></trkpt><trkpt lat="43.1531739" lon="12.2143412"><ele>258.25</ele><time>2026-04-12T10:02:41.634Z</time></trkpt><trkpt lat="43.1530213" lon="12.2143231"><ele>257.5</ele><time>2026-04-12T10:02:42.631Z</time></trkpt><trkpt lat="43.1528688" lon="12.2143069"><ele>256.75</ele><time>2026-04-12T10:02:43.629Z</time></trkpt><trkpt lat="43.1527257" lon="12.214307"><ele>256.0</ele><time>2026-04-12T10:02:44.635Z</time></trkpt><trkpt lat="43.1525844" lon="12.2143034"><ele>256.0</ele><time>2026-04-12T10:02:45.636Z</time></trkpt><trkpt lat="43.1524402" lon="12.2142973"><ele>256.0</ele><time>2026-04-12T10:02:46.633Z</time></trkpt><trkpt lat="43.1522986" lon="12.2142707"><ele>256.0</ele><time>2026-04-12T10:02:47.632Z</time></trkpt><trkpt lat="43.1521708" lon="12.2142203"><ele>256.0</ele><time>2026-04-12T10:02:48.629Z</time></trkpt><trkpt lat="43.152052" lon="12.214152"><ele>255.5</ele><time>2026-04-12T10:02:49.632Z</time></trkpt><trkpt lat="43.1519301" lon="12.2140627"><ele>255.0</ele><time>2026-04-12T10:02:50.63Z</time></trkpt><trkpt lat="43.1518256" lon="12.2139628"><ele>254.5</ele><time>2026-04-12T10:02:51.633Z</time></trkpt><trkpt lat="43.1517247" lon="12.2138519"><ele>254.0</ele><time>2026-04-12T10:02:52.629Z</time></trkpt><trkpt lat="43.1516209" lon="12.2137393"><ele>254.5</ele><time>2026-04-12T10:02:53.623Z</time></trkpt><trkpt lat="43.1515152" lon="12.2136357"><ele>255.0</ele><time>2026-04-12T10:02:54.616Z</time></trkpt><trkpt lat="43.151416" lon="12.2135238"><ele>255.5</ele><time>2026-04-12T10:02:55.645Z</time></trkpt><trkpt lat="43.1513287" lon="12.2133927"><ele>256.0</ele><time>2026-04-12T10:02:56.637Z</time></trkpt><trkpt lat="43.1512344" lon="12.2132705"><ele>256.0</ele><time>2026-04-12T10:02:57.635Z</time></trkpt><trkpt lat="43.1511366" lon="12.2131565"><ele>256.0</ele><time>2026-04-12T10:02:58.629Z</time></trkpt><trkpt lat="43.1510363" lon="12.2130591"><ele>256.0</ele><time>2026-04-12T10:02:59.632Z</time></trkpt><trkpt lat="43.150928" lon="12.2129864"><ele>256.0</ele><time>2026-04-12T10:03:00.636Z</time></trkpt><trkpt lat="43.1508195" lon="12.2129363"><ele>256.0</ele><time>2026-04-12T10:03:01.642Z</time></trkpt><trkpt lat="43.1507043" lon="12.212905"><ele>256.0</ele><time>2026-04-12T10:03:02.63Z</time></trkpt><trkpt lat="43.1505798" lon="12.2128877"><ele>256.0</ele><time>2026-04-12T10:03:03.638Z</time></trkpt><trkpt lat="43.1504522" lon="12.2128854"><ele>256.0</ele><time>2026-04-12T10:03:04.637Z</time></trkpt><trkpt lat="43.150327" lon="12.2128843"><ele>256.0</ele><time>2026-04-12T10:03:05.641Z</time></trkpt><trkpt lat="43.1502025" lon="12.2128748"><ele>256.0</ele><time>2026-04-12T10:03:06.64Z</time></trkpt><trkpt lat="43.1500776" lon="12.2128609"><ele>256.0</ele><time>2026-04-12T10:03:07.636Z</time></trkpt><trkpt lat="43.1499487" lon="12.2128366"><ele>256.0</ele><time>2026-04-12T10:03:08.637Z</time></trkpt><trkpt lat="43.1498104" lon="12.2127998"><ele>254.33333333333331</ele><time>2026-04-12T10:03:09.635Z</time></trkpt><trkpt lat="43.149662" lon="12.2127487"><ele>252.66666666666669</ele><time>2026-04-12T10:03:10.636Z</time></trkpt><trkpt lat="43.1495047" lon="12.2126873"><ele>251.0</ele><time>2026-04-12T10:03:11.64Z</time></trkpt><trkpt lat="43.1493485" lon="12.2126263"><ele>251.0</ele><time>2026-04-12T10:03:12.639Z</time></trkpt><trkpt lat="43.1491934" lon="12.212565"><ele>251.0</ele><time>2026-04-12T10:03:13.637Z</time></trkpt><trkpt lat="43.1490441" lon="12.2124917"><ele>251.0</ele><time>2026-04-12T10:03:14.641Z</time></trkpt><trkpt lat="43.1489005" lon="12.2124154"><ele>251.0</ele><time>2026-04-12T10:03:15.643Z</time></trkpt><trkpt lat="43.1487539" lon="12.2123403"><ele>251.0</ele><time>2026-04-12T10:03:16.634Z</time></trkpt><trkpt lat="43.1486174" lon="12.2122718"><ele>251.0</ele><time>2026-04-12T10:03:17.633Z</time></trkpt><trkpt lat="43.1484946" lon="12.2122059"><ele>251.0</ele><time>2026-04-12T10:03:18.638Z</time></trkpt><trkpt lat="43.1483726" lon="12.212137"><ele>251.0</ele><time>2026-04-12T10:03:19.637Z</time></trkpt><trkpt lat="43.1482509" lon="12.2120648"><ele>251.0</ele><time>2026-04-12T10:03:20.636Z</time></trkpt><trkpt lat="43.1481396" lon="12.2119835"><ele>251.0</ele><time>2026-04-12T10:03:21.638Z</time></trkpt><trkpt lat="43.1480318" lon="12.2118947"><ele>251.0</ele><time>2026-04-12T10:03:22.636Z</time></trkpt><trkpt lat="43.1479252" lon="12.2117995"><ele>251.25</ele><time>2026-04-12T10:03:23.641Z</time></trkpt><trkpt lat="43.1478265" lon="12.2116861"><ele>251.5</ele><time>2026-04-12T10:03:24.64Z</time></trkpt><trkpt lat="43.147719" lon="12.2115737"><ele>251.75</ele><time>2026-04-12T10:03:25.646Z</time></trkpt><trkpt lat="43.1476055" lon="12.2114672"><ele>252.0</ele><time>2026-04-12T10:03:26.637Z</time></trkpt><trkpt lat="43.1475008" lon="12.211346"><ele>253.0</ele><time>2026-04-12T10:03:27.637Z</time></trkpt><trkpt lat="43.1473938" lon="12.2112104"><ele>254.0</ele><time>2026-04-12T10:03:28.643Z</time></trkpt><trkpt lat="43.1472953" lon="12.2110345"><ele>255.0</ele><time>2026-04-12T10:03:29.632Z</time></trkpt><trkpt lat="43.1471959" lon="12.2108694"><ele>255.0</ele><time>2026-04-12T10:03:30.637Z</time></trkpt><trkpt lat="43.1470906" lon="12.2107142"><ele>255.0</ele><time>2026-04-12T10:03:31.636Z</time></trkpt><trkpt lat="43.146986" lon="12.2105918"><ele>255.0</ele><time>2026-04-12T10:03:32.635Z</time></trkpt><trkpt lat="43.1468708" lon="12.2104704"><ele>255.0</ele><time>2026-04-12T10:03:33.634Z</time></trkpt><trkpt lat="43.1467749" lon="12.2103385"><ele>256.5</ele><time>2026-04-12T10:03:34.631Z</time></trkpt><trkpt lat="43.1466707" lon="12.2102438"><ele>258.0</ele><time>2026-04-12T10:03:35.628Z</time></trkpt><trkpt lat="43.1465657" lon="12.2101597"><ele>259.5</ele><time>2026-04-12T10:03:36.635Z</time></trkpt><trkpt lat="43.1464514" lon="12.2100998"><ele>261.0</ele><time>2026-04-12T10:03:37.63Z</time></trkpt><trkpt lat="43.146341" lon="12.2100801"><ele>261.5</ele><time>2026-04-12T10:03:38.625Z</time></trkpt><trkpt lat="43.1462458" lon="12.2100947"><ele>262.0</ele><time>2026-04-12T10:03:39.626Z</time></trkpt><trkpt lat="43.1461624" lon="12.2101131"><ele>262.5</ele><time>2026-04-12T10:03:40.628Z</time></trkpt><trkpt lat="43.146087" lon="12.2101415"><ele>263.0</ele><time>2026-04-12T10:03:41.626Z</time></trkpt><trkpt lat="43.146016" lon="12.210167"><ele>263.5</ele><time>2026-04-12T10:03:42.633Z</time></trkpt><trkpt lat="43.1459456" lon="12.2102007"><ele>264.0</ele><time>2026-04-12T10:03:43.624Z</time></trkpt><trkpt lat="43.1457856" lon="12.2102924"><ele>263.8333333333333</ele><time>2026-04-12T10:03:45.634Z</time></trkpt><trkpt lat="43.1456946" lon="12.210341"><ele>263.6666666666667</ele><time>2026-04-12T10:03:46.634Z</time></trkpt><trkpt lat="43.1456081" lon="12.2103875"><ele>263.5</ele><time>2026-04-12T10:03:47.626Z</time></trkpt><trkpt lat="43.14553" lon="12.2104338"><ele>263.33333333333337</ele><time>2026-04-12T10:03:48.633Z</time></trkpt><trkpt lat="43.1454758" lon="12.2104969"><ele>263.1666666666667</ele><time>2026-04-12T10:03:49.634Z</time></trkpt><trkpt lat="43.1454451" lon="12.2106001"><ele>263.0</ele><time>2026-04-12T10:03:50.628Z</time></trkpt><trkpt lat="43.145417" lon="12.2107494"><ele>260.75</ele><time>2026-04-12T10:03:51.62Z</time></trkpt><trkpt lat="43.1453995" lon="12.2109174"><ele>258.5</ele><time>2026-04-12T10:03:52.627Z</time></trkpt><trkpt lat="43.1453727" lon="12.2110764"><ele>256.25</ele><time>2026-04-12T10:03:53.626Z</time></trkpt><trkpt lat="43.1453468" lon="12.2112244"><ele>254.0</ele><time>2026-04-12T10:03:54.622Z</time></trkpt><trkpt lat="43.145319" lon="12.2113657"><ele>252.6</ele><time>2026-04-12T10:03:55.63Z</time></trkpt><trkpt lat="43.1452887" lon="12.2115027"><ele>251.2</ele><time>2026-04-12T10:03:56.639Z</time></trkpt><trkpt lat="43.1452594" lon="12.211644"><ele>249.79999999999998</ele><time>2026-04-12T10:03:57.634Z</time></trkpt><trkpt lat="43.1452288" lon="12.2117812"><ele>248.39999999999998</ele><time>2026-04-12T10:03:58.628Z</time></trkpt><trkpt lat="43.1452014" lon="12.2119052"><ele>247.0</ele><time>2026-04-12T10:03:59.632Z</time></trkpt><trkpt lat="43.1451722" lon="12.2120188"><ele>246.99999999999997</ele><time>2026-04-12T10:04:00.632Z</time></trkpt><trkpt lat="43.1451267" lon="12.2121036"><ele>247.0</ele><time>2026-04-12T10:04:01.635Z</time></trkpt><trkpt lat="43.1450707" lon="12.2121518"><ele>247.0</ele><time>2026-04-12T10:04:02.629Z</time></trkpt><trkpt lat="43.1449705" lon="12.2122004"><ele>247.0</ele><time>2026-04-12T10:04:04.624Z</time></trkpt><trkpt lat="43.1448919" lon="12.2121898"><ele>246.99999999999997</ele><time>2026-04-12T10:04:07.644Z</time></trkpt><trkpt lat="43.1448619" lon="12.2123168"><ele>247.0</ele><time>2026-04-12T10:04:17.646Z</time></trkpt><trkpt lat="43.1448604" lon="12.2124275"><ele>246.0</ele><time>2026-04-12T10:04:18.628Z</time></trkpt><trkpt lat="43.1448585" lon="12.2125554"><ele>245.0</ele><time>2026-04-12T10:04:19.634Z</time></trkpt><trkpt lat="43.1448502" lon="12.2126941"><ele>244.0</ele><time>2026-04-12T10:04:20.635Z</time></trkpt><trkpt lat="43.1448348" lon="12.2128402"><ele>243.0</ele><time>2026-04-12T10:04:21.633Z</time></trkpt><trkpt lat="43.144802" lon="12.2129855"><ele>242.0</ele><time>2026-04-12T10:04:22.634Z</time></trkpt><trkpt lat="43.1447602" lon="12.2131171"><ele>241.50000000000003</ele><time>2026-04-12T10:04:23.631Z</time></trkpt><trkpt lat="43.1447109" lon="12.2132372"><ele>241.0</ele><time>2026-04-12T10:04:24.639Z</time></trkpt><trkpt lat="43.1446623" lon="12.213333"><ele>240.5</ele><time>2026-04-12T10:04:25.639Z</time></trkpt><trkpt lat="43.1446158" lon="12.2134023"><ele>240.0</ele><time>2026-04-12T10:04:26.643Z</time></trkpt><trkpt lat="43.1445411" lon="12.2134783"><ele>239.50000000000003</ele><time>2026-04-12T10:04:28.643Z</time></trkpt><trkpt lat="43.1444802" lon="12.2134484"><ele>239.0</ele><time>2026-04-12T10:04:33.644Z</time></trkpt><trkpt lat="43.1443793" lon="12.2134236"><ele>239.0</ele><time>2026-04-12T10:04:35.647Z</time></trkpt><trkpt lat="43.1443159" lon="12.2133838"><ele>238.99999999999997</ele><time>2026-04-12T10:04:36.633Z</time></trkpt><trkpt lat="43.1442418" lon="12.2133218"><ele>238.99999999999997</ele><time>2026-04-12T10:04:37.634Z</time></trkpt><trkpt lat="43.1441761" lon="12.2132297"><ele>239.0</ele><time>2026-04-12T10:04:38.631Z</time></trkpt><trkpt lat="43.1441176" lon="12.2131122"><ele>239.0</ele><time>2026-04-12T10:04:39.634Z</time></trkpt><trkpt lat="43.1440673" lon="12.2129937"><ele>239.0</ele><time>2026-04-12T10:04:40.635Z</time></trkpt><trkpt lat="43.1440104" lon="12.2128826"><ele>238.99999999999997</ele><time>2026-04-12T10:04:41.625Z</time></trkpt><trkpt lat="43.1439451" lon="12.2127769"><ele>238.99999999999997</ele><time>2026-04-12T10:04:42.633Z</time></trkpt><trkpt lat="43.1438732" lon="12.2126978"><ele>239.0</ele><time>2026-04-12T10:04:43.624Z</time></trkpt><trkpt lat="43.1438057" lon="12.2126423"><ele>239.0</ele><time>2026-04-12T10:04:44.62Z</time></trkpt><trkpt lat="43.1437093" lon="12.2125845"><ele>239.0</ele><time>2026-04-12T10:04:46.625Z</time></trkpt><trkpt lat="43.1436511" lon="12.2126488"><ele>239.0</ele><time>2026-04-12T10:04:48.633Z</time></trkpt><trkpt lat="43.1436153" lon="12.2127288"><ele>239.0</ele><time>2026-04-12T10:04:50.634Z</time></trkpt><trkpt lat="43.1436839" lon="12.2127566"><ele>239.0</ele><time>2026-04-12T10:04:54.635Z</time></trkpt></trkseg></trk></gpx>